<?xml version="1.0" encoding="UTF-8"?>
<gpx version="1.1" creator="https://www.youtrack.es" xsi:schemaLocation="http://www.topografix.com/GPX/1/1 http://www.topografix.com/GPX/1/1/gpx.xsd http://www.garmin.com/xmlschemas/GpxExtensions/v3 http://www.garmin.com/xmlschemas/GpxExtensionsv3.xsd http://www.garmin.com/xmlschemas/TrackPointExtension/v1 http://www.garmin.com/xmlschemas/TrackPointExtensionv1.xsd" xmlns:gpxtpx="http://www.garmin.com/xmlschemas/TrackPointExtension/v1" xmlns:gpxx="http://www.garmin.com/xmlschemas/GpxExtensions/v3" xmlns:xsi="http://www.w3.org/2001/XMLSchema-instance">
  <metadata>
    <link href="https://www.youtrack.es">
      <text>YouTrack.es</text>
    </link>
    <time>2026-05-08T14:14:27Z</time>
  </metadata>
  <trk>
    <src>https://www.youtrack.es</src>
    <link href="https://www.youtrack.es/ruta/11105-fusion-triple">
      <text>YouTrack.es</text>
    </link>
    <trkseg>
      <trkpt lat="42.4685480" lon="-2.4375590">
        <ele>385.3</ele>
        <time>2020-01-12T09:36:21Z</time>
      </trkpt>
      <trkpt lat="42.4685320" lon="-2.4376490">
        <ele>385.5</ele>
        <time>2020-01-12T09:36:22Z</time>
      </trkpt>
      <trkpt lat="42.4685290" lon="-2.4378220">
        <ele>385.7</ele>
        <time>2020-01-12T09:36:23Z</time>
      </trkpt>
      <trkpt lat="42.4684950" lon="-2.4379150">
        <ele>385.9</ele>
        <time>2020-01-12T09:36:24Z</time>
      </trkpt>
      <trkpt lat="42.4684720" lon="-2.4380440">
        <ele>386.0</ele>
        <time>2020-01-12T09:36:25Z</time>
      </trkpt>
      <trkpt lat="42.4684210" lon="-2.4381380">
        <ele>386.0</ele>
        <time>2020-01-12T09:36:26Z</time>
      </trkpt>
      <trkpt lat="42.4683390" lon="-2.4382030">
        <ele>386.0</ele>
        <time>2020-01-12T09:36:27Z</time>
      </trkpt>
      <trkpt lat="42.4682220" lon="-2.4381520">
        <ele>386.4</ele>
        <time>2020-01-12T09:36:28Z</time>
      </trkpt>
      <trkpt lat="42.4679370" lon="-2.4380720">
        <ele>387.5</ele>
        <time>2020-01-12T09:36:30Z</time>
      </trkpt>
      <trkpt lat="42.4675190" lon="-2.4377280">
        <ele>388.9</ele>
        <time>2020-01-12T09:36:32Z</time>
      </trkpt>
      <trkpt lat="42.4673930" lon="-2.4376990">
        <ele>389.1</ele>
        <time>2020-01-12T09:36:33Z</time>
      </trkpt>
      <trkpt lat="42.4673390" lon="-2.4377160">
        <ele>389.2</ele>
        <time>2020-01-12T09:36:34Z</time>
      </trkpt>
      <trkpt lat="42.4672770" lon="-2.4377550">
        <ele>389.3</ele>
        <time>2020-01-12T09:36:35Z</time>
      </trkpt>
      <trkpt lat="42.4672030" lon="-2.4377630">
        <ele>389.3</ele>
        <time>2020-01-12T09:36:36Z</time>
      </trkpt>
      <trkpt lat="42.4671330" lon="-2.4377930">
        <ele>389.2</ele>
        <time>2020-01-12T09:36:37Z</time>
      </trkpt>
      <trkpt lat="42.4670780" lon="-2.4378310">
        <ele>389.1</ele>
        <time>2020-01-12T09:36:38Z</time>
      </trkpt>
      <trkpt lat="42.4670020" lon="-2.4378490">
        <ele>389.0</ele>
        <time>2020-01-12T09:36:39Z</time>
      </trkpt>
      <trkpt lat="42.4669420" lon="-2.4378950">
        <ele>388.9</ele>
        <time>2020-01-12T09:36:40Z</time>
      </trkpt>
      <trkpt lat="42.4668770" lon="-2.4379210">
        <ele>388.8</ele>
        <time>2020-01-12T09:36:41Z</time>
      </trkpt>
      <trkpt lat="42.4668070" lon="-2.4379670">
        <ele>388.8</ele>
        <time>2020-01-12T09:36:42Z</time>
      </trkpt>
      <trkpt lat="42.4667390" lon="-2.4379800">
        <ele>388.7</ele>
        <time>2020-01-12T09:36:43Z</time>
      </trkpt>
      <trkpt lat="42.4667400" lon="-2.4380590">
        <ele>388.7</ele>
        <time>2020-01-12T09:36:44Z</time>
      </trkpt>
      <trkpt lat="42.4666800" lon="-2.4380850">
        <ele>388.6</ele>
        <time>2020-01-12T09:36:45Z</time>
      </trkpt>
      <trkpt lat="42.4666010" lon="-2.4380950">
        <ele>388.5</ele>
        <time>2020-01-12T09:36:46Z</time>
      </trkpt>
      <trkpt lat="42.4666160" lon="-2.4382300">
        <ele>388.5</ele>
        <time>2020-01-12T09:36:47Z</time>
      </trkpt>
      <trkpt lat="42.4665560" lon="-2.4382840">
        <ele>388.4</ele>
        <time>2020-01-12T09:36:48Z</time>
      </trkpt>
      <trkpt lat="42.4665180" lon="-2.4382980">
        <ele>388.3</ele>
        <time>2020-01-12T09:36:49Z</time>
      </trkpt>
      <trkpt lat="42.4664560" lon="-2.4383350">
        <ele>388.2</ele>
        <time>2020-01-12T09:36:50Z</time>
      </trkpt>
      <trkpt lat="42.4663830" lon="-2.4383410">
        <ele>388.1</ele>
        <time>2020-01-12T09:36:51Z</time>
      </trkpt>
      <trkpt lat="42.4663380" lon="-2.4383830">
        <ele>388.0</ele>
        <time>2020-01-12T09:36:52Z</time>
      </trkpt>
      <trkpt lat="42.4662720" lon="-2.4383840">
        <ele>387.9</ele>
        <time>2020-01-12T09:36:53Z</time>
      </trkpt>
      <trkpt lat="42.4662150" lon="-2.4384080">
        <ele>387.8</ele>
        <time>2020-01-12T09:36:54Z</time>
      </trkpt>
      <trkpt lat="42.4661750" lon="-2.4384370">
        <ele>387.7</ele>
        <time>2020-01-12T09:36:55Z</time>
      </trkpt>
      <trkpt lat="42.4661380" lon="-2.4384920">
        <ele>387.7</ele>
        <time>2020-01-12T09:36:56Z</time>
      </trkpt>
      <trkpt lat="42.4661020" lon="-2.4385100">
        <ele>387.7</ele>
        <time>2020-01-12T09:36:57Z</time>
      </trkpt>
      <trkpt lat="42.4660570" lon="-2.4385340">
        <ele>387.6</ele>
        <time>2020-01-12T09:36:58Z</time>
      </trkpt>
      <trkpt lat="42.4660300" lon="-2.4385480">
        <ele>387.6</ele>
        <time>2020-01-12T09:36:59Z</time>
      </trkpt>
      <trkpt lat="42.4659860" lon="-2.4385430">
        <ele>387.6</ele>
        <time>2020-01-12T09:37:00Z</time>
      </trkpt>
      <trkpt lat="42.4659550" lon="-2.4385520">
        <ele>387.6</ele>
        <time>2020-01-12T09:37:01Z</time>
      </trkpt>
      <trkpt lat="42.4659020" lon="-2.4385650">
        <ele>387.6</ele>
        <time>2020-01-12T09:37:02Z</time>
      </trkpt>
      <trkpt lat="42.4658590" lon="-2.4385530">
        <ele>387.6</ele>
        <time>2020-01-12T09:37:03Z</time>
      </trkpt>
      <trkpt lat="42.4657940" lon="-2.4385360">
        <ele>387.5</ele>
        <time>2020-01-12T09:37:04Z</time>
      </trkpt>
      <trkpt lat="42.4657510" lon="-2.4385220">
        <ele>387.4</ele>
        <time>2020-01-12T09:37:05Z</time>
      </trkpt>
      <trkpt lat="42.4657500" lon="-2.4385730">
        <ele>387.4</ele>
        <time>2020-01-12T09:37:07Z</time>
      </trkpt>
      <trkpt lat="42.4657360" lon="-2.4386180">
        <ele>387.4</ele>
        <time>2020-01-12T09:37:09Z</time>
      </trkpt>
      <trkpt lat="42.4656750" lon="-2.4386380">
        <ele>387.3</ele>
        <time>2020-01-12T09:37:11Z</time>
      </trkpt>
      <trkpt lat="42.4656950" lon="-2.4387060">
        <ele>387.3</ele>
        <time>2020-01-12T09:37:13Z</time>
      </trkpt>
      <trkpt lat="42.4656630" lon="-2.4387050">
        <ele>387.4</ele>
        <time>2020-01-12T09:37:14Z</time>
      </trkpt>
      <trkpt lat="42.4655940" lon="-2.4386990">
        <ele>387.4</ele>
        <time>2020-01-12T09:37:15Z</time>
      </trkpt>
      <trkpt lat="42.4656020" lon="-2.4386480">
        <ele>387.4</ele>
        <time>2020-01-12T09:37:17Z</time>
      </trkpt>
      <trkpt lat="42.4655650" lon="-2.4387030">
        <ele>387.6</ele>
        <time>2020-01-12T09:37:20Z</time>
      </trkpt>
      <trkpt lat="42.4655460" lon="-2.4387230">
        <ele>387.6</ele>
        <time>2020-01-12T09:37:23Z</time>
      </trkpt>
      <trkpt lat="42.4655260" lon="-2.4387420">
        <ele>387.7</ele>
        <time>2020-01-12T09:38:05Z</time>
      </trkpt>
      <trkpt lat="42.4655070" lon="-2.4387620">
        <ele>387.7</ele>
        <time>2020-01-12T09:38:06Z</time>
      </trkpt>
      <trkpt lat="42.4654840" lon="-2.4387970">
        <ele>387.8</ele>
        <time>2020-01-12T09:38:07Z</time>
      </trkpt>
      <trkpt lat="42.4654340" lon="-2.4388390">
        <ele>387.9</ele>
        <time>2020-01-12T09:38:08Z</time>
      </trkpt>
      <trkpt lat="42.4653750" lon="-2.4388900">
        <ele>388.4</ele>
        <time>2020-01-12T09:38:09Z</time>
      </trkpt>
      <trkpt lat="42.4653160" lon="-2.4389060">
        <ele>388.6</ele>
        <time>2020-01-12T09:38:10Z</time>
      </trkpt>
      <trkpt lat="42.4652590" lon="-2.4389430">
        <ele>388.8</ele>
        <time>2020-01-12T09:38:11Z</time>
      </trkpt>
      <trkpt lat="42.4652070" lon="-2.4389490">
        <ele>388.9</ele>
        <time>2020-01-12T09:38:12Z</time>
      </trkpt>
      <trkpt lat="42.4651530" lon="-2.4389890">
        <ele>389.0</ele>
        <time>2020-01-12T09:38:13Z</time>
      </trkpt>
      <trkpt lat="42.4650810" lon="-2.4390060">
        <ele>389.2</ele>
        <time>2020-01-12T09:38:14Z</time>
      </trkpt>
      <trkpt lat="42.4649960" lon="-2.4390030">
        <ele>389.3</ele>
        <time>2020-01-12T09:38:15Z</time>
      </trkpt>
      <trkpt lat="42.4649210" lon="-2.4390080">
        <ele>389.5</ele>
        <time>2020-01-12T09:38:16Z</time>
      </trkpt>
      <trkpt lat="42.4648280" lon="-2.4390080">
        <ele>389.7</ele>
        <time>2020-01-12T09:38:17Z</time>
      </trkpt>
      <trkpt lat="42.4647590" lon="-2.4390290">
        <ele>389.9</ele>
        <time>2020-01-12T09:38:18Z</time>
      </trkpt>
      <trkpt lat="42.4647090" lon="-2.4390870">
        <ele>390.1</ele>
        <time>2020-01-12T09:38:19Z</time>
      </trkpt>
      <trkpt lat="42.4646430" lon="-2.4390960">
        <ele>390.2</ele>
        <time>2020-01-12T09:38:20Z</time>
      </trkpt>
      <trkpt lat="42.4646070" lon="-2.4391470">
        <ele>390.3</ele>
        <time>2020-01-12T09:38:21Z</time>
      </trkpt>
      <trkpt lat="42.4645510" lon="-2.4391900">
        <ele>390.3</ele>
        <time>2020-01-12T09:38:22Z</time>
      </trkpt>
      <trkpt lat="42.4644860" lon="-2.4392030">
        <ele>390.4</ele>
        <time>2020-01-12T09:38:23Z</time>
      </trkpt>
      <trkpt lat="42.4644230" lon="-2.4392010">
        <ele>390.5</ele>
        <time>2020-01-12T09:38:24Z</time>
      </trkpt>
      <trkpt lat="42.4643910" lon="-2.4392460">
        <ele>390.5</ele>
        <time>2020-01-12T09:38:25Z</time>
      </trkpt>
      <trkpt lat="42.4643440" lon="-2.4392910">
        <ele>390.6</ele>
        <time>2020-01-12T09:38:26Z</time>
      </trkpt>
      <trkpt lat="42.4642750" lon="-2.4393170">
        <ele>390.7</ele>
        <time>2020-01-12T09:38:27Z</time>
      </trkpt>
      <trkpt lat="42.4642130" lon="-2.4393410">
        <ele>390.7</ele>
        <time>2020-01-12T09:38:28Z</time>
      </trkpt>
      <trkpt lat="42.4641300" lon="-2.4393620">
        <ele>390.8</ele>
        <time>2020-01-12T09:38:29Z</time>
      </trkpt>
      <trkpt lat="42.4640870" lon="-2.4393960">
        <ele>390.8</ele>
        <time>2020-01-12T09:38:30Z</time>
      </trkpt>
      <trkpt lat="42.4640190" lon="-2.4394510">
        <ele>390.8</ele>
        <time>2020-01-12T09:38:31Z</time>
      </trkpt>
      <trkpt lat="42.4639440" lon="-2.4394300">
        <ele>390.9</ele>
        <time>2020-01-12T09:38:32Z</time>
      </trkpt>
      <trkpt lat="42.4638680" lon="-2.4394260">
        <ele>390.9</ele>
        <time>2020-01-12T09:38:33Z</time>
      </trkpt>
      <trkpt lat="42.4638010" lon="-2.4394350">
        <ele>390.8</ele>
        <time>2020-01-12T09:38:34Z</time>
      </trkpt>
      <trkpt lat="42.4637450" lon="-2.4394540">
        <ele>390.7</ele>
        <time>2020-01-12T09:38:35Z</time>
      </trkpt>
      <trkpt lat="42.4636970" lon="-2.4395150">
        <ele>390.6</ele>
        <time>2020-01-12T09:38:36Z</time>
      </trkpt>
      <trkpt lat="42.4636540" lon="-2.4395460">
        <ele>390.5</ele>
        <time>2020-01-12T09:38:37Z</time>
      </trkpt>
      <trkpt lat="42.4635890" lon="-2.4395780">
        <ele>390.5</ele>
        <time>2020-01-12T09:38:38Z</time>
      </trkpt>
      <trkpt lat="42.4635240" lon="-2.4395910">
        <ele>390.5</ele>
        <time>2020-01-12T09:38:39Z</time>
      </trkpt>
      <trkpt lat="42.4634600" lon="-2.4396240">
        <ele>390.5</ele>
        <time>2020-01-12T09:38:40Z</time>
      </trkpt>
      <trkpt lat="42.4633890" lon="-2.4396430">
        <ele>390.6</ele>
        <time>2020-01-12T09:38:41Z</time>
      </trkpt>
      <trkpt lat="42.4633200" lon="-2.4396930">
        <ele>390.7</ele>
        <time>2020-01-12T09:38:42Z</time>
      </trkpt>
      <trkpt lat="42.4632640" lon="-2.4397440">
        <ele>390.8</ele>
        <time>2020-01-12T09:38:43Z</time>
      </trkpt>
      <trkpt lat="42.4632060" lon="-2.4397890">
        <ele>390.8</ele>
        <time>2020-01-12T09:38:44Z</time>
      </trkpt>
      <trkpt lat="42.4631470" lon="-2.4398050">
        <ele>390.8</ele>
        <time>2020-01-12T09:38:45Z</time>
      </trkpt>
      <trkpt lat="42.4630720" lon="-2.4398530">
        <ele>390.8</ele>
        <time>2020-01-12T09:38:46Z</time>
      </trkpt>
      <trkpt lat="42.4630010" lon="-2.4399090">
        <ele>390.9</ele>
        <time>2020-01-12T09:38:47Z</time>
      </trkpt>
      <trkpt lat="42.4629570" lon="-2.4399260">
        <ele>390.9</ele>
        <time>2020-01-12T09:38:48Z</time>
      </trkpt>
      <trkpt lat="42.4629040" lon="-2.4399310">
        <ele>391.0</ele>
        <time>2020-01-12T09:38:49Z</time>
      </trkpt>
      <trkpt lat="42.4628400" lon="-2.4399560">
        <ele>391.1</ele>
        <time>2020-01-12T09:38:50Z</time>
      </trkpt>
      <trkpt lat="42.4627660" lon="-2.4399760">
        <ele>391.2</ele>
        <time>2020-01-12T09:38:51Z</time>
      </trkpt>
      <trkpt lat="42.4626900" lon="-2.4400040">
        <ele>391.3</ele>
        <time>2020-01-12T09:38:52Z</time>
      </trkpt>
      <trkpt lat="42.4626260" lon="-2.4400360">
        <ele>391.4</ele>
        <time>2020-01-12T09:38:53Z</time>
      </trkpt>
      <trkpt lat="42.4625440" lon="-2.4400540">
        <ele>391.6</ele>
        <time>2020-01-12T09:38:54Z</time>
      </trkpt>
      <trkpt lat="42.4624610" lon="-2.4400650">
        <ele>391.9</ele>
        <time>2020-01-12T09:38:55Z</time>
      </trkpt>
      <trkpt lat="42.4623730" lon="-2.4400920">
        <ele>392.1</ele>
        <time>2020-01-12T09:38:56Z</time>
      </trkpt>
      <trkpt lat="42.4622880" lon="-2.4401170">
        <ele>392.5</ele>
        <time>2020-01-12T09:38:57Z</time>
      </trkpt>
      <trkpt lat="42.4622030" lon="-2.4401120">
        <ele>392.7</ele>
        <time>2020-01-12T09:38:58Z</time>
      </trkpt>
      <trkpt lat="42.4621470" lon="-2.4401610">
        <ele>392.8</ele>
        <time>2020-01-12T09:38:59Z</time>
      </trkpt>
      <trkpt lat="42.4621230" lon="-2.4402130">
        <ele>392.9</ele>
        <time>2020-01-12T09:39:00Z</time>
      </trkpt>
      <trkpt lat="42.4620570" lon="-2.4402560">
        <ele>393.0</ele>
        <time>2020-01-12T09:39:01Z</time>
      </trkpt>
      <trkpt lat="42.4619890" lon="-2.4402700">
        <ele>393.1</ele>
        <time>2020-01-12T09:39:02Z</time>
      </trkpt>
      <trkpt lat="42.4619180" lon="-2.4403030">
        <ele>393.3</ele>
        <time>2020-01-12T09:39:03Z</time>
      </trkpt>
      <trkpt lat="42.4618350" lon="-2.4403000">
        <ele>393.6</ele>
        <time>2020-01-12T09:39:04Z</time>
      </trkpt>
      <trkpt lat="42.4617400" lon="-2.4403060">
        <ele>394.0</ele>
        <time>2020-01-12T09:39:05Z</time>
      </trkpt>
      <trkpt lat="42.4616510" lon="-2.4403400">
        <ele>394.4</ele>
        <time>2020-01-12T09:39:06Z</time>
      </trkpt>
      <trkpt lat="42.4615810" lon="-2.4404150">
        <ele>394.8</ele>
        <time>2020-01-12T09:39:07Z</time>
      </trkpt>
      <trkpt lat="42.4615520" lon="-2.4405170">
        <ele>395.0</ele>
        <time>2020-01-12T09:39:08Z</time>
      </trkpt>
      <trkpt lat="42.4615060" lon="-2.4405250">
        <ele>395.1</ele>
        <time>2020-01-12T09:39:09Z</time>
      </trkpt>
      <trkpt lat="42.4614600" lon="-2.4405320">
        <ele>395.1</ele>
        <time>2020-01-12T09:39:10Z</time>
      </trkpt>
      <trkpt lat="42.4614230" lon="-2.4405800">
        <ele>395.2</ele>
        <time>2020-01-12T09:39:11Z</time>
      </trkpt>
      <trkpt lat="42.4613620" lon="-2.4406230">
        <ele>395.2</ele>
        <time>2020-01-12T09:39:12Z</time>
      </trkpt>
      <trkpt lat="42.4613030" lon="-2.4406500">
        <ele>395.3</ele>
        <time>2020-01-12T09:39:13Z</time>
      </trkpt>
      <trkpt lat="42.4612530" lon="-2.4407010">
        <ele>395.3</ele>
        <time>2020-01-12T09:39:14Z</time>
      </trkpt>
      <trkpt lat="42.4611980" lon="-2.4407310">
        <ele>395.3</ele>
        <time>2020-01-12T09:39:15Z</time>
      </trkpt>
      <trkpt lat="42.4611280" lon="-2.4407460">
        <ele>395.3</ele>
        <time>2020-01-12T09:39:16Z</time>
      </trkpt>
      <trkpt lat="42.4610670" lon="-2.4407860">
        <ele>395.3</ele>
        <time>2020-01-12T09:39:17Z</time>
      </trkpt>
      <trkpt lat="42.4610070" lon="-2.4408110">
        <ele>395.3</ele>
        <time>2020-01-12T09:39:18Z</time>
      </trkpt>
      <trkpt lat="42.4609520" lon="-2.4408760">
        <ele>395.4</ele>
        <time>2020-01-12T09:39:19Z</time>
      </trkpt>
      <trkpt lat="42.4608920" lon="-2.4409120">
        <ele>395.4</ele>
        <time>2020-01-12T09:39:20Z</time>
      </trkpt>
      <trkpt lat="42.4608480" lon="-2.4409420">
        <ele>395.5</ele>
        <time>2020-01-12T09:39:21Z</time>
      </trkpt>
      <trkpt lat="42.4607950" lon="-2.4409720">
        <ele>395.5</ele>
        <time>2020-01-12T09:39:22Z</time>
      </trkpt>
      <trkpt lat="42.4607330" lon="-2.4410300">
        <ele>395.6</ele>
        <time>2020-01-12T09:39:23Z</time>
      </trkpt>
      <trkpt lat="42.4606750" lon="-2.4410330">
        <ele>395.7</ele>
        <time>2020-01-12T09:39:25Z</time>
      </trkpt>
      <trkpt lat="42.4606310" lon="-2.4410480">
        <ele>395.8</ele>
        <time>2020-01-12T09:39:26Z</time>
      </trkpt>
      <trkpt lat="42.4605770" lon="-2.4410730">
        <ele>395.9</ele>
        <time>2020-01-12T09:39:27Z</time>
      </trkpt>
      <trkpt lat="42.4605470" lon="-2.4410920">
        <ele>396.0</ele>
        <time>2020-01-12T09:39:28Z</time>
      </trkpt>
      <trkpt lat="42.4605240" lon="-2.4411150">
        <ele>396.1</ele>
        <time>2020-01-12T09:39:29Z</time>
      </trkpt>
      <trkpt lat="42.4604820" lon="-2.4411240">
        <ele>396.2</ele>
        <time>2020-01-12T09:39:30Z</time>
      </trkpt>
      <trkpt lat="42.4604170" lon="-2.4411080">
        <ele>396.4</ele>
        <time>2020-01-12T09:39:31Z</time>
      </trkpt>
      <trkpt lat="42.4603930" lon="-2.4411540">
        <ele>396.4</ele>
        <time>2020-01-12T09:39:32Z</time>
      </trkpt>
      <trkpt lat="42.4603680" lon="-2.4411830">
        <ele>396.5</ele>
        <time>2020-01-12T09:39:33Z</time>
      </trkpt>
      <trkpt lat="42.4603090" lon="-2.4411610">
        <ele>396.6</ele>
        <time>2020-01-12T09:39:34Z</time>
      </trkpt>
      <trkpt lat="42.4602880" lon="-2.4412170">
        <ele>396.6</ele>
        <time>2020-01-12T09:39:35Z</time>
      </trkpt>
      <trkpt lat="42.4602040" lon="-2.4411770">
        <ele>396.7</ele>
        <time>2020-01-12T09:39:36Z</time>
      </trkpt>
      <trkpt lat="42.4601510" lon="-2.4411730">
        <ele>396.7</ele>
        <time>2020-01-12T09:39:37Z</time>
      </trkpt>
      <trkpt lat="42.4601140" lon="-2.4411960">
        <ele>396.8</ele>
        <time>2020-01-12T09:39:38Z</time>
      </trkpt>
      <trkpt lat="42.4600710" lon="-2.4412400">
        <ele>396.8</ele>
        <time>2020-01-12T09:39:40Z</time>
      </trkpt>
      <trkpt lat="42.4600510" lon="-2.4412660">
        <ele>396.8</ele>
        <time>2020-01-12T09:39:41Z</time>
      </trkpt>
      <trkpt lat="42.4600200" lon="-2.4412870">
        <ele>396.8</ele>
        <time>2020-01-12T09:39:42Z</time>
      </trkpt>
      <trkpt lat="42.4600050" lon="-2.4413250">
        <ele>396.9</ele>
        <time>2020-01-12T09:39:43Z</time>
      </trkpt>
      <trkpt lat="42.4599510" lon="-2.4413450">
        <ele>396.9</ele>
        <time>2020-01-12T09:39:45Z</time>
      </trkpt>
      <trkpt lat="42.4599050" lon="-2.4413700">
        <ele>396.9</ele>
        <time>2020-01-12T09:39:47Z</time>
      </trkpt>
      <trkpt lat="42.4598710" lon="-2.4413610">
        <ele>396.9</ele>
        <time>2020-01-12T09:39:50Z</time>
      </trkpt>
      <trkpt lat="42.4598860" lon="-2.4413930">
        <ele>396.9</ele>
        <time>2020-01-12T09:39:54Z</time>
      </trkpt>
      <trkpt lat="42.4598180" lon="-2.4414200">
        <ele>396.9</ele>
        <time>2020-01-12T09:40:14Z</time>
      </trkpt>
      <trkpt lat="42.4597770" lon="-2.4414570">
        <ele>396.9</ele>
        <time>2020-01-12T09:40:16Z</time>
      </trkpt>
      <trkpt lat="42.4597490" lon="-2.4414540">
        <ele>396.9</ele>
        <time>2020-01-12T09:40:17Z</time>
      </trkpt>
      <trkpt lat="42.4597010" lon="-2.4414440">
        <ele>396.7</ele>
        <time>2020-01-12T09:40:18Z</time>
      </trkpt>
      <trkpt lat="42.4596610" lon="-2.4414790">
        <ele>396.5</ele>
        <time>2020-01-12T09:40:19Z</time>
      </trkpt>
      <trkpt lat="42.4596100" lon="-2.4415100">
        <ele>396.3</ele>
        <time>2020-01-12T09:40:20Z</time>
      </trkpt>
      <trkpt lat="42.4595580" lon="-2.4415320">
        <ele>396.2</ele>
        <time>2020-01-12T09:40:21Z</time>
      </trkpt>
      <trkpt lat="42.4594680" lon="-2.4415220">
        <ele>396.1</ele>
        <time>2020-01-12T09:40:22Z</time>
      </trkpt>
      <trkpt lat="42.4594330" lon="-2.4415670">
        <ele>396.2</ele>
        <time>2020-01-12T09:40:23Z</time>
      </trkpt>
      <trkpt lat="42.4593650" lon="-2.4415850">
        <ele>396.3</ele>
        <time>2020-01-12T09:40:24Z</time>
      </trkpt>
      <trkpt lat="42.4592880" lon="-2.4415830">
        <ele>396.4</ele>
        <time>2020-01-12T09:40:25Z</time>
      </trkpt>
      <trkpt lat="42.4592210" lon="-2.4415870">
        <ele>396.6</ele>
        <time>2020-01-12T09:40:26Z</time>
      </trkpt>
      <trkpt lat="42.4591440" lon="-2.4416100">
        <ele>396.8</ele>
        <time>2020-01-12T09:40:27Z</time>
      </trkpt>
      <trkpt lat="42.4590790" lon="-2.4416200">
        <ele>396.8</ele>
        <time>2020-01-12T09:40:28Z</time>
      </trkpt>
      <trkpt lat="42.4589880" lon="-2.4416280">
        <ele>396.8</ele>
        <time>2020-01-12T09:40:29Z</time>
      </trkpt>
      <trkpt lat="42.4589200" lon="-2.4416410">
        <ele>396.8</ele>
        <time>2020-01-12T09:40:30Z</time>
      </trkpt>
      <trkpt lat="42.4588350" lon="-2.4416640">
        <ele>396.8</ele>
        <time>2020-01-12T09:40:31Z</time>
      </trkpt>
      <trkpt lat="42.4587700" lon="-2.4416600">
        <ele>396.8</ele>
        <time>2020-01-12T09:40:32Z</time>
      </trkpt>
      <trkpt lat="42.4586870" lon="-2.4416500">
        <ele>396.8</ele>
        <time>2020-01-12T09:40:33Z</time>
      </trkpt>
      <trkpt lat="42.4586120" lon="-2.4416320">
        <ele>396.5</ele>
        <time>2020-01-12T09:40:34Z</time>
      </trkpt>
      <trkpt lat="42.4585660" lon="-2.4416530">
        <ele>396.0</ele>
        <time>2020-01-12T09:40:35Z</time>
      </trkpt>
      <trkpt lat="42.4585340" lon="-2.4416780">
        <ele>395.7</ele>
        <time>2020-01-12T09:40:36Z</time>
      </trkpt>
      <trkpt lat="42.4584920" lon="-2.4416970">
        <ele>395.3</ele>
        <time>2020-01-12T09:40:37Z</time>
      </trkpt>
      <trkpt lat="42.4584510" lon="-2.4417270">
        <ele>395.0</ele>
        <time>2020-01-12T09:40:38Z</time>
      </trkpt>
      <trkpt lat="42.4584270" lon="-2.4417790">
        <ele>394.6</ele>
        <time>2020-01-12T09:40:39Z</time>
      </trkpt>
      <trkpt lat="42.4584110" lon="-2.4418620">
        <ele>395.7</ele>
        <time>2020-01-12T09:40:40Z</time>
      </trkpt>
      <trkpt lat="42.4583890" lon="-2.4419290">
        <ele>395.3</ele>
        <time>2020-01-12T09:40:41Z</time>
      </trkpt>
      <trkpt lat="42.4583460" lon="-2.4419650">
        <ele>395.0</ele>
        <time>2020-01-12T09:40:42Z</time>
      </trkpt>
      <trkpt lat="42.4583060" lon="-2.4419680">
        <ele>394.7</ele>
        <time>2020-01-12T09:40:43Z</time>
      </trkpt>
      <trkpt lat="42.4582720" lon="-2.4419470">
        <ele>392.3</ele>
        <time>2020-01-12T09:40:44Z</time>
      </trkpt>
      <trkpt lat="42.4582370" lon="-2.4419270">
        <ele>392.2</ele>
        <time>2020-01-12T09:40:45Z</time>
      </trkpt>
      <trkpt lat="42.4582000" lon="-2.4418930">
        <ele>392.0</ele>
        <time>2020-01-12T09:40:46Z</time>
      </trkpt>
      <trkpt lat="42.4581670" lon="-2.4418370">
        <ele>391.9</ele>
        <time>2020-01-12T09:40:47Z</time>
      </trkpt>
      <trkpt lat="42.4581350" lon="-2.4417860">
        <ele>391.7</ele>
        <time>2020-01-12T09:40:48Z</time>
      </trkpt>
      <trkpt lat="42.4580880" lon="-2.4417500">
        <ele>391.5</ele>
        <time>2020-01-12T09:40:49Z</time>
      </trkpt>
      <trkpt lat="42.4580420" lon="-2.4417120">
        <ele>391.3</ele>
        <time>2020-01-12T09:40:50Z</time>
      </trkpt>
      <trkpt lat="42.4579890" lon="-2.4416870">
        <ele>391.0</ele>
        <time>2020-01-12T09:40:51Z</time>
      </trkpt>
      <trkpt lat="42.4579480" lon="-2.4416930">
        <ele>390.9</ele>
        <time>2020-01-12T09:40:52Z</time>
      </trkpt>
      <trkpt lat="42.4579030" lon="-2.4417040">
        <ele>390.8</ele>
        <time>2020-01-12T09:40:53Z</time>
      </trkpt>
      <trkpt lat="42.4578610" lon="-2.4417220">
        <ele>390.6</ele>
        <time>2020-01-12T09:40:54Z</time>
      </trkpt>
      <trkpt lat="42.4578030" lon="-2.4417200">
        <ele>390.5</ele>
        <time>2020-01-12T09:40:55Z</time>
      </trkpt>
      <trkpt lat="42.4577510" lon="-2.4417190">
        <ele>390.4</ele>
        <time>2020-01-12T09:40:56Z</time>
      </trkpt>
      <trkpt lat="42.4577100" lon="-2.4417450">
        <ele>390.4</ele>
        <time>2020-01-12T09:40:57Z</time>
      </trkpt>
      <trkpt lat="42.4576460" lon="-2.4417220">
        <ele>390.3</ele>
        <time>2020-01-12T09:40:58Z</time>
      </trkpt>
      <trkpt lat="42.4575850" lon="-2.4416900">
        <ele>390.1</ele>
        <time>2020-01-12T09:40:59Z</time>
      </trkpt>
      <trkpt lat="42.4575390" lon="-2.4416950">
        <ele>390.0</ele>
        <time>2020-01-12T09:41:00Z</time>
      </trkpt>
      <trkpt lat="42.4574750" lon="-2.4416850">
        <ele>389.8</ele>
        <time>2020-01-12T09:41:01Z</time>
      </trkpt>
      <trkpt lat="42.4574240" lon="-2.4416950">
        <ele>389.6</ele>
        <time>2020-01-12T09:41:02Z</time>
      </trkpt>
      <trkpt lat="42.4573580" lon="-2.4416800">
        <ele>389.3</ele>
        <time>2020-01-12T09:41:03Z</time>
      </trkpt>
      <trkpt lat="42.4572880" lon="-2.4416590">
        <ele>389.0</ele>
        <time>2020-01-12T09:41:04Z</time>
      </trkpt>
      <trkpt lat="42.4572300" lon="-2.4416580">
        <ele>389.1</ele>
        <time>2020-01-12T09:41:05Z</time>
      </trkpt>
      <trkpt lat="42.4571550" lon="-2.4416340">
        <ele>389.1</ele>
        <time>2020-01-12T09:41:06Z</time>
      </trkpt>
      <trkpt lat="42.4570660" lon="-2.4415920">
        <ele>389.1</ele>
        <time>2020-01-12T09:41:07Z</time>
      </trkpt>
      <trkpt lat="42.4570030" lon="-2.4415670">
        <ele>389.2</ele>
        <time>2020-01-12T09:41:08Z</time>
      </trkpt>
      <trkpt lat="42.4569190" lon="-2.4415320">
        <ele>389.2</ele>
        <time>2020-01-12T09:41:09Z</time>
      </trkpt>
      <trkpt lat="42.4568460" lon="-2.4415290">
        <ele>389.2</ele>
        <time>2020-01-12T09:41:10Z</time>
      </trkpt>
      <trkpt lat="42.4567480" lon="-2.4414840">
        <ele>389.3</ele>
        <time>2020-01-12T09:41:11Z</time>
      </trkpt>
      <trkpt lat="42.4566270" lon="-2.4414050">
        <ele>390.1</ele>
        <time>2020-01-12T09:41:12Z</time>
      </trkpt>
      <trkpt lat="42.4565730" lon="-2.4414470">
        <ele>390.3</ele>
        <time>2020-01-12T09:41:13Z</time>
      </trkpt>
      <trkpt lat="42.4565430" lon="-2.4414980">
        <ele>390.3</ele>
        <time>2020-01-12T09:41:14Z</time>
      </trkpt>
      <trkpt lat="42.4564990" lon="-2.4414910">
        <ele>390.4</ele>
        <time>2020-01-12T09:41:15Z</time>
      </trkpt>
      <trkpt lat="42.4564290" lon="-2.4414650">
        <ele>390.6</ele>
        <time>2020-01-12T09:41:16Z</time>
      </trkpt>
      <trkpt lat="42.4563440" lon="-2.4414090">
        <ele>390.7</ele>
        <time>2020-01-12T09:41:17Z</time>
      </trkpt>
      <trkpt lat="42.4562590" lon="-2.4413640">
        <ele>390.9</ele>
        <time>2020-01-12T09:41:18Z</time>
      </trkpt>
      <trkpt lat="42.4562070" lon="-2.4413900">
        <ele>391.0</ele>
        <time>2020-01-12T09:41:19Z</time>
      </trkpt>
      <trkpt lat="42.4561440" lon="-2.4413720">
        <ele>391.1</ele>
        <time>2020-01-12T09:41:20Z</time>
      </trkpt>
      <trkpt lat="42.4560890" lon="-2.4413590">
        <ele>391.3</ele>
        <time>2020-01-12T09:41:21Z</time>
      </trkpt>
      <trkpt lat="42.4560310" lon="-2.4413460">
        <ele>391.5</ele>
        <time>2020-01-12T09:41:22Z</time>
      </trkpt>
      <trkpt lat="42.4559860" lon="-2.4413500">
        <ele>391.7</ele>
        <time>2020-01-12T09:41:23Z</time>
      </trkpt>
      <trkpt lat="42.4559360" lon="-2.4413480">
        <ele>391.8</ele>
        <time>2020-01-12T09:41:24Z</time>
      </trkpt>
      <trkpt lat="42.4558710" lon="-2.4413310">
        <ele>391.8</ele>
        <time>2020-01-12T09:41:25Z</time>
      </trkpt>
      <trkpt lat="42.4558230" lon="-2.4413250">
        <ele>391.8</ele>
        <time>2020-01-12T09:41:26Z</time>
      </trkpt>
      <trkpt lat="42.4557830" lon="-2.4413440">
        <ele>391.8</ele>
        <time>2020-01-12T09:41:27Z</time>
      </trkpt>
      <trkpt lat="42.4558090" lon="-2.4414350">
        <ele>391.8</ele>
        <time>2020-01-12T09:41:28Z</time>
      </trkpt>
      <trkpt lat="42.4558120" lon="-2.4415020">
        <ele>391.7</ele>
        <time>2020-01-12T09:41:29Z</time>
      </trkpt>
      <trkpt lat="42.4557950" lon="-2.4415570">
        <ele>391.7</ele>
        <time>2020-01-12T09:41:30Z</time>
      </trkpt>
      <trkpt lat="42.4557560" lon="-2.4416170">
        <ele>391.7</ele>
        <time>2020-01-12T09:41:31Z</time>
      </trkpt>
      <trkpt lat="42.4557110" lon="-2.4416410">
        <ele>391.7</ele>
        <time>2020-01-12T09:41:32Z</time>
      </trkpt>
      <trkpt lat="42.4556780" lon="-2.4417000">
        <ele>391.7</ele>
        <time>2020-01-12T09:41:33Z</time>
      </trkpt>
      <trkpt lat="42.4556500" lon="-2.4417050">
        <ele>391.7</ele>
        <time>2020-01-12T09:41:34Z</time>
      </trkpt>
      <trkpt lat="42.4556100" lon="-2.4417040">
        <ele>391.7</ele>
        <time>2020-01-12T09:41:35Z</time>
      </trkpt>
      <trkpt lat="42.4555570" lon="-2.4416850">
        <ele>391.7</ele>
        <time>2020-01-12T09:41:36Z</time>
      </trkpt>
      <trkpt lat="42.4555290" lon="-2.4416840">
        <ele>391.7</ele>
        <time>2020-01-12T09:41:37Z</time>
      </trkpt>
      <trkpt lat="42.4554910" lon="-2.4416520">
        <ele>391.7</ele>
        <time>2020-01-12T09:41:38Z</time>
      </trkpt>
      <trkpt lat="42.4554430" lon="-2.4415910">
        <ele>391.7</ele>
        <time>2020-01-12T09:41:39Z</time>
      </trkpt>
      <trkpt lat="42.4553970" lon="-2.4415420">
        <ele>391.7</ele>
        <time>2020-01-12T09:41:40Z</time>
      </trkpt>
      <trkpt lat="42.4553530" lon="-2.4414810">
        <ele>391.6</ele>
        <time>2020-01-12T09:41:41Z</time>
      </trkpt>
      <trkpt lat="42.4553120" lon="-2.4414720">
        <ele>391.6</ele>
        <time>2020-01-12T09:41:42Z</time>
      </trkpt>
      <trkpt lat="42.4552530" lon="-2.4414490">
        <ele>391.5</ele>
        <time>2020-01-12T09:41:43Z</time>
      </trkpt>
      <trkpt lat="42.4551940" lon="-2.4414250">
        <ele>391.5</ele>
        <time>2020-01-12T09:41:44Z</time>
      </trkpt>
      <trkpt lat="42.4551210" lon="-2.4414010">
        <ele>391.8</ele>
        <time>2020-01-12T09:41:45Z</time>
      </trkpt>
      <trkpt lat="42.4550500" lon="-2.4413760">
        <ele>391.9</ele>
        <time>2020-01-12T09:41:46Z</time>
      </trkpt>
      <trkpt lat="42.4549800" lon="-2.4413600">
        <ele>392.1</ele>
        <time>2020-01-12T09:41:47Z</time>
      </trkpt>
      <trkpt lat="42.4549060" lon="-2.4413360">
        <ele>392.3</ele>
        <time>2020-01-12T09:41:48Z</time>
      </trkpt>
      <trkpt lat="42.4548300" lon="-2.4413040">
        <ele>392.4</ele>
        <time>2020-01-12T09:41:49Z</time>
      </trkpt>
      <trkpt lat="42.4547640" lon="-2.4412680">
        <ele>392.4</ele>
        <time>2020-01-12T09:41:50Z</time>
      </trkpt>
      <trkpt lat="42.4546950" lon="-2.4412620">
        <ele>392.5</ele>
        <time>2020-01-12T09:41:51Z</time>
      </trkpt>
      <trkpt lat="42.4546430" lon="-2.4412520">
        <ele>392.6</ele>
        <time>2020-01-12T09:41:52Z</time>
      </trkpt>
      <trkpt lat="42.4545890" lon="-2.4412450">
        <ele>392.6</ele>
        <time>2020-01-12T09:41:53Z</time>
      </trkpt>
      <trkpt lat="42.4545390" lon="-2.4412070">
        <ele>392.7</ele>
        <time>2020-01-12T09:41:54Z</time>
      </trkpt>
      <trkpt lat="42.4544990" lon="-2.4412120">
        <ele>392.8</ele>
        <time>2020-01-12T09:41:55Z</time>
      </trkpt>
      <trkpt lat="42.4544350" lon="-2.4411970">
        <ele>392.9</ele>
        <time>2020-01-12T09:41:56Z</time>
      </trkpt>
      <trkpt lat="42.4543660" lon="-2.4411850">
        <ele>393.0</ele>
        <time>2020-01-12T09:41:57Z</time>
      </trkpt>
      <trkpt lat="42.4543050" lon="-2.4411860">
        <ele>393.2</ele>
        <time>2020-01-12T09:41:58Z</time>
      </trkpt>
      <trkpt lat="42.4542570" lon="-2.4411740">
        <ele>393.3</ele>
        <time>2020-01-12T09:41:59Z</time>
      </trkpt>
      <trkpt lat="42.4541970" lon="-2.4411610">
        <ele>393.5</ele>
        <time>2020-01-12T09:42:00Z</time>
      </trkpt>
      <trkpt lat="42.4541410" lon="-2.4411580">
        <ele>393.5</ele>
        <time>2020-01-12T09:42:01Z</time>
      </trkpt>
      <trkpt lat="42.4540980" lon="-2.4411880">
        <ele>393.5</ele>
        <time>2020-01-12T09:42:02Z</time>
      </trkpt>
      <trkpt lat="42.4540690" lon="-2.4412450">
        <ele>393.5</ele>
        <time>2020-01-12T09:42:03Z</time>
      </trkpt>
      <trkpt lat="42.4540380" lon="-2.4412990">
        <ele>393.4</ele>
        <time>2020-01-12T09:42:04Z</time>
      </trkpt>
      <trkpt lat="42.4539880" lon="-2.4413210">
        <ele>393.4</ele>
        <time>2020-01-12T09:42:05Z</time>
      </trkpt>
      <trkpt lat="42.4539410" lon="-2.4413250">
        <ele>393.4</ele>
        <time>2020-01-12T09:42:06Z</time>
      </trkpt>
      <trkpt lat="42.4538890" lon="-2.4413200">
        <ele>393.4</ele>
        <time>2020-01-12T09:42:07Z</time>
      </trkpt>
      <trkpt lat="42.4538500" lon="-2.4413050">
        <ele>393.4</ele>
        <time>2020-01-12T09:42:08Z</time>
      </trkpt>
      <trkpt lat="42.4538170" lon="-2.4412720">
        <ele>393.5</ele>
        <time>2020-01-12T09:42:09Z</time>
      </trkpt>
      <trkpt lat="42.4537740" lon="-2.4412490">
        <ele>393.5</ele>
        <time>2020-01-12T09:42:10Z</time>
      </trkpt>
      <trkpt lat="42.4537250" lon="-2.4412190">
        <ele>393.4</ele>
        <time>2020-01-12T09:42:11Z</time>
      </trkpt>
      <trkpt lat="42.4536670" lon="-2.4411860">
        <ele>393.3</ele>
        <time>2020-01-12T09:42:12Z</time>
      </trkpt>
      <trkpt lat="42.4536210" lon="-2.4411870">
        <ele>393.2</ele>
        <time>2020-01-12T09:42:13Z</time>
      </trkpt>
      <trkpt lat="42.4535590" lon="-2.4411670">
        <ele>393.0</ele>
        <time>2020-01-12T09:42:14Z</time>
      </trkpt>
      <trkpt lat="42.4534950" lon="-2.4411540">
        <ele>392.8</ele>
        <time>2020-01-12T09:42:15Z</time>
      </trkpt>
      <trkpt lat="42.4534340" lon="-2.4411650">
        <ele>392.7</ele>
        <time>2020-01-12T09:42:16Z</time>
      </trkpt>
      <trkpt lat="42.4534030" lon="-2.4412270">
        <ele>392.6</ele>
        <time>2020-01-12T09:42:17Z</time>
      </trkpt>
      <trkpt lat="42.4533540" lon="-2.4412630">
        <ele>392.5</ele>
        <time>2020-01-12T09:42:18Z</time>
      </trkpt>
      <trkpt lat="42.4533170" lon="-2.4413230">
        <ele>392.3</ele>
        <time>2020-01-12T09:42:19Z</time>
      </trkpt>
      <trkpt lat="42.4532690" lon="-2.4413680">
        <ele>392.2</ele>
        <time>2020-01-12T09:42:20Z</time>
      </trkpt>
      <trkpt lat="42.4532240" lon="-2.4414080">
        <ele>392.2</ele>
        <time>2020-01-12T09:42:21Z</time>
      </trkpt>
      <trkpt lat="42.4531770" lon="-2.4414230">
        <ele>392.2</ele>
        <time>2020-01-12T09:42:22Z</time>
      </trkpt>
      <trkpt lat="42.4531030" lon="-2.4413830">
        <ele>392.1</ele>
        <time>2020-01-12T09:42:23Z</time>
      </trkpt>
      <trkpt lat="42.4530640" lon="-2.4413670">
        <ele>392.1</ele>
        <time>2020-01-12T09:42:24Z</time>
      </trkpt>
      <trkpt lat="42.4530280" lon="-2.4413410">
        <ele>392.1</ele>
        <time>2020-01-12T09:42:25Z</time>
      </trkpt>
      <trkpt lat="42.4529940" lon="-2.4412920">
        <ele>392.1</ele>
        <time>2020-01-12T09:42:26Z</time>
      </trkpt>
      <trkpt lat="42.4529490" lon="-2.4411970">
        <ele>392.0</ele>
        <time>2020-01-12T09:42:27Z</time>
      </trkpt>
      <trkpt lat="42.4529460" lon="-2.4411180">
        <ele>392.0</ele>
        <time>2020-01-12T09:42:28Z</time>
      </trkpt>
      <trkpt lat="42.4529420" lon="-2.4410250">
        <ele>392.0</ele>
        <time>2020-01-12T09:42:29Z</time>
      </trkpt>
      <trkpt lat="42.4529350" lon="-2.4409330">
        <ele>392.0</ele>
        <time>2020-01-12T09:42:30Z</time>
      </trkpt>
      <trkpt lat="42.4529700" lon="-2.4408360">
        <ele>392.1</ele>
        <time>2020-01-12T09:42:31Z</time>
      </trkpt>
      <trkpt lat="42.4529830" lon="-2.4407850">
        <ele>392.1</ele>
        <time>2020-01-12T09:42:32Z</time>
      </trkpt>
      <trkpt lat="42.4530360" lon="-2.4407520">
        <ele>392.1</ele>
        <time>2020-01-12T09:42:33Z</time>
      </trkpt>
      <trkpt lat="42.4530990" lon="-2.4407100">
        <ele>392.1</ele>
        <time>2020-01-12T09:42:34Z</time>
      </trkpt>
      <trkpt lat="42.4531570" lon="-2.4406550">
        <ele>392.2</ele>
        <time>2020-01-12T09:42:35Z</time>
      </trkpt>
      <trkpt lat="42.4532170" lon="-2.4406000">
        <ele>392.2</ele>
        <time>2020-01-12T09:42:36Z</time>
      </trkpt>
      <trkpt lat="42.4532820" lon="-2.4405440">
        <ele>392.2</ele>
        <time>2020-01-12T09:42:37Z</time>
      </trkpt>
      <trkpt lat="42.4533140" lon="-2.4404720">
        <ele>392.2</ele>
        <time>2020-01-12T09:42:38Z</time>
      </trkpt>
      <trkpt lat="42.4533580" lon="-2.4404120">
        <ele>392.2</ele>
        <time>2020-01-12T09:42:39Z</time>
      </trkpt>
      <trkpt lat="42.4533930" lon="-2.4403430">
        <ele>392.2</ele>
        <time>2020-01-12T09:42:40Z</time>
      </trkpt>
      <trkpt lat="42.4534330" lon="-2.4402750">
        <ele>392.2</ele>
        <time>2020-01-12T09:42:41Z</time>
      </trkpt>
      <trkpt lat="42.4534450" lon="-2.4401970">
        <ele>392.2</ele>
        <time>2020-01-12T09:42:42Z</time>
      </trkpt>
      <trkpt lat="42.4534820" lon="-2.4401140">
        <ele>392.2</ele>
        <time>2020-01-12T09:42:43Z</time>
      </trkpt>
      <trkpt lat="42.4535270" lon="-2.4400260">
        <ele>392.2</ele>
        <time>2020-01-12T09:42:44Z</time>
      </trkpt>
      <trkpt lat="42.4535640" lon="-2.4399300">
        <ele>392.1</ele>
        <time>2020-01-12T09:42:45Z</time>
      </trkpt>
      <trkpt lat="42.4535650" lon="-2.4398370">
        <ele>392.0</ele>
        <time>2020-01-12T09:42:46Z</time>
      </trkpt>
      <trkpt lat="42.4535770" lon="-2.4397430">
        <ele>391.9</ele>
        <time>2020-01-12T09:42:47Z</time>
      </trkpt>
      <trkpt lat="42.4535900" lon="-2.4396560">
        <ele>391.8</ele>
        <time>2020-01-12T09:42:48Z</time>
      </trkpt>
      <trkpt lat="42.4536020" lon="-2.4395660">
        <ele>391.6</ele>
        <time>2020-01-12T09:42:49Z</time>
      </trkpt>
      <trkpt lat="42.4536200" lon="-2.4394670">
        <ele>391.5</ele>
        <time>2020-01-12T09:42:50Z</time>
      </trkpt>
      <trkpt lat="42.4536170" lon="-2.4393820">
        <ele>391.5</ele>
        <time>2020-01-12T09:42:51Z</time>
      </trkpt>
      <trkpt lat="42.4536150" lon="-2.4392920">
        <ele>391.4</ele>
        <time>2020-01-12T09:42:52Z</time>
      </trkpt>
      <trkpt lat="42.4536340" lon="-2.4391900">
        <ele>391.4</ele>
        <time>2020-01-12T09:42:53Z</time>
      </trkpt>
      <trkpt lat="42.4536390" lon="-2.4390900">
        <ele>391.4</ele>
        <time>2020-01-12T09:42:54Z</time>
      </trkpt>
      <trkpt lat="42.4536210" lon="-2.4390040">
        <ele>391.4</ele>
        <time>2020-01-12T09:42:55Z</time>
      </trkpt>
      <trkpt lat="42.4536080" lon="-2.4389180">
        <ele>391.3</ele>
        <time>2020-01-12T09:42:56Z</time>
      </trkpt>
      <trkpt lat="42.4536260" lon="-2.4388460">
        <ele>391.2</ele>
        <time>2020-01-12T09:42:57Z</time>
      </trkpt>
      <trkpt lat="42.4536030" lon="-2.4387760">
        <ele>391.0</ele>
        <time>2020-01-12T09:42:58Z</time>
      </trkpt>
      <trkpt lat="42.4536050" lon="-2.4386750">
        <ele>390.8</ele>
        <time>2020-01-12T09:42:59Z</time>
      </trkpt>
      <trkpt lat="42.4535980" lon="-2.4385960">
        <ele>390.7</ele>
        <time>2020-01-12T09:43:00Z</time>
      </trkpt>
      <trkpt lat="42.4536060" lon="-2.4385390">
        <ele>390.5</ele>
        <time>2020-01-12T09:43:01Z</time>
      </trkpt>
      <trkpt lat="42.4535920" lon="-2.4384780">
        <ele>390.4</ele>
        <time>2020-01-12T09:43:02Z</time>
      </trkpt>
      <trkpt lat="42.4535400" lon="-2.4384350">
        <ele>390.3</ele>
        <time>2020-01-12T09:43:03Z</time>
      </trkpt>
      <trkpt lat="42.4535010" lon="-2.4384040">
        <ele>390.2</ele>
        <time>2020-01-12T09:43:04Z</time>
      </trkpt>
      <trkpt lat="42.4534670" lon="-2.4383820">
        <ele>390.2</ele>
        <time>2020-01-12T09:43:05Z</time>
      </trkpt>
      <trkpt lat="42.4534310" lon="-2.4383680">
        <ele>390.1</ele>
        <time>2020-01-12T09:43:06Z</time>
      </trkpt>
      <trkpt lat="42.4533720" lon="-2.4383430">
        <ele>390.0</ele>
        <time>2020-01-12T09:43:07Z</time>
      </trkpt>
      <trkpt lat="42.4533180" lon="-2.4383050">
        <ele>390.0</ele>
        <time>2020-01-12T09:43:08Z</time>
      </trkpt>
      <trkpt lat="42.4532530" lon="-2.4382670">
        <ele>389.8</ele>
        <time>2020-01-12T09:43:09Z</time>
      </trkpt>
      <trkpt lat="42.4532160" lon="-2.4382670">
        <ele>389.9</ele>
        <time>2020-01-12T09:43:10Z</time>
      </trkpt>
      <trkpt lat="42.4532000" lon="-2.4383010">
        <ele>390.0</ele>
        <time>2020-01-12T09:43:11Z</time>
      </trkpt>
      <trkpt lat="42.4531410" lon="-2.4382590">
        <ele>390.1</ele>
        <time>2020-01-12T09:43:12Z</time>
      </trkpt>
      <trkpt lat="42.4530990" lon="-2.4382410">
        <ele>390.2</ele>
        <time>2020-01-12T09:43:13Z</time>
      </trkpt>
      <trkpt lat="42.4530360" lon="-2.4382320">
        <ele>390.4</ele>
        <time>2020-01-12T09:43:14Z</time>
      </trkpt>
      <trkpt lat="42.4529820" lon="-2.4382290">
        <ele>390.4</ele>
        <time>2020-01-12T09:43:15Z</time>
      </trkpt>
      <trkpt lat="42.4529500" lon="-2.4382640">
        <ele>390.5</ele>
        <time>2020-01-12T09:43:16Z</time>
      </trkpt>
      <trkpt lat="42.4529170" lon="-2.4383010">
        <ele>390.6</ele>
        <time>2020-01-12T09:43:17Z</time>
      </trkpt>
      <trkpt lat="42.4528450" lon="-2.4382700">
        <ele>390.7</ele>
        <time>2020-01-12T09:43:18Z</time>
      </trkpt>
      <trkpt lat="42.4527930" lon="-2.4382630">
        <ele>390.8</ele>
        <time>2020-01-12T09:43:19Z</time>
      </trkpt>
      <trkpt lat="42.4527350" lon="-2.4382480">
        <ele>390.9</ele>
        <time>2020-01-12T09:43:20Z</time>
      </trkpt>
      <trkpt lat="42.4526750" lon="-2.4382160">
        <ele>390.9</ele>
        <time>2020-01-12T09:43:21Z</time>
      </trkpt>
      <trkpt lat="42.4526400" lon="-2.4382270">
        <ele>391.0</ele>
        <time>2020-01-12T09:43:22Z</time>
      </trkpt>
      <trkpt lat="42.4525760" lon="-2.4381970">
        <ele>391.1</ele>
        <time>2020-01-12T09:43:23Z</time>
      </trkpt>
      <trkpt lat="42.4525160" lon="-2.4381650">
        <ele>391.2</ele>
        <time>2020-01-12T09:43:24Z</time>
      </trkpt>
      <trkpt lat="42.4524450" lon="-2.4381050">
        <ele>391.3</ele>
        <time>2020-01-12T09:43:25Z</time>
      </trkpt>
      <trkpt lat="42.4523880" lon="-2.4380530">
        <ele>391.4</ele>
        <time>2020-01-12T09:43:26Z</time>
      </trkpt>
      <trkpt lat="42.4523310" lon="-2.4380200">
        <ele>391.5</ele>
        <time>2020-01-12T09:43:27Z</time>
      </trkpt>
      <trkpt lat="42.4522770" lon="-2.4379800">
        <ele>391.5</ele>
        <time>2020-01-12T09:43:28Z</time>
      </trkpt>
      <trkpt lat="42.4522280" lon="-2.4379600">
        <ele>391.6</ele>
        <time>2020-01-12T09:43:29Z</time>
      </trkpt>
      <trkpt lat="42.4521760" lon="-2.4379350">
        <ele>391.7</ele>
        <time>2020-01-12T09:43:30Z</time>
      </trkpt>
      <trkpt lat="42.4521250" lon="-2.4379090">
        <ele>391.7</ele>
        <time>2020-01-12T09:43:31Z</time>
      </trkpt>
      <trkpt lat="42.4520670" lon="-2.4378770">
        <ele>391.8</ele>
        <time>2020-01-12T09:43:32Z</time>
      </trkpt>
      <trkpt lat="42.4520130" lon="-2.4378400">
        <ele>391.8</ele>
        <time>2020-01-12T09:43:33Z</time>
      </trkpt>
      <trkpt lat="42.4519500" lon="-2.4378010">
        <ele>391.9</ele>
        <time>2020-01-12T09:43:34Z</time>
      </trkpt>
      <trkpt lat="42.4518940" lon="-2.4377880">
        <ele>391.9</ele>
        <time>2020-01-12T09:43:35Z</time>
      </trkpt>
      <trkpt lat="42.4518410" lon="-2.4377710">
        <ele>391.9</ele>
        <time>2020-01-12T09:43:36Z</time>
      </trkpt>
      <trkpt lat="42.4517830" lon="-2.4377460">
        <ele>392.0</ele>
        <time>2020-01-12T09:43:37Z</time>
      </trkpt>
      <trkpt lat="42.4517020" lon="-2.4376920">
        <ele>392.0</ele>
        <time>2020-01-12T09:43:38Z</time>
      </trkpt>
      <trkpt lat="42.4516610" lon="-2.4376780">
        <ele>392.1</ele>
        <time>2020-01-12T09:43:39Z</time>
      </trkpt>
      <trkpt lat="42.4516400" lon="-2.4377260">
        <ele>392.1</ele>
        <time>2020-01-12T09:43:40Z</time>
      </trkpt>
      <trkpt lat="42.4515860" lon="-2.4377280">
        <ele>392.2</ele>
        <time>2020-01-12T09:43:41Z</time>
      </trkpt>
      <trkpt lat="42.4515550" lon="-2.4377770">
        <ele>392.4</ele>
        <time>2020-01-12T09:43:42Z</time>
      </trkpt>
      <trkpt lat="42.4515180" lon="-2.4378100">
        <ele>392.5</ele>
        <time>2020-01-12T09:43:43Z</time>
      </trkpt>
      <trkpt lat="42.4514840" lon="-2.4378430">
        <ele>392.6</ele>
        <time>2020-01-12T09:43:44Z</time>
      </trkpt>
      <trkpt lat="42.4514410" lon="-2.4378700">
        <ele>392.7</ele>
        <time>2020-01-12T09:43:45Z</time>
      </trkpt>
      <trkpt lat="42.4514080" lon="-2.4378970">
        <ele>392.7</ele>
        <time>2020-01-12T09:43:46Z</time>
      </trkpt>
      <trkpt lat="42.4513610" lon="-2.4378970">
        <ele>392.8</ele>
        <time>2020-01-12T09:43:47Z</time>
      </trkpt>
      <trkpt lat="42.4513100" lon="-2.4378680">
        <ele>393.0</ele>
        <time>2020-01-12T09:43:48Z</time>
      </trkpt>
      <trkpt lat="42.4512750" lon="-2.4378460">
        <ele>393.0</ele>
        <time>2020-01-12T09:43:49Z</time>
      </trkpt>
      <trkpt lat="42.4512400" lon="-2.4378070">
        <ele>393.1</ele>
        <time>2020-01-12T09:43:50Z</time>
      </trkpt>
      <trkpt lat="42.4511920" lon="-2.4377710">
        <ele>393.4</ele>
        <time>2020-01-12T09:43:51Z</time>
      </trkpt>
      <trkpt lat="42.4511410" lon="-2.4377480">
        <ele>393.5</ele>
        <time>2020-01-12T09:43:52Z</time>
      </trkpt>
      <trkpt lat="42.4510850" lon="-2.4377360">
        <ele>393.6</ele>
        <time>2020-01-12T09:43:53Z</time>
      </trkpt>
      <trkpt lat="42.4510250" lon="-2.4377300">
        <ele>393.7</ele>
        <time>2020-01-12T09:43:54Z</time>
      </trkpt>
      <trkpt lat="42.4509750" lon="-2.4377400">
        <ele>393.8</ele>
        <time>2020-01-12T09:43:55Z</time>
      </trkpt>
      <trkpt lat="42.4509130" lon="-2.4377800">
        <ele>393.9</ele>
        <time>2020-01-12T09:43:56Z</time>
      </trkpt>
      <trkpt lat="42.4508540" lon="-2.4378130">
        <ele>394.0</ele>
        <time>2020-01-12T09:43:57Z</time>
      </trkpt>
      <trkpt lat="42.4508010" lon="-2.4378170">
        <ele>394.1</ele>
        <time>2020-01-12T09:43:58Z</time>
      </trkpt>
      <trkpt lat="42.4507480" lon="-2.4378590">
        <ele>394.2</ele>
        <time>2020-01-12T09:43:59Z</time>
      </trkpt>
      <trkpt lat="42.4506980" lon="-2.4379130">
        <ele>394.3</ele>
        <time>2020-01-12T09:44:00Z</time>
      </trkpt>
      <trkpt lat="42.4506470" lon="-2.4379680">
        <ele>394.3</ele>
        <time>2020-01-12T09:44:01Z</time>
      </trkpt>
      <trkpt lat="42.4505940" lon="-2.4380290">
        <ele>394.3</ele>
        <time>2020-01-12T09:44:02Z</time>
      </trkpt>
      <trkpt lat="42.4505500" lon="-2.4380970">
        <ele>394.2</ele>
        <time>2020-01-12T09:44:03Z</time>
      </trkpt>
      <trkpt lat="42.4505110" lon="-2.4381620">
        <ele>394.2</ele>
        <time>2020-01-12T09:44:04Z</time>
      </trkpt>
      <trkpt lat="42.4504710" lon="-2.4382390">
        <ele>394.1</ele>
        <time>2020-01-12T09:44:05Z</time>
      </trkpt>
      <trkpt lat="42.4504370" lon="-2.4383260">
        <ele>393.9</ele>
        <time>2020-01-12T09:44:06Z</time>
      </trkpt>
      <trkpt lat="42.4504010" lon="-2.4384090">
        <ele>393.8</ele>
        <time>2020-01-12T09:44:07Z</time>
      </trkpt>
      <trkpt lat="42.4503640" lon="-2.4384890">
        <ele>393.5</ele>
        <time>2020-01-12T09:44:08Z</time>
      </trkpt>
      <trkpt lat="42.4503260" lon="-2.4385690">
        <ele>393.4</ele>
        <time>2020-01-12T09:44:09Z</time>
      </trkpt>
      <trkpt lat="42.4502880" lon="-2.4386450">
        <ele>393.2</ele>
        <time>2020-01-12T09:44:10Z</time>
      </trkpt>
      <trkpt lat="42.4502500" lon="-2.4387250">
        <ele>393.1</ele>
        <time>2020-01-12T09:44:11Z</time>
      </trkpt>
      <trkpt lat="42.4502130" lon="-2.4388010">
        <ele>393.1</ele>
        <time>2020-01-12T09:44:12Z</time>
      </trkpt>
      <trkpt lat="42.4501770" lon="-2.4388800">
        <ele>393.0</ele>
        <time>2020-01-12T09:44:13Z</time>
      </trkpt>
      <trkpt lat="42.4501520" lon="-2.4389510">
        <ele>393.0</ele>
        <time>2020-01-12T09:44:14Z</time>
      </trkpt>
      <trkpt lat="42.4501110" lon="-2.4390330">
        <ele>393.1</ele>
        <time>2020-01-12T09:44:15Z</time>
      </trkpt>
      <trkpt lat="42.4500720" lon="-2.4391200">
        <ele>393.2</ele>
        <time>2020-01-12T09:44:16Z</time>
      </trkpt>
      <trkpt lat="42.4500420" lon="-2.4391950">
        <ele>393.3</ele>
        <time>2020-01-12T09:44:17Z</time>
      </trkpt>
      <trkpt lat="42.4500090" lon="-2.4392680">
        <ele>393.4</ele>
        <time>2020-01-12T09:44:18Z</time>
      </trkpt>
      <trkpt lat="42.4499840" lon="-2.4393510">
        <ele>393.5</ele>
        <time>2020-01-12T09:44:19Z</time>
      </trkpt>
      <trkpt lat="42.4499560" lon="-2.4394420">
        <ele>393.5</ele>
        <time>2020-01-12T09:44:20Z</time>
      </trkpt>
      <trkpt lat="42.4499330" lon="-2.4395470">
        <ele>393.6</ele>
        <time>2020-01-12T09:44:21Z</time>
      </trkpt>
      <trkpt lat="42.4499000" lon="-2.4396030">
        <ele>393.6</ele>
        <time>2020-01-12T09:44:22Z</time>
      </trkpt>
      <trkpt lat="42.4498600" lon="-2.4396810">
        <ele>393.7</ele>
        <time>2020-01-12T09:44:23Z</time>
      </trkpt>
      <trkpt lat="42.4498070" lon="-2.4397770">
        <ele>393.7</ele>
        <time>2020-01-12T09:44:24Z</time>
      </trkpt>
      <trkpt lat="42.4497680" lon="-2.4398560">
        <ele>393.7</ele>
        <time>2020-01-12T09:44:25Z</time>
      </trkpt>
      <trkpt lat="42.4497460" lon="-2.4398920">
        <ele>393.7</ele>
        <time>2020-01-12T09:44:26Z</time>
      </trkpt>
      <trkpt lat="42.4497080" lon="-2.4399580">
        <ele>393.7</ele>
        <time>2020-01-12T09:44:27Z</time>
      </trkpt>
      <trkpt lat="42.4496750" lon="-2.4400350">
        <ele>393.7</ele>
        <time>2020-01-12T09:44:28Z</time>
      </trkpt>
      <trkpt lat="42.4496210" lon="-2.4401360">
        <ele>393.6</ele>
        <time>2020-01-12T09:44:29Z</time>
      </trkpt>
      <trkpt lat="42.4495840" lon="-2.4402070">
        <ele>393.6</ele>
        <time>2020-01-12T09:44:30Z</time>
      </trkpt>
      <trkpt lat="42.4495500" lon="-2.4402830">
        <ele>393.6</ele>
        <time>2020-01-12T09:44:31Z</time>
      </trkpt>
      <trkpt lat="42.4495130" lon="-2.4403680">
        <ele>393.6</ele>
        <time>2020-01-12T09:44:32Z</time>
      </trkpt>
      <trkpt lat="42.4494690" lon="-2.4404480">
        <ele>393.7</ele>
        <time>2020-01-12T09:44:33Z</time>
      </trkpt>
      <trkpt lat="42.4494350" lon="-2.4405340">
        <ele>393.7</ele>
        <time>2020-01-12T09:44:34Z</time>
      </trkpt>
      <trkpt lat="42.4493890" lon="-2.4406370">
        <ele>393.9</ele>
        <time>2020-01-12T09:44:35Z</time>
      </trkpt>
      <trkpt lat="42.4493570" lon="-2.4407170">
        <ele>394.0</ele>
        <time>2020-01-12T09:44:36Z</time>
      </trkpt>
      <trkpt lat="42.4493220" lon="-2.4408190">
        <ele>394.2</ele>
        <time>2020-01-12T09:44:37Z</time>
      </trkpt>
      <trkpt lat="42.4493110" lon="-2.4408840">
        <ele>394.2</ele>
        <time>2020-01-12T09:44:38Z</time>
      </trkpt>
      <trkpt lat="42.4492760" lon="-2.4409710">
        <ele>394.3</ele>
        <time>2020-01-12T09:44:39Z</time>
      </trkpt>
      <trkpt lat="42.4492460" lon="-2.4410620">
        <ele>394.4</ele>
        <time>2020-01-12T09:44:40Z</time>
      </trkpt>
      <trkpt lat="42.4492080" lon="-2.4411540">
        <ele>394.4</ele>
        <time>2020-01-12T09:44:41Z</time>
      </trkpt>
      <trkpt lat="42.4491660" lon="-2.4412390">
        <ele>394.5</ele>
        <time>2020-01-12T09:44:42Z</time>
      </trkpt>
      <trkpt lat="42.4491230" lon="-2.4413250">
        <ele>394.5</ele>
        <time>2020-01-12T09:44:43Z</time>
      </trkpt>
      <trkpt lat="42.4490800" lon="-2.4414000">
        <ele>394.6</ele>
        <time>2020-01-12T09:44:44Z</time>
      </trkpt>
      <trkpt lat="42.4490260" lon="-2.4414650">
        <ele>394.6</ele>
        <time>2020-01-12T09:44:45Z</time>
      </trkpt>
      <trkpt lat="42.4489670" lon="-2.4415340">
        <ele>394.7</ele>
        <time>2020-01-12T09:44:46Z</time>
      </trkpt>
      <trkpt lat="42.4489080" lon="-2.4416040">
        <ele>394.8</ele>
        <time>2020-01-12T09:44:47Z</time>
      </trkpt>
      <trkpt lat="42.4488740" lon="-2.4416860">
        <ele>394.8</ele>
        <time>2020-01-12T09:44:48Z</time>
      </trkpt>
      <trkpt lat="42.4488280" lon="-2.4417650">
        <ele>394.8</ele>
        <time>2020-01-12T09:44:49Z</time>
      </trkpt>
      <trkpt lat="42.4487850" lon="-2.4418560">
        <ele>394.8</ele>
        <time>2020-01-12T09:44:50Z</time>
      </trkpt>
      <trkpt lat="42.4487470" lon="-2.4419260">
        <ele>394.8</ele>
        <time>2020-01-12T09:44:51Z</time>
      </trkpt>
      <trkpt lat="42.4487040" lon="-2.4420010">
        <ele>394.8</ele>
        <time>2020-01-12T09:44:52Z</time>
      </trkpt>
      <trkpt lat="42.4486560" lon="-2.4420920">
        <ele>394.7</ele>
        <time>2020-01-12T09:44:53Z</time>
      </trkpt>
      <trkpt lat="42.4486180" lon="-2.4421730">
        <ele>394.7</ele>
        <time>2020-01-12T09:44:54Z</time>
      </trkpt>
      <trkpt lat="42.4485810" lon="-2.4422530">
        <ele>394.7</ele>
        <time>2020-01-12T09:44:55Z</time>
      </trkpt>
      <trkpt lat="42.4485560" lon="-2.4423380">
        <ele>394.8</ele>
        <time>2020-01-12T09:44:56Z</time>
      </trkpt>
      <trkpt lat="42.4485220" lon="-2.4424300">
        <ele>394.8</ele>
        <time>2020-01-12T09:44:57Z</time>
      </trkpt>
      <trkpt lat="42.4484900" lon="-2.4425160">
        <ele>394.9</ele>
        <time>2020-01-12T09:44:58Z</time>
      </trkpt>
      <trkpt lat="42.4484470" lon="-2.4426130">
        <ele>394.9</ele>
        <time>2020-01-12T09:44:59Z</time>
      </trkpt>
      <trkpt lat="42.4484190" lon="-2.4426980">
        <ele>395.0</ele>
        <time>2020-01-12T09:45:00Z</time>
      </trkpt>
      <trkpt lat="42.4483850" lon="-2.4427830">
        <ele>395.1</ele>
        <time>2020-01-12T09:45:01Z</time>
      </trkpt>
      <trkpt lat="42.4483490" lon="-2.4428600">
        <ele>395.1</ele>
        <time>2020-01-12T09:45:02Z</time>
      </trkpt>
      <trkpt lat="42.4483150" lon="-2.4429420">
        <ele>395.2</ele>
        <time>2020-01-12T09:45:03Z</time>
      </trkpt>
      <trkpt lat="42.4482950" lon="-2.4430200">
        <ele>395.2</ele>
        <time>2020-01-12T09:45:04Z</time>
      </trkpt>
      <trkpt lat="42.4482800" lon="-2.4430900">
        <ele>395.3</ele>
        <time>2020-01-12T09:45:05Z</time>
      </trkpt>
      <trkpt lat="42.4482440" lon="-2.4431800">
        <ele>395.3</ele>
        <time>2020-01-12T09:45:06Z</time>
      </trkpt>
      <trkpt lat="42.4482030" lon="-2.4432390">
        <ele>395.4</ele>
        <time>2020-01-12T09:45:07Z</time>
      </trkpt>
      <trkpt lat="42.4481690" lon="-2.4433260">
        <ele>395.4</ele>
        <time>2020-01-12T09:45:08Z</time>
      </trkpt>
      <trkpt lat="42.4481420" lon="-2.4433410">
        <ele>395.5</ele>
        <time>2020-01-12T09:45:09Z</time>
      </trkpt>
      <trkpt lat="42.4481200" lon="-2.4434270">
        <ele>395.6</ele>
        <time>2020-01-12T09:45:10Z</time>
      </trkpt>
      <trkpt lat="42.4480670" lon="-2.4434960">
        <ele>395.7</ele>
        <time>2020-01-12T09:45:11Z</time>
      </trkpt>
      <trkpt lat="42.4480400" lon="-2.4435470">
        <ele>395.7</ele>
        <time>2020-01-12T09:45:12Z</time>
      </trkpt>
      <trkpt lat="42.4480120" lon="-2.4436250">
        <ele>395.8</ele>
        <time>2020-01-12T09:45:13Z</time>
      </trkpt>
      <trkpt lat="42.4479960" lon="-2.4436900">
        <ele>395.9</ele>
        <time>2020-01-12T09:45:14Z</time>
      </trkpt>
      <trkpt lat="42.4479630" lon="-2.4437600">
        <ele>395.9</ele>
        <time>2020-01-12T09:45:15Z</time>
      </trkpt>
      <trkpt lat="42.4479330" lon="-2.4438350">
        <ele>396.0</ele>
        <time>2020-01-12T09:45:16Z</time>
      </trkpt>
      <trkpt lat="42.4479180" lon="-2.4438970">
        <ele>396.0</ele>
        <time>2020-01-12T09:45:17Z</time>
      </trkpt>
      <trkpt lat="42.4478790" lon="-2.4439780">
        <ele>396.1</ele>
        <time>2020-01-12T09:45:18Z</time>
      </trkpt>
      <trkpt lat="42.4478370" lon="-2.4440500">
        <ele>396.2</ele>
        <time>2020-01-12T09:45:19Z</time>
      </trkpt>
      <trkpt lat="42.4478170" lon="-2.4440980">
        <ele>396.2</ele>
        <time>2020-01-12T09:45:20Z</time>
      </trkpt>
      <trkpt lat="42.4477880" lon="-2.4441520">
        <ele>396.3</ele>
        <time>2020-01-12T09:45:21Z</time>
      </trkpt>
      <trkpt lat="42.4477440" lon="-2.4442170">
        <ele>396.3</ele>
        <time>2020-01-12T09:45:22Z</time>
      </trkpt>
      <trkpt lat="42.4477090" lon="-2.4442850">
        <ele>396.4</ele>
        <time>2020-01-12T09:45:23Z</time>
      </trkpt>
      <trkpt lat="42.4476710" lon="-2.4443520">
        <ele>396.5</ele>
        <time>2020-01-12T09:45:24Z</time>
      </trkpt>
      <trkpt lat="42.4476280" lon="-2.4444110">
        <ele>396.6</ele>
        <time>2020-01-12T09:45:25Z</time>
      </trkpt>
      <trkpt lat="42.4476070" lon="-2.4444670">
        <ele>396.7</ele>
        <time>2020-01-12T09:45:26Z</time>
      </trkpt>
      <trkpt lat="42.4475630" lon="-2.4445390">
        <ele>396.9</ele>
        <time>2020-01-12T09:45:27Z</time>
      </trkpt>
      <trkpt lat="42.4475300" lon="-2.4446120">
        <ele>397.1</ele>
        <time>2020-01-12T09:45:28Z</time>
      </trkpt>
      <trkpt lat="42.4474920" lon="-2.4446830">
        <ele>397.2</ele>
        <time>2020-01-12T09:45:29Z</time>
      </trkpt>
      <trkpt lat="42.4474490" lon="-2.4447430">
        <ele>397.3</ele>
        <time>2020-01-12T09:45:30Z</time>
      </trkpt>
      <trkpt lat="42.4474230" lon="-2.4448090">
        <ele>397.5</ele>
        <time>2020-01-12T09:45:31Z</time>
      </trkpt>
      <trkpt lat="42.4473830" lon="-2.4448830">
        <ele>397.6</ele>
        <time>2020-01-12T09:45:32Z</time>
      </trkpt>
      <trkpt lat="42.4473610" lon="-2.4449470">
        <ele>397.8</ele>
        <time>2020-01-12T09:45:33Z</time>
      </trkpt>
      <trkpt lat="42.4473540" lon="-2.4449840">
        <ele>397.9</ele>
        <time>2020-01-12T09:45:34Z</time>
      </trkpt>
      <trkpt lat="42.4473520" lon="-2.4450320">
        <ele>397.9</ele>
        <time>2020-01-12T09:45:35Z</time>
      </trkpt>
      <trkpt lat="42.4472970" lon="-2.4451220">
        <ele>398.1</ele>
        <time>2020-01-12T09:45:36Z</time>
      </trkpt>
      <trkpt lat="42.4472560" lon="-2.4452040">
        <ele>398.2</ele>
        <time>2020-01-12T09:45:37Z</time>
      </trkpt>
      <trkpt lat="42.4472190" lon="-2.4452840">
        <ele>398.4</ele>
        <time>2020-01-12T09:45:38Z</time>
      </trkpt>
      <trkpt lat="42.4471980" lon="-2.4453310">
        <ele>398.4</ele>
        <time>2020-01-12T09:45:39Z</time>
      </trkpt>
      <trkpt lat="42.4471430" lon="-2.4454240">
        <ele>398.6</ele>
        <time>2020-01-12T09:45:40Z</time>
      </trkpt>
      <trkpt lat="42.4471150" lon="-2.4454850">
        <ele>398.7</ele>
        <time>2020-01-12T09:45:41Z</time>
      </trkpt>
      <trkpt lat="42.4470830" lon="-2.4455610">
        <ele>398.8</ele>
        <time>2020-01-12T09:45:42Z</time>
      </trkpt>
      <trkpt lat="42.4470570" lon="-2.4456270">
        <ele>398.9</ele>
        <time>2020-01-12T09:45:43Z</time>
      </trkpt>
      <trkpt lat="42.4470190" lon="-2.4457080">
        <ele>399.0</ele>
        <time>2020-01-12T09:45:44Z</time>
      </trkpt>
      <trkpt lat="42.4469820" lon="-2.4457810">
        <ele>399.1</ele>
        <time>2020-01-12T09:45:45Z</time>
      </trkpt>
      <trkpt lat="42.4469610" lon="-2.4458520">
        <ele>399.1</ele>
        <time>2020-01-12T09:45:46Z</time>
      </trkpt>
      <trkpt lat="42.4469280" lon="-2.4459330">
        <ele>399.2</ele>
        <time>2020-01-12T09:45:47Z</time>
      </trkpt>
      <trkpt lat="42.4468860" lon="-2.4460140">
        <ele>399.3</ele>
        <time>2020-01-12T09:45:48Z</time>
      </trkpt>
      <trkpt lat="42.4468540" lon="-2.4460780">
        <ele>399.4</ele>
        <time>2020-01-12T09:45:49Z</time>
      </trkpt>
      <trkpt lat="42.4468270" lon="-2.4461420">
        <ele>399.5</ele>
        <time>2020-01-12T09:45:50Z</time>
      </trkpt>
      <trkpt lat="42.4468050" lon="-2.4462120">
        <ele>399.6</ele>
        <time>2020-01-12T09:45:51Z</time>
      </trkpt>
      <trkpt lat="42.4467840" lon="-2.4462770">
        <ele>399.7</ele>
        <time>2020-01-12T09:45:52Z</time>
      </trkpt>
      <trkpt lat="42.4467570" lon="-2.4463360">
        <ele>399.7</ele>
        <time>2020-01-12T09:45:53Z</time>
      </trkpt>
      <trkpt lat="42.4467360" lon="-2.4464050">
        <ele>399.8</ele>
        <time>2020-01-12T09:45:54Z</time>
      </trkpt>
      <trkpt lat="42.4466980" lon="-2.4464910">
        <ele>399.9</ele>
        <time>2020-01-12T09:45:55Z</time>
      </trkpt>
      <trkpt lat="42.4466710" lon="-2.4465660">
        <ele>400.0</ele>
        <time>2020-01-12T09:45:56Z</time>
      </trkpt>
      <trkpt lat="42.4466340" lon="-2.4466310">
        <ele>400.1</ele>
        <time>2020-01-12T09:45:57Z</time>
      </trkpt>
      <trkpt lat="42.4466010" lon="-2.4466950">
        <ele>400.1</ele>
        <time>2020-01-12T09:45:58Z</time>
      </trkpt>
      <trkpt lat="42.4465640" lon="-2.4467590">
        <ele>400.2</ele>
        <time>2020-01-12T09:45:59Z</time>
      </trkpt>
      <trkpt lat="42.4465320" lon="-2.4468240">
        <ele>400.3</ele>
        <time>2020-01-12T09:46:00Z</time>
      </trkpt>
      <trkpt lat="42.4464940" lon="-2.4468930">
        <ele>400.3</ele>
        <time>2020-01-12T09:46:01Z</time>
      </trkpt>
      <trkpt lat="42.4464670" lon="-2.4469520">
        <ele>400.4</ele>
        <time>2020-01-12T09:46:02Z</time>
      </trkpt>
      <trkpt lat="42.4464400" lon="-2.4470110">
        <ele>400.5</ele>
        <time>2020-01-12T09:46:03Z</time>
      </trkpt>
      <trkpt lat="42.4464030" lon="-2.4470920">
        <ele>400.6</ele>
        <time>2020-01-12T09:46:04Z</time>
      </trkpt>
      <trkpt lat="42.4463870" lon="-2.4471510">
        <ele>400.7</ele>
        <time>2020-01-12T09:46:05Z</time>
      </trkpt>
      <trkpt lat="42.4463550" lon="-2.4472210">
        <ele>400.8</ele>
        <time>2020-01-12T09:46:06Z</time>
      </trkpt>
      <trkpt lat="42.4463170" lon="-2.4472800">
        <ele>400.9</ele>
        <time>2020-01-12T09:46:07Z</time>
      </trkpt>
      <trkpt lat="42.4462860" lon="-2.4473520">
        <ele>401.0</ele>
        <time>2020-01-12T09:46:08Z</time>
      </trkpt>
      <trkpt lat="42.4462500" lon="-2.4474200">
        <ele>401.1</ele>
        <time>2020-01-12T09:46:09Z</time>
      </trkpt>
      <trkpt lat="42.4462190" lon="-2.4474910">
        <ele>401.1</ele>
        <time>2020-01-12T09:46:10Z</time>
      </trkpt>
      <trkpt lat="42.4461830" lon="-2.4475690">
        <ele>401.2</ele>
        <time>2020-01-12T09:46:11Z</time>
      </trkpt>
      <trkpt lat="42.4461600" lon="-2.4476360">
        <ele>401.2</ele>
        <time>2020-01-12T09:46:12Z</time>
      </trkpt>
      <trkpt lat="42.4461240" lon="-2.4477090">
        <ele>401.3</ele>
        <time>2020-01-12T09:46:13Z</time>
      </trkpt>
      <trkpt lat="42.4460930" lon="-2.4477720">
        <ele>401.4</ele>
        <time>2020-01-12T09:46:14Z</time>
      </trkpt>
      <trkpt lat="42.4460650" lon="-2.4478390">
        <ele>401.5</ele>
        <time>2020-01-12T09:46:15Z</time>
      </trkpt>
      <trkpt lat="42.4460380" lon="-2.4478970">
        <ele>401.7</ele>
        <time>2020-01-12T09:46:16Z</time>
      </trkpt>
      <trkpt lat="42.4460080" lon="-2.4479610">
        <ele>401.8</ele>
        <time>2020-01-12T09:46:17Z</time>
      </trkpt>
      <trkpt lat="42.4459740" lon="-2.4480310">
        <ele>401.9</ele>
        <time>2020-01-12T09:46:18Z</time>
      </trkpt>
      <trkpt lat="42.4459360" lon="-2.4480980">
        <ele>402.1</ele>
        <time>2020-01-12T09:46:19Z</time>
      </trkpt>
      <trkpt lat="42.4459010" lon="-2.4481720">
        <ele>402.2</ele>
        <time>2020-01-12T09:46:20Z</time>
      </trkpt>
      <trkpt lat="42.4458620" lon="-2.4482590">
        <ele>402.4</ele>
        <time>2020-01-12T09:46:21Z</time>
      </trkpt>
      <trkpt lat="42.4458300" lon="-2.4483280">
        <ele>402.5</ele>
        <time>2020-01-12T09:46:22Z</time>
      </trkpt>
      <trkpt lat="42.4457970" lon="-2.4483950">
        <ele>402.6</ele>
        <time>2020-01-12T09:46:23Z</time>
      </trkpt>
      <trkpt lat="42.4457670" lon="-2.4484580">
        <ele>402.7</ele>
        <time>2020-01-12T09:46:24Z</time>
      </trkpt>
      <trkpt lat="42.4457360" lon="-2.4485190">
        <ele>402.8</ele>
        <time>2020-01-12T09:46:25Z</time>
      </trkpt>
      <trkpt lat="42.4457010" lon="-2.4485920">
        <ele>402.9</ele>
        <time>2020-01-12T09:46:26Z</time>
      </trkpt>
      <trkpt lat="42.4456630" lon="-2.4486640">
        <ele>403.0</ele>
        <time>2020-01-12T09:46:27Z</time>
      </trkpt>
      <trkpt lat="42.4456410" lon="-2.4487170">
        <ele>403.1</ele>
        <time>2020-01-12T09:46:28Z</time>
      </trkpt>
      <trkpt lat="42.4456090" lon="-2.4487970">
        <ele>403.1</ele>
        <time>2020-01-12T09:46:29Z</time>
      </trkpt>
      <trkpt lat="42.4455770" lon="-2.4488730">
        <ele>403.1</ele>
        <time>2020-01-12T09:46:30Z</time>
      </trkpt>
      <trkpt lat="42.4455430" lon="-2.4489470">
        <ele>403.2</ele>
        <time>2020-01-12T09:46:31Z</time>
      </trkpt>
      <trkpt lat="42.4455110" lon="-2.4490260">
        <ele>403.2</ele>
        <time>2020-01-12T09:46:32Z</time>
      </trkpt>
      <trkpt lat="42.4454860" lon="-2.4490880">
        <ele>403.2</ele>
        <time>2020-01-12T09:46:33Z</time>
      </trkpt>
      <trkpt lat="42.4454520" lon="-2.4491550">
        <ele>403.3</ele>
        <time>2020-01-12T09:46:34Z</time>
      </trkpt>
      <trkpt lat="42.4454240" lon="-2.4492240">
        <ele>403.3</ele>
        <time>2020-01-12T09:46:35Z</time>
      </trkpt>
      <trkpt lat="42.4453990" lon="-2.4492860">
        <ele>403.4</ele>
        <time>2020-01-12T09:46:36Z</time>
      </trkpt>
      <trkpt lat="42.4453700" lon="-2.4493620">
        <ele>403.5</ele>
        <time>2020-01-12T09:46:37Z</time>
      </trkpt>
      <trkpt lat="42.4453350" lon="-2.4494310">
        <ele>403.6</ele>
        <time>2020-01-12T09:46:38Z</time>
      </trkpt>
      <trkpt lat="42.4453050" lon="-2.4494990">
        <ele>403.7</ele>
        <time>2020-01-12T09:46:39Z</time>
      </trkpt>
      <trkpt lat="42.4452730" lon="-2.4495660">
        <ele>403.8</ele>
        <time>2020-01-12T09:46:40Z</time>
      </trkpt>
      <trkpt lat="42.4452440" lon="-2.4496350">
        <ele>403.9</ele>
        <time>2020-01-12T09:46:41Z</time>
      </trkpt>
      <trkpt lat="42.4452150" lon="-2.4496970">
        <ele>404.0</ele>
        <time>2020-01-12T09:46:42Z</time>
      </trkpt>
      <trkpt lat="42.4451810" lon="-2.4497620">
        <ele>404.1</ele>
        <time>2020-01-12T09:46:43Z</time>
      </trkpt>
      <trkpt lat="42.4451470" lon="-2.4498320">
        <ele>404.1</ele>
        <time>2020-01-12T09:46:44Z</time>
      </trkpt>
      <trkpt lat="42.4451230" lon="-2.4498940">
        <ele>404.1</ele>
        <time>2020-01-12T09:46:45Z</time>
      </trkpt>
      <trkpt lat="42.4450990" lon="-2.4499490">
        <ele>404.2</ele>
        <time>2020-01-12T09:46:46Z</time>
      </trkpt>
      <trkpt lat="42.4450770" lon="-2.4500080">
        <ele>404.2</ele>
        <time>2020-01-12T09:46:47Z</time>
      </trkpt>
      <trkpt lat="42.4450480" lon="-2.4500710">
        <ele>404.2</ele>
        <time>2020-01-12T09:46:48Z</time>
      </trkpt>
      <trkpt lat="42.4450240" lon="-2.4501230">
        <ele>404.2</ele>
        <time>2020-01-12T09:46:49Z</time>
      </trkpt>
      <trkpt lat="42.4449900" lon="-2.4502000">
        <ele>404.2</ele>
        <time>2020-01-12T09:46:50Z</time>
      </trkpt>
      <trkpt lat="42.4449640" lon="-2.4502590">
        <ele>404.1</ele>
        <time>2020-01-12T09:46:51Z</time>
      </trkpt>
      <trkpt lat="42.4449360" lon="-2.4503020">
        <ele>404.1</ele>
        <time>2020-01-12T09:46:52Z</time>
      </trkpt>
      <trkpt lat="42.4449100" lon="-2.4503550">
        <ele>404.0</ele>
        <time>2020-01-12T09:46:53Z</time>
      </trkpt>
      <trkpt lat="42.4448930" lon="-2.4503850">
        <ele>404.0</ele>
        <time>2020-01-12T09:46:54Z</time>
      </trkpt>
      <trkpt lat="42.4448790" lon="-2.4504550">
        <ele>403.9</ele>
        <time>2020-01-12T09:46:55Z</time>
      </trkpt>
      <trkpt lat="42.4448510" lon="-2.4505260">
        <ele>404.0</ele>
        <time>2020-01-12T09:46:56Z</time>
      </trkpt>
      <trkpt lat="42.4448180" lon="-2.4505930">
        <ele>404.0</ele>
        <time>2020-01-12T09:46:57Z</time>
      </trkpt>
      <trkpt lat="42.4447830" lon="-2.4506380">
        <ele>404.1</ele>
        <time>2020-01-12T09:46:58Z</time>
      </trkpt>
      <trkpt lat="42.4447550" lon="-2.4506870">
        <ele>404.1</ele>
        <time>2020-01-12T09:46:59Z</time>
      </trkpt>
      <trkpt lat="42.4447340" lon="-2.4507470">
        <ele>404.1</ele>
        <time>2020-01-12T09:47:00Z</time>
      </trkpt>
      <trkpt lat="42.4447300" lon="-2.4508020">
        <ele>404.2</ele>
        <time>2020-01-12T09:47:01Z</time>
      </trkpt>
      <trkpt lat="42.4447530" lon="-2.4508350">
        <ele>404.2</ele>
        <time>2020-01-12T09:47:02Z</time>
      </trkpt>
      <trkpt lat="42.4447710" lon="-2.4508740">
        <ele>404.3</ele>
        <time>2020-01-12T09:47:03Z</time>
      </trkpt>
      <trkpt lat="42.4447960" lon="-2.4509110">
        <ele>404.3</ele>
        <time>2020-01-12T09:47:04Z</time>
      </trkpt>
      <trkpt lat="42.4448200" lon="-2.4509640">
        <ele>404.2</ele>
        <time>2020-01-12T09:47:05Z</time>
      </trkpt>
      <trkpt lat="42.4448420" lon="-2.4510240">
        <ele>404.3</ele>
        <time>2020-01-12T09:47:06Z</time>
      </trkpt>
      <trkpt lat="42.4448410" lon="-2.4510780">
        <ele>404.3</ele>
        <time>2020-01-12T09:47:07Z</time>
      </trkpt>
      <trkpt lat="42.4448310" lon="-2.4511360">
        <ele>404.6</ele>
        <time>2020-01-12T09:47:08Z</time>
      </trkpt>
      <trkpt lat="42.4448170" lon="-2.4511710">
        <ele>404.7</ele>
        <time>2020-01-12T09:47:09Z</time>
      </trkpt>
      <trkpt lat="42.4447800" lon="-2.4511970">
        <ele>404.8</ele>
        <time>2020-01-12T09:47:10Z</time>
      </trkpt>
      <trkpt lat="42.4447330" lon="-2.4512300">
        <ele>404.9</ele>
        <time>2020-01-12T09:47:11Z</time>
      </trkpt>
      <trkpt lat="42.4446860" lon="-2.4512390">
        <ele>404.9</ele>
        <time>2020-01-12T09:47:12Z</time>
      </trkpt>
      <trkpt lat="42.4446380" lon="-2.4512220">
        <ele>405.0</ele>
        <time>2020-01-12T09:47:13Z</time>
      </trkpt>
      <trkpt lat="42.4445930" lon="-2.4512020">
        <ele>405.1</ele>
        <time>2020-01-12T09:47:14Z</time>
      </trkpt>
      <trkpt lat="42.4445460" lon="-2.4511920">
        <ele>405.2</ele>
        <time>2020-01-12T09:47:15Z</time>
      </trkpt>
      <trkpt lat="42.4444900" lon="-2.4511700">
        <ele>405.3</ele>
        <time>2020-01-12T09:47:16Z</time>
      </trkpt>
      <trkpt lat="42.4444290" lon="-2.4511640">
        <ele>405.4</ele>
        <time>2020-01-12T09:47:17Z</time>
      </trkpt>
      <trkpt lat="42.4443680" lon="-2.4511660">
        <ele>405.6</ele>
        <time>2020-01-12T09:47:18Z</time>
      </trkpt>
      <trkpt lat="42.4443140" lon="-2.4511810">
        <ele>405.6</ele>
        <time>2020-01-12T09:47:19Z</time>
      </trkpt>
      <trkpt lat="42.4442580" lon="-2.4512000">
        <ele>405.6</ele>
        <time>2020-01-12T09:47:20Z</time>
      </trkpt>
      <trkpt lat="42.4441950" lon="-2.4512150">
        <ele>405.6</ele>
        <time>2020-01-12T09:47:21Z</time>
      </trkpt>
      <trkpt lat="42.4441340" lon="-2.4512210">
        <ele>405.7</ele>
        <time>2020-01-12T09:47:22Z</time>
      </trkpt>
      <trkpt lat="42.4440750" lon="-2.4512330">
        <ele>405.7</ele>
        <time>2020-01-12T09:47:23Z</time>
      </trkpt>
      <trkpt lat="42.4440180" lon="-2.4512490">
        <ele>405.8</ele>
        <time>2020-01-12T09:47:24Z</time>
      </trkpt>
      <trkpt lat="42.4439630" lon="-2.4512670">
        <ele>405.9</ele>
        <time>2020-01-12T09:47:25Z</time>
      </trkpt>
      <trkpt lat="42.4439150" lon="-2.4512900">
        <ele>406.0</ele>
        <time>2020-01-12T09:47:26Z</time>
      </trkpt>
      <trkpt lat="42.4438520" lon="-2.4512830">
        <ele>406.1</ele>
        <time>2020-01-12T09:47:27Z</time>
      </trkpt>
      <trkpt lat="42.4438060" lon="-2.4513120">
        <ele>406.1</ele>
        <time>2020-01-12T09:47:28Z</time>
      </trkpt>
      <trkpt lat="42.4437600" lon="-2.4513420">
        <ele>406.2</ele>
        <time>2020-01-12T09:47:29Z</time>
      </trkpt>
      <trkpt lat="42.4437060" lon="-2.4513640">
        <ele>406.3</ele>
        <time>2020-01-12T09:47:30Z</time>
      </trkpt>
      <trkpt lat="42.4436470" lon="-2.4513840">
        <ele>406.3</ele>
        <time>2020-01-12T09:47:31Z</time>
      </trkpt>
      <trkpt lat="42.4435920" lon="-2.4514080">
        <ele>406.4</ele>
        <time>2020-01-12T09:47:32Z</time>
      </trkpt>
      <trkpt lat="42.4435450" lon="-2.4514390">
        <ele>406.4</ele>
        <time>2020-01-12T09:47:33Z</time>
      </trkpt>
      <trkpt lat="42.4434900" lon="-2.4514530">
        <ele>406.4</ele>
        <time>2020-01-12T09:47:34Z</time>
      </trkpt>
      <trkpt lat="42.4434360" lon="-2.4514680">
        <ele>406.4</ele>
        <time>2020-01-12T09:47:35Z</time>
      </trkpt>
      <trkpt lat="42.4433780" lon="-2.4514810">
        <ele>406.4</ele>
        <time>2020-01-12T09:47:36Z</time>
      </trkpt>
      <trkpt lat="42.4433180" lon="-2.4514970">
        <ele>406.4</ele>
        <time>2020-01-12T09:47:37Z</time>
      </trkpt>
      <trkpt lat="42.4432510" lon="-2.4515060">
        <ele>406.4</ele>
        <time>2020-01-12T09:47:38Z</time>
      </trkpt>
      <trkpt lat="42.4431960" lon="-2.4515220">
        <ele>406.5</ele>
        <time>2020-01-12T09:47:39Z</time>
      </trkpt>
      <trkpt lat="42.4431360" lon="-2.4515340">
        <ele>406.5</ele>
        <time>2020-01-12T09:47:40Z</time>
      </trkpt>
      <trkpt lat="42.4430870" lon="-2.4515700">
        <ele>406.5</ele>
        <time>2020-01-12T09:47:41Z</time>
      </trkpt>
      <trkpt lat="42.4430340" lon="-2.4515910">
        <ele>406.6</ele>
        <time>2020-01-12T09:47:42Z</time>
      </trkpt>
      <trkpt lat="42.4429780" lon="-2.4516070">
        <ele>406.6</ele>
        <time>2020-01-12T09:47:43Z</time>
      </trkpt>
      <trkpt lat="42.4429230" lon="-2.4516310">
        <ele>406.7</ele>
        <time>2020-01-12T09:47:44Z</time>
      </trkpt>
      <trkpt lat="42.4428680" lon="-2.4516460">
        <ele>406.8</ele>
        <time>2020-01-12T09:47:45Z</time>
      </trkpt>
      <trkpt lat="42.4428160" lon="-2.4516580">
        <ele>406.9</ele>
        <time>2020-01-12T09:47:46Z</time>
      </trkpt>
      <trkpt lat="42.4427750" lon="-2.4516660">
        <ele>406.9</ele>
        <time>2020-01-12T09:47:47Z</time>
      </trkpt>
      <trkpt lat="42.4427380" lon="-2.4516780">
        <ele>407.0</ele>
        <time>2020-01-12T09:47:48Z</time>
      </trkpt>
      <trkpt lat="42.4426960" lon="-2.4516880">
        <ele>407.0</ele>
        <time>2020-01-12T09:47:49Z</time>
      </trkpt>
      <trkpt lat="42.4426530" lon="-2.4516880">
        <ele>407.1</ele>
        <time>2020-01-12T09:47:50Z</time>
      </trkpt>
      <trkpt lat="42.4426260" lon="-2.4517000">
        <ele>407.1</ele>
        <time>2020-01-12T09:47:51Z</time>
      </trkpt>
      <trkpt lat="42.4426000" lon="-2.4517140">
        <ele>407.1</ele>
        <time>2020-01-12T09:47:52Z</time>
      </trkpt>
      <trkpt lat="42.4425450" lon="-2.4517160">
        <ele>407.2</ele>
        <time>2020-01-12T09:47:54Z</time>
      </trkpt>
      <trkpt lat="42.4424820" lon="-2.4516890">
        <ele>407.2</ele>
        <time>2020-01-12T09:47:56Z</time>
      </trkpt>
      <trkpt lat="42.4424390" lon="-2.4516960">
        <ele>407.2</ele>
        <time>2020-01-12T09:47:58Z</time>
      </trkpt>
      <trkpt lat="42.4423840" lon="-2.4517380">
        <ele>407.2</ele>
        <time>2020-01-12T09:48:00Z</time>
      </trkpt>
      <trkpt lat="42.4423530" lon="-2.4517470">
        <ele>407.2</ele>
        <time>2020-01-12T09:48:02Z</time>
      </trkpt>
      <trkpt lat="42.4423220" lon="-2.4517570">
        <ele>407.2</ele>
        <time>2020-01-12T09:48:05Z</time>
      </trkpt>
      <trkpt lat="42.4422910" lon="-2.4517670">
        <ele>407.2</ele>
        <time>2020-01-12T09:48:07Z</time>
      </trkpt>
      <trkpt lat="42.4422600" lon="-2.4517770">
        <ele>407.2</ele>
        <time>2020-01-12T09:48:10Z</time>
      </trkpt>
      <trkpt lat="42.4422290" lon="-2.4517860">
        <ele>407.2</ele>
        <time>2020-01-12T09:48:17Z</time>
      </trkpt>
      <trkpt lat="42.4421980" lon="-2.4517960">
        <ele>407.2</ele>
        <time>2020-01-12T09:48:18Z</time>
      </trkpt>
      <trkpt lat="42.4421400" lon="-2.4518150">
        <ele>407.4</ele>
        <time>2020-01-12T09:48:20Z</time>
      </trkpt>
      <trkpt lat="42.4420970" lon="-2.4518190">
        <ele>407.5</ele>
        <time>2020-01-12T09:48:21Z</time>
      </trkpt>
      <trkpt lat="42.4420470" lon="-2.4518290">
        <ele>407.6</ele>
        <time>2020-01-12T09:48:22Z</time>
      </trkpt>
      <trkpt lat="42.4419850" lon="-2.4518340">
        <ele>407.8</ele>
        <time>2020-01-12T09:48:23Z</time>
      </trkpt>
      <trkpt lat="42.4419760" lon="-2.4518950">
        <ele>407.9</ele>
        <time>2020-01-12T09:48:24Z</time>
      </trkpt>
      <trkpt lat="42.4419320" lon="-2.4519080">
        <ele>408.0</ele>
        <time>2020-01-12T09:48:25Z</time>
      </trkpt>
      <trkpt lat="42.4418900" lon="-2.4519380">
        <ele>408.0</ele>
        <time>2020-01-12T09:48:26Z</time>
      </trkpt>
      <trkpt lat="42.4418440" lon="-2.4519380">
        <ele>408.1</ele>
        <time>2020-01-12T09:48:27Z</time>
      </trkpt>
      <trkpt lat="42.4418120" lon="-2.4519860">
        <ele>408.1</ele>
        <time>2020-01-12T09:48:28Z</time>
      </trkpt>
      <trkpt lat="42.4417560" lon="-2.4520080">
        <ele>408.1</ele>
        <time>2020-01-12T09:48:29Z</time>
      </trkpt>
      <trkpt lat="42.4416990" lon="-2.4520160">
        <ele>408.1</ele>
        <time>2020-01-12T09:48:30Z</time>
      </trkpt>
      <trkpt lat="42.4416580" lon="-2.4520290">
        <ele>408.2</ele>
        <time>2020-01-12T09:48:31Z</time>
      </trkpt>
      <trkpt lat="42.4416140" lon="-2.4520400">
        <ele>408.2</ele>
        <time>2020-01-12T09:48:32Z</time>
      </trkpt>
      <trkpt lat="42.4415620" lon="-2.4520490">
        <ele>408.2</ele>
        <time>2020-01-12T09:48:33Z</time>
      </trkpt>
      <trkpt lat="42.4415080" lon="-2.4520620">
        <ele>408.3</ele>
        <time>2020-01-12T09:48:34Z</time>
      </trkpt>
      <trkpt lat="42.4414440" lon="-2.4520750">
        <ele>408.4</ele>
        <time>2020-01-12T09:48:35Z</time>
      </trkpt>
      <trkpt lat="42.4413850" lon="-2.4520860">
        <ele>408.5</ele>
        <time>2020-01-12T09:48:36Z</time>
      </trkpt>
      <trkpt lat="42.4413170" lon="-2.4520930">
        <ele>408.7</ele>
        <time>2020-01-12T09:48:37Z</time>
      </trkpt>
      <trkpt lat="42.4412710" lon="-2.4521190">
        <ele>408.8</ele>
        <time>2020-01-12T09:48:38Z</time>
      </trkpt>
      <trkpt lat="42.4412080" lon="-2.4521090">
        <ele>408.9</ele>
        <time>2020-01-12T09:48:39Z</time>
      </trkpt>
      <trkpt lat="42.4411510" lon="-2.4521370">
        <ele>409.0</ele>
        <time>2020-01-12T09:48:40Z</time>
      </trkpt>
      <trkpt lat="42.4411110" lon="-2.4521710">
        <ele>409.1</ele>
        <time>2020-01-12T09:48:41Z</time>
      </trkpt>
      <trkpt lat="42.4410280" lon="-2.4521510">
        <ele>409.3</ele>
        <time>2020-01-12T09:48:42Z</time>
      </trkpt>
      <trkpt lat="42.4409630" lon="-2.4521710">
        <ele>409.4</ele>
        <time>2020-01-12T09:48:43Z</time>
      </trkpt>
      <trkpt lat="42.4408970" lon="-2.4521840">
        <ele>409.6</ele>
        <time>2020-01-12T09:48:44Z</time>
      </trkpt>
      <trkpt lat="42.4408170" lon="-2.4521800">
        <ele>409.8</ele>
        <time>2020-01-12T09:48:45Z</time>
      </trkpt>
      <trkpt lat="42.4407810" lon="-2.4522470">
        <ele>409.9</ele>
        <time>2020-01-12T09:48:46Z</time>
      </trkpt>
      <trkpt lat="42.4407400" lon="-2.4522950">
        <ele>410.0</ele>
        <time>2020-01-12T09:48:47Z</time>
      </trkpt>
      <trkpt lat="42.4406730" lon="-2.4522890">
        <ele>410.1</ele>
        <time>2020-01-12T09:48:48Z</time>
      </trkpt>
      <trkpt lat="42.4406150" lon="-2.4523050">
        <ele>410.1</ele>
        <time>2020-01-12T09:48:49Z</time>
      </trkpt>
      <trkpt lat="42.4405560" lon="-2.4523280">
        <ele>410.2</ele>
        <time>2020-01-12T09:48:50Z</time>
      </trkpt>
      <trkpt lat="42.4405070" lon="-2.4523470">
        <ele>410.2</ele>
        <time>2020-01-12T09:48:51Z</time>
      </trkpt>
      <trkpt lat="42.4404450" lon="-2.4523560">
        <ele>410.2</ele>
        <time>2020-01-12T09:48:52Z</time>
      </trkpt>
      <trkpt lat="42.4403870" lon="-2.4523760">
        <ele>410.2</ele>
        <time>2020-01-12T09:48:53Z</time>
      </trkpt>
      <trkpt lat="42.4403240" lon="-2.4523950">
        <ele>410.1</ele>
        <time>2020-01-12T09:48:54Z</time>
      </trkpt>
      <trkpt lat="42.4402610" lon="-2.4524030">
        <ele>410.2</ele>
        <time>2020-01-12T09:48:55Z</time>
      </trkpt>
      <trkpt lat="42.4402080" lon="-2.4524070">
        <ele>410.2</ele>
        <time>2020-01-12T09:48:56Z</time>
      </trkpt>
      <trkpt lat="42.4401610" lon="-2.4524420">
        <ele>410.2</ele>
        <time>2020-01-12T09:48:57Z</time>
      </trkpt>
      <trkpt lat="42.4401040" lon="-2.4524470">
        <ele>410.2</ele>
        <time>2020-01-12T09:48:58Z</time>
      </trkpt>
      <trkpt lat="42.4400530" lon="-2.4524580">
        <ele>410.3</ele>
        <time>2020-01-12T09:48:59Z</time>
      </trkpt>
      <trkpt lat="42.4399970" lon="-2.4524890">
        <ele>410.4</ele>
        <time>2020-01-12T09:49:00Z</time>
      </trkpt>
      <trkpt lat="42.4399390" lon="-2.4525150">
        <ele>410.6</ele>
        <time>2020-01-12T09:49:01Z</time>
      </trkpt>
      <trkpt lat="42.4398710" lon="-2.4525400">
        <ele>410.8</ele>
        <time>2020-01-12T09:49:02Z</time>
      </trkpt>
      <trkpt lat="42.4398040" lon="-2.4525590">
        <ele>410.9</ele>
        <time>2020-01-12T09:49:03Z</time>
      </trkpt>
      <trkpt lat="42.4397390" lon="-2.4525830">
        <ele>411.1</ele>
        <time>2020-01-12T09:49:04Z</time>
      </trkpt>
      <trkpt lat="42.4396840" lon="-2.4526140">
        <ele>411.2</ele>
        <time>2020-01-12T09:49:05Z</time>
      </trkpt>
      <trkpt lat="42.4396250" lon="-2.4526310">
        <ele>411.3</ele>
        <time>2020-01-12T09:49:06Z</time>
      </trkpt>
      <trkpt lat="42.4395820" lon="-2.4526620">
        <ele>411.3</ele>
        <time>2020-01-12T09:49:07Z</time>
      </trkpt>
      <trkpt lat="42.4395340" lon="-2.4526970">
        <ele>411.3</ele>
        <time>2020-01-12T09:49:08Z</time>
      </trkpt>
      <trkpt lat="42.4394770" lon="-2.4527080">
        <ele>411.3</ele>
        <time>2020-01-12T09:49:09Z</time>
      </trkpt>
      <trkpt lat="42.4394070" lon="-2.4527110">
        <ele>411.4</ele>
        <time>2020-01-12T09:49:10Z</time>
      </trkpt>
      <trkpt lat="42.4393470" lon="-2.4527300">
        <ele>411.4</ele>
        <time>2020-01-12T09:49:11Z</time>
      </trkpt>
      <trkpt lat="42.4392840" lon="-2.4527460">
        <ele>411.4</ele>
        <time>2020-01-12T09:49:12Z</time>
      </trkpt>
      <trkpt lat="42.4392370" lon="-2.4527650">
        <ele>411.4</ele>
        <time>2020-01-12T09:49:13Z</time>
      </trkpt>
      <trkpt lat="42.4391770" lon="-2.4527820">
        <ele>411.4</ele>
        <time>2020-01-12T09:49:14Z</time>
      </trkpt>
      <trkpt lat="42.4391160" lon="-2.4527840">
        <ele>411.4</ele>
        <time>2020-01-12T09:49:15Z</time>
      </trkpt>
      <trkpt lat="42.4390550" lon="-2.4527990">
        <ele>411.4</ele>
        <time>2020-01-12T09:49:16Z</time>
      </trkpt>
      <trkpt lat="42.4389890" lon="-2.4528080">
        <ele>411.5</ele>
        <time>2020-01-12T09:49:17Z</time>
      </trkpt>
      <trkpt lat="42.4389360" lon="-2.4528210">
        <ele>411.5</ele>
        <time>2020-01-12T09:49:18Z</time>
      </trkpt>
      <trkpt lat="42.4388800" lon="-2.4528530">
        <ele>411.5</ele>
        <time>2020-01-12T09:49:19Z</time>
      </trkpt>
      <trkpt lat="42.4388070" lon="-2.4528560">
        <ele>411.5</ele>
        <time>2020-01-12T09:49:20Z</time>
      </trkpt>
      <trkpt lat="42.4387560" lon="-2.4528940">
        <ele>411.5</ele>
        <time>2020-01-12T09:49:21Z</time>
      </trkpt>
      <trkpt lat="42.4386980" lon="-2.4528990">
        <ele>411.5</ele>
        <time>2020-01-12T09:49:22Z</time>
      </trkpt>
      <trkpt lat="42.4386410" lon="-2.4529180">
        <ele>411.5</ele>
        <time>2020-01-12T09:49:23Z</time>
      </trkpt>
      <trkpt lat="42.4385820" lon="-2.4529340">
        <ele>411.5</ele>
        <time>2020-01-12T09:49:24Z</time>
      </trkpt>
      <trkpt lat="42.4385270" lon="-2.4529550">
        <ele>411.5</ele>
        <time>2020-01-12T09:49:25Z</time>
      </trkpt>
      <trkpt lat="42.4384670" lon="-2.4529630">
        <ele>411.5</ele>
        <time>2020-01-12T09:49:26Z</time>
      </trkpt>
      <trkpt lat="42.4384050" lon="-2.4529660">
        <ele>411.6</ele>
        <time>2020-01-12T09:49:27Z</time>
      </trkpt>
      <trkpt lat="42.4383460" lon="-2.4529790">
        <ele>411.6</ele>
        <time>2020-01-12T09:49:28Z</time>
      </trkpt>
      <trkpt lat="42.4382870" lon="-2.4529980">
        <ele>411.7</ele>
        <time>2020-01-12T09:49:29Z</time>
      </trkpt>
      <trkpt lat="42.4382400" lon="-2.4530130">
        <ele>411.8</ele>
        <time>2020-01-12T09:49:30Z</time>
      </trkpt>
      <trkpt lat="42.4381930" lon="-2.4530440">
        <ele>411.9</ele>
        <time>2020-01-12T09:49:31Z</time>
      </trkpt>
      <trkpt lat="42.4381340" lon="-2.4530630">
        <ele>412.0</ele>
        <time>2020-01-12T09:49:32Z</time>
      </trkpt>
      <trkpt lat="42.4380730" lon="-2.4530770">
        <ele>412.2</ele>
        <time>2020-01-12T09:49:33Z</time>
      </trkpt>
      <trkpt lat="42.4380120" lon="-2.4531000">
        <ele>412.3</ele>
        <time>2020-01-12T09:49:34Z</time>
      </trkpt>
      <trkpt lat="42.4379590" lon="-2.4531380">
        <ele>412.4</ele>
        <time>2020-01-12T09:49:35Z</time>
      </trkpt>
      <trkpt lat="42.4379060" lon="-2.4531540">
        <ele>412.5</ele>
        <time>2020-01-12T09:49:36Z</time>
      </trkpt>
      <trkpt lat="42.4378570" lon="-2.4532180">
        <ele>412.6</ele>
        <time>2020-01-12T09:49:37Z</time>
      </trkpt>
      <trkpt lat="42.4378250" lon="-2.4532880">
        <ele>412.6</ele>
        <time>2020-01-12T09:49:38Z</time>
      </trkpt>
      <trkpt lat="42.4377820" lon="-2.4533310">
        <ele>412.6</ele>
        <time>2020-01-12T09:49:39Z</time>
      </trkpt>
      <trkpt lat="42.4377340" lon="-2.4533580">
        <ele>412.5</ele>
        <time>2020-01-12T09:49:40Z</time>
      </trkpt>
      <trkpt lat="42.4376860" lon="-2.4533900">
        <ele>412.5</ele>
        <time>2020-01-12T09:49:41Z</time>
      </trkpt>
      <trkpt lat="42.4376370" lon="-2.4533950">
        <ele>412.6</ele>
        <time>2020-01-12T09:49:42Z</time>
      </trkpt>
      <trkpt lat="42.4375680" lon="-2.4533630">
        <ele>412.7</ele>
        <time>2020-01-12T09:49:43Z</time>
      </trkpt>
      <trkpt lat="42.4375140" lon="-2.4533250">
        <ele>412.8</ele>
        <time>2020-01-12T09:49:44Z</time>
      </trkpt>
      <trkpt lat="42.4374600" lon="-2.4533040">
        <ele>412.8</ele>
        <time>2020-01-12T09:49:45Z</time>
      </trkpt>
      <trkpt lat="42.4373910" lon="-2.4532930">
        <ele>412.8</ele>
        <time>2020-01-12T09:49:46Z</time>
      </trkpt>
      <trkpt lat="42.4373370" lon="-2.4533090">
        <ele>412.8</ele>
        <time>2020-01-12T09:49:47Z</time>
      </trkpt>
      <trkpt lat="42.4372780" lon="-2.4533310">
        <ele>412.8</ele>
        <time>2020-01-12T09:49:48Z</time>
      </trkpt>
      <trkpt lat="42.4372190" lon="-2.4533520">
        <ele>412.9</ele>
        <time>2020-01-12T09:49:49Z</time>
      </trkpt>
      <trkpt lat="42.4371650" lon="-2.4533840">
        <ele>413.0</ele>
        <time>2020-01-12T09:49:50Z</time>
      </trkpt>
      <trkpt lat="42.4371060" lon="-2.4533900">
        <ele>413.1</ele>
        <time>2020-01-12T09:49:51Z</time>
      </trkpt>
      <trkpt lat="42.4370530" lon="-2.4534170">
        <ele>413.2</ele>
        <time>2020-01-12T09:49:52Z</time>
      </trkpt>
      <trkpt lat="42.4370040" lon="-2.4534380">
        <ele>413.3</ele>
        <time>2020-01-12T09:49:53Z</time>
      </trkpt>
      <trkpt lat="42.4369400" lon="-2.4534490">
        <ele>413.5</ele>
        <time>2020-01-12T09:49:54Z</time>
      </trkpt>
      <trkpt lat="42.4368810" lon="-2.4534650">
        <ele>413.7</ele>
        <time>2020-01-12T09:49:55Z</time>
      </trkpt>
      <trkpt lat="42.4368330" lon="-2.4534760">
        <ele>413.8</ele>
        <time>2020-01-12T09:49:56Z</time>
      </trkpt>
      <trkpt lat="42.4367850" lon="-2.4534920">
        <ele>413.9</ele>
        <time>2020-01-12T09:49:57Z</time>
      </trkpt>
      <trkpt lat="42.4367250" lon="-2.4535130">
        <ele>413.9</ele>
        <time>2020-01-12T09:49:58Z</time>
      </trkpt>
      <trkpt lat="42.4366560" lon="-2.4535290">
        <ele>414.0</ele>
        <time>2020-01-12T09:49:59Z</time>
      </trkpt>
      <trkpt lat="42.4366070" lon="-2.4535510">
        <ele>414.0</ele>
        <time>2020-01-12T09:50:00Z</time>
      </trkpt>
      <trkpt lat="42.4365380" lon="-2.4535830">
        <ele>414.1</ele>
        <time>2020-01-12T09:50:01Z</time>
      </trkpt>
      <trkpt lat="42.4364840" lon="-2.4536040">
        <ele>414.1</ele>
        <time>2020-01-12T09:50:02Z</time>
      </trkpt>
      <trkpt lat="42.4364420" lon="-2.4536500">
        <ele>414.2</ele>
        <time>2020-01-12T09:50:03Z</time>
      </trkpt>
      <trkpt lat="42.4363770" lon="-2.4536630">
        <ele>414.3</ele>
        <time>2020-01-12T09:50:04Z</time>
      </trkpt>
      <trkpt lat="42.4363130" lon="-2.4536840">
        <ele>414.4</ele>
        <time>2020-01-12T09:50:05Z</time>
      </trkpt>
      <trkpt lat="42.4362590" lon="-2.4537060">
        <ele>414.6</ele>
        <time>2020-01-12T09:50:06Z</time>
      </trkpt>
      <trkpt lat="42.4361940" lon="-2.4537170">
        <ele>414.7</ele>
        <time>2020-01-12T09:50:07Z</time>
      </trkpt>
      <trkpt lat="42.4361300" lon="-2.4537280">
        <ele>414.9</ele>
        <time>2020-01-12T09:50:08Z</time>
      </trkpt>
      <trkpt lat="42.4360760" lon="-2.4537330">
        <ele>415.0</ele>
        <time>2020-01-12T09:50:09Z</time>
      </trkpt>
      <trkpt lat="42.4360170" lon="-2.4537550">
        <ele>415.1</ele>
        <time>2020-01-12T09:50:10Z</time>
      </trkpt>
      <trkpt lat="42.4359580" lon="-2.4537710">
        <ele>415.1</ele>
        <time>2020-01-12T09:50:11Z</time>
      </trkpt>
      <trkpt lat="42.4358940" lon="-2.4537830">
        <ele>415.2</ele>
        <time>2020-01-12T09:50:12Z</time>
      </trkpt>
      <trkpt lat="42.4358140" lon="-2.4537760">
        <ele>415.2</ele>
        <time>2020-01-12T09:50:13Z</time>
      </trkpt>
      <trkpt lat="42.4357510" lon="-2.4537860">
        <ele>415.2</ele>
        <time>2020-01-12T09:50:14Z</time>
      </trkpt>
      <trkpt lat="42.4356990" lon="-2.4538160">
        <ele>415.2</ele>
        <time>2020-01-12T09:50:15Z</time>
      </trkpt>
      <trkpt lat="42.4356370" lon="-2.4538190">
        <ele>415.3</ele>
        <time>2020-01-12T09:50:16Z</time>
      </trkpt>
      <trkpt lat="42.4355830" lon="-2.4538460">
        <ele>415.3</ele>
        <time>2020-01-12T09:50:17Z</time>
      </trkpt>
      <trkpt lat="42.4355190" lon="-2.4538510">
        <ele>415.3</ele>
        <time>2020-01-12T09:50:18Z</time>
      </trkpt>
      <trkpt lat="42.4354690" lon="-2.4538640">
        <ele>415.3</ele>
        <time>2020-01-12T09:50:19Z</time>
      </trkpt>
      <trkpt lat="42.4354330" lon="-2.4538990">
        <ele>415.3</ele>
        <time>2020-01-12T09:50:20Z</time>
      </trkpt>
      <trkpt lat="42.4353790" lon="-2.4539150">
        <ele>415.5</ele>
        <time>2020-01-12T09:50:21Z</time>
      </trkpt>
      <trkpt lat="42.4353090" lon="-2.4539150">
        <ele>415.7</ele>
        <time>2020-01-12T09:50:22Z</time>
      </trkpt>
      <trkpt lat="42.4352620" lon="-2.4539420">
        <ele>415.8</ele>
        <time>2020-01-12T09:50:23Z</time>
      </trkpt>
      <trkpt lat="42.4352070" lon="-2.4539580">
        <ele>415.9</ele>
        <time>2020-01-12T09:50:24Z</time>
      </trkpt>
      <trkpt lat="42.4351540" lon="-2.4539690">
        <ele>416.1</ele>
        <time>2020-01-12T09:50:25Z</time>
      </trkpt>
      <trkpt lat="42.4350910" lon="-2.4539850">
        <ele>416.2</ele>
        <time>2020-01-12T09:50:26Z</time>
      </trkpt>
      <trkpt lat="42.4350530" lon="-2.4540200">
        <ele>416.2</ele>
        <time>2020-01-12T09:50:27Z</time>
      </trkpt>
      <trkpt lat="42.4349870" lon="-2.4540440">
        <ele>416.2</ele>
        <time>2020-01-12T09:50:28Z</time>
      </trkpt>
      <trkpt lat="42.4349390" lon="-2.4540710">
        <ele>416.2</ele>
        <time>2020-01-12T09:50:29Z</time>
      </trkpt>
      <trkpt lat="42.4348930" lon="-2.4540960">
        <ele>416.2</ele>
        <time>2020-01-12T09:50:30Z</time>
      </trkpt>
      <trkpt lat="42.4348430" lon="-2.4541250">
        <ele>416.2</ele>
        <time>2020-01-12T09:50:31Z</time>
      </trkpt>
      <trkpt lat="42.4347970" lon="-2.4541580">
        <ele>416.2</ele>
        <time>2020-01-12T09:50:32Z</time>
      </trkpt>
      <trkpt lat="42.4347240" lon="-2.4541580">
        <ele>416.2</ele>
        <time>2020-01-12T09:50:33Z</time>
      </trkpt>
      <trkpt lat="42.4346760" lon="-2.4541780">
        <ele>416.2</ele>
        <time>2020-01-12T09:50:34Z</time>
      </trkpt>
      <trkpt lat="42.4346120" lon="-2.4541680">
        <ele>416.3</ele>
        <time>2020-01-12T09:50:35Z</time>
      </trkpt>
      <trkpt lat="42.4345740" lon="-2.4541990">
        <ele>416.3</ele>
        <time>2020-01-12T09:50:36Z</time>
      </trkpt>
      <trkpt lat="42.4345280" lon="-2.4542040">
        <ele>416.4</ele>
        <time>2020-01-12T09:50:37Z</time>
      </trkpt>
      <trkpt lat="42.4344670" lon="-2.4542050">
        <ele>416.5</ele>
        <time>2020-01-12T09:50:38Z</time>
      </trkpt>
      <trkpt lat="42.4344190" lon="-2.4542160">
        <ele>416.6</ele>
        <time>2020-01-12T09:50:39Z</time>
      </trkpt>
      <trkpt lat="42.4343870" lon="-2.4542480">
        <ele>416.7</ele>
        <time>2020-01-12T09:50:40Z</time>
      </trkpt>
      <trkpt lat="42.4343220" lon="-2.4542480">
        <ele>416.8</ele>
        <time>2020-01-12T09:50:41Z</time>
      </trkpt>
      <trkpt lat="42.4342740" lon="-2.4542370">
        <ele>416.9</ele>
        <time>2020-01-12T09:50:42Z</time>
      </trkpt>
      <trkpt lat="42.4342200" lon="-2.4542480">
        <ele>416.9</ele>
        <time>2020-01-12T09:50:43Z</time>
      </trkpt>
      <trkpt lat="42.4341770" lon="-2.4542640">
        <ele>417.0</ele>
        <time>2020-01-12T09:50:44Z</time>
      </trkpt>
      <trkpt lat="42.4341240" lon="-2.4542820">
        <ele>417.0</ele>
        <time>2020-01-12T09:50:45Z</time>
      </trkpt>
      <trkpt lat="42.4340860" lon="-2.4542930">
        <ele>417.0</ele>
        <time>2020-01-12T09:50:46Z</time>
      </trkpt>
      <trkpt lat="42.4340370" lon="-2.4542930">
        <ele>417.0</ele>
        <time>2020-01-12T09:50:47Z</time>
      </trkpt>
      <trkpt lat="42.4339970" lon="-2.4543070">
        <ele>417.1</ele>
        <time>2020-01-12T09:50:48Z</time>
      </trkpt>
      <trkpt lat="42.4339180" lon="-2.4542710">
        <ele>417.1</ele>
        <time>2020-01-12T09:50:49Z</time>
      </trkpt>
      <trkpt lat="42.4338880" lon="-2.4543070">
        <ele>417.1</ele>
        <time>2020-01-12T09:50:50Z</time>
      </trkpt>
      <trkpt lat="42.4338500" lon="-2.4543290">
        <ele>417.1</ele>
        <time>2020-01-12T09:50:51Z</time>
      </trkpt>
      <trkpt lat="42.4338080" lon="-2.4543350">
        <ele>417.0</ele>
        <time>2020-01-12T09:50:52Z</time>
      </trkpt>
      <trkpt lat="42.4337680" lon="-2.4543450">
        <ele>417.0</ele>
        <time>2020-01-12T09:50:53Z</time>
      </trkpt>
      <trkpt lat="42.4337290" lon="-2.4543340">
        <ele>417.0</ele>
        <time>2020-01-12T09:50:54Z</time>
      </trkpt>
      <trkpt lat="42.4336890" lon="-2.4543460">
        <ele>417.0</ele>
        <time>2020-01-12T09:50:55Z</time>
      </trkpt>
      <trkpt lat="42.4336400" lon="-2.4543490">
        <ele>417.0</ele>
        <time>2020-01-12T09:50:56Z</time>
      </trkpt>
      <trkpt lat="42.4335870" lon="-2.4543500">
        <ele>417.0</ele>
        <time>2020-01-12T09:50:57Z</time>
      </trkpt>
      <trkpt lat="42.4335490" lon="-2.4543780">
        <ele>417.0</ele>
        <time>2020-01-12T09:50:58Z</time>
      </trkpt>
      <trkpt lat="42.4335010" lon="-2.4543790">
        <ele>417.0</ele>
        <time>2020-01-12T09:50:59Z</time>
      </trkpt>
      <trkpt lat="42.4334410" lon="-2.4543700">
        <ele>416.9</ele>
        <time>2020-01-12T09:51:00Z</time>
      </trkpt>
      <trkpt lat="42.4333930" lon="-2.4543790">
        <ele>416.9</ele>
        <time>2020-01-12T09:51:01Z</time>
      </trkpt>
      <trkpt lat="42.4333360" lon="-2.4543760">
        <ele>417.0</ele>
        <time>2020-01-12T09:51:02Z</time>
      </trkpt>
      <trkpt lat="42.4332760" lon="-2.4543660">
        <ele>417.0</ele>
        <time>2020-01-12T09:51:03Z</time>
      </trkpt>
      <trkpt lat="42.4332390" lon="-2.4543830">
        <ele>417.0</ele>
        <time>2020-01-12T09:51:04Z</time>
      </trkpt>
      <trkpt lat="42.4332010" lon="-2.4543980">
        <ele>417.0</ele>
        <time>2020-01-12T09:51:05Z</time>
      </trkpt>
      <trkpt lat="42.4331660" lon="-2.4544270">
        <ele>417.0</ele>
        <time>2020-01-12T09:51:06Z</time>
      </trkpt>
      <trkpt lat="42.4331210" lon="-2.4544390">
        <ele>417.1</ele>
        <time>2020-01-12T09:51:07Z</time>
      </trkpt>
      <trkpt lat="42.4330830" lon="-2.4544730">
        <ele>417.1</ele>
        <time>2020-01-12T09:51:08Z</time>
      </trkpt>
      <trkpt lat="42.4330230" lon="-2.4544700">
        <ele>417.2</ele>
        <time>2020-01-12T09:51:09Z</time>
      </trkpt>
      <trkpt lat="42.4329700" lon="-2.4544730">
        <ele>417.3</ele>
        <time>2020-01-12T09:51:10Z</time>
      </trkpt>
      <trkpt lat="42.4329380" lon="-2.4545100">
        <ele>417.4</ele>
        <time>2020-01-12T09:51:11Z</time>
      </trkpt>
      <trkpt lat="42.4328970" lon="-2.4545460">
        <ele>417.5</ele>
        <time>2020-01-12T09:51:12Z</time>
      </trkpt>
      <trkpt lat="42.4328460" lon="-2.4545500">
        <ele>417.6</ele>
        <time>2020-01-12T09:51:13Z</time>
      </trkpt>
      <trkpt lat="42.4328040" lon="-2.4545650">
        <ele>417.7</ele>
        <time>2020-01-12T09:51:14Z</time>
      </trkpt>
      <trkpt lat="42.4327610" lon="-2.4545910">
        <ele>417.8</ele>
        <time>2020-01-12T09:51:15Z</time>
      </trkpt>
      <trkpt lat="42.4327080" lon="-2.4546110">
        <ele>417.9</ele>
        <time>2020-01-12T09:51:16Z</time>
      </trkpt>
      <trkpt lat="42.4326660" lon="-2.4546300">
        <ele>418.0</ele>
        <time>2020-01-12T09:51:17Z</time>
      </trkpt>
      <trkpt lat="42.4326130" lon="-2.4546620">
        <ele>418.2</ele>
        <time>2020-01-12T09:51:18Z</time>
      </trkpt>
      <trkpt lat="42.4325660" lon="-2.4546790">
        <ele>418.2</ele>
        <time>2020-01-12T09:51:19Z</time>
      </trkpt>
      <trkpt lat="42.4325090" lon="-2.4547040">
        <ele>418.2</ele>
        <time>2020-01-12T09:51:20Z</time>
      </trkpt>
      <trkpt lat="42.4324640" lon="-2.4547180">
        <ele>418.2</ele>
        <time>2020-01-12T09:51:21Z</time>
      </trkpt>
      <trkpt lat="42.4324160" lon="-2.4547320">
        <ele>418.2</ele>
        <time>2020-01-12T09:51:22Z</time>
      </trkpt>
      <trkpt lat="42.4323660" lon="-2.4547540">
        <ele>418.2</ele>
        <time>2020-01-12T09:51:23Z</time>
      </trkpt>
      <trkpt lat="42.4323240" lon="-2.4547830">
        <ele>418.2</ele>
        <time>2020-01-12T09:51:24Z</time>
      </trkpt>
      <trkpt lat="42.4322780" lon="-2.4548220">
        <ele>418.3</ele>
        <time>2020-01-12T09:51:25Z</time>
      </trkpt>
      <trkpt lat="42.4322290" lon="-2.4548320">
        <ele>418.4</ele>
        <time>2020-01-12T09:51:26Z</time>
      </trkpt>
      <trkpt lat="42.4321870" lon="-2.4548530">
        <ele>418.4</ele>
        <time>2020-01-12T09:51:27Z</time>
      </trkpt>
      <trkpt lat="42.4321280" lon="-2.4548700">
        <ele>418.5</ele>
        <time>2020-01-12T09:51:28Z</time>
      </trkpt>
      <trkpt lat="42.4320790" lon="-2.4548960">
        <ele>418.7</ele>
        <time>2020-01-12T09:51:29Z</time>
      </trkpt>
      <trkpt lat="42.4320320" lon="-2.4549190">
        <ele>418.8</ele>
        <time>2020-01-12T09:51:30Z</time>
      </trkpt>
      <trkpt lat="42.4319840" lon="-2.4549450">
        <ele>418.9</ele>
        <time>2020-01-12T09:51:31Z</time>
      </trkpt>
      <trkpt lat="42.4319360" lon="-2.4549690">
        <ele>419.0</ele>
        <time>2020-01-12T09:51:32Z</time>
      </trkpt>
      <trkpt lat="42.4318760" lon="-2.4549840">
        <ele>419.1</ele>
        <time>2020-01-12T09:51:33Z</time>
      </trkpt>
      <trkpt lat="42.4318270" lon="-2.4549910">
        <ele>419.1</ele>
        <time>2020-01-12T09:51:34Z</time>
      </trkpt>
      <trkpt lat="42.4317630" lon="-2.4549990">
        <ele>419.2</ele>
        <time>2020-01-12T09:51:35Z</time>
      </trkpt>
      <trkpt lat="42.4317190" lon="-2.4550050">
        <ele>419.2</ele>
        <time>2020-01-12T09:51:36Z</time>
      </trkpt>
      <trkpt lat="42.4316660" lon="-2.4550210">
        <ele>419.2</ele>
        <time>2020-01-12T09:51:37Z</time>
      </trkpt>
      <trkpt lat="42.4316070" lon="-2.4550370">
        <ele>419.3</ele>
        <time>2020-01-12T09:51:38Z</time>
      </trkpt>
      <trkpt lat="42.4315530" lon="-2.4550690">
        <ele>419.3</ele>
        <time>2020-01-12T09:51:39Z</time>
      </trkpt>
      <trkpt lat="42.4314790" lon="-2.4550900">
        <ele>419.3</ele>
        <time>2020-01-12T09:51:40Z</time>
      </trkpt>
      <trkpt lat="42.4314100" lon="-2.4551020">
        <ele>419.4</ele>
        <time>2020-01-12T09:51:41Z</time>
      </trkpt>
      <trkpt lat="42.4313620" lon="-2.4551450">
        <ele>419.4</ele>
        <time>2020-01-12T09:51:42Z</time>
      </trkpt>
      <trkpt lat="42.4312900" lon="-2.4551560">
        <ele>419.5</ele>
        <time>2020-01-12T09:51:43Z</time>
      </trkpt>
      <trkpt lat="42.4312230" lon="-2.4552030">
        <ele>419.7</ele>
        <time>2020-01-12T09:51:44Z</time>
      </trkpt>
      <trkpt lat="42.4311630" lon="-2.4552400">
        <ele>419.8</ele>
        <time>2020-01-12T09:51:45Z</time>
      </trkpt>
      <trkpt lat="42.4310850" lon="-2.4552760">
        <ele>420.0</ele>
        <time>2020-01-12T09:51:46Z</time>
      </trkpt>
      <trkpt lat="42.4310260" lon="-2.4552840">
        <ele>420.1</ele>
        <time>2020-01-12T09:51:47Z</time>
      </trkpt>
      <trkpt lat="42.4309530" lon="-2.4552940">
        <ele>420.3</ele>
        <time>2020-01-12T09:51:48Z</time>
      </trkpt>
      <trkpt lat="42.4308890" lon="-2.4553110">
        <ele>420.4</ele>
        <time>2020-01-12T09:51:49Z</time>
      </trkpt>
      <trkpt lat="42.4308090" lon="-2.4552990">
        <ele>420.5</ele>
        <time>2020-01-12T09:51:50Z</time>
      </trkpt>
      <trkpt lat="42.4307370" lon="-2.4553160">
        <ele>420.6</ele>
        <time>2020-01-12T09:51:51Z</time>
      </trkpt>
      <trkpt lat="42.4306660" lon="-2.4553290">
        <ele>420.8</ele>
        <time>2020-01-12T09:51:52Z</time>
      </trkpt>
      <trkpt lat="42.4305940" lon="-2.4553510">
        <ele>420.9</ele>
        <time>2020-01-12T09:51:53Z</time>
      </trkpt>
      <trkpt lat="42.4305200" lon="-2.4553740">
        <ele>421.1</ele>
        <time>2020-01-12T09:51:54Z</time>
      </trkpt>
      <trkpt lat="42.4304510" lon="-2.4554030">
        <ele>421.2</ele>
        <time>2020-01-12T09:51:55Z</time>
      </trkpt>
      <trkpt lat="42.4303900" lon="-2.4554280">
        <ele>421.3</ele>
        <time>2020-01-12T09:51:56Z</time>
      </trkpt>
      <trkpt lat="42.4303200" lon="-2.4554500">
        <ele>421.4</ele>
        <time>2020-01-12T09:51:57Z</time>
      </trkpt>
      <trkpt lat="42.4302480" lon="-2.4554720">
        <ele>421.4</ele>
        <time>2020-01-12T09:51:58Z</time>
      </trkpt>
      <trkpt lat="42.4301820" lon="-2.4555020">
        <ele>421.4</ele>
        <time>2020-01-12T09:51:59Z</time>
      </trkpt>
      <trkpt lat="42.4301190" lon="-2.4555360">
        <ele>421.5</ele>
        <time>2020-01-12T09:52:00Z</time>
      </trkpt>
      <trkpt lat="42.4300740" lon="-2.4556000">
        <ele>421.5</ele>
        <time>2020-01-12T09:52:01Z</time>
      </trkpt>
      <trkpt lat="42.4300000" lon="-2.4555980">
        <ele>421.5</ele>
        <time>2020-01-12T09:52:02Z</time>
      </trkpt>
      <trkpt lat="42.4299300" lon="-2.4556140">
        <ele>421.5</ele>
        <time>2020-01-12T09:52:03Z</time>
      </trkpt>
      <trkpt lat="42.4298570" lon="-2.4556300">
        <ele>421.5</ele>
        <time>2020-01-12T09:52:04Z</time>
      </trkpt>
      <trkpt lat="42.4297920" lon="-2.4556500">
        <ele>421.5</ele>
        <time>2020-01-12T09:52:05Z</time>
      </trkpt>
      <trkpt lat="42.4297330" lon="-2.4556760">
        <ele>421.6</ele>
        <time>2020-01-12T09:52:06Z</time>
      </trkpt>
      <trkpt lat="42.4296730" lon="-2.4556970">
        <ele>421.6</ele>
        <time>2020-01-12T09:52:07Z</time>
      </trkpt>
      <trkpt lat="42.4296150" lon="-2.4557270">
        <ele>421.7</ele>
        <time>2020-01-12T09:52:08Z</time>
      </trkpt>
      <trkpt lat="42.4295450" lon="-2.4557450">
        <ele>421.9</ele>
        <time>2020-01-12T09:52:09Z</time>
      </trkpt>
      <trkpt lat="42.4294850" lon="-2.4557490">
        <ele>422.0</ele>
        <time>2020-01-12T09:52:10Z</time>
      </trkpt>
      <trkpt lat="42.4294070" lon="-2.4557680">
        <ele>422.2</ele>
        <time>2020-01-12T09:52:11Z</time>
      </trkpt>
      <trkpt lat="42.4293430" lon="-2.4557850">
        <ele>422.3</ele>
        <time>2020-01-12T09:52:12Z</time>
      </trkpt>
      <trkpt lat="42.4292860" lon="-2.4557970">
        <ele>422.4</ele>
        <time>2020-01-12T09:52:13Z</time>
      </trkpt>
      <trkpt lat="42.4292200" lon="-2.4558150">
        <ele>422.5</ele>
        <time>2020-01-12T09:52:14Z</time>
      </trkpt>
      <trkpt lat="42.4291560" lon="-2.4558310">
        <ele>422.5</ele>
        <time>2020-01-12T09:52:15Z</time>
      </trkpt>
      <trkpt lat="42.4290920" lon="-2.4558470">
        <ele>422.6</ele>
        <time>2020-01-12T09:52:16Z</time>
      </trkpt>
      <trkpt lat="42.4290280" lon="-2.4558630">
        <ele>422.6</ele>
        <time>2020-01-12T09:52:17Z</time>
      </trkpt>
      <trkpt lat="42.4289630" lon="-2.4558840">
        <ele>422.6</ele>
        <time>2020-01-12T09:52:18Z</time>
      </trkpt>
      <trkpt lat="42.4288720" lon="-2.4559490">
        <ele>422.6</ele>
        <time>2020-01-12T09:52:19Z</time>
      </trkpt>
      <trkpt lat="42.4288130" lon="-2.4559590">
        <ele>422.7</ele>
        <time>2020-01-12T09:52:20Z</time>
      </trkpt>
      <trkpt lat="42.4287490" lon="-2.4559750">
        <ele>422.7</ele>
        <time>2020-01-12T09:52:21Z</time>
      </trkpt>
      <trkpt lat="42.4286950" lon="-2.4559490">
        <ele>422.7</ele>
        <time>2020-01-12T09:52:22Z</time>
      </trkpt>
      <trkpt lat="42.4286310" lon="-2.4559700">
        <ele>422.8</ele>
        <time>2020-01-12T09:52:23Z</time>
      </trkpt>
      <trkpt lat="42.4285390" lon="-2.4560450">
        <ele>422.8</ele>
        <time>2020-01-12T09:52:24Z</time>
      </trkpt>
      <trkpt lat="42.4284700" lon="-2.4560880">
        <ele>422.9</ele>
        <time>2020-01-12T09:52:25Z</time>
      </trkpt>
      <trkpt lat="42.4284270" lon="-2.4561150">
        <ele>422.9</ele>
        <time>2020-01-12T09:52:26Z</time>
      </trkpt>
      <trkpt lat="42.4284430" lon="-2.4562690">
        <ele>423.0</ele>
        <time>2020-01-12T09:52:27Z</time>
      </trkpt>
      <trkpt lat="42.4283310" lon="-2.4561700">
        <ele>423.2</ele>
        <time>2020-01-12T09:52:28Z</time>
      </trkpt>
      <trkpt lat="42.4282490" lon="-2.4561430">
        <ele>423.3</ele>
        <time>2020-01-12T09:52:29Z</time>
      </trkpt>
      <trkpt lat="42.4281790" lon="-2.4561310">
        <ele>423.5</ele>
        <time>2020-01-12T09:52:30Z</time>
      </trkpt>
      <trkpt lat="42.4281400" lon="-2.4561740">
        <ele>423.6</ele>
        <time>2020-01-12T09:52:31Z</time>
      </trkpt>
      <trkpt lat="42.4280940" lon="-2.4561880">
        <ele>423.7</ele>
        <time>2020-01-12T09:52:32Z</time>
      </trkpt>
      <trkpt lat="42.4280460" lon="-2.4561900">
        <ele>423.8</ele>
        <time>2020-01-12T09:52:33Z</time>
      </trkpt>
      <trkpt lat="42.4280030" lon="-2.4562280">
        <ele>423.8</ele>
        <time>2020-01-12T09:52:34Z</time>
      </trkpt>
      <trkpt lat="42.4279580" lon="-2.4562540">
        <ele>423.8</ele>
        <time>2020-01-12T09:52:35Z</time>
      </trkpt>
      <trkpt lat="42.4279020" lon="-2.4562710">
        <ele>423.8</ele>
        <time>2020-01-12T09:52:36Z</time>
      </trkpt>
      <trkpt lat="42.4278460" lon="-2.4563050">
        <ele>423.8</ele>
        <time>2020-01-12T09:52:37Z</time>
      </trkpt>
      <trkpt lat="42.4277900" lon="-2.4563230">
        <ele>423.8</ele>
        <time>2020-01-12T09:52:38Z</time>
      </trkpt>
      <trkpt lat="42.4277240" lon="-2.4563130">
        <ele>423.8</ele>
        <time>2020-01-12T09:52:39Z</time>
      </trkpt>
      <trkpt lat="42.4276350" lon="-2.4562840">
        <ele>423.9</ele>
        <time>2020-01-12T09:52:40Z</time>
      </trkpt>
      <trkpt lat="42.4275970" lon="-2.4563330">
        <ele>423.9</ele>
        <time>2020-01-12T09:52:41Z</time>
      </trkpt>
      <trkpt lat="42.4275360" lon="-2.4563510">
        <ele>423.9</ele>
        <time>2020-01-12T09:52:42Z</time>
      </trkpt>
      <trkpt lat="42.4274830" lon="-2.4563810">
        <ele>423.9</ele>
        <time>2020-01-12T09:52:43Z</time>
      </trkpt>
      <trkpt lat="42.4274070" lon="-2.4563560">
        <ele>424.0</ele>
        <time>2020-01-12T09:52:44Z</time>
      </trkpt>
      <trkpt lat="42.4273420" lon="-2.4563680">
        <ele>424.1</ele>
        <time>2020-01-12T09:52:45Z</time>
      </trkpt>
      <trkpt lat="42.4272840" lon="-2.4563830">
        <ele>424.2</ele>
        <time>2020-01-12T09:52:46Z</time>
      </trkpt>
      <trkpt lat="42.4272120" lon="-2.4564000">
        <ele>424.3</ele>
        <time>2020-01-12T09:52:47Z</time>
      </trkpt>
      <trkpt lat="42.4271370" lon="-2.4564080">
        <ele>424.5</ele>
        <time>2020-01-12T09:52:48Z</time>
      </trkpt>
      <trkpt lat="42.4270740" lon="-2.4564350">
        <ele>424.6</ele>
        <time>2020-01-12T09:52:49Z</time>
      </trkpt>
      <trkpt lat="42.4270110" lon="-2.4564420">
        <ele>424.9</ele>
        <time>2020-01-12T09:52:50Z</time>
      </trkpt>
      <trkpt lat="42.4269390" lon="-2.4564620">
        <ele>424.9</ele>
        <time>2020-01-12T09:52:51Z</time>
      </trkpt>
      <trkpt lat="42.4268800" lon="-2.4564780">
        <ele>424.9</ele>
        <time>2020-01-12T09:52:52Z</time>
      </trkpt>
      <trkpt lat="42.4268430" lon="-2.4565430">
        <ele>424.9</ele>
        <time>2020-01-12T09:52:53Z</time>
      </trkpt>
      <trkpt lat="42.4267830" lon="-2.4565600">
        <ele>425.0</ele>
        <time>2020-01-12T09:52:54Z</time>
      </trkpt>
      <trkpt lat="42.4267300" lon="-2.4566090">
        <ele>425.0</ele>
        <time>2020-01-12T09:52:55Z</time>
      </trkpt>
      <trkpt lat="42.4266630" lon="-2.4566340">
        <ele>425.1</ele>
        <time>2020-01-12T09:52:56Z</time>
      </trkpt>
      <trkpt lat="42.4265950" lon="-2.4566490">
        <ele>425.2</ele>
        <time>2020-01-12T09:52:57Z</time>
      </trkpt>
      <trkpt lat="42.4265040" lon="-2.4566400">
        <ele>425.5</ele>
        <time>2020-01-12T09:52:58Z</time>
      </trkpt>
      <trkpt lat="42.4264500" lon="-2.4566830">
        <ele>425.6</ele>
        <time>2020-01-12T09:52:59Z</time>
      </trkpt>
      <trkpt lat="42.4263750" lon="-2.4566820">
        <ele>425.8</ele>
        <time>2020-01-12T09:53:00Z</time>
      </trkpt>
      <trkpt lat="42.4263130" lon="-2.4566940">
        <ele>425.9</ele>
        <time>2020-01-12T09:53:01Z</time>
      </trkpt>
      <trkpt lat="42.4262500" lon="-2.4567100">
        <ele>426.1</ele>
        <time>2020-01-12T09:53:02Z</time>
      </trkpt>
      <trkpt lat="42.4261880" lon="-2.4567330">
        <ele>426.2</ele>
        <time>2020-01-12T09:53:03Z</time>
      </trkpt>
      <trkpt lat="42.4261330" lon="-2.4567700">
        <ele>426.5</ele>
        <time>2020-01-12T09:53:04Z</time>
      </trkpt>
      <trkpt lat="42.4260760" lon="-2.4567690">
        <ele>426.7</ele>
        <time>2020-01-12T09:53:05Z</time>
      </trkpt>
      <trkpt lat="42.4260240" lon="-2.4567860">
        <ele>427.0</ele>
        <time>2020-01-12T09:53:06Z</time>
      </trkpt>
      <trkpt lat="42.4259700" lon="-2.4568130">
        <ele>427.2</ele>
        <time>2020-01-12T09:53:07Z</time>
      </trkpt>
      <trkpt lat="42.4259100" lon="-2.4568310">
        <ele>427.4</ele>
        <time>2020-01-12T09:53:08Z</time>
      </trkpt>
      <trkpt lat="42.4258490" lon="-2.4568520">
        <ele>427.6</ele>
        <time>2020-01-12T09:53:09Z</time>
      </trkpt>
      <trkpt lat="42.4257820" lon="-2.4568570">
        <ele>427.7</ele>
        <time>2020-01-12T09:53:10Z</time>
      </trkpt>
      <trkpt lat="42.4257200" lon="-2.4568730">
        <ele>427.8</ele>
        <time>2020-01-12T09:53:11Z</time>
      </trkpt>
      <trkpt lat="42.4256590" lon="-2.4568880">
        <ele>427.9</ele>
        <time>2020-01-12T09:53:12Z</time>
      </trkpt>
      <trkpt lat="42.4256100" lon="-2.4569150">
        <ele>427.9</ele>
        <time>2020-01-12T09:53:13Z</time>
      </trkpt>
      <trkpt lat="42.4255440" lon="-2.4569230">
        <ele>428.0</ele>
        <time>2020-01-12T09:53:14Z</time>
      </trkpt>
      <trkpt lat="42.4255240" lon="-2.4570070">
        <ele>428.2</ele>
        <time>2020-01-12T09:53:15Z</time>
      </trkpt>
      <trkpt lat="42.4254600" lon="-2.4570160">
        <ele>428.3</ele>
        <time>2020-01-12T09:53:16Z</time>
      </trkpt>
      <trkpt lat="42.4253970" lon="-2.4570290">
        <ele>428.5</ele>
        <time>2020-01-12T09:53:17Z</time>
      </trkpt>
      <trkpt lat="42.4253350" lon="-2.4570470">
        <ele>428.6</ele>
        <time>2020-01-12T09:53:18Z</time>
      </trkpt>
      <trkpt lat="42.4252770" lon="-2.4570640">
        <ele>428.7</ele>
        <time>2020-01-12T09:53:19Z</time>
      </trkpt>
      <trkpt lat="42.4252170" lon="-2.4570750">
        <ele>428.8</ele>
        <time>2020-01-12T09:53:20Z</time>
      </trkpt>
      <trkpt lat="42.4251470" lon="-2.4570690">
        <ele>428.9</ele>
        <time>2020-01-12T09:53:21Z</time>
      </trkpt>
      <trkpt lat="42.4250830" lon="-2.4570820">
        <ele>429.1</ele>
        <time>2020-01-12T09:53:22Z</time>
      </trkpt>
      <trkpt lat="42.4250170" lon="-2.4571050">
        <ele>429.3</ele>
        <time>2020-01-12T09:53:23Z</time>
      </trkpt>
      <trkpt lat="42.4249560" lon="-2.4571290">
        <ele>429.5</ele>
        <time>2020-01-12T09:53:24Z</time>
      </trkpt>
      <trkpt lat="42.4248900" lon="-2.4571400">
        <ele>429.8</ele>
        <time>2020-01-12T09:53:25Z</time>
      </trkpt>
      <trkpt lat="42.4248380" lon="-2.4571570">
        <ele>430.0</ele>
        <time>2020-01-12T09:53:26Z</time>
      </trkpt>
      <trkpt lat="42.4247800" lon="-2.4571600">
        <ele>430.2</ele>
        <time>2020-01-12T09:53:27Z</time>
      </trkpt>
      <trkpt lat="42.4247300" lon="-2.4571930">
        <ele>430.4</ele>
        <time>2020-01-12T09:53:28Z</time>
      </trkpt>
      <trkpt lat="42.4246730" lon="-2.4572180">
        <ele>430.5</ele>
        <time>2020-01-12T09:53:29Z</time>
      </trkpt>
      <trkpt lat="42.4246130" lon="-2.4572470">
        <ele>430.6</ele>
        <time>2020-01-12T09:53:30Z</time>
      </trkpt>
      <trkpt lat="42.4245580" lon="-2.4572480">
        <ele>430.7</ele>
        <time>2020-01-12T09:53:31Z</time>
      </trkpt>
      <trkpt lat="42.4244940" lon="-2.4572390">
        <ele>430.8</ele>
        <time>2020-01-12T09:53:32Z</time>
      </trkpt>
      <trkpt lat="42.4244510" lon="-2.4572710">
        <ele>430.9</ele>
        <time>2020-01-12T09:53:33Z</time>
      </trkpt>
      <trkpt lat="42.4244090" lon="-2.4573060">
        <ele>431.0</ele>
        <time>2020-01-12T09:53:34Z</time>
      </trkpt>
      <trkpt lat="42.4243650" lon="-2.4573260">
        <ele>431.1</ele>
        <time>2020-01-12T09:53:35Z</time>
      </trkpt>
      <trkpt lat="42.4242930" lon="-2.4573330">
        <ele>431.3</ele>
        <time>2020-01-12T09:53:36Z</time>
      </trkpt>
      <trkpt lat="42.4242270" lon="-2.4573490">
        <ele>431.5</ele>
        <time>2020-01-12T09:53:37Z</time>
      </trkpt>
      <trkpt lat="42.4241780" lon="-2.4573650">
        <ele>431.6</ele>
        <time>2020-01-12T09:53:38Z</time>
      </trkpt>
      <trkpt lat="42.4240990" lon="-2.4573580">
        <ele>431.8</ele>
        <time>2020-01-12T09:53:39Z</time>
      </trkpt>
      <trkpt lat="42.4240580" lon="-2.4573880">
        <ele>431.9</ele>
        <time>2020-01-12T09:53:40Z</time>
      </trkpt>
      <trkpt lat="42.4239990" lon="-2.4574010">
        <ele>432.0</ele>
        <time>2020-01-12T09:53:41Z</time>
      </trkpt>
      <trkpt lat="42.4239450" lon="-2.4574200">
        <ele>432.2</ele>
        <time>2020-01-12T09:53:42Z</time>
      </trkpt>
      <trkpt lat="42.4238870" lon="-2.4574400">
        <ele>432.3</ele>
        <time>2020-01-12T09:53:43Z</time>
      </trkpt>
      <trkpt lat="42.4238230" lon="-2.4574510">
        <ele>432.5</ele>
        <time>2020-01-12T09:53:44Z</time>
      </trkpt>
      <trkpt lat="42.4237730" lon="-2.4574850">
        <ele>432.6</ele>
        <time>2020-01-12T09:53:45Z</time>
      </trkpt>
      <trkpt lat="42.4237110" lon="-2.4575040">
        <ele>432.8</ele>
        <time>2020-01-12T09:53:46Z</time>
      </trkpt>
      <trkpt lat="42.4236470" lon="-2.4575270">
        <ele>432.9</ele>
        <time>2020-01-12T09:53:47Z</time>
      </trkpt>
      <trkpt lat="42.4235890" lon="-2.4575460">
        <ele>433.1</ele>
        <time>2020-01-12T09:53:48Z</time>
      </trkpt>
      <trkpt lat="42.4235310" lon="-2.4575630">
        <ele>433.3</ele>
        <time>2020-01-12T09:53:49Z</time>
      </trkpt>
      <trkpt lat="42.4234860" lon="-2.4575850">
        <ele>433.4</ele>
        <time>2020-01-12T09:53:50Z</time>
      </trkpt>
      <trkpt lat="42.4234340" lon="-2.4576010">
        <ele>433.6</ele>
        <time>2020-01-12T09:53:51Z</time>
      </trkpt>
      <trkpt lat="42.4233790" lon="-2.4576200">
        <ele>433.8</ele>
        <time>2020-01-12T09:53:52Z</time>
      </trkpt>
      <trkpt lat="42.4233260" lon="-2.4576390">
        <ele>434.0</ele>
        <time>2020-01-12T09:53:53Z</time>
      </trkpt>
      <trkpt lat="42.4232700" lon="-2.4576620">
        <ele>434.2</ele>
        <time>2020-01-12T09:53:54Z</time>
      </trkpt>
      <trkpt lat="42.4232170" lon="-2.4576780">
        <ele>434.3</ele>
        <time>2020-01-12T09:53:55Z</time>
      </trkpt>
      <trkpt lat="42.4231570" lon="-2.4576890">
        <ele>434.6</ele>
        <time>2020-01-12T09:53:56Z</time>
      </trkpt>
      <trkpt lat="42.4231050" lon="-2.4577030">
        <ele>434.8</ele>
        <time>2020-01-12T09:53:57Z</time>
      </trkpt>
      <trkpt lat="42.4230510" lon="-2.4577140">
        <ele>435.0</ele>
        <time>2020-01-12T09:53:58Z</time>
      </trkpt>
      <trkpt lat="42.4229980" lon="-2.4577350">
        <ele>435.2</ele>
        <time>2020-01-12T09:53:59Z</time>
      </trkpt>
      <trkpt lat="42.4229430" lon="-2.4577450">
        <ele>435.4</ele>
        <time>2020-01-12T09:54:00Z</time>
      </trkpt>
      <trkpt lat="42.4228880" lon="-2.4577610">
        <ele>435.5</ele>
        <time>2020-01-12T09:54:01Z</time>
      </trkpt>
      <trkpt lat="42.4228280" lon="-2.4577740">
        <ele>435.5</ele>
        <time>2020-01-12T09:54:02Z</time>
      </trkpt>
      <trkpt lat="42.4227820" lon="-2.4578050">
        <ele>435.6</ele>
        <time>2020-01-12T09:54:03Z</time>
      </trkpt>
      <trkpt lat="42.4227310" lon="-2.4578270">
        <ele>436.0</ele>
        <time>2020-01-12T09:54:04Z</time>
      </trkpt>
      <trkpt lat="42.4226710" lon="-2.4578410">
        <ele>436.4</ele>
        <time>2020-01-12T09:54:05Z</time>
      </trkpt>
      <trkpt lat="42.4226170" lon="-2.4578520">
        <ele>436.6</ele>
        <time>2020-01-12T09:54:06Z</time>
      </trkpt>
      <trkpt lat="42.4225640" lon="-2.4578810">
        <ele>436.9</ele>
        <time>2020-01-12T09:54:07Z</time>
      </trkpt>
      <trkpt lat="42.4225310" lon="-2.4579260">
        <ele>437.1</ele>
        <time>2020-01-12T09:54:08Z</time>
      </trkpt>
      <trkpt lat="42.4224990" lon="-2.4579820">
        <ele>437.3</ele>
        <time>2020-01-12T09:54:09Z</time>
      </trkpt>
      <trkpt lat="42.4224630" lon="-2.4580170">
        <ele>437.5</ele>
        <time>2020-01-12T09:54:10Z</time>
      </trkpt>
      <trkpt lat="42.4224210" lon="-2.4580330">
        <ele>437.6</ele>
        <time>2020-01-12T09:54:11Z</time>
      </trkpt>
      <trkpt lat="42.4223860" lon="-2.4580430">
        <ele>437.7</ele>
        <time>2020-01-12T09:54:12Z</time>
      </trkpt>
      <trkpt lat="42.4223510" lon="-2.4580350">
        <ele>437.9</ele>
        <time>2020-01-12T09:54:13Z</time>
      </trkpt>
      <trkpt lat="42.4223030" lon="-2.4580220">
        <ele>438.0</ele>
        <time>2020-01-12T09:54:14Z</time>
      </trkpt>
      <trkpt lat="42.4222470" lon="-2.4580120">
        <ele>438.2</ele>
        <time>2020-01-12T09:54:15Z</time>
      </trkpt>
      <trkpt lat="42.4222060" lon="-2.4580440">
        <ele>438.4</ele>
        <time>2020-01-12T09:54:16Z</time>
      </trkpt>
      <trkpt lat="42.4221600" lon="-2.4580660">
        <ele>438.6</ele>
        <time>2020-01-12T09:54:17Z</time>
      </trkpt>
      <trkpt lat="42.4221060" lon="-2.4580870">
        <ele>438.8</ele>
        <time>2020-01-12T09:54:18Z</time>
      </trkpt>
      <trkpt lat="42.4220510" lon="-2.4581070">
        <ele>438.9</ele>
        <time>2020-01-12T09:54:19Z</time>
      </trkpt>
      <trkpt lat="42.4220000" lon="-2.4581270">
        <ele>439.0</ele>
        <time>2020-01-12T09:54:20Z</time>
      </trkpt>
      <trkpt lat="42.4219420" lon="-2.4581440">
        <ele>439.2</ele>
        <time>2020-01-12T09:54:21Z</time>
      </trkpt>
      <trkpt lat="42.4218850" lon="-2.4581590">
        <ele>439.4</ele>
        <time>2020-01-12T09:54:22Z</time>
      </trkpt>
      <trkpt lat="42.4218390" lon="-2.4581990">
        <ele>439.6</ele>
        <time>2020-01-12T09:54:23Z</time>
      </trkpt>
      <trkpt lat="42.4217910" lon="-2.4582180">
        <ele>439.7</ele>
        <time>2020-01-12T09:54:24Z</time>
      </trkpt>
      <trkpt lat="42.4217360" lon="-2.4582480">
        <ele>439.9</ele>
        <time>2020-01-12T09:54:25Z</time>
      </trkpt>
      <trkpt lat="42.4216790" lon="-2.4582840">
        <ele>440.1</ele>
        <time>2020-01-12T09:54:26Z</time>
      </trkpt>
      <trkpt lat="42.4216270" lon="-2.4583290">
        <ele>440.3</ele>
        <time>2020-01-12T09:54:27Z</time>
      </trkpt>
      <trkpt lat="42.4215750" lon="-2.4583550">
        <ele>440.5</ele>
        <time>2020-01-12T09:54:28Z</time>
      </trkpt>
      <trkpt lat="42.4215210" lon="-2.4583820">
        <ele>440.6</ele>
        <time>2020-01-12T09:54:29Z</time>
      </trkpt>
      <trkpt lat="42.4214700" lon="-2.4583980">
        <ele>440.8</ele>
        <time>2020-01-12T09:54:30Z</time>
      </trkpt>
      <trkpt lat="42.4214190" lon="-2.4584440">
        <ele>440.9</ele>
        <time>2020-01-12T09:54:31Z</time>
      </trkpt>
      <trkpt lat="42.4213550" lon="-2.4584710">
        <ele>441.0</ele>
        <time>2020-01-12T09:54:32Z</time>
      </trkpt>
      <trkpt lat="42.4213030" lon="-2.4585040">
        <ele>441.0</ele>
        <time>2020-01-12T09:54:33Z</time>
      </trkpt>
      <trkpt lat="42.4212440" lon="-2.4585340">
        <ele>441.0</ele>
        <time>2020-01-12T09:54:34Z</time>
      </trkpt>
      <trkpt lat="42.4211870" lon="-2.4585580">
        <ele>441.1</ele>
        <time>2020-01-12T09:54:35Z</time>
      </trkpt>
      <trkpt lat="42.4211310" lon="-2.4585880">
        <ele>441.1</ele>
        <time>2020-01-12T09:54:36Z</time>
      </trkpt>
      <trkpt lat="42.4210780" lon="-2.4586340">
        <ele>441.1</ele>
        <time>2020-01-12T09:54:37Z</time>
      </trkpt>
      <trkpt lat="42.4210230" lon="-2.4586510">
        <ele>441.1</ele>
        <time>2020-01-12T09:54:38Z</time>
      </trkpt>
      <trkpt lat="42.4209730" lon="-2.4586860">
        <ele>441.1</ele>
        <time>2020-01-12T09:54:39Z</time>
      </trkpt>
      <trkpt lat="42.4209190" lon="-2.4587210">
        <ele>441.1</ele>
        <time>2020-01-12T09:54:40Z</time>
      </trkpt>
      <trkpt lat="42.4208630" lon="-2.4587600">
        <ele>441.1</ele>
        <time>2020-01-12T09:54:41Z</time>
      </trkpt>
      <trkpt lat="42.4208080" lon="-2.4588070">
        <ele>441.1</ele>
        <time>2020-01-12T09:54:42Z</time>
      </trkpt>
      <trkpt lat="42.4207570" lon="-2.4588370">
        <ele>441.1</ele>
        <time>2020-01-12T09:54:43Z</time>
      </trkpt>
      <trkpt lat="42.4206910" lon="-2.4588610">
        <ele>441.1</ele>
        <time>2020-01-12T09:54:44Z</time>
      </trkpt>
      <trkpt lat="42.4206370" lon="-2.4589110">
        <ele>441.1</ele>
        <time>2020-01-12T09:54:45Z</time>
      </trkpt>
      <trkpt lat="42.4205790" lon="-2.4589580">
        <ele>441.1</ele>
        <time>2020-01-12T09:54:46Z</time>
      </trkpt>
      <trkpt lat="42.4205200" lon="-2.4589990">
        <ele>441.2</ele>
        <time>2020-01-12T09:54:47Z</time>
      </trkpt>
      <trkpt lat="42.4204640" lon="-2.4590190">
        <ele>441.2</ele>
        <time>2020-01-12T09:54:48Z</time>
      </trkpt>
      <trkpt lat="42.4204120" lon="-2.4590380">
        <ele>441.2</ele>
        <time>2020-01-12T09:54:49Z</time>
      </trkpt>
      <trkpt lat="42.4203670" lon="-2.4590830">
        <ele>441.2</ele>
        <time>2020-01-12T09:54:50Z</time>
      </trkpt>
      <trkpt lat="42.4203270" lon="-2.4591220">
        <ele>441.2</ele>
        <time>2020-01-12T09:54:51Z</time>
      </trkpt>
      <trkpt lat="42.4202730" lon="-2.4591670">
        <ele>441.2</ele>
        <time>2020-01-12T09:54:52Z</time>
      </trkpt>
      <trkpt lat="42.4202410" lon="-2.4592270">
        <ele>441.2</ele>
        <time>2020-01-12T09:54:53Z</time>
      </trkpt>
      <trkpt lat="42.4201790" lon="-2.4592590">
        <ele>441.2</ele>
        <time>2020-01-12T09:54:54Z</time>
      </trkpt>
      <trkpt lat="42.4201180" lon="-2.4592900">
        <ele>441.2</ele>
        <time>2020-01-12T09:54:55Z</time>
      </trkpt>
      <trkpt lat="42.4200500" lon="-2.4593130">
        <ele>441.2</ele>
        <time>2020-01-12T09:54:56Z</time>
      </trkpt>
      <trkpt lat="42.4199980" lon="-2.4593440">
        <ele>441.2</ele>
        <time>2020-01-12T09:54:57Z</time>
      </trkpt>
      <trkpt lat="42.4199380" lon="-2.4593790">
        <ele>441.2</ele>
        <time>2020-01-12T09:54:58Z</time>
      </trkpt>
      <trkpt lat="42.4198790" lon="-2.4594200">
        <ele>441.2</ele>
        <time>2020-01-12T09:54:59Z</time>
      </trkpt>
      <trkpt lat="42.4198240" lon="-2.4594490">
        <ele>441.2</ele>
        <time>2020-01-12T09:55:00Z</time>
      </trkpt>
      <trkpt lat="42.4197720" lon="-2.4594810">
        <ele>441.2</ele>
        <time>2020-01-12T09:55:01Z</time>
      </trkpt>
      <trkpt lat="42.4197200" lon="-2.4595010">
        <ele>441.2</ele>
        <time>2020-01-12T09:55:02Z</time>
      </trkpt>
      <trkpt lat="42.4196760" lon="-2.4595410">
        <ele>441.3</ele>
        <time>2020-01-12T09:55:03Z</time>
      </trkpt>
      <trkpt lat="42.4196270" lon="-2.4595690">
        <ele>441.3</ele>
        <time>2020-01-12T09:55:04Z</time>
      </trkpt>
      <trkpt lat="42.4195680" lon="-2.4596020">
        <ele>441.3</ele>
        <time>2020-01-12T09:55:05Z</time>
      </trkpt>
      <trkpt lat="42.4195180" lon="-2.4596400">
        <ele>441.3</ele>
        <time>2020-01-12T09:55:06Z</time>
      </trkpt>
      <trkpt lat="42.4194710" lon="-2.4596940">
        <ele>441.3</ele>
        <time>2020-01-12T09:55:07Z</time>
      </trkpt>
      <trkpt lat="42.4194170" lon="-2.4597180">
        <ele>441.3</ele>
        <time>2020-01-12T09:55:08Z</time>
      </trkpt>
      <trkpt lat="42.4193650" lon="-2.4597340">
        <ele>441.3</ele>
        <time>2020-01-12T09:55:09Z</time>
      </trkpt>
      <trkpt lat="42.4193110" lon="-2.4597870">
        <ele>441.3</ele>
        <time>2020-01-12T09:55:10Z</time>
      </trkpt>
      <trkpt lat="42.4192520" lon="-2.4598190">
        <ele>441.3</ele>
        <time>2020-01-12T09:55:11Z</time>
      </trkpt>
      <trkpt lat="42.4191970" lon="-2.4598300">
        <ele>441.4</ele>
        <time>2020-01-12T09:55:12Z</time>
      </trkpt>
      <trkpt lat="42.4191340" lon="-2.4598640">
        <ele>441.5</ele>
        <time>2020-01-12T09:55:13Z</time>
      </trkpt>
      <trkpt lat="42.4190850" lon="-2.4599180">
        <ele>441.7</ele>
        <time>2020-01-12T09:55:14Z</time>
      </trkpt>
      <trkpt lat="42.4190130" lon="-2.4599630">
        <ele>441.9</ele>
        <time>2020-01-12T09:55:15Z</time>
      </trkpt>
      <trkpt lat="42.4189580" lon="-2.4600160">
        <ele>442.1</ele>
        <time>2020-01-12T09:55:16Z</time>
      </trkpt>
      <trkpt lat="42.4188930" lon="-2.4600520">
        <ele>442.3</ele>
        <time>2020-01-12T09:55:17Z</time>
      </trkpt>
      <trkpt lat="42.4188240" lon="-2.4600850">
        <ele>442.5</ele>
        <time>2020-01-12T09:55:18Z</time>
      </trkpt>
      <trkpt lat="42.4187570" lon="-2.4601090">
        <ele>442.7</ele>
        <time>2020-01-12T09:55:19Z</time>
      </trkpt>
      <trkpt lat="42.4186990" lon="-2.4601350">
        <ele>442.9</ele>
        <time>2020-01-12T09:55:20Z</time>
      </trkpt>
      <trkpt lat="42.4186330" lon="-2.4601660">
        <ele>443.0</ele>
        <time>2020-01-12T09:55:21Z</time>
      </trkpt>
      <trkpt lat="42.4185640" lon="-2.4602120">
        <ele>443.1</ele>
        <time>2020-01-12T09:55:22Z</time>
      </trkpt>
      <trkpt lat="42.4185110" lon="-2.4602290">
        <ele>443.2</ele>
        <time>2020-01-12T09:55:23Z</time>
      </trkpt>
      <trkpt lat="42.4184300" lon="-2.4602620">
        <ele>443.2</ele>
        <time>2020-01-12T09:55:24Z</time>
      </trkpt>
      <trkpt lat="42.4183840" lon="-2.4603130">
        <ele>443.2</ele>
        <time>2020-01-12T09:55:25Z</time>
      </trkpt>
      <trkpt lat="42.4183250" lon="-2.4603450">
        <ele>443.2</ele>
        <time>2020-01-12T09:55:26Z</time>
      </trkpt>
      <trkpt lat="42.4182780" lon="-2.4603910">
        <ele>443.2</ele>
        <time>2020-01-12T09:55:27Z</time>
      </trkpt>
      <trkpt lat="42.4182220" lon="-2.4604440">
        <ele>443.2</ele>
        <time>2020-01-12T09:55:28Z</time>
      </trkpt>
      <trkpt lat="42.4181640" lon="-2.4604670">
        <ele>443.3</ele>
        <time>2020-01-12T09:55:29Z</time>
      </trkpt>
      <trkpt lat="42.4181010" lon="-2.4604930">
        <ele>443.3</ele>
        <time>2020-01-12T09:55:30Z</time>
      </trkpt>
      <trkpt lat="42.4180380" lon="-2.4605430">
        <ele>443.4</ele>
        <time>2020-01-12T09:55:31Z</time>
      </trkpt>
      <trkpt lat="42.4179720" lon="-2.4605930">
        <ele>443.5</ele>
        <time>2020-01-12T09:55:32Z</time>
      </trkpt>
      <trkpt lat="42.4179110" lon="-2.4606220">
        <ele>443.6</ele>
        <time>2020-01-12T09:55:33Z</time>
      </trkpt>
      <trkpt lat="42.4178480" lon="-2.4606670">
        <ele>443.8</ele>
        <time>2020-01-12T09:55:34Z</time>
      </trkpt>
      <trkpt lat="42.4178030" lon="-2.4607110">
        <ele>444.0</ele>
        <time>2020-01-12T09:55:35Z</time>
      </trkpt>
      <trkpt lat="42.4177460" lon="-2.4607230">
        <ele>444.1</ele>
        <time>2020-01-12T09:55:36Z</time>
      </trkpt>
      <trkpt lat="42.4176830" lon="-2.4607600">
        <ele>444.3</ele>
        <time>2020-01-12T09:55:37Z</time>
      </trkpt>
      <trkpt lat="42.4176230" lon="-2.4607910">
        <ele>444.5</ele>
        <time>2020-01-12T09:55:38Z</time>
      </trkpt>
      <trkpt lat="42.4175550" lon="-2.4608270">
        <ele>444.7</ele>
        <time>2020-01-12T09:55:39Z</time>
      </trkpt>
      <trkpt lat="42.4174870" lon="-2.4608570">
        <ele>444.9</ele>
        <time>2020-01-12T09:55:40Z</time>
      </trkpt>
      <trkpt lat="42.4174400" lon="-2.4609000">
        <ele>445.0</ele>
        <time>2020-01-12T09:55:41Z</time>
      </trkpt>
      <trkpt lat="42.4173800" lon="-2.4609410">
        <ele>445.1</ele>
        <time>2020-01-12T09:55:42Z</time>
      </trkpt>
      <trkpt lat="42.4173240" lon="-2.4609840">
        <ele>445.2</ele>
        <time>2020-01-12T09:55:43Z</time>
      </trkpt>
      <trkpt lat="42.4172730" lon="-2.4610220">
        <ele>445.2</ele>
        <time>2020-01-12T09:55:44Z</time>
      </trkpt>
      <trkpt lat="42.4172190" lon="-2.4610700">
        <ele>445.2</ele>
        <time>2020-01-12T09:55:45Z</time>
      </trkpt>
      <trkpt lat="42.4171620" lon="-2.4610950">
        <ele>445.2</ele>
        <time>2020-01-12T09:55:46Z</time>
      </trkpt>
      <trkpt lat="42.4171060" lon="-2.4611430">
        <ele>445.2</ele>
        <time>2020-01-12T09:55:47Z</time>
      </trkpt>
      <trkpt lat="42.4170440" lon="-2.4611830">
        <ele>445.2</ele>
        <time>2020-01-12T09:55:48Z</time>
      </trkpt>
      <trkpt lat="42.4169860" lon="-2.4612280">
        <ele>445.2</ele>
        <time>2020-01-12T09:55:49Z</time>
      </trkpt>
      <trkpt lat="42.4169310" lon="-2.4612720">
        <ele>445.2</ele>
        <time>2020-01-12T09:55:50Z</time>
      </trkpt>
      <trkpt lat="42.4168740" lon="-2.4613140">
        <ele>445.2</ele>
        <time>2020-01-12T09:55:51Z</time>
      </trkpt>
      <trkpt lat="42.4168220" lon="-2.4613490">
        <ele>445.2</ele>
        <time>2020-01-12T09:55:52Z</time>
      </trkpt>
      <trkpt lat="42.4167610" lon="-2.4613900">
        <ele>445.2</ele>
        <time>2020-01-12T09:55:53Z</time>
      </trkpt>
      <trkpt lat="42.4167070" lon="-2.4614100">
        <ele>445.2</ele>
        <time>2020-01-12T09:55:54Z</time>
      </trkpt>
      <trkpt lat="42.4166510" lon="-2.4614520">
        <ele>445.2</ele>
        <time>2020-01-12T09:55:55Z</time>
      </trkpt>
      <trkpt lat="42.4165880" lon="-2.4614880">
        <ele>445.2</ele>
        <time>2020-01-12T09:55:56Z</time>
      </trkpt>
      <trkpt lat="42.4165170" lon="-2.4615350">
        <ele>445.2</ele>
        <time>2020-01-12T09:55:57Z</time>
      </trkpt>
      <trkpt lat="42.4164500" lon="-2.4615810">
        <ele>445.2</ele>
        <time>2020-01-12T09:55:58Z</time>
      </trkpt>
      <trkpt lat="42.4163940" lon="-2.4616110">
        <ele>445.2</ele>
        <time>2020-01-12T09:55:59Z</time>
      </trkpt>
      <trkpt lat="42.4163470" lon="-2.4616620">
        <ele>445.2</ele>
        <time>2020-01-12T09:56:00Z</time>
      </trkpt>
      <trkpt lat="42.4162940" lon="-2.4616920">
        <ele>445.2</ele>
        <time>2020-01-12T09:56:01Z</time>
      </trkpt>
      <trkpt lat="42.4162420" lon="-2.4617260">
        <ele>445.2</ele>
        <time>2020-01-12T09:56:02Z</time>
      </trkpt>
      <trkpt lat="42.4161800" lon="-2.4617660">
        <ele>445.2</ele>
        <time>2020-01-12T09:56:03Z</time>
      </trkpt>
      <trkpt lat="42.4161260" lon="-2.4617990">
        <ele>445.2</ele>
        <time>2020-01-12T09:56:04Z</time>
      </trkpt>
      <trkpt lat="42.4160660" lon="-2.4618220">
        <ele>445.2</ele>
        <time>2020-01-12T09:56:05Z</time>
      </trkpt>
      <trkpt lat="42.4160130" lon="-2.4618560">
        <ele>445.2</ele>
        <time>2020-01-12T09:56:06Z</time>
      </trkpt>
      <trkpt lat="42.4159600" lon="-2.4618820">
        <ele>445.2</ele>
        <time>2020-01-12T09:56:07Z</time>
      </trkpt>
      <trkpt lat="42.4159130" lon="-2.4619220">
        <ele>445.2</ele>
        <time>2020-01-12T09:56:08Z</time>
      </trkpt>
      <trkpt lat="42.4158670" lon="-2.4619420">
        <ele>445.2</ele>
        <time>2020-01-12T09:56:09Z</time>
      </trkpt>
      <trkpt lat="42.4158090" lon="-2.4619910">
        <ele>445.2</ele>
        <time>2020-01-12T09:56:10Z</time>
      </trkpt>
      <trkpt lat="42.4157640" lon="-2.4620200">
        <ele>445.2</ele>
        <time>2020-01-12T09:56:11Z</time>
      </trkpt>
      <trkpt lat="42.4157130" lon="-2.4620540">
        <ele>445.2</ele>
        <time>2020-01-12T09:56:12Z</time>
      </trkpt>
      <trkpt lat="42.4156540" lon="-2.4620910">
        <ele>445.2</ele>
        <time>2020-01-12T09:56:13Z</time>
      </trkpt>
      <trkpt lat="42.4156020" lon="-2.4621150">
        <ele>445.2</ele>
        <time>2020-01-12T09:56:14Z</time>
      </trkpt>
      <trkpt lat="42.4155520" lon="-2.4621360">
        <ele>445.2</ele>
        <time>2020-01-12T09:56:15Z</time>
      </trkpt>
      <trkpt lat="42.4155010" lon="-2.4621720">
        <ele>445.3</ele>
        <time>2020-01-12T09:56:16Z</time>
      </trkpt>
      <trkpt lat="42.4154500" lon="-2.4622080">
        <ele>445.3</ele>
        <time>2020-01-12T09:56:17Z</time>
      </trkpt>
      <trkpt lat="42.4153970" lon="-2.4621830">
        <ele>445.4</ele>
        <time>2020-01-12T09:56:18Z</time>
      </trkpt>
      <trkpt lat="42.4153240" lon="-2.4622390">
        <ele>445.6</ele>
        <time>2020-01-12T09:56:19Z</time>
      </trkpt>
      <trkpt lat="42.4152460" lon="-2.4622760">
        <ele>445.8</ele>
        <time>2020-01-12T09:56:20Z</time>
      </trkpt>
      <trkpt lat="42.4151970" lon="-2.4623450">
        <ele>445.9</ele>
        <time>2020-01-12T09:56:21Z</time>
      </trkpt>
      <trkpt lat="42.4151540" lon="-2.4623970">
        <ele>446.0</ele>
        <time>2020-01-12T09:56:22Z</time>
      </trkpt>
      <trkpt lat="42.4150770" lon="-2.4624220">
        <ele>446.1</ele>
        <time>2020-01-12T09:56:23Z</time>
      </trkpt>
      <trkpt lat="42.4150100" lon="-2.4624500">
        <ele>446.2</ele>
        <time>2020-01-12T09:56:24Z</time>
      </trkpt>
      <trkpt lat="42.4149460" lon="-2.4624990">
        <ele>446.3</ele>
        <time>2020-01-12T09:56:25Z</time>
      </trkpt>
      <trkpt lat="42.4148830" lon="-2.4625170">
        <ele>446.3</ele>
        <time>2020-01-12T09:56:26Z</time>
      </trkpt>
      <trkpt lat="42.4148240" lon="-2.4625400">
        <ele>446.4</ele>
        <time>2020-01-12T09:56:27Z</time>
      </trkpt>
      <trkpt lat="42.4147610" lon="-2.4625570">
        <ele>446.6</ele>
        <time>2020-01-12T09:56:28Z</time>
      </trkpt>
      <trkpt lat="42.4147100" lon="-2.4625900">
        <ele>446.7</ele>
        <time>2020-01-12T09:56:29Z</time>
      </trkpt>
      <trkpt lat="42.4146670" lon="-2.4626220">
        <ele>446.8</ele>
        <time>2020-01-12T09:56:30Z</time>
      </trkpt>
      <trkpt lat="42.4146140" lon="-2.4626490">
        <ele>446.9</ele>
        <time>2020-01-12T09:56:31Z</time>
      </trkpt>
      <trkpt lat="42.4145570" lon="-2.4627070">
        <ele>447.0</ele>
        <time>2020-01-12T09:56:32Z</time>
      </trkpt>
      <trkpt lat="42.4145040" lon="-2.4627500">
        <ele>447.1</ele>
        <time>2020-01-12T09:56:33Z</time>
      </trkpt>
      <trkpt lat="42.4144560" lon="-2.4627850">
        <ele>447.1</ele>
        <time>2020-01-12T09:56:34Z</time>
      </trkpt>
      <trkpt lat="42.4143970" lon="-2.4628110">
        <ele>447.2</ele>
        <time>2020-01-12T09:56:35Z</time>
      </trkpt>
      <trkpt lat="42.4143390" lon="-2.4628530">
        <ele>447.2</ele>
        <time>2020-01-12T09:56:36Z</time>
      </trkpt>
      <trkpt lat="42.4142660" lon="-2.4628780">
        <ele>447.2</ele>
        <time>2020-01-12T09:56:37Z</time>
      </trkpt>
      <trkpt lat="42.4142160" lon="-2.4629250">
        <ele>447.2</ele>
        <time>2020-01-12T09:56:38Z</time>
      </trkpt>
      <trkpt lat="42.4141600" lon="-2.4629610">
        <ele>447.2</ele>
        <time>2020-01-12T09:56:39Z</time>
      </trkpt>
      <trkpt lat="42.4141010" lon="-2.4630020">
        <ele>447.2</ele>
        <time>2020-01-12T09:56:40Z</time>
      </trkpt>
      <trkpt lat="42.4140410" lon="-2.4630270">
        <ele>447.3</ele>
        <time>2020-01-12T09:56:41Z</time>
      </trkpt>
      <trkpt lat="42.4139910" lon="-2.4630560">
        <ele>447.3</ele>
        <time>2020-01-12T09:56:42Z</time>
      </trkpt>
      <trkpt lat="42.4139360" lon="-2.4630910">
        <ele>447.4</ele>
        <time>2020-01-12T09:56:43Z</time>
      </trkpt>
      <trkpt lat="42.4138910" lon="-2.4631300">
        <ele>447.4</ele>
        <time>2020-01-12T09:56:44Z</time>
      </trkpt>
      <trkpt lat="42.4138310" lon="-2.4631690">
        <ele>447.5</ele>
        <time>2020-01-12T09:56:45Z</time>
      </trkpt>
      <trkpt lat="42.4137730" lon="-2.4632050">
        <ele>447.6</ele>
        <time>2020-01-12T09:56:46Z</time>
      </trkpt>
      <trkpt lat="42.4137130" lon="-2.4632450">
        <ele>447.7</ele>
        <time>2020-01-12T09:56:47Z</time>
      </trkpt>
      <trkpt lat="42.4136600" lon="-2.4632820">
        <ele>447.7</ele>
        <time>2020-01-12T09:56:48Z</time>
      </trkpt>
      <trkpt lat="42.4136070" lon="-2.4633180">
        <ele>447.7</ele>
        <time>2020-01-12T09:56:49Z</time>
      </trkpt>
      <trkpt lat="42.4135430" lon="-2.4633610">
        <ele>447.7</ele>
        <time>2020-01-12T09:56:50Z</time>
      </trkpt>
      <trkpt lat="42.4134880" lon="-2.4634070">
        <ele>447.7</ele>
        <time>2020-01-12T09:56:51Z</time>
      </trkpt>
      <trkpt lat="42.4134270" lon="-2.4634530">
        <ele>447.7</ele>
        <time>2020-01-12T09:56:52Z</time>
      </trkpt>
      <trkpt lat="42.4133700" lon="-2.4634820">
        <ele>447.8</ele>
        <time>2020-01-12T09:56:53Z</time>
      </trkpt>
      <trkpt lat="42.4133300" lon="-2.4635330">
        <ele>447.8</ele>
        <time>2020-01-12T09:56:54Z</time>
      </trkpt>
      <trkpt lat="42.4132660" lon="-2.4635750">
        <ele>448.0</ele>
        <time>2020-01-12T09:56:55Z</time>
      </trkpt>
      <trkpt lat="42.4132140" lon="-2.4636150">
        <ele>448.1</ele>
        <time>2020-01-12T09:56:56Z</time>
      </trkpt>
      <trkpt lat="42.4131570" lon="-2.4636360">
        <ele>448.2</ele>
        <time>2020-01-12T09:56:57Z</time>
      </trkpt>
      <trkpt lat="42.4131110" lon="-2.4636570">
        <ele>448.4</ele>
        <time>2020-01-12T09:56:58Z</time>
      </trkpt>
      <trkpt lat="42.4130410" lon="-2.4636440">
        <ele>448.5</ele>
        <time>2020-01-12T09:56:59Z</time>
      </trkpt>
      <trkpt lat="42.4129900" lon="-2.4636770">
        <ele>448.7</ele>
        <time>2020-01-12T09:57:00Z</time>
      </trkpt>
      <trkpt lat="42.4129400" lon="-2.4637190">
        <ele>448.9</ele>
        <time>2020-01-12T09:57:01Z</time>
      </trkpt>
      <trkpt lat="42.4128780" lon="-2.4637580">
        <ele>449.1</ele>
        <time>2020-01-12T09:57:02Z</time>
      </trkpt>
      <trkpt lat="42.4128130" lon="-2.4638180">
        <ele>449.3</ele>
        <time>2020-01-12T09:57:03Z</time>
      </trkpt>
      <trkpt lat="42.4127460" lon="-2.4638480">
        <ele>449.4</ele>
        <time>2020-01-12T09:57:04Z</time>
      </trkpt>
      <trkpt lat="42.4126970" lon="-2.4638820">
        <ele>449.6</ele>
        <time>2020-01-12T09:57:05Z</time>
      </trkpt>
      <trkpt lat="42.4126400" lon="-2.4639170">
        <ele>449.7</ele>
        <time>2020-01-12T09:57:06Z</time>
      </trkpt>
      <trkpt lat="42.4125700" lon="-2.4639680">
        <ele>450.0</ele>
        <time>2020-01-12T09:57:07Z</time>
      </trkpt>
      <trkpt lat="42.4125070" lon="-2.4640050">
        <ele>450.1</ele>
        <time>2020-01-12T09:57:08Z</time>
      </trkpt>
      <trkpt lat="42.4124470" lon="-2.4640510">
        <ele>450.3</ele>
        <time>2020-01-12T09:57:09Z</time>
      </trkpt>
      <trkpt lat="42.4123980" lon="-2.4641100">
        <ele>450.4</ele>
        <time>2020-01-12T09:57:10Z</time>
      </trkpt>
      <trkpt lat="42.4123460" lon="-2.4641610">
        <ele>450.6</ele>
        <time>2020-01-12T09:57:11Z</time>
      </trkpt>
      <trkpt lat="42.4122960" lon="-2.4642190">
        <ele>450.7</ele>
        <time>2020-01-12T09:57:12Z</time>
      </trkpt>
      <trkpt lat="42.4122470" lon="-2.4642570">
        <ele>450.9</ele>
        <time>2020-01-12T09:57:13Z</time>
      </trkpt>
      <trkpt lat="42.4121900" lon="-2.4642940">
        <ele>451.2</ele>
        <time>2020-01-12T09:57:14Z</time>
      </trkpt>
      <trkpt lat="42.4121170" lon="-2.4643280">
        <ele>451.6</ele>
        <time>2020-01-12T09:57:15Z</time>
      </trkpt>
      <trkpt lat="42.4120700" lon="-2.4643800">
        <ele>451.9</ele>
        <time>2020-01-12T09:57:16Z</time>
      </trkpt>
      <trkpt lat="42.4120160" lon="-2.4644140">
        <ele>452.2</ele>
        <time>2020-01-12T09:57:17Z</time>
      </trkpt>
      <trkpt lat="42.4119630" lon="-2.4644460">
        <ele>452.4</ele>
        <time>2020-01-12T09:57:18Z</time>
      </trkpt>
      <trkpt lat="42.4119100" lon="-2.4644860">
        <ele>452.7</ele>
        <time>2020-01-12T09:57:19Z</time>
      </trkpt>
      <trkpt lat="42.4118750" lon="-2.4645070">
        <ele>452.8</ele>
        <time>2020-01-12T09:57:20Z</time>
      </trkpt>
      <trkpt lat="42.4118130" lon="-2.4645430">
        <ele>453.1</ele>
        <time>2020-01-12T09:57:21Z</time>
      </trkpt>
      <trkpt lat="42.4117590" lon="-2.4645670">
        <ele>453.4</ele>
        <time>2020-01-12T09:57:22Z</time>
      </trkpt>
      <trkpt lat="42.4117040" lon="-2.4645920">
        <ele>453.8</ele>
        <time>2020-01-12T09:57:23Z</time>
      </trkpt>
      <trkpt lat="42.4116430" lon="-2.4646170">
        <ele>454.1</ele>
        <time>2020-01-12T09:57:24Z</time>
      </trkpt>
      <trkpt lat="42.4115890" lon="-2.4646480">
        <ele>454.3</ele>
        <time>2020-01-12T09:57:25Z</time>
      </trkpt>
      <trkpt lat="42.4115430" lon="-2.4646860">
        <ele>454.5</ele>
        <time>2020-01-12T09:57:26Z</time>
      </trkpt>
      <trkpt lat="42.4115070" lon="-2.4647430">
        <ele>454.7</ele>
        <time>2020-01-12T09:57:27Z</time>
      </trkpt>
      <trkpt lat="42.4114910" lon="-2.4648110">
        <ele>455.2</ele>
        <time>2020-01-12T09:57:28Z</time>
      </trkpt>
      <trkpt lat="42.4114650" lon="-2.4648720">
        <ele>455.6</ele>
        <time>2020-01-12T09:57:29Z</time>
      </trkpt>
      <trkpt lat="42.4114320" lon="-2.4649330">
        <ele>456.3</ele>
        <time>2020-01-12T09:57:30Z</time>
      </trkpt>
      <trkpt lat="42.4114140" lon="-2.4650070">
        <ele>456.8</ele>
        <time>2020-01-12T09:57:31Z</time>
      </trkpt>
      <trkpt lat="42.4114170" lon="-2.4650830">
        <ele>457.5</ele>
        <time>2020-01-12T09:57:32Z</time>
      </trkpt>
      <trkpt lat="42.4114360" lon="-2.4651530">
        <ele>458.0</ele>
        <time>2020-01-12T09:57:33Z</time>
      </trkpt>
      <trkpt lat="42.4114600" lon="-2.4652150">
        <ele>458.4</ele>
        <time>2020-01-12T09:57:34Z</time>
      </trkpt>
      <trkpt lat="42.4114780" lon="-2.4652940">
        <ele>459.0</ele>
        <time>2020-01-12T09:57:35Z</time>
      </trkpt>
      <trkpt lat="42.4115210" lon="-2.4653320">
        <ele>459.1</ele>
        <time>2020-01-12T09:57:36Z</time>
      </trkpt>
      <trkpt lat="42.4115650" lon="-2.4653890">
        <ele>459.3</ele>
        <time>2020-01-12T09:57:37Z</time>
      </trkpt>
      <trkpt lat="42.4115850" lon="-2.4654670">
        <ele>459.6</ele>
        <time>2020-01-12T09:57:38Z</time>
      </trkpt>
      <trkpt lat="42.4116030" lon="-2.4655230">
        <ele>459.8</ele>
        <time>2020-01-12T09:57:39Z</time>
      </trkpt>
      <trkpt lat="42.4116190" lon="-2.4655930">
        <ele>460.0</ele>
        <time>2020-01-12T09:57:40Z</time>
      </trkpt>
      <trkpt lat="42.4116410" lon="-2.4656650">
        <ele>460.2</ele>
        <time>2020-01-12T09:57:41Z</time>
      </trkpt>
      <trkpt lat="42.4116100" lon="-2.4657120">
        <ele>460.4</ele>
        <time>2020-01-12T09:57:42Z</time>
      </trkpt>
      <trkpt lat="42.4115520" lon="-2.4658130">
        <ele>460.8</ele>
        <time>2020-01-12T09:57:43Z</time>
      </trkpt>
      <trkpt lat="42.4115170" lon="-2.4658750">
        <ele>460.9</ele>
        <time>2020-01-12T09:57:44Z</time>
      </trkpt>
      <trkpt lat="42.4114630" lon="-2.4659230">
        <ele>461.2</ele>
        <time>2020-01-12T09:57:45Z</time>
      </trkpt>
      <trkpt lat="42.4114050" lon="-2.4659490">
        <ele>461.4</ele>
        <time>2020-01-12T09:57:46Z</time>
      </trkpt>
      <trkpt lat="42.4113560" lon="-2.4659760">
        <ele>461.5</ele>
        <time>2020-01-12T09:57:47Z</time>
      </trkpt>
      <trkpt lat="42.4113040" lon="-2.4659770">
        <ele>461.7</ele>
        <time>2020-01-12T09:57:48Z</time>
      </trkpt>
      <trkpt lat="42.4112580" lon="-2.4659830">
        <ele>461.8</ele>
        <time>2020-01-12T09:57:49Z</time>
      </trkpt>
      <trkpt lat="42.4112050" lon="-2.4659640">
        <ele>461.9</ele>
        <time>2020-01-12T09:57:50Z</time>
      </trkpt>
      <trkpt lat="42.4111370" lon="-2.4659480">
        <ele>461.9</ele>
        <time>2020-01-12T09:57:51Z</time>
      </trkpt>
      <trkpt lat="42.4110710" lon="-2.4659420">
        <ele>461.8</ele>
        <time>2020-01-12T09:57:52Z</time>
      </trkpt>
      <trkpt lat="42.4109940" lon="-2.4659120">
        <ele>461.7</ele>
        <time>2020-01-12T09:57:53Z</time>
      </trkpt>
      <trkpt lat="42.4109150" lon="-2.4658800">
        <ele>461.6</ele>
        <time>2020-01-12T09:57:54Z</time>
      </trkpt>
      <trkpt lat="42.4108540" lon="-2.4658610">
        <ele>461.4</ele>
        <time>2020-01-12T09:57:55Z</time>
      </trkpt>
      <trkpt lat="42.4108060" lon="-2.4658790">
        <ele>461.3</ele>
        <time>2020-01-12T09:57:56Z</time>
      </trkpt>
      <trkpt lat="42.4107460" lon="-2.4658710">
        <ele>461.2</ele>
        <time>2020-01-12T09:57:57Z</time>
      </trkpt>
      <trkpt lat="42.4106940" lon="-2.4658780">
        <ele>461.2</ele>
        <time>2020-01-12T09:57:58Z</time>
      </trkpt>
      <trkpt lat="42.4106430" lon="-2.4658690">
        <ele>461.2</ele>
        <time>2020-01-12T09:57:59Z</time>
      </trkpt>
      <trkpt lat="42.4105810" lon="-2.4658620">
        <ele>461.2</ele>
        <time>2020-01-12T09:58:00Z</time>
      </trkpt>
      <trkpt lat="42.4105240" lon="-2.4658570">
        <ele>461.2</ele>
        <time>2020-01-12T09:58:01Z</time>
      </trkpt>
      <trkpt lat="42.4104750" lon="-2.4658540">
        <ele>461.2</ele>
        <time>2020-01-12T09:58:02Z</time>
      </trkpt>
      <trkpt lat="42.4104130" lon="-2.4658460">
        <ele>461.2</ele>
        <time>2020-01-12T09:58:03Z</time>
      </trkpt>
      <trkpt lat="42.4103480" lon="-2.4658330">
        <ele>461.2</ele>
        <time>2020-01-12T09:58:04Z</time>
      </trkpt>
      <trkpt lat="42.4102990" lon="-2.4658490">
        <ele>461.2</ele>
        <time>2020-01-12T09:58:05Z</time>
      </trkpt>
      <trkpt lat="42.4102440" lon="-2.4658510">
        <ele>461.3</ele>
        <time>2020-01-12T09:58:06Z</time>
      </trkpt>
      <trkpt lat="42.4101850" lon="-2.4658320">
        <ele>461.3</ele>
        <time>2020-01-12T09:58:07Z</time>
      </trkpt>
      <trkpt lat="42.4101310" lon="-2.4658370">
        <ele>461.3</ele>
        <time>2020-01-12T09:58:08Z</time>
      </trkpt>
      <trkpt lat="42.4100700" lon="-2.4658460">
        <ele>461.3</ele>
        <time>2020-01-12T09:58:09Z</time>
      </trkpt>
      <trkpt lat="42.4100170" lon="-2.4658430">
        <ele>461.3</ele>
        <time>2020-01-12T09:58:10Z</time>
      </trkpt>
      <trkpt lat="42.4099580" lon="-2.4658480">
        <ele>461.4</ele>
        <time>2020-01-12T09:58:11Z</time>
      </trkpt>
      <trkpt lat="42.4099130" lon="-2.4658740">
        <ele>461.4</ele>
        <time>2020-01-12T09:58:12Z</time>
      </trkpt>
      <trkpt lat="42.4098500" lon="-2.4658770">
        <ele>461.4</ele>
        <time>2020-01-12T09:58:13Z</time>
      </trkpt>
      <trkpt lat="42.4097960" lon="-2.4658830">
        <ele>461.4</ele>
        <time>2020-01-12T09:58:14Z</time>
      </trkpt>
      <trkpt lat="42.4097390" lon="-2.4658840">
        <ele>461.3</ele>
        <time>2020-01-12T09:58:15Z</time>
      </trkpt>
      <trkpt lat="42.4096870" lon="-2.4658990">
        <ele>461.3</ele>
        <time>2020-01-12T09:58:16Z</time>
      </trkpt>
      <trkpt lat="42.4096370" lon="-2.4659230">
        <ele>461.1</ele>
        <time>2020-01-12T09:58:17Z</time>
      </trkpt>
      <trkpt lat="42.4095860" lon="-2.4659430">
        <ele>461.0</ele>
        <time>2020-01-12T09:58:18Z</time>
      </trkpt>
      <trkpt lat="42.4095310" lon="-2.4659590">
        <ele>460.9</ele>
        <time>2020-01-12T09:58:19Z</time>
      </trkpt>
      <trkpt lat="42.4094740" lon="-2.4659850">
        <ele>460.8</ele>
        <time>2020-01-12T09:58:20Z</time>
      </trkpt>
      <trkpt lat="42.4094050" lon="-2.4659960">
        <ele>460.7</ele>
        <time>2020-01-12T09:58:21Z</time>
      </trkpt>
      <trkpt lat="42.4093400" lon="-2.4660200">
        <ele>460.7</ele>
        <time>2020-01-12T09:58:22Z</time>
      </trkpt>
      <trkpt lat="42.4092750" lon="-2.4660400">
        <ele>460.7</ele>
        <time>2020-01-12T09:58:23Z</time>
      </trkpt>
      <trkpt lat="42.4092130" lon="-2.4660620">
        <ele>460.7</ele>
        <time>2020-01-12T09:58:24Z</time>
      </trkpt>
      <trkpt lat="42.4091410" lon="-2.4660800">
        <ele>460.7</ele>
        <time>2020-01-12T09:58:25Z</time>
      </trkpt>
      <trkpt lat="42.4090870" lon="-2.4661270">
        <ele>460.7</ele>
        <time>2020-01-12T09:58:26Z</time>
      </trkpt>
      <trkpt lat="42.4090250" lon="-2.4661580">
        <ele>460.7</ele>
        <time>2020-01-12T09:58:27Z</time>
      </trkpt>
      <trkpt lat="42.4089650" lon="-2.4661800">
        <ele>460.7</ele>
        <time>2020-01-12T09:58:28Z</time>
      </trkpt>
      <trkpt lat="42.4089100" lon="-2.4662130">
        <ele>460.7</ele>
        <time>2020-01-12T09:58:29Z</time>
      </trkpt>
      <trkpt lat="42.4088440" lon="-2.4662300">
        <ele>460.6</ele>
        <time>2020-01-12T09:58:30Z</time>
      </trkpt>
      <trkpt lat="42.4087940" lon="-2.4662760">
        <ele>460.6</ele>
        <time>2020-01-12T09:58:31Z</time>
      </trkpt>
      <trkpt lat="42.4087440" lon="-2.4663200">
        <ele>460.4</ele>
        <time>2020-01-12T09:58:32Z</time>
      </trkpt>
      <trkpt lat="42.4086860" lon="-2.4663550">
        <ele>460.3</ele>
        <time>2020-01-12T09:58:33Z</time>
      </trkpt>
      <trkpt lat="42.4086320" lon="-2.4663880">
        <ele>460.1</ele>
        <time>2020-01-12T09:58:34Z</time>
      </trkpt>
      <trkpt lat="42.4085730" lon="-2.4664110">
        <ele>459.9</ele>
        <time>2020-01-12T09:58:35Z</time>
      </trkpt>
      <trkpt lat="42.4085250" lon="-2.4664470">
        <ele>459.9</ele>
        <time>2020-01-12T09:58:36Z</time>
      </trkpt>
      <trkpt lat="42.4084660" lon="-2.4664790">
        <ele>459.9</ele>
        <time>2020-01-12T09:58:37Z</time>
      </trkpt>
      <trkpt lat="42.4084140" lon="-2.4665040">
        <ele>460.0</ele>
        <time>2020-01-12T09:58:38Z</time>
      </trkpt>
      <trkpt lat="42.4083530" lon="-2.4665490">
        <ele>460.2</ele>
        <time>2020-01-12T09:58:39Z</time>
      </trkpt>
      <trkpt lat="42.4083100" lon="-2.4665720">
        <ele>460.4</ele>
        <time>2020-01-12T09:58:40Z</time>
      </trkpt>
      <trkpt lat="42.4082570" lon="-2.4666020">
        <ele>460.6</ele>
        <time>2020-01-12T09:58:41Z</time>
      </trkpt>
      <trkpt lat="42.4082030" lon="-2.4666350">
        <ele>460.6</ele>
        <time>2020-01-12T09:58:42Z</time>
      </trkpt>
      <trkpt lat="42.4081490" lon="-2.4666560">
        <ele>460.6</ele>
        <time>2020-01-12T09:58:43Z</time>
      </trkpt>
      <trkpt lat="42.4081120" lon="-2.4666830">
        <ele>460.5</ele>
        <time>2020-01-12T09:58:44Z</time>
      </trkpt>
      <trkpt lat="42.4080580" lon="-2.4667100">
        <ele>460.5</ele>
        <time>2020-01-12T09:58:45Z</time>
      </trkpt>
      <trkpt lat="42.4080100" lon="-2.4667310">
        <ele>460.5</ele>
        <time>2020-01-12T09:58:46Z</time>
      </trkpt>
      <trkpt lat="42.4079560" lon="-2.4667630">
        <ele>460.5</ele>
        <time>2020-01-12T09:58:47Z</time>
      </trkpt>
      <trkpt lat="42.4078970" lon="-2.4667950">
        <ele>460.5</ele>
        <time>2020-01-12T09:58:48Z</time>
      </trkpt>
      <trkpt lat="42.4078380" lon="-2.4668280">
        <ele>460.5</ele>
        <time>2020-01-12T09:58:49Z</time>
      </trkpt>
      <trkpt lat="42.4077840" lon="-2.4668600">
        <ele>460.5</ele>
        <time>2020-01-12T09:58:50Z</time>
      </trkpt>
      <trkpt lat="42.4077260" lon="-2.4668900">
        <ele>460.5</ele>
        <time>2020-01-12T09:58:51Z</time>
      </trkpt>
      <trkpt lat="42.4076660" lon="-2.4669300">
        <ele>460.4</ele>
        <time>2020-01-12T09:58:52Z</time>
      </trkpt>
      <trkpt lat="42.4076070" lon="-2.4669620">
        <ele>460.4</ele>
        <time>2020-01-12T09:58:53Z</time>
      </trkpt>
      <trkpt lat="42.4075540" lon="-2.4670050">
        <ele>460.4</ele>
        <time>2020-01-12T09:58:54Z</time>
      </trkpt>
      <trkpt lat="42.4074890" lon="-2.4670370">
        <ele>460.5</ele>
        <time>2020-01-12T09:58:55Z</time>
      </trkpt>
      <trkpt lat="42.4074360" lon="-2.4670640">
        <ele>460.5</ele>
        <time>2020-01-12T09:58:56Z</time>
      </trkpt>
      <trkpt lat="42.4073710" lon="-2.4670900">
        <ele>460.5</ele>
        <time>2020-01-12T09:58:57Z</time>
      </trkpt>
      <trkpt lat="42.4073120" lon="-2.4671070">
        <ele>460.6</ele>
        <time>2020-01-12T09:58:58Z</time>
      </trkpt>
      <trkpt lat="42.4072640" lon="-2.4671550">
        <ele>460.6</ele>
        <time>2020-01-12T09:58:59Z</time>
      </trkpt>
      <trkpt lat="42.4072050" lon="-2.4671710">
        <ele>460.7</ele>
        <time>2020-01-12T09:59:00Z</time>
      </trkpt>
      <trkpt lat="42.4071570" lon="-2.4671920">
        <ele>460.7</ele>
        <time>2020-01-12T09:59:01Z</time>
      </trkpt>
      <trkpt lat="42.4071030" lon="-2.4672350">
        <ele>460.8</ele>
        <time>2020-01-12T09:59:02Z</time>
      </trkpt>
      <trkpt lat="42.4070440" lon="-2.4672540">
        <ele>460.9</ele>
        <time>2020-01-12T09:59:03Z</time>
      </trkpt>
      <trkpt lat="42.4069820" lon="-2.4672830">
        <ele>460.9</ele>
        <time>2020-01-12T09:59:04Z</time>
      </trkpt>
      <trkpt lat="42.4069150" lon="-2.4673050">
        <ele>461.0</ele>
        <time>2020-01-12T09:59:05Z</time>
      </trkpt>
      <trkpt lat="42.4068560" lon="-2.4673320">
        <ele>461.1</ele>
        <time>2020-01-12T09:59:06Z</time>
      </trkpt>
      <trkpt lat="42.4067870" lon="-2.4673480">
        <ele>461.2</ele>
        <time>2020-01-12T09:59:07Z</time>
      </trkpt>
      <trkpt lat="42.4067140" lon="-2.4673570">
        <ele>461.3</ele>
        <time>2020-01-12T09:59:08Z</time>
      </trkpt>
      <trkpt lat="42.4066530" lon="-2.4673960">
        <ele>461.3</ele>
        <time>2020-01-12T09:59:09Z</time>
      </trkpt>
      <trkpt lat="42.4065950" lon="-2.4674270">
        <ele>461.4</ele>
        <time>2020-01-12T09:59:10Z</time>
      </trkpt>
      <trkpt lat="42.4065450" lon="-2.4674710">
        <ele>461.4</ele>
        <time>2020-01-12T09:59:11Z</time>
      </trkpt>
      <trkpt lat="42.4064860" lon="-2.4675090">
        <ele>461.3</ele>
        <time>2020-01-12T09:59:12Z</time>
      </trkpt>
      <trkpt lat="42.4064270" lon="-2.4675520">
        <ele>461.3</ele>
        <time>2020-01-12T09:59:13Z</time>
      </trkpt>
      <trkpt lat="42.4063630" lon="-2.4675810">
        <ele>461.2</ele>
        <time>2020-01-12T09:59:14Z</time>
      </trkpt>
      <trkpt lat="42.4063150" lon="-2.4676320">
        <ele>461.2</ele>
        <time>2020-01-12T09:59:15Z</time>
      </trkpt>
      <trkpt lat="42.4062470" lon="-2.4676610">
        <ele>461.1</ele>
        <time>2020-01-12T09:59:16Z</time>
      </trkpt>
      <trkpt lat="42.4061860" lon="-2.4676910">
        <ele>461.1</ele>
        <time>2020-01-12T09:59:17Z</time>
      </trkpt>
      <trkpt lat="42.4061330" lon="-2.4677330">
        <ele>461.0</ele>
        <time>2020-01-12T09:59:18Z</time>
      </trkpt>
      <trkpt lat="42.4060730" lon="-2.4677720">
        <ele>460.9</ele>
        <time>2020-01-12T09:59:19Z</time>
      </trkpt>
      <trkpt lat="42.4060250" lon="-2.4678150">
        <ele>460.9</ele>
        <time>2020-01-12T09:59:20Z</time>
      </trkpt>
      <trkpt lat="42.4059700" lon="-2.4678460">
        <ele>460.9</ele>
        <time>2020-01-12T09:59:21Z</time>
      </trkpt>
      <trkpt lat="42.4059130" lon="-2.4678820">
        <ele>460.9</ele>
        <time>2020-01-12T09:59:22Z</time>
      </trkpt>
      <trkpt lat="42.4058480" lon="-2.4679060">
        <ele>460.9</ele>
        <time>2020-01-12T09:59:23Z</time>
      </trkpt>
      <trkpt lat="42.4057890" lon="-2.4679460">
        <ele>460.9</ele>
        <time>2020-01-12T09:59:24Z</time>
      </trkpt>
      <trkpt lat="42.4057250" lon="-2.4679760">
        <ele>460.9</ele>
        <time>2020-01-12T09:59:25Z</time>
      </trkpt>
      <trkpt lat="42.4056560" lon="-2.4679910">
        <ele>460.9</ele>
        <time>2020-01-12T09:59:26Z</time>
      </trkpt>
      <trkpt lat="42.4056010" lon="-2.4680190">
        <ele>460.9</ele>
        <time>2020-01-12T09:59:27Z</time>
      </trkpt>
      <trkpt lat="42.4055360" lon="-2.4680490">
        <ele>460.8</ele>
        <time>2020-01-12T09:59:28Z</time>
      </trkpt>
      <trkpt lat="42.4054830" lon="-2.4680880">
        <ele>460.7</ele>
        <time>2020-01-12T09:59:29Z</time>
      </trkpt>
      <trkpt lat="42.4054250" lon="-2.4681150">
        <ele>460.6</ele>
        <time>2020-01-12T09:59:30Z</time>
      </trkpt>
      <trkpt lat="42.4053670" lon="-2.4681390">
        <ele>460.5</ele>
        <time>2020-01-12T09:59:31Z</time>
      </trkpt>
      <trkpt lat="42.4053080" lon="-2.4681680">
        <ele>460.4</ele>
        <time>2020-01-12T09:59:32Z</time>
      </trkpt>
      <trkpt lat="42.4052520" lon="-2.4681930">
        <ele>460.3</ele>
        <time>2020-01-12T09:59:33Z</time>
      </trkpt>
      <trkpt lat="42.4052000" lon="-2.4682370">
        <ele>460.2</ele>
        <time>2020-01-12T09:59:34Z</time>
      </trkpt>
      <trkpt lat="42.4051340" lon="-2.4682440">
        <ele>460.1</ele>
        <time>2020-01-12T09:59:35Z</time>
      </trkpt>
      <trkpt lat="42.4050700" lon="-2.4682620">
        <ele>460.0</ele>
        <time>2020-01-12T09:59:36Z</time>
      </trkpt>
      <trkpt lat="42.4050160" lon="-2.4683030">
        <ele>460.0</ele>
        <time>2020-01-12T09:59:37Z</time>
      </trkpt>
      <trkpt lat="42.4049660" lon="-2.4683370">
        <ele>460.0</ele>
        <time>2020-01-12T09:59:38Z</time>
      </trkpt>
      <trkpt lat="42.4048990" lon="-2.4683750">
        <ele>460.0</ele>
        <time>2020-01-12T09:59:39Z</time>
      </trkpt>
      <trkpt lat="42.4048390" lon="-2.4684320">
        <ele>460.0</ele>
        <time>2020-01-12T09:59:40Z</time>
      </trkpt>
      <trkpt lat="42.4047880" lon="-2.4684620">
        <ele>460.0</ele>
        <time>2020-01-12T09:59:41Z</time>
      </trkpt>
      <trkpt lat="42.4047320" lon="-2.4684960">
        <ele>460.0</ele>
        <time>2020-01-12T09:59:42Z</time>
      </trkpt>
      <trkpt lat="42.4046790" lon="-2.4685110">
        <ele>460.0</ele>
        <time>2020-01-12T09:59:43Z</time>
      </trkpt>
      <trkpt lat="42.4046190" lon="-2.4685280">
        <ele>460.0</ele>
        <time>2020-01-12T09:59:44Z</time>
      </trkpt>
      <trkpt lat="42.4045610" lon="-2.4685500">
        <ele>460.0</ele>
        <time>2020-01-12T09:59:45Z</time>
      </trkpt>
      <trkpt lat="42.4044990" lon="-2.4685740">
        <ele>460.0</ele>
        <time>2020-01-12T09:59:46Z</time>
      </trkpt>
      <trkpt lat="42.4044450" lon="-2.4686230">
        <ele>460.0</ele>
        <time>2020-01-12T09:59:47Z</time>
      </trkpt>
      <trkpt lat="42.4043830" lon="-2.4686550">
        <ele>460.0</ele>
        <time>2020-01-12T09:59:48Z</time>
      </trkpt>
      <trkpt lat="42.4043300" lon="-2.4686980">
        <ele>460.1</ele>
        <time>2020-01-12T09:59:49Z</time>
      </trkpt>
      <trkpt lat="42.4042760" lon="-2.4687320">
        <ele>460.1</ele>
        <time>2020-01-12T09:59:50Z</time>
      </trkpt>
      <trkpt lat="42.4042110" lon="-2.4687580">
        <ele>460.1</ele>
        <time>2020-01-12T09:59:51Z</time>
      </trkpt>
      <trkpt lat="42.4041480" lon="-2.4687820">
        <ele>460.1</ele>
        <time>2020-01-12T09:59:52Z</time>
      </trkpt>
      <trkpt lat="42.4040900" lon="-2.4688110">
        <ele>460.1</ele>
        <time>2020-01-12T09:59:53Z</time>
      </trkpt>
      <trkpt lat="42.4040400" lon="-2.4688500">
        <ele>460.1</ele>
        <time>2020-01-12T09:59:54Z</time>
      </trkpt>
      <trkpt lat="42.4039740" lon="-2.4688780">
        <ele>460.1</ele>
        <time>2020-01-12T09:59:55Z</time>
      </trkpt>
      <trkpt lat="42.4039110" lon="-2.4689250">
        <ele>460.1</ele>
        <time>2020-01-12T09:59:56Z</time>
      </trkpt>
      <trkpt lat="42.4038610" lon="-2.4689790">
        <ele>460.1</ele>
        <time>2020-01-12T09:59:57Z</time>
      </trkpt>
      <trkpt lat="42.4038020" lon="-2.4690120">
        <ele>460.1</ele>
        <time>2020-01-12T09:59:58Z</time>
      </trkpt>
      <trkpt lat="42.4037390" lon="-2.4690360">
        <ele>460.1</ele>
        <time>2020-01-12T09:59:59Z</time>
      </trkpt>
      <trkpt lat="42.4036780" lon="-2.4690750">
        <ele>460.1</ele>
        <time>2020-01-12T10:00:00Z</time>
      </trkpt>
      <trkpt lat="42.4036150" lon="-2.4691160">
        <ele>460.1</ele>
        <time>2020-01-12T10:00:01Z</time>
      </trkpt>
      <trkpt lat="42.4035520" lon="-2.4691240">
        <ele>460.1</ele>
        <time>2020-01-12T10:00:02Z</time>
      </trkpt>
      <trkpt lat="42.4034970" lon="-2.4691650">
        <ele>460.2</ele>
        <time>2020-01-12T10:00:03Z</time>
      </trkpt>
      <trkpt lat="42.4034350" lon="-2.4691860">
        <ele>460.2</ele>
        <time>2020-01-12T10:00:04Z</time>
      </trkpt>
      <trkpt lat="42.4033730" lon="-2.4692110">
        <ele>460.2</ele>
        <time>2020-01-12T10:00:05Z</time>
      </trkpt>
      <trkpt lat="42.4033100" lon="-2.4692560">
        <ele>460.2</ele>
        <time>2020-01-12T10:00:06Z</time>
      </trkpt>
      <trkpt lat="42.4032570" lon="-2.4692820">
        <ele>460.2</ele>
        <time>2020-01-12T10:00:07Z</time>
      </trkpt>
      <trkpt lat="42.4031990" lon="-2.4693180">
        <ele>460.2</ele>
        <time>2020-01-12T10:00:08Z</time>
      </trkpt>
      <trkpt lat="42.4031500" lon="-2.4693490">
        <ele>460.2</ele>
        <time>2020-01-12T10:00:09Z</time>
      </trkpt>
      <trkpt lat="42.4031010" lon="-2.4693740">
        <ele>460.2</ele>
        <time>2020-01-12T10:00:10Z</time>
      </trkpt>
      <trkpt lat="42.4030370" lon="-2.4694140">
        <ele>460.2</ele>
        <time>2020-01-12T10:00:11Z</time>
      </trkpt>
      <trkpt lat="42.4029610" lon="-2.4694400">
        <ele>460.3</ele>
        <time>2020-01-12T10:00:12Z</time>
      </trkpt>
      <trkpt lat="42.4028970" lon="-2.4694780">
        <ele>460.4</ele>
        <time>2020-01-12T10:00:13Z</time>
      </trkpt>
      <trkpt lat="42.4028450" lon="-2.4695320">
        <ele>460.5</ele>
        <time>2020-01-12T10:00:14Z</time>
      </trkpt>
      <trkpt lat="42.4028070" lon="-2.4695550">
        <ele>460.6</ele>
        <time>2020-01-12T10:00:15Z</time>
      </trkpt>
      <trkpt lat="42.4027500" lon="-2.4695560">
        <ele>460.8</ele>
        <time>2020-01-12T10:00:16Z</time>
      </trkpt>
      <trkpt lat="42.4026820" lon="-2.4695780">
        <ele>461.0</ele>
        <time>2020-01-12T10:00:17Z</time>
      </trkpt>
      <trkpt lat="42.4026240" lon="-2.4696060">
        <ele>461.1</ele>
        <time>2020-01-12T10:00:18Z</time>
      </trkpt>
      <trkpt lat="42.4025470" lon="-2.4696230">
        <ele>461.2</ele>
        <time>2020-01-12T10:00:19Z</time>
      </trkpt>
      <trkpt lat="42.4024890" lon="-2.4696500">
        <ele>461.2</ele>
        <time>2020-01-12T10:00:20Z</time>
      </trkpt>
      <trkpt lat="42.4024220" lon="-2.4696690">
        <ele>461.3</ele>
        <time>2020-01-12T10:00:21Z</time>
      </trkpt>
      <trkpt lat="42.4023760" lon="-2.4697050">
        <ele>461.3</ele>
        <time>2020-01-12T10:00:22Z</time>
      </trkpt>
      <trkpt lat="42.4022920" lon="-2.4696720">
        <ele>461.3</ele>
        <time>2020-01-12T10:00:23Z</time>
      </trkpt>
      <trkpt lat="42.4022590" lon="-2.4697410">
        <ele>461.3</ele>
        <time>2020-01-12T10:00:24Z</time>
      </trkpt>
      <trkpt lat="42.4022100" lon="-2.4697620">
        <ele>461.3</ele>
        <time>2020-01-12T10:00:25Z</time>
      </trkpt>
      <trkpt lat="42.4021520" lon="-2.4697910">
        <ele>461.3</ele>
        <time>2020-01-12T10:00:26Z</time>
      </trkpt>
      <trkpt lat="42.4021110" lon="-2.4698230">
        <ele>461.3</ele>
        <time>2020-01-12T10:00:27Z</time>
      </trkpt>
      <trkpt lat="42.4020390" lon="-2.4698370">
        <ele>461.3</ele>
        <time>2020-01-12T10:00:28Z</time>
      </trkpt>
      <trkpt lat="42.4019710" lon="-2.4698560">
        <ele>461.3</ele>
        <time>2020-01-12T10:00:29Z</time>
      </trkpt>
      <trkpt lat="42.4019290" lon="-2.4699220">
        <ele>461.3</ele>
        <time>2020-01-12T10:00:30Z</time>
      </trkpt>
      <trkpt lat="42.4018850" lon="-2.4699230">
        <ele>461.3</ele>
        <time>2020-01-12T10:00:31Z</time>
      </trkpt>
      <trkpt lat="42.4018320" lon="-2.4699910">
        <ele>461.3</ele>
        <time>2020-01-12T10:00:32Z</time>
      </trkpt>
      <trkpt lat="42.4017650" lon="-2.4700250">
        <ele>461.4</ele>
        <time>2020-01-12T10:00:33Z</time>
      </trkpt>
      <trkpt lat="42.4017170" lon="-2.4700530">
        <ele>461.4</ele>
        <time>2020-01-12T10:00:34Z</time>
      </trkpt>
      <trkpt lat="42.4016560" lon="-2.4700790">
        <ele>461.4</ele>
        <time>2020-01-12T10:00:35Z</time>
      </trkpt>
      <trkpt lat="42.4015940" lon="-2.4701210">
        <ele>461.4</ele>
        <time>2020-01-12T10:00:36Z</time>
      </trkpt>
      <trkpt lat="42.4015400" lon="-2.4701460">
        <ele>461.4</ele>
        <time>2020-01-12T10:00:37Z</time>
      </trkpt>
      <trkpt lat="42.4014830" lon="-2.4701660">
        <ele>461.5</ele>
        <time>2020-01-12T10:00:38Z</time>
      </trkpt>
      <trkpt lat="42.4014090" lon="-2.4701880">
        <ele>461.5</ele>
        <time>2020-01-12T10:00:39Z</time>
      </trkpt>
      <trkpt lat="42.4013440" lon="-2.4701820">
        <ele>461.6</ele>
        <time>2020-01-12T10:00:40Z</time>
      </trkpt>
      <trkpt lat="42.4012920" lon="-2.4701870">
        <ele>461.7</ele>
        <time>2020-01-12T10:00:41Z</time>
      </trkpt>
      <trkpt lat="42.4012360" lon="-2.4702360">
        <ele>461.8</ele>
        <time>2020-01-12T10:00:42Z</time>
      </trkpt>
      <trkpt lat="42.4011970" lon="-2.4702830">
        <ele>461.8</ele>
        <time>2020-01-12T10:00:43Z</time>
      </trkpt>
      <trkpt lat="42.4011470" lon="-2.4703170">
        <ele>461.9</ele>
        <time>2020-01-12T10:00:44Z</time>
      </trkpt>
      <trkpt lat="42.4010900" lon="-2.4703310">
        <ele>462.0</ele>
        <time>2020-01-12T10:00:45Z</time>
      </trkpt>
      <trkpt lat="42.4010350" lon="-2.4703730">
        <ele>462.0</ele>
        <time>2020-01-12T10:00:46Z</time>
      </trkpt>
      <trkpt lat="42.4009570" lon="-2.4703800">
        <ele>462.0</ele>
        <time>2020-01-12T10:00:47Z</time>
      </trkpt>
      <trkpt lat="42.4009020" lon="-2.4703950">
        <ele>462.1</ele>
        <time>2020-01-12T10:00:48Z</time>
      </trkpt>
      <trkpt lat="42.4008600" lon="-2.4704080">
        <ele>462.1</ele>
        <time>2020-01-12T10:00:49Z</time>
      </trkpt>
      <trkpt lat="42.4008160" lon="-2.4704650">
        <ele>462.2</ele>
        <time>2020-01-12T10:00:50Z</time>
      </trkpt>
      <trkpt lat="42.4007690" lon="-2.4705090">
        <ele>462.2</ele>
        <time>2020-01-12T10:00:51Z</time>
      </trkpt>
      <trkpt lat="42.4007200" lon="-2.4705450">
        <ele>462.3</ele>
        <time>2020-01-12T10:00:52Z</time>
      </trkpt>
      <trkpt lat="42.4006730" lon="-2.4705720">
        <ele>462.4</ele>
        <time>2020-01-12T10:00:53Z</time>
      </trkpt>
      <trkpt lat="42.4006220" lon="-2.4706090">
        <ele>462.5</ele>
        <time>2020-01-12T10:00:54Z</time>
      </trkpt>
      <trkpt lat="42.4005670" lon="-2.4706610">
        <ele>462.7</ele>
        <time>2020-01-12T10:00:55Z</time>
      </trkpt>
      <trkpt lat="42.4005290" lon="-2.4707240">
        <ele>462.8</ele>
        <time>2020-01-12T10:00:56Z</time>
      </trkpt>
      <trkpt lat="42.4004540" lon="-2.4707240">
        <ele>462.8</ele>
        <time>2020-01-12T10:00:57Z</time>
      </trkpt>
      <trkpt lat="42.4003980" lon="-2.4707520">
        <ele>462.9</ele>
        <time>2020-01-12T10:00:58Z</time>
      </trkpt>
      <trkpt lat="42.4003320" lon="-2.4707820">
        <ele>462.9</ele>
        <time>2020-01-12T10:00:59Z</time>
      </trkpt>
      <trkpt lat="42.4002720" lon="-2.4708140">
        <ele>462.9</ele>
        <time>2020-01-12T10:01:00Z</time>
      </trkpt>
      <trkpt lat="42.4002230" lon="-2.4708490">
        <ele>462.9</ele>
        <time>2020-01-12T10:01:01Z</time>
      </trkpt>
      <trkpt lat="42.4001670" lon="-2.4708720">
        <ele>462.9</ele>
        <time>2020-01-12T10:01:02Z</time>
      </trkpt>
      <trkpt lat="42.4001030" lon="-2.4709060">
        <ele>462.9</ele>
        <time>2020-01-12T10:01:03Z</time>
      </trkpt>
      <trkpt lat="42.4000530" lon="-2.4709480">
        <ele>463.0</ele>
        <time>2020-01-12T10:01:04Z</time>
      </trkpt>
      <trkpt lat="42.3999960" lon="-2.4709770">
        <ele>463.0</ele>
        <time>2020-01-12T10:01:05Z</time>
      </trkpt>
      <trkpt lat="42.3999300" lon="-2.4710040">
        <ele>463.0</ele>
        <time>2020-01-12T10:01:06Z</time>
      </trkpt>
      <trkpt lat="42.3998830" lon="-2.4710390">
        <ele>463.1</ele>
        <time>2020-01-12T10:01:07Z</time>
      </trkpt>
      <trkpt lat="42.3998200" lon="-2.4710570">
        <ele>463.1</ele>
        <time>2020-01-12T10:01:08Z</time>
      </trkpt>
      <trkpt lat="42.3997660" lon="-2.4710980">
        <ele>463.2</ele>
        <time>2020-01-12T10:01:09Z</time>
      </trkpt>
      <trkpt lat="42.3997160" lon="-2.4711190">
        <ele>463.3</ele>
        <time>2020-01-12T10:01:10Z</time>
      </trkpt>
      <trkpt lat="42.3996590" lon="-2.4711360">
        <ele>463.4</ele>
        <time>2020-01-12T10:01:11Z</time>
      </trkpt>
      <trkpt lat="42.3995980" lon="-2.4711670">
        <ele>463.5</ele>
        <time>2020-01-12T10:01:12Z</time>
      </trkpt>
      <trkpt lat="42.3995340" lon="-2.4711990">
        <ele>463.6</ele>
        <time>2020-01-12T10:01:13Z</time>
      </trkpt>
      <trkpt lat="42.3994750" lon="-2.4712230">
        <ele>463.6</ele>
        <time>2020-01-12T10:01:14Z</time>
      </trkpt>
      <trkpt lat="42.3994210" lon="-2.4712480">
        <ele>463.7</ele>
        <time>2020-01-12T10:01:15Z</time>
      </trkpt>
      <trkpt lat="42.3993750" lon="-2.4712810">
        <ele>463.7</ele>
        <time>2020-01-12T10:01:16Z</time>
      </trkpt>
      <trkpt lat="42.3993170" lon="-2.4713000">
        <ele>463.8</ele>
        <time>2020-01-12T10:01:17Z</time>
      </trkpt>
      <trkpt lat="42.3992730" lon="-2.4713250">
        <ele>463.8</ele>
        <time>2020-01-12T10:01:18Z</time>
      </trkpt>
      <trkpt lat="42.3992180" lon="-2.4713450">
        <ele>463.9</ele>
        <time>2020-01-12T10:01:19Z</time>
      </trkpt>
      <trkpt lat="42.3991690" lon="-2.4713800">
        <ele>463.9</ele>
        <time>2020-01-12T10:01:20Z</time>
      </trkpt>
      <trkpt lat="42.3991090" lon="-2.4714060">
        <ele>464.0</ele>
        <time>2020-01-12T10:01:21Z</time>
      </trkpt>
      <trkpt lat="42.3990510" lon="-2.4714530">
        <ele>464.3</ele>
        <time>2020-01-12T10:01:22Z</time>
      </trkpt>
      <trkpt lat="42.3989910" lon="-2.4714910">
        <ele>464.6</ele>
        <time>2020-01-12T10:01:23Z</time>
      </trkpt>
      <trkpt lat="42.3989280" lon="-2.4715120">
        <ele>464.9</ele>
        <time>2020-01-12T10:01:24Z</time>
      </trkpt>
      <trkpt lat="42.3988740" lon="-2.4715430">
        <ele>465.2</ele>
        <time>2020-01-12T10:01:25Z</time>
      </trkpt>
      <trkpt lat="42.3988180" lon="-2.4715790">
        <ele>465.4</ele>
        <time>2020-01-12T10:01:26Z</time>
      </trkpt>
      <trkpt lat="42.3987810" lon="-2.4716250">
        <ele>465.5</ele>
        <time>2020-01-12T10:01:27Z</time>
      </trkpt>
      <trkpt lat="42.3987240" lon="-2.4716560">
        <ele>465.7</ele>
        <time>2020-01-12T10:01:28Z</time>
      </trkpt>
      <trkpt lat="42.3986730" lon="-2.4716970">
        <ele>465.8</ele>
        <time>2020-01-12T10:01:29Z</time>
      </trkpt>
      <trkpt lat="42.3986180" lon="-2.4717240">
        <ele>465.8</ele>
        <time>2020-01-12T10:01:30Z</time>
      </trkpt>
      <trkpt lat="42.3985580" lon="-2.4717450">
        <ele>465.7</ele>
        <time>2020-01-12T10:01:31Z</time>
      </trkpt>
      <trkpt lat="42.3984990" lon="-2.4717810">
        <ele>465.6</ele>
        <time>2020-01-12T10:01:32Z</time>
      </trkpt>
      <trkpt lat="42.3984580" lon="-2.4718260">
        <ele>465.5</ele>
        <time>2020-01-12T10:01:33Z</time>
      </trkpt>
      <trkpt lat="42.3984070" lon="-2.4718550">
        <ele>465.4</ele>
        <time>2020-01-12T10:01:34Z</time>
      </trkpt>
      <trkpt lat="42.3983530" lon="-2.4718870">
        <ele>465.3</ele>
        <time>2020-01-12T10:01:35Z</time>
      </trkpt>
      <trkpt lat="42.3982930" lon="-2.4719170">
        <ele>465.2</ele>
        <time>2020-01-12T10:01:36Z</time>
      </trkpt>
      <trkpt lat="42.3982230" lon="-2.4719310">
        <ele>465.2</ele>
        <time>2020-01-12T10:01:37Z</time>
      </trkpt>
      <trkpt lat="42.3981590" lon="-2.4719530">
        <ele>465.2</ele>
        <time>2020-01-12T10:01:38Z</time>
      </trkpt>
      <trkpt lat="42.3981110" lon="-2.4719990">
        <ele>465.2</ele>
        <time>2020-01-12T10:01:39Z</time>
      </trkpt>
      <trkpt lat="42.3980590" lon="-2.4720220">
        <ele>465.2</ele>
        <time>2020-01-12T10:01:40Z</time>
      </trkpt>
      <trkpt lat="42.3980040" lon="-2.4720490">
        <ele>465.2</ele>
        <time>2020-01-12T10:01:41Z</time>
      </trkpt>
      <trkpt lat="42.3979400" lon="-2.4720740">
        <ele>465.2</ele>
        <time>2020-01-12T10:01:42Z</time>
      </trkpt>
      <trkpt lat="42.3978790" lon="-2.4720960">
        <ele>465.2</ele>
        <time>2020-01-12T10:01:43Z</time>
      </trkpt>
      <trkpt lat="42.3978160" lon="-2.4721100">
        <ele>465.2</ele>
        <time>2020-01-12T10:01:44Z</time>
      </trkpt>
      <trkpt lat="42.3977540" lon="-2.4721270">
        <ele>465.2</ele>
        <time>2020-01-12T10:01:45Z</time>
      </trkpt>
      <trkpt lat="42.3977030" lon="-2.4721610">
        <ele>465.2</ele>
        <time>2020-01-12T10:01:46Z</time>
      </trkpt>
      <trkpt lat="42.3976450" lon="-2.4721960">
        <ele>465.2</ele>
        <time>2020-01-12T10:01:47Z</time>
      </trkpt>
      <trkpt lat="42.3975840" lon="-2.4722200">
        <ele>465.2</ele>
        <time>2020-01-12T10:01:48Z</time>
      </trkpt>
      <trkpt lat="42.3975290" lon="-2.4722530">
        <ele>465.2</ele>
        <time>2020-01-12T10:01:49Z</time>
      </trkpt>
      <trkpt lat="42.3974740" lon="-2.4722830">
        <ele>465.3</ele>
        <time>2020-01-12T10:01:50Z</time>
      </trkpt>
      <trkpt lat="42.3974080" lon="-2.4723160">
        <ele>465.3</ele>
        <time>2020-01-12T10:01:51Z</time>
      </trkpt>
      <trkpt lat="42.3973520" lon="-2.4723580">
        <ele>465.3</ele>
        <time>2020-01-12T10:01:52Z</time>
      </trkpt>
      <trkpt lat="42.3972870" lon="-2.4723920">
        <ele>465.3</ele>
        <time>2020-01-12T10:01:53Z</time>
      </trkpt>
      <trkpt lat="42.3972170" lon="-2.4724010">
        <ele>465.3</ele>
        <time>2020-01-12T10:01:54Z</time>
      </trkpt>
      <trkpt lat="42.3971630" lon="-2.4724330">
        <ele>465.3</ele>
        <time>2020-01-12T10:01:55Z</time>
      </trkpt>
      <trkpt lat="42.3971130" lon="-2.4724720">
        <ele>465.3</ele>
        <time>2020-01-12T10:01:56Z</time>
      </trkpt>
      <trkpt lat="42.3970570" lon="-2.4725040">
        <ele>465.4</ele>
        <time>2020-01-12T10:01:57Z</time>
      </trkpt>
      <trkpt lat="42.3969980" lon="-2.4725350">
        <ele>465.5</ele>
        <time>2020-01-12T10:01:58Z</time>
      </trkpt>
      <trkpt lat="42.3969470" lon="-2.4725680">
        <ele>465.7</ele>
        <time>2020-01-12T10:01:59Z</time>
      </trkpt>
      <trkpt lat="42.3969000" lon="-2.4726100">
        <ele>465.8</ele>
        <time>2020-01-12T10:02:00Z</time>
      </trkpt>
      <trkpt lat="42.3968520" lon="-2.4726480">
        <ele>466.0</ele>
        <time>2020-01-12T10:02:01Z</time>
      </trkpt>
      <trkpt lat="42.3967960" lon="-2.4726920">
        <ele>466.1</ele>
        <time>2020-01-12T10:02:02Z</time>
      </trkpt>
      <trkpt lat="42.3967450" lon="-2.4727220">
        <ele>466.2</ele>
        <time>2020-01-12T10:02:03Z</time>
      </trkpt>
      <trkpt lat="42.3966870" lon="-2.4727660">
        <ele>466.3</ele>
        <time>2020-01-12T10:02:04Z</time>
      </trkpt>
      <trkpt lat="42.3966320" lon="-2.4727960">
        <ele>466.3</ele>
        <time>2020-01-12T10:02:05Z</time>
      </trkpt>
      <trkpt lat="42.3965730" lon="-2.4728300">
        <ele>466.3</ele>
        <time>2020-01-12T10:02:06Z</time>
      </trkpt>
      <trkpt lat="42.3965160" lon="-2.4728670">
        <ele>466.3</ele>
        <time>2020-01-12T10:02:07Z</time>
      </trkpt>
      <trkpt lat="42.3964620" lon="-2.4729040">
        <ele>466.3</ele>
        <time>2020-01-12T10:02:08Z</time>
      </trkpt>
      <trkpt lat="42.3964070" lon="-2.4729400">
        <ele>466.3</ele>
        <time>2020-01-12T10:02:09Z</time>
      </trkpt>
      <trkpt lat="42.3963530" lon="-2.4729750">
        <ele>466.4</ele>
        <time>2020-01-12T10:02:10Z</time>
      </trkpt>
      <trkpt lat="42.3962890" lon="-2.4729900">
        <ele>466.4</ele>
        <time>2020-01-12T10:02:11Z</time>
      </trkpt>
      <trkpt lat="42.3962350" lon="-2.4730180">
        <ele>466.5</ele>
        <time>2020-01-12T10:02:12Z</time>
      </trkpt>
      <trkpt lat="42.3961830" lon="-2.4730460">
        <ele>466.6</ele>
        <time>2020-01-12T10:02:13Z</time>
      </trkpt>
      <trkpt lat="42.3961290" lon="-2.4730780">
        <ele>466.8</ele>
        <time>2020-01-12T10:02:14Z</time>
      </trkpt>
      <trkpt lat="42.3960780" lon="-2.4731080">
        <ele>466.9</ele>
        <time>2020-01-12T10:02:15Z</time>
      </trkpt>
      <trkpt lat="42.3960210" lon="-2.4731370">
        <ele>467.1</ele>
        <time>2020-01-12T10:02:16Z</time>
      </trkpt>
      <trkpt lat="42.3959690" lon="-2.4731540">
        <ele>467.2</ele>
        <time>2020-01-12T10:02:17Z</time>
      </trkpt>
      <trkpt lat="42.3959100" lon="-2.4731800">
        <ele>467.3</ele>
        <time>2020-01-12T10:02:18Z</time>
      </trkpt>
      <trkpt lat="42.3958590" lon="-2.4732010">
        <ele>467.3</ele>
        <time>2020-01-12T10:02:19Z</time>
      </trkpt>
      <trkpt lat="42.3958090" lon="-2.4732150">
        <ele>467.4</ele>
        <time>2020-01-12T10:02:20Z</time>
      </trkpt>
      <trkpt lat="42.3957530" lon="-2.4732440">
        <ele>467.4</ele>
        <time>2020-01-12T10:02:21Z</time>
      </trkpt>
      <trkpt lat="42.3956980" lon="-2.4732700">
        <ele>467.5</ele>
        <time>2020-01-12T10:02:22Z</time>
      </trkpt>
      <trkpt lat="42.3956410" lon="-2.4733010">
        <ele>467.6</ele>
        <time>2020-01-12T10:02:23Z</time>
      </trkpt>
      <trkpt lat="42.3955850" lon="-2.4733360">
        <ele>467.7</ele>
        <time>2020-01-12T10:02:24Z</time>
      </trkpt>
      <trkpt lat="42.3955210" lon="-2.4733780">
        <ele>467.9</ele>
        <time>2020-01-12T10:02:25Z</time>
      </trkpt>
      <trkpt lat="42.3954620" lon="-2.4733960">
        <ele>468.1</ele>
        <time>2020-01-12T10:02:26Z</time>
      </trkpt>
      <trkpt lat="42.3954090" lon="-2.4734530">
        <ele>468.4</ele>
        <time>2020-01-12T10:02:27Z</time>
      </trkpt>
      <trkpt lat="42.3953620" lon="-2.4734750">
        <ele>468.6</ele>
        <time>2020-01-12T10:02:28Z</time>
      </trkpt>
      <trkpt lat="42.3952940" lon="-2.4735010">
        <ele>468.8</ele>
        <time>2020-01-12T10:02:29Z</time>
      </trkpt>
      <trkpt lat="42.3952290" lon="-2.4735220">
        <ele>469.1</ele>
        <time>2020-01-12T10:02:30Z</time>
      </trkpt>
      <trkpt lat="42.3951770" lon="-2.4735380">
        <ele>469.2</ele>
        <time>2020-01-12T10:02:31Z</time>
      </trkpt>
      <trkpt lat="42.3951190" lon="-2.4735710">
        <ele>469.3</ele>
        <time>2020-01-12T10:02:32Z</time>
      </trkpt>
      <trkpt lat="42.3950680" lon="-2.4736070">
        <ele>469.4</ele>
        <time>2020-01-12T10:02:33Z</time>
      </trkpt>
      <trkpt lat="42.3950100" lon="-2.4736430">
        <ele>469.4</ele>
        <time>2020-01-12T10:02:34Z</time>
      </trkpt>
      <trkpt lat="42.3949580" lon="-2.4736700">
        <ele>469.4</ele>
        <time>2020-01-12T10:02:35Z</time>
      </trkpt>
      <trkpt lat="42.3949040" lon="-2.4736890">
        <ele>469.5</ele>
        <time>2020-01-12T10:02:36Z</time>
      </trkpt>
      <trkpt lat="42.3948460" lon="-2.4737110">
        <ele>469.5</ele>
        <time>2020-01-12T10:02:37Z</time>
      </trkpt>
      <trkpt lat="42.3947910" lon="-2.4737390">
        <ele>469.6</ele>
        <time>2020-01-12T10:02:38Z</time>
      </trkpt>
      <trkpt lat="42.3947330" lon="-2.4737610">
        <ele>469.8</ele>
        <time>2020-01-12T10:02:39Z</time>
      </trkpt>
      <trkpt lat="42.3946860" lon="-2.4737960">
        <ele>469.9</ele>
        <time>2020-01-12T10:02:40Z</time>
      </trkpt>
      <trkpt lat="42.3946350" lon="-2.4738250">
        <ele>470.1</ele>
        <time>2020-01-12T10:02:41Z</time>
      </trkpt>
      <trkpt lat="42.3945850" lon="-2.4738580">
        <ele>470.2</ele>
        <time>2020-01-12T10:02:42Z</time>
      </trkpt>
      <trkpt lat="42.3945400" lon="-2.4738930">
        <ele>470.3</ele>
        <time>2020-01-12T10:02:43Z</time>
      </trkpt>
      <trkpt lat="42.3944790" lon="-2.4739310">
        <ele>470.4</ele>
        <time>2020-01-12T10:02:44Z</time>
      </trkpt>
      <trkpt lat="42.3944220" lon="-2.4739620">
        <ele>470.4</ele>
        <time>2020-01-12T10:02:45Z</time>
      </trkpt>
      <trkpt lat="42.3943590" lon="-2.4739990">
        <ele>470.5</ele>
        <time>2020-01-12T10:02:46Z</time>
      </trkpt>
      <trkpt lat="42.3943090" lon="-2.4740370">
        <ele>470.5</ele>
        <time>2020-01-12T10:02:47Z</time>
      </trkpt>
      <trkpt lat="42.3942550" lon="-2.4740700">
        <ele>470.5</ele>
        <time>2020-01-12T10:02:48Z</time>
      </trkpt>
      <trkpt lat="42.3942020" lon="-2.4740960">
        <ele>470.5</ele>
        <time>2020-01-12T10:02:49Z</time>
      </trkpt>
      <trkpt lat="42.3941530" lon="-2.4741200">
        <ele>470.5</ele>
        <time>2020-01-12T10:02:50Z</time>
      </trkpt>
      <trkpt lat="42.3941010" lon="-2.4741510">
        <ele>470.5</ele>
        <time>2020-01-12T10:02:51Z</time>
      </trkpt>
      <trkpt lat="42.3940500" lon="-2.4741750">
        <ele>470.5</ele>
        <time>2020-01-12T10:02:52Z</time>
      </trkpt>
      <trkpt lat="42.3940140" lon="-2.4742090">
        <ele>470.5</ele>
        <time>2020-01-12T10:02:53Z</time>
      </trkpt>
      <trkpt lat="42.3939620" lon="-2.4742340">
        <ele>470.4</ele>
        <time>2020-01-12T10:02:54Z</time>
      </trkpt>
      <trkpt lat="42.3939170" lon="-2.4742570">
        <ele>470.4</ele>
        <time>2020-01-12T10:02:55Z</time>
      </trkpt>
      <trkpt lat="42.3938690" lon="-2.4742730">
        <ele>470.4</ele>
        <time>2020-01-12T10:02:56Z</time>
      </trkpt>
      <trkpt lat="42.3938260" lon="-2.4742970">
        <ele>470.4</ele>
        <time>2020-01-12T10:02:57Z</time>
      </trkpt>
      <trkpt lat="42.3937730" lon="-2.4743220">
        <ele>470.4</ele>
        <time>2020-01-12T10:02:58Z</time>
      </trkpt>
      <trkpt lat="42.3937230" lon="-2.4743460">
        <ele>470.4</ele>
        <time>2020-01-12T10:02:59Z</time>
      </trkpt>
      <trkpt lat="42.3936740" lon="-2.4743690">
        <ele>470.4</ele>
        <time>2020-01-12T10:03:00Z</time>
      </trkpt>
      <trkpt lat="42.3936240" lon="-2.4743960">
        <ele>470.3</ele>
        <time>2020-01-12T10:03:01Z</time>
      </trkpt>
      <trkpt lat="42.3935690" lon="-2.4744290">
        <ele>470.3</ele>
        <time>2020-01-12T10:03:02Z</time>
      </trkpt>
      <trkpt lat="42.3935210" lon="-2.4744590">
        <ele>470.3</ele>
        <time>2020-01-12T10:03:03Z</time>
      </trkpt>
      <trkpt lat="42.3934670" lon="-2.4744860">
        <ele>470.2</ele>
        <time>2020-01-12T10:03:04Z</time>
      </trkpt>
      <trkpt lat="42.3934170" lon="-2.4745200">
        <ele>470.2</ele>
        <time>2020-01-12T10:03:05Z</time>
      </trkpt>
      <trkpt lat="42.3933600" lon="-2.4745610">
        <ele>470.1</ele>
        <time>2020-01-12T10:03:06Z</time>
      </trkpt>
      <trkpt lat="42.3932950" lon="-2.4745790">
        <ele>470.0</ele>
        <time>2020-01-12T10:03:07Z</time>
      </trkpt>
      <trkpt lat="42.3932400" lon="-2.4746100">
        <ele>470.0</ele>
        <time>2020-01-12T10:03:08Z</time>
      </trkpt>
      <trkpt lat="42.3931820" lon="-2.4746300">
        <ele>469.9</ele>
        <time>2020-01-12T10:03:09Z</time>
      </trkpt>
      <trkpt lat="42.3931240" lon="-2.4746440">
        <ele>469.8</ele>
        <time>2020-01-12T10:03:10Z</time>
      </trkpt>
      <trkpt lat="42.3930630" lon="-2.4746770">
        <ele>469.7</ele>
        <time>2020-01-12T10:03:11Z</time>
      </trkpt>
      <trkpt lat="42.3929990" lon="-2.4746910">
        <ele>469.6</ele>
        <time>2020-01-12T10:03:12Z</time>
      </trkpt>
      <trkpt lat="42.3929590" lon="-2.4747560">
        <ele>469.4</ele>
        <time>2020-01-12T10:03:13Z</time>
      </trkpt>
      <trkpt lat="42.3929230" lon="-2.4748200">
        <ele>469.2</ele>
        <time>2020-01-12T10:03:14Z</time>
      </trkpt>
      <trkpt lat="42.3928870" lon="-2.4748850">
        <ele>469.3</ele>
        <time>2020-01-12T10:03:15Z</time>
      </trkpt>
      <trkpt lat="42.3928510" lon="-2.4749330">
        <ele>469.3</ele>
        <time>2020-01-12T10:03:16Z</time>
      </trkpt>
      <trkpt lat="42.3928040" lon="-2.4749620">
        <ele>469.5</ele>
        <time>2020-01-12T10:03:17Z</time>
      </trkpt>
      <trkpt lat="42.3927550" lon="-2.4750100">
        <ele>469.6</ele>
        <time>2020-01-12T10:03:18Z</time>
      </trkpt>
      <trkpt lat="42.3927100" lon="-2.4750250">
        <ele>469.6</ele>
        <time>2020-01-12T10:03:19Z</time>
      </trkpt>
      <trkpt lat="42.3926520" lon="-2.4750530">
        <ele>469.7</ele>
        <time>2020-01-12T10:03:20Z</time>
      </trkpt>
      <trkpt lat="42.3925860" lon="-2.4750630">
        <ele>469.6</ele>
        <time>2020-01-12T10:03:21Z</time>
      </trkpt>
      <trkpt lat="42.3925270" lon="-2.4750580">
        <ele>469.6</ele>
        <time>2020-01-12T10:03:22Z</time>
      </trkpt>
      <trkpt lat="42.3924780" lon="-2.4750900">
        <ele>469.6</ele>
        <time>2020-01-12T10:03:23Z</time>
      </trkpt>
      <trkpt lat="42.3924110" lon="-2.4750890">
        <ele>469.7</ele>
        <time>2020-01-12T10:03:24Z</time>
      </trkpt>
      <trkpt lat="42.3923620" lon="-2.4751510">
        <ele>469.8</ele>
        <time>2020-01-12T10:03:25Z</time>
      </trkpt>
      <trkpt lat="42.3923040" lon="-2.4751610">
        <ele>469.9</ele>
        <time>2020-01-12T10:03:26Z</time>
      </trkpt>
      <trkpt lat="42.3922520" lon="-2.4751910">
        <ele>470.1</ele>
        <time>2020-01-12T10:03:27Z</time>
      </trkpt>
      <trkpt lat="42.3921920" lon="-2.4752080">
        <ele>470.2</ele>
        <time>2020-01-12T10:03:28Z</time>
      </trkpt>
      <trkpt lat="42.3921330" lon="-2.4752220">
        <ele>470.4</ele>
        <time>2020-01-12T10:03:29Z</time>
      </trkpt>
      <trkpt lat="42.3920770" lon="-2.4752470">
        <ele>470.6</ele>
        <time>2020-01-12T10:03:30Z</time>
      </trkpt>
      <trkpt lat="42.3920200" lon="-2.4752790">
        <ele>470.9</ele>
        <time>2020-01-12T10:03:31Z</time>
      </trkpt>
      <trkpt lat="42.3919650" lon="-2.4752990">
        <ele>471.1</ele>
        <time>2020-01-12T10:03:32Z</time>
      </trkpt>
      <trkpt lat="42.3919090" lon="-2.4753300">
        <ele>471.3</ele>
        <time>2020-01-12T10:03:33Z</time>
      </trkpt>
      <trkpt lat="42.3918530" lon="-2.4753510">
        <ele>471.4</ele>
        <time>2020-01-12T10:03:34Z</time>
      </trkpt>
      <trkpt lat="42.3917900" lon="-2.4753780">
        <ele>471.5</ele>
        <time>2020-01-12T10:03:35Z</time>
      </trkpt>
      <trkpt lat="42.3917330" lon="-2.4754030">
        <ele>471.6</ele>
        <time>2020-01-12T10:03:36Z</time>
      </trkpt>
      <trkpt lat="42.3916910" lon="-2.4754160">
        <ele>471.6</ele>
        <time>2020-01-12T10:03:37Z</time>
      </trkpt>
      <trkpt lat="42.3916290" lon="-2.4754450">
        <ele>471.7</ele>
        <time>2020-01-12T10:03:38Z</time>
      </trkpt>
      <trkpt lat="42.3915750" lon="-2.4754680">
        <ele>471.8</ele>
        <time>2020-01-12T10:03:39Z</time>
      </trkpt>
      <trkpt lat="42.3915110" lon="-2.4755000">
        <ele>472.0</ele>
        <time>2020-01-12T10:03:40Z</time>
      </trkpt>
      <trkpt lat="42.3914320" lon="-2.4754750">
        <ele>472.2</ele>
        <time>2020-01-12T10:03:41Z</time>
      </trkpt>
      <trkpt lat="42.3913850" lon="-2.4755720">
        <ele>472.3</ele>
        <time>2020-01-12T10:03:42Z</time>
      </trkpt>
      <trkpt lat="42.3913480" lon="-2.4756270">
        <ele>472.4</ele>
        <time>2020-01-12T10:03:43Z</time>
      </trkpt>
      <trkpt lat="42.3913050" lon="-2.4756740">
        <ele>472.5</ele>
        <time>2020-01-12T10:03:44Z</time>
      </trkpt>
      <trkpt lat="42.3912670" lon="-2.4756920">
        <ele>472.5</ele>
        <time>2020-01-12T10:03:45Z</time>
      </trkpt>
      <trkpt lat="42.3912190" lon="-2.4757330">
        <ele>472.5</ele>
        <time>2020-01-12T10:03:46Z</time>
      </trkpt>
      <trkpt lat="42.3911680" lon="-2.4757600">
        <ele>472.5</ele>
        <time>2020-01-12T10:03:47Z</time>
      </trkpt>
      <trkpt lat="42.3911250" lon="-2.4757940">
        <ele>472.5</ele>
        <time>2020-01-12T10:03:48Z</time>
      </trkpt>
      <trkpt lat="42.3910770" lon="-2.4758170">
        <ele>472.5</ele>
        <time>2020-01-12T10:03:49Z</time>
      </trkpt>
      <trkpt lat="42.3910320" lon="-2.4758370">
        <ele>472.5</ele>
        <time>2020-01-12T10:03:50Z</time>
      </trkpt>
      <trkpt lat="42.3909870" lon="-2.4758620">
        <ele>472.5</ele>
        <time>2020-01-12T10:03:51Z</time>
      </trkpt>
      <trkpt lat="42.3909400" lon="-2.4758830">
        <ele>472.5</ele>
        <time>2020-01-12T10:03:52Z</time>
      </trkpt>
      <trkpt lat="42.3908840" lon="-2.4759090">
        <ele>472.5</ele>
        <time>2020-01-12T10:03:53Z</time>
      </trkpt>
      <trkpt lat="42.3908260" lon="-2.4759290">
        <ele>472.5</ele>
        <time>2020-01-12T10:03:54Z</time>
      </trkpt>
      <trkpt lat="42.3907670" lon="-2.4759450">
        <ele>472.4</ele>
        <time>2020-01-12T10:03:55Z</time>
      </trkpt>
      <trkpt lat="42.3907040" lon="-2.4759630">
        <ele>472.4</ele>
        <time>2020-01-12T10:03:56Z</time>
      </trkpt>
      <trkpt lat="42.3906560" lon="-2.4759900">
        <ele>472.4</ele>
        <time>2020-01-12T10:03:57Z</time>
      </trkpt>
      <trkpt lat="42.3906070" lon="-2.4760250">
        <ele>472.4</ele>
        <time>2020-01-12T10:03:58Z</time>
      </trkpt>
      <trkpt lat="42.3905520" lon="-2.4760610">
        <ele>472.4</ele>
        <time>2020-01-12T10:03:59Z</time>
      </trkpt>
      <trkpt lat="42.3905080" lon="-2.4760810">
        <ele>472.4</ele>
        <time>2020-01-12T10:04:00Z</time>
      </trkpt>
      <trkpt lat="42.3904570" lon="-2.4761110">
        <ele>472.4</ele>
        <time>2020-01-12T10:04:01Z</time>
      </trkpt>
      <trkpt lat="42.3904090" lon="-2.4761300">
        <ele>472.4</ele>
        <time>2020-01-12T10:04:02Z</time>
      </trkpt>
      <trkpt lat="42.3903560" lon="-2.4761510">
        <ele>472.4</ele>
        <time>2020-01-12T10:04:03Z</time>
      </trkpt>
      <trkpt lat="42.3903060" lon="-2.4761820">
        <ele>472.5</ele>
        <time>2020-01-12T10:04:04Z</time>
      </trkpt>
      <trkpt lat="42.3902430" lon="-2.4761830">
        <ele>472.6</ele>
        <time>2020-01-12T10:04:05Z</time>
      </trkpt>
      <trkpt lat="42.3901930" lon="-2.4762200">
        <ele>472.7</ele>
        <time>2020-01-12T10:04:06Z</time>
      </trkpt>
      <trkpt lat="42.3901570" lon="-2.4762640">
        <ele>472.8</ele>
        <time>2020-01-12T10:04:07Z</time>
      </trkpt>
      <trkpt lat="42.3900970" lon="-2.4762960">
        <ele>473.0</ele>
        <time>2020-01-12T10:04:08Z</time>
      </trkpt>
      <trkpt lat="42.3900450" lon="-2.4763280">
        <ele>473.1</ele>
        <time>2020-01-12T10:04:09Z</time>
      </trkpt>
      <trkpt lat="42.3899880" lon="-2.4763450">
        <ele>473.3</ele>
        <time>2020-01-12T10:04:10Z</time>
      </trkpt>
      <trkpt lat="42.3899380" lon="-2.4763710">
        <ele>473.4</ele>
        <time>2020-01-12T10:04:11Z</time>
      </trkpt>
      <trkpt lat="42.3898960" lon="-2.4764000">
        <ele>473.5</ele>
        <time>2020-01-12T10:04:12Z</time>
      </trkpt>
      <trkpt lat="42.3898440" lon="-2.4764040">
        <ele>473.6</ele>
        <time>2020-01-12T10:04:13Z</time>
      </trkpt>
      <trkpt lat="42.3897900" lon="-2.4764350">
        <ele>473.7</ele>
        <time>2020-01-12T10:04:14Z</time>
      </trkpt>
      <trkpt lat="42.3897500" lon="-2.4764760">
        <ele>473.8</ele>
        <time>2020-01-12T10:04:15Z</time>
      </trkpt>
      <trkpt lat="42.3897130" lon="-2.4765260">
        <ele>473.9</ele>
        <time>2020-01-12T10:04:16Z</time>
      </trkpt>
      <trkpt lat="42.3896750" lon="-2.4765540">
        <ele>473.9</ele>
        <time>2020-01-12T10:04:17Z</time>
      </trkpt>
      <trkpt lat="42.3896100" lon="-2.4765630">
        <ele>474.1</ele>
        <time>2020-01-12T10:04:18Z</time>
      </trkpt>
      <trkpt lat="42.3895700" lon="-2.4766150">
        <ele>474.3</ele>
        <time>2020-01-12T10:04:19Z</time>
      </trkpt>
      <trkpt lat="42.3895200" lon="-2.4766450">
        <ele>474.4</ele>
        <time>2020-01-12T10:04:20Z</time>
      </trkpt>
      <trkpt lat="42.3894710" lon="-2.4766750">
        <ele>474.6</ele>
        <time>2020-01-12T10:04:21Z</time>
      </trkpt>
      <trkpt lat="42.3894100" lon="-2.4766970">
        <ele>474.8</ele>
        <time>2020-01-12T10:04:22Z</time>
      </trkpt>
      <trkpt lat="42.3893530" lon="-2.4767160">
        <ele>475.0</ele>
        <time>2020-01-12T10:04:23Z</time>
      </trkpt>
      <trkpt lat="42.3892950" lon="-2.4767380">
        <ele>475.2</ele>
        <time>2020-01-12T10:04:24Z</time>
      </trkpt>
      <trkpt lat="42.3892370" lon="-2.4767570">
        <ele>475.4</ele>
        <time>2020-01-12T10:04:25Z</time>
      </trkpt>
      <trkpt lat="42.3891840" lon="-2.4767840">
        <ele>475.6</ele>
        <time>2020-01-12T10:04:26Z</time>
      </trkpt>
      <trkpt lat="42.3891280" lon="-2.4768100">
        <ele>475.9</ele>
        <time>2020-01-12T10:04:27Z</time>
      </trkpt>
      <trkpt lat="42.3890700" lon="-2.4768260">
        <ele>476.1</ele>
        <time>2020-01-12T10:04:28Z</time>
      </trkpt>
      <trkpt lat="42.3890150" lon="-2.4768530">
        <ele>476.2</ele>
        <time>2020-01-12T10:04:29Z</time>
      </trkpt>
      <trkpt lat="42.3889620" lon="-2.4768790">
        <ele>476.2</ele>
        <time>2020-01-12T10:04:30Z</time>
      </trkpt>
      <trkpt lat="42.3889050" lon="-2.4768990">
        <ele>476.3</ele>
        <time>2020-01-12T10:04:31Z</time>
      </trkpt>
      <trkpt lat="42.3888550" lon="-2.4769230">
        <ele>476.4</ele>
        <time>2020-01-12T10:04:32Z</time>
      </trkpt>
      <trkpt lat="42.3888030" lon="-2.4769440">
        <ele>476.5</ele>
        <time>2020-01-12T10:04:33Z</time>
      </trkpt>
      <trkpt lat="42.3887510" lon="-2.4769680">
        <ele>476.6</ele>
        <time>2020-01-12T10:04:34Z</time>
      </trkpt>
      <trkpt lat="42.3886980" lon="-2.4769910">
        <ele>476.8</ele>
        <time>2020-01-12T10:04:35Z</time>
      </trkpt>
      <trkpt lat="42.3886360" lon="-2.4770040">
        <ele>477.0</ele>
        <time>2020-01-12T10:04:36Z</time>
      </trkpt>
      <trkpt lat="42.3885800" lon="-2.4770240">
        <ele>477.2</ele>
        <time>2020-01-12T10:04:37Z</time>
      </trkpt>
      <trkpt lat="42.3885340" lon="-2.4770610">
        <ele>477.4</ele>
        <time>2020-01-12T10:04:38Z</time>
      </trkpt>
      <trkpt lat="42.3884950" lon="-2.4770970">
        <ele>477.5</ele>
        <time>2020-01-12T10:04:39Z</time>
      </trkpt>
      <trkpt lat="42.3884490" lon="-2.4771220">
        <ele>477.6</ele>
        <time>2020-01-12T10:04:40Z</time>
      </trkpt>
      <trkpt lat="42.3884040" lon="-2.4771390">
        <ele>477.8</ele>
        <time>2020-01-12T10:04:41Z</time>
      </trkpt>
      <trkpt lat="42.3883600" lon="-2.4771640">
        <ele>477.9</ele>
        <time>2020-01-12T10:04:42Z</time>
      </trkpt>
      <trkpt lat="42.3883100" lon="-2.4771830">
        <ele>477.9</ele>
        <time>2020-01-12T10:04:43Z</time>
      </trkpt>
      <trkpt lat="42.3882570" lon="-2.4772010">
        <ele>478.0</ele>
        <time>2020-01-12T10:04:44Z</time>
      </trkpt>
      <trkpt lat="42.3882070" lon="-2.4772250">
        <ele>478.0</ele>
        <time>2020-01-12T10:04:45Z</time>
      </trkpt>
      <trkpt lat="42.3881560" lon="-2.4772520">
        <ele>478.0</ele>
        <time>2020-01-12T10:04:46Z</time>
      </trkpt>
      <trkpt lat="42.3881060" lon="-2.4772720">
        <ele>478.1</ele>
        <time>2020-01-12T10:04:47Z</time>
      </trkpt>
      <trkpt lat="42.3880590" lon="-2.4772990">
        <ele>478.1</ele>
        <time>2020-01-12T10:04:48Z</time>
      </trkpt>
      <trkpt lat="42.3880060" lon="-2.4773200">
        <ele>478.1</ele>
        <time>2020-01-12T10:04:49Z</time>
      </trkpt>
      <trkpt lat="42.3879510" lon="-2.4773480">
        <ele>478.1</ele>
        <time>2020-01-12T10:04:50Z</time>
      </trkpt>
      <trkpt lat="42.3879050" lon="-2.4773780">
        <ele>478.2</ele>
        <time>2020-01-12T10:04:51Z</time>
      </trkpt>
      <trkpt lat="42.3878530" lon="-2.4774040">
        <ele>478.2</ele>
        <time>2020-01-12T10:04:52Z</time>
      </trkpt>
      <trkpt lat="42.3878040" lon="-2.4774360">
        <ele>478.3</ele>
        <time>2020-01-12T10:04:53Z</time>
      </trkpt>
      <trkpt lat="42.3877490" lon="-2.4774580">
        <ele>478.4</ele>
        <time>2020-01-12T10:04:54Z</time>
      </trkpt>
      <trkpt lat="42.3876940" lon="-2.4774910">
        <ele>478.5</ele>
        <time>2020-01-12T10:04:55Z</time>
      </trkpt>
      <trkpt lat="42.3876460" lon="-2.4775200">
        <ele>478.6</ele>
        <time>2020-01-12T10:04:56Z</time>
      </trkpt>
      <trkpt lat="42.3875960" lon="-2.4775520">
        <ele>478.7</ele>
        <time>2020-01-12T10:04:57Z</time>
      </trkpt>
      <trkpt lat="42.3875480" lon="-2.4775910">
        <ele>478.8</ele>
        <time>2020-01-12T10:04:58Z</time>
      </trkpt>
      <trkpt lat="42.3875020" lon="-2.4776210">
        <ele>478.8</ele>
        <time>2020-01-12T10:04:59Z</time>
      </trkpt>
      <trkpt lat="42.3874560" lon="-2.4776490">
        <ele>478.9</ele>
        <time>2020-01-12T10:05:00Z</time>
      </trkpt>
      <trkpt lat="42.3873990" lon="-2.4776710">
        <ele>479.0</ele>
        <time>2020-01-12T10:05:01Z</time>
      </trkpt>
      <trkpt lat="42.3873470" lon="-2.4776920">
        <ele>479.1</ele>
        <time>2020-01-12T10:05:02Z</time>
      </trkpt>
      <trkpt lat="42.3873110" lon="-2.4777270">
        <ele>479.1</ele>
        <time>2020-01-12T10:05:03Z</time>
      </trkpt>
      <trkpt lat="42.3872630" lon="-2.4777550">
        <ele>479.2</ele>
        <time>2020-01-12T10:05:04Z</time>
      </trkpt>
      <trkpt lat="42.3872170" lon="-2.4777870">
        <ele>479.3</ele>
        <time>2020-01-12T10:05:05Z</time>
      </trkpt>
      <trkpt lat="42.3871640" lon="-2.4778090">
        <ele>479.5</ele>
        <time>2020-01-12T10:05:06Z</time>
      </trkpt>
      <trkpt lat="42.3871140" lon="-2.4778500">
        <ele>479.6</ele>
        <time>2020-01-12T10:05:07Z</time>
      </trkpt>
      <trkpt lat="42.3870530" lon="-2.4778700">
        <ele>479.7</ele>
        <time>2020-01-12T10:05:08Z</time>
      </trkpt>
      <trkpt lat="42.3870040" lon="-2.4779030">
        <ele>479.9</ele>
        <time>2020-01-12T10:05:09Z</time>
      </trkpt>
      <trkpt lat="42.3869560" lon="-2.4779400">
        <ele>480.0</ele>
        <time>2020-01-12T10:05:10Z</time>
      </trkpt>
      <trkpt lat="42.3868980" lon="-2.4779730">
        <ele>480.2</ele>
        <time>2020-01-12T10:05:11Z</time>
      </trkpt>
      <trkpt lat="42.3868340" lon="-2.4779930">
        <ele>480.3</ele>
        <time>2020-01-12T10:05:12Z</time>
      </trkpt>
      <trkpt lat="42.3867720" lon="-2.4780230">
        <ele>480.5</ele>
        <time>2020-01-12T10:05:13Z</time>
      </trkpt>
      <trkpt lat="42.3867200" lon="-2.4780610">
        <ele>480.6</ele>
        <time>2020-01-12T10:05:14Z</time>
      </trkpt>
      <trkpt lat="42.3866700" lon="-2.4780930">
        <ele>480.7</ele>
        <time>2020-01-12T10:05:15Z</time>
      </trkpt>
      <trkpt lat="42.3866190" lon="-2.4781140">
        <ele>480.8</ele>
        <time>2020-01-12T10:05:16Z</time>
      </trkpt>
      <trkpt lat="42.3865720" lon="-2.4781180">
        <ele>480.8</ele>
        <time>2020-01-12T10:05:17Z</time>
      </trkpt>
      <trkpt lat="42.3865100" lon="-2.4781360">
        <ele>480.9</ele>
        <time>2020-01-12T10:05:18Z</time>
      </trkpt>
      <trkpt lat="42.3864770" lon="-2.4782060">
        <ele>480.9</ele>
        <time>2020-01-12T10:05:19Z</time>
      </trkpt>
      <trkpt lat="42.3864270" lon="-2.4782520">
        <ele>481.0</ele>
        <time>2020-01-12T10:05:20Z</time>
      </trkpt>
      <trkpt lat="42.3863800" lon="-2.4782810">
        <ele>481.0</ele>
        <time>2020-01-12T10:05:21Z</time>
      </trkpt>
      <trkpt lat="42.3863190" lon="-2.4782970">
        <ele>481.0</ele>
        <time>2020-01-12T10:05:22Z</time>
      </trkpt>
      <trkpt lat="42.3862510" lon="-2.4783130">
        <ele>481.1</ele>
        <time>2020-01-12T10:05:23Z</time>
      </trkpt>
      <trkpt lat="42.3861810" lon="-2.4783320">
        <ele>481.2</ele>
        <time>2020-01-12T10:05:24Z</time>
      </trkpt>
      <trkpt lat="42.3861360" lon="-2.4783600">
        <ele>481.2</ele>
        <time>2020-01-12T10:05:25Z</time>
      </trkpt>
      <trkpt lat="42.3860850" lon="-2.4783880">
        <ele>481.3</ele>
        <time>2020-01-12T10:05:26Z</time>
      </trkpt>
      <trkpt lat="42.3860160" lon="-2.4784000">
        <ele>481.4</ele>
        <time>2020-01-12T10:05:27Z</time>
      </trkpt>
      <trkpt lat="42.3859610" lon="-2.4784330">
        <ele>481.5</ele>
        <time>2020-01-12T10:05:28Z</time>
      </trkpt>
      <trkpt lat="42.3859150" lon="-2.4784740">
        <ele>481.6</ele>
        <time>2020-01-12T10:05:29Z</time>
      </trkpt>
      <trkpt lat="42.3858600" lon="-2.4785010">
        <ele>481.7</ele>
        <time>2020-01-12T10:05:30Z</time>
      </trkpt>
      <trkpt lat="42.3857990" lon="-2.4785270">
        <ele>481.7</ele>
        <time>2020-01-12T10:05:31Z</time>
      </trkpt>
      <trkpt lat="42.3857420" lon="-2.4785540">
        <ele>481.8</ele>
        <time>2020-01-12T10:05:32Z</time>
      </trkpt>
      <trkpt lat="42.3856800" lon="-2.4785910">
        <ele>481.8</ele>
        <time>2020-01-12T10:05:33Z</time>
      </trkpt>
      <trkpt lat="42.3856230" lon="-2.4786240">
        <ele>481.9</ele>
        <time>2020-01-12T10:05:34Z</time>
      </trkpt>
      <trkpt lat="42.3855590" lon="-2.4786420">
        <ele>481.9</ele>
        <time>2020-01-12T10:05:35Z</time>
      </trkpt>
      <trkpt lat="42.3855170" lon="-2.4786880">
        <ele>481.9</ele>
        <time>2020-01-12T10:05:36Z</time>
      </trkpt>
      <trkpt lat="42.3854630" lon="-2.4787210">
        <ele>482.0</ele>
        <time>2020-01-12T10:05:37Z</time>
      </trkpt>
      <trkpt lat="42.3854110" lon="-2.4787490">
        <ele>482.0</ele>
        <time>2020-01-12T10:05:38Z</time>
      </trkpt>
      <trkpt lat="42.3853530" lon="-2.4787780">
        <ele>482.1</ele>
        <time>2020-01-12T10:05:39Z</time>
      </trkpt>
      <trkpt lat="42.3853010" lon="-2.4788140">
        <ele>482.2</ele>
        <time>2020-01-12T10:05:40Z</time>
      </trkpt>
      <trkpt lat="42.3852500" lon="-2.4788530">
        <ele>482.3</ele>
        <time>2020-01-12T10:05:41Z</time>
      </trkpt>
      <trkpt lat="42.3851970" lon="-2.4788840">
        <ele>482.4</ele>
        <time>2020-01-12T10:05:42Z</time>
      </trkpt>
      <trkpt lat="42.3851310" lon="-2.4788980">
        <ele>482.5</ele>
        <time>2020-01-12T10:05:43Z</time>
      </trkpt>
      <trkpt lat="42.3850780" lon="-2.4789330">
        <ele>482.5</ele>
        <time>2020-01-12T10:05:44Z</time>
      </trkpt>
      <trkpt lat="42.3850320" lon="-2.4789800">
        <ele>482.6</ele>
        <time>2020-01-12T10:05:45Z</time>
      </trkpt>
      <trkpt lat="42.3849710" lon="-2.4789990">
        <ele>482.7</ele>
        <time>2020-01-12T10:05:46Z</time>
      </trkpt>
      <trkpt lat="42.3849130" lon="-2.4790170">
        <ele>482.8</ele>
        <time>2020-01-12T10:05:47Z</time>
      </trkpt>
      <trkpt lat="42.3848590" lon="-2.4790470">
        <ele>482.8</ele>
        <time>2020-01-12T10:05:48Z</time>
      </trkpt>
      <trkpt lat="42.3847980" lon="-2.4790750">
        <ele>482.8</ele>
        <time>2020-01-12T10:05:49Z</time>
      </trkpt>
      <trkpt lat="42.3847470" lon="-2.4791100">
        <ele>482.9</ele>
        <time>2020-01-12T10:05:50Z</time>
      </trkpt>
      <trkpt lat="42.3846930" lon="-2.4791380">
        <ele>482.9</ele>
        <time>2020-01-12T10:05:51Z</time>
      </trkpt>
      <trkpt lat="42.3846340" lon="-2.4791590">
        <ele>482.9</ele>
        <time>2020-01-12T10:05:52Z</time>
      </trkpt>
      <trkpt lat="42.3845660" lon="-2.4791700">
        <ele>482.9</ele>
        <time>2020-01-12T10:05:53Z</time>
      </trkpt>
      <trkpt lat="42.3844930" lon="-2.4791730">
        <ele>483.0</ele>
        <time>2020-01-12T10:05:54Z</time>
      </trkpt>
      <trkpt lat="42.3844430" lon="-2.4792060">
        <ele>483.0</ele>
        <time>2020-01-12T10:05:55Z</time>
      </trkpt>
      <trkpt lat="42.3843690" lon="-2.4792140">
        <ele>483.1</ele>
        <time>2020-01-12T10:05:56Z</time>
      </trkpt>
      <trkpt lat="42.3843170" lon="-2.4792490">
        <ele>483.2</ele>
        <time>2020-01-12T10:05:57Z</time>
      </trkpt>
      <trkpt lat="42.3842560" lon="-2.4792640">
        <ele>483.3</ele>
        <time>2020-01-12T10:05:58Z</time>
      </trkpt>
      <trkpt lat="42.3842130" lon="-2.4793110">
        <ele>483.4</ele>
        <time>2020-01-12T10:05:59Z</time>
      </trkpt>
      <trkpt lat="42.3841650" lon="-2.4793480">
        <ele>483.4</ele>
        <time>2020-01-12T10:06:00Z</time>
      </trkpt>
      <trkpt lat="42.3841220" lon="-2.4793800">
        <ele>483.5</ele>
        <time>2020-01-12T10:06:01Z</time>
      </trkpt>
      <trkpt lat="42.3840950" lon="-2.4794270">
        <ele>483.6</ele>
        <time>2020-01-12T10:06:02Z</time>
      </trkpt>
      <trkpt lat="42.3840460" lon="-2.4794450">
        <ele>483.6</ele>
        <time>2020-01-12T10:06:03Z</time>
      </trkpt>
      <trkpt lat="42.3839990" lon="-2.4794720">
        <ele>483.7</ele>
        <time>2020-01-12T10:06:04Z</time>
      </trkpt>
      <trkpt lat="42.3839530" lon="-2.4794940">
        <ele>483.7</ele>
        <time>2020-01-12T10:06:05Z</time>
      </trkpt>
      <trkpt lat="42.3839180" lon="-2.4795200">
        <ele>483.8</ele>
        <time>2020-01-12T10:06:06Z</time>
      </trkpt>
      <trkpt lat="42.3838880" lon="-2.4795390">
        <ele>483.8</ele>
        <time>2020-01-12T10:06:07Z</time>
      </trkpt>
      <trkpt lat="42.3838380" lon="-2.4795630">
        <ele>483.8</ele>
        <time>2020-01-12T10:06:09Z</time>
      </trkpt>
      <trkpt lat="42.3838230" lon="-2.4796010">
        <ele>483.8</ele>
        <time>2020-01-12T10:07:37Z</time>
      </trkpt>
      <trkpt lat="42.3837860" lon="-2.4796180">
        <ele>483.8</ele>
        <time>2020-01-12T10:07:39Z</time>
      </trkpt>
      <trkpt lat="42.3837560" lon="-2.4796430">
        <ele>483.8</ele>
        <time>2020-01-12T10:07:40Z</time>
      </trkpt>
      <trkpt lat="42.3837200" lon="-2.4796550">
        <ele>483.8</ele>
        <time>2020-01-12T10:07:41Z</time>
      </trkpt>
      <trkpt lat="42.3836800" lon="-2.4796880">
        <ele>483.8</ele>
        <time>2020-01-12T10:07:42Z</time>
      </trkpt>
      <trkpt lat="42.3836420" lon="-2.4797190">
        <ele>483.8</ele>
        <time>2020-01-12T10:07:43Z</time>
      </trkpt>
      <trkpt lat="42.3836020" lon="-2.4797500">
        <ele>483.8</ele>
        <time>2020-01-12T10:07:44Z</time>
      </trkpt>
      <trkpt lat="42.3835490" lon="-2.4797680">
        <ele>483.9</ele>
        <time>2020-01-12T10:07:45Z</time>
      </trkpt>
      <trkpt lat="42.3835030" lon="-2.4797750">
        <ele>483.9</ele>
        <time>2020-01-12T10:07:46Z</time>
      </trkpt>
      <trkpt lat="42.3834660" lon="-2.4798270">
        <ele>483.9</ele>
        <time>2020-01-12T10:07:47Z</time>
      </trkpt>
      <trkpt lat="42.3834110" lon="-2.4798360">
        <ele>484.0</ele>
        <time>2020-01-12T10:07:48Z</time>
      </trkpt>
      <trkpt lat="42.3833490" lon="-2.4798550">
        <ele>484.1</ele>
        <time>2020-01-12T10:07:49Z</time>
      </trkpt>
      <trkpt lat="42.3832990" lon="-2.4798860">
        <ele>484.3</ele>
        <time>2020-01-12T10:07:50Z</time>
      </trkpt>
      <trkpt lat="42.3832510" lon="-2.4799120">
        <ele>484.4</ele>
        <time>2020-01-12T10:07:51Z</time>
      </trkpt>
      <trkpt lat="42.3831940" lon="-2.4799460">
        <ele>484.6</ele>
        <time>2020-01-12T10:07:52Z</time>
      </trkpt>
      <trkpt lat="42.3831360" lon="-2.4799730">
        <ele>484.7</ele>
        <time>2020-01-12T10:07:53Z</time>
      </trkpt>
      <trkpt lat="42.3830770" lon="-2.4799990">
        <ele>484.8</ele>
        <time>2020-01-12T10:07:54Z</time>
      </trkpt>
      <trkpt lat="42.3830210" lon="-2.4800350">
        <ele>484.8</ele>
        <time>2020-01-12T10:07:55Z</time>
      </trkpt>
      <trkpt lat="42.3829660" lon="-2.4800620">
        <ele>484.9</ele>
        <time>2020-01-12T10:07:56Z</time>
      </trkpt>
      <trkpt lat="42.3829170" lon="-2.4800940">
        <ele>484.9</ele>
        <time>2020-01-12T10:07:57Z</time>
      </trkpt>
      <trkpt lat="42.3828570" lon="-2.4801250">
        <ele>485.0</ele>
        <time>2020-01-12T10:07:58Z</time>
      </trkpt>
      <trkpt lat="42.3828060" lon="-2.4801580">
        <ele>485.0</ele>
        <time>2020-01-12T10:07:59Z</time>
      </trkpt>
      <trkpt lat="42.3827530" lon="-2.4801910">
        <ele>485.1</ele>
        <time>2020-01-12T10:08:00Z</time>
      </trkpt>
      <trkpt lat="42.3826900" lon="-2.4802100">
        <ele>485.3</ele>
        <time>2020-01-12T10:08:01Z</time>
      </trkpt>
      <trkpt lat="42.3826280" lon="-2.4802380">
        <ele>485.5</ele>
        <time>2020-01-12T10:08:02Z</time>
      </trkpt>
      <trkpt lat="42.3825740" lon="-2.4802630">
        <ele>485.6</ele>
        <time>2020-01-12T10:08:03Z</time>
      </trkpt>
      <trkpt lat="42.3825170" lon="-2.4802970">
        <ele>485.8</ele>
        <time>2020-01-12T10:08:04Z</time>
      </trkpt>
      <trkpt lat="42.3824530" lon="-2.4803220">
        <ele>485.9</ele>
        <time>2020-01-12T10:08:05Z</time>
      </trkpt>
      <trkpt lat="42.3823940" lon="-2.4803440">
        <ele>485.9</ele>
        <time>2020-01-12T10:08:06Z</time>
      </trkpt>
      <trkpt lat="42.3823420" lon="-2.4803790">
        <ele>486.0</ele>
        <time>2020-01-12T10:08:07Z</time>
      </trkpt>
      <trkpt lat="42.3822860" lon="-2.4803990">
        <ele>486.1</ele>
        <time>2020-01-12T10:08:08Z</time>
      </trkpt>
      <trkpt lat="42.3822270" lon="-2.4804240">
        <ele>486.2</ele>
        <time>2020-01-12T10:08:09Z</time>
      </trkpt>
      <trkpt lat="42.3821670" lon="-2.4804470">
        <ele>486.4</ele>
        <time>2020-01-12T10:08:10Z</time>
      </trkpt>
      <trkpt lat="42.3821150" lon="-2.4804680">
        <ele>486.5</ele>
        <time>2020-01-12T10:08:11Z</time>
      </trkpt>
      <trkpt lat="42.3820620" lon="-2.4804950">
        <ele>486.7</ele>
        <time>2020-01-12T10:08:12Z</time>
      </trkpt>
      <trkpt lat="42.3820050" lon="-2.4805160">
        <ele>486.8</ele>
        <time>2020-01-12T10:08:13Z</time>
      </trkpt>
      <trkpt lat="42.3819420" lon="-2.4805450">
        <ele>486.9</ele>
        <time>2020-01-12T10:08:14Z</time>
      </trkpt>
      <trkpt lat="42.3818860" lon="-2.4805800">
        <ele>487.0</ele>
        <time>2020-01-12T10:08:15Z</time>
      </trkpt>
      <trkpt lat="42.3818360" lon="-2.4806120">
        <ele>487.1</ele>
        <time>2020-01-12T10:08:16Z</time>
      </trkpt>
      <trkpt lat="42.3817900" lon="-2.4806510">
        <ele>487.2</ele>
        <time>2020-01-12T10:08:17Z</time>
      </trkpt>
      <trkpt lat="42.3817310" lon="-2.4806680">
        <ele>487.4</ele>
        <time>2020-01-12T10:08:18Z</time>
      </trkpt>
      <trkpt lat="42.3816600" lon="-2.4806890">
        <ele>487.7</ele>
        <time>2020-01-12T10:08:19Z</time>
      </trkpt>
      <trkpt lat="42.3815890" lon="-2.4807220">
        <ele>488.0</ele>
        <time>2020-01-12T10:08:20Z</time>
      </trkpt>
      <trkpt lat="42.3815450" lon="-2.4807870">
        <ele>488.0</ele>
        <time>2020-01-12T10:08:21Z</time>
      </trkpt>
      <trkpt lat="42.3814930" lon="-2.4808130">
        <ele>488.1</ele>
        <time>2020-01-12T10:08:22Z</time>
      </trkpt>
      <trkpt lat="42.3814380" lon="-2.4808610">
        <ele>488.1</ele>
        <time>2020-01-12T10:08:23Z</time>
      </trkpt>
      <trkpt lat="42.3813880" lon="-2.4809120">
        <ele>488.1</ele>
        <time>2020-01-12T10:08:24Z</time>
      </trkpt>
      <trkpt lat="42.3813310" lon="-2.4809460">
        <ele>488.2</ele>
        <time>2020-01-12T10:08:25Z</time>
      </trkpt>
      <trkpt lat="42.3812700" lon="-2.4809690">
        <ele>488.3</ele>
        <time>2020-01-12T10:08:26Z</time>
      </trkpt>
      <trkpt lat="42.3812150" lon="-2.4809970">
        <ele>488.4</ele>
        <time>2020-01-12T10:08:27Z</time>
      </trkpt>
      <trkpt lat="42.3811530" lon="-2.4810180">
        <ele>488.6</ele>
        <time>2020-01-12T10:08:28Z</time>
      </trkpt>
      <trkpt lat="42.3811010" lon="-2.4810310">
        <ele>488.7</ele>
        <time>2020-01-12T10:08:29Z</time>
      </trkpt>
      <trkpt lat="42.3810470" lon="-2.4810600">
        <ele>488.9</ele>
        <time>2020-01-12T10:08:30Z</time>
      </trkpt>
      <trkpt lat="42.3809900" lon="-2.4810910">
        <ele>489.0</ele>
        <time>2020-01-12T10:08:31Z</time>
      </trkpt>
      <trkpt lat="42.3809350" lon="-2.4811210">
        <ele>489.1</ele>
        <time>2020-01-12T10:08:32Z</time>
      </trkpt>
      <trkpt lat="42.3808680" lon="-2.4811480">
        <ele>489.1</ele>
        <time>2020-01-12T10:08:33Z</time>
      </trkpt>
      <trkpt lat="42.3808140" lon="-2.4811840">
        <ele>489.2</ele>
        <time>2020-01-12T10:08:34Z</time>
      </trkpt>
      <trkpt lat="42.3807530" lon="-2.4812040">
        <ele>489.3</ele>
        <time>2020-01-12T10:08:35Z</time>
      </trkpt>
      <trkpt lat="42.3806990" lon="-2.4812410">
        <ele>489.3</ele>
        <time>2020-01-12T10:08:36Z</time>
      </trkpt>
      <trkpt lat="42.3806460" lon="-2.4812680">
        <ele>489.4</ele>
        <time>2020-01-12T10:08:37Z</time>
      </trkpt>
      <trkpt lat="42.3806010" lon="-2.4812950">
        <ele>489.5</ele>
        <time>2020-01-12T10:08:38Z</time>
      </trkpt>
      <trkpt lat="42.3805490" lon="-2.4813280">
        <ele>489.6</ele>
        <time>2020-01-12T10:08:39Z</time>
      </trkpt>
      <trkpt lat="42.3804850" lon="-2.4813460">
        <ele>489.8</ele>
        <time>2020-01-12T10:08:40Z</time>
      </trkpt>
      <trkpt lat="42.3804110" lon="-2.4813880">
        <ele>489.9</ele>
        <time>2020-01-12T10:08:41Z</time>
      </trkpt>
      <trkpt lat="42.3803510" lon="-2.4814150">
        <ele>490.0</ele>
        <time>2020-01-12T10:08:42Z</time>
      </trkpt>
      <trkpt lat="42.3802920" lon="-2.4814470">
        <ele>490.1</ele>
        <time>2020-01-12T10:08:43Z</time>
      </trkpt>
      <trkpt lat="42.3802420" lon="-2.4814790">
        <ele>490.2</ele>
        <time>2020-01-12T10:08:44Z</time>
      </trkpt>
      <trkpt lat="42.3801830" lon="-2.4815140">
        <ele>490.3</ele>
        <time>2020-01-12T10:08:45Z</time>
      </trkpt>
      <trkpt lat="42.3801450" lon="-2.4815750">
        <ele>490.3</ele>
        <time>2020-01-12T10:08:46Z</time>
      </trkpt>
      <trkpt lat="42.3800790" lon="-2.4816070">
        <ele>490.4</ele>
        <time>2020-01-12T10:08:47Z</time>
      </trkpt>
      <trkpt lat="42.3800150" lon="-2.4816120">
        <ele>490.4</ele>
        <time>2020-01-12T10:08:48Z</time>
      </trkpt>
      <trkpt lat="42.3799550" lon="-2.4816570">
        <ele>490.6</ele>
        <time>2020-01-12T10:08:49Z</time>
      </trkpt>
      <trkpt lat="42.3798890" lon="-2.4816780">
        <ele>490.6</ele>
        <time>2020-01-12T10:08:50Z</time>
      </trkpt>
      <trkpt lat="42.3798300" lon="-2.4817180">
        <ele>490.6</ele>
        <time>2020-01-12T10:08:51Z</time>
      </trkpt>
      <trkpt lat="42.3797620" lon="-2.4817540">
        <ele>490.6</ele>
        <time>2020-01-12T10:08:52Z</time>
      </trkpt>
      <trkpt lat="42.3796970" lon="-2.4817790">
        <ele>490.6</ele>
        <time>2020-01-12T10:08:53Z</time>
      </trkpt>
      <trkpt lat="42.3796200" lon="-2.4817970">
        <ele>490.6</ele>
        <time>2020-01-12T10:08:54Z</time>
      </trkpt>
      <trkpt lat="42.3795540" lon="-2.4818230">
        <ele>490.6</ele>
        <time>2020-01-12T10:08:55Z</time>
      </trkpt>
      <trkpt lat="42.3794980" lon="-2.4818530">
        <ele>490.6</ele>
        <time>2020-01-12T10:08:56Z</time>
      </trkpt>
      <trkpt lat="42.3794360" lon="-2.4818920">
        <ele>490.6</ele>
        <time>2020-01-12T10:08:57Z</time>
      </trkpt>
      <trkpt lat="42.3793790" lon="-2.4819260">
        <ele>490.6</ele>
        <time>2020-01-12T10:08:58Z</time>
      </trkpt>
      <trkpt lat="42.3793080" lon="-2.4819450">
        <ele>490.6</ele>
        <time>2020-01-12T10:08:59Z</time>
      </trkpt>
      <trkpt lat="42.3792490" lon="-2.4819800">
        <ele>490.6</ele>
        <time>2020-01-12T10:09:00Z</time>
      </trkpt>
      <trkpt lat="42.3791920" lon="-2.4820250">
        <ele>490.7</ele>
        <time>2020-01-12T10:09:01Z</time>
      </trkpt>
      <trkpt lat="42.3791450" lon="-2.4820750">
        <ele>490.7</ele>
        <time>2020-01-12T10:09:02Z</time>
      </trkpt>
      <trkpt lat="42.3790880" lon="-2.4821090">
        <ele>490.7</ele>
        <time>2020-01-12T10:09:03Z</time>
      </trkpt>
      <trkpt lat="42.3790290" lon="-2.4821400">
        <ele>490.7</ele>
        <time>2020-01-12T10:09:04Z</time>
      </trkpt>
      <trkpt lat="42.3789640" lon="-2.4821630">
        <ele>490.7</ele>
        <time>2020-01-12T10:09:05Z</time>
      </trkpt>
      <trkpt lat="42.3789020" lon="-2.4821970">
        <ele>490.7</ele>
        <time>2020-01-12T10:09:06Z</time>
      </trkpt>
      <trkpt lat="42.3788430" lon="-2.4822300">
        <ele>490.7</ele>
        <time>2020-01-12T10:09:07Z</time>
      </trkpt>
      <trkpt lat="42.3787810" lon="-2.4822610">
        <ele>490.8</ele>
        <time>2020-01-12T10:09:08Z</time>
      </trkpt>
      <trkpt lat="42.3787320" lon="-2.4822900">
        <ele>490.8</ele>
        <time>2020-01-12T10:09:09Z</time>
      </trkpt>
      <trkpt lat="42.3786700" lon="-2.4823190">
        <ele>490.9</ele>
        <time>2020-01-12T10:09:10Z</time>
      </trkpt>
      <trkpt lat="42.3786180" lon="-2.4823520">
        <ele>491.0</ele>
        <time>2020-01-12T10:09:11Z</time>
      </trkpt>
      <trkpt lat="42.3785550" lon="-2.4823810">
        <ele>491.1</ele>
        <time>2020-01-12T10:09:12Z</time>
      </trkpt>
      <trkpt lat="42.3785070" lon="-2.4824150">
        <ele>491.2</ele>
        <time>2020-01-12T10:09:13Z</time>
      </trkpt>
      <trkpt lat="42.3784320" lon="-2.4824190">
        <ele>491.3</ele>
        <time>2020-01-12T10:09:14Z</time>
      </trkpt>
      <trkpt lat="42.3783680" lon="-2.4824430">
        <ele>491.4</ele>
        <time>2020-01-12T10:09:15Z</time>
      </trkpt>
      <trkpt lat="42.3783130" lon="-2.4824770">
        <ele>491.5</ele>
        <time>2020-01-12T10:09:16Z</time>
      </trkpt>
      <trkpt lat="42.3782650" lon="-2.4825140">
        <ele>491.5</ele>
        <time>2020-01-12T10:09:17Z</time>
      </trkpt>
      <trkpt lat="42.3782120" lon="-2.4825440">
        <ele>491.6</ele>
        <time>2020-01-12T10:09:18Z</time>
      </trkpt>
      <trkpt lat="42.3781630" lon="-2.4825830">
        <ele>491.6</ele>
        <time>2020-01-12T10:09:19Z</time>
      </trkpt>
      <trkpt lat="42.3781080" lon="-2.4826390">
        <ele>491.7</ele>
        <time>2020-01-12T10:09:20Z</time>
      </trkpt>
      <trkpt lat="42.3780490" lon="-2.4826740">
        <ele>491.7</ele>
        <time>2020-01-12T10:09:21Z</time>
      </trkpt>
      <trkpt lat="42.3779910" lon="-2.4827180">
        <ele>491.7</ele>
        <time>2020-01-12T10:09:22Z</time>
      </trkpt>
      <trkpt lat="42.3779420" lon="-2.4827700">
        <ele>491.8</ele>
        <time>2020-01-12T10:09:23Z</time>
      </trkpt>
      <trkpt lat="42.3779060" lon="-2.4828140">
        <ele>491.9</ele>
        <time>2020-01-12T10:09:24Z</time>
      </trkpt>
      <trkpt lat="42.3778360" lon="-2.4828190">
        <ele>492.0</ele>
        <time>2020-01-12T10:09:25Z</time>
      </trkpt>
      <trkpt lat="42.3777760" lon="-2.4828400">
        <ele>492.1</ele>
        <time>2020-01-12T10:09:26Z</time>
      </trkpt>
      <trkpt lat="42.3777220" lon="-2.4828740">
        <ele>492.3</ele>
        <time>2020-01-12T10:09:27Z</time>
      </trkpt>
      <trkpt lat="42.3776660" lon="-2.4828930">
        <ele>492.4</ele>
        <time>2020-01-12T10:09:28Z</time>
      </trkpt>
      <trkpt lat="42.3776030" lon="-2.4829110">
        <ele>492.5</ele>
        <time>2020-01-12T10:09:29Z</time>
      </trkpt>
      <trkpt lat="42.3775380" lon="-2.4829300">
        <ele>492.6</ele>
        <time>2020-01-12T10:09:30Z</time>
      </trkpt>
      <trkpt lat="42.3774840" lon="-2.4829610">
        <ele>492.7</ele>
        <time>2020-01-12T10:09:31Z</time>
      </trkpt>
      <trkpt lat="42.3774220" lon="-2.4829800">
        <ele>492.8</ele>
        <time>2020-01-12T10:09:32Z</time>
      </trkpt>
      <trkpt lat="42.3773690" lon="-2.4830070">
        <ele>492.9</ele>
        <time>2020-01-12T10:09:33Z</time>
      </trkpt>
      <trkpt lat="42.3773160" lon="-2.4830430">
        <ele>493.0</ele>
        <time>2020-01-12T10:09:34Z</time>
      </trkpt>
      <trkpt lat="42.3772540" lon="-2.4830630">
        <ele>493.1</ele>
        <time>2020-01-12T10:09:35Z</time>
      </trkpt>
      <trkpt lat="42.3771920" lon="-2.4830920">
        <ele>493.3</ele>
        <time>2020-01-12T10:09:36Z</time>
      </trkpt>
      <trkpt lat="42.3771320" lon="-2.4831170">
        <ele>493.4</ele>
        <time>2020-01-12T10:09:37Z</time>
      </trkpt>
      <trkpt lat="42.3770790" lon="-2.4831520">
        <ele>493.7</ele>
        <time>2020-01-12T10:09:38Z</time>
      </trkpt>
      <trkpt lat="42.3770300" lon="-2.4831840">
        <ele>493.7</ele>
        <time>2020-01-12T10:09:39Z</time>
      </trkpt>
      <trkpt lat="42.3769790" lon="-2.4832200">
        <ele>493.7</ele>
        <time>2020-01-12T10:09:40Z</time>
      </trkpt>
      <trkpt lat="42.3769170" lon="-2.4832450">
        <ele>493.8</ele>
        <time>2020-01-12T10:09:41Z</time>
      </trkpt>
      <trkpt lat="42.3768720" lon="-2.4832890">
        <ele>493.8</ele>
        <time>2020-01-12T10:09:42Z</time>
      </trkpt>
      <trkpt lat="42.3768210" lon="-2.4833230">
        <ele>493.8</ele>
        <time>2020-01-12T10:09:43Z</time>
      </trkpt>
      <trkpt lat="42.3767610" lon="-2.4833380">
        <ele>493.9</ele>
        <time>2020-01-12T10:09:44Z</time>
      </trkpt>
      <trkpt lat="42.3767020" lon="-2.4833700">
        <ele>494.0</ele>
        <time>2020-01-12T10:09:45Z</time>
      </trkpt>
      <trkpt lat="42.3766460" lon="-2.4834110">
        <ele>494.0</ele>
        <time>2020-01-12T10:09:46Z</time>
      </trkpt>
      <trkpt lat="42.3765950" lon="-2.4834380">
        <ele>494.1</ele>
        <time>2020-01-12T10:09:47Z</time>
      </trkpt>
      <trkpt lat="42.3765420" lon="-2.4834730">
        <ele>494.1</ele>
        <time>2020-01-12T10:09:48Z</time>
      </trkpt>
      <trkpt lat="42.3764790" lon="-2.4835090">
        <ele>494.2</ele>
        <time>2020-01-12T10:09:49Z</time>
      </trkpt>
      <trkpt lat="42.3764200" lon="-2.4835310">
        <ele>494.3</ele>
        <time>2020-01-12T10:09:50Z</time>
      </trkpt>
      <trkpt lat="42.3763570" lon="-2.4835640">
        <ele>494.4</ele>
        <time>2020-01-12T10:09:51Z</time>
      </trkpt>
      <trkpt lat="42.3762950" lon="-2.4835910">
        <ele>494.5</ele>
        <time>2020-01-12T10:09:52Z</time>
      </trkpt>
      <trkpt lat="42.3762360" lon="-2.4836180">
        <ele>494.5</ele>
        <time>2020-01-12T10:09:53Z</time>
      </trkpt>
      <trkpt lat="42.3761790" lon="-2.4836520">
        <ele>494.6</ele>
        <time>2020-01-12T10:09:54Z</time>
      </trkpt>
      <trkpt lat="42.3761130" lon="-2.4836660">
        <ele>494.7</ele>
        <time>2020-01-12T10:09:55Z</time>
      </trkpt>
      <trkpt lat="42.3760600" lon="-2.4836890">
        <ele>494.7</ele>
        <time>2020-01-12T10:09:56Z</time>
      </trkpt>
      <trkpt lat="42.3760030" lon="-2.4837140">
        <ele>494.8</ele>
        <time>2020-01-12T10:09:57Z</time>
      </trkpt>
      <trkpt lat="42.3759680" lon="-2.4837790">
        <ele>494.9</ele>
        <time>2020-01-12T10:09:58Z</time>
      </trkpt>
      <trkpt lat="42.3759100" lon="-2.4838060">
        <ele>494.9</ele>
        <time>2020-01-12T10:09:59Z</time>
      </trkpt>
      <trkpt lat="42.3758630" lon="-2.4838250">
        <ele>495.0</ele>
        <time>2020-01-12T10:10:00Z</time>
      </trkpt>
      <trkpt lat="42.3758120" lon="-2.4838540">
        <ele>495.0</ele>
        <time>2020-01-12T10:10:01Z</time>
      </trkpt>
      <trkpt lat="42.3757670" lon="-2.4838880">
        <ele>495.1</ele>
        <time>2020-01-12T10:10:02Z</time>
      </trkpt>
      <trkpt lat="42.3757110" lon="-2.4839190">
        <ele>495.1</ele>
        <time>2020-01-12T10:10:03Z</time>
      </trkpt>
      <trkpt lat="42.3756580" lon="-2.4839410">
        <ele>495.2</ele>
        <time>2020-01-12T10:10:04Z</time>
      </trkpt>
      <trkpt lat="42.3755980" lon="-2.4839680">
        <ele>495.3</ele>
        <time>2020-01-12T10:10:05Z</time>
      </trkpt>
      <trkpt lat="42.3755340" lon="-2.4840030">
        <ele>495.4</ele>
        <time>2020-01-12T10:10:06Z</time>
      </trkpt>
      <trkpt lat="42.3754820" lon="-2.4840420">
        <ele>495.5</ele>
        <time>2020-01-12T10:10:07Z</time>
      </trkpt>
      <trkpt lat="42.3754170" lon="-2.4840660">
        <ele>495.7</ele>
        <time>2020-01-12T10:10:08Z</time>
      </trkpt>
      <trkpt lat="42.3753530" lon="-2.4840970">
        <ele>495.7</ele>
        <time>2020-01-12T10:10:09Z</time>
      </trkpt>
      <trkpt lat="42.3752930" lon="-2.4841280">
        <ele>495.7</ele>
        <time>2020-01-12T10:10:10Z</time>
      </trkpt>
      <trkpt lat="42.3752400" lon="-2.4841720">
        <ele>495.7</ele>
        <time>2020-01-12T10:10:11Z</time>
      </trkpt>
      <trkpt lat="42.3751760" lon="-2.4841960">
        <ele>495.7</ele>
        <time>2020-01-12T10:10:12Z</time>
      </trkpt>
      <trkpt lat="42.3751080" lon="-2.4842230">
        <ele>495.7</ele>
        <time>2020-01-12T10:10:13Z</time>
      </trkpt>
      <trkpt lat="42.3750450" lon="-2.4842570">
        <ele>495.7</ele>
        <time>2020-01-12T10:10:14Z</time>
      </trkpt>
      <trkpt lat="42.3749850" lon="-2.4842900">
        <ele>495.7</ele>
        <time>2020-01-12T10:10:15Z</time>
      </trkpt>
      <trkpt lat="42.3749190" lon="-2.4843180">
        <ele>495.7</ele>
        <time>2020-01-12T10:10:16Z</time>
      </trkpt>
      <trkpt lat="42.3748650" lon="-2.4843480">
        <ele>495.7</ele>
        <time>2020-01-12T10:10:17Z</time>
      </trkpt>
      <trkpt lat="42.3748040" lon="-2.4843820">
        <ele>495.7</ele>
        <time>2020-01-12T10:10:18Z</time>
      </trkpt>
      <trkpt lat="42.3747450" lon="-2.4844180">
        <ele>495.8</ele>
        <time>2020-01-12T10:10:19Z</time>
      </trkpt>
      <trkpt lat="42.3746850" lon="-2.4844520">
        <ele>495.9</ele>
        <time>2020-01-12T10:10:20Z</time>
      </trkpt>
      <trkpt lat="42.3746290" lon="-2.4844960">
        <ele>496.0</ele>
        <time>2020-01-12T10:10:21Z</time>
      </trkpt>
      <trkpt lat="42.3745700" lon="-2.4845200">
        <ele>496.2</ele>
        <time>2020-01-12T10:10:22Z</time>
      </trkpt>
      <trkpt lat="42.3745090" lon="-2.4845480">
        <ele>496.3</ele>
        <time>2020-01-12T10:10:23Z</time>
      </trkpt>
      <trkpt lat="42.3744450" lon="-2.4845680">
        <ele>496.5</ele>
        <time>2020-01-12T10:10:24Z</time>
      </trkpt>
      <trkpt lat="42.3743870" lon="-2.4846070">
        <ele>496.6</ele>
        <time>2020-01-12T10:10:25Z</time>
      </trkpt>
      <trkpt lat="42.3743280" lon="-2.4846480">
        <ele>496.7</ele>
        <time>2020-01-12T10:10:26Z</time>
      </trkpt>
      <trkpt lat="42.3742550" lon="-2.4846760">
        <ele>496.8</ele>
        <time>2020-01-12T10:10:27Z</time>
      </trkpt>
      <trkpt lat="42.3741870" lon="-2.4847040">
        <ele>496.9</ele>
        <time>2020-01-12T10:10:28Z</time>
      </trkpt>
      <trkpt lat="42.3741330" lon="-2.4847500">
        <ele>497.0</ele>
        <time>2020-01-12T10:10:29Z</time>
      </trkpt>
      <trkpt lat="42.3740740" lon="-2.4847830">
        <ele>497.2</ele>
        <time>2020-01-12T10:10:30Z</time>
      </trkpt>
      <trkpt lat="42.3739990" lon="-2.4848070">
        <ele>497.4</ele>
        <time>2020-01-12T10:10:31Z</time>
      </trkpt>
      <trkpt lat="42.3739360" lon="-2.4848310">
        <ele>497.5</ele>
        <time>2020-01-12T10:10:32Z</time>
      </trkpt>
      <trkpt lat="42.3738760" lon="-2.4848680">
        <ele>497.6</ele>
        <time>2020-01-12T10:10:33Z</time>
      </trkpt>
      <trkpt lat="42.3738110" lon="-2.4848860">
        <ele>497.6</ele>
        <time>2020-01-12T10:10:34Z</time>
      </trkpt>
      <trkpt lat="42.3737520" lon="-2.4849210">
        <ele>497.7</ele>
        <time>2020-01-12T10:10:35Z</time>
      </trkpt>
      <trkpt lat="42.3736920" lon="-2.4849600">
        <ele>497.7</ele>
        <time>2020-01-12T10:10:36Z</time>
      </trkpt>
      <trkpt lat="42.3736410" lon="-2.4849940">
        <ele>497.7</ele>
        <time>2020-01-12T10:10:37Z</time>
      </trkpt>
      <trkpt lat="42.3735790" lon="-2.4850070">
        <ele>497.7</ele>
        <time>2020-01-12T10:10:38Z</time>
      </trkpt>
      <trkpt lat="42.3735260" lon="-2.4850350">
        <ele>497.7</ele>
        <time>2020-01-12T10:10:39Z</time>
      </trkpt>
      <trkpt lat="42.3734680" lon="-2.4850590">
        <ele>497.7</ele>
        <time>2020-01-12T10:10:40Z</time>
      </trkpt>
      <trkpt lat="42.3734080" lon="-2.4850940">
        <ele>497.8</ele>
        <time>2020-01-12T10:10:41Z</time>
      </trkpt>
      <trkpt lat="42.3733520" lon="-2.4851240">
        <ele>497.9</ele>
        <time>2020-01-12T10:10:42Z</time>
      </trkpt>
      <trkpt lat="42.3732980" lon="-2.4851550">
        <ele>498.0</ele>
        <time>2020-01-12T10:10:43Z</time>
      </trkpt>
      <trkpt lat="42.3732390" lon="-2.4851910">
        <ele>498.2</ele>
        <time>2020-01-12T10:10:44Z</time>
      </trkpt>
      <trkpt lat="42.3731790" lon="-2.4852230">
        <ele>498.3</ele>
        <time>2020-01-12T10:10:45Z</time>
      </trkpt>
      <trkpt lat="42.3731180" lon="-2.4852510">
        <ele>498.5</ele>
        <time>2020-01-12T10:10:46Z</time>
      </trkpt>
      <trkpt lat="42.3730540" lon="-2.4852840">
        <ele>498.6</ele>
        <time>2020-01-12T10:10:47Z</time>
      </trkpt>
      <trkpt lat="42.3729900" lon="-2.4853140">
        <ele>498.6</ele>
        <time>2020-01-12T10:10:48Z</time>
      </trkpt>
      <trkpt lat="42.3729310" lon="-2.4853490">
        <ele>498.6</ele>
        <time>2020-01-12T10:10:49Z</time>
      </trkpt>
      <trkpt lat="42.3728640" lon="-2.4853690">
        <ele>498.7</ele>
        <time>2020-01-12T10:10:50Z</time>
      </trkpt>
      <trkpt lat="42.3728140" lon="-2.4854120">
        <ele>498.7</ele>
        <time>2020-01-12T10:10:51Z</time>
      </trkpt>
      <trkpt lat="42.3727540" lon="-2.4854580">
        <ele>498.7</ele>
        <time>2020-01-12T10:10:52Z</time>
      </trkpt>
      <trkpt lat="42.3726930" lon="-2.4854850">
        <ele>498.7</ele>
        <time>2020-01-12T10:10:53Z</time>
      </trkpt>
      <trkpt lat="42.3726370" lon="-2.4855170">
        <ele>498.7</ele>
        <time>2020-01-12T10:10:54Z</time>
      </trkpt>
      <trkpt lat="42.3725750" lon="-2.4855330">
        <ele>498.7</ele>
        <time>2020-01-12T10:10:55Z</time>
      </trkpt>
      <trkpt lat="42.3725150" lon="-2.4855700">
        <ele>498.9</ele>
        <time>2020-01-12T10:10:56Z</time>
      </trkpt>
      <trkpt lat="42.3724590" lon="-2.4856010">
        <ele>499.1</ele>
        <time>2020-01-12T10:10:57Z</time>
      </trkpt>
      <trkpt lat="42.3723910" lon="-2.4856280">
        <ele>499.3</ele>
        <time>2020-01-12T10:10:58Z</time>
      </trkpt>
      <trkpt lat="42.3723310" lon="-2.4856570">
        <ele>499.4</ele>
        <time>2020-01-12T10:10:59Z</time>
      </trkpt>
      <trkpt lat="42.3722770" lon="-2.4856890">
        <ele>499.5</ele>
        <time>2020-01-12T10:11:00Z</time>
      </trkpt>
      <trkpt lat="42.3722280" lon="-2.4857190">
        <ele>499.6</ele>
        <time>2020-01-12T10:11:01Z</time>
      </trkpt>
      <trkpt lat="42.3721740" lon="-2.4857530">
        <ele>499.6</ele>
        <time>2020-01-12T10:11:02Z</time>
      </trkpt>
      <trkpt lat="42.3721270" lon="-2.4857780">
        <ele>499.6</ele>
        <time>2020-01-12T10:11:03Z</time>
      </trkpt>
      <trkpt lat="42.3720680" lon="-2.4858230">
        <ele>499.6</ele>
        <time>2020-01-12T10:11:04Z</time>
      </trkpt>
      <trkpt lat="42.3720080" lon="-2.4858530">
        <ele>499.7</ele>
        <time>2020-01-12T10:11:05Z</time>
      </trkpt>
      <trkpt lat="42.3719390" lon="-2.4858800">
        <ele>499.8</ele>
        <time>2020-01-12T10:11:06Z</time>
      </trkpt>
      <trkpt lat="42.3718630" lon="-2.4858830">
        <ele>500.0</ele>
        <time>2020-01-12T10:11:07Z</time>
      </trkpt>
      <trkpt lat="42.3718210" lon="-2.4859270">
        <ele>500.1</ele>
        <time>2020-01-12T10:11:08Z</time>
      </trkpt>
      <trkpt lat="42.3717790" lon="-2.4859630">
        <ele>500.2</ele>
        <time>2020-01-12T10:11:09Z</time>
      </trkpt>
      <trkpt lat="42.3717220" lon="-2.4859960">
        <ele>500.3</ele>
        <time>2020-01-12T10:11:10Z</time>
      </trkpt>
      <trkpt lat="42.3716560" lon="-2.4860490">
        <ele>500.4</ele>
        <time>2020-01-12T10:11:11Z</time>
      </trkpt>
      <trkpt lat="42.3716070" lon="-2.4860870">
        <ele>500.5</ele>
        <time>2020-01-12T10:11:12Z</time>
      </trkpt>
      <trkpt lat="42.3715440" lon="-2.4861290">
        <ele>500.6</ele>
        <time>2020-01-12T10:11:13Z</time>
      </trkpt>
      <trkpt lat="42.3714880" lon="-2.4861590">
        <ele>500.6</ele>
        <time>2020-01-12T10:11:14Z</time>
      </trkpt>
      <trkpt lat="42.3714330" lon="-2.4861830">
        <ele>500.7</ele>
        <time>2020-01-12T10:11:15Z</time>
      </trkpt>
      <trkpt lat="42.3713760" lon="-2.4862090">
        <ele>500.9</ele>
        <time>2020-01-12T10:11:16Z</time>
      </trkpt>
      <trkpt lat="42.3713330" lon="-2.4862250">
        <ele>501.0</ele>
        <time>2020-01-12T10:11:17Z</time>
      </trkpt>
      <trkpt lat="42.3712940" lon="-2.4862800">
        <ele>501.1</ele>
        <time>2020-01-12T10:11:18Z</time>
      </trkpt>
      <trkpt lat="42.3712350" lon="-2.4863120">
        <ele>501.3</ele>
        <time>2020-01-12T10:11:19Z</time>
      </trkpt>
      <trkpt lat="42.3711730" lon="-2.4863460">
        <ele>501.3</ele>
        <time>2020-01-12T10:11:20Z</time>
      </trkpt>
      <trkpt lat="42.3711080" lon="-2.4863790">
        <ele>501.4</ele>
        <time>2020-01-12T10:11:21Z</time>
      </trkpt>
      <trkpt lat="42.3710620" lon="-2.4864190">
        <ele>501.4</ele>
        <time>2020-01-12T10:11:22Z</time>
      </trkpt>
      <trkpt lat="42.3709980" lon="-2.4864530">
        <ele>501.4</ele>
        <time>2020-01-12T10:11:23Z</time>
      </trkpt>
      <trkpt lat="42.3709230" lon="-2.4864710">
        <ele>501.4</ele>
        <time>2020-01-12T10:11:24Z</time>
      </trkpt>
      <trkpt lat="42.3708620" lon="-2.4864970">
        <ele>501.4</ele>
        <time>2020-01-12T10:11:25Z</time>
      </trkpt>
      <trkpt lat="42.3708150" lon="-2.4865240">
        <ele>501.4</ele>
        <time>2020-01-12T10:11:26Z</time>
      </trkpt>
      <trkpt lat="42.3707760" lon="-2.4865640">
        <ele>501.4</ele>
        <time>2020-01-12T10:11:27Z</time>
      </trkpt>
      <trkpt lat="42.3707300" lon="-2.4866180">
        <ele>501.4</ele>
        <time>2020-01-12T10:11:28Z</time>
      </trkpt>
      <trkpt lat="42.3706760" lon="-2.4866620">
        <ele>501.4</ele>
        <time>2020-01-12T10:11:29Z</time>
      </trkpt>
      <trkpt lat="42.3706170" lon="-2.4866930">
        <ele>501.4</ele>
        <time>2020-01-12T10:11:30Z</time>
      </trkpt>
      <trkpt lat="42.3705640" lon="-2.4867310">
        <ele>501.4</ele>
        <time>2020-01-12T10:11:31Z</time>
      </trkpt>
      <trkpt lat="42.3705030" lon="-2.4867570">
        <ele>501.4</ele>
        <time>2020-01-12T10:11:32Z</time>
      </trkpt>
      <trkpt lat="42.3704400" lon="-2.4867910">
        <ele>501.5</ele>
        <time>2020-01-12T10:11:33Z</time>
      </trkpt>
      <trkpt lat="42.3703780" lon="-2.4868210">
        <ele>501.7</ele>
        <time>2020-01-12T10:11:34Z</time>
      </trkpt>
      <trkpt lat="42.3703190" lon="-2.4868420">
        <ele>502.0</ele>
        <time>2020-01-12T10:11:35Z</time>
      </trkpt>
      <trkpt lat="42.3702540" lon="-2.4868730">
        <ele>502.6</ele>
        <time>2020-01-12T10:11:36Z</time>
      </trkpt>
      <trkpt lat="42.3701840" lon="-2.4869000">
        <ele>503.3</ele>
        <time>2020-01-12T10:11:37Z</time>
      </trkpt>
      <trkpt lat="42.3701330" lon="-2.4869350">
        <ele>503.3</ele>
        <time>2020-01-12T10:11:38Z</time>
      </trkpt>
      <trkpt lat="42.3700790" lon="-2.4869510">
        <ele>503.2</ele>
        <time>2020-01-12T10:11:39Z</time>
      </trkpt>
      <trkpt lat="42.3700300" lon="-2.4869850">
        <ele>503.2</ele>
        <time>2020-01-12T10:11:40Z</time>
      </trkpt>
      <trkpt lat="42.3699840" lon="-2.4870050">
        <ele>503.2</ele>
        <time>2020-01-12T10:11:41Z</time>
      </trkpt>
      <trkpt lat="42.3699210" lon="-2.4870210">
        <ele>503.1</ele>
        <time>2020-01-12T10:11:42Z</time>
      </trkpt>
      <trkpt lat="42.3698580" lon="-2.4870460">
        <ele>503.1</ele>
        <time>2020-01-12T10:11:43Z</time>
      </trkpt>
      <trkpt lat="42.3697990" lon="-2.4870730">
        <ele>503.0</ele>
        <time>2020-01-12T10:11:44Z</time>
      </trkpt>
      <trkpt lat="42.3697440" lon="-2.4871140">
        <ele>503.0</ele>
        <time>2020-01-12T10:11:45Z</time>
      </trkpt>
      <trkpt lat="42.3696890" lon="-2.4871360">
        <ele>502.9</ele>
        <time>2020-01-12T10:11:46Z</time>
      </trkpt>
      <trkpt lat="42.3696350" lon="-2.4871650">
        <ele>502.9</ele>
        <time>2020-01-12T10:11:47Z</time>
      </trkpt>
      <trkpt lat="42.3695790" lon="-2.4872020">
        <ele>502.8</ele>
        <time>2020-01-12T10:11:48Z</time>
      </trkpt>
      <trkpt lat="42.3695240" lon="-2.4872330">
        <ele>502.8</ele>
        <time>2020-01-12T10:11:49Z</time>
      </trkpt>
      <trkpt lat="42.3694770" lon="-2.4872660">
        <ele>502.7</ele>
        <time>2020-01-12T10:11:50Z</time>
      </trkpt>
      <trkpt lat="42.3694220" lon="-2.4873100">
        <ele>502.7</ele>
        <time>2020-01-12T10:11:51Z</time>
      </trkpt>
      <trkpt lat="42.3693630" lon="-2.4873410">
        <ele>502.7</ele>
        <time>2020-01-12T10:11:52Z</time>
      </trkpt>
      <trkpt lat="42.3693070" lon="-2.4873720">
        <ele>502.6</ele>
        <time>2020-01-12T10:11:53Z</time>
      </trkpt>
      <trkpt lat="42.3692460" lon="-2.4874000">
        <ele>502.7</ele>
        <time>2020-01-12T10:11:54Z</time>
      </trkpt>
      <trkpt lat="42.3691840" lon="-2.4874160">
        <ele>502.7</ele>
        <time>2020-01-12T10:11:55Z</time>
      </trkpt>
      <trkpt lat="42.3691360" lon="-2.4874600">
        <ele>502.7</ele>
        <time>2020-01-12T10:11:56Z</time>
      </trkpt>
      <trkpt lat="42.3691030" lon="-2.4875060">
        <ele>502.7</ele>
        <time>2020-01-12T10:11:57Z</time>
      </trkpt>
      <trkpt lat="42.3690480" lon="-2.4875430">
        <ele>502.7</ele>
        <time>2020-01-12T10:11:58Z</time>
      </trkpt>
      <trkpt lat="42.3689890" lon="-2.4875720">
        <ele>502.9</ele>
        <time>2020-01-12T10:11:59Z</time>
      </trkpt>
      <trkpt lat="42.3689390" lon="-2.4876090">
        <ele>503.2</ele>
        <time>2020-01-12T10:12:00Z</time>
      </trkpt>
      <trkpt lat="42.3688700" lon="-2.4876150">
        <ele>503.5</ele>
        <time>2020-01-12T10:12:01Z</time>
      </trkpt>
      <trkpt lat="42.3688230" lon="-2.4876580">
        <ele>503.9</ele>
        <time>2020-01-12T10:12:02Z</time>
      </trkpt>
      <trkpt lat="42.3687650" lon="-2.4876880">
        <ele>504.2</ele>
        <time>2020-01-12T10:12:03Z</time>
      </trkpt>
      <trkpt lat="42.3687050" lon="-2.4877270">
        <ele>504.7</ele>
        <time>2020-01-12T10:12:04Z</time>
      </trkpt>
      <trkpt lat="42.3686550" lon="-2.4877500">
        <ele>505.0</ele>
        <time>2020-01-12T10:12:05Z</time>
      </trkpt>
      <trkpt lat="42.3686010" lon="-2.4877870">
        <ele>505.4</ele>
        <time>2020-01-12T10:12:06Z</time>
      </trkpt>
      <trkpt lat="42.3685510" lon="-2.4878150">
        <ele>505.7</ele>
        <time>2020-01-12T10:12:07Z</time>
      </trkpt>
      <trkpt lat="42.3684850" lon="-2.4878380">
        <ele>506.1</ele>
        <time>2020-01-12T10:12:08Z</time>
      </trkpt>
      <trkpt lat="42.3684320" lon="-2.4878630">
        <ele>506.3</ele>
        <time>2020-01-12T10:12:09Z</time>
      </trkpt>
      <trkpt lat="42.3683670" lon="-2.4879040">
        <ele>506.6</ele>
        <time>2020-01-12T10:12:10Z</time>
      </trkpt>
      <trkpt lat="42.3683100" lon="-2.4879400">
        <ele>506.8</ele>
        <time>2020-01-12T10:12:11Z</time>
      </trkpt>
      <trkpt lat="42.3682480" lon="-2.4879720">
        <ele>507.0</ele>
        <time>2020-01-12T10:12:12Z</time>
      </trkpt>
      <trkpt lat="42.3681900" lon="-2.4880120">
        <ele>507.2</ele>
        <time>2020-01-12T10:12:13Z</time>
      </trkpt>
      <trkpt lat="42.3681360" lon="-2.4880440">
        <ele>507.4</ele>
        <time>2020-01-12T10:12:14Z</time>
      </trkpt>
      <trkpt lat="42.3680820" lon="-2.4880760">
        <ele>507.6</ele>
        <time>2020-01-12T10:12:15Z</time>
      </trkpt>
      <trkpt lat="42.3680250" lon="-2.4881110">
        <ele>507.7</ele>
        <time>2020-01-12T10:12:16Z</time>
      </trkpt>
      <trkpt lat="42.3679750" lon="-2.4881470">
        <ele>507.8</ele>
        <time>2020-01-12T10:12:17Z</time>
      </trkpt>
      <trkpt lat="42.3679270" lon="-2.4881780">
        <ele>507.9</ele>
        <time>2020-01-12T10:12:18Z</time>
      </trkpt>
      <trkpt lat="42.3678720" lon="-2.4881890">
        <ele>508.0</ele>
        <time>2020-01-12T10:12:19Z</time>
      </trkpt>
      <trkpt lat="42.3678300" lon="-2.4882160">
        <ele>508.0</ele>
        <time>2020-01-12T10:12:20Z</time>
      </trkpt>
      <trkpt lat="42.3677890" lon="-2.4882580">
        <ele>508.0</ele>
        <time>2020-01-12T10:12:21Z</time>
      </trkpt>
      <trkpt lat="42.3677500" lon="-2.4883000">
        <ele>508.0</ele>
        <time>2020-01-12T10:12:22Z</time>
      </trkpt>
      <trkpt lat="42.3677270" lon="-2.4883410">
        <ele>508.0</ele>
        <time>2020-01-12T10:12:23Z</time>
      </trkpt>
      <trkpt lat="42.3676880" lon="-2.4883870">
        <ele>508.0</ele>
        <time>2020-01-12T10:12:24Z</time>
      </trkpt>
      <trkpt lat="42.3676300" lon="-2.4884260">
        <ele>508.0</ele>
        <time>2020-01-12T10:12:25Z</time>
      </trkpt>
      <trkpt lat="42.3675620" lon="-2.4884460">
        <ele>508.0</ele>
        <time>2020-01-12T10:12:26Z</time>
      </trkpt>
      <trkpt lat="42.3674970" lon="-2.4884630">
        <ele>507.9</ele>
        <time>2020-01-12T10:12:27Z</time>
      </trkpt>
      <trkpt lat="42.3674330" lon="-2.4884730">
        <ele>508.3</ele>
        <time>2020-01-12T10:12:28Z</time>
      </trkpt>
      <trkpt lat="42.3673730" lon="-2.4884900">
        <ele>508.4</ele>
        <time>2020-01-12T10:12:29Z</time>
      </trkpt>
      <trkpt lat="42.3673160" lon="-2.4885140">
        <ele>508.5</ele>
        <time>2020-01-12T10:12:30Z</time>
      </trkpt>
      <trkpt lat="42.3672560" lon="-2.4885210">
        <ele>508.5</ele>
        <time>2020-01-12T10:12:31Z</time>
      </trkpt>
      <trkpt lat="42.3672080" lon="-2.4885540">
        <ele>508.5</ele>
        <time>2020-01-12T10:12:32Z</time>
      </trkpt>
      <trkpt lat="42.3671450" lon="-2.4885770">
        <ele>508.4</ele>
        <time>2020-01-12T10:12:33Z</time>
      </trkpt>
      <trkpt lat="42.3670840" lon="-2.4886030">
        <ele>508.4</ele>
        <time>2020-01-12T10:12:34Z</time>
      </trkpt>
      <trkpt lat="42.3670180" lon="-2.4886310">
        <ele>508.3</ele>
        <time>2020-01-12T10:12:35Z</time>
      </trkpt>
      <trkpt lat="42.3669620" lon="-2.4886640">
        <ele>508.4</ele>
        <time>2020-01-12T10:12:36Z</time>
      </trkpt>
      <trkpt lat="42.3669070" lon="-2.4886900">
        <ele>508.5</ele>
        <time>2020-01-12T10:12:37Z</time>
      </trkpt>
      <trkpt lat="42.3668560" lon="-2.4887190">
        <ele>508.7</ele>
        <time>2020-01-12T10:12:38Z</time>
      </trkpt>
      <trkpt lat="42.3668020" lon="-2.4887550">
        <ele>509.0</ele>
        <time>2020-01-12T10:12:39Z</time>
      </trkpt>
      <trkpt lat="42.3667340" lon="-2.4887700">
        <ele>509.3</ele>
        <time>2020-01-12T10:12:40Z</time>
      </trkpt>
      <trkpt lat="42.3666820" lon="-2.4887900">
        <ele>509.5</ele>
        <time>2020-01-12T10:12:41Z</time>
      </trkpt>
      <trkpt lat="42.3666350" lon="-2.4888240">
        <ele>509.7</ele>
        <time>2020-01-12T10:12:42Z</time>
      </trkpt>
      <trkpt lat="42.3665770" lon="-2.4888540">
        <ele>509.9</ele>
        <time>2020-01-12T10:12:43Z</time>
      </trkpt>
      <trkpt lat="42.3665290" lon="-2.4888490">
        <ele>510.1</ele>
        <time>2020-01-12T10:12:44Z</time>
      </trkpt>
      <trkpt lat="42.3664750" lon="-2.4888950">
        <ele>510.2</ele>
        <time>2020-01-12T10:12:45Z</time>
      </trkpt>
      <trkpt lat="42.3664130" lon="-2.4889280">
        <ele>510.3</ele>
        <time>2020-01-12T10:12:46Z</time>
      </trkpt>
      <trkpt lat="42.3663550" lon="-2.4889610">
        <ele>510.3</ele>
        <time>2020-01-12T10:12:47Z</time>
      </trkpt>
      <trkpt lat="42.3663110" lon="-2.4890240">
        <ele>510.4</ele>
        <time>2020-01-12T10:12:48Z</time>
      </trkpt>
      <trkpt lat="42.3662520" lon="-2.4890540">
        <ele>510.6</ele>
        <time>2020-01-12T10:12:49Z</time>
      </trkpt>
      <trkpt lat="42.3661850" lon="-2.4890980">
        <ele>510.8</ele>
        <time>2020-01-12T10:12:50Z</time>
      </trkpt>
      <trkpt lat="42.3661390" lon="-2.4891200">
        <ele>510.9</ele>
        <time>2020-01-12T10:12:51Z</time>
      </trkpt>
      <trkpt lat="42.3661010" lon="-2.4891480">
        <ele>511.0</ele>
        <time>2020-01-12T10:12:52Z</time>
      </trkpt>
      <trkpt lat="42.3660390" lon="-2.4891780">
        <ele>511.2</ele>
        <time>2020-01-12T10:12:53Z</time>
      </trkpt>
      <trkpt lat="42.3659790" lon="-2.4891920">
        <ele>511.3</ele>
        <time>2020-01-12T10:12:54Z</time>
      </trkpt>
      <trkpt lat="42.3659280" lon="-2.4892210">
        <ele>511.4</ele>
        <time>2020-01-12T10:12:55Z</time>
      </trkpt>
      <trkpt lat="42.3658670" lon="-2.4892520">
        <ele>511.5</ele>
        <time>2020-01-12T10:12:56Z</time>
      </trkpt>
      <trkpt lat="42.3658140" lon="-2.4892820">
        <ele>511.6</ele>
        <time>2020-01-12T10:12:57Z</time>
      </trkpt>
      <trkpt lat="42.3657600" lon="-2.4893110">
        <ele>511.6</ele>
        <time>2020-01-12T10:12:58Z</time>
      </trkpt>
      <trkpt lat="42.3657010" lon="-2.4893280">
        <ele>511.5</ele>
        <time>2020-01-12T10:12:59Z</time>
      </trkpt>
      <trkpt lat="42.3656450" lon="-2.4893630">
        <ele>511.5</ele>
        <time>2020-01-12T10:13:00Z</time>
      </trkpt>
      <trkpt lat="42.3655890" lon="-2.4893900">
        <ele>511.5</ele>
        <time>2020-01-12T10:13:01Z</time>
      </trkpt>
      <trkpt lat="42.3655350" lon="-2.4894230">
        <ele>511.5</ele>
        <time>2020-01-12T10:13:02Z</time>
      </trkpt>
      <trkpt lat="42.3654790" lon="-2.4894560">
        <ele>511.6</ele>
        <time>2020-01-12T10:13:03Z</time>
      </trkpt>
      <trkpt lat="42.3654180" lon="-2.4894870">
        <ele>511.7</ele>
        <time>2020-01-12T10:13:04Z</time>
      </trkpt>
      <trkpt lat="42.3653660" lon="-2.4895270">
        <ele>511.8</ele>
        <time>2020-01-12T10:13:05Z</time>
      </trkpt>
      <trkpt lat="42.3653080" lon="-2.4895520">
        <ele>512.0</ele>
        <time>2020-01-12T10:13:06Z</time>
      </trkpt>
      <trkpt lat="42.3652520" lon="-2.4895840">
        <ele>512.1</ele>
        <time>2020-01-12T10:13:07Z</time>
      </trkpt>
      <trkpt lat="42.3651940" lon="-2.4896170">
        <ele>512.2</ele>
        <time>2020-01-12T10:13:08Z</time>
      </trkpt>
      <trkpt lat="42.3651470" lon="-2.4896470">
        <ele>512.2</ele>
        <time>2020-01-12T10:13:09Z</time>
      </trkpt>
      <trkpt lat="42.3650870" lon="-2.4896710">
        <ele>512.2</ele>
        <time>2020-01-12T10:13:10Z</time>
      </trkpt>
      <trkpt lat="42.3650290" lon="-2.4896980">
        <ele>512.2</ele>
        <time>2020-01-12T10:13:11Z</time>
      </trkpt>
      <trkpt lat="42.3649670" lon="-2.4897250">
        <ele>512.2</ele>
        <time>2020-01-12T10:13:12Z</time>
      </trkpt>
      <trkpt lat="42.3649080" lon="-2.4897530">
        <ele>512.2</ele>
        <time>2020-01-12T10:13:13Z</time>
      </trkpt>
      <trkpt lat="42.3648530" lon="-2.4897830">
        <ele>512.2</ele>
        <time>2020-01-12T10:13:14Z</time>
      </trkpt>
      <trkpt lat="42.3648000" lon="-2.4898070">
        <ele>512.2</ele>
        <time>2020-01-12T10:13:15Z</time>
      </trkpt>
      <trkpt lat="42.3647460" lon="-2.4898360">
        <ele>512.2</ele>
        <time>2020-01-12T10:13:16Z</time>
      </trkpt>
      <trkpt lat="42.3646850" lon="-2.4898470">
        <ele>512.3</ele>
        <time>2020-01-12T10:13:17Z</time>
      </trkpt>
      <trkpt lat="42.3645860" lon="-2.4898720">
        <ele>512.5</ele>
        <time>2020-01-12T10:13:18Z</time>
      </trkpt>
      <trkpt lat="42.3645330" lon="-2.4899210">
        <ele>512.6</ele>
        <time>2020-01-12T10:13:19Z</time>
      </trkpt>
      <trkpt lat="42.3644850" lon="-2.4899670">
        <ele>512.8</ele>
        <time>2020-01-12T10:13:20Z</time>
      </trkpt>
      <trkpt lat="42.3644260" lon="-2.4899540">
        <ele>512.9</ele>
        <time>2020-01-12T10:13:21Z</time>
      </trkpt>
      <trkpt lat="42.3643690" lon="-2.4899730">
        <ele>512.9</ele>
        <time>2020-01-12T10:13:22Z</time>
      </trkpt>
      <trkpt lat="42.3643210" lon="-2.4899900">
        <ele>512.9</ele>
        <time>2020-01-12T10:13:23Z</time>
      </trkpt>
      <trkpt lat="42.3642690" lon="-2.4900200">
        <ele>512.9</ele>
        <time>2020-01-12T10:13:24Z</time>
      </trkpt>
      <trkpt lat="42.3642260" lon="-2.4900690">
        <ele>512.9</ele>
        <time>2020-01-12T10:13:25Z</time>
      </trkpt>
      <trkpt lat="42.3641830" lon="-2.4901290">
        <ele>512.9</ele>
        <time>2020-01-12T10:13:26Z</time>
      </trkpt>
      <trkpt lat="42.3641430" lon="-2.4901820">
        <ele>512.9</ele>
        <time>2020-01-12T10:13:27Z</time>
      </trkpt>
      <trkpt lat="42.3640780" lon="-2.4902110">
        <ele>512.8</ele>
        <time>2020-01-12T10:13:28Z</time>
      </trkpt>
      <trkpt lat="42.3640140" lon="-2.4902300">
        <ele>512.8</ele>
        <time>2020-01-12T10:13:29Z</time>
      </trkpt>
      <trkpt lat="42.3639550" lon="-2.4902630">
        <ele>512.8</ele>
        <time>2020-01-12T10:13:30Z</time>
      </trkpt>
      <trkpt lat="42.3638950" lon="-2.4902720">
        <ele>512.8</ele>
        <time>2020-01-12T10:13:31Z</time>
      </trkpt>
      <trkpt lat="42.3638350" lon="-2.4903010">
        <ele>512.7</ele>
        <time>2020-01-12T10:13:32Z</time>
      </trkpt>
      <trkpt lat="42.3637860" lon="-2.4903290">
        <ele>512.7</ele>
        <time>2020-01-12T10:13:33Z</time>
      </trkpt>
      <trkpt lat="42.3637210" lon="-2.4903540">
        <ele>512.7</ele>
        <time>2020-01-12T10:13:34Z</time>
      </trkpt>
      <trkpt lat="42.3636750" lon="-2.4903750">
        <ele>512.7</ele>
        <time>2020-01-12T10:13:35Z</time>
      </trkpt>
      <trkpt lat="42.3636130" lon="-2.4903880">
        <ele>512.7</ele>
        <time>2020-01-12T10:13:36Z</time>
      </trkpt>
      <trkpt lat="42.3635610" lon="-2.4904180">
        <ele>512.7</ele>
        <time>2020-01-12T10:13:37Z</time>
      </trkpt>
      <trkpt lat="42.3635180" lon="-2.4904710">
        <ele>512.7</ele>
        <time>2020-01-12T10:13:38Z</time>
      </trkpt>
      <trkpt lat="42.3634610" lon="-2.4904800">
        <ele>512.7</ele>
        <time>2020-01-12T10:13:39Z</time>
      </trkpt>
      <trkpt lat="42.3633950" lon="-2.4905080">
        <ele>512.8</ele>
        <time>2020-01-12T10:13:40Z</time>
      </trkpt>
      <trkpt lat="42.3633480" lon="-2.4905180">
        <ele>512.8</ele>
        <time>2020-01-12T10:13:41Z</time>
      </trkpt>
      <trkpt lat="42.3632930" lon="-2.4905400">
        <ele>512.8</ele>
        <time>2020-01-12T10:13:42Z</time>
      </trkpt>
      <trkpt lat="42.3632390" lon="-2.4905890">
        <ele>512.9</ele>
        <time>2020-01-12T10:13:43Z</time>
      </trkpt>
      <trkpt lat="42.3631800" lon="-2.4906160">
        <ele>513.0</ele>
        <time>2020-01-12T10:13:44Z</time>
      </trkpt>
      <trkpt lat="42.3631050" lon="-2.4906230">
        <ele>513.2</ele>
        <time>2020-01-12T10:13:45Z</time>
      </trkpt>
      <trkpt lat="42.3630570" lon="-2.4906770">
        <ele>513.4</ele>
        <time>2020-01-12T10:13:46Z</time>
      </trkpt>
      <trkpt lat="42.3630150" lon="-2.4907090">
        <ele>513.6</ele>
        <time>2020-01-12T10:13:47Z</time>
      </trkpt>
      <trkpt lat="42.3629540" lon="-2.4907360">
        <ele>513.9</ele>
        <time>2020-01-12T10:13:48Z</time>
      </trkpt>
      <trkpt lat="42.3628930" lon="-2.4907600">
        <ele>514.2</ele>
        <time>2020-01-12T10:13:49Z</time>
      </trkpt>
      <trkpt lat="42.3628440" lon="-2.4908050">
        <ele>514.6</ele>
        <time>2020-01-12T10:13:50Z</time>
      </trkpt>
      <trkpt lat="42.3627840" lon="-2.4908330">
        <ele>514.9</ele>
        <time>2020-01-12T10:13:51Z</time>
      </trkpt>
      <trkpt lat="42.3627240" lon="-2.4908630">
        <ele>515.2</ele>
        <time>2020-01-12T10:13:52Z</time>
      </trkpt>
      <trkpt lat="42.3626650" lon="-2.4908890">
        <ele>515.5</ele>
        <time>2020-01-12T10:13:53Z</time>
      </trkpt>
      <trkpt lat="42.3626070" lon="-2.4909130">
        <ele>515.6</ele>
        <time>2020-01-12T10:13:54Z</time>
      </trkpt>
      <trkpt lat="42.3625570" lon="-2.4909430">
        <ele>515.8</ele>
        <time>2020-01-12T10:13:55Z</time>
      </trkpt>
      <trkpt lat="42.3625020" lon="-2.4909800">
        <ele>515.9</ele>
        <time>2020-01-12T10:13:56Z</time>
      </trkpt>
      <trkpt lat="42.3624400" lon="-2.4910050">
        <ele>516.0</ele>
        <time>2020-01-12T10:13:57Z</time>
      </trkpt>
      <trkpt lat="42.3623870" lon="-2.4910410">
        <ele>516.1</ele>
        <time>2020-01-12T10:13:58Z</time>
      </trkpt>
      <trkpt lat="42.3623280" lon="-2.4910770">
        <ele>516.2</ele>
        <time>2020-01-12T10:13:59Z</time>
      </trkpt>
      <trkpt lat="42.3622730" lon="-2.4910980">
        <ele>516.4</ele>
        <time>2020-01-12T10:14:00Z</time>
      </trkpt>
      <trkpt lat="42.3622180" lon="-2.4911380">
        <ele>516.5</ele>
        <time>2020-01-12T10:14:01Z</time>
      </trkpt>
      <trkpt lat="42.3621620" lon="-2.4911700">
        <ele>516.7</ele>
        <time>2020-01-12T10:14:02Z</time>
      </trkpt>
      <trkpt lat="42.3621060" lon="-2.4911920">
        <ele>516.8</ele>
        <time>2020-01-12T10:14:03Z</time>
      </trkpt>
      <trkpt lat="42.3620490" lon="-2.4912210">
        <ele>517.0</ele>
        <time>2020-01-12T10:14:04Z</time>
      </trkpt>
      <trkpt lat="42.3619960" lon="-2.4912500">
        <ele>517.1</ele>
        <time>2020-01-12T10:14:05Z</time>
      </trkpt>
      <trkpt lat="42.3619400" lon="-2.4912830">
        <ele>517.3</ele>
        <time>2020-01-12T10:14:06Z</time>
      </trkpt>
      <trkpt lat="42.3618860" lon="-2.4913130">
        <ele>517.5</ele>
        <time>2020-01-12T10:14:07Z</time>
      </trkpt>
      <trkpt lat="42.3618350" lon="-2.4913530">
        <ele>517.6</ele>
        <time>2020-01-12T10:14:08Z</time>
      </trkpt>
      <trkpt lat="42.3617790" lon="-2.4913870">
        <ele>517.8</ele>
        <time>2020-01-12T10:14:09Z</time>
      </trkpt>
      <trkpt lat="42.3617200" lon="-2.4914050">
        <ele>517.9</ele>
        <time>2020-01-12T10:14:10Z</time>
      </trkpt>
      <trkpt lat="42.3616610" lon="-2.4914320">
        <ele>518.0</ele>
        <time>2020-01-12T10:14:11Z</time>
      </trkpt>
      <trkpt lat="42.3616050" lon="-2.4914600">
        <ele>518.0</ele>
        <time>2020-01-12T10:14:12Z</time>
      </trkpt>
      <trkpt lat="42.3615510" lon="-2.4914910">
        <ele>518.1</ele>
        <time>2020-01-12T10:14:13Z</time>
      </trkpt>
      <trkpt lat="42.3615000" lon="-2.4915150">
        <ele>518.2</ele>
        <time>2020-01-12T10:14:14Z</time>
      </trkpt>
      <trkpt lat="42.3614490" lon="-2.4915530">
        <ele>518.3</ele>
        <time>2020-01-12T10:14:15Z</time>
      </trkpt>
      <trkpt lat="42.3613920" lon="-2.4915780">
        <ele>518.4</ele>
        <time>2020-01-12T10:14:16Z</time>
      </trkpt>
      <trkpt lat="42.3613380" lon="-2.4916140">
        <ele>518.6</ele>
        <time>2020-01-12T10:14:17Z</time>
      </trkpt>
      <trkpt lat="42.3612830" lon="-2.4916330">
        <ele>518.9</ele>
        <time>2020-01-12T10:14:18Z</time>
      </trkpt>
      <trkpt lat="42.3612280" lon="-2.4916690">
        <ele>519.1</ele>
        <time>2020-01-12T10:14:19Z</time>
      </trkpt>
      <trkpt lat="42.3611670" lon="-2.4916980">
        <ele>519.4</ele>
        <time>2020-01-12T10:14:20Z</time>
      </trkpt>
      <trkpt lat="42.3611150" lon="-2.4917230">
        <ele>519.6</ele>
        <time>2020-01-12T10:14:21Z</time>
      </trkpt>
      <trkpt lat="42.3610630" lon="-2.4917610">
        <ele>519.8</ele>
        <time>2020-01-12T10:14:22Z</time>
      </trkpt>
      <trkpt lat="42.3610100" lon="-2.4917940">
        <ele>519.9</ele>
        <time>2020-01-12T10:14:23Z</time>
      </trkpt>
      <trkpt lat="42.3609560" lon="-2.4918320">
        <ele>520.0</ele>
        <time>2020-01-12T10:14:24Z</time>
      </trkpt>
      <trkpt lat="42.3608960" lon="-2.4918530">
        <ele>520.1</ele>
        <time>2020-01-12T10:14:25Z</time>
      </trkpt>
      <trkpt lat="42.3608410" lon="-2.4918850">
        <ele>520.2</ele>
        <time>2020-01-12T10:14:26Z</time>
      </trkpt>
      <trkpt lat="42.3607890" lon="-2.4919080">
        <ele>520.2</ele>
        <time>2020-01-12T10:14:27Z</time>
      </trkpt>
      <trkpt lat="42.3607340" lon="-2.4919310">
        <ele>520.3</ele>
        <time>2020-01-12T10:14:28Z</time>
      </trkpt>
      <trkpt lat="42.3606820" lon="-2.4919600">
        <ele>520.4</ele>
        <time>2020-01-12T10:14:29Z</time>
      </trkpt>
      <trkpt lat="42.3606260" lon="-2.4919900">
        <ele>520.6</ele>
        <time>2020-01-12T10:14:30Z</time>
      </trkpt>
      <trkpt lat="42.3605690" lon="-2.4920160">
        <ele>520.8</ele>
        <time>2020-01-12T10:14:31Z</time>
      </trkpt>
      <trkpt lat="42.3605110" lon="-2.4920350">
        <ele>520.9</ele>
        <time>2020-01-12T10:14:32Z</time>
      </trkpt>
      <trkpt lat="42.3604550" lon="-2.4920670">
        <ele>521.0</ele>
        <time>2020-01-12T10:14:33Z</time>
      </trkpt>
      <trkpt lat="42.3604010" lon="-2.4921030">
        <ele>521.2</ele>
        <time>2020-01-12T10:14:34Z</time>
      </trkpt>
      <trkpt lat="42.3603480" lon="-2.4921330">
        <ele>521.2</ele>
        <time>2020-01-12T10:14:35Z</time>
      </trkpt>
      <trkpt lat="42.3602910" lon="-2.4921660">
        <ele>521.3</ele>
        <time>2020-01-12T10:14:36Z</time>
      </trkpt>
      <trkpt lat="42.3602450" lon="-2.4922140">
        <ele>521.4</ele>
        <time>2020-01-12T10:14:37Z</time>
      </trkpt>
      <trkpt lat="42.3601860" lon="-2.4922390">
        <ele>521.5</ele>
        <time>2020-01-12T10:14:38Z</time>
      </trkpt>
      <trkpt lat="42.3601360" lon="-2.4922730">
        <ele>521.6</ele>
        <time>2020-01-12T10:14:39Z</time>
      </trkpt>
      <trkpt lat="42.3600770" lon="-2.4922970">
        <ele>521.8</ele>
        <time>2020-01-12T10:14:40Z</time>
      </trkpt>
      <trkpt lat="42.3600190" lon="-2.4923260">
        <ele>521.9</ele>
        <time>2020-01-12T10:14:41Z</time>
      </trkpt>
      <trkpt lat="42.3599630" lon="-2.4923550">
        <ele>522.0</ele>
        <time>2020-01-12T10:14:42Z</time>
      </trkpt>
      <trkpt lat="42.3599200" lon="-2.4923970">
        <ele>522.1</ele>
        <time>2020-01-12T10:14:43Z</time>
      </trkpt>
      <trkpt lat="42.3598620" lon="-2.4924240">
        <ele>522.2</ele>
        <time>2020-01-12T10:14:44Z</time>
      </trkpt>
      <trkpt lat="42.3598100" lon="-2.4924560">
        <ele>522.2</ele>
        <time>2020-01-12T10:14:45Z</time>
      </trkpt>
      <trkpt lat="42.3597500" lon="-2.4924740">
        <ele>522.3</ele>
        <time>2020-01-12T10:14:46Z</time>
      </trkpt>
      <trkpt lat="42.3597000" lon="-2.4925140">
        <ele>522.3</ele>
        <time>2020-01-12T10:14:47Z</time>
      </trkpt>
      <trkpt lat="42.3596490" lon="-2.4925470">
        <ele>522.4</ele>
        <time>2020-01-12T10:14:48Z</time>
      </trkpt>
      <trkpt lat="42.3595890" lon="-2.4925690">
        <ele>522.5</ele>
        <time>2020-01-12T10:14:49Z</time>
      </trkpt>
      <trkpt lat="42.3595380" lon="-2.4925970">
        <ele>522.6</ele>
        <time>2020-01-12T10:14:50Z</time>
      </trkpt>
      <trkpt lat="42.3594810" lon="-2.4926310">
        <ele>522.8</ele>
        <time>2020-01-12T10:14:51Z</time>
      </trkpt>
      <trkpt lat="42.3594220" lon="-2.4926520">
        <ele>522.9</ele>
        <time>2020-01-12T10:14:52Z</time>
      </trkpt>
      <trkpt lat="42.3593640" lon="-2.4926770">
        <ele>523.0</ele>
        <time>2020-01-12T10:14:53Z</time>
      </trkpt>
      <trkpt lat="42.3593080" lon="-2.4927000">
        <ele>523.1</ele>
        <time>2020-01-12T10:14:54Z</time>
      </trkpt>
      <trkpt lat="42.3592530" lon="-2.4927310">
        <ele>523.1</ele>
        <time>2020-01-12T10:14:55Z</time>
      </trkpt>
      <trkpt lat="42.3591910" lon="-2.4927570">
        <ele>523.2</ele>
        <time>2020-01-12T10:14:56Z</time>
      </trkpt>
      <trkpt lat="42.3591230" lon="-2.4927760">
        <ele>523.2</ele>
        <time>2020-01-12T10:14:57Z</time>
      </trkpt>
      <trkpt lat="42.3590680" lon="-2.4928050">
        <ele>523.2</ele>
        <time>2020-01-12T10:14:58Z</time>
      </trkpt>
      <trkpt lat="42.3590160" lon="-2.4928420">
        <ele>523.2</ele>
        <time>2020-01-12T10:14:59Z</time>
      </trkpt>
      <trkpt lat="42.3589650" lon="-2.4928740">
        <ele>523.3</ele>
        <time>2020-01-12T10:15:00Z</time>
      </trkpt>
      <trkpt lat="42.3589060" lon="-2.4928990">
        <ele>523.4</ele>
        <time>2020-01-12T10:15:01Z</time>
      </trkpt>
      <trkpt lat="42.3588520" lon="-2.4929260">
        <ele>523.5</ele>
        <time>2020-01-12T10:15:02Z</time>
      </trkpt>
      <trkpt lat="42.3587960" lon="-2.4929600">
        <ele>523.6</ele>
        <time>2020-01-12T10:15:03Z</time>
      </trkpt>
      <trkpt lat="42.3587430" lon="-2.4929850">
        <ele>523.8</ele>
        <time>2020-01-12T10:15:04Z</time>
      </trkpt>
      <trkpt lat="42.3586860" lon="-2.4930150">
        <ele>523.9</ele>
        <time>2020-01-12T10:15:05Z</time>
      </trkpt>
      <trkpt lat="42.3586310" lon="-2.4930450">
        <ele>524.0</ele>
        <time>2020-01-12T10:15:06Z</time>
      </trkpt>
      <trkpt lat="42.3585790" lon="-2.4930720">
        <ele>524.1</ele>
        <time>2020-01-12T10:15:07Z</time>
      </trkpt>
      <trkpt lat="42.3585200" lon="-2.4931050">
        <ele>524.1</ele>
        <time>2020-01-12T10:15:08Z</time>
      </trkpt>
      <trkpt lat="42.3584690" lon="-2.4931350">
        <ele>524.2</ele>
        <time>2020-01-12T10:15:09Z</time>
      </trkpt>
      <trkpt lat="42.3584050" lon="-2.4931560">
        <ele>524.2</ele>
        <time>2020-01-12T10:15:10Z</time>
      </trkpt>
      <trkpt lat="42.3583520" lon="-2.4931870">
        <ele>524.3</ele>
        <time>2020-01-12T10:15:11Z</time>
      </trkpt>
      <trkpt lat="42.3582960" lon="-2.4932100">
        <ele>524.4</ele>
        <time>2020-01-12T10:15:12Z</time>
      </trkpt>
      <trkpt lat="42.3582530" lon="-2.4932450">
        <ele>524.5</ele>
        <time>2020-01-12T10:15:13Z</time>
      </trkpt>
      <trkpt lat="42.3582010" lon="-2.4932820">
        <ele>524.6</ele>
        <time>2020-01-12T10:15:14Z</time>
      </trkpt>
      <trkpt lat="42.3581480" lon="-2.4933120">
        <ele>524.7</ele>
        <time>2020-01-12T10:15:15Z</time>
      </trkpt>
      <trkpt lat="42.3580840" lon="-2.4933370">
        <ele>524.9</ele>
        <time>2020-01-12T10:15:16Z</time>
      </trkpt>
      <trkpt lat="42.3580280" lon="-2.4933710">
        <ele>525.0</ele>
        <time>2020-01-12T10:15:17Z</time>
      </trkpt>
      <trkpt lat="42.3579720" lon="-2.4933950">
        <ele>525.0</ele>
        <time>2020-01-12T10:15:18Z</time>
      </trkpt>
      <trkpt lat="42.3579150" lon="-2.4934160">
        <ele>525.1</ele>
        <time>2020-01-12T10:15:19Z</time>
      </trkpt>
      <trkpt lat="42.3578590" lon="-2.4934450">
        <ele>525.1</ele>
        <time>2020-01-12T10:15:20Z</time>
      </trkpt>
      <trkpt lat="42.3578070" lon="-2.4934710">
        <ele>525.1</ele>
        <time>2020-01-12T10:15:21Z</time>
      </trkpt>
      <trkpt lat="42.3577480" lon="-2.4935020">
        <ele>525.2</ele>
        <time>2020-01-12T10:15:22Z</time>
      </trkpt>
      <trkpt lat="42.3576980" lon="-2.4935300">
        <ele>525.2</ele>
        <time>2020-01-12T10:15:23Z</time>
      </trkpt>
      <trkpt lat="42.3576390" lon="-2.4935570">
        <ele>525.3</ele>
        <time>2020-01-12T10:15:24Z</time>
      </trkpt>
      <trkpt lat="42.3575870" lon="-2.4935880">
        <ele>525.4</ele>
        <time>2020-01-12T10:15:25Z</time>
      </trkpt>
      <trkpt lat="42.3575320" lon="-2.4936140">
        <ele>525.6</ele>
        <time>2020-01-12T10:15:26Z</time>
      </trkpt>
      <trkpt lat="42.3574760" lon="-2.4936480">
        <ele>525.7</ele>
        <time>2020-01-12T10:15:27Z</time>
      </trkpt>
      <trkpt lat="42.3574180" lon="-2.4936860">
        <ele>525.9</ele>
        <time>2020-01-12T10:15:28Z</time>
      </trkpt>
      <trkpt lat="42.3573630" lon="-2.4937160">
        <ele>526.0</ele>
        <time>2020-01-12T10:15:29Z</time>
      </trkpt>
      <trkpt lat="42.3573040" lon="-2.4937490">
        <ele>526.1</ele>
        <time>2020-01-12T10:15:30Z</time>
      </trkpt>
      <trkpt lat="42.3572480" lon="-2.4937750">
        <ele>526.1</ele>
        <time>2020-01-12T10:15:31Z</time>
      </trkpt>
      <trkpt lat="42.3571870" lon="-2.4938030">
        <ele>526.2</ele>
        <time>2020-01-12T10:15:32Z</time>
      </trkpt>
      <trkpt lat="42.3571330" lon="-2.4938310">
        <ele>526.2</ele>
        <time>2020-01-12T10:15:33Z</time>
      </trkpt>
      <trkpt lat="42.3570700" lon="-2.4938630">
        <ele>526.3</ele>
        <time>2020-01-12T10:15:34Z</time>
      </trkpt>
      <trkpt lat="42.3570160" lon="-2.4938970">
        <ele>526.5</ele>
        <time>2020-01-12T10:15:35Z</time>
      </trkpt>
      <trkpt lat="42.3569570" lon="-2.4939220">
        <ele>526.6</ele>
        <time>2020-01-12T10:15:36Z</time>
      </trkpt>
      <trkpt lat="42.3568890" lon="-2.4939470">
        <ele>526.8</ele>
        <time>2020-01-12T10:15:37Z</time>
      </trkpt>
      <trkpt lat="42.3568380" lon="-2.4939700">
        <ele>526.9</ele>
        <time>2020-01-12T10:15:38Z</time>
      </trkpt>
      <trkpt lat="42.3567880" lon="-2.4939950">
        <ele>527.0</ele>
        <time>2020-01-12T10:15:39Z</time>
      </trkpt>
      <trkpt lat="42.3567340" lon="-2.4940190">
        <ele>527.1</ele>
        <time>2020-01-12T10:15:40Z</time>
      </trkpt>
      <trkpt lat="42.3566740" lon="-2.4940580">
        <ele>527.1</ele>
        <time>2020-01-12T10:15:41Z</time>
      </trkpt>
      <trkpt lat="42.3566180" lon="-2.4940910">
        <ele>527.2</ele>
        <time>2020-01-12T10:15:42Z</time>
      </trkpt>
      <trkpt lat="42.3565630" lon="-2.4941260">
        <ele>527.3</ele>
        <time>2020-01-12T10:15:43Z</time>
      </trkpt>
      <trkpt lat="42.3565060" lon="-2.4941510">
        <ele>527.5</ele>
        <time>2020-01-12T10:15:44Z</time>
      </trkpt>
      <trkpt lat="42.3564540" lon="-2.4941840">
        <ele>527.6</ele>
        <time>2020-01-12T10:15:45Z</time>
      </trkpt>
      <trkpt lat="42.3563990" lon="-2.4942120">
        <ele>527.8</ele>
        <time>2020-01-12T10:15:46Z</time>
      </trkpt>
      <trkpt lat="42.3563420" lon="-2.4942410">
        <ele>527.9</ele>
        <time>2020-01-12T10:15:47Z</time>
      </trkpt>
      <trkpt lat="42.3562910" lon="-2.4942670">
        <ele>528.0</ele>
        <time>2020-01-12T10:15:48Z</time>
      </trkpt>
      <trkpt lat="42.3562360" lon="-2.4942990">
        <ele>528.0</ele>
        <time>2020-01-12T10:15:49Z</time>
      </trkpt>
      <trkpt lat="42.3561800" lon="-2.4943260">
        <ele>528.1</ele>
        <time>2020-01-12T10:15:50Z</time>
      </trkpt>
      <trkpt lat="42.3561270" lon="-2.4943560">
        <ele>528.1</ele>
        <time>2020-01-12T10:15:51Z</time>
      </trkpt>
      <trkpt lat="42.3560710" lon="-2.4943910">
        <ele>528.2</ele>
        <time>2020-01-12T10:15:52Z</time>
      </trkpt>
      <trkpt lat="42.3560210" lon="-2.4944280">
        <ele>528.3</ele>
        <time>2020-01-12T10:15:53Z</time>
      </trkpt>
      <trkpt lat="42.3559620" lon="-2.4944530">
        <ele>528.5</ele>
        <time>2020-01-12T10:15:54Z</time>
      </trkpt>
      <trkpt lat="42.3559050" lon="-2.4944800">
        <ele>528.6</ele>
        <time>2020-01-12T10:15:55Z</time>
      </trkpt>
      <trkpt lat="42.3558520" lon="-2.4945030">
        <ele>528.7</ele>
        <time>2020-01-12T10:15:56Z</time>
      </trkpt>
      <trkpt lat="42.3558000" lon="-2.4945340">
        <ele>528.8</ele>
        <time>2020-01-12T10:15:57Z</time>
      </trkpt>
      <trkpt lat="42.3557440" lon="-2.4945650">
        <ele>528.9</ele>
        <time>2020-01-12T10:15:58Z</time>
      </trkpt>
      <trkpt lat="42.3556940" lon="-2.4945940">
        <ele>529.0</ele>
        <time>2020-01-12T10:15:59Z</time>
      </trkpt>
      <trkpt lat="42.3556320" lon="-2.4946180">
        <ele>529.0</ele>
        <time>2020-01-12T10:16:00Z</time>
      </trkpt>
      <trkpt lat="42.3555730" lon="-2.4946480">
        <ele>529.1</ele>
        <time>2020-01-12T10:16:01Z</time>
      </trkpt>
      <trkpt lat="42.3555260" lon="-2.4946730">
        <ele>529.1</ele>
        <time>2020-01-12T10:16:02Z</time>
      </trkpt>
      <trkpt lat="42.3554710" lon="-2.4947070">
        <ele>529.1</ele>
        <time>2020-01-12T10:16:03Z</time>
      </trkpt>
      <trkpt lat="42.3554060" lon="-2.4947330">
        <ele>529.2</ele>
        <time>2020-01-12T10:16:04Z</time>
      </trkpt>
      <trkpt lat="42.3553560" lon="-2.4947610">
        <ele>529.3</ele>
        <time>2020-01-12T10:16:05Z</time>
      </trkpt>
      <trkpt lat="42.3553050" lon="-2.4947950">
        <ele>529.4</ele>
        <time>2020-01-12T10:16:06Z</time>
      </trkpt>
      <trkpt lat="42.3552510" lon="-2.4948160">
        <ele>529.6</ele>
        <time>2020-01-12T10:16:07Z</time>
      </trkpt>
      <trkpt lat="42.3551990" lon="-2.4948570">
        <ele>529.7</ele>
        <time>2020-01-12T10:16:08Z</time>
      </trkpt>
      <trkpt lat="42.3551420" lon="-2.4948820">
        <ele>529.8</ele>
        <time>2020-01-12T10:16:09Z</time>
      </trkpt>
      <trkpt lat="42.3550840" lon="-2.4949120">
        <ele>529.9</ele>
        <time>2020-01-12T10:16:10Z</time>
      </trkpt>
      <trkpt lat="42.3550270" lon="-2.4949400">
        <ele>530.0</ele>
        <time>2020-01-12T10:16:11Z</time>
      </trkpt>
      <trkpt lat="42.3549740" lon="-2.4949720">
        <ele>530.0</ele>
        <time>2020-01-12T10:16:12Z</time>
      </trkpt>
      <trkpt lat="42.3549210" lon="-2.4950010">
        <ele>530.0</ele>
        <time>2020-01-12T10:16:13Z</time>
      </trkpt>
      <trkpt lat="42.3548700" lon="-2.4950280">
        <ele>530.1</ele>
        <time>2020-01-12T10:16:14Z</time>
      </trkpt>
      <trkpt lat="42.3548230" lon="-2.4950630">
        <ele>530.1</ele>
        <time>2020-01-12T10:16:15Z</time>
      </trkpt>
      <trkpt lat="42.3547680" lon="-2.4950900">
        <ele>530.2</ele>
        <time>2020-01-12T10:16:16Z</time>
      </trkpt>
      <trkpt lat="42.3547050" lon="-2.4951190">
        <ele>530.4</ele>
        <time>2020-01-12T10:16:17Z</time>
      </trkpt>
      <trkpt lat="42.3546500" lon="-2.4951500">
        <ele>530.6</ele>
        <time>2020-01-12T10:16:18Z</time>
      </trkpt>
      <trkpt lat="42.3545860" lon="-2.4951780">
        <ele>530.7</ele>
        <time>2020-01-12T10:16:19Z</time>
      </trkpt>
      <trkpt lat="42.3545310" lon="-2.4952100">
        <ele>530.8</ele>
        <time>2020-01-12T10:16:20Z</time>
      </trkpt>
      <trkpt lat="42.3544760" lon="-2.4952450">
        <ele>530.9</ele>
        <time>2020-01-12T10:16:21Z</time>
      </trkpt>
      <trkpt lat="42.3544170" lon="-2.4952720">
        <ele>531.0</ele>
        <time>2020-01-12T10:16:22Z</time>
      </trkpt>
      <trkpt lat="42.3543550" lon="-2.4952990">
        <ele>531.2</ele>
        <time>2020-01-12T10:16:23Z</time>
      </trkpt>
      <trkpt lat="42.3543130" lon="-2.4953500">
        <ele>531.3</ele>
        <time>2020-01-12T10:16:24Z</time>
      </trkpt>
      <trkpt lat="42.3542700" lon="-2.4953860">
        <ele>531.4</ele>
        <time>2020-01-12T10:16:25Z</time>
      </trkpt>
      <trkpt lat="42.3542180" lon="-2.4954120">
        <ele>531.6</ele>
        <time>2020-01-12T10:16:26Z</time>
      </trkpt>
      <trkpt lat="42.3541660" lon="-2.4954400">
        <ele>531.7</ele>
        <time>2020-01-12T10:16:27Z</time>
      </trkpt>
      <trkpt lat="42.3541030" lon="-2.4954580">
        <ele>531.9</ele>
        <time>2020-01-12T10:16:28Z</time>
      </trkpt>
      <trkpt lat="42.3540500" lon="-2.4954880">
        <ele>532.0</ele>
        <time>2020-01-12T10:16:29Z</time>
      </trkpt>
      <trkpt lat="42.3539950" lon="-2.4955140">
        <ele>532.2</ele>
        <time>2020-01-12T10:16:30Z</time>
      </trkpt>
      <trkpt lat="42.3539310" lon="-2.4955430">
        <ele>532.4</ele>
        <time>2020-01-12T10:16:31Z</time>
      </trkpt>
      <trkpt lat="42.3538720" lon="-2.4955650">
        <ele>532.6</ele>
        <time>2020-01-12T10:16:32Z</time>
      </trkpt>
      <trkpt lat="42.3538220" lon="-2.4955870">
        <ele>532.7</ele>
        <time>2020-01-12T10:16:33Z</time>
      </trkpt>
      <trkpt lat="42.3537600" lon="-2.4956170">
        <ele>533.0</ele>
        <time>2020-01-12T10:16:34Z</time>
      </trkpt>
      <trkpt lat="42.3537060" lon="-2.4956490">
        <ele>533.2</ele>
        <time>2020-01-12T10:16:35Z</time>
      </trkpt>
      <trkpt lat="42.3536470" lon="-2.4956830">
        <ele>533.4</ele>
        <time>2020-01-12T10:16:36Z</time>
      </trkpt>
      <trkpt lat="42.3535880" lon="-2.4957200">
        <ele>533.6</ele>
        <time>2020-01-12T10:16:37Z</time>
      </trkpt>
      <trkpt lat="42.3535340" lon="-2.4957530">
        <ele>533.8</ele>
        <time>2020-01-12T10:16:38Z</time>
      </trkpt>
      <trkpt lat="42.3534750" lon="-2.4957900">
        <ele>533.9</ele>
        <time>2020-01-12T10:16:39Z</time>
      </trkpt>
      <trkpt lat="42.3534110" lon="-2.4958170">
        <ele>534.0</ele>
        <time>2020-01-12T10:16:40Z</time>
      </trkpt>
      <trkpt lat="42.3533680" lon="-2.4958490">
        <ele>534.0</ele>
        <time>2020-01-12T10:16:41Z</time>
      </trkpt>
      <trkpt lat="42.3533200" lon="-2.4958710">
        <ele>534.0</ele>
        <time>2020-01-12T10:16:42Z</time>
      </trkpt>
      <trkpt lat="42.3532660" lon="-2.4958970">
        <ele>534.0</ele>
        <time>2020-01-12T10:16:43Z</time>
      </trkpt>
      <trkpt lat="42.3532070" lon="-2.4959350">
        <ele>534.0</ele>
        <time>2020-01-12T10:16:44Z</time>
      </trkpt>
      <trkpt lat="42.3531420" lon="-2.4959560">
        <ele>534.0</ele>
        <time>2020-01-12T10:16:45Z</time>
      </trkpt>
      <trkpt lat="42.3530730" lon="-2.4959780">
        <ele>534.0</ele>
        <time>2020-01-12T10:16:46Z</time>
      </trkpt>
      <trkpt lat="42.3530140" lon="-2.4960050">
        <ele>534.0</ele>
        <time>2020-01-12T10:16:47Z</time>
      </trkpt>
      <trkpt lat="42.3529550" lon="-2.4960420">
        <ele>534.1</ele>
        <time>2020-01-12T10:16:48Z</time>
      </trkpt>
      <trkpt lat="42.3528960" lon="-2.4960800">
        <ele>534.1</ele>
        <time>2020-01-12T10:16:49Z</time>
      </trkpt>
      <trkpt lat="42.3528420" lon="-2.4961120">
        <ele>534.2</ele>
        <time>2020-01-12T10:16:50Z</time>
      </trkpt>
      <trkpt lat="42.3527880" lon="-2.4961330">
        <ele>534.3</ele>
        <time>2020-01-12T10:16:51Z</time>
      </trkpt>
      <trkpt lat="42.3527290" lon="-2.4961660">
        <ele>534.5</ele>
        <time>2020-01-12T10:16:52Z</time>
      </trkpt>
      <trkpt lat="42.3526600" lon="-2.4961920">
        <ele>534.7</ele>
        <time>2020-01-12T10:16:53Z</time>
      </trkpt>
      <trkpt lat="42.3526110" lon="-2.4962090">
        <ele>534.8</ele>
        <time>2020-01-12T10:16:54Z</time>
      </trkpt>
      <trkpt lat="42.3525580" lon="-2.4962460">
        <ele>534.9</ele>
        <time>2020-01-12T10:16:55Z</time>
      </trkpt>
      <trkpt lat="42.3524990" lon="-2.4962780">
        <ele>535.0</ele>
        <time>2020-01-12T10:16:56Z</time>
      </trkpt>
      <trkpt lat="42.3524500" lon="-2.4963160">
        <ele>535.0</ele>
        <time>2020-01-12T10:16:57Z</time>
      </trkpt>
      <trkpt lat="42.3523910" lon="-2.4963480">
        <ele>535.0</ele>
        <time>2020-01-12T10:16:58Z</time>
      </trkpt>
      <trkpt lat="42.3523380" lon="-2.4963800">
        <ele>535.0</ele>
        <time>2020-01-12T10:16:59Z</time>
      </trkpt>
      <trkpt lat="42.3522730" lon="-2.4964070">
        <ele>535.1</ele>
        <time>2020-01-12T10:17:00Z</time>
      </trkpt>
      <trkpt lat="42.3522250" lon="-2.4964340">
        <ele>535.1</ele>
        <time>2020-01-12T10:17:01Z</time>
      </trkpt>
      <trkpt lat="42.3521660" lon="-2.4964660">
        <ele>535.1</ele>
        <time>2020-01-12T10:17:02Z</time>
      </trkpt>
      <trkpt lat="42.3521130" lon="-2.4964930">
        <ele>535.2</ele>
        <time>2020-01-12T10:17:03Z</time>
      </trkpt>
      <trkpt lat="42.3520640" lon="-2.4965250">
        <ele>535.4</ele>
        <time>2020-01-12T10:17:04Z</time>
      </trkpt>
      <trkpt lat="42.3520110" lon="-2.4965570">
        <ele>535.5</ele>
        <time>2020-01-12T10:17:05Z</time>
      </trkpt>
      <trkpt lat="42.3519620" lon="-2.4965890">
        <ele>535.7</ele>
        <time>2020-01-12T10:17:06Z</time>
      </trkpt>
      <trkpt lat="42.3519190" lon="-2.4966320">
        <ele>535.9</ele>
        <time>2020-01-12T10:17:07Z</time>
      </trkpt>
      <trkpt lat="42.3518710" lon="-2.4966480">
        <ele>536.1</ele>
        <time>2020-01-12T10:17:08Z</time>
      </trkpt>
      <trkpt lat="42.3518280" lon="-2.4966750">
        <ele>536.3</ele>
        <time>2020-01-12T10:17:09Z</time>
      </trkpt>
      <trkpt lat="42.3517800" lon="-2.4966910">
        <ele>536.5</ele>
        <time>2020-01-12T10:17:10Z</time>
      </trkpt>
      <trkpt lat="42.3517370" lon="-2.4967070">
        <ele>536.7</ele>
        <time>2020-01-12T10:17:11Z</time>
      </trkpt>
      <trkpt lat="42.3517100" lon="-2.4967290">
        <ele>537.1</ele>
        <time>2020-01-12T10:17:12Z</time>
      </trkpt>
      <trkpt lat="42.3517100" lon="-2.4967790">
        <ele>537.4</ele>
        <time>2020-01-12T10:17:13Z</time>
      </trkpt>
      <trkpt lat="42.3517320" lon="-2.4968580">
        <ele>538.0</ele>
        <time>2020-01-12T10:17:15Z</time>
      </trkpt>
      <trkpt lat="42.3517420" lon="-2.4969060">
        <ele>538.4</ele>
        <time>2020-01-12T10:17:16Z</time>
      </trkpt>
      <trkpt lat="42.3517580" lon="-2.4969430">
        <ele>538.7</ele>
        <time>2020-01-12T10:17:17Z</time>
      </trkpt>
      <trkpt lat="42.3517720" lon="-2.4969890">
        <ele>539.1</ele>
        <time>2020-01-12T10:17:18Z</time>
      </trkpt>
      <trkpt lat="42.3518170" lon="-2.4970400">
        <ele>539.6</ele>
        <time>2020-01-12T10:17:20Z</time>
      </trkpt>
      <trkpt lat="42.3518500" lon="-2.4970400">
        <ele>539.2</ele>
        <time>2020-01-12T10:17:21Z</time>
      </trkpt>
      <trkpt lat="42.3518820" lon="-2.4970720">
        <ele>538.9</ele>
        <time>2020-01-12T10:17:22Z</time>
      </trkpt>
      <trkpt lat="42.3519160" lon="-2.4970510">
        <ele>538.7</ele>
        <time>2020-01-12T10:17:23Z</time>
      </trkpt>
      <trkpt lat="42.3519460" lon="-2.4970400">
        <ele>538.6</ele>
        <time>2020-01-12T10:17:24Z</time>
      </trkpt>
      <trkpt lat="42.3520000" lon="-2.4970020">
        <ele>538.3</ele>
        <time>2020-01-12T10:17:26Z</time>
      </trkpt>
      <trkpt lat="42.3520360" lon="-2.4969580">
        <ele>538.2</ele>
        <time>2020-01-12T10:17:27Z</time>
      </trkpt>
      <trkpt lat="42.3520960" lon="-2.4969380">
        <ele>537.9</ele>
        <time>2020-01-12T10:17:28Z</time>
      </trkpt>
      <trkpt lat="42.3521320" lon="-2.4969130">
        <ele>537.8</ele>
        <time>2020-01-12T10:17:29Z</time>
      </trkpt>
      <trkpt lat="42.3521880" lon="-2.4968930">
        <ele>537.6</ele>
        <time>2020-01-12T10:17:30Z</time>
      </trkpt>
      <trkpt lat="42.3522040" lon="-2.4968580">
        <ele>537.6</ele>
        <time>2020-01-12T10:17:31Z</time>
      </trkpt>
      <trkpt lat="42.3522190" lon="-2.4968270">
        <ele>537.5</ele>
        <time>2020-01-12T10:17:32Z</time>
      </trkpt>
      <trkpt lat="42.3522680" lon="-2.4968050">
        <ele>537.4</ele>
        <time>2020-01-12T10:17:33Z</time>
      </trkpt>
      <trkpt lat="42.3523120" lon="-2.4967670">
        <ele>537.2</ele>
        <time>2020-01-12T10:17:34Z</time>
      </trkpt>
      <trkpt lat="42.3523470" lon="-2.4967430">
        <ele>537.2</ele>
        <time>2020-01-12T10:17:35Z</time>
      </trkpt>
      <trkpt lat="42.3523800" lon="-2.4967300">
        <ele>537.1</ele>
        <time>2020-01-12T10:17:36Z</time>
      </trkpt>
      <trkpt lat="42.3524340" lon="-2.4967130">
        <ele>537.0</ele>
        <time>2020-01-12T10:17:37Z</time>
      </trkpt>
      <trkpt lat="42.3524550" lon="-2.4966770">
        <ele>536.9</ele>
        <time>2020-01-12T10:17:38Z</time>
      </trkpt>
      <trkpt lat="42.3524900" lon="-2.4966450">
        <ele>536.8</ele>
        <time>2020-01-12T10:17:39Z</time>
      </trkpt>
      <trkpt lat="42.3524980" lon="-2.4965600">
        <ele>536.7</ele>
        <time>2020-01-12T10:17:40Z</time>
      </trkpt>
      <trkpt lat="42.3525030" lon="-2.4965230">
        <ele>536.6</ele>
        <time>2020-01-12T10:17:41Z</time>
      </trkpt>
      <trkpt lat="42.3525140" lon="-2.4964750">
        <ele>536.5</ele>
        <time>2020-01-12T10:17:42Z</time>
      </trkpt>
      <trkpt lat="42.3525090" lon="-2.4964280">
        <ele>536.4</ele>
        <time>2020-01-12T10:17:43Z</time>
      </trkpt>
      <trkpt lat="42.3525120" lon="-2.4963860">
        <ele>536.3</ele>
        <time>2020-01-12T10:17:44Z</time>
      </trkpt>
      <trkpt lat="42.3525150" lon="-2.4963370">
        <ele>536.0</ele>
        <time>2020-01-12T10:17:45Z</time>
      </trkpt>
      <trkpt lat="42.3525150" lon="-2.4962890">
        <ele>535.8</ele>
        <time>2020-01-12T10:17:46Z</time>
      </trkpt>
      <trkpt lat="42.3525150" lon="-2.4962460">
        <ele>535.7</ele>
        <time>2020-01-12T10:17:47Z</time>
      </trkpt>
      <trkpt lat="42.3525150" lon="-2.4961980">
        <ele>535.5</ele>
        <time>2020-01-12T10:17:48Z</time>
      </trkpt>
      <trkpt lat="42.3525200" lon="-2.4961500">
        <ele>535.4</ele>
        <time>2020-01-12T10:17:49Z</time>
      </trkpt>
      <trkpt lat="42.3523790" lon="-2.4960940">
        <ele>534.7</ele>
        <time>2020-01-12T10:17:51Z</time>
      </trkpt>
      <trkpt lat="42.3523080" lon="-2.4959640">
        <ele>534.0</ele>
        <time>2020-01-12T10:17:52Z</time>
      </trkpt>
      <trkpt lat="42.3522370" lon="-2.4959090">
        <ele>533.8</ele>
        <time>2020-01-12T10:17:53Z</time>
      </trkpt>
      <trkpt lat="42.3521880" lon="-2.4958810">
        <ele>533.7</ele>
        <time>2020-01-12T10:17:54Z</time>
      </trkpt>
      <trkpt lat="42.3521550" lon="-2.4958760">
        <ele>533.6</ele>
        <time>2020-01-12T10:17:55Z</time>
      </trkpt>
      <trkpt lat="42.3520990" lon="-2.4958640">
        <ele>533.5</ele>
        <time>2020-01-12T10:17:56Z</time>
      </trkpt>
      <trkpt lat="42.3520530" lon="-2.4958840">
        <ele>533.5</ele>
        <time>2020-01-12T10:17:57Z</time>
      </trkpt>
      <trkpt lat="42.3520320" lon="-2.4959280">
        <ele>533.4</ele>
        <time>2020-01-12T10:17:58Z</time>
      </trkpt>
      <trkpt lat="42.3519840" lon="-2.4959470">
        <ele>533.4</ele>
        <time>2020-01-12T10:17:59Z</time>
      </trkpt>
      <trkpt lat="42.3519530" lon="-2.4959780">
        <ele>533.4</ele>
        <time>2020-01-12T10:18:00Z</time>
      </trkpt>
      <trkpt lat="42.3519170" lon="-2.4960120">
        <ele>533.3</ele>
        <time>2020-01-12T10:18:01Z</time>
      </trkpt>
      <trkpt lat="42.3518800" lon="-2.4960390">
        <ele>533.3</ele>
        <time>2020-01-12T10:18:02Z</time>
      </trkpt>
      <trkpt lat="42.3518360" lon="-2.4960520">
        <ele>533.3</ele>
        <time>2020-01-12T10:18:03Z</time>
      </trkpt>
      <trkpt lat="42.3517900" lon="-2.4960600">
        <ele>533.3</ele>
        <time>2020-01-12T10:18:04Z</time>
      </trkpt>
      <trkpt lat="42.3517530" lon="-2.4960850">
        <ele>533.3</ele>
        <time>2020-01-12T10:18:05Z</time>
      </trkpt>
      <trkpt lat="42.3517270" lon="-2.4961030">
        <ele>533.3</ele>
        <time>2020-01-12T10:18:06Z</time>
      </trkpt>
      <trkpt lat="42.3516890" lon="-2.4961220">
        <ele>533.3</ele>
        <time>2020-01-12T10:18:07Z</time>
      </trkpt>
      <trkpt lat="42.3516470" lon="-2.4961450">
        <ele>533.3</ele>
        <time>2020-01-12T10:18:08Z</time>
      </trkpt>
      <trkpt lat="42.3515970" lon="-2.4961520">
        <ele>533.2</ele>
        <time>2020-01-12T10:18:09Z</time>
      </trkpt>
      <trkpt lat="42.3515490" lon="-2.4961440">
        <ele>533.2</ele>
        <time>2020-01-12T10:18:10Z</time>
      </trkpt>
      <trkpt lat="42.3515130" lon="-2.4961200">
        <ele>533.3</ele>
        <time>2020-01-12T10:18:11Z</time>
      </trkpt>
      <trkpt lat="42.3514800" lon="-2.4960920">
        <ele>533.3</ele>
        <time>2020-01-12T10:18:12Z</time>
      </trkpt>
      <trkpt lat="42.3514460" lon="-2.4960440">
        <ele>533.3</ele>
        <time>2020-01-12T10:18:13Z</time>
      </trkpt>
      <trkpt lat="42.3514170" lon="-2.4959970">
        <ele>533.3</ele>
        <time>2020-01-12T10:18:14Z</time>
      </trkpt>
      <trkpt lat="42.3513970" lon="-2.4959370">
        <ele>533.3</ele>
        <time>2020-01-12T10:18:15Z</time>
      </trkpt>
      <trkpt lat="42.3513780" lon="-2.4958870">
        <ele>533.3</ele>
        <time>2020-01-12T10:18:16Z</time>
      </trkpt>
      <trkpt lat="42.3513650" lon="-2.4958250">
        <ele>533.3</ele>
        <time>2020-01-12T10:18:17Z</time>
      </trkpt>
      <trkpt lat="42.3513520" lon="-2.4957830">
        <ele>533.3</ele>
        <time>2020-01-12T10:18:18Z</time>
      </trkpt>
      <trkpt lat="42.3513270" lon="-2.4957250">
        <ele>533.3</ele>
        <time>2020-01-12T10:18:19Z</time>
      </trkpt>
      <trkpt lat="42.3513130" lon="-2.4956690">
        <ele>533.3</ele>
        <time>2020-01-12T10:18:20Z</time>
      </trkpt>
      <trkpt lat="42.3512930" lon="-2.4956010">
        <ele>533.3</ele>
        <time>2020-01-12T10:18:21Z</time>
      </trkpt>
      <trkpt lat="42.3512570" lon="-2.4955390">
        <ele>533.3</ele>
        <time>2020-01-12T10:18:22Z</time>
      </trkpt>
      <trkpt lat="42.3512300" lon="-2.4954780">
        <ele>533.3</ele>
        <time>2020-01-12T10:18:23Z</time>
      </trkpt>
      <trkpt lat="42.3511970" lon="-2.4954170">
        <ele>533.3</ele>
        <time>2020-01-12T10:18:24Z</time>
      </trkpt>
      <trkpt lat="42.3511850" lon="-2.4953540">
        <ele>533.3</ele>
        <time>2020-01-12T10:18:25Z</time>
      </trkpt>
      <trkpt lat="42.3511700" lon="-2.4953030">
        <ele>533.3</ele>
        <time>2020-01-12T10:18:26Z</time>
      </trkpt>
      <trkpt lat="42.3511570" lon="-2.4952590">
        <ele>533.3</ele>
        <time>2020-01-12T10:18:27Z</time>
      </trkpt>
      <trkpt lat="42.3511150" lon="-2.4952050">
        <ele>533.3</ele>
        <time>2020-01-12T10:18:28Z</time>
      </trkpt>
      <trkpt lat="42.3510950" lon="-2.4951530">
        <ele>533.2</ele>
        <time>2020-01-12T10:18:29Z</time>
      </trkpt>
      <trkpt lat="42.3510610" lon="-2.4951000">
        <ele>533.2</ele>
        <time>2020-01-12T10:18:30Z</time>
      </trkpt>
      <trkpt lat="42.3510370" lon="-2.4950410">
        <ele>533.2</ele>
        <time>2020-01-12T10:18:31Z</time>
      </trkpt>
      <trkpt lat="42.3510150" lon="-2.4949780">
        <ele>533.1</ele>
        <time>2020-01-12T10:18:32Z</time>
      </trkpt>
      <trkpt lat="42.3509900" lon="-2.4949180">
        <ele>533.1</ele>
        <time>2020-01-12T10:18:33Z</time>
      </trkpt>
      <trkpt lat="42.3509640" lon="-2.4948540">
        <ele>533.1</ele>
        <time>2020-01-12T10:18:34Z</time>
      </trkpt>
      <trkpt lat="42.3509440" lon="-2.4947940">
        <ele>533.0</ele>
        <time>2020-01-12T10:18:35Z</time>
      </trkpt>
      <trkpt lat="42.3509250" lon="-2.4947390">
        <ele>533.0</ele>
        <time>2020-01-12T10:18:36Z</time>
      </trkpt>
      <trkpt lat="42.3509110" lon="-2.4947020">
        <ele>532.9</ele>
        <time>2020-01-12T10:18:37Z</time>
      </trkpt>
      <trkpt lat="42.3509000" lon="-2.4946480">
        <ele>532.9</ele>
        <time>2020-01-12T10:18:38Z</time>
      </trkpt>
      <trkpt lat="42.3508880" lon="-2.4946110">
        <ele>532.8</ele>
        <time>2020-01-12T10:18:39Z</time>
      </trkpt>
      <trkpt lat="42.3508660" lon="-2.4945710">
        <ele>532.7</ele>
        <time>2020-01-12T10:18:41Z</time>
      </trkpt>
      <trkpt lat="42.3508220" lon="-2.4946200">
        <ele>533.1</ele>
        <time>2020-01-12T10:18:43Z</time>
      </trkpt>
      <trkpt lat="42.3507880" lon="-2.4946420">
        <ele>533.2</ele>
        <time>2020-01-12T10:18:44Z</time>
      </trkpt>
      <trkpt lat="42.3507530" lon="-2.4946710">
        <ele>533.4</ele>
        <time>2020-01-12T10:18:45Z</time>
      </trkpt>
      <trkpt lat="42.3507220" lon="-2.4947150">
        <ele>533.6</ele>
        <time>2020-01-12T10:18:46Z</time>
      </trkpt>
      <trkpt lat="42.3506870" lon="-2.4947630">
        <ele>533.8</ele>
        <time>2020-01-12T10:18:47Z</time>
      </trkpt>
      <trkpt lat="42.3506620" lon="-2.4948120">
        <ele>533.9</ele>
        <time>2020-01-12T10:18:48Z</time>
      </trkpt>
      <trkpt lat="42.3506310" lon="-2.4948570">
        <ele>534.0</ele>
        <time>2020-01-12T10:18:49Z</time>
      </trkpt>
      <trkpt lat="42.3505990" lon="-2.4949050">
        <ele>534.1</ele>
        <time>2020-01-12T10:18:50Z</time>
      </trkpt>
      <trkpt lat="42.3505630" lon="-2.4949530">
        <ele>534.3</ele>
        <time>2020-01-12T10:18:51Z</time>
      </trkpt>
      <trkpt lat="42.3505340" lon="-2.4950080">
        <ele>534.4</ele>
        <time>2020-01-12T10:18:52Z</time>
      </trkpt>
      <trkpt lat="42.3504980" lon="-2.4950550">
        <ele>534.5</ele>
        <time>2020-01-12T10:18:53Z</time>
      </trkpt>
      <trkpt lat="42.3504590" lon="-2.4951040">
        <ele>534.5</ele>
        <time>2020-01-12T10:18:54Z</time>
      </trkpt>
      <trkpt lat="42.3504100" lon="-2.4951410">
        <ele>534.6</ele>
        <time>2020-01-12T10:18:55Z</time>
      </trkpt>
      <trkpt lat="42.3503670" lon="-2.4951780">
        <ele>534.6</ele>
        <time>2020-01-12T10:18:56Z</time>
      </trkpt>
      <trkpt lat="42.3503240" lon="-2.4952190">
        <ele>534.6</ele>
        <time>2020-01-12T10:18:57Z</time>
      </trkpt>
      <trkpt lat="42.3502820" lon="-2.4952630">
        <ele>534.7</ele>
        <time>2020-01-12T10:18:58Z</time>
      </trkpt>
      <trkpt lat="42.3502400" lon="-2.4953070">
        <ele>534.7</ele>
        <time>2020-01-12T10:18:59Z</time>
      </trkpt>
      <trkpt lat="42.3501960" lon="-2.4953430">
        <ele>534.7</ele>
        <time>2020-01-12T10:19:00Z</time>
      </trkpt>
      <trkpt lat="42.3501450" lon="-2.4953770">
        <ele>534.8</ele>
        <time>2020-01-12T10:19:01Z</time>
      </trkpt>
      <trkpt lat="42.3500980" lon="-2.4954080">
        <ele>534.8</ele>
        <time>2020-01-12T10:19:02Z</time>
      </trkpt>
      <trkpt lat="42.3500470" lon="-2.4954370">
        <ele>534.8</ele>
        <time>2020-01-12T10:19:03Z</time>
      </trkpt>
      <trkpt lat="42.3499960" lon="-2.4954640">
        <ele>534.9</ele>
        <time>2020-01-12T10:19:04Z</time>
      </trkpt>
      <trkpt lat="42.3499450" lon="-2.4954840">
        <ele>534.9</ele>
        <time>2020-01-12T10:19:05Z</time>
      </trkpt>
      <trkpt lat="42.3499010" lon="-2.4955100">
        <ele>534.9</ele>
        <time>2020-01-12T10:19:06Z</time>
      </trkpt>
      <trkpt lat="42.3498510" lon="-2.4955430">
        <ele>535.0</ele>
        <time>2020-01-12T10:19:07Z</time>
      </trkpt>
      <trkpt lat="42.3497950" lon="-2.4955670">
        <ele>535.0</ele>
        <time>2020-01-12T10:19:08Z</time>
      </trkpt>
      <trkpt lat="42.3497420" lon="-2.4956060">
        <ele>535.0</ele>
        <time>2020-01-12T10:19:09Z</time>
      </trkpt>
      <trkpt lat="42.3496990" lon="-2.4956510">
        <ele>535.1</ele>
        <time>2020-01-12T10:19:10Z</time>
      </trkpt>
      <trkpt lat="42.3496460" lon="-2.4956880">
        <ele>535.2</ele>
        <time>2020-01-12T10:19:11Z</time>
      </trkpt>
      <trkpt lat="42.3495930" lon="-2.4957240">
        <ele>535.2</ele>
        <time>2020-01-12T10:19:12Z</time>
      </trkpt>
      <trkpt lat="42.3495360" lon="-2.4957610">
        <ele>535.3</ele>
        <time>2020-01-12T10:19:13Z</time>
      </trkpt>
      <trkpt lat="42.3494860" lon="-2.4958060">
        <ele>535.4</ele>
        <time>2020-01-12T10:19:14Z</time>
      </trkpt>
      <trkpt lat="42.3494360" lon="-2.4958380">
        <ele>535.4</ele>
        <time>2020-01-12T10:19:15Z</time>
      </trkpt>
      <trkpt lat="42.3493800" lon="-2.4958770">
        <ele>535.4</ele>
        <time>2020-01-12T10:19:16Z</time>
      </trkpt>
      <trkpt lat="42.3493170" lon="-2.4959010">
        <ele>535.5</ele>
        <time>2020-01-12T10:19:17Z</time>
      </trkpt>
      <trkpt lat="42.3492870" lon="-2.4959510">
        <ele>535.5</ele>
        <time>2020-01-12T10:19:18Z</time>
      </trkpt>
      <trkpt lat="42.3492430" lon="-2.4959940">
        <ele>535.6</ele>
        <time>2020-01-12T10:19:19Z</time>
      </trkpt>
      <trkpt lat="42.3492030" lon="-2.4960460">
        <ele>535.6</ele>
        <time>2020-01-12T10:19:20Z</time>
      </trkpt>
      <trkpt lat="42.3491670" lon="-2.4960800">
        <ele>535.7</ele>
        <time>2020-01-12T10:19:21Z</time>
      </trkpt>
      <trkpt lat="42.3491290" lon="-2.4961230">
        <ele>535.8</ele>
        <time>2020-01-12T10:19:22Z</time>
      </trkpt>
      <trkpt lat="42.3490860" lon="-2.4961620">
        <ele>535.8</ele>
        <time>2020-01-12T10:19:23Z</time>
      </trkpt>
      <trkpt lat="42.3490420" lon="-2.4961940">
        <ele>535.9</ele>
        <time>2020-01-12T10:19:24Z</time>
      </trkpt>
      <trkpt lat="42.3490010" lon="-2.4962190">
        <ele>536.0</ele>
        <time>2020-01-12T10:19:25Z</time>
      </trkpt>
      <trkpt lat="42.3489600" lon="-2.4962370">
        <ele>536.0</ele>
        <time>2020-01-12T10:19:26Z</time>
      </trkpt>
      <trkpt lat="42.3489250" lon="-2.4962620">
        <ele>536.1</ele>
        <time>2020-01-12T10:19:27Z</time>
      </trkpt>
      <trkpt lat="42.3488850" lon="-2.4962620">
        <ele>536.1</ele>
        <time>2020-01-12T10:19:28Z</time>
      </trkpt>
      <trkpt lat="42.3488430" lon="-2.4962550">
        <ele>536.2</ele>
        <time>2020-01-12T10:19:29Z</time>
      </trkpt>
      <trkpt lat="42.3488130" lon="-2.4962250">
        <ele>536.2</ele>
        <time>2020-01-12T10:19:30Z</time>
      </trkpt>
      <trkpt lat="42.3487920" lon="-2.4961850">
        <ele>536.2</ele>
        <time>2020-01-12T10:19:31Z</time>
      </trkpt>
      <trkpt lat="42.3487660" lon="-2.4961400">
        <ele>536.2</ele>
        <time>2020-01-12T10:19:32Z</time>
      </trkpt>
      <trkpt lat="42.3487370" lon="-2.4960800">
        <ele>536.2</ele>
        <time>2020-01-12T10:19:33Z</time>
      </trkpt>
      <trkpt lat="42.3487090" lon="-2.4960220">
        <ele>536.2</ele>
        <time>2020-01-12T10:19:34Z</time>
      </trkpt>
      <trkpt lat="42.3486740" lon="-2.4959540">
        <ele>536.1</ele>
        <time>2020-01-12T10:19:35Z</time>
      </trkpt>
      <trkpt lat="42.3486470" lon="-2.4958870">
        <ele>536.1</ele>
        <time>2020-01-12T10:19:36Z</time>
      </trkpt>
      <trkpt lat="42.3486150" lon="-2.4958220">
        <ele>535.9</ele>
        <time>2020-01-12T10:19:37Z</time>
      </trkpt>
      <trkpt lat="42.3485730" lon="-2.4957620">
        <ele>535.8</ele>
        <time>2020-01-12T10:19:38Z</time>
      </trkpt>
      <trkpt lat="42.3485370" lon="-2.4957010">
        <ele>535.6</ele>
        <time>2020-01-12T10:19:39Z</time>
      </trkpt>
      <trkpt lat="42.3484870" lon="-2.4956340">
        <ele>535.4</ele>
        <time>2020-01-12T10:19:40Z</time>
      </trkpt>
      <trkpt lat="42.3484380" lon="-2.4955650">
        <ele>535.3</ele>
        <time>2020-01-12T10:19:41Z</time>
      </trkpt>
      <trkpt lat="42.3484000" lon="-2.4954950">
        <ele>535.2</ele>
        <time>2020-01-12T10:19:42Z</time>
      </trkpt>
      <trkpt lat="42.3483640" lon="-2.4954260">
        <ele>535.2</ele>
        <time>2020-01-12T10:19:43Z</time>
      </trkpt>
      <trkpt lat="42.3483280" lon="-2.4953590">
        <ele>535.2</ele>
        <time>2020-01-12T10:19:44Z</time>
      </trkpt>
      <trkpt lat="42.3482970" lon="-2.4952870">
        <ele>535.2</ele>
        <time>2020-01-12T10:19:45Z</time>
      </trkpt>
      <trkpt lat="42.3482660" lon="-2.4952210">
        <ele>535.2</ele>
        <time>2020-01-12T10:19:46Z</time>
      </trkpt>
      <trkpt lat="42.3482290" lon="-2.4951410">
        <ele>535.2</ele>
        <time>2020-01-12T10:19:47Z</time>
      </trkpt>
      <trkpt lat="42.3481970" lon="-2.4950550">
        <ele>535.2</ele>
        <time>2020-01-12T10:19:48Z</time>
      </trkpt>
      <trkpt lat="42.3481540" lon="-2.4949800">
        <ele>535.2</ele>
        <time>2020-01-12T10:19:49Z</time>
      </trkpt>
      <trkpt lat="42.3481270" lon="-2.4949210">
        <ele>535.2</ele>
        <time>2020-01-12T10:19:50Z</time>
      </trkpt>
      <trkpt lat="42.3480890" lon="-2.4948570">
        <ele>535.2</ele>
        <time>2020-01-12T10:19:51Z</time>
      </trkpt>
      <trkpt lat="42.3480680" lon="-2.4947980">
        <ele>535.2</ele>
        <time>2020-01-12T10:19:52Z</time>
      </trkpt>
      <trkpt lat="42.3480360" lon="-2.4947330">
        <ele>535.2</ele>
        <time>2020-01-12T10:19:53Z</time>
      </trkpt>
      <trkpt lat="42.3480030" lon="-2.4946640">
        <ele>535.2</ele>
        <time>2020-01-12T10:19:54Z</time>
      </trkpt>
      <trkpt lat="42.3479770" lon="-2.4945990">
        <ele>535.1</ele>
        <time>2020-01-12T10:19:55Z</time>
      </trkpt>
      <trkpt lat="42.3479390" lon="-2.4945130">
        <ele>535.1</ele>
        <time>2020-01-12T10:19:56Z</time>
      </trkpt>
      <trkpt lat="42.3479120" lon="-2.4944760">
        <ele>535.1</ele>
        <time>2020-01-12T10:19:57Z</time>
      </trkpt>
      <trkpt lat="42.3478750" lon="-2.4944170">
        <ele>535.1</ele>
        <time>2020-01-12T10:19:58Z</time>
      </trkpt>
      <trkpt lat="42.3478260" lon="-2.4943420">
        <ele>535.1</ele>
        <time>2020-01-12T10:20:00Z</time>
      </trkpt>
      <trkpt lat="42.3477680" lon="-2.4942670">
        <ele>535.1</ele>
        <time>2020-01-12T10:20:01Z</time>
      </trkpt>
      <trkpt lat="42.3477440" lon="-2.4942340">
        <ele>535.1</ele>
        <time>2020-01-12T10:20:02Z</time>
      </trkpt>
      <trkpt lat="42.3477100" lon="-2.4941790">
        <ele>535.1</ele>
        <time>2020-01-12T10:20:03Z</time>
      </trkpt>
      <trkpt lat="42.3476910" lon="-2.4941360">
        <ele>535.1</ele>
        <time>2020-01-12T10:20:04Z</time>
      </trkpt>
      <trkpt lat="42.3476590" lon="-2.4940970">
        <ele>535.1</ele>
        <time>2020-01-12T10:20:05Z</time>
      </trkpt>
      <trkpt lat="42.3476310" lon="-2.4940640">
        <ele>535.1</ele>
        <time>2020-01-12T10:20:06Z</time>
      </trkpt>
      <trkpt lat="42.3475980" lon="-2.4940240">
        <ele>535.1</ele>
        <time>2020-01-12T10:20:08Z</time>
      </trkpt>
      <trkpt lat="42.3475720" lon="-2.4940030">
        <ele>535.1</ele>
        <time>2020-01-12T10:20:09Z</time>
      </trkpt>
      <trkpt lat="42.3475390" lon="-2.4939690">
        <ele>535.1</ele>
        <time>2020-01-12T10:20:11Z</time>
      </trkpt>
      <trkpt lat="42.3475140" lon="-2.4939240">
        <ele>535.1</ele>
        <time>2020-01-12T10:20:13Z</time>
      </trkpt>
      <trkpt lat="42.3475530" lon="-2.4939180">
        <ele>535.1</ele>
        <time>2020-01-12T10:20:18Z</time>
      </trkpt>
      <trkpt lat="42.3475790" lon="-2.4939050">
        <ele>535.1</ele>
        <time>2020-01-12T10:20:54Z</time>
      </trkpt>
      <trkpt lat="42.3476160" lon="-2.4939080">
        <ele>535.1</ele>
        <time>2020-01-12T10:20:56Z</time>
      </trkpt>
      <trkpt lat="42.3476320" lon="-2.4939040">
        <ele>535.1</ele>
        <time>2020-01-12T10:21:04Z</time>
      </trkpt>
      <trkpt lat="42.3476590" lon="-2.4938680">
        <ele>535.1</ele>
        <time>2020-01-12T10:21:17Z</time>
      </trkpt>
      <trkpt lat="42.3476870" lon="-2.4938310">
        <ele>535.0</ele>
        <time>2020-01-12T10:21:33Z</time>
      </trkpt>
      <trkpt lat="42.3477140" lon="-2.4937940">
        <ele>535.0</ele>
        <time>2020-01-12T10:21:34Z</time>
      </trkpt>
      <trkpt lat="42.3477460" lon="-2.4937520">
        <ele>535.0</ele>
        <time>2020-01-12T10:21:35Z</time>
      </trkpt>
      <trkpt lat="42.3477760" lon="-2.4937200">
        <ele>535.0</ele>
        <time>2020-01-12T10:21:36Z</time>
      </trkpt>
      <trkpt lat="42.3478050" lon="-2.4937050">
        <ele>535.0</ele>
        <time>2020-01-12T10:21:37Z</time>
      </trkpt>
      <trkpt lat="42.3478590" lon="-2.4936660">
        <ele>535.0</ele>
        <time>2020-01-12T10:21:39Z</time>
      </trkpt>
      <trkpt lat="42.3478910" lon="-2.4935910">
        <ele>535.0</ele>
        <time>2020-01-12T10:21:42Z</time>
      </trkpt>
      <trkpt lat="42.3479120" lon="-2.4935670">
        <ele>535.0</ele>
        <time>2020-01-12T10:21:43Z</time>
      </trkpt>
      <trkpt lat="42.3479600" lon="-2.4935370">
        <ele>535.0</ele>
        <time>2020-01-12T10:21:45Z</time>
      </trkpt>
      <trkpt lat="42.3479990" lon="-2.4935070">
        <ele>535.0</ele>
        <time>2020-01-12T10:21:46Z</time>
      </trkpt>
      <trkpt lat="42.3480150" lon="-2.4934640">
        <ele>535.0</ele>
        <time>2020-01-12T10:21:48Z</time>
      </trkpt>
      <trkpt lat="42.3480090" lon="-2.4934190">
        <ele>535.0</ele>
        <time>2020-01-12T10:21:49Z</time>
      </trkpt>
      <trkpt lat="42.3480300" lon="-2.4933920">
        <ele>535.0</ele>
        <time>2020-01-12T10:21:50Z</time>
      </trkpt>
      <trkpt lat="42.3480680" lon="-2.4933650">
        <ele>535.0</ele>
        <time>2020-01-12T10:21:52Z</time>
      </trkpt>
      <trkpt lat="42.3480750" lon="-2.4933270">
        <ele>535.0</ele>
        <time>2020-01-12T10:21:53Z</time>
      </trkpt>
      <trkpt lat="42.3480890" lon="-2.4932900">
        <ele>535.0</ele>
        <time>2020-01-12T10:21:54Z</time>
      </trkpt>
      <trkpt lat="42.3480680" lon="-2.4932260">
        <ele>535.0</ele>
        <time>2020-01-12T10:21:56Z</time>
      </trkpt>
      <trkpt lat="42.3480620" lon="-2.4931880">
        <ele>534.9</ele>
        <time>2020-01-12T10:21:57Z</time>
      </trkpt>
      <trkpt lat="42.3480680" lon="-2.4931400">
        <ele>534.9</ele>
        <time>2020-01-12T10:21:58Z</time>
      </trkpt>
      <trkpt lat="42.3481000" lon="-2.4931190">
        <ele>534.9</ele>
        <time>2020-01-12T10:21:59Z</time>
      </trkpt>
      <trkpt lat="42.3481010" lon="-2.4930700">
        <ele>534.8</ele>
        <time>2020-01-12T10:22:00Z</time>
      </trkpt>
      <trkpt lat="42.3481270" lon="-2.4930170">
        <ele>534.8</ele>
        <time>2020-01-12T10:22:02Z</time>
      </trkpt>
      <trkpt lat="42.3481480" lon="-2.4929740">
        <ele>534.8</ele>
        <time>2020-01-12T10:22:03Z</time>
      </trkpt>
      <trkpt lat="42.3481800" lon="-2.4929260">
        <ele>534.7</ele>
        <time>2020-01-12T10:22:05Z</time>
      </trkpt>
      <trkpt lat="42.3482100" lon="-2.4928900">
        <ele>534.7</ele>
        <time>2020-01-12T10:22:06Z</time>
      </trkpt>
      <trkpt lat="42.3482450" lon="-2.4928770">
        <ele>534.6</ele>
        <time>2020-01-12T10:22:07Z</time>
      </trkpt>
      <trkpt lat="42.3482630" lon="-2.4928470">
        <ele>534.6</ele>
        <time>2020-01-12T10:22:08Z</time>
      </trkpt>
      <trkpt lat="42.3483100" lon="-2.4928060">
        <ele>534.5</ele>
        <time>2020-01-12T10:22:10Z</time>
      </trkpt>
      <trkpt lat="42.3483310" lon="-2.4927800">
        <ele>534.5</ele>
        <time>2020-01-12T10:22:11Z</time>
      </trkpt>
      <trkpt lat="42.3483650" lon="-2.4927280">
        <ele>534.4</ele>
        <time>2020-01-12T10:22:13Z</time>
      </trkpt>
      <trkpt lat="42.3483850" lon="-2.4926820">
        <ele>534.4</ele>
        <time>2020-01-12T10:22:15Z</time>
      </trkpt>
      <trkpt lat="42.3484080" lon="-2.4926490">
        <ele>534.3</ele>
        <time>2020-01-12T10:22:16Z</time>
      </trkpt>
      <trkpt lat="42.3484330" lon="-2.4926310">
        <ele>534.3</ele>
        <time>2020-01-12T10:22:17Z</time>
      </trkpt>
      <trkpt lat="42.3484210" lon="-2.4925990">
        <ele>534.3</ele>
        <time>2020-01-12T10:22:19Z</time>
      </trkpt>
      <trkpt lat="42.3478320" lon="-2.4937460">
        <ele>535.0</ele>
        <time>2020-01-12T12:22:37Z</time>
      </trkpt>
      <trkpt lat="42.3477450" lon="-2.4938420">
        <ele>535.0</ele>
        <time>2020-01-12T12:22:38Z</time>
      </trkpt>
      <trkpt lat="42.3477290" lon="-2.4939000">
        <ele>535.0</ele>
        <time>2020-01-12T12:22:39Z</time>
      </trkpt>
      <trkpt lat="42.3476740" lon="-2.4939260">
        <ele>535.1</ele>
        <time>2020-01-12T12:22:40Z</time>
      </trkpt>
      <trkpt lat="42.3476440" lon="-2.4939560">
        <ele>535.1</ele>
        <time>2020-01-12T12:22:41Z</time>
      </trkpt>
      <trkpt lat="42.3476190" lon="-2.4939890">
        <ele>535.1</ele>
        <time>2020-01-12T12:22:42Z</time>
      </trkpt>
      <trkpt lat="42.3476170" lon="-2.4939390">
        <ele>535.0</ele>
        <time>2020-01-12T12:22:43Z</time>
      </trkpt>
      <trkpt lat="42.3475990" lon="-2.4939900">
        <ele>535.1</ele>
        <time>2020-01-12T12:22:46Z</time>
      </trkpt>
      <trkpt lat="42.3476040" lon="-2.4940280">
        <ele>535.1</ele>
        <time>2020-01-12T12:22:47Z</time>
      </trkpt>
      <trkpt lat="42.3476330" lon="-2.4940200">
        <ele>535.1</ele>
        <time>2020-01-12T12:22:48Z</time>
      </trkpt>
      <trkpt lat="42.3476310" lon="-2.4940840">
        <ele>535.1</ele>
        <time>2020-01-12T12:22:49Z</time>
      </trkpt>
      <trkpt lat="42.3476510" lon="-2.4941180">
        <ele>535.1</ele>
        <time>2020-01-12T12:22:50Z</time>
      </trkpt>
      <trkpt lat="42.3476920" lon="-2.4941270">
        <ele>535.1</ele>
        <time>2020-01-12T12:22:51Z</time>
      </trkpt>
      <trkpt lat="42.3477230" lon="-2.4941550">
        <ele>535.1</ele>
        <time>2020-01-12T12:22:52Z</time>
      </trkpt>
      <trkpt lat="42.3477510" lon="-2.4942020">
        <ele>535.1</ele>
        <time>2020-01-12T12:22:53Z</time>
      </trkpt>
      <trkpt lat="42.3477770" lon="-2.4942400">
        <ele>535.1</ele>
        <time>2020-01-12T12:22:54Z</time>
      </trkpt>
      <trkpt lat="42.3478080" lon="-2.4942780">
        <ele>535.1</ele>
        <time>2020-01-12T12:22:55Z</time>
      </trkpt>
      <trkpt lat="42.3478300" lon="-2.4943360">
        <ele>535.1</ele>
        <time>2020-01-12T12:22:56Z</time>
      </trkpt>
      <trkpt lat="42.3478520" lon="-2.4943830">
        <ele>535.1</ele>
        <time>2020-01-12T12:22:57Z</time>
      </trkpt>
      <trkpt lat="42.3478800" lon="-2.4944440">
        <ele>535.1</ele>
        <time>2020-01-12T12:22:58Z</time>
      </trkpt>
      <trkpt lat="42.3479120" lon="-2.4944980">
        <ele>535.1</ele>
        <time>2020-01-12T12:22:59Z</time>
      </trkpt>
      <trkpt lat="42.3479500" lon="-2.4945480">
        <ele>535.1</ele>
        <time>2020-01-12T12:23:00Z</time>
      </trkpt>
      <trkpt lat="42.3479790" lon="-2.4946040">
        <ele>535.1</ele>
        <time>2020-01-12T12:23:01Z</time>
      </trkpt>
      <trkpt lat="42.3480160" lon="-2.4946510">
        <ele>535.1</ele>
        <time>2020-01-12T12:23:02Z</time>
      </trkpt>
      <trkpt lat="42.3480520" lon="-2.4947010">
        <ele>535.2</ele>
        <time>2020-01-12T12:23:03Z</time>
      </trkpt>
      <trkpt lat="42.3480660" lon="-2.4947530">
        <ele>535.2</ele>
        <time>2020-01-12T12:23:04Z</time>
      </trkpt>
      <trkpt lat="42.3481210" lon="-2.4948100">
        <ele>535.2</ele>
        <time>2020-01-12T12:23:05Z</time>
      </trkpt>
      <trkpt lat="42.3481480" lon="-2.4948540">
        <ele>535.2</ele>
        <time>2020-01-12T12:23:06Z</time>
      </trkpt>
      <trkpt lat="42.3481670" lon="-2.4948990">
        <ele>535.2</ele>
        <time>2020-01-12T12:23:07Z</time>
      </trkpt>
      <trkpt lat="42.3481980" lon="-2.4949540">
        <ele>535.2</ele>
        <time>2020-01-12T12:23:08Z</time>
      </trkpt>
      <trkpt lat="42.3482290" lon="-2.4950020">
        <ele>535.2</ele>
        <time>2020-01-12T12:23:09Z</time>
      </trkpt>
      <trkpt lat="42.3482620" lon="-2.4950540">
        <ele>535.2</ele>
        <time>2020-01-12T12:23:10Z</time>
      </trkpt>
      <trkpt lat="42.3482800" lon="-2.4951070">
        <ele>535.2</ele>
        <time>2020-01-12T12:23:11Z</time>
      </trkpt>
      <trkpt lat="42.3483010" lon="-2.4951600">
        <ele>535.2</ele>
        <time>2020-01-12T12:23:12Z</time>
      </trkpt>
      <trkpt lat="42.3483140" lon="-2.4952150">
        <ele>535.2</ele>
        <time>2020-01-12T12:23:13Z</time>
      </trkpt>
      <trkpt lat="42.3483340" lon="-2.4952710">
        <ele>535.2</ele>
        <time>2020-01-12T12:23:14Z</time>
      </trkpt>
      <trkpt lat="42.3483540" lon="-2.4953210">
        <ele>535.2</ele>
        <time>2020-01-12T12:23:15Z</time>
      </trkpt>
      <trkpt lat="42.3483840" lon="-2.4953690">
        <ele>535.2</ele>
        <time>2020-01-12T12:23:16Z</time>
      </trkpt>
      <trkpt lat="42.3484390" lon="-2.4954160">
        <ele>535.2</ele>
        <time>2020-01-12T12:23:18Z</time>
      </trkpt>
      <trkpt lat="42.3484670" lon="-2.4954550">
        <ele>535.2</ele>
        <time>2020-01-12T12:23:19Z</time>
      </trkpt>
      <trkpt lat="42.3484850" lon="-2.4955090">
        <ele>535.2</ele>
        <time>2020-01-12T12:23:20Z</time>
      </trkpt>
      <trkpt lat="42.3484970" lon="-2.4955490">
        <ele>535.3</ele>
        <time>2020-01-12T12:23:21Z</time>
      </trkpt>
      <trkpt lat="42.3485090" lon="-2.4956030">
        <ele>535.3</ele>
        <time>2020-01-12T12:23:22Z</time>
      </trkpt>
      <trkpt lat="42.3485420" lon="-2.4956470">
        <ele>535.4</ele>
        <time>2020-01-12T12:23:23Z</time>
      </trkpt>
      <trkpt lat="42.3485650" lon="-2.4956850">
        <ele>535.5</ele>
        <time>2020-01-12T12:23:24Z</time>
      </trkpt>
      <trkpt lat="42.3485700" lon="-2.4957400">
        <ele>535.6</ele>
        <time>2020-01-12T12:23:26Z</time>
      </trkpt>
      <trkpt lat="42.3485780" lon="-2.4958150">
        <ele>535.7</ele>
        <time>2020-01-12T12:23:28Z</time>
      </trkpt>
      <trkpt lat="42.3486330" lon="-2.4958380">
        <ele>535.9</ele>
        <time>2020-01-12T12:23:29Z</time>
      </trkpt>
      <trkpt lat="42.3486750" lon="-2.4958860">
        <ele>536.0</ele>
        <time>2020-01-12T12:23:30Z</time>
      </trkpt>
      <trkpt lat="42.3486790" lon="-2.4959410">
        <ele>536.1</ele>
        <time>2020-01-12T12:23:31Z</time>
      </trkpt>
      <trkpt lat="42.3486910" lon="-2.4960350">
        <ele>536.1</ele>
        <time>2020-01-12T12:23:32Z</time>
      </trkpt>
      <trkpt lat="42.3487200" lon="-2.4960890">
        <ele>536.2</ele>
        <time>2020-01-12T12:23:33Z</time>
      </trkpt>
      <trkpt lat="42.3487650" lon="-2.4961070">
        <ele>536.2</ele>
        <time>2020-01-12T12:23:34Z</time>
      </trkpt>
      <trkpt lat="42.3488020" lon="-2.4961890">
        <ele>536.2</ele>
        <time>2020-01-12T12:23:36Z</time>
      </trkpt>
      <trkpt lat="42.3488620" lon="-2.4961920">
        <ele>536.2</ele>
        <time>2020-01-12T12:23:37Z</time>
      </trkpt>
      <trkpt lat="42.3489100" lon="-2.4962270">
        <ele>536.2</ele>
        <time>2020-01-12T12:23:41Z</time>
      </trkpt>
      <trkpt lat="42.3489410" lon="-2.4961750">
        <ele>536.0</ele>
        <time>2020-01-12T12:23:42Z</time>
      </trkpt>
      <trkpt lat="42.3489940" lon="-2.4961550">
        <ele>535.9</ele>
        <time>2020-01-12T12:23:44Z</time>
      </trkpt>
      <trkpt lat="42.3490200" lon="-2.4961330">
        <ele>535.9</ele>
        <time>2020-01-12T12:23:45Z</time>
      </trkpt>
      <trkpt lat="42.3490630" lon="-2.4960870">
        <ele>535.9</ele>
        <time>2020-01-12T12:23:46Z</time>
      </trkpt>
      <trkpt lat="42.3490970" lon="-2.4960380">
        <ele>535.8</ele>
        <time>2020-01-12T12:23:47Z</time>
      </trkpt>
      <trkpt lat="42.3491300" lon="-2.4959990">
        <ele>535.7</ele>
        <time>2020-01-12T12:23:48Z</time>
      </trkpt>
      <trkpt lat="42.3493370" lon="-2.4959660">
        <ele>535.5</ele>
        <time>2020-01-12T12:23:50Z</time>
      </trkpt>
      <trkpt lat="42.3492720" lon="-2.4959110">
        <ele>535.5</ele>
        <time>2020-01-12T12:23:51Z</time>
      </trkpt>
      <trkpt lat="42.3493350" lon="-2.4958660">
        <ele>535.4</ele>
        <time>2020-01-12T12:23:52Z</time>
      </trkpt>
      <trkpt lat="42.3493460" lon="-2.4958250">
        <ele>535.4</ele>
        <time>2020-01-12T12:23:53Z</time>
      </trkpt>
      <trkpt lat="42.3493970" lon="-2.4957760">
        <ele>535.4</ele>
        <time>2020-01-12T12:23:54Z</time>
      </trkpt>
      <trkpt lat="42.3494410" lon="-2.4957380">
        <ele>535.3</ele>
        <time>2020-01-12T12:23:55Z</time>
      </trkpt>
      <trkpt lat="42.3494830" lon="-2.4956990">
        <ele>535.3</ele>
        <time>2020-01-12T12:23:56Z</time>
      </trkpt>
      <trkpt lat="42.3495370" lon="-2.4956570">
        <ele>535.2</ele>
        <time>2020-01-12T12:23:57Z</time>
      </trkpt>
      <trkpt lat="42.3495800" lon="-2.4956160">
        <ele>535.1</ele>
        <time>2020-01-12T12:23:58Z</time>
      </trkpt>
      <trkpt lat="42.3496790" lon="-2.4955980">
        <ele>535.0</ele>
        <time>2020-01-12T12:23:59Z</time>
      </trkpt>
      <trkpt lat="42.3497420" lon="-2.4955660">
        <ele>535.0</ele>
        <time>2020-01-12T12:24:00Z</time>
      </trkpt>
      <trkpt lat="42.3497290" lon="-2.4955240">
        <ele>535.0</ele>
        <time>2020-01-12T12:24:01Z</time>
      </trkpt>
      <trkpt lat="42.3498550" lon="-2.4955110">
        <ele>534.9</ele>
        <time>2020-01-12T12:24:02Z</time>
      </trkpt>
      <trkpt lat="42.3499160" lon="-2.4954900">
        <ele>534.9</ele>
        <time>2020-01-12T12:24:03Z</time>
      </trkpt>
      <trkpt lat="42.3499510" lon="-2.4954520">
        <ele>534.9</ele>
        <time>2020-01-12T12:24:04Z</time>
      </trkpt>
      <trkpt lat="42.3499920" lon="-2.4954240">
        <ele>534.8</ele>
        <time>2020-01-12T12:24:05Z</time>
      </trkpt>
      <trkpt lat="42.3500310" lon="-2.4953920">
        <ele>534.8</ele>
        <time>2020-01-12T12:24:06Z</time>
      </trkpt>
      <trkpt lat="42.3500780" lon="-2.4953590">
        <ele>534.8</ele>
        <time>2020-01-12T12:24:07Z</time>
      </trkpt>
      <trkpt lat="42.3501470" lon="-2.4953160">
        <ele>534.7</ele>
        <time>2020-01-12T12:24:08Z</time>
      </trkpt>
      <trkpt lat="42.3501870" lon="-2.4952750">
        <ele>534.7</ele>
        <time>2020-01-12T12:24:09Z</time>
      </trkpt>
      <trkpt lat="42.3502350" lon="-2.4952350">
        <ele>534.7</ele>
        <time>2020-01-12T12:24:10Z</time>
      </trkpt>
      <trkpt lat="42.3502780" lon="-2.4951890">
        <ele>534.6</ele>
        <time>2020-01-12T12:24:11Z</time>
      </trkpt>
      <trkpt lat="42.3502870" lon="-2.4951540">
        <ele>534.6</ele>
        <time>2020-01-12T12:24:12Z</time>
      </trkpt>
      <trkpt lat="42.3503230" lon="-2.4951160">
        <ele>534.6</ele>
        <time>2020-01-12T12:24:13Z</time>
      </trkpt>
      <trkpt lat="42.3503510" lon="-2.4950700">
        <ele>534.5</ele>
        <time>2020-01-12T12:24:14Z</time>
      </trkpt>
      <trkpt lat="42.3504070" lon="-2.4950230">
        <ele>534.5</ele>
        <time>2020-01-12T12:24:15Z</time>
      </trkpt>
      <trkpt lat="42.3504220" lon="-2.4949630">
        <ele>534.4</ele>
        <time>2020-01-12T12:24:16Z</time>
      </trkpt>
      <trkpt lat="42.3504630" lon="-2.4949100">
        <ele>534.4</ele>
        <time>2020-01-12T12:24:17Z</time>
      </trkpt>
      <trkpt lat="42.3505430" lon="-2.4948580">
        <ele>534.1</ele>
        <time>2020-01-12T12:24:18Z</time>
      </trkpt>
      <trkpt lat="42.3506030" lon="-2.4948460">
        <ele>534.0</ele>
        <time>2020-01-12T12:24:19Z</time>
      </trkpt>
      <trkpt lat="42.3506590" lon="-2.4947870">
        <ele>533.8</ele>
        <time>2020-01-12T12:24:20Z</time>
      </trkpt>
      <trkpt lat="42.3507070" lon="-2.4947340">
        <ele>533.7</ele>
        <time>2020-01-12T12:24:21Z</time>
      </trkpt>
      <trkpt lat="42.3507600" lon="-2.4947070">
        <ele>533.4</ele>
        <time>2020-01-12T12:24:22Z</time>
      </trkpt>
      <trkpt lat="42.3508180" lon="-2.4946690">
        <ele>533.2</ele>
        <time>2020-01-12T12:24:23Z</time>
      </trkpt>
      <trkpt lat="42.3508630" lon="-2.4946260">
        <ele>533.0</ele>
        <time>2020-01-12T12:24:25Z</time>
      </trkpt>
      <trkpt lat="42.3509130" lon="-2.4946060">
        <ele>532.8</ele>
        <time>2020-01-12T12:24:26Z</time>
      </trkpt>
      <trkpt lat="42.3509470" lon="-2.4946240">
        <ele>532.7</ele>
        <time>2020-01-12T12:24:27Z</time>
      </trkpt>
      <trkpt lat="42.3509760" lon="-2.4946580">
        <ele>532.8</ele>
        <time>2020-01-12T12:24:28Z</time>
      </trkpt>
      <trkpt lat="42.3509930" lon="-2.4946900">
        <ele>532.9</ele>
        <time>2020-01-12T12:24:29Z</time>
      </trkpt>
      <trkpt lat="42.3510060" lon="-2.4947310">
        <ele>532.9</ele>
        <time>2020-01-12T12:24:30Z</time>
      </trkpt>
      <trkpt lat="42.3510290" lon="-2.4948080">
        <ele>533.0</ele>
        <time>2020-01-12T12:24:31Z</time>
      </trkpt>
      <trkpt lat="42.3510690" lon="-2.4948270">
        <ele>533.0</ele>
        <time>2020-01-12T12:24:32Z</time>
      </trkpt>
      <trkpt lat="42.3510880" lon="-2.4949240">
        <ele>533.1</ele>
        <time>2020-01-12T12:24:33Z</time>
      </trkpt>
      <trkpt lat="42.3510970" lon="-2.4949730">
        <ele>533.1</ele>
        <time>2020-01-12T12:24:34Z</time>
      </trkpt>
      <trkpt lat="42.3511010" lon="-2.4950520">
        <ele>533.2</ele>
        <time>2020-01-12T12:24:35Z</time>
      </trkpt>
      <trkpt lat="42.3511280" lon="-2.4951320">
        <ele>533.2</ele>
        <time>2020-01-12T12:24:36Z</time>
      </trkpt>
      <trkpt lat="42.3511520" lon="-2.4952050">
        <ele>533.3</ele>
        <time>2020-01-12T12:24:37Z</time>
      </trkpt>
      <trkpt lat="42.3511900" lon="-2.4952770">
        <ele>533.3</ele>
        <time>2020-01-12T12:24:38Z</time>
      </trkpt>
      <trkpt lat="42.3512170" lon="-2.4953510">
        <ele>533.3</ele>
        <time>2020-01-12T12:24:39Z</time>
      </trkpt>
      <trkpt lat="42.3512430" lon="-2.4954130">
        <ele>533.3</ele>
        <time>2020-01-12T12:24:40Z</time>
      </trkpt>
      <trkpt lat="42.3512560" lon="-2.4954790">
        <ele>533.3</ele>
        <time>2020-01-12T12:24:41Z</time>
      </trkpt>
      <trkpt lat="42.3512810" lon="-2.4955490">
        <ele>533.3</ele>
        <time>2020-01-12T12:24:42Z</time>
      </trkpt>
      <trkpt lat="42.3513130" lon="-2.4956210">
        <ele>533.3</ele>
        <time>2020-01-12T12:24:43Z</time>
      </trkpt>
      <trkpt lat="42.3513460" lon="-2.4956600">
        <ele>533.3</ele>
        <time>2020-01-12T12:24:44Z</time>
      </trkpt>
      <trkpt lat="42.3513680" lon="-2.4957020">
        <ele>533.3</ele>
        <time>2020-01-12T12:24:45Z</time>
      </trkpt>
      <trkpt lat="42.3513890" lon="-2.4957880">
        <ele>533.3</ele>
        <time>2020-01-12T12:24:46Z</time>
      </trkpt>
      <trkpt lat="42.3514040" lon="-2.4958540">
        <ele>533.3</ele>
        <time>2020-01-12T12:24:47Z</time>
      </trkpt>
      <trkpt lat="42.3513970" lon="-2.4959250">
        <ele>533.3</ele>
        <time>2020-01-12T12:24:48Z</time>
      </trkpt>
      <trkpt lat="42.3514260" lon="-2.4960190">
        <ele>533.3</ele>
        <time>2020-01-12T12:24:49Z</time>
      </trkpt>
      <trkpt lat="42.3514390" lon="-2.4961120">
        <ele>533.3</ele>
        <time>2020-01-12T12:24:50Z</time>
      </trkpt>
      <trkpt lat="42.3514560" lon="-2.4961660">
        <ele>533.3</ele>
        <time>2020-01-12T12:24:51Z</time>
      </trkpt>
      <trkpt lat="42.3514740" lon="-2.4962130">
        <ele>533.2</ele>
        <time>2020-01-12T12:24:52Z</time>
      </trkpt>
      <trkpt lat="42.3515150" lon="-2.4962730">
        <ele>533.6</ele>
        <time>2020-01-12T12:24:54Z</time>
      </trkpt>
      <trkpt lat="42.3515330" lon="-2.4963190">
        <ele>533.8</ele>
        <time>2020-01-12T12:24:55Z</time>
      </trkpt>
      <trkpt lat="42.3515440" lon="-2.4963730">
        <ele>534.1</ele>
        <time>2020-01-12T12:24:56Z</time>
      </trkpt>
      <trkpt lat="42.3515650" lon="-2.4964100">
        <ele>534.3</ele>
        <time>2020-01-12T12:24:57Z</time>
      </trkpt>
      <trkpt lat="42.3515760" lon="-2.4964450">
        <ele>534.5</ele>
        <time>2020-01-12T12:24:58Z</time>
      </trkpt>
      <trkpt lat="42.3516040" lon="-2.4964950">
        <ele>535.1</ele>
        <time>2020-01-12T12:25:00Z</time>
      </trkpt>
      <trkpt lat="42.3516530" lon="-2.4965010">
        <ele>535.0</ele>
        <time>2020-01-12T12:25:01Z</time>
      </trkpt>
      <trkpt lat="42.3516970" lon="-2.4964580">
        <ele>534.9</ele>
        <time>2020-01-12T12:25:02Z</time>
      </trkpt>
      <trkpt lat="42.3517320" lon="-2.4964340">
        <ele>534.8</ele>
        <time>2020-01-12T12:25:03Z</time>
      </trkpt>
      <trkpt lat="42.3517720" lon="-2.4964020">
        <ele>534.7</ele>
        <time>2020-01-12T12:25:04Z</time>
      </trkpt>
      <trkpt lat="42.3518230" lon="-2.4963740">
        <ele>534.5</ele>
        <time>2020-01-12T12:25:05Z</time>
      </trkpt>
      <trkpt lat="42.3518790" lon="-2.4963480">
        <ele>534.3</ele>
        <time>2020-01-12T12:25:06Z</time>
      </trkpt>
      <trkpt lat="42.3519340" lon="-2.4963190">
        <ele>534.2</ele>
        <time>2020-01-12T12:25:07Z</time>
      </trkpt>
      <trkpt lat="42.3519930" lon="-2.4962840">
        <ele>534.0</ele>
        <time>2020-01-12T12:25:08Z</time>
      </trkpt>
      <trkpt lat="42.3520590" lon="-2.4962520">
        <ele>533.8</ele>
        <time>2020-01-12T12:25:09Z</time>
      </trkpt>
      <trkpt lat="42.3521230" lon="-2.4962200">
        <ele>533.6</ele>
        <time>2020-01-12T12:25:10Z</time>
      </trkpt>
      <trkpt lat="42.3521830" lon="-2.4961850">
        <ele>533.4</ele>
        <time>2020-01-12T12:25:11Z</time>
      </trkpt>
      <trkpt lat="42.3522480" lon="-2.4961470">
        <ele>533.2</ele>
        <time>2020-01-12T12:25:12Z</time>
      </trkpt>
      <trkpt lat="42.3523190" lon="-2.4961230">
        <ele>532.9</ele>
        <time>2020-01-12T12:25:13Z</time>
      </trkpt>
      <trkpt lat="42.3523930" lon="-2.4960860">
        <ele>532.7</ele>
        <time>2020-01-12T12:25:14Z</time>
      </trkpt>
      <trkpt lat="42.3524650" lon="-2.4960470">
        <ele>532.5</ele>
        <time>2020-01-12T12:25:15Z</time>
      </trkpt>
      <trkpt lat="42.3525300" lon="-2.4960140">
        <ele>532.3</ele>
        <time>2020-01-12T12:25:16Z</time>
      </trkpt>
      <trkpt lat="42.3526000" lon="-2.4959740">
        <ele>532.1</ele>
        <time>2020-01-12T12:25:17Z</time>
      </trkpt>
      <trkpt lat="42.3526740" lon="-2.4959330">
        <ele>531.9</ele>
        <time>2020-01-12T12:25:18Z</time>
      </trkpt>
      <trkpt lat="42.3527470" lon="-2.4958890">
        <ele>531.7</ele>
        <time>2020-01-12T12:25:19Z</time>
      </trkpt>
      <trkpt lat="42.3528240" lon="-2.4958500">
        <ele>531.6</ele>
        <time>2020-01-12T12:25:20Z</time>
      </trkpt>
      <trkpt lat="42.3528970" lon="-2.4958090">
        <ele>531.4</ele>
        <time>2020-01-12T12:25:21Z</time>
      </trkpt>
      <trkpt lat="42.3529830" lon="-2.4957690">
        <ele>531.3</ele>
        <time>2020-01-12T12:25:22Z</time>
      </trkpt>
      <trkpt lat="42.3530620" lon="-2.4957170">
        <ele>531.1</ele>
        <time>2020-01-12T12:25:23Z</time>
      </trkpt>
      <trkpt lat="42.3531350" lon="-2.4956750">
        <ele>531.0</ele>
        <time>2020-01-12T12:25:24Z</time>
      </trkpt>
      <trkpt lat="42.3532140" lon="-2.4956340">
        <ele>530.9</ele>
        <time>2020-01-12T12:25:25Z</time>
      </trkpt>
      <trkpt lat="42.3532930" lon="-2.4955920">
        <ele>530.7</ele>
        <time>2020-01-12T12:25:26Z</time>
      </trkpt>
      <trkpt lat="42.3533710" lon="-2.4955480">
        <ele>530.6</ele>
        <time>2020-01-12T12:25:27Z</time>
      </trkpt>
      <trkpt lat="42.3534540" lon="-2.4955000">
        <ele>530.4</ele>
        <time>2020-01-12T12:25:28Z</time>
      </trkpt>
      <trkpt lat="42.3535330" lon="-2.4954550">
        <ele>530.3</ele>
        <time>2020-01-12T12:25:29Z</time>
      </trkpt>
      <trkpt lat="42.3536010" lon="-2.4954110">
        <ele>530.2</ele>
        <time>2020-01-12T12:25:30Z</time>
      </trkpt>
      <trkpt lat="42.3536840" lon="-2.4953700">
        <ele>530.2</ele>
        <time>2020-01-12T12:25:31Z</time>
      </trkpt>
      <trkpt lat="42.3537480" lon="-2.4953260">
        <ele>530.2</ele>
        <time>2020-01-12T12:25:32Z</time>
      </trkpt>
      <trkpt lat="42.3538240" lon="-2.4952860">
        <ele>530.1</ele>
        <time>2020-01-12T12:25:33Z</time>
      </trkpt>
      <trkpt lat="42.3539000" lon="-2.4952420">
        <ele>530.0</ele>
        <time>2020-01-12T12:25:34Z</time>
      </trkpt>
      <trkpt lat="42.3539740" lon="-2.4952040">
        <ele>529.9</ele>
        <time>2020-01-12T12:25:35Z</time>
      </trkpt>
      <trkpt lat="42.3540440" lon="-2.4951660">
        <ele>529.7</ele>
        <time>2020-01-12T12:25:36Z</time>
      </trkpt>
      <trkpt lat="42.3541220" lon="-2.4951270">
        <ele>529.6</ele>
        <time>2020-01-12T12:25:37Z</time>
      </trkpt>
      <trkpt lat="42.3541890" lon="-2.4950840">
        <ele>529.4</ele>
        <time>2020-01-12T12:25:38Z</time>
      </trkpt>
      <trkpt lat="42.3542730" lon="-2.4950460">
        <ele>529.3</ele>
        <time>2020-01-12T12:25:39Z</time>
      </trkpt>
      <trkpt lat="42.3543490" lon="-2.4950060">
        <ele>529.1</ele>
        <time>2020-01-12T12:25:40Z</time>
      </trkpt>
      <trkpt lat="42.3544310" lon="-2.4949650">
        <ele>529.0</ele>
        <time>2020-01-12T12:25:41Z</time>
      </trkpt>
      <trkpt lat="42.3545100" lon="-2.4949220">
        <ele>528.8</ele>
        <time>2020-01-12T12:25:42Z</time>
      </trkpt>
      <trkpt lat="42.3545880" lon="-2.4948810">
        <ele>528.6</ele>
        <time>2020-01-12T12:25:43Z</time>
      </trkpt>
      <trkpt lat="42.3546810" lon="-2.4948430">
        <ele>528.4</ele>
        <time>2020-01-12T12:25:44Z</time>
      </trkpt>
      <trkpt lat="42.3547530" lon="-2.4948050">
        <ele>528.3</ele>
        <time>2020-01-12T12:25:45Z</time>
      </trkpt>
      <trkpt lat="42.3548260" lon="-2.4947780">
        <ele>528.1</ele>
        <time>2020-01-12T12:25:46Z</time>
      </trkpt>
      <trkpt lat="42.3549040" lon="-2.4947350">
        <ele>528.0</ele>
        <time>2020-01-12T12:25:47Z</time>
      </trkpt>
      <trkpt lat="42.3549890" lon="-2.4946920">
        <ele>527.8</ele>
        <time>2020-01-12T12:25:48Z</time>
      </trkpt>
      <trkpt lat="42.3550700" lon="-2.4946410">
        <ele>527.6</ele>
        <time>2020-01-12T12:25:49Z</time>
      </trkpt>
      <trkpt lat="42.3551390" lon="-2.4945930">
        <ele>527.4</ele>
        <time>2020-01-12T12:25:50Z</time>
      </trkpt>
      <trkpt lat="42.3552030" lon="-2.4945490">
        <ele>527.4</ele>
        <time>2020-01-12T12:25:51Z</time>
      </trkpt>
      <trkpt lat="42.3552680" lon="-2.4945030">
        <ele>527.3</ele>
        <time>2020-01-12T12:25:52Z</time>
      </trkpt>
      <trkpt lat="42.3553360" lon="-2.4944660">
        <ele>527.2</ele>
        <time>2020-01-12T12:25:53Z</time>
      </trkpt>
      <trkpt lat="42.3554180" lon="-2.4944340">
        <ele>527.1</ele>
        <time>2020-01-12T12:25:54Z</time>
      </trkpt>
      <trkpt lat="42.3554870" lon="-2.4944060">
        <ele>527.0</ele>
        <time>2020-01-12T12:25:55Z</time>
      </trkpt>
      <trkpt lat="42.3555700" lon="-2.4943580">
        <ele>526.8</ele>
        <time>2020-01-12T12:25:56Z</time>
      </trkpt>
      <trkpt lat="42.3556520" lon="-2.4943180">
        <ele>526.6</ele>
        <time>2020-01-12T12:25:57Z</time>
      </trkpt>
      <trkpt lat="42.3557380" lon="-2.4942800">
        <ele>526.5</ele>
        <time>2020-01-12T12:25:58Z</time>
      </trkpt>
      <trkpt lat="42.3558280" lon="-2.4942350">
        <ele>526.4</ele>
        <time>2020-01-12T12:25:59Z</time>
      </trkpt>
      <trkpt lat="42.3558940" lon="-2.4941970">
        <ele>526.3</ele>
        <time>2020-01-12T12:26:00Z</time>
      </trkpt>
      <trkpt lat="42.3559840" lon="-2.4941530">
        <ele>526.2</ele>
        <time>2020-01-12T12:26:01Z</time>
      </trkpt>
      <trkpt lat="42.3560640" lon="-2.4941100">
        <ele>526.2</ele>
        <time>2020-01-12T12:26:02Z</time>
      </trkpt>
      <trkpt lat="42.3561490" lon="-2.4940730">
        <ele>526.1</ele>
        <time>2020-01-12T12:26:03Z</time>
      </trkpt>
      <trkpt lat="42.3561700" lon="-2.4940280">
        <ele>526.1</ele>
        <time>2020-01-12T12:26:04Z</time>
      </trkpt>
      <trkpt lat="42.3562810" lon="-2.4939930">
        <ele>525.9</ele>
        <time>2020-01-12T12:26:05Z</time>
      </trkpt>
      <trkpt lat="42.3563680" lon="-2.4939530">
        <ele>525.7</ele>
        <time>2020-01-12T12:26:06Z</time>
      </trkpt>
      <trkpt lat="42.3564290" lon="-2.4939050">
        <ele>525.5</ele>
        <time>2020-01-12T12:26:07Z</time>
      </trkpt>
      <trkpt lat="42.3565200" lon="-2.4938640">
        <ele>525.3</ele>
        <time>2020-01-12T12:26:08Z</time>
      </trkpt>
      <trkpt lat="42.3565920" lon="-2.4938110">
        <ele>525.2</ele>
        <time>2020-01-12T12:26:09Z</time>
      </trkpt>
      <trkpt lat="42.3566350" lon="-2.4937700">
        <ele>525.1</ele>
        <time>2020-01-12T12:26:10Z</time>
      </trkpt>
      <trkpt lat="42.3567070" lon="-2.4937340">
        <ele>525.0</ele>
        <time>2020-01-12T12:26:11Z</time>
      </trkpt>
      <trkpt lat="42.3567990" lon="-2.4936950">
        <ele>524.8</ele>
        <time>2020-01-12T12:26:12Z</time>
      </trkpt>
      <trkpt lat="42.3568800" lon="-2.4936520">
        <ele>524.6</ele>
        <time>2020-01-12T12:26:13Z</time>
      </trkpt>
      <trkpt lat="42.3569700" lon="-2.4936060">
        <ele>524.4</ele>
        <time>2020-01-12T12:26:14Z</time>
      </trkpt>
      <trkpt lat="42.3570690" lon="-2.4935690">
        <ele>524.3</ele>
        <time>2020-01-12T12:26:15Z</time>
      </trkpt>
      <trkpt lat="42.3571670" lon="-2.4935370">
        <ele>524.2</ele>
        <time>2020-01-12T12:26:16Z</time>
      </trkpt>
      <trkpt lat="42.3572440" lon="-2.4934920">
        <ele>524.2</ele>
        <time>2020-01-12T12:26:17Z</time>
      </trkpt>
      <trkpt lat="42.3573190" lon="-2.4934470">
        <ele>524.1</ele>
        <time>2020-01-12T12:26:18Z</time>
      </trkpt>
      <trkpt lat="42.3573920" lon="-2.4934010">
        <ele>523.9</ele>
        <time>2020-01-12T12:26:19Z</time>
      </trkpt>
      <trkpt lat="42.3574590" lon="-2.4933600">
        <ele>523.8</ele>
        <time>2020-01-12T12:26:20Z</time>
      </trkpt>
      <trkpt lat="42.3575390" lon="-2.4933290">
        <ele>523.6</ele>
        <time>2020-01-12T12:26:21Z</time>
      </trkpt>
      <trkpt lat="42.3576100" lon="-2.4932860">
        <ele>523.5</ele>
        <time>2020-01-12T12:26:22Z</time>
      </trkpt>
      <trkpt lat="42.3576780" lon="-2.4932430">
        <ele>523.4</ele>
        <time>2020-01-12T12:26:23Z</time>
      </trkpt>
      <trkpt lat="42.3577460" lon="-2.4932070">
        <ele>523.2</ele>
        <time>2020-01-12T12:26:24Z</time>
      </trkpt>
      <trkpt lat="42.3578180" lon="-2.4931740">
        <ele>523.1</ele>
        <time>2020-01-12T12:26:25Z</time>
      </trkpt>
      <trkpt lat="42.3578850" lon="-2.4931380">
        <ele>522.9</ele>
        <time>2020-01-12T12:26:26Z</time>
      </trkpt>
      <trkpt lat="42.3579610" lon="-2.4930890">
        <ele>522.3</ele>
        <time>2020-01-12T12:26:27Z</time>
      </trkpt>
      <trkpt lat="42.3580260" lon="-2.4930410">
        <ele>522.5</ele>
        <time>2020-01-12T12:26:28Z</time>
      </trkpt>
      <trkpt lat="42.3581040" lon="-2.4930010">
        <ele>522.7</ele>
        <time>2020-01-12T12:26:29Z</time>
      </trkpt>
      <trkpt lat="42.3581390" lon="-2.4929510">
        <ele>522.9</ele>
        <time>2020-01-12T12:26:30Z</time>
      </trkpt>
      <trkpt lat="42.3582120" lon="-2.4929170">
        <ele>523.1</ele>
        <time>2020-01-12T12:26:31Z</time>
      </trkpt>
      <trkpt lat="42.3582890" lon="-2.4928750">
        <ele>523.2</ele>
        <time>2020-01-12T12:26:32Z</time>
      </trkpt>
      <trkpt lat="42.3583550" lon="-2.4928340">
        <ele>523.3</ele>
        <time>2020-01-12T12:26:33Z</time>
      </trkpt>
      <trkpt lat="42.3584120" lon="-2.4928080">
        <ele>523.3</ele>
        <time>2020-01-12T12:26:34Z</time>
      </trkpt>
      <trkpt lat="42.3584960" lon="-2.4927610">
        <ele>523.2</ele>
        <time>2020-01-12T12:26:35Z</time>
      </trkpt>
      <trkpt lat="42.3585890" lon="-2.4927270">
        <ele>523.0</ele>
        <time>2020-01-12T12:26:36Z</time>
      </trkpt>
      <trkpt lat="42.3586740" lon="-2.4926850">
        <ele>522.6</ele>
        <time>2020-01-12T12:26:37Z</time>
      </trkpt>
      <trkpt lat="42.3587480" lon="-2.4926480">
        <ele>522.3</ele>
        <time>2020-01-12T12:26:38Z</time>
      </trkpt>
      <trkpt lat="42.3588230" lon="-2.4926120">
        <ele>522.0</ele>
        <time>2020-01-12T12:26:39Z</time>
      </trkpt>
      <trkpt lat="42.3588940" lon="-2.4925780">
        <ele>521.8</ele>
        <time>2020-01-12T12:26:40Z</time>
      </trkpt>
      <trkpt lat="42.3589560" lon="-2.4925410">
        <ele>521.6</ele>
        <time>2020-01-12T12:26:41Z</time>
      </trkpt>
      <trkpt lat="42.3590400" lon="-2.4925020">
        <ele>521.5</ele>
        <time>2020-01-12T12:26:42Z</time>
      </trkpt>
      <trkpt lat="42.3591320" lon="-2.4924600">
        <ele>521.4</ele>
        <time>2020-01-12T12:26:43Z</time>
      </trkpt>
      <trkpt lat="42.3592010" lon="-2.4924190">
        <ele>521.3</ele>
        <time>2020-01-12T12:26:44Z</time>
      </trkpt>
      <trkpt lat="42.3592920" lon="-2.4923800">
        <ele>521.1</ele>
        <time>2020-01-12T12:26:45Z</time>
      </trkpt>
      <trkpt lat="42.3593460" lon="-2.4923380">
        <ele>520.9</ele>
        <time>2020-01-12T12:26:46Z</time>
      </trkpt>
      <trkpt lat="42.3594180" lon="-2.4923000">
        <ele>520.8</ele>
        <time>2020-01-12T12:26:47Z</time>
      </trkpt>
      <trkpt lat="42.3595110" lon="-2.4922640">
        <ele>520.7</ele>
        <time>2020-01-12T12:26:48Z</time>
      </trkpt>
      <trkpt lat="42.3595980" lon="-2.4922340">
        <ele>520.6</ele>
        <time>2020-01-12T12:26:49Z</time>
      </trkpt>
      <trkpt lat="42.3596720" lon="-2.4921930">
        <ele>520.6</ele>
        <time>2020-01-12T12:26:50Z</time>
      </trkpt>
      <trkpt lat="42.3597460" lon="-2.4921500">
        <ele>520.6</ele>
        <time>2020-01-12T12:26:51Z</time>
      </trkpt>
      <trkpt lat="42.3598100" lon="-2.4921100">
        <ele>520.5</ele>
        <time>2020-01-12T12:26:52Z</time>
      </trkpt>
      <trkpt lat="42.3598890" lon="-2.4920680">
        <ele>520.3</ele>
        <time>2020-01-12T12:26:53Z</time>
      </trkpt>
      <trkpt lat="42.3599760" lon="-2.4920330">
        <ele>520.1</ele>
        <time>2020-01-12T12:26:54Z</time>
      </trkpt>
      <trkpt lat="42.3600510" lon="-2.4919890">
        <ele>519.9</ele>
        <time>2020-01-12T12:26:55Z</time>
      </trkpt>
      <trkpt lat="42.3601300" lon="-2.4919500">
        <ele>519.9</ele>
        <time>2020-01-12T12:26:56Z</time>
      </trkpt>
      <trkpt lat="42.3602010" lon="-2.4919090">
        <ele>520.1</ele>
        <time>2020-01-12T12:26:57Z</time>
      </trkpt>
      <trkpt lat="42.3602750" lon="-2.4918610">
        <ele>520.4</ele>
        <time>2020-01-12T12:26:58Z</time>
      </trkpt>
      <trkpt lat="42.3603510" lon="-2.4918310">
        <ele>520.8</ele>
        <time>2020-01-12T12:26:59Z</time>
      </trkpt>
      <trkpt lat="42.3604330" lon="-2.4917930">
        <ele>519.4</ele>
        <time>2020-01-12T12:27:00Z</time>
      </trkpt>
      <trkpt lat="42.3605250" lon="-2.4917490">
        <ele>518.5</ele>
        <time>2020-01-12T12:27:01Z</time>
      </trkpt>
      <trkpt lat="42.3606330" lon="-2.4917100">
        <ele>517.7</ele>
        <time>2020-01-12T12:27:02Z</time>
      </trkpt>
      <trkpt lat="42.3606970" lon="-2.4916620">
        <ele>517.3</ele>
        <time>2020-01-12T12:27:03Z</time>
      </trkpt>
      <trkpt lat="42.3607790" lon="-2.4916300">
        <ele>516.9</ele>
        <time>2020-01-12T12:27:04Z</time>
      </trkpt>
      <trkpt lat="42.3608440" lon="-2.4915850">
        <ele>516.6</ele>
        <time>2020-01-12T12:27:05Z</time>
      </trkpt>
      <trkpt lat="42.3608920" lon="-2.4915480">
        <ele>516.4</ele>
        <time>2020-01-12T12:27:06Z</time>
      </trkpt>
      <trkpt lat="42.3609780" lon="-2.4914990">
        <ele>516.2</ele>
        <time>2020-01-12T12:27:07Z</time>
      </trkpt>
      <trkpt lat="42.3610650" lon="-2.4914600">
        <ele>515.9</ele>
        <time>2020-01-12T12:27:08Z</time>
      </trkpt>
      <trkpt lat="42.3611420" lon="-2.4914190">
        <ele>515.7</ele>
        <time>2020-01-12T12:27:09Z</time>
      </trkpt>
      <trkpt lat="42.3612020" lon="-2.4913840">
        <ele>515.5</ele>
        <time>2020-01-12T12:27:10Z</time>
      </trkpt>
      <trkpt lat="42.3612800" lon="-2.4913450">
        <ele>515.2</ele>
        <time>2020-01-12T12:27:11Z</time>
      </trkpt>
      <trkpt lat="42.3613470" lon="-2.4913030">
        <ele>514.9</ele>
        <time>2020-01-12T12:27:12Z</time>
      </trkpt>
      <trkpt lat="42.3614270" lon="-2.4912630">
        <ele>514.5</ele>
        <time>2020-01-12T12:27:13Z</time>
      </trkpt>
      <trkpt lat="42.3615010" lon="-2.4912260">
        <ele>514.1</ele>
        <time>2020-01-12T12:27:14Z</time>
      </trkpt>
      <trkpt lat="42.3615680" lon="-2.4911820">
        <ele>513.7</ele>
        <time>2020-01-12T12:27:15Z</time>
      </trkpt>
      <trkpt lat="42.3616290" lon="-2.4911340">
        <ele>513.5</ele>
        <time>2020-01-12T12:27:16Z</time>
      </trkpt>
      <trkpt lat="42.3616930" lon="-2.4911040">
        <ele>513.2</ele>
        <time>2020-01-12T12:27:17Z</time>
      </trkpt>
      <trkpt lat="42.3617670" lon="-2.4910640">
        <ele>513.0</ele>
        <time>2020-01-12T12:27:18Z</time>
      </trkpt>
      <trkpt lat="42.3618380" lon="-2.4910210">
        <ele>512.8</ele>
        <time>2020-01-12T12:27:19Z</time>
      </trkpt>
      <trkpt lat="42.3619150" lon="-2.4909820">
        <ele>512.6</ele>
        <time>2020-01-12T12:27:20Z</time>
      </trkpt>
      <trkpt lat="42.3619890" lon="-2.4909400">
        <ele>512.4</ele>
        <time>2020-01-12T12:27:21Z</time>
      </trkpt>
      <trkpt lat="42.3620630" lon="-2.4908980">
        <ele>512.3</ele>
        <time>2020-01-12T12:27:22Z</time>
      </trkpt>
      <trkpt lat="42.3621370" lon="-2.4908590">
        <ele>512.1</ele>
        <time>2020-01-12T12:27:23Z</time>
      </trkpt>
      <trkpt lat="42.3622130" lon="-2.4908170">
        <ele>512.1</ele>
        <time>2020-01-12T12:27:24Z</time>
      </trkpt>
      <trkpt lat="42.3622870" lon="-2.4907770">
        <ele>512.1</ele>
        <time>2020-01-12T12:27:25Z</time>
      </trkpt>
      <trkpt lat="42.3623550" lon="-2.4907390">
        <ele>512.1</ele>
        <time>2020-01-12T12:27:26Z</time>
      </trkpt>
      <trkpt lat="42.3624260" lon="-2.4907000">
        <ele>512.1</ele>
        <time>2020-01-12T12:27:27Z</time>
      </trkpt>
      <trkpt lat="42.3625030" lon="-2.4906560">
        <ele>512.3</ele>
        <time>2020-01-12T12:27:28Z</time>
      </trkpt>
      <trkpt lat="42.3625800" lon="-2.4906150">
        <ele>512.4</ele>
        <time>2020-01-12T12:27:29Z</time>
      </trkpt>
      <trkpt lat="42.3626480" lon="-2.4905790">
        <ele>512.6</ele>
        <time>2020-01-12T12:27:30Z</time>
      </trkpt>
      <trkpt lat="42.3627340" lon="-2.4905410">
        <ele>512.7</ele>
        <time>2020-01-12T12:27:31Z</time>
      </trkpt>
      <trkpt lat="42.3628030" lon="-2.4905000">
        <ele>512.8</ele>
        <time>2020-01-12T12:27:32Z</time>
      </trkpt>
      <trkpt lat="42.3628790" lon="-2.4904530">
        <ele>512.9</ele>
        <time>2020-01-12T12:27:33Z</time>
      </trkpt>
      <trkpt lat="42.3629560" lon="-2.4904130">
        <ele>512.9</ele>
        <time>2020-01-12T12:27:34Z</time>
      </trkpt>
      <trkpt lat="42.3630350" lon="-2.4903730">
        <ele>512.9</ele>
        <time>2020-01-12T12:27:35Z</time>
      </trkpt>
      <trkpt lat="42.3631130" lon="-2.4903320">
        <ele>513.0</ele>
        <time>2020-01-12T12:27:36Z</time>
      </trkpt>
      <trkpt lat="42.3631940" lon="-2.4902910">
        <ele>513.0</ele>
        <time>2020-01-12T12:27:37Z</time>
      </trkpt>
      <trkpt lat="42.3632700" lon="-2.4902530">
        <ele>513.0</ele>
        <time>2020-01-12T12:27:38Z</time>
      </trkpt>
      <trkpt lat="42.3633570" lon="-2.4902130">
        <ele>513.0</ele>
        <time>2020-01-12T12:27:39Z</time>
      </trkpt>
      <trkpt lat="42.3634210" lon="-2.4901640">
        <ele>513.0</ele>
        <time>2020-01-12T12:27:40Z</time>
      </trkpt>
      <trkpt lat="42.3634960" lon="-2.4901210">
        <ele>513.0</ele>
        <time>2020-01-12T12:27:41Z</time>
      </trkpt>
      <trkpt lat="42.3635660" lon="-2.4900800">
        <ele>513.0</ele>
        <time>2020-01-12T12:27:42Z</time>
      </trkpt>
      <trkpt lat="42.3636510" lon="-2.4900340">
        <ele>513.0</ele>
        <time>2020-01-12T12:27:43Z</time>
      </trkpt>
      <trkpt lat="42.3637490" lon="-2.4899950">
        <ele>513.0</ele>
        <time>2020-01-12T12:27:44Z</time>
      </trkpt>
      <trkpt lat="42.3638440" lon="-2.4899500">
        <ele>513.0</ele>
        <time>2020-01-12T12:27:45Z</time>
      </trkpt>
      <trkpt lat="42.3638580" lon="-2.4898930">
        <ele>513.0</ele>
        <time>2020-01-12T12:27:46Z</time>
      </trkpt>
      <trkpt lat="42.3639410" lon="-2.4898390">
        <ele>513.0</ele>
        <time>2020-01-12T12:27:47Z</time>
      </trkpt>
      <trkpt lat="42.3640110" lon="-2.4897930">
        <ele>513.0</ele>
        <time>2020-01-12T12:27:48Z</time>
      </trkpt>
      <trkpt lat="42.3640870" lon="-2.4897480">
        <ele>513.1</ele>
        <time>2020-01-12T12:27:49Z</time>
      </trkpt>
      <trkpt lat="42.3641640" lon="-2.4897030">
        <ele>513.1</ele>
        <time>2020-01-12T12:27:50Z</time>
      </trkpt>
      <trkpt lat="42.3642400" lon="-2.4896540">
        <ele>513.1</ele>
        <time>2020-01-12T12:27:51Z</time>
      </trkpt>
      <trkpt lat="42.3643160" lon="-2.4896030">
        <ele>513.0</ele>
        <time>2020-01-12T12:27:52Z</time>
      </trkpt>
      <trkpt lat="42.3643990" lon="-2.4895520">
        <ele>513.0</ele>
        <time>2020-01-12T12:27:53Z</time>
      </trkpt>
      <trkpt lat="42.3644670" lon="-2.4895030">
        <ele>512.9</ele>
        <time>2020-01-12T12:27:54Z</time>
      </trkpt>
      <trkpt lat="42.3645490" lon="-2.4894630">
        <ele>512.7</ele>
        <time>2020-01-12T12:27:55Z</time>
      </trkpt>
      <trkpt lat="42.3646360" lon="-2.4894190">
        <ele>512.4</ele>
        <time>2020-01-12T12:27:56Z</time>
      </trkpt>
      <trkpt lat="42.3647170" lon="-2.4893770">
        <ele>512.1</ele>
        <time>2020-01-12T12:27:57Z</time>
      </trkpt>
      <trkpt lat="42.3648030" lon="-2.4893350">
        <ele>512.2</ele>
        <time>2020-01-12T12:27:58Z</time>
      </trkpt>
      <trkpt lat="42.3648740" lon="-2.4892900">
        <ele>512.2</ele>
        <time>2020-01-12T12:27:59Z</time>
      </trkpt>
      <trkpt lat="42.3649600" lon="-2.4892510">
        <ele>512.2</ele>
        <time>2020-01-12T12:28:00Z</time>
      </trkpt>
      <trkpt lat="42.3650290" lon="-2.4892120">
        <ele>512.2</ele>
        <time>2020-01-12T12:28:01Z</time>
      </trkpt>
      <trkpt lat="42.3651090" lon="-2.4891720">
        <ele>512.2</ele>
        <time>2020-01-12T12:28:02Z</time>
      </trkpt>
      <trkpt lat="42.3652000" lon="-2.4891340">
        <ele>512.1</ele>
        <time>2020-01-12T12:28:03Z</time>
      </trkpt>
      <trkpt lat="42.3652820" lon="-2.4890880">
        <ele>512.1</ele>
        <time>2020-01-12T12:28:04Z</time>
      </trkpt>
      <trkpt lat="42.3653650" lon="-2.4890460">
        <ele>512.0</ele>
        <time>2020-01-12T12:28:05Z</time>
      </trkpt>
      <trkpt lat="42.3654330" lon="-2.4890020">
        <ele>512.0</ele>
        <time>2020-01-12T12:28:06Z</time>
      </trkpt>
      <trkpt lat="42.3655160" lon="-2.4889600">
        <ele>511.8</ele>
        <time>2020-01-12T12:28:07Z</time>
      </trkpt>
      <trkpt lat="42.3655970" lon="-2.4889200">
        <ele>511.7</ele>
        <time>2020-01-12T12:28:08Z</time>
      </trkpt>
      <trkpt lat="42.3656830" lon="-2.4888760">
        <ele>511.6</ele>
        <time>2020-01-12T12:28:09Z</time>
      </trkpt>
      <trkpt lat="42.3657620" lon="-2.4888290">
        <ele>511.5</ele>
        <time>2020-01-12T12:28:10Z</time>
      </trkpt>
      <trkpt lat="42.3658430" lon="-2.4887860">
        <ele>511.3</ele>
        <time>2020-01-12T12:28:11Z</time>
      </trkpt>
      <trkpt lat="42.3659190" lon="-2.4887420">
        <ele>511.2</ele>
        <time>2020-01-12T12:28:12Z</time>
      </trkpt>
      <trkpt lat="42.3660080" lon="-2.4886950">
        <ele>511.0</ele>
        <time>2020-01-12T12:28:13Z</time>
      </trkpt>
      <trkpt lat="42.3660920" lon="-2.4886500">
        <ele>510.9</ele>
        <time>2020-01-12T12:28:14Z</time>
      </trkpt>
      <trkpt lat="42.3661730" lon="-2.4886090">
        <ele>510.7</ele>
        <time>2020-01-12T12:28:15Z</time>
      </trkpt>
      <trkpt lat="42.3662650" lon="-2.4885670">
        <ele>510.6</ele>
        <time>2020-01-12T12:28:16Z</time>
      </trkpt>
      <trkpt lat="42.3663350" lon="-2.4885210">
        <ele>510.4</ele>
        <time>2020-01-12T12:28:17Z</time>
      </trkpt>
      <trkpt lat="42.3664030" lon="-2.4884760">
        <ele>510.3</ele>
        <time>2020-01-12T12:28:18Z</time>
      </trkpt>
      <trkpt lat="42.3664880" lon="-2.4884380">
        <ele>510.1</ele>
        <time>2020-01-12T12:28:19Z</time>
      </trkpt>
      <trkpt lat="42.3665700" lon="-2.4883980">
        <ele>510.0</ele>
        <time>2020-01-12T12:28:20Z</time>
      </trkpt>
      <trkpt lat="42.3666600" lon="-2.4883530">
        <ele>509.8</ele>
        <time>2020-01-12T12:28:21Z</time>
      </trkpt>
      <trkpt lat="42.3667620" lon="-2.4883150">
        <ele>509.6</ele>
        <time>2020-01-12T12:28:22Z</time>
      </trkpt>
      <trkpt lat="42.3668580" lon="-2.4882740">
        <ele>509.4</ele>
        <time>2020-01-12T12:28:23Z</time>
      </trkpt>
      <trkpt lat="42.3669590" lon="-2.4882340">
        <ele>509.2</ele>
        <time>2020-01-12T12:28:24Z</time>
      </trkpt>
      <trkpt lat="42.3670420" lon="-2.4881990">
        <ele>509.0</ele>
        <time>2020-01-12T12:28:25Z</time>
      </trkpt>
      <trkpt lat="42.3671530" lon="-2.4881680">
        <ele>508.6</ele>
        <time>2020-01-12T12:28:26Z</time>
      </trkpt>
      <trkpt lat="42.3671870" lon="-2.4881250">
        <ele>508.4</ele>
        <time>2020-01-12T12:28:27Z</time>
      </trkpt>
      <trkpt lat="42.3672090" lon="-2.4880740">
        <ele>508.2</ele>
        <time>2020-01-12T12:28:28Z</time>
      </trkpt>
      <trkpt lat="42.3672680" lon="-2.4880170">
        <ele>508.0</ele>
        <time>2020-01-12T12:28:29Z</time>
      </trkpt>
      <trkpt lat="42.3673210" lon="-2.4879530">
        <ele>507.6</ele>
        <time>2020-01-12T12:28:30Z</time>
      </trkpt>
      <trkpt lat="42.3673740" lon="-2.4878980">
        <ele>507.5</ele>
        <time>2020-01-12T12:28:31Z</time>
      </trkpt>
      <trkpt lat="42.3674370" lon="-2.4878550">
        <ele>507.3</ele>
        <time>2020-01-12T12:28:32Z</time>
      </trkpt>
      <trkpt lat="42.3674970" lon="-2.4878280">
        <ele>507.2</ele>
        <time>2020-01-12T12:28:33Z</time>
      </trkpt>
      <trkpt lat="42.3675570" lon="-2.4878130">
        <ele>507.0</ele>
        <time>2020-01-12T12:28:34Z</time>
      </trkpt>
      <trkpt lat="42.3676310" lon="-2.4878070">
        <ele>507.1</ele>
        <time>2020-01-12T12:28:35Z</time>
      </trkpt>
      <trkpt lat="42.3676990" lon="-2.4878040">
        <ele>507.1</ele>
        <time>2020-01-12T12:28:36Z</time>
      </trkpt>
      <trkpt lat="42.3677740" lon="-2.4878000">
        <ele>507.1</ele>
        <time>2020-01-12T12:28:37Z</time>
      </trkpt>
      <trkpt lat="42.3678400" lon="-2.4877790">
        <ele>507.1</ele>
        <time>2020-01-12T12:28:38Z</time>
      </trkpt>
      <trkpt lat="42.3678960" lon="-2.4877420">
        <ele>507.0</ele>
        <time>2020-01-12T12:28:39Z</time>
      </trkpt>
      <trkpt lat="42.3679650" lon="-2.4877030">
        <ele>506.8</ele>
        <time>2020-01-12T12:28:40Z</time>
      </trkpt>
      <trkpt lat="42.3680100" lon="-2.4876660">
        <ele>506.7</ele>
        <time>2020-01-12T12:28:41Z</time>
      </trkpt>
      <trkpt lat="42.3680960" lon="-2.4876270">
        <ele>506.3</ele>
        <time>2020-01-12T12:28:42Z</time>
      </trkpt>
      <trkpt lat="42.3681680" lon="-2.4875860">
        <ele>505.9</ele>
        <time>2020-01-12T12:28:43Z</time>
      </trkpt>
      <trkpt lat="42.3682490" lon="-2.4875450">
        <ele>505.6</ele>
        <time>2020-01-12T12:28:44Z</time>
      </trkpt>
      <trkpt lat="42.3683310" lon="-2.4874970">
        <ele>505.3</ele>
        <time>2020-01-12T12:28:45Z</time>
      </trkpt>
      <trkpt lat="42.3684100" lon="-2.4874540">
        <ele>505.0</ele>
        <time>2020-01-12T12:28:46Z</time>
      </trkpt>
      <trkpt lat="42.3684780" lon="-2.4874090">
        <ele>504.7</ele>
        <time>2020-01-12T12:28:47Z</time>
      </trkpt>
      <trkpt lat="42.3685460" lon="-2.4873730">
        <ele>504.3</ele>
        <time>2020-01-12T12:28:48Z</time>
      </trkpt>
      <trkpt lat="42.3686270" lon="-2.4873130">
        <ele>503.7</ele>
        <time>2020-01-12T12:28:49Z</time>
      </trkpt>
      <trkpt lat="42.3687060" lon="-2.4872690">
        <ele>503.3</ele>
        <time>2020-01-12T12:28:50Z</time>
      </trkpt>
      <trkpt lat="42.3687620" lon="-2.4872280">
        <ele>503.0</ele>
        <time>2020-01-12T12:28:51Z</time>
      </trkpt>
      <trkpt lat="42.3688580" lon="-2.4871940">
        <ele>502.7</ele>
        <time>2020-01-12T12:28:52Z</time>
      </trkpt>
      <trkpt lat="42.3689510" lon="-2.4871530">
        <ele>502.9</ele>
        <time>2020-01-12T12:28:53Z</time>
      </trkpt>
      <trkpt lat="42.3690480" lon="-2.4871130">
        <ele>503.2</ele>
        <time>2020-01-12T12:28:54Z</time>
      </trkpt>
      <trkpt lat="42.3691340" lon="-2.4870730">
        <ele>503.4</ele>
        <time>2020-01-12T12:28:55Z</time>
      </trkpt>
      <trkpt lat="42.3692220" lon="-2.4870340">
        <ele>503.4</ele>
        <time>2020-01-12T12:28:56Z</time>
      </trkpt>
      <trkpt lat="42.3692680" lon="-2.4869920">
        <ele>503.5</ele>
        <time>2020-01-12T12:28:57Z</time>
      </trkpt>
      <trkpt lat="42.3693540" lon="-2.4869500">
        <ele>503.5</ele>
        <time>2020-01-12T12:28:58Z</time>
      </trkpt>
      <trkpt lat="42.3694270" lon="-2.4869110">
        <ele>503.5</ele>
        <time>2020-01-12T12:28:59Z</time>
      </trkpt>
      <trkpt lat="42.3695040" lon="-2.4868640">
        <ele>503.4</ele>
        <time>2020-01-12T12:29:00Z</time>
      </trkpt>
      <trkpt lat="42.3695040" lon="-2.4868260">
        <ele>503.4</ele>
        <time>2020-01-12T12:29:01Z</time>
      </trkpt>
      <trkpt lat="42.3695790" lon="-2.4867860">
        <ele>503.4</ele>
        <time>2020-01-12T12:29:02Z</time>
      </trkpt>
      <trkpt lat="42.3696700" lon="-2.4867460">
        <ele>503.4</ele>
        <time>2020-01-12T12:29:03Z</time>
      </trkpt>
      <trkpt lat="42.3697400" lon="-2.4867030">
        <ele>503.4</ele>
        <time>2020-01-12T12:29:04Z</time>
      </trkpt>
      <trkpt lat="42.3698150" lon="-2.4866550">
        <ele>503.4</ele>
        <time>2020-01-12T12:29:05Z</time>
      </trkpt>
      <trkpt lat="42.3699010" lon="-2.4866210">
        <ele>503.4</ele>
        <time>2020-01-12T12:29:06Z</time>
      </trkpt>
      <trkpt lat="42.3699440" lon="-2.4865850">
        <ele>503.4</ele>
        <time>2020-01-12T12:29:07Z</time>
      </trkpt>
      <trkpt lat="42.3700190" lon="-2.4865470">
        <ele>503.4</ele>
        <time>2020-01-12T12:29:08Z</time>
      </trkpt>
      <trkpt lat="42.3700990" lon="-2.4865100">
        <ele>503.4</ele>
        <time>2020-01-12T12:29:09Z</time>
      </trkpt>
      <trkpt lat="42.3702010" lon="-2.4864720">
        <ele>503.2</ele>
        <time>2020-01-12T12:29:10Z</time>
      </trkpt>
      <trkpt lat="42.3702820" lon="-2.4864290">
        <ele>503.1</ele>
        <time>2020-01-12T12:29:11Z</time>
      </trkpt>
      <trkpt lat="42.3703550" lon="-2.4863860">
        <ele>503.0</ele>
        <time>2020-01-12T12:29:12Z</time>
      </trkpt>
      <trkpt lat="42.3704530" lon="-2.4863490">
        <ele>502.9</ele>
        <time>2020-01-12T12:29:13Z</time>
      </trkpt>
      <trkpt lat="42.3705340" lon="-2.4863110">
        <ele>502.7</ele>
        <time>2020-01-12T12:29:14Z</time>
      </trkpt>
      <trkpt lat="42.3706090" lon="-2.4862680">
        <ele>502.6</ele>
        <time>2020-01-12T12:29:15Z</time>
      </trkpt>
      <trkpt lat="42.3706900" lon="-2.4862310">
        <ele>502.5</ele>
        <time>2020-01-12T12:29:16Z</time>
      </trkpt>
      <trkpt lat="42.3707690" lon="-2.4861860">
        <ele>502.4</ele>
        <time>2020-01-12T12:29:17Z</time>
      </trkpt>
      <trkpt lat="42.3708400" lon="-2.4861400">
        <ele>502.3</ele>
        <time>2020-01-12T12:29:18Z</time>
      </trkpt>
      <trkpt lat="42.3709260" lon="-2.4860970">
        <ele>502.2</ele>
        <time>2020-01-12T12:29:19Z</time>
      </trkpt>
      <trkpt lat="42.3710010" lon="-2.4860540">
        <ele>502.0</ele>
        <time>2020-01-12T12:29:20Z</time>
      </trkpt>
      <trkpt lat="42.3710810" lon="-2.4860160">
        <ele>501.9</ele>
        <time>2020-01-12T12:29:21Z</time>
      </trkpt>
      <trkpt lat="42.3711560" lon="-2.4859790">
        <ele>501.8</ele>
        <time>2020-01-12T12:29:22Z</time>
      </trkpt>
      <trkpt lat="42.3712370" lon="-2.4859450">
        <ele>501.7</ele>
        <time>2020-01-12T12:29:23Z</time>
      </trkpt>
      <trkpt lat="42.3713120" lon="-2.4859060">
        <ele>501.6</ele>
        <time>2020-01-12T12:29:24Z</time>
      </trkpt>
      <trkpt lat="42.3713980" lon="-2.4858610">
        <ele>501.5</ele>
        <time>2020-01-12T12:29:25Z</time>
      </trkpt>
      <trkpt lat="42.3714780" lon="-2.4858230">
        <ele>501.4</ele>
        <time>2020-01-12T12:29:26Z</time>
      </trkpt>
      <trkpt lat="42.3715450" lon="-2.4857850">
        <ele>501.4</ele>
        <time>2020-01-12T12:29:27Z</time>
      </trkpt>
      <trkpt lat="42.3716180" lon="-2.4857430">
        <ele>501.3</ele>
        <time>2020-01-12T12:29:28Z</time>
      </trkpt>
      <trkpt lat="42.3716930" lon="-2.4857000">
        <ele>501.3</ele>
        <time>2020-01-12T12:29:29Z</time>
      </trkpt>
      <trkpt lat="42.3717730" lon="-2.4856620">
        <ele>501.3</ele>
        <time>2020-01-12T12:29:30Z</time>
      </trkpt>
      <trkpt lat="42.3718590" lon="-2.4856220">
        <ele>501.2</ele>
        <time>2020-01-12T12:29:31Z</time>
      </trkpt>
      <trkpt lat="42.3719400" lon="-2.4855860">
        <ele>501.2</ele>
        <time>2020-01-12T12:29:32Z</time>
      </trkpt>
      <trkpt lat="42.3720250" lon="-2.4855440">
        <ele>501.2</ele>
        <time>2020-01-12T12:29:33Z</time>
      </trkpt>
      <trkpt lat="42.3720950" lon="-2.4855010">
        <ele>501.2</ele>
        <time>2020-01-12T12:29:34Z</time>
      </trkpt>
      <trkpt lat="42.3721750" lon="-2.4854640">
        <ele>501.1</ele>
        <time>2020-01-12T12:29:35Z</time>
      </trkpt>
      <trkpt lat="42.3722550" lon="-2.4854200">
        <ele>501.1</ele>
        <time>2020-01-12T12:29:36Z</time>
      </trkpt>
      <trkpt lat="42.3723330" lon="-2.4853830">
        <ele>501.0</ele>
        <time>2020-01-12T12:29:37Z</time>
      </trkpt>
      <trkpt lat="42.3724060" lon="-2.4853510">
        <ele>500.9</ele>
        <time>2020-01-12T12:29:38Z</time>
      </trkpt>
      <trkpt lat="42.3724810" lon="-2.4853080">
        <ele>500.8</ele>
        <time>2020-01-12T12:29:39Z</time>
      </trkpt>
      <trkpt lat="42.3725620" lon="-2.4852760">
        <ele>500.7</ele>
        <time>2020-01-12T12:29:40Z</time>
      </trkpt>
      <trkpt lat="42.3726340" lon="-2.4852400">
        <ele>500.6</ele>
        <time>2020-01-12T12:29:41Z</time>
      </trkpt>
      <trkpt lat="42.3727050" lon="-2.4851980">
        <ele>500.4</ele>
        <time>2020-01-12T12:29:42Z</time>
      </trkpt>
      <trkpt lat="42.3727770" lon="-2.4851630">
        <ele>500.3</ele>
        <time>2020-01-12T12:29:43Z</time>
      </trkpt>
      <trkpt lat="42.3728600" lon="-2.4851200">
        <ele>500.2</ele>
        <time>2020-01-12T12:29:44Z</time>
      </trkpt>
      <trkpt lat="42.3729420" lon="-2.4850740">
        <ele>500.0</ele>
        <time>2020-01-12T12:29:45Z</time>
      </trkpt>
      <trkpt lat="42.3730190" lon="-2.4850330">
        <ele>499.8</ele>
        <time>2020-01-12T12:29:46Z</time>
      </trkpt>
      <trkpt lat="42.3730960" lon="-2.4849870">
        <ele>499.6</ele>
        <time>2020-01-12T12:29:47Z</time>
      </trkpt>
      <trkpt lat="42.3731850" lon="-2.4849450">
        <ele>499.4</ele>
        <time>2020-01-12T12:29:48Z</time>
      </trkpt>
      <trkpt lat="42.3732710" lon="-2.4849020">
        <ele>499.1</ele>
        <time>2020-01-12T12:29:49Z</time>
      </trkpt>
      <trkpt lat="42.3733470" lon="-2.4848630">
        <ele>498.9</ele>
        <time>2020-01-12T12:29:50Z</time>
      </trkpt>
      <trkpt lat="42.3734290" lon="-2.4848300">
        <ele>498.7</ele>
        <time>2020-01-12T12:29:51Z</time>
      </trkpt>
      <trkpt lat="42.3735060" lon="-2.4847900">
        <ele>498.5</ele>
        <time>2020-01-12T12:29:52Z</time>
      </trkpt>
      <trkpt lat="42.3735820" lon="-2.4847390">
        <ele>498.4</ele>
        <time>2020-01-12T12:29:53Z</time>
      </trkpt>
      <trkpt lat="42.3736530" lon="-2.4847000">
        <ele>498.3</ele>
        <time>2020-01-12T12:29:54Z</time>
      </trkpt>
      <trkpt lat="42.3737270" lon="-2.4846600">
        <ele>498.3</ele>
        <time>2020-01-12T12:29:55Z</time>
      </trkpt>
      <trkpt lat="42.3738090" lon="-2.4846140">
        <ele>498.2</ele>
        <time>2020-01-12T12:29:56Z</time>
      </trkpt>
      <trkpt lat="42.3738850" lon="-2.4845760">
        <ele>498.2</ele>
        <time>2020-01-12T12:29:57Z</time>
      </trkpt>
      <trkpt lat="42.3739630" lon="-2.4845320">
        <ele>498.1</ele>
        <time>2020-01-12T12:29:58Z</time>
      </trkpt>
      <trkpt lat="42.3740450" lon="-2.4844900">
        <ele>498.1</ele>
        <time>2020-01-12T12:29:59Z</time>
      </trkpt>
      <trkpt lat="42.3740710" lon="-2.4844580">
        <ele>498.0</ele>
        <time>2020-01-12T12:30:00Z</time>
      </trkpt>
      <trkpt lat="42.3741510" lon="-2.4844190">
        <ele>498.0</ele>
        <time>2020-01-12T12:30:01Z</time>
      </trkpt>
      <trkpt lat="42.3742460" lon="-2.4843770">
        <ele>497.9</ele>
        <time>2020-01-12T12:30:02Z</time>
      </trkpt>
      <trkpt lat="42.3743250" lon="-2.4843330">
        <ele>497.8</ele>
        <time>2020-01-12T12:30:03Z</time>
      </trkpt>
      <trkpt lat="42.3744180" lon="-2.4842890">
        <ele>497.6</ele>
        <time>2020-01-12T12:30:04Z</time>
      </trkpt>
      <trkpt lat="42.3744940" lon="-2.4842500">
        <ele>497.5</ele>
        <time>2020-01-12T12:30:05Z</time>
      </trkpt>
      <trkpt lat="42.3745780" lon="-2.4842090">
        <ele>497.4</ele>
        <time>2020-01-12T12:30:06Z</time>
      </trkpt>
      <trkpt lat="42.3746750" lon="-2.4841700">
        <ele>497.2</ele>
        <time>2020-01-12T12:30:07Z</time>
      </trkpt>
      <trkpt lat="42.3747520" lon="-2.4841270">
        <ele>497.1</ele>
        <time>2020-01-12T12:30:08Z</time>
      </trkpt>
      <trkpt lat="42.3748150" lon="-2.4840850">
        <ele>497.0</ele>
        <time>2020-01-12T12:30:09Z</time>
      </trkpt>
      <trkpt lat="42.3748860" lon="-2.4840460">
        <ele>496.9</ele>
        <time>2020-01-12T12:30:10Z</time>
      </trkpt>
      <trkpt lat="42.3749780" lon="-2.4840060">
        <ele>496.7</ele>
        <time>2020-01-12T12:30:11Z</time>
      </trkpt>
      <trkpt lat="42.3750630" lon="-2.4839680">
        <ele>496.5</ele>
        <time>2020-01-12T12:30:12Z</time>
      </trkpt>
      <trkpt lat="42.3751420" lon="-2.4839290">
        <ele>496.3</ele>
        <time>2020-01-12T12:30:13Z</time>
      </trkpt>
      <trkpt lat="42.3752330" lon="-2.4838920">
        <ele>496.1</ele>
        <time>2020-01-12T12:30:14Z</time>
      </trkpt>
      <trkpt lat="42.3753080" lon="-2.4838490">
        <ele>495.9</ele>
        <time>2020-01-12T12:30:15Z</time>
      </trkpt>
      <trkpt lat="42.3753830" lon="-2.4838060">
        <ele>495.8</ele>
        <time>2020-01-12T12:30:16Z</time>
      </trkpt>
      <trkpt lat="42.3754580" lon="-2.4837620">
        <ele>495.6</ele>
        <time>2020-01-12T12:30:17Z</time>
      </trkpt>
      <trkpt lat="42.3755210" lon="-2.4837190">
        <ele>495.5</ele>
        <time>2020-01-12T12:30:18Z</time>
      </trkpt>
      <trkpt lat="42.3755930" lon="-2.4836760">
        <ele>495.4</ele>
        <time>2020-01-12T12:30:19Z</time>
      </trkpt>
      <trkpt lat="42.3756690" lon="-2.4836340">
        <ele>495.3</ele>
        <time>2020-01-12T12:30:20Z</time>
      </trkpt>
      <trkpt lat="42.3757430" lon="-2.4835970">
        <ele>495.2</ele>
        <time>2020-01-12T12:30:21Z</time>
      </trkpt>
      <trkpt lat="42.3758180" lon="-2.4835500">
        <ele>495.1</ele>
        <time>2020-01-12T12:30:22Z</time>
      </trkpt>
      <trkpt lat="42.3759030" lon="-2.4835100">
        <ele>495.0</ele>
        <time>2020-01-12T12:30:23Z</time>
      </trkpt>
      <trkpt lat="42.3759800" lon="-2.4834670">
        <ele>495.0</ele>
        <time>2020-01-12T12:30:24Z</time>
      </trkpt>
      <trkpt lat="42.3760580" lon="-2.4834230">
        <ele>494.9</ele>
        <time>2020-01-12T12:30:25Z</time>
      </trkpt>
      <trkpt lat="42.3761340" lon="-2.4833810">
        <ele>494.8</ele>
        <time>2020-01-12T12:30:26Z</time>
      </trkpt>
      <trkpt lat="42.3762080" lon="-2.4833400">
        <ele>494.6</ele>
        <time>2020-01-12T12:30:27Z</time>
      </trkpt>
      <trkpt lat="42.3762830" lon="-2.4832990">
        <ele>494.4</ele>
        <time>2020-01-12T12:30:28Z</time>
      </trkpt>
      <trkpt lat="42.3763590" lon="-2.4832600">
        <ele>494.2</ele>
        <time>2020-01-12T12:30:29Z</time>
      </trkpt>
      <trkpt lat="42.3764440" lon="-2.4832180">
        <ele>494.1</ele>
        <time>2020-01-12T12:30:30Z</time>
      </trkpt>
      <trkpt lat="42.3765220" lon="-2.4831780">
        <ele>494.0</ele>
        <time>2020-01-12T12:30:31Z</time>
      </trkpt>
      <trkpt lat="42.3765910" lon="-2.4831340">
        <ele>493.9</ele>
        <time>2020-01-12T12:30:32Z</time>
      </trkpt>
      <trkpt lat="42.3766640" lon="-2.4830930">
        <ele>493.8</ele>
        <time>2020-01-12T12:30:33Z</time>
      </trkpt>
      <trkpt lat="42.3767410" lon="-2.4830490">
        <ele>493.6</ele>
        <time>2020-01-12T12:30:34Z</time>
      </trkpt>
      <trkpt lat="42.3768000" lon="-2.4830080">
        <ele>493.4</ele>
        <time>2020-01-12T12:30:35Z</time>
      </trkpt>
      <trkpt lat="42.3768800" lon="-2.4829700">
        <ele>493.3</ele>
        <time>2020-01-12T12:30:36Z</time>
      </trkpt>
      <trkpt lat="42.3769560" lon="-2.4829320">
        <ele>493.2</ele>
        <time>2020-01-12T12:30:37Z</time>
      </trkpt>
      <trkpt lat="42.3770350" lon="-2.4828930">
        <ele>493.2</ele>
        <time>2020-01-12T12:30:38Z</time>
      </trkpt>
      <trkpt lat="42.3771160" lon="-2.4828520">
        <ele>493.1</ele>
        <time>2020-01-12T12:30:39Z</time>
      </trkpt>
      <trkpt lat="42.3771930" lon="-2.4828090">
        <ele>493.1</ele>
        <time>2020-01-12T12:30:40Z</time>
      </trkpt>
      <trkpt lat="42.3772780" lon="-2.4827670">
        <ele>493.1</ele>
        <time>2020-01-12T12:30:41Z</time>
      </trkpt>
      <trkpt lat="42.3773650" lon="-2.4827350">
        <ele>493.1</ele>
        <time>2020-01-12T12:30:42Z</time>
      </trkpt>
      <trkpt lat="42.3774480" lon="-2.4826940">
        <ele>493.1</ele>
        <time>2020-01-12T12:30:43Z</time>
      </trkpt>
      <trkpt lat="42.3775240" lon="-2.4826470">
        <ele>493.1</ele>
        <time>2020-01-12T12:30:44Z</time>
      </trkpt>
      <trkpt lat="42.3776060" lon="-2.4826060">
        <ele>493.0</ele>
        <time>2020-01-12T12:30:45Z</time>
      </trkpt>
      <trkpt lat="42.3776930" lon="-2.4825680">
        <ele>492.8</ele>
        <time>2020-01-12T12:30:46Z</time>
      </trkpt>
      <trkpt lat="42.3777770" lon="-2.4825270">
        <ele>492.6</ele>
        <time>2020-01-12T12:30:47Z</time>
      </trkpt>
      <trkpt lat="42.3778560" lon="-2.4824810">
        <ele>492.5</ele>
        <time>2020-01-12T12:30:48Z</time>
      </trkpt>
      <trkpt lat="42.3779360" lon="-2.4824330">
        <ele>492.3</ele>
        <time>2020-01-12T12:30:49Z</time>
      </trkpt>
      <trkpt lat="42.3780120" lon="-2.4823880">
        <ele>492.2</ele>
        <time>2020-01-12T12:30:50Z</time>
      </trkpt>
      <trkpt lat="42.3780790" lon="-2.4823460">
        <ele>492.2</ele>
        <time>2020-01-12T12:30:51Z</time>
      </trkpt>
      <trkpt lat="42.3781580" lon="-2.4823020">
        <ele>492.2</ele>
        <time>2020-01-12T12:30:52Z</time>
      </trkpt>
      <trkpt lat="42.3782310" lon="-2.4822620">
        <ele>492.2</ele>
        <time>2020-01-12T12:30:53Z</time>
      </trkpt>
      <trkpt lat="42.3783150" lon="-2.4822220">
        <ele>492.2</ele>
        <time>2020-01-12T12:30:54Z</time>
      </trkpt>
      <trkpt lat="42.3783900" lon="-2.4821770">
        <ele>492.2</ele>
        <time>2020-01-12T12:30:55Z</time>
      </trkpt>
      <trkpt lat="42.3784670" lon="-2.4821320">
        <ele>492.2</ele>
        <time>2020-01-12T12:30:56Z</time>
      </trkpt>
      <trkpt lat="42.3785440" lon="-2.4820850">
        <ele>492.2</ele>
        <time>2020-01-12T12:30:57Z</time>
      </trkpt>
      <trkpt lat="42.3786180" lon="-2.4820420">
        <ele>492.2</ele>
        <time>2020-01-12T12:30:58Z</time>
      </trkpt>
      <trkpt lat="42.3787040" lon="-2.4819980">
        <ele>492.2</ele>
        <time>2020-01-12T12:30:59Z</time>
      </trkpt>
      <trkpt lat="42.3787830" lon="-2.4819520">
        <ele>492.1</ele>
        <time>2020-01-12T12:31:00Z</time>
      </trkpt>
      <trkpt lat="42.3788560" lon="-2.4819080">
        <ele>492.1</ele>
        <time>2020-01-12T12:31:01Z</time>
      </trkpt>
      <trkpt lat="42.3789300" lon="-2.4818660">
        <ele>492.0</ele>
        <time>2020-01-12T12:31:02Z</time>
      </trkpt>
      <trkpt lat="42.3790070" lon="-2.4818220">
        <ele>491.8</ele>
        <time>2020-01-12T12:31:03Z</time>
      </trkpt>
      <trkpt lat="42.3790990" lon="-2.4817840">
        <ele>491.6</ele>
        <time>2020-01-12T12:31:04Z</time>
      </trkpt>
      <trkpt lat="42.3791800" lon="-2.4817350">
        <ele>491.4</ele>
        <time>2020-01-12T12:31:05Z</time>
      </trkpt>
      <trkpt lat="42.3792590" lon="-2.4816970">
        <ele>491.2</ele>
        <time>2020-01-12T12:31:06Z</time>
      </trkpt>
      <trkpt lat="42.3793330" lon="-2.4816590">
        <ele>491.1</ele>
        <time>2020-01-12T12:31:07Z</time>
      </trkpt>
      <trkpt lat="42.3794080" lon="-2.4816140">
        <ele>490.9</ele>
        <time>2020-01-12T12:31:08Z</time>
      </trkpt>
      <trkpt lat="42.3794860" lon="-2.4815770">
        <ele>490.7</ele>
        <time>2020-01-12T12:31:09Z</time>
      </trkpt>
      <trkpt lat="42.3795680" lon="-2.4815360">
        <ele>490.5</ele>
        <time>2020-01-12T12:31:10Z</time>
      </trkpt>
      <trkpt lat="42.3796410" lon="-2.4814940">
        <ele>490.3</ele>
        <time>2020-01-12T12:31:11Z</time>
      </trkpt>
      <trkpt lat="42.3797230" lon="-2.4814540">
        <ele>490.1</ele>
        <time>2020-01-12T12:31:12Z</time>
      </trkpt>
      <trkpt lat="42.3797990" lon="-2.4814130">
        <ele>489.9</ele>
        <time>2020-01-12T12:31:13Z</time>
      </trkpt>
      <trkpt lat="42.3798790" lon="-2.4813650">
        <ele>489.7</ele>
        <time>2020-01-12T12:31:14Z</time>
      </trkpt>
      <trkpt lat="42.3799550" lon="-2.4813250">
        <ele>489.5</ele>
        <time>2020-01-12T12:31:15Z</time>
      </trkpt>
      <trkpt lat="42.3800360" lon="-2.4812820">
        <ele>489.3</ele>
        <time>2020-01-12T12:31:16Z</time>
      </trkpt>
      <trkpt lat="42.3801170" lon="-2.4812450">
        <ele>489.1</ele>
        <time>2020-01-12T12:31:17Z</time>
      </trkpt>
      <trkpt lat="42.3801970" lon="-2.4812050">
        <ele>489.0</ele>
        <time>2020-01-12T12:31:18Z</time>
      </trkpt>
      <trkpt lat="42.3802750" lon="-2.4811650">
        <ele>488.9</ele>
        <time>2020-01-12T12:31:19Z</time>
      </trkpt>
      <trkpt lat="42.3803450" lon="-2.4811180">
        <ele>488.9</ele>
        <time>2020-01-12T12:31:20Z</time>
      </trkpt>
      <trkpt lat="42.3804210" lon="-2.4810770">
        <ele>488.9</ele>
        <time>2020-01-12T12:31:21Z</time>
      </trkpt>
      <trkpt lat="42.3804900" lon="-2.4810330">
        <ele>488.8</ele>
        <time>2020-01-12T12:31:22Z</time>
      </trkpt>
      <trkpt lat="42.3805790" lon="-2.4809920">
        <ele>488.8</ele>
        <time>2020-01-12T12:31:23Z</time>
      </trkpt>
      <trkpt lat="42.3806730" lon="-2.4809460">
        <ele>488.7</ele>
        <time>2020-01-12T12:31:24Z</time>
      </trkpt>
      <trkpt lat="42.3807450" lon="-2.4809070">
        <ele>488.6</ele>
        <time>2020-01-12T12:31:25Z</time>
      </trkpt>
      <trkpt lat="42.3808190" lon="-2.4808640">
        <ele>488.5</ele>
        <time>2020-01-12T12:31:26Z</time>
      </trkpt>
      <trkpt lat="42.3808980" lon="-2.4808170">
        <ele>488.3</ele>
        <time>2020-01-12T12:31:27Z</time>
      </trkpt>
      <trkpt lat="42.3809730" lon="-2.4807700">
        <ele>488.2</ele>
        <time>2020-01-12T12:31:28Z</time>
      </trkpt>
      <trkpt lat="42.3810610" lon="-2.4807250">
        <ele>488.1</ele>
        <time>2020-01-12T12:31:29Z</time>
      </trkpt>
      <trkpt lat="42.3811490" lon="-2.4806830">
        <ele>488.1</ele>
        <time>2020-01-12T12:31:30Z</time>
      </trkpt>
      <trkpt lat="42.3812310" lon="-2.4806460">
        <ele>488.1</ele>
        <time>2020-01-12T12:31:31Z</time>
      </trkpt>
      <trkpt lat="42.3813180" lon="-2.4806030">
        <ele>488.1</ele>
        <time>2020-01-12T12:31:32Z</time>
      </trkpt>
      <trkpt lat="42.3814030" lon="-2.4805550">
        <ele>488.0</ele>
        <time>2020-01-12T12:31:33Z</time>
      </trkpt>
      <trkpt lat="42.3814910" lon="-2.4805150">
        <ele>488.0</ele>
        <time>2020-01-12T12:31:34Z</time>
      </trkpt>
      <trkpt lat="42.3815780" lon="-2.4804820">
        <ele>487.9</ele>
        <time>2020-01-12T12:31:35Z</time>
      </trkpt>
      <trkpt lat="42.3816600" lon="-2.4804340">
        <ele>487.8</ele>
        <time>2020-01-12T12:31:36Z</time>
      </trkpt>
      <trkpt lat="42.3817400" lon="-2.4803890">
        <ele>487.7</ele>
        <time>2020-01-12T12:31:37Z</time>
      </trkpt>
      <trkpt lat="42.3818260" lon="-2.4803410">
        <ele>487.6</ele>
        <time>2020-01-12T12:31:38Z</time>
      </trkpt>
      <trkpt lat="42.3819070" lon="-2.4802920">
        <ele>487.4</ele>
        <time>2020-01-12T12:31:39Z</time>
      </trkpt>
      <trkpt lat="42.3819980" lon="-2.4802490">
        <ele>487.3</ele>
        <time>2020-01-12T12:31:40Z</time>
      </trkpt>
      <trkpt lat="42.3820780" lon="-2.4802060">
        <ele>487.2</ele>
        <time>2020-01-12T12:31:41Z</time>
      </trkpt>
      <trkpt lat="42.3821590" lon="-2.4801690">
        <ele>487.1</ele>
        <time>2020-01-12T12:31:42Z</time>
      </trkpt>
      <trkpt lat="42.3822500" lon="-2.4801260">
        <ele>487.0</ele>
        <time>2020-01-12T12:31:43Z</time>
      </trkpt>
      <trkpt lat="42.3823360" lon="-2.4800830">
        <ele>486.9</ele>
        <time>2020-01-12T12:31:44Z</time>
      </trkpt>
      <trkpt lat="42.3823860" lon="-2.4800420">
        <ele>486.8</ele>
        <time>2020-01-12T12:31:45Z</time>
      </trkpt>
      <trkpt lat="42.3824700" lon="-2.4800030">
        <ele>486.7</ele>
        <time>2020-01-12T12:31:46Z</time>
      </trkpt>
      <trkpt lat="42.3825400" lon="-2.4799490">
        <ele>486.6</ele>
        <time>2020-01-12T12:31:47Z</time>
      </trkpt>
      <trkpt lat="42.3826200" lon="-2.4799110">
        <ele>486.5</ele>
        <time>2020-01-12T12:31:48Z</time>
      </trkpt>
      <trkpt lat="42.3827000" lon="-2.4798740">
        <ele>486.4</ele>
        <time>2020-01-12T12:31:49Z</time>
      </trkpt>
      <trkpt lat="42.3827760" lon="-2.4798310">
        <ele>486.3</ele>
        <time>2020-01-12T12:31:50Z</time>
      </trkpt>
      <trkpt lat="42.3828670" lon="-2.4797880">
        <ele>486.1</ele>
        <time>2020-01-12T12:31:51Z</time>
      </trkpt>
      <trkpt lat="42.3829100" lon="-2.4797510">
        <ele>486.0</ele>
        <time>2020-01-12T12:31:52Z</time>
      </trkpt>
      <trkpt lat="42.3829850" lon="-2.4797130">
        <ele>485.9</ele>
        <time>2020-01-12T12:31:53Z</time>
      </trkpt>
      <trkpt lat="42.3830330" lon="-2.4796860">
        <ele>485.8</ele>
        <time>2020-01-12T12:31:54Z</time>
      </trkpt>
      <trkpt lat="42.3831140" lon="-2.4796320">
        <ele>485.7</ele>
        <time>2020-01-12T12:31:55Z</time>
      </trkpt>
      <trkpt lat="42.3831620" lon="-2.4795840">
        <ele>485.5</ele>
        <time>2020-01-12T12:31:56Z</time>
      </trkpt>
      <trkpt lat="42.3832480" lon="-2.4795410">
        <ele>485.4</ele>
        <time>2020-01-12T12:31:57Z</time>
      </trkpt>
      <trkpt lat="42.3833230" lon="-2.4794980">
        <ele>485.2</ele>
        <time>2020-01-12T12:31:58Z</time>
      </trkpt>
      <trkpt lat="42.3834140" lon="-2.4794550">
        <ele>485.0</ele>
        <time>2020-01-12T12:31:59Z</time>
      </trkpt>
      <trkpt lat="42.3834730" lon="-2.4794130">
        <ele>484.9</ele>
        <time>2020-01-12T12:32:00Z</time>
      </trkpt>
      <trkpt lat="42.3835640" lon="-2.4793750">
        <ele>484.7</ele>
        <time>2020-01-12T12:32:01Z</time>
      </trkpt>
      <trkpt lat="42.3836520" lon="-2.4793280">
        <ele>484.5</ele>
        <time>2020-01-12T12:32:02Z</time>
      </trkpt>
      <trkpt lat="42.3837150" lon="-2.4792910">
        <ele>484.4</ele>
        <time>2020-01-12T12:32:03Z</time>
      </trkpt>
      <trkpt lat="42.3838000" lon="-2.4792460">
        <ele>484.3</ele>
        <time>2020-01-12T12:32:04Z</time>
      </trkpt>
      <trkpt lat="42.3838800" lon="-2.4792060">
        <ele>484.1</ele>
        <time>2020-01-12T12:32:05Z</time>
      </trkpt>
      <trkpt lat="42.3839610" lon="-2.4791660">
        <ele>484.0</ele>
        <time>2020-01-12T12:32:06Z</time>
      </trkpt>
      <trkpt lat="42.3840470" lon="-2.4791230">
        <ele>483.9</ele>
        <time>2020-01-12T12:32:07Z</time>
      </trkpt>
      <trkpt lat="42.3841180" lon="-2.4790770">
        <ele>483.8</ele>
        <time>2020-01-12T12:32:08Z</time>
      </trkpt>
      <trkpt lat="42.3841920" lon="-2.4790370">
        <ele>483.7</ele>
        <time>2020-01-12T12:32:09Z</time>
      </trkpt>
      <trkpt lat="42.3842430" lon="-2.4790020">
        <ele>483.6</ele>
        <time>2020-01-12T12:32:10Z</time>
      </trkpt>
      <trkpt lat="42.3843170" lon="-2.4789630">
        <ele>483.5</ele>
        <time>2020-01-12T12:32:11Z</time>
      </trkpt>
      <trkpt lat="42.3844060" lon="-2.4789200">
        <ele>483.4</ele>
        <time>2020-01-12T12:32:12Z</time>
      </trkpt>
      <trkpt lat="42.3844680" lon="-2.4788830">
        <ele>483.2</ele>
        <time>2020-01-12T12:32:13Z</time>
      </trkpt>
      <trkpt lat="42.3845140" lon="-2.4788390">
        <ele>483.1</ele>
        <time>2020-01-12T12:32:14Z</time>
      </trkpt>
      <trkpt lat="42.3846070" lon="-2.4788080">
        <ele>483.0</ele>
        <time>2020-01-12T12:32:15Z</time>
      </trkpt>
      <trkpt lat="42.3846920" lon="-2.4787690">
        <ele>482.8</ele>
        <time>2020-01-12T12:32:16Z</time>
      </trkpt>
      <trkpt lat="42.3847690" lon="-2.4787270">
        <ele>482.6</ele>
        <time>2020-01-12T12:32:17Z</time>
      </trkpt>
      <trkpt lat="42.3848440" lon="-2.4786860">
        <ele>482.5</ele>
        <time>2020-01-12T12:32:18Z</time>
      </trkpt>
      <trkpt lat="42.3849210" lon="-2.4786490">
        <ele>482.3</ele>
        <time>2020-01-12T12:32:19Z</time>
      </trkpt>
      <trkpt lat="42.3849960" lon="-2.4786130">
        <ele>482.2</ele>
        <time>2020-01-12T12:32:20Z</time>
      </trkpt>
      <trkpt lat="42.3850720" lon="-2.4785760">
        <ele>482.1</ele>
        <time>2020-01-12T12:32:21Z</time>
      </trkpt>
      <trkpt lat="42.3851410" lon="-2.4785360">
        <ele>482.0</ele>
        <time>2020-01-12T12:32:22Z</time>
      </trkpt>
      <trkpt lat="42.3852160" lon="-2.4785010">
        <ele>481.9</ele>
        <time>2020-01-12T12:32:23Z</time>
      </trkpt>
      <trkpt lat="42.3852900" lon="-2.4784610">
        <ele>481.8</ele>
        <time>2020-01-12T12:32:24Z</time>
      </trkpt>
      <trkpt lat="42.3853530" lon="-2.4784220">
        <ele>481.7</ele>
        <time>2020-01-12T12:32:25Z</time>
      </trkpt>
      <trkpt lat="42.3854310" lon="-2.4783880">
        <ele>481.5</ele>
        <time>2020-01-12T12:32:26Z</time>
      </trkpt>
      <trkpt lat="42.3855080" lon="-2.4783500">
        <ele>481.4</ele>
        <time>2020-01-12T12:32:27Z</time>
      </trkpt>
      <trkpt lat="42.3855810" lon="-2.4783100">
        <ele>481.3</ele>
        <time>2020-01-12T12:32:28Z</time>
      </trkpt>
      <trkpt lat="42.3856610" lon="-2.4782720">
        <ele>481.1</ele>
        <time>2020-01-12T12:32:29Z</time>
      </trkpt>
      <trkpt lat="42.3857420" lon="-2.4782340">
        <ele>481.0</ele>
        <time>2020-01-12T12:32:30Z</time>
      </trkpt>
      <trkpt lat="42.3858170" lon="-2.4781890">
        <ele>480.8</ele>
        <time>2020-01-12T12:32:31Z</time>
      </trkpt>
      <trkpt lat="42.3858890" lon="-2.4781500">
        <ele>480.7</ele>
        <time>2020-01-12T12:32:32Z</time>
      </trkpt>
      <trkpt lat="42.3859560" lon="-2.4781030">
        <ele>480.6</ele>
        <time>2020-01-12T12:32:33Z</time>
      </trkpt>
      <trkpt lat="42.3860300" lon="-2.4780630">
        <ele>480.4</ele>
        <time>2020-01-12T12:32:34Z</time>
      </trkpt>
      <trkpt lat="42.3861150" lon="-2.4780240">
        <ele>480.3</ele>
        <time>2020-01-12T12:32:35Z</time>
      </trkpt>
      <trkpt lat="42.3862030" lon="-2.4779910">
        <ele>480.1</ele>
        <time>2020-01-12T12:32:36Z</time>
      </trkpt>
      <trkpt lat="42.3862790" lon="-2.4779490">
        <ele>480.0</ele>
        <time>2020-01-12T12:32:37Z</time>
      </trkpt>
      <trkpt lat="42.3863810" lon="-2.4779170">
        <ele>479.8</ele>
        <time>2020-01-12T12:32:38Z</time>
      </trkpt>
      <trkpt lat="42.3864440" lon="-2.4778740">
        <ele>479.7</ele>
        <time>2020-01-12T12:32:39Z</time>
      </trkpt>
      <trkpt lat="42.3865160" lon="-2.4778310">
        <ele>479.6</ele>
        <time>2020-01-12T12:32:40Z</time>
      </trkpt>
      <trkpt lat="42.3865950" lon="-2.4777870">
        <ele>479.4</ele>
        <time>2020-01-12T12:32:41Z</time>
      </trkpt>
      <trkpt lat="42.3866650" lon="-2.4777490">
        <ele>479.3</ele>
        <time>2020-01-12T12:32:42Z</time>
      </trkpt>
      <trkpt lat="42.3867480" lon="-2.4777120">
        <ele>479.1</ele>
        <time>2020-01-12T12:32:43Z</time>
      </trkpt>
      <trkpt lat="42.3868300" lon="-2.4776680">
        <ele>479.0</ele>
        <time>2020-01-12T12:32:44Z</time>
      </trkpt>
      <trkpt lat="42.3869200" lon="-2.4776240">
        <ele>478.7</ele>
        <time>2020-01-12T12:32:45Z</time>
      </trkpt>
      <trkpt lat="42.3869970" lon="-2.4775850">
        <ele>478.5</ele>
        <time>2020-01-12T12:32:46Z</time>
      </trkpt>
      <trkpt lat="42.3870780" lon="-2.4775450">
        <ele>478.4</ele>
        <time>2020-01-12T12:32:47Z</time>
      </trkpt>
      <trkpt lat="42.3871530" lon="-2.4775030">
        <ele>478.2</ele>
        <time>2020-01-12T12:32:48Z</time>
      </trkpt>
      <trkpt lat="42.3872210" lon="-2.4774590">
        <ele>478.1</ele>
        <time>2020-01-12T12:32:49Z</time>
      </trkpt>
      <trkpt lat="42.3873040" lon="-2.4774170">
        <ele>478.0</ele>
        <time>2020-01-12T12:32:50Z</time>
      </trkpt>
      <trkpt lat="42.3873790" lon="-2.4773770">
        <ele>477.9</ele>
        <time>2020-01-12T12:32:51Z</time>
      </trkpt>
      <trkpt lat="42.3874380" lon="-2.4773340">
        <ele>477.8</ele>
        <time>2020-01-12T12:32:52Z</time>
      </trkpt>
      <trkpt lat="42.3875230" lon="-2.4772880">
        <ele>477.7</ele>
        <time>2020-01-12T12:32:53Z</time>
      </trkpt>
      <trkpt lat="42.3876080" lon="-2.4772440">
        <ele>477.6</ele>
        <time>2020-01-12T12:32:54Z</time>
      </trkpt>
      <trkpt lat="42.3877060" lon="-2.4772020">
        <ele>477.4</ele>
        <time>2020-01-12T12:32:55Z</time>
      </trkpt>
      <trkpt lat="42.3877970" lon="-2.4771540">
        <ele>477.3</ele>
        <time>2020-01-12T12:32:56Z</time>
      </trkpt>
      <trkpt lat="42.3878910" lon="-2.4771120">
        <ele>477.1</ele>
        <time>2020-01-12T12:32:57Z</time>
      </trkpt>
      <trkpt lat="42.3879420" lon="-2.4770640">
        <ele>477.0</ele>
        <time>2020-01-12T12:32:58Z</time>
      </trkpt>
      <trkpt lat="42.3880300" lon="-2.4770170">
        <ele>476.9</ele>
        <time>2020-01-12T12:32:59Z</time>
      </trkpt>
      <trkpt lat="42.3881010" lon="-2.4769670">
        <ele>476.7</ele>
        <time>2020-01-12T12:33:00Z</time>
      </trkpt>
      <trkpt lat="42.3882140" lon="-2.4769300">
        <ele>476.6</ele>
        <time>2020-01-12T12:33:01Z</time>
      </trkpt>
      <trkpt lat="42.3882630" lon="-2.4768900">
        <ele>476.5</ele>
        <time>2020-01-12T12:33:02Z</time>
      </trkpt>
      <trkpt lat="42.3883500" lon="-2.4768450">
        <ele>476.3</ele>
        <time>2020-01-12T12:33:03Z</time>
      </trkpt>
      <trkpt lat="42.3884400" lon="-2.4767950">
        <ele>476.2</ele>
        <time>2020-01-12T12:33:04Z</time>
      </trkpt>
      <trkpt lat="42.3885240" lon="-2.4767530">
        <ele>476.1</ele>
        <time>2020-01-12T12:33:05Z</time>
      </trkpt>
      <trkpt lat="42.3886070" lon="-2.4767150">
        <ele>476.0</ele>
        <time>2020-01-12T12:33:06Z</time>
      </trkpt>
      <trkpt lat="42.3886890" lon="-2.4766680">
        <ele>475.9</ele>
        <time>2020-01-12T12:33:07Z</time>
      </trkpt>
      <trkpt lat="42.3887730" lon="-2.4766190">
        <ele>475.8</ele>
        <time>2020-01-12T12:33:08Z</time>
      </trkpt>
      <trkpt lat="42.3888640" lon="-2.4765640">
        <ele>475.6</ele>
        <time>2020-01-12T12:33:09Z</time>
      </trkpt>
      <trkpt lat="42.3889570" lon="-2.4765160">
        <ele>475.5</ele>
        <time>2020-01-12T12:33:10Z</time>
      </trkpt>
      <trkpt lat="42.3890340" lon="-2.4764660">
        <ele>475.3</ele>
        <time>2020-01-12T12:33:11Z</time>
      </trkpt>
      <trkpt lat="42.3891200" lon="-2.4764170">
        <ele>475.1</ele>
        <time>2020-01-12T12:33:12Z</time>
      </trkpt>
      <trkpt lat="42.3891880" lon="-2.4763700">
        <ele>474.9</ele>
        <time>2020-01-12T12:33:13Z</time>
      </trkpt>
      <trkpt lat="42.3892660" lon="-2.4763170">
        <ele>474.8</ele>
        <time>2020-01-12T12:33:14Z</time>
      </trkpt>
      <trkpt lat="42.3893490" lon="-2.4762660">
        <ele>474.6</ele>
        <time>2020-01-12T12:33:15Z</time>
      </trkpt>
      <trkpt lat="42.3894330" lon="-2.4762250">
        <ele>474.3</ele>
        <time>2020-01-12T12:33:16Z</time>
      </trkpt>
      <trkpt lat="42.3895150" lon="-2.4761850">
        <ele>474.1</ele>
        <time>2020-01-12T12:33:17Z</time>
      </trkpt>
      <trkpt lat="42.3895930" lon="-2.4761430">
        <ele>473.9</ele>
        <time>2020-01-12T12:33:18Z</time>
      </trkpt>
      <trkpt lat="42.3896630" lon="-2.4760920">
        <ele>473.8</ele>
        <time>2020-01-12T12:33:19Z</time>
      </trkpt>
      <trkpt lat="42.3897440" lon="-2.4760510">
        <ele>473.6</ele>
        <time>2020-01-12T12:33:20Z</time>
      </trkpt>
      <trkpt lat="42.3898260" lon="-2.4760080">
        <ele>473.3</ele>
        <time>2020-01-12T12:33:21Z</time>
      </trkpt>
      <trkpt lat="42.3898980" lon="-2.4759630">
        <ele>473.2</ele>
        <time>2020-01-12T12:33:22Z</time>
      </trkpt>
      <trkpt lat="42.3899760" lon="-2.4759220">
        <ele>473.0</ele>
        <time>2020-01-12T12:33:23Z</time>
      </trkpt>
      <trkpt lat="42.3900440" lon="-2.4758880">
        <ele>472.8</ele>
        <time>2020-01-12T12:33:24Z</time>
      </trkpt>
      <trkpt lat="42.3901220" lon="-2.4758460">
        <ele>472.5</ele>
        <time>2020-01-12T12:33:25Z</time>
      </trkpt>
      <trkpt lat="42.3902100" lon="-2.4758100">
        <ele>472.3</ele>
        <time>2020-01-12T12:33:26Z</time>
      </trkpt>
      <trkpt lat="42.3902930" lon="-2.4757680">
        <ele>472.1</ele>
        <time>2020-01-12T12:33:27Z</time>
      </trkpt>
      <trkpt lat="42.3903750" lon="-2.4757250">
        <ele>471.9</ele>
        <time>2020-01-12T12:33:28Z</time>
      </trkpt>
      <trkpt lat="42.3904630" lon="-2.4756840">
        <ele>471.6</ele>
        <time>2020-01-12T12:33:29Z</time>
      </trkpt>
      <trkpt lat="42.3905490" lon="-2.4756470">
        <ele>471.4</ele>
        <time>2020-01-12T12:33:30Z</time>
      </trkpt>
      <trkpt lat="42.3906300" lon="-2.4756100">
        <ele>471.3</ele>
        <time>2020-01-12T12:33:31Z</time>
      </trkpt>
      <trkpt lat="42.3907140" lon="-2.4755700">
        <ele>471.2</ele>
        <time>2020-01-12T12:33:32Z</time>
      </trkpt>
      <trkpt lat="42.3907840" lon="-2.4755280">
        <ele>471.2</ele>
        <time>2020-01-12T12:33:33Z</time>
      </trkpt>
      <trkpt lat="42.3908620" lon="-2.4754860">
        <ele>471.2</ele>
        <time>2020-01-12T12:33:34Z</time>
      </trkpt>
      <trkpt lat="42.3909460" lon="-2.4754430">
        <ele>471.2</ele>
        <time>2020-01-12T12:33:35Z</time>
      </trkpt>
      <trkpt lat="42.3910260" lon="-2.4754020">
        <ele>471.2</ele>
        <time>2020-01-12T12:33:36Z</time>
      </trkpt>
      <trkpt lat="42.3911070" lon="-2.4753610">
        <ele>471.3</ele>
        <time>2020-01-12T12:33:37Z</time>
      </trkpt>
      <trkpt lat="42.3911880" lon="-2.4753200">
        <ele>471.2</ele>
        <time>2020-01-12T12:33:38Z</time>
      </trkpt>
      <trkpt lat="42.3912460" lon="-2.4752770">
        <ele>471.2</ele>
        <time>2020-01-12T12:33:39Z</time>
      </trkpt>
      <trkpt lat="42.3913070" lon="-2.4752310">
        <ele>471.2</ele>
        <time>2020-01-12T12:33:40Z</time>
      </trkpt>
      <trkpt lat="42.3913580" lon="-2.4751880">
        <ele>471.1</ele>
        <time>2020-01-12T12:33:41Z</time>
      </trkpt>
      <trkpt lat="42.3914350" lon="-2.4751490">
        <ele>470.9</ele>
        <time>2020-01-12T12:33:42Z</time>
      </trkpt>
      <trkpt lat="42.3915200" lon="-2.4751050">
        <ele>470.7</ele>
        <time>2020-01-12T12:33:43Z</time>
      </trkpt>
      <trkpt lat="42.3915890" lon="-2.4750570">
        <ele>470.5</ele>
        <time>2020-01-12T12:33:44Z</time>
      </trkpt>
      <trkpt lat="42.3916580" lon="-2.4750090">
        <ele>470.4</ele>
        <time>2020-01-12T12:33:45Z</time>
      </trkpt>
      <trkpt lat="42.3917470" lon="-2.4749650">
        <ele>470.4</ele>
        <time>2020-01-12T12:33:46Z</time>
      </trkpt>
      <trkpt lat="42.3918450" lon="-2.4749230">
        <ele>470.4</ele>
        <time>2020-01-12T12:33:47Z</time>
      </trkpt>
      <trkpt lat="42.3919330" lon="-2.4748850">
        <ele>470.2</ele>
        <time>2020-01-12T12:33:48Z</time>
      </trkpt>
      <trkpt lat="42.3920090" lon="-2.4748440">
        <ele>469.9</ele>
        <time>2020-01-12T12:33:49Z</time>
      </trkpt>
      <trkpt lat="42.3920770" lon="-2.4748040">
        <ele>469.7</ele>
        <time>2020-01-12T12:33:50Z</time>
      </trkpt>
      <trkpt lat="42.3921830" lon="-2.4747780">
        <ele>469.4</ele>
        <time>2020-01-12T12:33:51Z</time>
      </trkpt>
      <trkpt lat="42.3922620" lon="-2.4747260">
        <ele>469.1</ele>
        <time>2020-01-12T12:33:52Z</time>
      </trkpt>
      <trkpt lat="42.3923240" lon="-2.4746610">
        <ele>468.7</ele>
        <time>2020-01-12T12:33:53Z</time>
      </trkpt>
      <trkpt lat="42.3923920" lon="-2.4745890">
        <ele>468.3</ele>
        <time>2020-01-12T12:33:54Z</time>
      </trkpt>
      <trkpt lat="42.3924620" lon="-2.4745280">
        <ele>468.1</ele>
        <time>2020-01-12T12:33:55Z</time>
      </trkpt>
      <trkpt lat="42.3925300" lon="-2.4744760">
        <ele>467.9</ele>
        <time>2020-01-12T12:33:56Z</time>
      </trkpt>
      <trkpt lat="42.3925970" lon="-2.4744380">
        <ele>467.9</ele>
        <time>2020-01-12T12:33:57Z</time>
      </trkpt>
      <trkpt lat="42.3926910" lon="-2.4744250">
        <ele>468.0</ele>
        <time>2020-01-12T12:33:58Z</time>
      </trkpt>
      <trkpt lat="42.3927600" lon="-2.4744200">
        <ele>468.1</ele>
        <time>2020-01-12T12:33:59Z</time>
      </trkpt>
      <trkpt lat="42.3928360" lon="-2.4744130">
        <ele>468.2</ele>
        <time>2020-01-12T12:34:00Z</time>
      </trkpt>
      <trkpt lat="42.3928980" lon="-2.4743890">
        <ele>468.4</ele>
        <time>2020-01-12T12:34:01Z</time>
      </trkpt>
      <trkpt lat="42.3929620" lon="-2.4743580">
        <ele>468.5</ele>
        <time>2020-01-12T12:34:02Z</time>
      </trkpt>
      <trkpt lat="42.3930340" lon="-2.4743260">
        <ele>468.7</ele>
        <time>2020-01-12T12:34:03Z</time>
      </trkpt>
      <trkpt lat="42.3931130" lon="-2.4742870">
        <ele>468.9</ele>
        <time>2020-01-12T12:34:04Z</time>
      </trkpt>
      <trkpt lat="42.3932130" lon="-2.4742470">
        <ele>469.1</ele>
        <time>2020-01-12T12:34:05Z</time>
      </trkpt>
      <trkpt lat="42.3932800" lon="-2.4742050">
        <ele>469.2</ele>
        <time>2020-01-12T12:34:06Z</time>
      </trkpt>
      <trkpt lat="42.3933790" lon="-2.4741620">
        <ele>469.3</ele>
        <time>2020-01-12T12:34:07Z</time>
      </trkpt>
      <trkpt lat="42.3934400" lon="-2.4741170">
        <ele>469.5</ele>
        <time>2020-01-12T12:34:08Z</time>
      </trkpt>
      <trkpt lat="42.3935300" lon="-2.4740750">
        <ele>469.7</ele>
        <time>2020-01-12T12:34:09Z</time>
      </trkpt>
      <trkpt lat="42.3936000" lon="-2.4740390">
        <ele>469.9</ele>
        <time>2020-01-12T12:34:10Z</time>
      </trkpt>
      <trkpt lat="42.3936820" lon="-2.4739970">
        <ele>470.0</ele>
        <time>2020-01-12T12:34:11Z</time>
      </trkpt>
      <trkpt lat="42.3937730" lon="-2.4739560">
        <ele>470.2</ele>
        <time>2020-01-12T12:34:12Z</time>
      </trkpt>
      <trkpt lat="42.3938320" lon="-2.4739100">
        <ele>470.2</ele>
        <time>2020-01-12T12:34:13Z</time>
      </trkpt>
      <trkpt lat="42.3938960" lon="-2.4738630">
        <ele>470.3</ele>
        <time>2020-01-12T12:34:14Z</time>
      </trkpt>
      <trkpt lat="42.3939720" lon="-2.4738210">
        <ele>470.3</ele>
        <time>2020-01-12T12:34:15Z</time>
      </trkpt>
      <trkpt lat="42.3940510" lon="-2.4737830">
        <ele>470.3</ele>
        <time>2020-01-12T12:34:16Z</time>
      </trkpt>
      <trkpt lat="42.3941330" lon="-2.4737470">
        <ele>470.3</ele>
        <time>2020-01-12T12:34:17Z</time>
      </trkpt>
      <trkpt lat="42.3941810" lon="-2.4737010">
        <ele>470.3</ele>
        <time>2020-01-12T12:34:18Z</time>
      </trkpt>
      <trkpt lat="42.3942520" lon="-2.4736580">
        <ele>470.3</ele>
        <time>2020-01-12T12:34:19Z</time>
      </trkpt>
      <trkpt lat="42.3943330" lon="-2.4736100">
        <ele>470.3</ele>
        <time>2020-01-12T12:34:20Z</time>
      </trkpt>
      <trkpt lat="42.3943220" lon="-2.4735670">
        <ele>470.3</ele>
        <time>2020-01-12T12:34:21Z</time>
      </trkpt>
      <trkpt lat="42.3943980" lon="-2.4735240">
        <ele>470.3</ele>
        <time>2020-01-12T12:34:22Z</time>
      </trkpt>
      <trkpt lat="42.3944700" lon="-2.4734850">
        <ele>470.3</ele>
        <time>2020-01-12T12:34:23Z</time>
      </trkpt>
      <trkpt lat="42.3945720" lon="-2.4734450">
        <ele>470.3</ele>
        <time>2020-01-12T12:34:24Z</time>
      </trkpt>
      <trkpt lat="42.3946610" lon="-2.4734060">
        <ele>470.4</ele>
        <time>2020-01-12T12:34:25Z</time>
      </trkpt>
      <trkpt lat="42.3947280" lon="-2.4733640">
        <ele>470.4</ele>
        <time>2020-01-12T12:34:26Z</time>
      </trkpt>
      <trkpt lat="42.3948150" lon="-2.4733380">
        <ele>470.3</ele>
        <time>2020-01-12T12:34:27Z</time>
      </trkpt>
      <trkpt lat="42.3949200" lon="-2.4732980">
        <ele>470.2</ele>
        <time>2020-01-12T12:34:28Z</time>
      </trkpt>
      <trkpt lat="42.3950170" lon="-2.4732600">
        <ele>470.0</ele>
        <time>2020-01-12T12:34:29Z</time>
      </trkpt>
      <trkpt lat="42.3950960" lon="-2.4732170">
        <ele>469.9</ele>
        <time>2020-01-12T12:34:30Z</time>
      </trkpt>
      <trkpt lat="42.3951760" lon="-2.4731760">
        <ele>469.4</ele>
        <time>2020-01-12T12:34:31Z</time>
      </trkpt>
      <trkpt lat="42.3952430" lon="-2.4731290">
        <ele>469.2</ele>
        <time>2020-01-12T12:34:32Z</time>
      </trkpt>
      <trkpt lat="42.3953230" lon="-2.4730840">
        <ele>469.0</ele>
        <time>2020-01-12T12:34:33Z</time>
      </trkpt>
      <trkpt lat="42.3954070" lon="-2.4730420">
        <ele>468.7</ele>
        <time>2020-01-12T12:34:34Z</time>
      </trkpt>
      <trkpt lat="42.3954800" lon="-2.4730010">
        <ele>468.5</ele>
        <time>2020-01-12T12:34:35Z</time>
      </trkpt>
      <trkpt lat="42.3955090" lon="-2.4729640">
        <ele>468.4</ele>
        <time>2020-01-12T12:34:36Z</time>
      </trkpt>
      <trkpt lat="42.3955900" lon="-2.4729190">
        <ele>468.2</ele>
        <time>2020-01-12T12:34:37Z</time>
      </trkpt>
      <trkpt lat="42.3956770" lon="-2.4728730">
        <ele>468.1</ele>
        <time>2020-01-12T12:34:38Z</time>
      </trkpt>
      <trkpt lat="42.3957570" lon="-2.4728250">
        <ele>468.1</ele>
        <time>2020-01-12T12:34:39Z</time>
      </trkpt>
      <trkpt lat="42.3958400" lon="-2.4727810">
        <ele>468.0</ele>
        <time>2020-01-12T12:34:40Z</time>
      </trkpt>
      <trkpt lat="42.3959210" lon="-2.4727390">
        <ele>468.0</ele>
        <time>2020-01-12T12:34:41Z</time>
      </trkpt>
      <trkpt lat="42.3959980" lon="-2.4726970">
        <ele>468.0</ele>
        <time>2020-01-12T12:34:42Z</time>
      </trkpt>
      <trkpt lat="42.3960890" lon="-2.4726540">
        <ele>467.9</ele>
        <time>2020-01-12T12:34:43Z</time>
      </trkpt>
      <trkpt lat="42.3961760" lon="-2.4726130">
        <ele>467.8</ele>
        <time>2020-01-12T12:34:44Z</time>
      </trkpt>
      <trkpt lat="42.3962510" lon="-2.4725730">
        <ele>467.6</ele>
        <time>2020-01-12T12:34:45Z</time>
      </trkpt>
      <trkpt lat="42.3963330" lon="-2.4725320">
        <ele>467.3</ele>
        <time>2020-01-12T12:34:46Z</time>
      </trkpt>
      <trkpt lat="42.3964210" lon="-2.4724900">
        <ele>467.0</ele>
        <time>2020-01-12T12:34:47Z</time>
      </trkpt>
      <trkpt lat="42.3965030" lon="-2.4724550">
        <ele>466.7</ele>
        <time>2020-01-12T12:34:48Z</time>
      </trkpt>
      <trkpt lat="42.3965770" lon="-2.4724140">
        <ele>466.5</ele>
        <time>2020-01-12T12:34:49Z</time>
      </trkpt>
      <trkpt lat="42.3966560" lon="-2.4723730">
        <ele>466.3</ele>
        <time>2020-01-12T12:34:50Z</time>
      </trkpt>
      <trkpt lat="42.3967300" lon="-2.4723300">
        <ele>466.1</ele>
        <time>2020-01-12T12:34:51Z</time>
      </trkpt>
      <trkpt lat="42.3967950" lon="-2.4722900">
        <ele>465.9</ele>
        <time>2020-01-12T12:34:52Z</time>
      </trkpt>
      <trkpt lat="42.3968790" lon="-2.4722510">
        <ele>465.7</ele>
        <time>2020-01-12T12:34:53Z</time>
      </trkpt>
      <trkpt lat="42.3969610" lon="-2.4722100">
        <ele>465.5</ele>
        <time>2020-01-12T12:34:54Z</time>
      </trkpt>
      <trkpt lat="42.3970450" lon="-2.4721760">
        <ele>465.3</ele>
        <time>2020-01-12T12:34:55Z</time>
      </trkpt>
      <trkpt lat="42.3971500" lon="-2.4721340">
        <ele>465.1</ele>
        <time>2020-01-12T12:34:56Z</time>
      </trkpt>
      <trkpt lat="42.3972450" lon="-2.4720960">
        <ele>465.1</ele>
        <time>2020-01-12T12:34:57Z</time>
      </trkpt>
      <trkpt lat="42.3973270" lon="-2.4720560">
        <ele>465.0</ele>
        <time>2020-01-12T12:34:58Z</time>
      </trkpt>
      <trkpt lat="42.3974120" lon="-2.4720150">
        <ele>465.0</ele>
        <time>2020-01-12T12:34:59Z</time>
      </trkpt>
      <trkpt lat="42.3974920" lon="-2.4719730">
        <ele>464.9</ele>
        <time>2020-01-12T12:35:00Z</time>
      </trkpt>
      <trkpt lat="42.3975250" lon="-2.4719340">
        <ele>464.9</ele>
        <time>2020-01-12T12:35:01Z</time>
      </trkpt>
      <trkpt lat="42.3976060" lon="-2.4718970">
        <ele>464.9</ele>
        <time>2020-01-12T12:35:02Z</time>
      </trkpt>
      <trkpt lat="42.3976830" lon="-2.4718570">
        <ele>464.9</ele>
        <time>2020-01-12T12:35:03Z</time>
      </trkpt>
      <trkpt lat="42.3977600" lon="-2.4718180">
        <ele>464.9</ele>
        <time>2020-01-12T12:35:04Z</time>
      </trkpt>
      <trkpt lat="42.3978370" lon="-2.4717800">
        <ele>464.9</ele>
        <time>2020-01-12T12:35:05Z</time>
      </trkpt>
      <trkpt lat="42.3979120" lon="-2.4717390">
        <ele>464.8</ele>
        <time>2020-01-12T12:35:06Z</time>
      </trkpt>
      <trkpt lat="42.3979870" lon="-2.4717000">
        <ele>464.8</ele>
        <time>2020-01-12T12:35:07Z</time>
      </trkpt>
      <trkpt lat="42.3980630" lon="-2.4716560">
        <ele>464.8</ele>
        <time>2020-01-12T12:35:08Z</time>
      </trkpt>
      <trkpt lat="42.3981340" lon="-2.4716180">
        <ele>464.8</ele>
        <time>2020-01-12T12:35:09Z</time>
      </trkpt>
      <trkpt lat="42.3982090" lon="-2.4715780">
        <ele>464.8</ele>
        <time>2020-01-12T12:35:10Z</time>
      </trkpt>
      <trkpt lat="42.3982840" lon="-2.4715350">
        <ele>464.7</ele>
        <time>2020-01-12T12:35:11Z</time>
      </trkpt>
      <trkpt lat="42.3983580" lon="-2.4714970">
        <ele>464.6</ele>
        <time>2020-01-12T12:35:12Z</time>
      </trkpt>
      <trkpt lat="42.3984350" lon="-2.4714530">
        <ele>464.5</ele>
        <time>2020-01-12T12:35:13Z</time>
      </trkpt>
      <trkpt lat="42.3985100" lon="-2.4714130">
        <ele>464.4</ele>
        <time>2020-01-12T12:35:14Z</time>
      </trkpt>
      <trkpt lat="42.3985740" lon="-2.4713820">
        <ele>464.3</ele>
        <time>2020-01-12T12:35:15Z</time>
      </trkpt>
      <trkpt lat="42.3986480" lon="-2.4713390">
        <ele>464.2</ele>
        <time>2020-01-12T12:35:16Z</time>
      </trkpt>
      <trkpt lat="42.3987140" lon="-2.4713000">
        <ele>464.1</ele>
        <time>2020-01-12T12:35:17Z</time>
      </trkpt>
      <trkpt lat="42.3987880" lon="-2.4712580">
        <ele>464.0</ele>
        <time>2020-01-12T12:35:18Z</time>
      </trkpt>
      <trkpt lat="42.3988670" lon="-2.4712150">
        <ele>463.9</ele>
        <time>2020-01-12T12:35:19Z</time>
      </trkpt>
      <trkpt lat="42.3989390" lon="-2.4711770">
        <ele>463.8</ele>
        <time>2020-01-12T12:35:20Z</time>
      </trkpt>
      <trkpt lat="42.3989920" lon="-2.4711370">
        <ele>463.8</ele>
        <time>2020-01-12T12:35:21Z</time>
      </trkpt>
      <trkpt lat="42.3990630" lon="-2.4710990">
        <ele>463.7</ele>
        <time>2020-01-12T12:35:22Z</time>
      </trkpt>
      <trkpt lat="42.3991330" lon="-2.4710570">
        <ele>463.7</ele>
        <time>2020-01-12T12:35:23Z</time>
      </trkpt>
      <trkpt lat="42.3992080" lon="-2.4710190">
        <ele>463.7</ele>
        <time>2020-01-12T12:35:24Z</time>
      </trkpt>
      <trkpt lat="42.3992810" lon="-2.4709760">
        <ele>463.7</ele>
        <time>2020-01-12T12:35:25Z</time>
      </trkpt>
      <trkpt lat="42.3993680" lon="-2.4709340">
        <ele>463.7</ele>
        <time>2020-01-12T12:35:26Z</time>
      </trkpt>
      <trkpt lat="42.3994460" lon="-2.4708930">
        <ele>463.7</ele>
        <time>2020-01-12T12:35:27Z</time>
      </trkpt>
      <trkpt lat="42.3995340" lon="-2.4708630">
        <ele>463.7</ele>
        <time>2020-01-12T12:35:28Z</time>
      </trkpt>
      <trkpt lat="42.3996100" lon="-2.4708220">
        <ele>463.7</ele>
        <time>2020-01-12T12:35:29Z</time>
      </trkpt>
      <trkpt lat="42.3997040" lon="-2.4707800">
        <ele>463.7</ele>
        <time>2020-01-12T12:35:30Z</time>
      </trkpt>
      <trkpt lat="42.3997770" lon="-2.4707350">
        <ele>463.6</ele>
        <time>2020-01-12T12:35:31Z</time>
      </trkpt>
      <trkpt lat="42.3998930" lon="-2.4706970">
        <ele>463.3</ele>
        <time>2020-01-12T12:35:32Z</time>
      </trkpt>
      <trkpt lat="42.3999540" lon="-2.4706610">
        <ele>463.2</ele>
        <time>2020-01-12T12:35:33Z</time>
      </trkpt>
      <trkpt lat="42.4000310" lon="-2.4706200">
        <ele>463.0</ele>
        <time>2020-01-12T12:35:34Z</time>
      </trkpt>
      <trkpt lat="42.4001030" lon="-2.4705790">
        <ele>462.7</ele>
        <time>2020-01-12T12:35:35Z</time>
      </trkpt>
      <trkpt lat="42.4001730" lon="-2.4705340">
        <ele>462.5</ele>
        <time>2020-01-12T12:35:36Z</time>
      </trkpt>
      <trkpt lat="42.4002530" lon="-2.4704920">
        <ele>462.3</ele>
        <time>2020-01-12T12:35:37Z</time>
      </trkpt>
      <trkpt lat="42.4003320" lon="-2.4704530">
        <ele>462.1</ele>
        <time>2020-01-12T12:35:38Z</time>
      </trkpt>
      <trkpt lat="42.4004120" lon="-2.4704080">
        <ele>461.9</ele>
        <time>2020-01-12T12:35:39Z</time>
      </trkpt>
      <trkpt lat="42.4004990" lon="-2.4703670">
        <ele>461.7</ele>
        <time>2020-01-12T12:35:40Z</time>
      </trkpt>
      <trkpt lat="42.4005800" lon="-2.4703240">
        <ele>461.6</ele>
        <time>2020-01-12T12:35:41Z</time>
      </trkpt>
      <trkpt lat="42.4006590" lon="-2.4702790">
        <ele>461.4</ele>
        <time>2020-01-12T12:35:42Z</time>
      </trkpt>
      <trkpt lat="42.4007460" lon="-2.4702340">
        <ele>461.1</ele>
        <time>2020-01-12T12:35:43Z</time>
      </trkpt>
      <trkpt lat="42.4008230" lon="-2.4701900">
        <ele>461.0</ele>
        <time>2020-01-12T12:35:44Z</time>
      </trkpt>
      <trkpt lat="42.4009080" lon="-2.4701470">
        <ele>460.8</ele>
        <time>2020-01-12T12:35:45Z</time>
      </trkpt>
      <trkpt lat="42.4009940" lon="-2.4701050">
        <ele>460.6</ele>
        <time>2020-01-12T12:35:46Z</time>
      </trkpt>
      <trkpt lat="42.4010720" lon="-2.4700690">
        <ele>460.4</ele>
        <time>2020-01-12T12:35:47Z</time>
      </trkpt>
      <trkpt lat="42.4011430" lon="-2.4700250">
        <ele>460.2</ele>
        <time>2020-01-12T12:35:48Z</time>
      </trkpt>
      <trkpt lat="42.4012220" lon="-2.4699790">
        <ele>460.1</ele>
        <time>2020-01-12T12:35:49Z</time>
      </trkpt>
      <trkpt lat="42.4013090" lon="-2.4699310">
        <ele>460.0</ele>
        <time>2020-01-12T12:35:50Z</time>
      </trkpt>
      <trkpt lat="42.4013900" lon="-2.4698910">
        <ele>459.9</ele>
        <time>2020-01-12T12:35:51Z</time>
      </trkpt>
      <trkpt lat="42.4014690" lon="-2.4698470">
        <ele>459.9</ele>
        <time>2020-01-12T12:35:52Z</time>
      </trkpt>
      <trkpt lat="42.4015130" lon="-2.4698000">
        <ele>459.9</ele>
        <time>2020-01-12T12:35:53Z</time>
      </trkpt>
      <trkpt lat="42.4016080" lon="-2.4697610">
        <ele>459.9</ele>
        <time>2020-01-12T12:35:54Z</time>
      </trkpt>
      <trkpt lat="42.4016760" lon="-2.4697140">
        <ele>459.9</ele>
        <time>2020-01-12T12:35:55Z</time>
      </trkpt>
      <trkpt lat="42.4017630" lon="-2.4696690">
        <ele>459.9</ele>
        <time>2020-01-12T12:35:56Z</time>
      </trkpt>
      <trkpt lat="42.4018300" lon="-2.4696260">
        <ele>459.9</ele>
        <time>2020-01-12T12:35:57Z</time>
      </trkpt>
      <trkpt lat="42.4019010" lon="-2.4695820">
        <ele>459.8</ele>
        <time>2020-01-12T12:35:58Z</time>
      </trkpt>
      <trkpt lat="42.4019800" lon="-2.4695470">
        <ele>459.7</ele>
        <time>2020-01-12T12:35:59Z</time>
      </trkpt>
      <trkpt lat="42.4020610" lon="-2.4695050">
        <ele>459.6</ele>
        <time>2020-01-12T12:36:00Z</time>
      </trkpt>
      <trkpt lat="42.4021360" lon="-2.4694650">
        <ele>459.4</ele>
        <time>2020-01-12T12:36:01Z</time>
      </trkpt>
      <trkpt lat="42.4022140" lon="-2.4694260">
        <ele>459.3</ele>
        <time>2020-01-12T12:36:02Z</time>
      </trkpt>
      <trkpt lat="42.4023010" lon="-2.4693900">
        <ele>459.1</ele>
        <time>2020-01-12T12:36:03Z</time>
      </trkpt>
      <trkpt lat="42.4023770" lon="-2.4693510">
        <ele>459.0</ele>
        <time>2020-01-12T12:36:04Z</time>
      </trkpt>
      <trkpt lat="42.4024520" lon="-2.4693060">
        <ele>459.0</ele>
        <time>2020-01-12T12:36:05Z</time>
      </trkpt>
      <trkpt lat="42.4025330" lon="-2.4692690">
        <ele>458.9</ele>
        <time>2020-01-12T12:36:06Z</time>
      </trkpt>
      <trkpt lat="42.4026130" lon="-2.4692250">
        <ele>458.9</ele>
        <time>2020-01-12T12:36:07Z</time>
      </trkpt>
      <trkpt lat="42.4026910" lon="-2.4691890">
        <ele>458.9</ele>
        <time>2020-01-12T12:36:08Z</time>
      </trkpt>
      <trkpt lat="42.4027680" lon="-2.4691520">
        <ele>458.9</ele>
        <time>2020-01-12T12:36:09Z</time>
      </trkpt>
      <trkpt lat="42.4028490" lon="-2.4691130">
        <ele>458.9</ele>
        <time>2020-01-12T12:36:10Z</time>
      </trkpt>
      <trkpt lat="42.4029160" lon="-2.4690700">
        <ele>459.0</ele>
        <time>2020-01-12T12:36:11Z</time>
      </trkpt>
      <trkpt lat="42.4029880" lon="-2.4690360">
        <ele>459.0</ele>
        <time>2020-01-12T12:36:12Z</time>
      </trkpt>
      <trkpt lat="42.4030700" lon="-2.4689960">
        <ele>459.0</ele>
        <time>2020-01-12T12:36:13Z</time>
      </trkpt>
      <trkpt lat="42.4031390" lon="-2.4689570">
        <ele>459.0</ele>
        <time>2020-01-12T12:36:14Z</time>
      </trkpt>
      <trkpt lat="42.4032190" lon="-2.4689150">
        <ele>459.0</ele>
        <time>2020-01-12T12:36:15Z</time>
      </trkpt>
      <trkpt lat="42.4032930" lon="-2.4688780">
        <ele>459.0</ele>
        <time>2020-01-12T12:36:16Z</time>
      </trkpt>
      <trkpt lat="42.4033710" lon="-2.4688380">
        <ele>459.0</ele>
        <time>2020-01-12T12:36:17Z</time>
      </trkpt>
      <trkpt lat="42.4034450" lon="-2.4687930">
        <ele>459.0</ele>
        <time>2020-01-12T12:36:18Z</time>
      </trkpt>
      <trkpt lat="42.4035090" lon="-2.4687530">
        <ele>459.0</ele>
        <time>2020-01-12T12:36:19Z</time>
      </trkpt>
      <trkpt lat="42.4035790" lon="-2.4687160">
        <ele>459.0</ele>
        <time>2020-01-12T12:36:20Z</time>
      </trkpt>
      <trkpt lat="42.4036570" lon="-2.4686770">
        <ele>459.0</ele>
        <time>2020-01-12T12:36:21Z</time>
      </trkpt>
      <trkpt lat="42.4037370" lon="-2.4686350">
        <ele>459.0</ele>
        <time>2020-01-12T12:36:22Z</time>
      </trkpt>
      <trkpt lat="42.4038160" lon="-2.4685980">
        <ele>459.0</ele>
        <time>2020-01-12T12:36:23Z</time>
      </trkpt>
      <trkpt lat="42.4038900" lon="-2.4685600">
        <ele>459.0</ele>
        <time>2020-01-12T12:36:24Z</time>
      </trkpt>
      <trkpt lat="42.4039650" lon="-2.4685170">
        <ele>459.1</ele>
        <time>2020-01-12T12:36:25Z</time>
      </trkpt>
      <trkpt lat="42.4040440" lon="-2.4684760">
        <ele>459.1</ele>
        <time>2020-01-12T12:36:26Z</time>
      </trkpt>
      <trkpt lat="42.4041150" lon="-2.4684340">
        <ele>459.1</ele>
        <time>2020-01-12T12:36:27Z</time>
      </trkpt>
      <trkpt lat="42.4041910" lon="-2.4683950">
        <ele>459.1</ele>
        <time>2020-01-12T12:36:28Z</time>
      </trkpt>
      <trkpt lat="42.4042780" lon="-2.4683580">
        <ele>459.2</ele>
        <time>2020-01-12T12:36:29Z</time>
      </trkpt>
      <trkpt lat="42.4043510" lon="-2.4683190">
        <ele>459.3</ele>
        <time>2020-01-12T12:36:30Z</time>
      </trkpt>
      <trkpt lat="42.4044230" lon="-2.4682810">
        <ele>459.3</ele>
        <time>2020-01-12T12:36:31Z</time>
      </trkpt>
      <trkpt lat="42.4044910" lon="-2.4682390">
        <ele>459.3</ele>
        <time>2020-01-12T12:36:32Z</time>
      </trkpt>
      <trkpt lat="42.4045520" lon="-2.4682030">
        <ele>459.3</ele>
        <time>2020-01-12T12:36:33Z</time>
      </trkpt>
      <trkpt lat="42.4046270" lon="-2.4681650">
        <ele>459.4</ele>
        <time>2020-01-12T12:36:34Z</time>
      </trkpt>
      <trkpt lat="42.4047050" lon="-2.4681200">
        <ele>459.5</ele>
        <time>2020-01-12T12:36:35Z</time>
      </trkpt>
      <trkpt lat="42.4047750" lon="-2.4680830">
        <ele>459.5</ele>
        <time>2020-01-12T12:36:36Z</time>
      </trkpt>
      <trkpt lat="42.4048430" lon="-2.4680340">
        <ele>459.4</ele>
        <time>2020-01-12T12:36:37Z</time>
      </trkpt>
      <trkpt lat="42.4049090" lon="-2.4679890">
        <ele>459.2</ele>
        <time>2020-01-12T12:36:38Z</time>
      </trkpt>
      <trkpt lat="42.4049770" lon="-2.4679590">
        <ele>459.0</ele>
        <time>2020-01-12T12:36:39Z</time>
      </trkpt>
      <trkpt lat="42.4050570" lon="-2.4679250">
        <ele>458.8</ele>
        <time>2020-01-12T12:36:40Z</time>
      </trkpt>
      <trkpt lat="42.4051400" lon="-2.4678810">
        <ele>458.6</ele>
        <time>2020-01-12T12:36:41Z</time>
      </trkpt>
      <trkpt lat="42.4052070" lon="-2.4678360">
        <ele>458.5</ele>
        <time>2020-01-12T12:36:42Z</time>
      </trkpt>
      <trkpt lat="42.4053220" lon="-2.4677970">
        <ele>458.4</ele>
        <time>2020-01-12T12:36:43Z</time>
      </trkpt>
      <trkpt lat="42.4053960" lon="-2.4677740">
        <ele>458.3</ele>
        <time>2020-01-12T12:36:44Z</time>
      </trkpt>
      <trkpt lat="42.4054870" lon="-2.4677520">
        <ele>458.3</ele>
        <time>2020-01-12T12:36:45Z</time>
      </trkpt>
      <trkpt lat="42.4055470" lon="-2.4677180">
        <ele>458.4</ele>
        <time>2020-01-12T12:36:46Z</time>
      </trkpt>
      <trkpt lat="42.4056030" lon="-2.4676700">
        <ele>458.5</ele>
        <time>2020-01-12T12:36:47Z</time>
      </trkpt>
      <trkpt lat="42.4056580" lon="-2.4676270">
        <ele>458.6</ele>
        <time>2020-01-12T12:36:48Z</time>
      </trkpt>
      <trkpt lat="42.4057190" lon="-2.4675840">
        <ele>458.8</ele>
        <time>2020-01-12T12:36:49Z</time>
      </trkpt>
      <trkpt lat="42.4057890" lon="-2.4675570">
        <ele>458.9</ele>
        <time>2020-01-12T12:36:50Z</time>
      </trkpt>
      <trkpt lat="42.4058840" lon="-2.4675200">
        <ele>459.0</ele>
        <time>2020-01-12T12:36:51Z</time>
      </trkpt>
      <trkpt lat="42.4059420" lon="-2.4674750">
        <ele>459.0</ele>
        <time>2020-01-12T12:36:52Z</time>
      </trkpt>
      <trkpt lat="42.4060150" lon="-2.4674300">
        <ele>459.1</ele>
        <time>2020-01-12T12:36:53Z</time>
      </trkpt>
      <trkpt lat="42.4061020" lon="-2.4673980">
        <ele>459.1</ele>
        <time>2020-01-12T12:36:54Z</time>
      </trkpt>
      <trkpt lat="42.4061690" lon="-2.4673700">
        <ele>459.1</ele>
        <time>2020-01-12T12:36:55Z</time>
      </trkpt>
      <trkpt lat="42.4062390" lon="-2.4673320">
        <ele>459.1</ele>
        <time>2020-01-12T12:36:56Z</time>
      </trkpt>
      <trkpt lat="42.4063050" lon="-2.4672960">
        <ele>459.1</ele>
        <time>2020-01-12T12:36:57Z</time>
      </trkpt>
      <trkpt lat="42.4063710" lon="-2.4672560">
        <ele>459.1</ele>
        <time>2020-01-12T12:36:58Z</time>
      </trkpt>
      <trkpt lat="42.4064500" lon="-2.4672180">
        <ele>459.1</ele>
        <time>2020-01-12T12:36:59Z</time>
      </trkpt>
      <trkpt lat="42.4065240" lon="-2.4671820">
        <ele>459.1</ele>
        <time>2020-01-12T12:37:00Z</time>
      </trkpt>
      <trkpt lat="42.4065870" lon="-2.4671410">
        <ele>459.1</ele>
        <time>2020-01-12T12:37:01Z</time>
      </trkpt>
      <trkpt lat="42.4066580" lon="-2.4671010">
        <ele>459.1</ele>
        <time>2020-01-12T12:37:02Z</time>
      </trkpt>
      <trkpt lat="42.4067350" lon="-2.4670630">
        <ele>459.1</ele>
        <time>2020-01-12T12:37:03Z</time>
      </trkpt>
      <trkpt lat="42.4068110" lon="-2.4670210">
        <ele>459.1</ele>
        <time>2020-01-12T12:37:04Z</time>
      </trkpt>
      <trkpt lat="42.4068880" lon="-2.4669800">
        <ele>459.1</ele>
        <time>2020-01-12T12:37:05Z</time>
      </trkpt>
      <trkpt lat="42.4069640" lon="-2.4669340">
        <ele>459.1</ele>
        <time>2020-01-12T12:37:06Z</time>
      </trkpt>
      <trkpt lat="42.4070280" lon="-2.4668870">
        <ele>459.1</ele>
        <time>2020-01-12T12:37:07Z</time>
      </trkpt>
      <trkpt lat="42.4071020" lon="-2.4668390">
        <ele>459.1</ele>
        <time>2020-01-12T12:37:08Z</time>
      </trkpt>
      <trkpt lat="42.4071710" lon="-2.4667940">
        <ele>459.2</ele>
        <time>2020-01-12T12:37:09Z</time>
      </trkpt>
      <trkpt lat="42.4072470" lon="-2.4667470">
        <ele>459.2</ele>
        <time>2020-01-12T12:37:10Z</time>
      </trkpt>
      <trkpt lat="42.4072960" lon="-2.4667040">
        <ele>459.2</ele>
        <time>2020-01-12T12:37:11Z</time>
      </trkpt>
      <trkpt lat="42.4073690" lon="-2.4666670">
        <ele>459.2</ele>
        <time>2020-01-12T12:37:12Z</time>
      </trkpt>
      <trkpt lat="42.4074540" lon="-2.4666260">
        <ele>459.1</ele>
        <time>2020-01-12T12:37:13Z</time>
      </trkpt>
      <trkpt lat="42.4075240" lon="-2.4665820">
        <ele>459.1</ele>
        <time>2020-01-12T12:37:14Z</time>
      </trkpt>
      <trkpt lat="42.4075750" lon="-2.4665390">
        <ele>459.0</ele>
        <time>2020-01-12T12:37:15Z</time>
      </trkpt>
      <trkpt lat="42.4076300" lon="-2.4664970">
        <ele>458.9</ele>
        <time>2020-01-12T12:37:16Z</time>
      </trkpt>
      <trkpt lat="42.4076990" lon="-2.4664520">
        <ele>458.7</ele>
        <time>2020-01-12T12:37:17Z</time>
      </trkpt>
      <trkpt lat="42.4077720" lon="-2.4664110">
        <ele>458.5</ele>
        <time>2020-01-12T12:37:18Z</time>
      </trkpt>
      <trkpt lat="42.4078410" lon="-2.4663720">
        <ele>458.4</ele>
        <time>2020-01-12T12:37:19Z</time>
      </trkpt>
      <trkpt lat="42.4079210" lon="-2.4663300">
        <ele>458.3</ele>
        <time>2020-01-12T12:37:20Z</time>
      </trkpt>
      <trkpt lat="42.4079990" lon="-2.4662890">
        <ele>458.3</ele>
        <time>2020-01-12T12:37:21Z</time>
      </trkpt>
      <trkpt lat="42.4080780" lon="-2.4662500">
        <ele>458.3</ele>
        <time>2020-01-12T12:37:22Z</time>
      </trkpt>
      <trkpt lat="42.4081510" lon="-2.4662080">
        <ele>458.4</ele>
        <time>2020-01-12T12:37:23Z</time>
      </trkpt>
      <trkpt lat="42.4082280" lon="-2.4661670">
        <ele>458.5</ele>
        <time>2020-01-12T12:37:24Z</time>
      </trkpt>
      <trkpt lat="42.4082980" lon="-2.4661230">
        <ele>458.6</ele>
        <time>2020-01-12T12:37:25Z</time>
      </trkpt>
      <trkpt lat="42.4083720" lon="-2.4660900">
        <ele>458.8</ele>
        <time>2020-01-12T12:37:26Z</time>
      </trkpt>
      <trkpt lat="42.4084440" lon="-2.4660500">
        <ele>459.0</ele>
        <time>2020-01-12T12:37:27Z</time>
      </trkpt>
      <trkpt lat="42.4085130" lon="-2.4660120">
        <ele>459.2</ele>
        <time>2020-01-12T12:37:28Z</time>
      </trkpt>
      <trkpt lat="42.4085780" lon="-2.4659740">
        <ele>459.3</ele>
        <time>2020-01-12T12:37:29Z</time>
      </trkpt>
      <trkpt lat="42.4086470" lon="-2.4659350">
        <ele>459.4</ele>
        <time>2020-01-12T12:37:30Z</time>
      </trkpt>
      <trkpt lat="42.4087120" lon="-2.4658980">
        <ele>459.4</ele>
        <time>2020-01-12T12:37:31Z</time>
      </trkpt>
      <trkpt lat="42.4087880" lon="-2.4658570">
        <ele>459.3</ele>
        <time>2020-01-12T12:37:32Z</time>
      </trkpt>
      <trkpt lat="42.4088430" lon="-2.4658210">
        <ele>459.3</ele>
        <time>2020-01-12T12:37:33Z</time>
      </trkpt>
      <trkpt lat="42.4089080" lon="-2.4657890">
        <ele>459.3</ele>
        <time>2020-01-12T12:37:34Z</time>
      </trkpt>
      <trkpt lat="42.4089760" lon="-2.4657610">
        <ele>459.3</ele>
        <time>2020-01-12T12:37:35Z</time>
      </trkpt>
      <trkpt lat="42.4090410" lon="-2.4657300">
        <ele>459.3</ele>
        <time>2020-01-12T12:37:36Z</time>
      </trkpt>
      <trkpt lat="42.4091100" lon="-2.4656970">
        <ele>459.3</ele>
        <time>2020-01-12T12:37:37Z</time>
      </trkpt>
      <trkpt lat="42.4091790" lon="-2.4656640">
        <ele>459.3</ele>
        <time>2020-01-12T12:37:38Z</time>
      </trkpt>
      <trkpt lat="42.4092490" lon="-2.4656380">
        <ele>459.5</ele>
        <time>2020-01-12T12:37:39Z</time>
      </trkpt>
      <trkpt lat="42.4093230" lon="-2.4656140">
        <ele>459.6</ele>
        <time>2020-01-12T12:37:40Z</time>
      </trkpt>
      <trkpt lat="42.4093990" lon="-2.4655950">
        <ele>459.6</ele>
        <time>2020-01-12T12:37:41Z</time>
      </trkpt>
      <trkpt lat="42.4094610" lon="-2.4655730">
        <ele>459.7</ele>
        <time>2020-01-12T12:37:42Z</time>
      </trkpt>
      <trkpt lat="42.4095420" lon="-2.4655530">
        <ele>459.7</ele>
        <time>2020-01-12T12:37:43Z</time>
      </trkpt>
      <trkpt lat="42.4096150" lon="-2.4655310">
        <ele>459.8</ele>
        <time>2020-01-12T12:37:44Z</time>
      </trkpt>
      <trkpt lat="42.4096820" lon="-2.4655070">
        <ele>459.8</ele>
        <time>2020-01-12T12:37:45Z</time>
      </trkpt>
      <trkpt lat="42.4097290" lon="-2.4654810">
        <ele>459.8</ele>
        <time>2020-01-12T12:37:46Z</time>
      </trkpt>
      <trkpt lat="42.4098050" lon="-2.4654640">
        <ele>459.8</ele>
        <time>2020-01-12T12:37:47Z</time>
      </trkpt>
      <trkpt lat="42.4098640" lon="-2.4654410">
        <ele>459.9</ele>
        <time>2020-01-12T12:37:48Z</time>
      </trkpt>
      <trkpt lat="42.4099570" lon="-2.4654220">
        <ele>459.7</ele>
        <time>2020-01-12T12:37:49Z</time>
      </trkpt>
      <trkpt lat="42.4100340" lon="-2.4653900">
        <ele>459.6</ele>
        <time>2020-01-12T12:37:50Z</time>
      </trkpt>
      <trkpt lat="42.4100870" lon="-2.4653600">
        <ele>459.6</ele>
        <time>2020-01-12T12:37:51Z</time>
      </trkpt>
      <trkpt lat="42.4101730" lon="-2.4653230">
        <ele>459.5</ele>
        <time>2020-01-12T12:37:52Z</time>
      </trkpt>
      <trkpt lat="42.4102410" lon="-2.4652960">
        <ele>459.4</ele>
        <time>2020-01-12T12:37:53Z</time>
      </trkpt>
      <trkpt lat="42.4103130" lon="-2.4652600">
        <ele>459.5</ele>
        <time>2020-01-12T12:37:54Z</time>
      </trkpt>
      <trkpt lat="42.4103670" lon="-2.4652350">
        <ele>459.5</ele>
        <time>2020-01-12T12:37:55Z</time>
      </trkpt>
      <trkpt lat="42.4104450" lon="-2.4652260">
        <ele>459.6</ele>
        <time>2020-01-12T12:37:56Z</time>
      </trkpt>
      <trkpt lat="42.4105270" lon="-2.4652160">
        <ele>459.7</ele>
        <time>2020-01-12T12:37:57Z</time>
      </trkpt>
      <trkpt lat="42.4106060" lon="-2.4652130">
        <ele>459.7</ele>
        <time>2020-01-12T12:37:58Z</time>
      </trkpt>
      <trkpt lat="42.4106860" lon="-2.4652050">
        <ele>459.7</ele>
        <time>2020-01-12T12:37:59Z</time>
      </trkpt>
      <trkpt lat="42.4107810" lon="-2.4651990">
        <ele>459.5</ele>
        <time>2020-01-12T12:38:00Z</time>
      </trkpt>
      <trkpt lat="42.4108740" lon="-2.4651970">
        <ele>459.1</ele>
        <time>2020-01-12T12:38:01Z</time>
      </trkpt>
      <trkpt lat="42.4109560" lon="-2.4651700">
        <ele>458.7</ele>
        <time>2020-01-12T12:38:02Z</time>
      </trkpt>
      <trkpt lat="42.4110220" lon="-2.4651530">
        <ele>458.3</ele>
        <time>2020-01-12T12:38:03Z</time>
      </trkpt>
      <trkpt lat="42.4111230" lon="-2.4651210">
        <ele>457.7</ele>
        <time>2020-01-12T12:38:04Z</time>
      </trkpt>
      <trkpt lat="42.4111780" lon="-2.4650790">
        <ele>457.4</ele>
        <time>2020-01-12T12:38:05Z</time>
      </trkpt>
      <trkpt lat="42.4112280" lon="-2.4650260">
        <ele>457.0</ele>
        <time>2020-01-12T12:38:06Z</time>
      </trkpt>
      <trkpt lat="42.4112740" lon="-2.4649580">
        <ele>456.6</ele>
        <time>2020-01-12T12:38:07Z</time>
      </trkpt>
      <trkpt lat="42.4113360" lon="-2.4648900">
        <ele>456.2</ele>
        <time>2020-01-12T12:38:08Z</time>
      </trkpt>
      <trkpt lat="42.4113890" lon="-2.4648100">
        <ele>455.7</ele>
        <time>2020-01-12T12:38:09Z</time>
      </trkpt>
      <trkpt lat="42.4114300" lon="-2.4647310">
        <ele>455.2</ele>
        <time>2020-01-12T12:38:10Z</time>
      </trkpt>
      <trkpt lat="42.4114780" lon="-2.4646650">
        <ele>454.7</ele>
        <time>2020-01-12T12:38:11Z</time>
      </trkpt>
      <trkpt lat="42.4115390" lon="-2.4646050">
        <ele>454.4</ele>
        <time>2020-01-12T12:38:12Z</time>
      </trkpt>
      <trkpt lat="42.4116040" lon="-2.4645380">
        <ele>454.1</ele>
        <time>2020-01-12T12:38:13Z</time>
      </trkpt>
      <trkpt lat="42.4116650" lon="-2.4644890">
        <ele>453.7</ele>
        <time>2020-01-12T12:38:14Z</time>
      </trkpt>
      <trkpt lat="42.4117380" lon="-2.4644420">
        <ele>453.3</ele>
        <time>2020-01-12T12:38:15Z</time>
      </trkpt>
      <trkpt lat="42.4118080" lon="-2.4643920">
        <ele>452.9</ele>
        <time>2020-01-12T12:38:16Z</time>
      </trkpt>
      <trkpt lat="42.4118770" lon="-2.4643420">
        <ele>452.6</ele>
        <time>2020-01-12T12:38:17Z</time>
      </trkpt>
      <trkpt lat="42.4119510" lon="-2.4642840">
        <ele>452.2</ele>
        <time>2020-01-12T12:38:18Z</time>
      </trkpt>
      <trkpt lat="42.4120330" lon="-2.4642300">
        <ele>451.8</ele>
        <time>2020-01-12T12:38:19Z</time>
      </trkpt>
      <trkpt lat="42.4121130" lon="-2.4641770">
        <ele>451.4</ele>
        <time>2020-01-12T12:38:20Z</time>
      </trkpt>
      <trkpt lat="42.4121910" lon="-2.4641310">
        <ele>451.0</ele>
        <time>2020-01-12T12:38:21Z</time>
      </trkpt>
      <trkpt lat="42.4122800" lon="-2.4640760">
        <ele>450.6</ele>
        <time>2020-01-12T12:38:22Z</time>
      </trkpt>
      <trkpt lat="42.4123480" lon="-2.4640220">
        <ele>450.5</ele>
        <time>2020-01-12T12:38:23Z</time>
      </trkpt>
      <trkpt lat="42.4124250" lon="-2.4639740">
        <ele>450.3</ele>
        <time>2020-01-12T12:38:24Z</time>
      </trkpt>
      <trkpt lat="42.4125000" lon="-2.4639220">
        <ele>450.1</ele>
        <time>2020-01-12T12:38:25Z</time>
      </trkpt>
      <trkpt lat="42.4125050" lon="-2.4638770">
        <ele>450.0</ele>
        <time>2020-01-12T12:38:26Z</time>
      </trkpt>
      <trkpt lat="42.4126240" lon="-2.4638270">
        <ele>449.7</ele>
        <time>2020-01-12T12:38:27Z</time>
      </trkpt>
      <trkpt lat="42.4126890" lon="-2.4637900">
        <ele>449.5</ele>
        <time>2020-01-12T12:38:28Z</time>
      </trkpt>
      <trkpt lat="42.4127680" lon="-2.4637350">
        <ele>449.3</ele>
        <time>2020-01-12T12:38:29Z</time>
      </trkpt>
      <trkpt lat="42.4128540" lon="-2.4637000">
        <ele>449.0</ele>
        <time>2020-01-12T12:38:30Z</time>
      </trkpt>
      <trkpt lat="42.4129120" lon="-2.4636610">
        <ele>448.9</ele>
        <time>2020-01-12T12:38:31Z</time>
      </trkpt>
      <trkpt lat="42.4129870" lon="-2.4636100">
        <ele>448.6</ele>
        <time>2020-01-12T12:38:32Z</time>
      </trkpt>
      <trkpt lat="42.4130740" lon="-2.4635710">
        <ele>448.4</ele>
        <time>2020-01-12T12:38:33Z</time>
      </trkpt>
      <trkpt lat="42.4131490" lon="-2.4635230">
        <ele>448.2</ele>
        <time>2020-01-12T12:38:34Z</time>
      </trkpt>
      <trkpt lat="42.4132200" lon="-2.4634790">
        <ele>448.0</ele>
        <time>2020-01-12T12:38:35Z</time>
      </trkpt>
      <trkpt lat="42.4132990" lon="-2.4634310">
        <ele>447.8</ele>
        <time>2020-01-12T12:38:36Z</time>
      </trkpt>
      <trkpt lat="42.4133630" lon="-2.4633890">
        <ele>447.8</ele>
        <time>2020-01-12T12:38:37Z</time>
      </trkpt>
      <trkpt lat="42.4134330" lon="-2.4633460">
        <ele>447.7</ele>
        <time>2020-01-12T12:38:38Z</time>
      </trkpt>
      <trkpt lat="42.4134890" lon="-2.4633020">
        <ele>447.7</ele>
        <time>2020-01-12T12:38:39Z</time>
      </trkpt>
      <trkpt lat="42.4135590" lon="-2.4632530">
        <ele>447.7</ele>
        <time>2020-01-12T12:38:40Z</time>
      </trkpt>
      <trkpt lat="42.4136270" lon="-2.4632110">
        <ele>447.7</ele>
        <time>2020-01-12T12:38:41Z</time>
      </trkpt>
      <trkpt lat="42.4136850" lon="-2.4631680">
        <ele>447.7</ele>
        <time>2020-01-12T12:38:42Z</time>
      </trkpt>
      <trkpt lat="42.4137600" lon="-2.4631320">
        <ele>447.6</ele>
        <time>2020-01-12T12:38:43Z</time>
      </trkpt>
      <trkpt lat="42.4138330" lon="-2.4630880">
        <ele>447.5</ele>
        <time>2020-01-12T12:38:44Z</time>
      </trkpt>
      <trkpt lat="42.4139050" lon="-2.4630510">
        <ele>447.4</ele>
        <time>2020-01-12T12:38:45Z</time>
      </trkpt>
      <trkpt lat="42.4139660" lon="-2.4630120">
        <ele>447.3</ele>
        <time>2020-01-12T12:38:46Z</time>
      </trkpt>
      <trkpt lat="42.4140300" lon="-2.4629670">
        <ele>447.3</ele>
        <time>2020-01-12T12:38:47Z</time>
      </trkpt>
      <trkpt lat="42.4140980" lon="-2.4629220">
        <ele>447.2</ele>
        <time>2020-01-12T12:38:48Z</time>
      </trkpt>
      <trkpt lat="42.4141610" lon="-2.4628800">
        <ele>447.2</ele>
        <time>2020-01-12T12:38:49Z</time>
      </trkpt>
      <trkpt lat="42.4142270" lon="-2.4628390">
        <ele>447.2</ele>
        <time>2020-01-12T12:38:50Z</time>
      </trkpt>
      <trkpt lat="42.4142990" lon="-2.4627950">
        <ele>447.2</ele>
        <time>2020-01-12T12:38:51Z</time>
      </trkpt>
      <trkpt lat="42.4143700" lon="-2.4627490">
        <ele>447.2</ele>
        <time>2020-01-12T12:38:52Z</time>
      </trkpt>
      <trkpt lat="42.4144420" lon="-2.4626970">
        <ele>447.2</ele>
        <time>2020-01-12T12:38:53Z</time>
      </trkpt>
      <trkpt lat="42.4145140" lon="-2.4626530">
        <ele>447.1</ele>
        <time>2020-01-12T12:38:54Z</time>
      </trkpt>
      <trkpt lat="42.4145870" lon="-2.4626170">
        <ele>447.0</ele>
        <time>2020-01-12T12:38:55Z</time>
      </trkpt>
      <trkpt lat="42.4146530" lon="-2.4625690">
        <ele>446.9</ele>
        <time>2020-01-12T12:38:56Z</time>
      </trkpt>
      <trkpt lat="42.4147110" lon="-2.4625290">
        <ele>446.7</ele>
        <time>2020-01-12T12:38:57Z</time>
      </trkpt>
      <trkpt lat="42.4147760" lon="-2.4624810">
        <ele>446.6</ele>
        <time>2020-01-12T12:38:58Z</time>
      </trkpt>
      <trkpt lat="42.4148440" lon="-2.4624350">
        <ele>446.4</ele>
        <time>2020-01-12T12:38:59Z</time>
      </trkpt>
      <trkpt lat="42.4149160" lon="-2.4623880">
        <ele>446.3</ele>
        <time>2020-01-12T12:39:00Z</time>
      </trkpt>
      <trkpt lat="42.4150110" lon="-2.4623520">
        <ele>446.2</ele>
        <time>2020-01-12T12:39:01Z</time>
      </trkpt>
      <trkpt lat="42.4150880" lon="-2.4623010">
        <ele>446.1</ele>
        <time>2020-01-12T12:39:02Z</time>
      </trkpt>
      <trkpt lat="42.4151360" lon="-2.4622490">
        <ele>446.0</ele>
        <time>2020-01-12T12:39:03Z</time>
      </trkpt>
      <trkpt lat="42.4152070" lon="-2.4621980">
        <ele>445.9</ele>
        <time>2020-01-12T12:39:04Z</time>
      </trkpt>
      <trkpt lat="42.4153070" lon="-2.4621590">
        <ele>445.7</ele>
        <time>2020-01-12T12:39:05Z</time>
      </trkpt>
      <trkpt lat="42.4153850" lon="-2.4621130">
        <ele>445.5</ele>
        <time>2020-01-12T12:39:06Z</time>
      </trkpt>
      <trkpt lat="42.4154560" lon="-2.4620500">
        <ele>445.3</ele>
        <time>2020-01-12T12:39:07Z</time>
      </trkpt>
      <trkpt lat="42.4155100" lon="-2.4620100">
        <ele>445.3</ele>
        <time>2020-01-12T12:39:08Z</time>
      </trkpt>
      <trkpt lat="42.4155840" lon="-2.4619670">
        <ele>445.2</ele>
        <time>2020-01-12T12:39:09Z</time>
      </trkpt>
      <trkpt lat="42.4156530" lon="-2.4619220">
        <ele>445.2</ele>
        <time>2020-01-12T12:39:10Z</time>
      </trkpt>
      <trkpt lat="42.4157330" lon="-2.4618760">
        <ele>445.2</ele>
        <time>2020-01-12T12:39:11Z</time>
      </trkpt>
      <trkpt lat="42.4157960" lon="-2.4618270">
        <ele>445.2</ele>
        <time>2020-01-12T12:39:12Z</time>
      </trkpt>
      <trkpt lat="42.4158790" lon="-2.4617880">
        <ele>445.2</ele>
        <time>2020-01-12T12:39:13Z</time>
      </trkpt>
      <trkpt lat="42.4159560" lon="-2.4617450">
        <ele>445.2</ele>
        <time>2020-01-12T12:39:14Z</time>
      </trkpt>
      <trkpt lat="42.4160370" lon="-2.4617050">
        <ele>445.2</ele>
        <time>2020-01-12T12:39:15Z</time>
      </trkpt>
      <trkpt lat="42.4161100" lon="-2.4616670">
        <ele>445.2</ele>
        <time>2020-01-12T12:39:16Z</time>
      </trkpt>
      <trkpt lat="42.4161830" lon="-2.4616260">
        <ele>445.2</ele>
        <time>2020-01-12T12:39:17Z</time>
      </trkpt>
      <trkpt lat="42.4162450" lon="-2.4615820">
        <ele>445.2</ele>
        <time>2020-01-12T12:39:18Z</time>
      </trkpt>
      <trkpt lat="42.4163190" lon="-2.4615440">
        <ele>445.2</ele>
        <time>2020-01-12T12:39:19Z</time>
      </trkpt>
      <trkpt lat="42.4163940" lon="-2.4614950">
        <ele>445.2</ele>
        <time>2020-01-12T12:39:20Z</time>
      </trkpt>
      <trkpt lat="42.4164640" lon="-2.4614470">
        <ele>445.2</ele>
        <time>2020-01-12T12:39:21Z</time>
      </trkpt>
      <trkpt lat="42.4165240" lon="-2.4613970">
        <ele>445.2</ele>
        <time>2020-01-12T12:39:22Z</time>
      </trkpt>
      <trkpt lat="42.4166030" lon="-2.4613670">
        <ele>445.2</ele>
        <time>2020-01-12T12:39:23Z</time>
      </trkpt>
      <trkpt lat="42.4166890" lon="-2.4613200">
        <ele>445.2</ele>
        <time>2020-01-12T12:39:24Z</time>
      </trkpt>
      <trkpt lat="42.4167550" lon="-2.4612640">
        <ele>445.2</ele>
        <time>2020-01-12T12:39:25Z</time>
      </trkpt>
      <trkpt lat="42.4168450" lon="-2.4612270">
        <ele>445.2</ele>
        <time>2020-01-12T12:39:26Z</time>
      </trkpt>
      <trkpt lat="42.4169180" lon="-2.4611840">
        <ele>445.2</ele>
        <time>2020-01-12T12:39:27Z</time>
      </trkpt>
      <trkpt lat="42.4169710" lon="-2.4611230">
        <ele>445.2</ele>
        <time>2020-01-12T12:39:28Z</time>
      </trkpt>
      <trkpt lat="42.4170350" lon="-2.4610670">
        <ele>445.2</ele>
        <time>2020-01-12T12:39:29Z</time>
      </trkpt>
      <trkpt lat="42.4171100" lon="-2.4610260">
        <ele>445.2</ele>
        <time>2020-01-12T12:39:30Z</time>
      </trkpt>
      <trkpt lat="42.4171590" lon="-2.4609750">
        <ele>445.2</ele>
        <time>2020-01-12T12:39:31Z</time>
      </trkpt>
      <trkpt lat="42.4172260" lon="-2.4609270">
        <ele>445.2</ele>
        <time>2020-01-12T12:39:32Z</time>
      </trkpt>
      <trkpt lat="42.4173170" lon="-2.4608780">
        <ele>445.2</ele>
        <time>2020-01-12T12:39:33Z</time>
      </trkpt>
      <trkpt lat="42.4173910" lon="-2.4608350">
        <ele>445.1</ele>
        <time>2020-01-12T12:39:34Z</time>
      </trkpt>
      <trkpt lat="42.4174590" lon="-2.4607900">
        <ele>444.9</ele>
        <time>2020-01-12T12:39:35Z</time>
      </trkpt>
      <trkpt lat="42.4175430" lon="-2.4607430">
        <ele>444.7</ele>
        <time>2020-01-12T12:39:36Z</time>
      </trkpt>
      <trkpt lat="42.4176120" lon="-2.4606880">
        <ele>444.5</ele>
        <time>2020-01-12T12:39:37Z</time>
      </trkpt>
      <trkpt lat="42.4176790" lon="-2.4606340">
        <ele>444.2</ele>
        <time>2020-01-12T12:39:38Z</time>
      </trkpt>
      <trkpt lat="42.4177430" lon="-2.4605920">
        <ele>444.0</ele>
        <time>2020-01-12T12:39:39Z</time>
      </trkpt>
      <trkpt lat="42.4178070" lon="-2.4605380">
        <ele>443.8</ele>
        <time>2020-01-12T12:39:40Z</time>
      </trkpt>
      <trkpt lat="42.4178650" lon="-2.4604840">
        <ele>443.6</ele>
        <time>2020-01-12T12:39:41Z</time>
      </trkpt>
      <trkpt lat="42.4179480" lon="-2.4604540">
        <ele>443.4</ele>
        <time>2020-01-12T12:39:42Z</time>
      </trkpt>
      <trkpt lat="42.4180250" lon="-2.4604010">
        <ele>443.3</ele>
        <time>2020-01-12T12:39:43Z</time>
      </trkpt>
      <trkpt lat="42.4180990" lon="-2.4603550">
        <ele>443.3</ele>
        <time>2020-01-12T12:39:44Z</time>
      </trkpt>
      <trkpt lat="42.4181710" lon="-2.4603150">
        <ele>443.2</ele>
        <time>2020-01-12T12:39:45Z</time>
      </trkpt>
      <trkpt lat="42.4182430" lon="-2.4602740">
        <ele>443.2</ele>
        <time>2020-01-12T12:39:46Z</time>
      </trkpt>
      <trkpt lat="42.4183160" lon="-2.4602380">
        <ele>443.2</ele>
        <time>2020-01-12T12:39:47Z</time>
      </trkpt>
      <trkpt lat="42.4183830" lon="-2.4601860">
        <ele>443.2</ele>
        <time>2020-01-12T12:39:48Z</time>
      </trkpt>
      <trkpt lat="42.4184600" lon="-2.4601440">
        <ele>443.2</ele>
        <time>2020-01-12T12:39:49Z</time>
      </trkpt>
      <trkpt lat="42.4185310" lon="-2.4601040">
        <ele>443.1</ele>
        <time>2020-01-12T12:39:50Z</time>
      </trkpt>
      <trkpt lat="42.4186060" lon="-2.4600610">
        <ele>443.0</ele>
        <time>2020-01-12T12:39:51Z</time>
      </trkpt>
      <trkpt lat="42.4186740" lon="-2.4600200">
        <ele>442.8</ele>
        <time>2020-01-12T12:39:52Z</time>
      </trkpt>
      <trkpt lat="42.4187490" lon="-2.4599770">
        <ele>442.6</ele>
        <time>2020-01-12T12:39:53Z</time>
      </trkpt>
      <trkpt lat="42.4188000" lon="-2.4599290">
        <ele>442.4</ele>
        <time>2020-01-12T12:39:54Z</time>
      </trkpt>
      <trkpt lat="42.4188670" lon="-2.4598890">
        <ele>442.2</ele>
        <time>2020-01-12T12:39:55Z</time>
      </trkpt>
      <trkpt lat="42.4189410" lon="-2.4598460">
        <ele>442.0</ele>
        <time>2020-01-12T12:39:56Z</time>
      </trkpt>
      <trkpt lat="42.4190140" lon="-2.4598070">
        <ele>441.7</ele>
        <time>2020-01-12T12:39:57Z</time>
      </trkpt>
      <trkpt lat="42.4190770" lon="-2.4597570">
        <ele>441.6</ele>
        <time>2020-01-12T12:39:58Z</time>
      </trkpt>
      <trkpt lat="42.4191510" lon="-2.4597090">
        <ele>441.4</ele>
        <time>2020-01-12T12:39:59Z</time>
      </trkpt>
      <trkpt lat="42.4192170" lon="-2.4596600">
        <ele>441.3</ele>
        <time>2020-01-12T12:40:00Z</time>
      </trkpt>
      <trkpt lat="42.4192750" lon="-2.4596160">
        <ele>441.3</ele>
        <time>2020-01-12T12:40:01Z</time>
      </trkpt>
      <trkpt lat="42.4193490" lon="-2.4595820">
        <ele>441.3</ele>
        <time>2020-01-12T12:40:02Z</time>
      </trkpt>
      <trkpt lat="42.4194130" lon="-2.4595360">
        <ele>441.3</ele>
        <time>2020-01-12T12:40:03Z</time>
      </trkpt>
      <trkpt lat="42.4194950" lon="-2.4594890">
        <ele>441.3</ele>
        <time>2020-01-12T12:40:04Z</time>
      </trkpt>
      <trkpt lat="42.4195680" lon="-2.4594460">
        <ele>441.3</ele>
        <time>2020-01-12T12:40:05Z</time>
      </trkpt>
      <trkpt lat="42.4196290" lon="-2.4593980">
        <ele>441.3</ele>
        <time>2020-01-12T12:40:06Z</time>
      </trkpt>
      <trkpt lat="42.4196920" lon="-2.4593540">
        <ele>441.2</ele>
        <time>2020-01-12T12:40:07Z</time>
      </trkpt>
      <trkpt lat="42.4197630" lon="-2.4593140">
        <ele>441.2</ele>
        <time>2020-01-12T12:40:08Z</time>
      </trkpt>
      <trkpt lat="42.4198260" lon="-2.4592710">
        <ele>441.2</ele>
        <time>2020-01-12T12:40:09Z</time>
      </trkpt>
      <trkpt lat="42.4198640" lon="-2.4592420">
        <ele>441.2</ele>
        <time>2020-01-12T12:40:10Z</time>
      </trkpt>
      <trkpt lat="42.4199260" lon="-2.4592040">
        <ele>441.2</ele>
        <time>2020-01-12T12:40:11Z</time>
      </trkpt>
      <trkpt lat="42.4199890" lon="-2.4591660">
        <ele>441.2</ele>
        <time>2020-01-12T12:40:12Z</time>
      </trkpt>
      <trkpt lat="42.4200610" lon="-2.4591300">
        <ele>441.2</ele>
        <time>2020-01-12T12:40:13Z</time>
      </trkpt>
      <trkpt lat="42.4201290" lon="-2.4590880">
        <ele>441.2</ele>
        <time>2020-01-12T12:40:14Z</time>
      </trkpt>
      <trkpt lat="42.4201750" lon="-2.4590500">
        <ele>441.2</ele>
        <time>2020-01-12T12:40:15Z</time>
      </trkpt>
      <trkpt lat="42.4202410" lon="-2.4590120">
        <ele>441.2</ele>
        <time>2020-01-12T12:40:16Z</time>
      </trkpt>
      <trkpt lat="42.4203060" lon="-2.4589690">
        <ele>441.2</ele>
        <time>2020-01-12T12:40:17Z</time>
      </trkpt>
      <trkpt lat="42.4203720" lon="-2.4589280">
        <ele>441.2</ele>
        <time>2020-01-12T12:40:18Z</time>
      </trkpt>
      <trkpt lat="42.4204400" lon="-2.4588870">
        <ele>441.2</ele>
        <time>2020-01-12T12:40:19Z</time>
      </trkpt>
      <trkpt lat="42.4205010" lon="-2.4588460">
        <ele>441.1</ele>
        <time>2020-01-12T12:40:20Z</time>
      </trkpt>
      <trkpt lat="42.4205790" lon="-2.4587970">
        <ele>441.1</ele>
        <time>2020-01-12T12:40:21Z</time>
      </trkpt>
      <trkpt lat="42.4206460" lon="-2.4587570">
        <ele>441.1</ele>
        <time>2020-01-12T12:40:22Z</time>
      </trkpt>
      <trkpt lat="42.4206940" lon="-2.4587190">
        <ele>441.1</ele>
        <time>2020-01-12T12:40:23Z</time>
      </trkpt>
      <trkpt lat="42.4207570" lon="-2.4586820">
        <ele>441.1</ele>
        <time>2020-01-12T12:40:24Z</time>
      </trkpt>
      <trkpt lat="42.4208110" lon="-2.4586420">
        <ele>441.1</ele>
        <time>2020-01-12T12:40:25Z</time>
      </trkpt>
      <trkpt lat="42.4208660" lon="-2.4586110">
        <ele>441.1</ele>
        <time>2020-01-12T12:40:26Z</time>
      </trkpt>
      <trkpt lat="42.4209280" lon="-2.4585770">
        <ele>441.1</ele>
        <time>2020-01-12T12:40:27Z</time>
      </trkpt>
      <trkpt lat="42.4209830" lon="-2.4585460">
        <ele>441.1</ele>
        <time>2020-01-12T12:40:28Z</time>
      </trkpt>
      <trkpt lat="42.4210450" lon="-2.4585150">
        <ele>441.1</ele>
        <time>2020-01-12T12:40:29Z</time>
      </trkpt>
      <trkpt lat="42.4211120" lon="-2.4584830">
        <ele>441.1</ele>
        <time>2020-01-12T12:40:30Z</time>
      </trkpt>
      <trkpt lat="42.4211660" lon="-2.4584500">
        <ele>441.1</ele>
        <time>2020-01-12T12:40:31Z</time>
      </trkpt>
      <trkpt lat="42.4212280" lon="-2.4584110">
        <ele>441.0</ele>
        <time>2020-01-12T12:40:32Z</time>
      </trkpt>
      <trkpt lat="42.4212940" lon="-2.4583690">
        <ele>441.0</ele>
        <time>2020-01-12T12:40:33Z</time>
      </trkpt>
      <trkpt lat="42.4213560" lon="-2.4583250">
        <ele>440.9</ele>
        <time>2020-01-12T12:40:34Z</time>
      </trkpt>
      <trkpt lat="42.4214190" lon="-2.4582870">
        <ele>440.8</ele>
        <time>2020-01-12T12:40:35Z</time>
      </trkpt>
      <trkpt lat="42.4214950" lon="-2.4582500">
        <ele>440.6</ele>
        <time>2020-01-12T12:40:36Z</time>
      </trkpt>
      <trkpt lat="42.4215710" lon="-2.4582140">
        <ele>440.4</ele>
        <time>2020-01-12T12:40:37Z</time>
      </trkpt>
      <trkpt lat="42.4216460" lon="-2.4581800">
        <ele>440.1</ele>
        <time>2020-01-12T12:40:38Z</time>
      </trkpt>
      <trkpt lat="42.4217380" lon="-2.4581490">
        <ele>439.9</ele>
        <time>2020-01-12T12:40:39Z</time>
      </trkpt>
      <trkpt lat="42.4218060" lon="-2.4581130">
        <ele>439.6</ele>
        <time>2020-01-12T12:40:40Z</time>
      </trkpt>
      <trkpt lat="42.4218810" lon="-2.4580820">
        <ele>439.4</ele>
        <time>2020-01-12T12:40:41Z</time>
      </trkpt>
      <trkpt lat="42.4219750" lon="-2.4580460">
        <ele>439.1</ele>
        <time>2020-01-12T12:40:42Z</time>
      </trkpt>
      <trkpt lat="42.4220270" lon="-2.4580140">
        <ele>439.0</ele>
        <time>2020-01-12T12:40:43Z</time>
      </trkpt>
      <trkpt lat="42.4220980" lon="-2.4579780">
        <ele>438.7</ele>
        <time>2020-01-12T12:40:44Z</time>
      </trkpt>
      <trkpt lat="42.4221680" lon="-2.4579430">
        <ele>438.5</ele>
        <time>2020-01-12T12:40:45Z</time>
      </trkpt>
      <trkpt lat="42.4222030" lon="-2.4579140">
        <ele>438.4</ele>
        <time>2020-01-12T12:40:46Z</time>
      </trkpt>
      <trkpt lat="42.4222670" lon="-2.4578680">
        <ele>438.1</ele>
        <time>2020-01-12T12:40:48Z</time>
      </trkpt>
      <trkpt lat="42.4223030" lon="-2.4578300">
        <ele>438.0</ele>
        <time>2020-01-12T12:40:49Z</time>
      </trkpt>
      <trkpt lat="42.4223340" lon="-2.4577850">
        <ele>437.9</ele>
        <time>2020-01-12T12:40:50Z</time>
      </trkpt>
      <trkpt lat="42.4223600" lon="-2.4577420">
        <ele>437.7</ele>
        <time>2020-01-12T12:40:51Z</time>
      </trkpt>
      <trkpt lat="42.4224010" lon="-2.4577080">
        <ele>437.6</ele>
        <time>2020-01-12T12:40:52Z</time>
      </trkpt>
      <trkpt lat="42.4224490" lon="-2.4576880">
        <ele>437.5</ele>
        <time>2020-01-12T12:40:53Z</time>
      </trkpt>
      <trkpt lat="42.4224950" lon="-2.4576850">
        <ele>437.1</ele>
        <time>2020-01-12T12:40:54Z</time>
      </trkpt>
      <trkpt lat="42.4225370" lon="-2.4576980">
        <ele>436.9</ele>
        <time>2020-01-12T12:40:55Z</time>
      </trkpt>
      <trkpt lat="42.4226120" lon="-2.4577100">
        <ele>436.6</ele>
        <time>2020-01-12T12:40:56Z</time>
      </trkpt>
      <trkpt lat="42.4226590" lon="-2.4577150">
        <ele>436.4</ele>
        <time>2020-01-12T12:40:57Z</time>
      </trkpt>
      <trkpt lat="42.4227220" lon="-2.4577020">
        <ele>436.0</ele>
        <time>2020-01-12T12:40:58Z</time>
      </trkpt>
      <trkpt lat="42.4227790" lon="-2.4576790">
        <ele>435.6</ele>
        <time>2020-01-12T12:40:59Z</time>
      </trkpt>
      <trkpt lat="42.4228400" lon="-2.4576550">
        <ele>435.5</ele>
        <time>2020-01-12T12:41:00Z</time>
      </trkpt>
      <trkpt lat="42.4229130" lon="-2.4576290">
        <ele>435.4</ele>
        <time>2020-01-12T12:41:01Z</time>
      </trkpt>
      <trkpt lat="42.4229870" lon="-2.4576060">
        <ele>435.2</ele>
        <time>2020-01-12T12:41:02Z</time>
      </trkpt>
      <trkpt lat="42.4230520" lon="-2.4575790">
        <ele>435.0</ele>
        <time>2020-01-12T12:41:03Z</time>
      </trkpt>
      <trkpt lat="42.4231240" lon="-2.4575650">
        <ele>434.7</ele>
        <time>2020-01-12T12:41:04Z</time>
      </trkpt>
      <trkpt lat="42.4232080" lon="-2.4575550">
        <ele>434.4</ele>
        <time>2020-01-12T12:41:05Z</time>
      </trkpt>
      <trkpt lat="42.4232450" lon="-2.4575240">
        <ele>434.2</ele>
        <time>2020-01-12T12:41:06Z</time>
      </trkpt>
      <trkpt lat="42.4233250" lon="-2.4575010">
        <ele>434.0</ele>
        <time>2020-01-12T12:41:07Z</time>
      </trkpt>
      <trkpt lat="42.4234060" lon="-2.4574830">
        <ele>433.7</ele>
        <time>2020-01-12T12:41:08Z</time>
      </trkpt>
      <trkpt lat="42.4234980" lon="-2.4574620">
        <ele>433.3</ele>
        <time>2020-01-12T12:41:09Z</time>
      </trkpt>
      <trkpt lat="42.4235540" lon="-2.4574480">
        <ele>433.2</ele>
        <time>2020-01-12T12:41:10Z</time>
      </trkpt>
      <trkpt lat="42.4236310" lon="-2.4574290">
        <ele>432.9</ele>
        <time>2020-01-12T12:41:11Z</time>
      </trkpt>
      <trkpt lat="42.4237110" lon="-2.4574080">
        <ele>432.7</ele>
        <time>2020-01-12T12:41:12Z</time>
      </trkpt>
      <trkpt lat="42.4237760" lon="-2.4573810">
        <ele>432.6</ele>
        <time>2020-01-12T12:41:13Z</time>
      </trkpt>
      <trkpt lat="42.4238460" lon="-2.4573590">
        <ele>432.4</ele>
        <time>2020-01-12T12:41:14Z</time>
      </trkpt>
      <trkpt lat="42.4239370" lon="-2.4573380">
        <ele>432.2</ele>
        <time>2020-01-12T12:41:15Z</time>
      </trkpt>
      <trkpt lat="42.4240230" lon="-2.4573170">
        <ele>431.9</ele>
        <time>2020-01-12T12:41:16Z</time>
      </trkpt>
      <trkpt lat="42.4240870" lon="-2.4572950">
        <ele>431.8</ele>
        <time>2020-01-12T12:41:17Z</time>
      </trkpt>
      <trkpt lat="42.4241460" lon="-2.4572740">
        <ele>431.6</ele>
        <time>2020-01-12T12:41:18Z</time>
      </trkpt>
      <trkpt lat="42.4242320" lon="-2.4572580">
        <ele>431.4</ele>
        <time>2020-01-12T12:41:19Z</time>
      </trkpt>
      <trkpt lat="42.4243020" lon="-2.4572310">
        <ele>431.3</ele>
        <time>2020-01-12T12:41:20Z</time>
      </trkpt>
      <trkpt lat="42.4244140" lon="-2.4572150">
        <ele>431.0</ele>
        <time>2020-01-12T12:41:21Z</time>
      </trkpt>
      <trkpt lat="42.4245110" lon="-2.4571990">
        <ele>430.8</ele>
        <time>2020-01-12T12:41:22Z</time>
      </trkpt>
      <trkpt lat="42.4245320" lon="-2.4571610">
        <ele>430.7</ele>
        <time>2020-01-12T12:41:23Z</time>
      </trkpt>
      <trkpt lat="42.4246130" lon="-2.4571290">
        <ele>430.6</ele>
        <time>2020-01-12T12:41:24Z</time>
      </trkpt>
      <trkpt lat="42.4246880" lon="-2.4571070">
        <ele>430.4</ele>
        <time>2020-01-12T12:41:25Z</time>
      </trkpt>
      <trkpt lat="42.4247790" lon="-2.4570860">
        <ele>430.1</ele>
        <time>2020-01-12T12:41:26Z</time>
      </trkpt>
      <trkpt lat="42.4248750" lon="-2.4570590">
        <ele>429.7</ele>
        <time>2020-01-12T12:41:27Z</time>
      </trkpt>
      <trkpt lat="42.4249680" lon="-2.4570270">
        <ele>429.3</ele>
        <time>2020-01-12T12:41:28Z</time>
      </trkpt>
      <trkpt lat="42.4250420" lon="-2.4570000">
        <ele>429.1</ele>
        <time>2020-01-12T12:41:29Z</time>
      </trkpt>
      <trkpt lat="42.4251220" lon="-2.4569730">
        <ele>428.9</ele>
        <time>2020-01-12T12:41:30Z</time>
      </trkpt>
      <trkpt lat="42.4252080" lon="-2.4569520">
        <ele>428.8</ele>
        <time>2020-01-12T12:41:31Z</time>
      </trkpt>
      <trkpt lat="42.4252890" lon="-2.4569300">
        <ele>428.6</ele>
        <time>2020-01-12T12:41:32Z</time>
      </trkpt>
      <trkpt lat="42.4253630" lon="-2.4569000">
        <ele>428.5</ele>
        <time>2020-01-12T12:41:33Z</time>
      </trkpt>
      <trkpt lat="42.4254590" lon="-2.4568690">
        <ele>428.2</ele>
        <time>2020-01-12T12:41:34Z</time>
      </trkpt>
      <trkpt lat="42.4255350" lon="-2.4568310">
        <ele>428.0</ele>
        <time>2020-01-12T12:41:35Z</time>
      </trkpt>
      <trkpt lat="42.4256080" lon="-2.4568000">
        <ele>427.9</ele>
        <time>2020-01-12T12:41:36Z</time>
      </trkpt>
      <trkpt lat="42.4257120" lon="-2.4567750">
        <ele>427.8</ele>
        <time>2020-01-12T12:41:37Z</time>
      </trkpt>
      <trkpt lat="42.4257870" lon="-2.4567530">
        <ele>427.7</ele>
        <time>2020-01-12T12:41:38Z</time>
      </trkpt>
      <trkpt lat="42.4258680" lon="-2.4567220">
        <ele>427.5</ele>
        <time>2020-01-12T12:41:39Z</time>
      </trkpt>
      <trkpt lat="42.4259500" lon="-2.4566920">
        <ele>427.2</ele>
        <time>2020-01-12T12:41:40Z</time>
      </trkpt>
      <trkpt lat="42.4260510" lon="-2.4566640">
        <ele>426.7</ele>
        <time>2020-01-12T12:41:41Z</time>
      </trkpt>
      <trkpt lat="42.4261420" lon="-2.4566380">
        <ele>426.3</ele>
        <time>2020-01-12T12:41:42Z</time>
      </trkpt>
      <trkpt lat="42.4262220" lon="-2.4566030">
        <ele>426.1</ele>
        <time>2020-01-12T12:41:43Z</time>
      </trkpt>
      <trkpt lat="42.4262860" lon="-2.4565640">
        <ele>425.9</ele>
        <time>2020-01-12T12:41:44Z</time>
      </trkpt>
      <trkpt lat="42.4263770" lon="-2.4565400">
        <ele>425.7</ele>
        <time>2020-01-12T12:41:45Z</time>
      </trkpt>
      <trkpt lat="42.4264680" lon="-2.4565140">
        <ele>425.5</ele>
        <time>2020-01-12T12:41:46Z</time>
      </trkpt>
      <trkpt lat="42.4265490" lon="-2.4564800">
        <ele>425.2</ele>
        <time>2020-01-12T12:41:47Z</time>
      </trkpt>
      <trkpt lat="42.4266240" lon="-2.4564470">
        <ele>425.1</ele>
        <time>2020-01-12T12:41:48Z</time>
      </trkpt>
      <trkpt lat="42.4267100" lon="-2.4564200">
        <ele>425.0</ele>
        <time>2020-01-12T12:41:49Z</time>
      </trkpt>
      <trkpt lat="42.4268170" lon="-2.4564070">
        <ele>424.9</ele>
        <time>2020-01-12T12:41:50Z</time>
      </trkpt>
      <trkpt lat="42.4269050" lon="-2.4563800">
        <ele>424.9</ele>
        <time>2020-01-12T12:41:51Z</time>
      </trkpt>
      <trkpt lat="42.4269930" lon="-2.4563490">
        <ele>424.9</ele>
        <time>2020-01-12T12:41:52Z</time>
      </trkpt>
      <trkpt lat="42.4270640" lon="-2.4563240">
        <ele>424.6</ele>
        <time>2020-01-12T12:41:53Z</time>
      </trkpt>
      <trkpt lat="42.4271560" lon="-2.4562960">
        <ele>424.4</ele>
        <time>2020-01-12T12:41:54Z</time>
      </trkpt>
      <trkpt lat="42.4272120" lon="-2.4562810">
        <ele>424.3</ele>
        <time>2020-01-12T12:41:55Z</time>
      </trkpt>
      <trkpt lat="42.4272910" lon="-2.4562590">
        <ele>424.1</ele>
        <time>2020-01-12T12:41:56Z</time>
      </trkpt>
      <trkpt lat="42.4273740" lon="-2.4562310">
        <ele>424.0</ele>
        <time>2020-01-12T12:41:57Z</time>
      </trkpt>
      <trkpt lat="42.4274790" lon="-2.4562090">
        <ele>423.9</ele>
        <time>2020-01-12T12:41:58Z</time>
      </trkpt>
      <trkpt lat="42.4275560" lon="-2.4561810">
        <ele>423.9</ele>
        <time>2020-01-12T12:41:59Z</time>
      </trkpt>
      <trkpt lat="42.4276520" lon="-2.4561520">
        <ele>423.9</ele>
        <time>2020-01-12T12:42:00Z</time>
      </trkpt>
      <trkpt lat="42.4276810" lon="-2.4561190">
        <ele>423.8</ele>
        <time>2020-01-12T12:42:01Z</time>
      </trkpt>
      <trkpt lat="42.4277610" lon="-2.4560910">
        <ele>423.8</ele>
        <time>2020-01-12T12:42:02Z</time>
      </trkpt>
      <trkpt lat="42.4278370" lon="-2.4560600">
        <ele>423.8</ele>
        <time>2020-01-12T12:42:03Z</time>
      </trkpt>
      <trkpt lat="42.4279310" lon="-2.4560450">
        <ele>423.8</ele>
        <time>2020-01-12T12:42:04Z</time>
      </trkpt>
      <trkpt lat="42.4280080" lon="-2.4560180">
        <ele>423.8</ele>
        <time>2020-01-12T12:42:05Z</time>
      </trkpt>
      <trkpt lat="42.4280900" lon="-2.4560080">
        <ele>423.7</ele>
        <time>2020-01-12T12:42:06Z</time>
      </trkpt>
      <trkpt lat="42.4281810" lon="-2.4559860">
        <ele>423.5</ele>
        <time>2020-01-12T12:42:07Z</time>
      </trkpt>
      <trkpt lat="42.4282670" lon="-2.4559630">
        <ele>423.3</ele>
        <time>2020-01-12T12:42:08Z</time>
      </trkpt>
      <trkpt lat="42.4283570" lon="-2.4559510">
        <ele>423.1</ele>
        <time>2020-01-12T12:42:09Z</time>
      </trkpt>
      <trkpt lat="42.4284380" lon="-2.4559220">
        <ele>423.0</ele>
        <time>2020-01-12T12:42:10Z</time>
      </trkpt>
      <trkpt lat="42.4285290" lon="-2.4559060">
        <ele>422.9</ele>
        <time>2020-01-12T12:42:11Z</time>
      </trkpt>
      <trkpt lat="42.4286080" lon="-2.4558700">
        <ele>422.8</ele>
        <time>2020-01-12T12:42:12Z</time>
      </trkpt>
      <trkpt lat="42.4286900" lon="-2.4558370">
        <ele>422.8</ele>
        <time>2020-01-12T12:42:13Z</time>
      </trkpt>
      <trkpt lat="42.4287750" lon="-2.4558090">
        <ele>422.7</ele>
        <time>2020-01-12T12:42:14Z</time>
      </trkpt>
      <trkpt lat="42.4288540" lon="-2.4557860">
        <ele>422.7</ele>
        <time>2020-01-12T12:42:15Z</time>
      </trkpt>
      <trkpt lat="42.4289530" lon="-2.4557550">
        <ele>422.6</ele>
        <time>2020-01-12T12:42:16Z</time>
      </trkpt>
      <trkpt lat="42.4290390" lon="-2.4557280">
        <ele>422.6</ele>
        <time>2020-01-12T12:42:17Z</time>
      </trkpt>
      <trkpt lat="42.4291350" lon="-2.4557070">
        <ele>422.6</ele>
        <time>2020-01-12T12:42:18Z</time>
      </trkpt>
      <trkpt lat="42.4292110" lon="-2.4556910">
        <ele>422.5</ele>
        <time>2020-01-12T12:42:19Z</time>
      </trkpt>
      <trkpt lat="42.4292910" lon="-2.4556690">
        <ele>422.4</ele>
        <time>2020-01-12T12:42:20Z</time>
      </trkpt>
      <trkpt lat="42.4293840" lon="-2.4556520">
        <ele>422.3</ele>
        <time>2020-01-12T12:42:21Z</time>
      </trkpt>
      <trkpt lat="42.4294730" lon="-2.4556270">
        <ele>422.1</ele>
        <time>2020-01-12T12:42:22Z</time>
      </trkpt>
      <trkpt lat="42.4295690" lon="-2.4556050">
        <ele>421.9</ele>
        <time>2020-01-12T12:42:23Z</time>
      </trkpt>
      <trkpt lat="42.4296880" lon="-2.4555770">
        <ele>421.6</ele>
        <time>2020-01-12T12:42:24Z</time>
      </trkpt>
      <trkpt lat="42.4297910" lon="-2.4555550">
        <ele>421.5</ele>
        <time>2020-01-12T12:42:25Z</time>
      </trkpt>
      <trkpt lat="42.4298690" lon="-2.4555340">
        <ele>421.5</ele>
        <time>2020-01-12T12:42:26Z</time>
      </trkpt>
      <trkpt lat="42.4299600" lon="-2.4555110">
        <ele>421.5</ele>
        <time>2020-01-12T12:42:27Z</time>
      </trkpt>
      <trkpt lat="42.4300330" lon="-2.4554820">
        <ele>421.5</ele>
        <time>2020-01-12T12:42:28Z</time>
      </trkpt>
      <trkpt lat="42.4301220" lon="-2.4554590">
        <ele>421.5</ele>
        <time>2020-01-12T12:42:29Z</time>
      </trkpt>
      <trkpt lat="42.4302050" lon="-2.4554310">
        <ele>421.4</ele>
        <time>2020-01-12T12:42:30Z</time>
      </trkpt>
      <trkpt lat="42.4302670" lon="-2.4554140">
        <ele>421.4</ele>
        <time>2020-01-12T12:42:31Z</time>
      </trkpt>
      <trkpt lat="42.4303520" lon="-2.4553890">
        <ele>421.4</ele>
        <time>2020-01-12T12:42:32Z</time>
      </trkpt>
      <trkpt lat="42.4304250" lon="-2.4553590">
        <ele>421.3</ele>
        <time>2020-01-12T12:42:33Z</time>
      </trkpt>
      <trkpt lat="42.4304980" lon="-2.4553180">
        <ele>421.2</ele>
        <time>2020-01-12T12:42:34Z</time>
      </trkpt>
      <trkpt lat="42.4305860" lon="-2.4552830">
        <ele>421.0</ele>
        <time>2020-01-12T12:42:35Z</time>
      </trkpt>
      <trkpt lat="42.4306780" lon="-2.4552600">
        <ele>420.8</ele>
        <time>2020-01-12T12:42:36Z</time>
      </trkpt>
      <trkpt lat="42.4307500" lon="-2.4552480">
        <ele>420.6</ele>
        <time>2020-01-12T12:42:37Z</time>
      </trkpt>
      <trkpt lat="42.4308440" lon="-2.4552200">
        <ele>420.4</ele>
        <time>2020-01-12T12:42:38Z</time>
      </trkpt>
      <trkpt lat="42.4309160" lon="-2.4551820">
        <ele>420.3</ele>
        <time>2020-01-12T12:42:39Z</time>
      </trkpt>
      <trkpt lat="42.4309970" lon="-2.4551560">
        <ele>420.2</ele>
        <time>2020-01-12T12:42:40Z</time>
      </trkpt>
      <trkpt lat="42.4310980" lon="-2.4551230">
        <ele>420.0</ele>
        <time>2020-01-12T12:42:41Z</time>
      </trkpt>
      <trkpt lat="42.4311640" lon="-2.4551080">
        <ele>419.8</ele>
        <time>2020-01-12T12:42:42Z</time>
      </trkpt>
      <trkpt lat="42.4312310" lon="-2.4550860">
        <ele>419.7</ele>
        <time>2020-01-12T12:42:43Z</time>
      </trkpt>
      <trkpt lat="42.4313130" lon="-2.4550610">
        <ele>419.5</ele>
        <time>2020-01-12T12:42:44Z</time>
      </trkpt>
      <trkpt lat="42.4313890" lon="-2.4550360">
        <ele>419.4</ele>
        <time>2020-01-12T12:42:45Z</time>
      </trkpt>
      <trkpt lat="42.4314780" lon="-2.4550130">
        <ele>419.3</ele>
        <time>2020-01-12T12:42:46Z</time>
      </trkpt>
      <trkpt lat="42.4315560" lon="-2.4549840">
        <ele>419.3</ele>
        <time>2020-01-12T12:42:47Z</time>
      </trkpt>
      <trkpt lat="42.4316310" lon="-2.4549610">
        <ele>419.3</ele>
        <time>2020-01-12T12:42:48Z</time>
      </trkpt>
      <trkpt lat="42.4317090" lon="-2.4549390">
        <ele>419.2</ele>
        <time>2020-01-12T12:42:49Z</time>
      </trkpt>
      <trkpt lat="42.4317910" lon="-2.4549140">
        <ele>419.2</ele>
        <time>2020-01-12T12:42:50Z</time>
      </trkpt>
      <trkpt lat="42.4318680" lon="-2.4548890">
        <ele>419.1</ele>
        <time>2020-01-12T12:42:51Z</time>
      </trkpt>
      <trkpt lat="42.4319460" lon="-2.4548580">
        <ele>418.9</ele>
        <time>2020-01-12T12:42:52Z</time>
      </trkpt>
      <trkpt lat="42.4320180" lon="-2.4548300">
        <ele>418.8</ele>
        <time>2020-01-12T12:42:53Z</time>
      </trkpt>
      <trkpt lat="42.4320870" lon="-2.4547960">
        <ele>418.6</ele>
        <time>2020-01-12T12:42:54Z</time>
      </trkpt>
      <trkpt lat="42.4321570" lon="-2.4547640">
        <ele>418.4</ele>
        <time>2020-01-12T12:42:55Z</time>
      </trkpt>
      <trkpt lat="42.4322240" lon="-2.4547350">
        <ele>418.3</ele>
        <time>2020-01-12T12:42:56Z</time>
      </trkpt>
      <trkpt lat="42.4322890" lon="-2.4547080">
        <ele>418.3</ele>
        <time>2020-01-12T12:42:57Z</time>
      </trkpt>
      <trkpt lat="42.4323600" lon="-2.4546710">
        <ele>418.2</ele>
        <time>2020-01-12T12:42:58Z</time>
      </trkpt>
      <trkpt lat="42.4324240" lon="-2.4546440">
        <ele>418.2</ele>
        <time>2020-01-12T12:42:59Z</time>
      </trkpt>
      <trkpt lat="42.4324900" lon="-2.4546140">
        <ele>418.2</ele>
        <time>2020-01-12T12:43:00Z</time>
      </trkpt>
      <trkpt lat="42.4325580" lon="-2.4545850">
        <ele>418.2</ele>
        <time>2020-01-12T12:43:01Z</time>
      </trkpt>
      <trkpt lat="42.4326160" lon="-2.4545580">
        <ele>418.0</ele>
        <time>2020-01-12T12:43:02Z</time>
      </trkpt>
      <trkpt lat="42.4326740" lon="-2.4545350">
        <ele>417.8</ele>
        <time>2020-01-12T12:43:03Z</time>
      </trkpt>
      <trkpt lat="42.4327390" lon="-2.4545090">
        <ele>417.7</ele>
        <time>2020-01-12T12:43:04Z</time>
      </trkpt>
      <trkpt lat="42.4328000" lon="-2.4544870">
        <ele>417.6</ele>
        <time>2020-01-12T12:43:05Z</time>
      </trkpt>
      <trkpt lat="42.4328590" lon="-2.4544650">
        <ele>417.5</ele>
        <time>2020-01-12T12:43:06Z</time>
      </trkpt>
      <trkpt lat="42.4329120" lon="-2.4544420">
        <ele>417.4</ele>
        <time>2020-01-12T12:43:07Z</time>
      </trkpt>
      <trkpt lat="42.4329690" lon="-2.4544140">
        <ele>417.3</ele>
        <time>2020-01-12T12:43:08Z</time>
      </trkpt>
      <trkpt lat="42.4330260" lon="-2.4543950">
        <ele>417.2</ele>
        <time>2020-01-12T12:43:09Z</time>
      </trkpt>
      <trkpt lat="42.4330990" lon="-2.4543800">
        <ele>417.1</ele>
        <time>2020-01-12T12:43:10Z</time>
      </trkpt>
      <trkpt lat="42.4331520" lon="-2.4543750">
        <ele>417.0</ele>
        <time>2020-01-12T12:43:11Z</time>
      </trkpt>
      <trkpt lat="42.4332170" lon="-2.4543640">
        <ele>417.0</ele>
        <time>2020-01-12T12:43:12Z</time>
      </trkpt>
      <trkpt lat="42.4332760" lon="-2.4543540">
        <ele>417.0</ele>
        <time>2020-01-12T12:43:13Z</time>
      </trkpt>
      <trkpt lat="42.4333500" lon="-2.4543430">
        <ele>417.0</ele>
        <time>2020-01-12T12:43:14Z</time>
      </trkpt>
      <trkpt lat="42.4334200" lon="-2.4543370">
        <ele>416.9</ele>
        <time>2020-01-12T12:43:15Z</time>
      </trkpt>
      <trkpt lat="42.4334800" lon="-2.4543300">
        <ele>417.0</ele>
        <time>2020-01-12T12:43:16Z</time>
      </trkpt>
      <trkpt lat="42.4335600" lon="-2.4543210">
        <ele>417.0</ele>
        <time>2020-01-12T12:43:17Z</time>
      </trkpt>
      <trkpt lat="42.4336230" lon="-2.4543160">
        <ele>417.0</ele>
        <time>2020-01-12T12:43:18Z</time>
      </trkpt>
      <trkpt lat="42.4336920" lon="-2.4543180">
        <ele>417.0</ele>
        <time>2020-01-12T12:43:19Z</time>
      </trkpt>
      <trkpt lat="42.4337520" lon="-2.4543060">
        <ele>417.0</ele>
        <time>2020-01-12T12:43:20Z</time>
      </trkpt>
      <trkpt lat="42.4338190" lon="-2.4543030">
        <ele>417.0</ele>
        <time>2020-01-12T12:43:21Z</time>
      </trkpt>
      <trkpt lat="42.4338770" lon="-2.4542910">
        <ele>417.1</ele>
        <time>2020-01-12T12:43:22Z</time>
      </trkpt>
      <trkpt lat="42.4339440" lon="-2.4542800">
        <ele>417.1</ele>
        <time>2020-01-12T12:43:23Z</time>
      </trkpt>
      <trkpt lat="42.4339890" lon="-2.4542690">
        <ele>417.1</ele>
        <time>2020-01-12T12:43:24Z</time>
      </trkpt>
      <trkpt lat="42.4340370" lon="-2.4542450">
        <ele>417.0</ele>
        <time>2020-01-12T12:43:26Z</time>
      </trkpt>
      <trkpt lat="42.4340760" lon="-2.4542300">
        <ele>417.0</ele>
        <time>2020-01-12T12:43:28Z</time>
      </trkpt>
      <trkpt lat="42.4341540" lon="-2.4542390">
        <ele>417.0</ele>
        <time>2020-01-12T12:44:09Z</time>
      </trkpt>
      <trkpt lat="42.4341930" lon="-2.4542270">
        <ele>416.9</ele>
        <time>2020-01-12T12:44:11Z</time>
      </trkpt>
      <trkpt lat="42.4342230" lon="-2.4542110">
        <ele>416.9</ele>
        <time>2020-01-12T12:44:12Z</time>
      </trkpt>
      <trkpt lat="42.4342620" lon="-2.4542020">
        <ele>416.9</ele>
        <time>2020-01-12T12:44:13Z</time>
      </trkpt>
      <trkpt lat="42.4343220" lon="-2.4541850">
        <ele>416.8</ele>
        <time>2020-01-12T12:44:14Z</time>
      </trkpt>
      <trkpt lat="42.4343510" lon="-2.4541770">
        <ele>416.7</ele>
        <time>2020-01-12T12:44:15Z</time>
      </trkpt>
      <trkpt lat="42.4343850" lon="-2.4541640">
        <ele>416.7</ele>
        <time>2020-01-12T12:44:16Z</time>
      </trkpt>
      <trkpt lat="42.4344240" lon="-2.4541420">
        <ele>416.6</ele>
        <time>2020-01-12T12:44:17Z</time>
      </trkpt>
      <trkpt lat="42.4344840" lon="-2.4541440">
        <ele>416.5</ele>
        <time>2020-01-12T12:44:18Z</time>
      </trkpt>
      <trkpt lat="42.4345330" lon="-2.4541180">
        <ele>416.4</ele>
        <time>2020-01-12T12:44:19Z</time>
      </trkpt>
      <trkpt lat="42.4345790" lon="-2.4541030">
        <ele>416.3</ele>
        <time>2020-01-12T12:44:20Z</time>
      </trkpt>
      <trkpt lat="42.4346330" lon="-2.4540820">
        <ele>416.3</ele>
        <time>2020-01-12T12:44:21Z</time>
      </trkpt>
      <trkpt lat="42.4346620" lon="-2.4540680">
        <ele>416.2</ele>
        <time>2020-01-12T12:44:22Z</time>
      </trkpt>
      <trkpt lat="42.4347190" lon="-2.4540440">
        <ele>416.2</ele>
        <time>2020-01-12T12:44:23Z</time>
      </trkpt>
      <trkpt lat="42.4347730" lon="-2.4540170">
        <ele>416.2</ele>
        <time>2020-01-12T12:44:24Z</time>
      </trkpt>
      <trkpt lat="42.4348230" lon="-2.4540200">
        <ele>416.2</ele>
        <time>2020-01-12T12:44:25Z</time>
      </trkpt>
      <trkpt lat="42.4348630" lon="-2.4540160">
        <ele>416.2</ele>
        <time>2020-01-12T12:44:26Z</time>
      </trkpt>
      <trkpt lat="42.4349070" lon="-2.4539930">
        <ele>416.2</ele>
        <time>2020-01-12T12:44:27Z</time>
      </trkpt>
      <trkpt lat="42.4349810" lon="-2.4539470">
        <ele>416.2</ele>
        <time>2020-01-12T12:44:29Z</time>
      </trkpt>
      <trkpt lat="42.4350090" lon="-2.4539210">
        <ele>416.2</ele>
        <time>2020-01-12T12:44:30Z</time>
      </trkpt>
      <trkpt lat="42.4350490" lon="-2.4539080">
        <ele>416.2</ele>
        <time>2020-01-12T12:44:31Z</time>
      </trkpt>
      <trkpt lat="42.4350950" lon="-2.4538990">
        <ele>416.1</ele>
        <time>2020-01-12T12:44:32Z</time>
      </trkpt>
      <trkpt lat="42.4351200" lon="-2.4538860">
        <ele>416.1</ele>
        <time>2020-01-12T12:44:33Z</time>
      </trkpt>
      <trkpt lat="42.4351540" lon="-2.4538690">
        <ele>416.0</ele>
        <time>2020-01-12T12:44:34Z</time>
      </trkpt>
      <trkpt lat="42.4351860" lon="-2.4538540">
        <ele>415.9</ele>
        <time>2020-01-12T12:44:35Z</time>
      </trkpt>
      <trkpt lat="42.4352160" lon="-2.4538540">
        <ele>415.9</ele>
        <time>2020-01-12T12:44:37Z</time>
      </trkpt>
      <trkpt lat="42.4352140" lon="-2.4538070">
        <ele>415.8</ele>
        <time>2020-01-12T12:47:14Z</time>
      </trkpt>
      <trkpt lat="42.4352400" lon="-2.4537760">
        <ele>415.8</ele>
        <time>2020-01-12T12:47:18Z</time>
      </trkpt>
      <trkpt lat="42.4352190" lon="-2.4538070">
        <ele>415.7</ele>
        <time>2020-01-12T12:48:32Z</time>
      </trkpt>
      <trkpt lat="42.4352570" lon="-2.4538050">
        <ele>415.6</ele>
        <time>2020-01-12T12:48:40Z</time>
      </trkpt>
      <trkpt lat="42.4352880" lon="-2.4538030">
        <ele>415.6</ele>
        <time>2020-01-12T12:48:43Z</time>
      </trkpt>
      <trkpt lat="42.4353280" lon="-2.4538120">
        <ele>415.5</ele>
        <time>2020-01-12T12:49:37Z</time>
      </trkpt>
      <trkpt lat="42.4353530" lon="-2.4537920">
        <ele>415.5</ele>
        <time>2020-01-12T12:49:38Z</time>
      </trkpt>
      <trkpt lat="42.4353950" lon="-2.4537840">
        <ele>415.4</ele>
        <time>2020-01-12T12:49:39Z</time>
      </trkpt>
      <trkpt lat="42.4354380" lon="-2.4537600">
        <ele>415.3</ele>
        <time>2020-01-12T12:49:40Z</time>
      </trkpt>
      <trkpt lat="42.4354740" lon="-2.4537500">
        <ele>415.3</ele>
        <time>2020-01-12T12:49:41Z</time>
      </trkpt>
      <trkpt lat="42.4355170" lon="-2.4537460">
        <ele>415.3</ele>
        <time>2020-01-12T12:49:42Z</time>
      </trkpt>
      <trkpt lat="42.4355670" lon="-2.4537280">
        <ele>415.3</ele>
        <time>2020-01-12T12:49:43Z</time>
      </trkpt>
      <trkpt lat="42.4356120" lon="-2.4537140">
        <ele>415.3</ele>
        <time>2020-01-12T12:49:44Z</time>
      </trkpt>
      <trkpt lat="42.4356480" lon="-2.4536880">
        <ele>415.2</ele>
        <time>2020-01-12T12:49:45Z</time>
      </trkpt>
      <trkpt lat="42.4356980" lon="-2.4536720">
        <ele>415.2</ele>
        <time>2020-01-12T12:49:46Z</time>
      </trkpt>
      <trkpt lat="42.4357380" lon="-2.4536530">
        <ele>415.2</ele>
        <time>2020-01-12T12:49:47Z</time>
      </trkpt>
      <trkpt lat="42.4358020" lon="-2.4536420">
        <ele>415.2</ele>
        <time>2020-01-12T12:49:48Z</time>
      </trkpt>
      <trkpt lat="42.4358370" lon="-2.4536240">
        <ele>415.2</ele>
        <time>2020-01-12T12:49:49Z</time>
      </trkpt>
      <trkpt lat="42.4358900" lon="-2.4536060">
        <ele>415.2</ele>
        <time>2020-01-12T12:49:50Z</time>
      </trkpt>
      <trkpt lat="42.4359680" lon="-2.4535970">
        <ele>415.1</ele>
        <time>2020-01-12T12:49:51Z</time>
      </trkpt>
      <trkpt lat="42.4360040" lon="-2.4535750">
        <ele>415.1</ele>
        <time>2020-01-12T12:49:52Z</time>
      </trkpt>
      <trkpt lat="42.4360660" lon="-2.4535560">
        <ele>415.0</ele>
        <time>2020-01-12T12:49:53Z</time>
      </trkpt>
      <trkpt lat="42.4361200" lon="-2.4535420">
        <ele>414.9</ele>
        <time>2020-01-12T12:49:54Z</time>
      </trkpt>
      <trkpt lat="42.4361940" lon="-2.4535350">
        <ele>414.7</ele>
        <time>2020-01-12T12:49:55Z</time>
      </trkpt>
      <trkpt lat="42.4362730" lon="-2.4535170">
        <ele>414.5</ele>
        <time>2020-01-12T12:49:56Z</time>
      </trkpt>
      <trkpt lat="42.4363390" lon="-2.4534970">
        <ele>414.3</ele>
        <time>2020-01-12T12:49:57Z</time>
      </trkpt>
      <trkpt lat="42.4364090" lon="-2.4534790">
        <ele>414.2</ele>
        <time>2020-01-12T12:49:58Z</time>
      </trkpt>
      <trkpt lat="42.4364830" lon="-2.4534610">
        <ele>414.1</ele>
        <time>2020-01-12T12:49:59Z</time>
      </trkpt>
      <trkpt lat="42.4365490" lon="-2.4534410">
        <ele>414.0</ele>
        <time>2020-01-12T12:50:00Z</time>
      </trkpt>
      <trkpt lat="42.4366210" lon="-2.4534220">
        <ele>414.0</ele>
        <time>2020-01-12T12:50:01Z</time>
      </trkpt>
      <trkpt lat="42.4366940" lon="-2.4533940">
        <ele>413.9</ele>
        <time>2020-01-12T12:50:02Z</time>
      </trkpt>
      <trkpt lat="42.4367670" lon="-2.4533710">
        <ele>413.9</ele>
        <time>2020-01-12T12:50:03Z</time>
      </trkpt>
      <trkpt lat="42.4368270" lon="-2.4533520">
        <ele>413.7</ele>
        <time>2020-01-12T12:50:04Z</time>
      </trkpt>
      <trkpt lat="42.4368990" lon="-2.4533290">
        <ele>413.6</ele>
        <time>2020-01-12T12:50:05Z</time>
      </trkpt>
      <trkpt lat="42.4369790" lon="-2.4533000">
        <ele>413.3</ele>
        <time>2020-01-12T12:50:06Z</time>
      </trkpt>
      <trkpt lat="42.4370510" lon="-2.4532750">
        <ele>413.1</ele>
        <time>2020-01-12T12:50:07Z</time>
      </trkpt>
      <trkpt lat="42.4371240" lon="-2.4532520">
        <ele>413.0</ele>
        <time>2020-01-12T12:50:08Z</time>
      </trkpt>
      <trkpt lat="42.4372020" lon="-2.4532260">
        <ele>412.9</ele>
        <time>2020-01-12T12:50:09Z</time>
      </trkpt>
      <trkpt lat="42.4372580" lon="-2.4532110">
        <ele>412.8</ele>
        <time>2020-01-12T12:50:10Z</time>
      </trkpt>
      <trkpt lat="42.4373180" lon="-2.4531880">
        <ele>412.8</ele>
        <time>2020-01-12T12:50:11Z</time>
      </trkpt>
      <trkpt lat="42.4373810" lon="-2.4531610">
        <ele>412.8</ele>
        <time>2020-01-12T12:50:12Z</time>
      </trkpt>
      <trkpt lat="42.4374690" lon="-2.4531250">
        <ele>412.9</ele>
        <time>2020-01-12T12:50:13Z</time>
      </trkpt>
      <trkpt lat="42.4375390" lon="-2.4530860">
        <ele>412.9</ele>
        <time>2020-01-12T12:50:14Z</time>
      </trkpt>
      <trkpt lat="42.4376030" lon="-2.4530470">
        <ele>412.9</ele>
        <time>2020-01-12T12:50:15Z</time>
      </trkpt>
      <trkpt lat="42.4376730" lon="-2.4530100">
        <ele>412.8</ele>
        <time>2020-01-12T12:50:16Z</time>
      </trkpt>
      <trkpt lat="42.4377330" lon="-2.4529950">
        <ele>412.8</ele>
        <time>2020-01-12T12:50:17Z</time>
      </trkpt>
      <trkpt lat="42.4377950" lon="-2.4529990">
        <ele>412.8</ele>
        <time>2020-01-12T12:50:18Z</time>
      </trkpt>
      <trkpt lat="42.4378610" lon="-2.4530130">
        <ele>412.8</ele>
        <time>2020-01-12T12:50:19Z</time>
      </trkpt>
      <trkpt lat="42.4379260" lon="-2.4530170">
        <ele>412.8</ele>
        <time>2020-01-12T12:50:20Z</time>
      </trkpt>
      <trkpt lat="42.4379870" lon="-2.4530000">
        <ele>412.7</ele>
        <time>2020-01-12T12:50:21Z</time>
      </trkpt>
      <trkpt lat="42.4380460" lon="-2.4529800">
        <ele>412.7</ele>
        <time>2020-01-12T12:50:22Z</time>
      </trkpt>
      <trkpt lat="42.4381040" lon="-2.4529540">
        <ele>412.7</ele>
        <time>2020-01-12T12:50:23Z</time>
      </trkpt>
      <trkpt lat="42.4381630" lon="-2.4529420">
        <ele>412.7</ele>
        <time>2020-01-12T12:50:24Z</time>
      </trkpt>
      <trkpt lat="42.4382220" lon="-2.4529280">
        <ele>412.6</ele>
        <time>2020-01-12T12:50:25Z</time>
      </trkpt>
      <trkpt lat="42.4382750" lon="-2.4529110">
        <ele>412.5</ele>
        <time>2020-01-12T12:50:26Z</time>
      </trkpt>
      <trkpt lat="42.4383360" lon="-2.4528920">
        <ele>412.4</ele>
        <time>2020-01-12T12:50:27Z</time>
      </trkpt>
      <trkpt lat="42.4383920" lon="-2.4528650">
        <ele>412.3</ele>
        <time>2020-01-12T12:50:28Z</time>
      </trkpt>
      <trkpt lat="42.4384640" lon="-2.4528430">
        <ele>412.1</ele>
        <time>2020-01-12T12:50:29Z</time>
      </trkpt>
      <trkpt lat="42.4385320" lon="-2.4528170">
        <ele>412.0</ele>
        <time>2020-01-12T12:50:30Z</time>
      </trkpt>
      <trkpt lat="42.4386030" lon="-2.4528000">
        <ele>411.9</ele>
        <time>2020-01-12T12:50:31Z</time>
      </trkpt>
      <trkpt lat="42.4386710" lon="-2.4527770">
        <ele>411.8</ele>
        <time>2020-01-12T12:50:32Z</time>
      </trkpt>
      <trkpt lat="42.4387420" lon="-2.4527510">
        <ele>411.7</ele>
        <time>2020-01-12T12:50:33Z</time>
      </trkpt>
      <trkpt lat="42.4388070" lon="-2.4527260">
        <ele>411.6</ele>
        <time>2020-01-12T12:50:34Z</time>
      </trkpt>
      <trkpt lat="42.4388760" lon="-2.4527050">
        <ele>411.4</ele>
        <time>2020-01-12T12:50:35Z</time>
      </trkpt>
      <trkpt lat="42.4389280" lon="-2.4526820">
        <ele>411.3</ele>
        <time>2020-01-12T12:50:36Z</time>
      </trkpt>
      <trkpt lat="42.4390120" lon="-2.4526660">
        <ele>411.0</ele>
        <time>2020-01-12T12:50:37Z</time>
      </trkpt>
      <trkpt lat="42.4390850" lon="-2.4526430">
        <ele>410.7</ele>
        <time>2020-01-12T12:50:38Z</time>
      </trkpt>
      <trkpt lat="42.4391610" lon="-2.4526240">
        <ele>410.7</ele>
        <time>2020-01-12T12:50:39Z</time>
      </trkpt>
      <trkpt lat="42.4392350" lon="-2.4525960">
        <ele>410.8</ele>
        <time>2020-01-12T12:50:40Z</time>
      </trkpt>
      <trkpt lat="42.4393120" lon="-2.4525740">
        <ele>410.8</ele>
        <time>2020-01-12T12:50:41Z</time>
      </trkpt>
      <trkpt lat="42.4393940" lon="-2.4525490">
        <ele>410.8</ele>
        <time>2020-01-12T12:50:42Z</time>
      </trkpt>
      <trkpt lat="42.4394770" lon="-2.4525300">
        <ele>410.8</ele>
        <time>2020-01-12T12:50:43Z</time>
      </trkpt>
      <trkpt lat="42.4395520" lon="-2.4525020">
        <ele>410.8</ele>
        <time>2020-01-12T12:50:44Z</time>
      </trkpt>
      <trkpt lat="42.4396310" lon="-2.4524790">
        <ele>410.8</ele>
        <time>2020-01-12T12:50:45Z</time>
      </trkpt>
      <trkpt lat="42.4397130" lon="-2.4524560">
        <ele>410.8</ele>
        <time>2020-01-12T12:50:46Z</time>
      </trkpt>
      <trkpt lat="42.4398030" lon="-2.4524340">
        <ele>410.8</ele>
        <time>2020-01-12T12:50:47Z</time>
      </trkpt>
      <trkpt lat="42.4398660" lon="-2.4524060">
        <ele>410.8</ele>
        <time>2020-01-12T12:50:48Z</time>
      </trkpt>
      <trkpt lat="42.4399350" lon="-2.4523750">
        <ele>410.8</ele>
        <time>2020-01-12T12:50:49Z</time>
      </trkpt>
      <trkpt lat="42.4399880" lon="-2.4523400">
        <ele>410.7</ele>
        <time>2020-01-12T12:50:50Z</time>
      </trkpt>
      <trkpt lat="42.4400700" lon="-2.4523250">
        <ele>410.6</ele>
        <time>2020-01-12T12:50:51Z</time>
      </trkpt>
      <trkpt lat="42.4401440" lon="-2.4522990">
        <ele>410.6</ele>
        <time>2020-01-12T12:50:52Z</time>
      </trkpt>
      <trkpt lat="42.4402460" lon="-2.4522770">
        <ele>410.5</ele>
        <time>2020-01-12T12:50:53Z</time>
      </trkpt>
      <trkpt lat="42.4403340" lon="-2.4522620">
        <ele>410.3</ele>
        <time>2020-01-12T12:50:54Z</time>
      </trkpt>
      <trkpt lat="42.4404070" lon="-2.4522450">
        <ele>410.3</ele>
        <time>2020-01-12T12:50:55Z</time>
      </trkpt>
      <trkpt lat="42.4404830" lon="-2.4522270">
        <ele>410.3</ele>
        <time>2020-01-12T12:50:56Z</time>
      </trkpt>
      <trkpt lat="42.4405440" lon="-2.4521950">
        <ele>410.2</ele>
        <time>2020-01-12T12:50:57Z</time>
      </trkpt>
      <trkpt lat="42.4406340" lon="-2.4521790">
        <ele>410.2</ele>
        <time>2020-01-12T12:50:58Z</time>
      </trkpt>
      <trkpt lat="42.4407190" lon="-2.4521530">
        <ele>410.2</ele>
        <time>2020-01-12T12:50:59Z</time>
      </trkpt>
      <trkpt lat="42.4407760" lon="-2.4521330">
        <ele>410.0</ele>
        <time>2020-01-12T12:51:00Z</time>
      </trkpt>
      <trkpt lat="42.4408520" lon="-2.4520950">
        <ele>409.7</ele>
        <time>2020-01-12T12:51:01Z</time>
      </trkpt>
      <trkpt lat="42.4409450" lon="-2.4520790">
        <ele>409.5</ele>
        <time>2020-01-12T12:51:02Z</time>
      </trkpt>
      <trkpt lat="42.4410380" lon="-2.4520590">
        <ele>409.4</ele>
        <time>2020-01-12T12:51:03Z</time>
      </trkpt>
      <trkpt lat="42.4411070" lon="-2.4520310">
        <ele>409.2</ele>
        <time>2020-01-12T12:51:04Z</time>
      </trkpt>
      <trkpt lat="42.4412040" lon="-2.4520220">
        <ele>409.1</ele>
        <time>2020-01-12T12:51:05Z</time>
      </trkpt>
      <trkpt lat="42.4412860" lon="-2.4519980">
        <ele>409.0</ele>
        <time>2020-01-12T12:51:06Z</time>
      </trkpt>
      <trkpt lat="42.4413310" lon="-2.4519720">
        <ele>408.9</ele>
        <time>2020-01-12T12:51:07Z</time>
      </trkpt>
      <trkpt lat="42.4413870" lon="-2.4519470">
        <ele>408.8</ele>
        <time>2020-01-12T12:51:08Z</time>
      </trkpt>
      <trkpt lat="42.4414410" lon="-2.4519200">
        <ele>408.7</ele>
        <time>2020-01-12T12:51:09Z</time>
      </trkpt>
      <trkpt lat="42.4415310" lon="-2.4519060">
        <ele>408.5</ele>
        <time>2020-01-12T12:51:10Z</time>
      </trkpt>
      <trkpt lat="42.4416070" lon="-2.4518820">
        <ele>408.4</ele>
        <time>2020-01-12T12:51:11Z</time>
      </trkpt>
      <trkpt lat="42.4417040" lon="-2.4518620">
        <ele>408.3</ele>
        <time>2020-01-12T12:51:12Z</time>
      </trkpt>
      <trkpt lat="42.4417750" lon="-2.4518330">
        <ele>408.2</ele>
        <time>2020-01-12T12:51:13Z</time>
      </trkpt>
      <trkpt lat="42.4418640" lon="-2.4518150">
        <ele>408.1</ele>
        <time>2020-01-12T12:51:14Z</time>
      </trkpt>
      <trkpt lat="42.4419400" lon="-2.4517910">
        <ele>408.1</ele>
        <time>2020-01-12T12:51:15Z</time>
      </trkpt>
      <trkpt lat="42.4420240" lon="-2.4517700">
        <ele>408.0</ele>
        <time>2020-01-12T12:51:16Z</time>
      </trkpt>
      <trkpt lat="42.4420900" lon="-2.4517460">
        <ele>408.0</ele>
        <time>2020-01-12T12:51:17Z</time>
      </trkpt>
      <trkpt lat="42.4421710" lon="-2.4517200">
        <ele>407.9</ele>
        <time>2020-01-12T12:51:18Z</time>
      </trkpt>
      <trkpt lat="42.4422480" lon="-2.4517000">
        <ele>407.8</ele>
        <time>2020-01-12T12:51:19Z</time>
      </trkpt>
      <trkpt lat="42.4423260" lon="-2.4516790">
        <ele>407.7</ele>
        <time>2020-01-12T12:51:20Z</time>
      </trkpt>
      <trkpt lat="42.4424020" lon="-2.4516540">
        <ele>407.6</ele>
        <time>2020-01-12T12:51:21Z</time>
      </trkpt>
      <trkpt lat="42.4424760" lon="-2.4516300">
        <ele>407.5</ele>
        <time>2020-01-12T12:51:22Z</time>
      </trkpt>
      <trkpt lat="42.4425480" lon="-2.4516010">
        <ele>407.3</ele>
        <time>2020-01-12T12:51:23Z</time>
      </trkpt>
      <trkpt lat="42.4426100" lon="-2.4515800">
        <ele>407.1</ele>
        <time>2020-01-12T12:51:24Z</time>
      </trkpt>
      <trkpt lat="42.4426970" lon="-2.4515600">
        <ele>406.9</ele>
        <time>2020-01-12T12:51:25Z</time>
      </trkpt>
      <trkpt lat="42.4427770" lon="-2.4515300">
        <ele>406.9</ele>
        <time>2020-01-12T12:51:26Z</time>
      </trkpt>
      <trkpt lat="42.4428410" lon="-2.4515020">
        <ele>407.0</ele>
        <time>2020-01-12T12:51:27Z</time>
      </trkpt>
      <trkpt lat="42.4429160" lon="-2.4514770">
        <ele>407.0</ele>
        <time>2020-01-12T12:51:28Z</time>
      </trkpt>
      <trkpt lat="42.4429920" lon="-2.4514500">
        <ele>407.1</ele>
        <time>2020-01-12T12:51:29Z</time>
      </trkpt>
      <trkpt lat="42.4430630" lon="-2.4514270">
        <ele>407.1</ele>
        <time>2020-01-12T12:51:30Z</time>
      </trkpt>
      <trkpt lat="42.4431370" lon="-2.4514010">
        <ele>407.0</ele>
        <time>2020-01-12T12:51:31Z</time>
      </trkpt>
      <trkpt lat="42.4432110" lon="-2.4513780">
        <ele>407.0</ele>
        <time>2020-01-12T12:51:32Z</time>
      </trkpt>
      <trkpt lat="42.4432990" lon="-2.4513460">
        <ele>406.9</ele>
        <time>2020-01-12T12:51:33Z</time>
      </trkpt>
      <trkpt lat="42.4433770" lon="-2.4513190">
        <ele>406.9</ele>
        <time>2020-01-12T12:51:34Z</time>
      </trkpt>
      <trkpt lat="42.4434690" lon="-2.4512980">
        <ele>406.8</ele>
        <time>2020-01-12T12:51:35Z</time>
      </trkpt>
      <trkpt lat="42.4435450" lon="-2.4512810">
        <ele>406.6</ele>
        <time>2020-01-12T12:51:36Z</time>
      </trkpt>
      <trkpt lat="42.4436240" lon="-2.4512710">
        <ele>406.4</ele>
        <time>2020-01-12T12:51:37Z</time>
      </trkpt>
      <trkpt lat="42.4437150" lon="-2.4512490">
        <ele>406.4</ele>
        <time>2020-01-12T12:51:38Z</time>
      </trkpt>
      <trkpt lat="42.4438060" lon="-2.4512210">
        <ele>406.3</ele>
        <time>2020-01-12T12:51:39Z</time>
      </trkpt>
      <trkpt lat="42.4438930" lon="-2.4511970">
        <ele>406.3</ele>
        <time>2020-01-12T12:51:40Z</time>
      </trkpt>
      <trkpt lat="42.4439830" lon="-2.4511690">
        <ele>406.1</ele>
        <time>2020-01-12T12:51:41Z</time>
      </trkpt>
      <trkpt lat="42.4440440" lon="-2.4511490">
        <ele>406.1</ele>
        <time>2020-01-12T12:51:42Z</time>
      </trkpt>
      <trkpt lat="42.4441180" lon="-2.4511260">
        <ele>406.0</ele>
        <time>2020-01-12T12:51:43Z</time>
      </trkpt>
      <trkpt lat="42.4441690" lon="-2.4511070">
        <ele>405.9</ele>
        <time>2020-01-12T12:51:44Z</time>
      </trkpt>
      <trkpt lat="42.4442440" lon="-2.4510810">
        <ele>405.8</ele>
        <time>2020-01-12T12:51:45Z</time>
      </trkpt>
      <trkpt lat="42.4443220" lon="-2.4510600">
        <ele>405.6</ele>
        <time>2020-01-12T12:51:46Z</time>
      </trkpt>
      <trkpt lat="42.4443910" lon="-2.4510290">
        <ele>405.4</ele>
        <time>2020-01-12T12:51:47Z</time>
      </trkpt>
      <trkpt lat="42.4444660" lon="-2.4510080">
        <ele>405.1</ele>
        <time>2020-01-12T12:51:48Z</time>
      </trkpt>
      <trkpt lat="42.4445430" lon="-2.4509800">
        <ele>404.9</ele>
        <time>2020-01-12T12:51:49Z</time>
      </trkpt>
      <trkpt lat="42.4445950" lon="-2.4509440">
        <ele>404.6</ele>
        <time>2020-01-12T12:51:50Z</time>
      </trkpt>
      <trkpt lat="42.4446490" lon="-2.4509120">
        <ele>404.5</ele>
        <time>2020-01-12T12:51:51Z</time>
      </trkpt>
      <trkpt lat="42.4447180" lon="-2.4508900">
        <ele>404.3</ele>
        <time>2020-01-12T12:51:52Z</time>
      </trkpt>
      <trkpt lat="42.4447940" lon="-2.4508790">
        <ele>404.1</ele>
        <time>2020-01-12T12:51:53Z</time>
      </trkpt>
      <trkpt lat="42.4448680" lon="-2.4508810">
        <ele>404.1</ele>
        <time>2020-01-12T12:51:54Z</time>
      </trkpt>
      <trkpt lat="42.4449210" lon="-2.4508700">
        <ele>404.0</ele>
        <time>2020-01-12T12:51:55Z</time>
      </trkpt>
      <trkpt lat="42.4450120" lon="-2.4508500">
        <ele>403.7</ele>
        <time>2020-01-12T12:51:56Z</time>
      </trkpt>
      <trkpt lat="42.4450780" lon="-2.4508260">
        <ele>403.5</ele>
        <time>2020-01-12T12:51:57Z</time>
      </trkpt>
      <trkpt lat="42.4451590" lon="-2.4508020">
        <ele>403.3</ele>
        <time>2020-01-12T12:51:58Z</time>
      </trkpt>
      <trkpt lat="42.4452420" lon="-2.4507840">
        <ele>403.0</ele>
        <time>2020-01-12T12:51:59Z</time>
      </trkpt>
      <trkpt lat="42.4453140" lon="-2.4507680">
        <ele>403.0</ele>
        <time>2020-01-12T12:52:00Z</time>
      </trkpt>
      <trkpt lat="42.4453860" lon="-2.4507390">
        <ele>402.9</ele>
        <time>2020-01-12T12:52:01Z</time>
      </trkpt>
      <trkpt lat="42.4454600" lon="-2.4507050">
        <ele>402.9</ele>
        <time>2020-01-12T12:52:02Z</time>
      </trkpt>
      <trkpt lat="42.4455170" lon="-2.4506870">
        <ele>402.9</ele>
        <time>2020-01-12T12:52:03Z</time>
      </trkpt>
      <trkpt lat="42.4456020" lon="-2.4506630">
        <ele>403.0</ele>
        <time>2020-01-12T12:52:04Z</time>
      </trkpt>
      <trkpt lat="42.4456940" lon="-2.4506400">
        <ele>403.2</ele>
        <time>2020-01-12T12:52:05Z</time>
      </trkpt>
      <trkpt lat="42.4457690" lon="-2.4506200">
        <ele>403.4</ele>
        <time>2020-01-12T12:52:06Z</time>
      </trkpt>
      <trkpt lat="42.4458500" lon="-2.4505960">
        <ele>403.6</ele>
        <time>2020-01-12T12:52:07Z</time>
      </trkpt>
      <trkpt lat="42.4459310" lon="-2.4505730">
        <ele>403.7</ele>
        <time>2020-01-12T12:52:08Z</time>
      </trkpt>
      <trkpt lat="42.4460080" lon="-2.4505570">
        <ele>403.6</ele>
        <time>2020-01-12T12:52:09Z</time>
      </trkpt>
      <trkpt lat="42.4460880" lon="-2.4505370">
        <ele>403.6</ele>
        <time>2020-01-12T12:52:10Z</time>
      </trkpt>
      <trkpt lat="42.4461690" lon="-2.4505140">
        <ele>403.5</ele>
        <time>2020-01-12T12:52:11Z</time>
      </trkpt>
      <trkpt lat="42.4462430" lon="-2.4504820">
        <ele>403.4</ele>
        <time>2020-01-12T12:52:12Z</time>
      </trkpt>
      <trkpt lat="42.4463170" lon="-2.4504530">
        <ele>403.4</ele>
        <time>2020-01-12T12:52:13Z</time>
      </trkpt>
      <trkpt lat="42.4463980" lon="-2.4504300">
        <ele>403.4</ele>
        <time>2020-01-12T12:52:14Z</time>
      </trkpt>
      <trkpt lat="42.4464790" lon="-2.4504130">
        <ele>403.4</ele>
        <time>2020-01-12T12:52:15Z</time>
      </trkpt>
      <trkpt lat="42.4465280" lon="-2.4503880">
        <ele>403.3</ele>
        <time>2020-01-12T12:52:16Z</time>
      </trkpt>
      <trkpt lat="42.4465960" lon="-2.4503640">
        <ele>403.3</ele>
        <time>2020-01-12T12:52:17Z</time>
      </trkpt>
      <trkpt lat="42.4466760" lon="-2.4503590">
        <ele>403.3</ele>
        <time>2020-01-12T12:52:18Z</time>
      </trkpt>
      <trkpt lat="42.4467530" lon="-2.4503310">
        <ele>403.1</ele>
        <time>2020-01-12T12:52:19Z</time>
      </trkpt>
      <trkpt lat="42.4468250" lon="-2.4503090">
        <ele>403.1</ele>
        <time>2020-01-12T12:52:20Z</time>
      </trkpt>
      <trkpt lat="42.4469020" lon="-2.4502790">
        <ele>403.1</ele>
        <time>2020-01-12T12:52:21Z</time>
      </trkpt>
      <trkpt lat="42.4469870" lon="-2.4502620">
        <ele>403.0</ele>
        <time>2020-01-12T12:52:22Z</time>
      </trkpt>
      <trkpt lat="42.4470680" lon="-2.4502300">
        <ele>402.9</ele>
        <time>2020-01-12T12:52:23Z</time>
      </trkpt>
      <trkpt lat="42.4471480" lon="-2.4502000">
        <ele>402.8</ele>
        <time>2020-01-12T12:52:24Z</time>
      </trkpt>
      <trkpt lat="42.4472460" lon="-2.4501840">
        <ele>402.7</ele>
        <time>2020-01-12T12:52:25Z</time>
      </trkpt>
      <trkpt lat="42.4473140" lon="-2.4501670">
        <ele>402.6</ele>
        <time>2020-01-12T12:52:26Z</time>
      </trkpt>
      <trkpt lat="42.4473990" lon="-2.4501500">
        <ele>402.5</ele>
        <time>2020-01-12T12:52:27Z</time>
      </trkpt>
      <trkpt lat="42.4474440" lon="-2.4501340">
        <ele>402.5</ele>
        <time>2020-01-12T12:52:28Z</time>
      </trkpt>
      <trkpt lat="42.4475090" lon="-2.4501120">
        <ele>402.4</ele>
        <time>2020-01-12T12:52:29Z</time>
      </trkpt>
      <trkpt lat="42.4475720" lon="-2.4500930">
        <ele>402.4</ele>
        <time>2020-01-12T12:52:30Z</time>
      </trkpt>
      <trkpt lat="42.4476300" lon="-2.4500750">
        <ele>402.3</ele>
        <time>2020-01-12T12:52:31Z</time>
      </trkpt>
      <trkpt lat="42.4476930" lon="-2.4500520">
        <ele>402.2</ele>
        <time>2020-01-12T12:52:32Z</time>
      </trkpt>
      <trkpt lat="42.4477520" lon="-2.4500260">
        <ele>402.1</ele>
        <time>2020-01-12T12:52:33Z</time>
      </trkpt>
      <trkpt lat="42.4478170" lon="-2.4499980">
        <ele>402.0</ele>
        <time>2020-01-12T12:52:34Z</time>
      </trkpt>
      <trkpt lat="42.4478860" lon="-2.4499860">
        <ele>401.9</ele>
        <time>2020-01-12T12:52:35Z</time>
      </trkpt>
      <trkpt lat="42.4479590" lon="-2.4499780">
        <ele>401.8</ele>
        <time>2020-01-12T12:52:36Z</time>
      </trkpt>
      <trkpt lat="42.4480260" lon="-2.4499610">
        <ele>401.6</ele>
        <time>2020-01-12T12:52:37Z</time>
      </trkpt>
      <trkpt lat="42.4481020" lon="-2.4499350">
        <ele>401.3</ele>
        <time>2020-01-12T12:52:38Z</time>
      </trkpt>
      <trkpt lat="42.4481640" lon="-2.4499090">
        <ele>401.2</ele>
        <time>2020-01-12T12:52:39Z</time>
      </trkpt>
      <trkpt lat="42.4482320" lon="-2.4498880">
        <ele>401.0</ele>
        <time>2020-01-12T12:52:40Z</time>
      </trkpt>
      <trkpt lat="42.4482940" lon="-2.4498690">
        <ele>400.9</ele>
        <time>2020-01-12T12:52:41Z</time>
      </trkpt>
      <trkpt lat="42.4483630" lon="-2.4498480">
        <ele>400.7</ele>
        <time>2020-01-12T12:52:42Z</time>
      </trkpt>
      <trkpt lat="42.4484370" lon="-2.4498350">
        <ele>400.6</ele>
        <time>2020-01-12T12:52:43Z</time>
      </trkpt>
      <trkpt lat="42.4484880" lon="-2.4498100">
        <ele>400.4</ele>
        <time>2020-01-12T12:52:44Z</time>
      </trkpt>
      <trkpt lat="42.4485350" lon="-2.4497860">
        <ele>400.3</ele>
        <time>2020-01-12T12:52:45Z</time>
      </trkpt>
      <trkpt lat="42.4485780" lon="-2.4497690">
        <ele>400.2</ele>
        <time>2020-01-12T12:52:46Z</time>
      </trkpt>
      <trkpt lat="42.4486010" lon="-2.4497490">
        <ele>400.0</ele>
        <time>2020-01-12T12:52:47Z</time>
      </trkpt>
      <trkpt lat="42.4486540" lon="-2.4497450">
        <ele>400.0</ele>
        <time>2020-01-12T12:52:48Z</time>
      </trkpt>
      <trkpt lat="42.4486970" lon="-2.4497400">
        <ele>400.0</ele>
        <time>2020-01-12T12:52:49Z</time>
      </trkpt>
      <trkpt lat="42.4487350" lon="-2.4497310">
        <ele>399.7</ele>
        <time>2020-01-12T12:52:50Z</time>
      </trkpt>
      <trkpt lat="42.4487870" lon="-2.4497160">
        <ele>399.6</ele>
        <time>2020-01-12T12:52:51Z</time>
      </trkpt>
      <trkpt lat="42.4488410" lon="-2.4496920">
        <ele>399.5</ele>
        <time>2020-01-12T12:52:52Z</time>
      </trkpt>
      <trkpt lat="42.4489010" lon="-2.4496710">
        <ele>399.3</ele>
        <time>2020-01-12T12:52:53Z</time>
      </trkpt>
      <trkpt lat="42.4489340" lon="-2.4496560">
        <ele>399.2</ele>
        <time>2020-01-12T12:52:54Z</time>
      </trkpt>
      <trkpt lat="42.4489900" lon="-2.4496410">
        <ele>399.1</ele>
        <time>2020-01-12T12:52:55Z</time>
      </trkpt>
      <trkpt lat="42.4490560" lon="-2.4496220">
        <ele>399.0</ele>
        <time>2020-01-12T12:52:56Z</time>
      </trkpt>
      <trkpt lat="42.4491130" lon="-2.4495960">
        <ele>399.0</ele>
        <time>2020-01-12T12:52:57Z</time>
      </trkpt>
      <trkpt lat="42.4491840" lon="-2.4495760">
        <ele>398.9</ele>
        <time>2020-01-12T12:52:58Z</time>
      </trkpt>
      <trkpt lat="42.4492560" lon="-2.4495680">
        <ele>398.9</ele>
        <time>2020-01-12T12:52:59Z</time>
      </trkpt>
      <trkpt lat="42.4493280" lon="-2.4495580">
        <ele>398.9</ele>
        <time>2020-01-12T12:53:00Z</time>
      </trkpt>
      <trkpt lat="42.4494070" lon="-2.4495380">
        <ele>398.9</ele>
        <time>2020-01-12T12:53:01Z</time>
      </trkpt>
      <trkpt lat="42.4494900" lon="-2.4495140">
        <ele>399.0</ele>
        <time>2020-01-12T12:53:02Z</time>
      </trkpt>
      <trkpt lat="42.4495770" lon="-2.4494900">
        <ele>398.9</ele>
        <time>2020-01-12T12:53:03Z</time>
      </trkpt>
      <trkpt lat="42.4496370" lon="-2.4494640">
        <ele>398.8</ele>
        <time>2020-01-12T12:53:04Z</time>
      </trkpt>
      <trkpt lat="42.4497090" lon="-2.4494370">
        <ele>398.7</ele>
        <time>2020-01-12T12:53:05Z</time>
      </trkpt>
      <trkpt lat="42.4497790" lon="-2.4494180">
        <ele>398.6</ele>
        <time>2020-01-12T12:53:06Z</time>
      </trkpt>
      <trkpt lat="42.4498360" lon="-2.4494040">
        <ele>398.5</ele>
        <time>2020-01-12T12:53:07Z</time>
      </trkpt>
      <trkpt lat="42.4499220" lon="-2.4493830">
        <ele>398.4</ele>
        <time>2020-01-12T12:53:08Z</time>
      </trkpt>
      <trkpt lat="42.4499930" lon="-2.4493630">
        <ele>398.3</ele>
        <time>2020-01-12T12:53:09Z</time>
      </trkpt>
      <trkpt lat="42.4500830" lon="-2.4493400">
        <ele>398.3</ele>
        <time>2020-01-12T12:53:10Z</time>
      </trkpt>
      <trkpt lat="42.4501620" lon="-2.4493180">
        <ele>398.3</ele>
        <time>2020-01-12T12:53:11Z</time>
      </trkpt>
      <trkpt lat="42.4502450" lon="-2.4492990">
        <ele>398.3</ele>
        <time>2020-01-12T12:53:12Z</time>
      </trkpt>
      <trkpt lat="42.4503160" lon="-2.4492710">
        <ele>398.3</ele>
        <time>2020-01-12T12:53:13Z</time>
      </trkpt>
      <trkpt lat="42.4503860" lon="-2.4492430">
        <ele>398.3</ele>
        <time>2020-01-12T12:53:14Z</time>
      </trkpt>
      <trkpt lat="42.4504530" lon="-2.4492160">
        <ele>398.3</ele>
        <time>2020-01-12T12:53:15Z</time>
      </trkpt>
      <trkpt lat="42.4505200" lon="-2.4491960">
        <ele>398.3</ele>
        <time>2020-01-12T12:53:16Z</time>
      </trkpt>
      <trkpt lat="42.4505910" lon="-2.4491830">
        <ele>398.2</ele>
        <time>2020-01-12T12:53:17Z</time>
      </trkpt>
      <trkpt lat="42.4506550" lon="-2.4491610">
        <ele>398.2</ele>
        <time>2020-01-12T12:53:18Z</time>
      </trkpt>
      <trkpt lat="42.4507280" lon="-2.4491430">
        <ele>398.2</ele>
        <time>2020-01-12T12:53:19Z</time>
      </trkpt>
      <trkpt lat="42.4507910" lon="-2.4491260">
        <ele>398.2</ele>
        <time>2020-01-12T12:53:20Z</time>
      </trkpt>
      <trkpt lat="42.4508500" lon="-2.4491090">
        <ele>398.2</ele>
        <time>2020-01-12T12:53:21Z</time>
      </trkpt>
      <trkpt lat="42.4509210" lon="-2.4490840">
        <ele>398.2</ele>
        <time>2020-01-12T12:53:22Z</time>
      </trkpt>
      <trkpt lat="42.4509970" lon="-2.4490670">
        <ele>398.2</ele>
        <time>2020-01-12T12:53:23Z</time>
      </trkpt>
      <trkpt lat="42.4510700" lon="-2.4490550">
        <ele>398.2</ele>
        <time>2020-01-12T12:53:24Z</time>
      </trkpt>
      <trkpt lat="42.4511310" lon="-2.4490340">
        <ele>398.2</ele>
        <time>2020-01-12T12:53:25Z</time>
      </trkpt>
      <trkpt lat="42.4511990" lon="-2.4490180">
        <ele>398.2</ele>
        <time>2020-01-12T12:53:26Z</time>
      </trkpt>
      <trkpt lat="42.4512760" lon="-2.4489970">
        <ele>398.2</ele>
        <time>2020-01-12T12:53:27Z</time>
      </trkpt>
      <trkpt lat="42.4513630" lon="-2.4489730">
        <ele>398.2</ele>
        <time>2020-01-12T12:53:28Z</time>
      </trkpt>
      <trkpt lat="42.4514280" lon="-2.4489530">
        <ele>398.2</ele>
        <time>2020-01-12T12:53:29Z</time>
      </trkpt>
      <trkpt lat="42.4514940" lon="-2.4489290">
        <ele>398.2</ele>
        <time>2020-01-12T12:53:30Z</time>
      </trkpt>
      <trkpt lat="42.4515610" lon="-2.4489090">
        <ele>398.2</ele>
        <time>2020-01-12T12:53:31Z</time>
      </trkpt>
      <trkpt lat="42.4516300" lon="-2.4488840">
        <ele>398.1</ele>
        <time>2020-01-12T12:53:32Z</time>
      </trkpt>
      <trkpt lat="42.4517010" lon="-2.4488670">
        <ele>398.0</ele>
        <time>2020-01-12T12:53:33Z</time>
      </trkpt>
      <trkpt lat="42.4517740" lon="-2.4488500">
        <ele>397.8</ele>
        <time>2020-01-12T12:53:34Z</time>
      </trkpt>
      <trkpt lat="42.4518440" lon="-2.4488240">
        <ele>397.6</ele>
        <time>2020-01-12T12:53:35Z</time>
      </trkpt>
      <trkpt lat="42.4519070" lon="-2.4488060">
        <ele>397.4</ele>
        <time>2020-01-12T12:53:36Z</time>
      </trkpt>
      <trkpt lat="42.4519730" lon="-2.4487860">
        <ele>397.2</ele>
        <time>2020-01-12T12:53:37Z</time>
      </trkpt>
      <trkpt lat="42.4520400" lon="-2.4487700">
        <ele>397.1</ele>
        <time>2020-01-12T12:53:38Z</time>
      </trkpt>
      <trkpt lat="42.4521030" lon="-2.4487490">
        <ele>397.0</ele>
        <time>2020-01-12T12:53:39Z</time>
      </trkpt>
      <trkpt lat="42.4521740" lon="-2.4487300">
        <ele>396.9</ele>
        <time>2020-01-12T12:53:40Z</time>
      </trkpt>
      <trkpt lat="42.4522440" lon="-2.4487140">
        <ele>396.8</ele>
        <time>2020-01-12T12:53:41Z</time>
      </trkpt>
      <trkpt lat="42.4523040" lon="-2.4486900">
        <ele>396.8</ele>
        <time>2020-01-12T12:53:42Z</time>
      </trkpt>
      <trkpt lat="42.4523530" lon="-2.4486710">
        <ele>396.7</ele>
        <time>2020-01-12T12:53:43Z</time>
      </trkpt>
      <trkpt lat="42.4524230" lon="-2.4486500">
        <ele>396.6</ele>
        <time>2020-01-12T12:53:44Z</time>
      </trkpt>
      <trkpt lat="42.4524840" lon="-2.4486340">
        <ele>396.5</ele>
        <time>2020-01-12T12:53:45Z</time>
      </trkpt>
      <trkpt lat="42.4525380" lon="-2.4486170">
        <ele>396.3</ele>
        <time>2020-01-12T12:53:46Z</time>
      </trkpt>
      <trkpt lat="42.4525710" lon="-2.4485940">
        <ele>396.2</ele>
        <time>2020-01-12T12:53:47Z</time>
      </trkpt>
      <trkpt lat="42.4526440" lon="-2.4485820">
        <ele>395.9</ele>
        <time>2020-01-12T12:53:48Z</time>
      </trkpt>
      <trkpt lat="42.4527050" lon="-2.4485650">
        <ele>395.7</ele>
        <time>2020-01-12T12:53:49Z</time>
      </trkpt>
      <trkpt lat="42.4527720" lon="-2.4485570">
        <ele>395.4</ele>
        <time>2020-01-12T12:53:50Z</time>
      </trkpt>
      <trkpt lat="42.4528350" lon="-2.4485380">
        <ele>395.2</ele>
        <time>2020-01-12T12:53:51Z</time>
      </trkpt>
      <trkpt lat="42.4528940" lon="-2.4485150">
        <ele>395.1</ele>
        <time>2020-01-12T12:53:52Z</time>
      </trkpt>
      <trkpt lat="42.4529540" lon="-2.4484970">
        <ele>394.8</ele>
        <time>2020-01-12T12:53:53Z</time>
      </trkpt>
      <trkpt lat="42.4530060" lon="-2.4484750">
        <ele>394.8</ele>
        <time>2020-01-12T12:53:54Z</time>
      </trkpt>
      <trkpt lat="42.4530440" lon="-2.4484620">
        <ele>394.9</ele>
        <time>2020-01-12T12:53:55Z</time>
      </trkpt>
      <trkpt lat="42.4531170" lon="-2.4484540">
        <ele>394.9</ele>
        <time>2020-01-12T12:53:56Z</time>
      </trkpt>
      <trkpt lat="42.4531620" lon="-2.4484330">
        <ele>394.9</ele>
        <time>2020-01-12T12:53:57Z</time>
      </trkpt>
      <trkpt lat="42.4532190" lon="-2.4484120">
        <ele>394.9</ele>
        <time>2020-01-12T12:53:58Z</time>
      </trkpt>
      <trkpt lat="42.4532350" lon="-2.4483650">
        <ele>394.9</ele>
        <time>2020-01-12T12:53:59Z</time>
      </trkpt>
      <trkpt lat="42.4532600" lon="-2.4483090">
        <ele>395.0</ele>
        <time>2020-01-12T12:54:01Z</time>
      </trkpt>
      <trkpt lat="42.4532860" lon="-2.4482800">
        <ele>395.0</ele>
        <time>2020-01-12T12:54:02Z</time>
      </trkpt>
      <trkpt lat="42.4533140" lon="-2.4482130">
        <ele>395.0</ele>
        <time>2020-01-12T12:54:04Z</time>
      </trkpt>
      <trkpt lat="42.4533270" lon="-2.4481730">
        <ele>395.0</ele>
        <time>2020-01-12T12:54:05Z</time>
      </trkpt>
      <trkpt lat="42.4533500" lon="-2.4481310">
        <ele>395.0</ele>
        <time>2020-01-12T12:54:06Z</time>
      </trkpt>
      <trkpt lat="42.4533500" lon="-2.4480680">
        <ele>395.1</ele>
        <time>2020-01-12T12:54:07Z</time>
      </trkpt>
      <trkpt lat="42.4533580" lon="-2.4480050">
        <ele>395.1</ele>
        <time>2020-01-12T12:54:08Z</time>
      </trkpt>
      <trkpt lat="42.4533650" lon="-2.4479430">
        <ele>395.1</ele>
        <time>2020-01-12T12:54:09Z</time>
      </trkpt>
      <trkpt lat="42.4533740" lon="-2.4478810">
        <ele>395.1</ele>
        <time>2020-01-12T12:54:10Z</time>
      </trkpt>
      <trkpt lat="42.4533680" lon="-2.4478040">
        <ele>395.2</ele>
        <time>2020-01-12T12:54:11Z</time>
      </trkpt>
      <trkpt lat="42.4533610" lon="-2.4477260">
        <ele>395.2</ele>
        <time>2020-01-12T12:54:12Z</time>
      </trkpt>
      <trkpt lat="42.4533510" lon="-2.4476410">
        <ele>395.2</ele>
        <time>2020-01-12T12:54:13Z</time>
      </trkpt>
      <trkpt lat="42.4533470" lon="-2.4475490">
        <ele>395.2</ele>
        <time>2020-01-12T12:54:14Z</time>
      </trkpt>
      <trkpt lat="42.4533450" lon="-2.4474480">
        <ele>395.2</ele>
        <time>2020-01-12T12:54:15Z</time>
      </trkpt>
      <trkpt lat="42.4533420" lon="-2.4473560">
        <ele>395.3</ele>
        <time>2020-01-12T12:54:16Z</time>
      </trkpt>
      <trkpt lat="42.4533340" lon="-2.4472580">
        <ele>395.3</ele>
        <time>2020-01-12T12:54:17Z</time>
      </trkpt>
      <trkpt lat="42.4533330" lon="-2.4471670">
        <ele>395.2</ele>
        <time>2020-01-12T12:54:18Z</time>
      </trkpt>
      <trkpt lat="42.4533270" lon="-2.4470600">
        <ele>395.2</ele>
        <time>2020-01-12T12:54:19Z</time>
      </trkpt>
      <trkpt lat="42.4533170" lon="-2.4469570">
        <ele>395.0</ele>
        <time>2020-01-12T12:54:20Z</time>
      </trkpt>
      <trkpt lat="42.4533010" lon="-2.4468430">
        <ele>394.9</ele>
        <time>2020-01-12T12:54:21Z</time>
      </trkpt>
      <trkpt lat="42.4532860" lon="-2.4467280">
        <ele>394.7</ele>
        <time>2020-01-12T12:54:22Z</time>
      </trkpt>
      <trkpt lat="42.4532650" lon="-2.4466310">
        <ele>394.4</ele>
        <time>2020-01-12T12:54:23Z</time>
      </trkpt>
      <trkpt lat="42.4532400" lon="-2.4465460">
        <ele>394.4</ele>
        <time>2020-01-12T12:54:24Z</time>
      </trkpt>
      <trkpt lat="42.4532340" lon="-2.4464390">
        <ele>394.4</ele>
        <time>2020-01-12T12:54:25Z</time>
      </trkpt>
      <trkpt lat="42.4532170" lon="-2.4463400">
        <ele>394.4</ele>
        <time>2020-01-12T12:54:26Z</time>
      </trkpt>
      <trkpt lat="42.4531920" lon="-2.4462370">
        <ele>394.3</ele>
        <time>2020-01-12T12:54:27Z</time>
      </trkpt>
      <trkpt lat="42.4531770" lon="-2.4461520">
        <ele>394.3</ele>
        <time>2020-01-12T12:54:28Z</time>
      </trkpt>
      <trkpt lat="42.4531640" lon="-2.4460590">
        <ele>394.3</ele>
        <time>2020-01-12T12:54:29Z</time>
      </trkpt>
      <trkpt lat="42.4531510" lon="-2.4459600">
        <ele>394.2</ele>
        <time>2020-01-12T12:54:30Z</time>
      </trkpt>
      <trkpt lat="42.4531430" lon="-2.4458610">
        <ele>394.1</ele>
        <time>2020-01-12T12:54:31Z</time>
      </trkpt>
      <trkpt lat="42.4531500" lon="-2.4457680">
        <ele>394.0</ele>
        <time>2020-01-12T12:54:32Z</time>
      </trkpt>
      <trkpt lat="42.4531470" lon="-2.4456680">
        <ele>393.9</ele>
        <time>2020-01-12T12:54:33Z</time>
      </trkpt>
      <trkpt lat="42.4531510" lon="-2.4455580">
        <ele>393.7</ele>
        <time>2020-01-12T12:54:34Z</time>
      </trkpt>
      <trkpt lat="42.4531430" lon="-2.4454590">
        <ele>393.5</ele>
        <time>2020-01-12T12:54:35Z</time>
      </trkpt>
      <trkpt lat="42.4531450" lon="-2.4453590">
        <ele>393.4</ele>
        <time>2020-01-12T12:54:36Z</time>
      </trkpt>
      <trkpt lat="42.4531510" lon="-2.4452610">
        <ele>393.3</ele>
        <time>2020-01-12T12:54:37Z</time>
      </trkpt>
      <trkpt lat="42.4531550" lon="-2.4451590">
        <ele>393.3</ele>
        <time>2020-01-12T12:54:38Z</time>
      </trkpt>
      <trkpt lat="42.4531490" lon="-2.4450570">
        <ele>393.2</ele>
        <time>2020-01-12T12:54:39Z</time>
      </trkpt>
      <trkpt lat="42.4531510" lon="-2.4449720">
        <ele>393.2</ele>
        <time>2020-01-12T12:54:40Z</time>
      </trkpt>
      <trkpt lat="42.4531540" lon="-2.4448660">
        <ele>393.2</ele>
        <time>2020-01-12T12:54:41Z</time>
      </trkpt>
      <trkpt lat="42.4531590" lon="-2.4447720">
        <ele>393.2</ele>
        <time>2020-01-12T12:54:42Z</time>
      </trkpt>
      <trkpt lat="42.4531780" lon="-2.4446840">
        <ele>393.2</ele>
        <time>2020-01-12T12:54:43Z</time>
      </trkpt>
      <trkpt lat="42.4531740" lon="-2.4445890">
        <ele>393.2</ele>
        <time>2020-01-12T12:54:44Z</time>
      </trkpt>
      <trkpt lat="42.4531800" lon="-2.4445090">
        <ele>393.2</ele>
        <time>2020-01-12T12:54:45Z</time>
      </trkpt>
      <trkpt lat="42.4531780" lon="-2.4444270">
        <ele>393.2</ele>
        <time>2020-01-12T12:54:46Z</time>
      </trkpt>
      <trkpt lat="42.4531690" lon="-2.4443220">
        <ele>393.2</ele>
        <time>2020-01-12T12:54:47Z</time>
      </trkpt>
      <trkpt lat="42.4531770" lon="-2.4442260">
        <ele>393.2</ele>
        <time>2020-01-12T12:54:48Z</time>
      </trkpt>
      <trkpt lat="42.4531860" lon="-2.4441270">
        <ele>393.2</ele>
        <time>2020-01-12T12:54:49Z</time>
      </trkpt>
      <trkpt lat="42.4531970" lon="-2.4440480">
        <ele>393.2</ele>
        <time>2020-01-12T12:54:50Z</time>
      </trkpt>
      <trkpt lat="42.4532050" lon="-2.4439570">
        <ele>393.2</ele>
        <time>2020-01-12T12:54:51Z</time>
      </trkpt>
      <trkpt lat="42.4532170" lon="-2.4438780">
        <ele>393.2</ele>
        <time>2020-01-12T12:54:52Z</time>
      </trkpt>
      <trkpt lat="42.4532240" lon="-2.4437870">
        <ele>393.2</ele>
        <time>2020-01-12T12:54:53Z</time>
      </trkpt>
      <trkpt lat="42.4532370" lon="-2.4437040">
        <ele>393.2</ele>
        <time>2020-01-12T12:54:54Z</time>
      </trkpt>
      <trkpt lat="42.4532510" lon="-2.4436170">
        <ele>393.2</ele>
        <time>2020-01-12T12:54:55Z</time>
      </trkpt>
      <trkpt lat="42.4532540" lon="-2.4435280">
        <ele>393.2</ele>
        <time>2020-01-12T12:54:56Z</time>
      </trkpt>
      <trkpt lat="42.4532550" lon="-2.4434380">
        <ele>393.2</ele>
        <time>2020-01-12T12:54:57Z</time>
      </trkpt>
      <trkpt lat="42.4532630" lon="-2.4433410">
        <ele>393.2</ele>
        <time>2020-01-12T12:54:58Z</time>
      </trkpt>
      <trkpt lat="42.4532740" lon="-2.4432420">
        <ele>393.2</ele>
        <time>2020-01-12T12:54:59Z</time>
      </trkpt>
      <trkpt lat="42.4532920" lon="-2.4431500">
        <ele>393.2</ele>
        <time>2020-01-12T12:55:00Z</time>
      </trkpt>
      <trkpt lat="42.4533000" lon="-2.4430460">
        <ele>393.1</ele>
        <time>2020-01-12T12:55:01Z</time>
      </trkpt>
      <trkpt lat="42.4533100" lon="-2.4429450">
        <ele>393.1</ele>
        <time>2020-01-12T12:55:02Z</time>
      </trkpt>
      <trkpt lat="42.4533160" lon="-2.4428440">
        <ele>393.1</ele>
        <time>2020-01-12T12:55:03Z</time>
      </trkpt>
      <trkpt lat="42.4533250" lon="-2.4427470">
        <ele>393.1</ele>
        <time>2020-01-12T12:55:04Z</time>
      </trkpt>
      <trkpt lat="42.4533320" lon="-2.4426480">
        <ele>393.1</ele>
        <time>2020-01-12T12:55:05Z</time>
      </trkpt>
      <trkpt lat="42.4533440" lon="-2.4425490">
        <ele>393.1</ele>
        <time>2020-01-12T12:55:06Z</time>
      </trkpt>
      <trkpt lat="42.4533490" lon="-2.4424450">
        <ele>393.1</ele>
        <time>2020-01-12T12:55:07Z</time>
      </trkpt>
      <trkpt lat="42.4533640" lon="-2.4423530">
        <ele>393.1</ele>
        <time>2020-01-12T12:55:08Z</time>
      </trkpt>
      <trkpt lat="42.4533670" lon="-2.4422530">
        <ele>393.1</ele>
        <time>2020-01-12T12:55:09Z</time>
      </trkpt>
      <trkpt lat="42.4533710" lon="-2.4421630">
        <ele>393.1</ele>
        <time>2020-01-12T12:55:10Z</time>
      </trkpt>
      <trkpt lat="42.4533730" lon="-2.4420630">
        <ele>393.1</ele>
        <time>2020-01-12T12:55:11Z</time>
      </trkpt>
      <trkpt lat="42.4533720" lon="-2.4419590">
        <ele>393.1</ele>
        <time>2020-01-12T12:55:12Z</time>
      </trkpt>
      <trkpt lat="42.4533670" lon="-2.4418600">
        <ele>393.0</ele>
        <time>2020-01-12T12:55:13Z</time>
      </trkpt>
      <trkpt lat="42.4533470" lon="-2.4417560">
        <ele>392.9</ele>
        <time>2020-01-12T12:55:14Z</time>
      </trkpt>
      <trkpt lat="42.4533220" lon="-2.4416530">
        <ele>392.8</ele>
        <time>2020-01-12T12:55:15Z</time>
      </trkpt>
      <trkpt lat="42.4532870" lon="-2.4415590">
        <ele>392.7</ele>
        <time>2020-01-12T12:55:16Z</time>
      </trkpt>
      <trkpt lat="42.4532520" lon="-2.4414830">
        <ele>392.6</ele>
        <time>2020-01-12T12:55:17Z</time>
      </trkpt>
      <trkpt lat="42.4531890" lon="-2.4413950">
        <ele>392.4</ele>
        <time>2020-01-12T12:55:18Z</time>
      </trkpt>
      <trkpt lat="42.4531370" lon="-2.4413520">
        <ele>392.3</ele>
        <time>2020-01-12T12:55:19Z</time>
      </trkpt>
      <trkpt lat="42.4530630" lon="-2.4412920">
        <ele>392.1</ele>
        <time>2020-01-12T12:55:20Z</time>
      </trkpt>
      <trkpt lat="42.4529980" lon="-2.4412270">
        <ele>392.0</ele>
        <time>2020-01-12T12:55:21Z</time>
      </trkpt>
      <trkpt lat="42.4529520" lon="-2.4411690">
        <ele>392.0</ele>
        <time>2020-01-12T12:55:22Z</time>
      </trkpt>
      <trkpt lat="42.4529280" lon="-2.4410930">
        <ele>392.0</ele>
        <time>2020-01-12T12:55:23Z</time>
      </trkpt>
      <trkpt lat="42.4529160" lon="-2.4410020">
        <ele>392.0</ele>
        <time>2020-01-12T12:55:24Z</time>
      </trkpt>
      <trkpt lat="42.4529180" lon="-2.4409060">
        <ele>392.0</ele>
        <time>2020-01-12T12:55:25Z</time>
      </trkpt>
      <trkpt lat="42.4529500" lon="-2.4408400">
        <ele>392.0</ele>
        <time>2020-01-12T12:55:26Z</time>
      </trkpt>
      <trkpt lat="42.4529960" lon="-2.4407730">
        <ele>392.1</ele>
        <time>2020-01-12T12:55:27Z</time>
      </trkpt>
      <trkpt lat="42.4530560" lon="-2.4407470">
        <ele>392.2</ele>
        <time>2020-01-12T12:55:28Z</time>
      </trkpt>
      <trkpt lat="42.4531250" lon="-2.4407300">
        <ele>392.2</ele>
        <time>2020-01-12T12:55:29Z</time>
      </trkpt>
      <trkpt lat="42.4531880" lon="-2.4407270">
        <ele>392.3</ele>
        <time>2020-01-12T12:55:30Z</time>
      </trkpt>
      <trkpt lat="42.4532470" lon="-2.4407400">
        <ele>392.3</ele>
        <time>2020-01-12T12:55:31Z</time>
      </trkpt>
      <trkpt lat="42.4533000" lon="-2.4407960">
        <ele>392.4</ele>
        <time>2020-01-12T12:55:32Z</time>
      </trkpt>
      <trkpt lat="42.4533440" lon="-2.4408510">
        <ele>392.5</ele>
        <time>2020-01-12T12:55:33Z</time>
      </trkpt>
      <trkpt lat="42.4533970" lon="-2.4409130">
        <ele>392.7</ele>
        <time>2020-01-12T12:55:34Z</time>
      </trkpt>
      <trkpt lat="42.4534430" lon="-2.4409610">
        <ele>392.8</ele>
        <time>2020-01-12T12:55:35Z</time>
      </trkpt>
      <trkpt lat="42.4534990" lon="-2.4409970">
        <ele>392.9</ele>
        <time>2020-01-12T12:55:36Z</time>
      </trkpt>
      <trkpt lat="42.4535590" lon="-2.4410240">
        <ele>393.1</ele>
        <time>2020-01-12T12:55:37Z</time>
      </trkpt>
      <trkpt lat="42.4536170" lon="-2.4410360">
        <ele>393.3</ele>
        <time>2020-01-12T12:55:38Z</time>
      </trkpt>
      <trkpt lat="42.4536690" lon="-2.4410430">
        <ele>393.4</ele>
        <time>2020-01-12T12:55:39Z</time>
      </trkpt>
      <trkpt lat="42.4537250" lon="-2.4410360">
        <ele>393.6</ele>
        <time>2020-01-12T12:55:40Z</time>
      </trkpt>
      <trkpt lat="42.4537780" lon="-2.4410240">
        <ele>393.7</ele>
        <time>2020-01-12T12:55:41Z</time>
      </trkpt>
      <trkpt lat="42.4538290" lon="-2.4409980">
        <ele>393.9</ele>
        <time>2020-01-12T12:55:42Z</time>
      </trkpt>
      <trkpt lat="42.4538750" lon="-2.4409720">
        <ele>394.0</ele>
        <time>2020-01-12T12:55:43Z</time>
      </trkpt>
      <trkpt lat="42.4539320" lon="-2.4409680">
        <ele>394.1</ele>
        <time>2020-01-12T12:55:44Z</time>
      </trkpt>
      <trkpt lat="42.4539800" lon="-2.4409750">
        <ele>394.2</ele>
        <time>2020-01-12T12:55:45Z</time>
      </trkpt>
      <trkpt lat="42.4540530" lon="-2.4410030">
        <ele>394.1</ele>
        <time>2020-01-12T12:55:46Z</time>
      </trkpt>
      <trkpt lat="42.4541120" lon="-2.4410510">
        <ele>394.0</ele>
        <time>2020-01-12T12:55:47Z</time>
      </trkpt>
      <trkpt lat="42.4541720" lon="-2.4410900">
        <ele>393.7</ele>
        <time>2020-01-12T12:55:48Z</time>
      </trkpt>
      <trkpt lat="42.4542410" lon="-2.4411160">
        <ele>393.5</ele>
        <time>2020-01-12T12:55:49Z</time>
      </trkpt>
      <trkpt lat="42.4543050" lon="-2.4411370">
        <ele>393.3</ele>
        <time>2020-01-12T12:55:50Z</time>
      </trkpt>
      <trkpt lat="42.4543750" lon="-2.4411420">
        <ele>393.1</ele>
        <time>2020-01-12T12:55:51Z</time>
      </trkpt>
      <trkpt lat="42.4544390" lon="-2.4411480">
        <ele>392.9</ele>
        <time>2020-01-12T12:55:52Z</time>
      </trkpt>
      <trkpt lat="42.4545090" lon="-2.4411540">
        <ele>392.7</ele>
        <time>2020-01-12T12:55:53Z</time>
      </trkpt>
      <trkpt lat="42.4545840" lon="-2.4411800">
        <ele>392.4</ele>
        <time>2020-01-12T12:55:54Z</time>
      </trkpt>
      <trkpt lat="42.4546410" lon="-2.4412270">
        <ele>392.2</ele>
        <time>2020-01-12T12:55:55Z</time>
      </trkpt>
      <trkpt lat="42.4547060" lon="-2.4412320">
        <ele>392.0</ele>
        <time>2020-01-12T12:55:56Z</time>
      </trkpt>
      <trkpt lat="42.4547710" lon="-2.4412230">
        <ele>391.8</ele>
        <time>2020-01-12T12:55:57Z</time>
      </trkpt>
      <trkpt lat="42.4548520" lon="-2.4412290">
        <ele>391.6</ele>
        <time>2020-01-12T12:55:58Z</time>
      </trkpt>
      <trkpt lat="42.4549160" lon="-2.4412390">
        <ele>391.5</ele>
        <time>2020-01-12T12:55:59Z</time>
      </trkpt>
      <trkpt lat="42.4549810" lon="-2.4412720">
        <ele>391.5</ele>
        <time>2020-01-12T12:56:00Z</time>
      </trkpt>
      <trkpt lat="42.4550500" lon="-2.4412720">
        <ele>391.5</ele>
        <time>2020-01-12T12:56:01Z</time>
      </trkpt>
      <trkpt lat="42.4551200" lon="-2.4412720">
        <ele>391.5</ele>
        <time>2020-01-12T12:56:02Z</time>
      </trkpt>
      <trkpt lat="42.4551840" lon="-2.4412820">
        <ele>391.6</ele>
        <time>2020-01-12T12:56:03Z</time>
      </trkpt>
      <trkpt lat="42.4552540" lon="-2.4413040">
        <ele>391.7</ele>
        <time>2020-01-12T12:56:04Z</time>
      </trkpt>
      <trkpt lat="42.4552860" lon="-2.4411640">
        <ele>391.7</ele>
        <time>2020-01-12T12:56:05Z</time>
      </trkpt>
      <trkpt lat="42.4553450" lon="-2.4411860">
        <ele>391.9</ele>
        <time>2020-01-12T12:56:06Z</time>
      </trkpt>
      <trkpt lat="42.4554040" lon="-2.4411700">
        <ele>392.0</ele>
        <time>2020-01-12T12:56:07Z</time>
      </trkpt>
      <trkpt lat="42.4554470" lon="-2.4411320">
        <ele>392.1</ele>
        <time>2020-01-12T12:56:08Z</time>
      </trkpt>
      <trkpt lat="42.4554900" lon="-2.4410890">
        <ele>392.1</ele>
        <time>2020-01-12T12:56:09Z</time>
      </trkpt>
      <trkpt lat="42.4555440" lon="-2.4410620">
        <ele>392.1</ele>
        <time>2020-01-12T12:56:10Z</time>
      </trkpt>
      <trkpt lat="42.4556080" lon="-2.4410520">
        <ele>392.1</ele>
        <time>2020-01-12T12:56:11Z</time>
      </trkpt>
      <trkpt lat="42.4556570" lon="-2.4410520">
        <ele>392.1</ele>
        <time>2020-01-12T12:56:12Z</time>
      </trkpt>
      <trkpt lat="42.4557260" lon="-2.4410950">
        <ele>392.0</ele>
        <time>2020-01-12T12:56:13Z</time>
      </trkpt>
      <trkpt lat="42.4557800" lon="-2.4411270">
        <ele>392.0</ele>
        <time>2020-01-12T12:56:14Z</time>
      </trkpt>
      <trkpt lat="42.4558070" lon="-2.4411700">
        <ele>391.9</ele>
        <time>2020-01-12T12:56:15Z</time>
      </trkpt>
      <trkpt lat="42.4558440" lon="-2.4412130">
        <ele>391.9</ele>
        <time>2020-01-12T12:56:16Z</time>
      </trkpt>
      <trkpt lat="42.4558820" lon="-2.4412550">
        <ele>391.8</ele>
        <time>2020-01-12T12:56:17Z</time>
      </trkpt>
      <trkpt lat="42.4559300" lon="-2.4412880">
        <ele>391.7</ele>
        <time>2020-01-12T12:56:18Z</time>
      </trkpt>
      <trkpt lat="42.4559780" lon="-2.4413040">
        <ele>391.5</ele>
        <time>2020-01-12T12:56:19Z</time>
      </trkpt>
      <trkpt lat="42.4560270" lon="-2.4413090">
        <ele>391.3</ele>
        <time>2020-01-12T12:56:20Z</time>
      </trkpt>
      <trkpt lat="42.4560860" lon="-2.4413200">
        <ele>391.2</ele>
        <time>2020-01-12T12:56:21Z</time>
      </trkpt>
      <trkpt lat="42.4561450" lon="-2.4413250">
        <ele>391.1</ele>
        <time>2020-01-12T12:56:22Z</time>
      </trkpt>
      <trkpt lat="42.4562200" lon="-2.4413410">
        <ele>390.9</ele>
        <time>2020-01-12T12:56:23Z</time>
      </trkpt>
      <trkpt lat="42.4563270" lon="-2.4413680">
        <ele>390.7</ele>
        <time>2020-01-12T12:56:24Z</time>
      </trkpt>
      <trkpt lat="42.4564080" lon="-2.4413800">
        <ele>390.6</ele>
        <time>2020-01-12T12:56:25Z</time>
      </trkpt>
      <trkpt lat="42.4564650" lon="-2.4413610">
        <ele>390.5</ele>
        <time>2020-01-12T12:56:26Z</time>
      </trkpt>
      <trkpt lat="42.4565260" lon="-2.4413200">
        <ele>390.4</ele>
        <time>2020-01-12T12:56:27Z</time>
      </trkpt>
      <trkpt lat="42.4565850" lon="-2.4413630">
        <ele>390.2</ele>
        <time>2020-01-12T12:56:28Z</time>
      </trkpt>
      <trkpt lat="42.4566700" lon="-2.4413680">
        <ele>390.0</ele>
        <time>2020-01-12T12:56:29Z</time>
      </trkpt>
      <trkpt lat="42.4567350" lon="-2.4413900">
        <ele>389.8</ele>
        <time>2020-01-12T12:56:30Z</time>
      </trkpt>
      <trkpt lat="42.4567940" lon="-2.4414140">
        <ele>389.6</ele>
        <time>2020-01-12T12:56:31Z</time>
      </trkpt>
      <trkpt lat="42.4568590" lon="-2.4414010">
        <ele>389.1</ele>
        <time>2020-01-12T12:56:32Z</time>
      </trkpt>
      <trkpt lat="42.4569130" lon="-2.4413950">
        <ele>388.9</ele>
        <time>2020-01-12T12:56:33Z</time>
      </trkpt>
      <trkpt lat="42.4569490" lon="-2.4413950">
        <ele>388.9</ele>
        <time>2020-01-12T12:56:34Z</time>
      </trkpt>
      <trkpt lat="42.4569880" lon="-2.4413740">
        <ele>388.9</ele>
        <time>2020-01-12T12:56:35Z</time>
      </trkpt>
      <trkpt lat="42.4570400" lon="-2.4413510">
        <ele>388.8</ele>
        <time>2020-01-12T12:56:36Z</time>
      </trkpt>
      <trkpt lat="42.4570840" lon="-2.4413570">
        <ele>388.7</ele>
        <time>2020-01-12T12:56:37Z</time>
      </trkpt>
      <trkpt lat="42.4571260" lon="-2.4413630">
        <ele>388.6</ele>
        <time>2020-01-12T12:56:38Z</time>
      </trkpt>
      <trkpt lat="42.4571830" lon="-2.4414130">
        <ele>388.7</ele>
        <time>2020-01-12T12:56:39Z</time>
      </trkpt>
      <trkpt lat="42.4572060" lon="-2.4414460">
        <ele>388.7</ele>
        <time>2020-01-12T12:56:40Z</time>
      </trkpt>
      <trkpt lat="42.4572490" lon="-2.4414810">
        <ele>388.8</ele>
        <time>2020-01-12T12:56:41Z</time>
      </trkpt>
      <trkpt lat="42.4573230" lon="-2.4415100">
        <ele>388.9</ele>
        <time>2020-01-12T12:56:42Z</time>
      </trkpt>
      <trkpt lat="42.4573850" lon="-2.4415190">
        <ele>389.3</ele>
        <time>2020-01-12T12:56:43Z</time>
      </trkpt>
      <trkpt lat="42.4574380" lon="-2.4415340">
        <ele>389.3</ele>
        <time>2020-01-12T12:56:44Z</time>
      </trkpt>
      <trkpt lat="42.4574970" lon="-2.4415320">
        <ele>389.3</ele>
        <time>2020-01-12T12:56:45Z</time>
      </trkpt>
      <trkpt lat="42.4575640" lon="-2.4415370">
        <ele>389.5</ele>
        <time>2020-01-12T12:56:46Z</time>
      </trkpt>
      <trkpt lat="42.4576250" lon="-2.4415400">
        <ele>389.7</ele>
        <time>2020-01-12T12:56:47Z</time>
      </trkpt>
      <trkpt lat="42.4577060" lon="-2.4415400">
        <ele>389.9</ele>
        <time>2020-01-12T12:56:48Z</time>
      </trkpt>
      <trkpt lat="42.4577820" lon="-2.4415710">
        <ele>390.1</ele>
        <time>2020-01-12T12:56:49Z</time>
      </trkpt>
      <trkpt lat="42.4578560" lon="-2.4416200">
        <ele>390.3</ele>
        <time>2020-01-12T12:56:50Z</time>
      </trkpt>
      <trkpt lat="42.4579040" lon="-2.4415990">
        <ele>390.5</ele>
        <time>2020-01-12T12:56:51Z</time>
      </trkpt>
      <trkpt lat="42.4579740" lon="-2.4416310">
        <ele>390.8</ele>
        <time>2020-01-12T12:56:52Z</time>
      </trkpt>
      <trkpt lat="42.4580380" lon="-2.4416520">
        <ele>391.2</ele>
        <time>2020-01-12T12:56:53Z</time>
      </trkpt>
      <trkpt lat="42.4580850" lon="-2.4416610">
        <ele>391.4</ele>
        <time>2020-01-12T12:56:54Z</time>
      </trkpt>
      <trkpt lat="42.4581400" lon="-2.4416690">
        <ele>391.7</ele>
        <time>2020-01-12T12:56:55Z</time>
      </trkpt>
      <trkpt lat="42.4581890" lon="-2.4416660">
        <ele>392.0</ele>
        <time>2020-01-12T12:56:56Z</time>
      </trkpt>
      <trkpt lat="42.4582440" lon="-2.4416690">
        <ele>392.3</ele>
        <time>2020-01-12T12:56:57Z</time>
      </trkpt>
      <trkpt lat="42.4583030" lon="-2.4416590">
        <ele>392.6</ele>
        <time>2020-01-12T12:56:58Z</time>
      </trkpt>
      <trkpt lat="42.4583650" lon="-2.4416510">
        <ele>392.9</ele>
        <time>2020-01-12T12:56:59Z</time>
      </trkpt>
      <trkpt lat="42.4584250" lon="-2.4416310">
        <ele>393.2</ele>
        <time>2020-01-12T12:57:00Z</time>
      </trkpt>
      <trkpt lat="42.4584970" lon="-2.4416250">
        <ele>393.5</ele>
        <time>2020-01-12T12:57:01Z</time>
      </trkpt>
      <trkpt lat="42.4585450" lon="-2.4416440">
        <ele>394.5</ele>
        <time>2020-01-12T12:57:02Z</time>
      </trkpt>
      <trkpt lat="42.4585920" lon="-2.4416420">
        <ele>395.2</ele>
        <time>2020-01-12T12:57:03Z</time>
      </trkpt>
      <trkpt lat="42.4586550" lon="-2.4416420">
        <ele>396.1</ele>
        <time>2020-01-12T12:57:04Z</time>
      </trkpt>
      <trkpt lat="42.4587100" lon="-2.4416280">
        <ele>396.8</ele>
        <time>2020-01-12T12:57:05Z</time>
      </trkpt>
      <trkpt lat="42.4587630" lon="-2.4416360">
        <ele>396.8</ele>
        <time>2020-01-12T12:57:06Z</time>
      </trkpt>
      <trkpt lat="42.4588430" lon="-2.4416500">
        <ele>396.8</ele>
        <time>2020-01-12T12:57:08Z</time>
      </trkpt>
      <trkpt lat="42.4589140" lon="-2.4416370">
        <ele>396.8</ele>
        <time>2020-01-12T12:57:09Z</time>
      </trkpt>
      <trkpt lat="42.4590130" lon="-2.4416510">
        <ele>396.8</ele>
        <time>2020-01-12T12:57:10Z</time>
      </trkpt>
      <trkpt lat="42.4591000" lon="-2.4416360">
        <ele>396.8</ele>
        <time>2020-01-12T12:57:11Z</time>
      </trkpt>
      <trkpt lat="42.4591810" lon="-2.4416270">
        <ele>396.7</ele>
        <time>2020-01-12T12:57:12Z</time>
      </trkpt>
      <trkpt lat="42.4592530" lon="-2.4416060">
        <ele>396.5</ele>
        <time>2020-01-12T12:57:13Z</time>
      </trkpt>
      <trkpt lat="42.4592720" lon="-2.4415780">
        <ele>396.4</ele>
        <time>2020-01-12T12:57:16Z</time>
      </trkpt>
      <trkpt lat="42.4593150" lon="-2.4415670">
        <ele>396.3</ele>
        <time>2020-01-12T12:57:17Z</time>
      </trkpt>
      <trkpt lat="42.4593740" lon="-2.4415540">
        <ele>396.2</ele>
        <time>2020-01-12T12:57:18Z</time>
      </trkpt>
      <trkpt lat="42.4594750" lon="-2.4415330">
        <ele>396.1</ele>
        <time>2020-01-12T12:57:19Z</time>
      </trkpt>
      <trkpt lat="42.4595150" lon="-2.4415240">
        <ele>396.1</ele>
        <time>2020-01-12T12:57:20Z</time>
      </trkpt>
      <trkpt lat="42.4595890" lon="-2.4414970">
        <ele>396.2</ele>
        <time>2020-01-12T12:57:21Z</time>
      </trkpt>
      <trkpt lat="42.4596380" lon="-2.4414890">
        <ele>396.4</ele>
        <time>2020-01-12T12:57:22Z</time>
      </trkpt>
      <trkpt lat="42.4597170" lon="-2.4414590">
        <ele>396.7</ele>
        <time>2020-01-12T12:57:23Z</time>
      </trkpt>
      <trkpt lat="42.4597480" lon="-2.4414050">
        <ele>397.0</ele>
        <time>2020-01-12T12:57:24Z</time>
      </trkpt>
      <trkpt lat="42.4597110" lon="-2.4413930">
        <ele>396.8</ele>
        <time>2020-01-12T12:57:25Z</time>
      </trkpt>
      <trkpt lat="42.4597290" lon="-2.4413630">
        <ele>396.9</ele>
        <time>2020-01-12T12:57:28Z</time>
      </trkpt>
      <trkpt lat="42.4597570" lon="-2.4413600">
        <ele>396.9</ele>
        <time>2020-01-12T12:57:30Z</time>
      </trkpt>
      <trkpt lat="42.4597590" lon="-2.4413230">
        <ele>396.9</ele>
        <time>2020-01-12T12:58:16Z</time>
      </trkpt>
      <trkpt lat="42.4597810" lon="-2.4412740">
        <ele>396.9</ele>
        <time>2020-01-12T12:58:19Z</time>
      </trkpt>
      <trkpt lat="42.4598140" lon="-2.4412530">
        <ele>396.9</ele>
        <time>2020-01-12T12:58:21Z</time>
      </trkpt>
      <trkpt lat="42.4598550" lon="-2.4412460">
        <ele>396.9</ele>
        <time>2020-01-12T12:58:22Z</time>
      </trkpt>
      <trkpt lat="42.4598840" lon="-2.4412350">
        <ele>396.9</ele>
        <time>2020-01-12T12:58:23Z</time>
      </trkpt>
      <trkpt lat="42.4599290" lon="-2.4412200">
        <ele>396.9</ele>
        <time>2020-01-12T12:58:24Z</time>
      </trkpt>
      <trkpt lat="42.4600010" lon="-2.4412110">
        <ele>396.9</ele>
        <time>2020-01-12T12:58:25Z</time>
      </trkpt>
      <trkpt lat="42.4600330" lon="-2.4411660">
        <ele>396.8</ele>
        <time>2020-01-12T12:58:26Z</time>
      </trkpt>
      <trkpt lat="42.4600610" lon="-2.4411430">
        <ele>396.8</ele>
        <time>2020-01-12T12:58:27Z</time>
      </trkpt>
      <trkpt lat="42.4601520" lon="-2.4411430">
        <ele>396.7</ele>
        <time>2020-01-12T12:58:28Z</time>
      </trkpt>
      <trkpt lat="42.4602420" lon="-2.4411370">
        <ele>396.7</ele>
        <time>2020-01-12T12:58:29Z</time>
      </trkpt>
      <trkpt lat="42.4602900" lon="-2.4411290">
        <ele>396.6</ele>
        <time>2020-01-12T12:58:30Z</time>
      </trkpt>
      <trkpt lat="42.4603560" lon="-2.4411220">
        <ele>396.5</ele>
        <time>2020-01-12T12:58:31Z</time>
      </trkpt>
      <trkpt lat="42.4604200" lon="-2.4410930">
        <ele>396.4</ele>
        <time>2020-01-12T12:58:32Z</time>
      </trkpt>
      <trkpt lat="42.4604690" lon="-2.4410690">
        <ele>396.3</ele>
        <time>2020-01-12T12:58:33Z</time>
      </trkpt>
      <trkpt lat="42.4605410" lon="-2.4410450">
        <ele>396.1</ele>
        <time>2020-01-12T12:58:34Z</time>
      </trkpt>
      <trkpt lat="42.4605910" lon="-2.4410220">
        <ele>395.9</ele>
        <time>2020-01-12T12:58:35Z</time>
      </trkpt>
      <trkpt lat="42.4606580" lon="-2.4409920">
        <ele>395.7</ele>
        <time>2020-01-12T12:58:37Z</time>
      </trkpt>
      <trkpt lat="42.4606980" lon="-2.4409540">
        <ele>395.7</ele>
        <time>2020-01-12T12:58:39Z</time>
      </trkpt>
      <trkpt lat="42.4607620" lon="-2.4409240">
        <ele>395.6</ele>
        <time>2020-01-12T12:58:40Z</time>
      </trkpt>
      <trkpt lat="42.4608030" lon="-2.4409120">
        <ele>395.5</ele>
        <time>2020-01-12T12:58:41Z</time>
      </trkpt>
      <trkpt lat="42.4608670" lon="-2.4408960">
        <ele>395.4</ele>
        <time>2020-01-12T12:58:42Z</time>
      </trkpt>
      <trkpt lat="42.4609380" lon="-2.4408750">
        <ele>395.4</ele>
        <time>2020-01-12T12:58:43Z</time>
      </trkpt>
      <trkpt lat="42.4609910" lon="-2.4408500">
        <ele>395.3</ele>
        <time>2020-01-12T12:58:44Z</time>
      </trkpt>
      <trkpt lat="42.4610320" lon="-2.4408080">
        <ele>395.3</ele>
        <time>2020-01-12T12:58:45Z</time>
      </trkpt>
      <trkpt lat="42.4610830" lon="-2.4407640">
        <ele>395.3</ele>
        <time>2020-01-12T12:58:46Z</time>
      </trkpt>
      <trkpt lat="42.4611220" lon="-2.4407360">
        <ele>395.3</ele>
        <time>2020-01-12T12:58:47Z</time>
      </trkpt>
      <trkpt lat="42.4611520" lon="-2.4407170">
        <ele>395.3</ele>
        <time>2020-01-12T12:58:48Z</time>
      </trkpt>
      <trkpt lat="42.4612070" lon="-2.4406950">
        <ele>395.3</ele>
        <time>2020-01-12T12:58:49Z</time>
      </trkpt>
      <trkpt lat="42.4612350" lon="-2.4406680">
        <ele>395.3</ele>
        <time>2020-01-12T12:58:50Z</time>
      </trkpt>
      <trkpt lat="42.4612820" lon="-2.4406430">
        <ele>395.3</ele>
        <time>2020-01-12T12:58:51Z</time>
      </trkpt>
      <trkpt lat="42.4613430" lon="-2.4406600">
        <ele>395.3</ele>
        <time>2020-01-12T12:58:52Z</time>
      </trkpt>
      <trkpt lat="42.4613780" lon="-2.4406210">
        <ele>395.2</ele>
        <time>2020-01-12T12:58:53Z</time>
      </trkpt>
      <trkpt lat="42.4614150" lon="-2.4406080">
        <ele>395.2</ele>
        <time>2020-01-12T12:58:54Z</time>
      </trkpt>
      <trkpt lat="42.4614720" lon="-2.4405630">
        <ele>395.1</ele>
        <time>2020-01-12T12:58:55Z</time>
      </trkpt>
      <trkpt lat="42.4615230" lon="-2.4405580">
        <ele>395.0</ele>
        <time>2020-01-12T12:58:56Z</time>
      </trkpt>
      <trkpt lat="42.4615570" lon="-2.4405530">
        <ele>395.0</ele>
        <time>2020-01-12T12:58:57Z</time>
      </trkpt>
      <trkpt lat="42.4615860" lon="-2.4405280">
        <ele>394.9</ele>
        <time>2020-01-12T12:58:58Z</time>
      </trkpt>
      <trkpt lat="42.4616560" lon="-2.4405540">
        <ele>394.4</ele>
        <time>2020-01-12T12:58:59Z</time>
      </trkpt>
      <trkpt lat="42.4616840" lon="-2.4406050">
        <ele>394.3</ele>
        <time>2020-01-12T12:59:00Z</time>
      </trkpt>
      <trkpt lat="42.4616500" lon="-2.4406060">
        <ele>394.2</ele>
        <time>2020-01-12T12:59:01Z</time>
      </trkpt>
      <trkpt lat="42.4616120" lon="-2.4405960">
        <ele>394.0</ele>
        <time>2020-01-12T12:59:06Z</time>
      </trkpt>
      <trkpt lat="42.4616530" lon="-2.4405340">
        <ele>393.9</ele>
        <time>2020-01-12T12:59:28Z</time>
      </trkpt>
      <trkpt lat="42.4616320" lon="-2.4404830">
        <ele>393.8</ele>
        <time>2020-01-12T12:59:30Z</time>
      </trkpt>
      <trkpt lat="42.4616230" lon="-2.4404340">
        <ele>393.7</ele>
        <time>2020-01-12T12:59:32Z</time>
      </trkpt>
      <trkpt lat="42.4616410" lon="-2.4403950">
        <ele>393.6</ele>
        <time>2020-01-12T12:59:34Z</time>
      </trkpt>
      <trkpt lat="42.4616610" lon="-2.4403700">
        <ele>393.5</ele>
        <time>2020-01-12T12:59:35Z</time>
      </trkpt>
      <trkpt lat="42.4617030" lon="-2.4403390">
        <ele>393.4</ele>
        <time>2020-01-12T12:59:37Z</time>
      </trkpt>
      <trkpt lat="42.4616970" lon="-2.4403010">
        <ele>393.3</ele>
        <time>2020-01-12T12:59:39Z</time>
      </trkpt>
      <trkpt lat="42.4616980" lon="-2.4402640">
        <ele>393.3</ele>
        <time>2020-01-12T12:59:42Z</time>
      </trkpt>
      <trkpt lat="42.4617300" lon="-2.4402440">
        <ele>393.2</ele>
        <time>2020-01-12T12:59:43Z</time>
      </trkpt>
      <trkpt lat="42.4617500" lon="-2.4402150">
        <ele>393.2</ele>
        <time>2020-01-12T12:59:44Z</time>
      </trkpt>
      <trkpt lat="42.4618520" lon="-2.4401240">
        <ele>393.0</ele>
        <time>2020-01-12T12:59:45Z</time>
      </trkpt>
      <trkpt lat="42.4620070" lon="-2.4400830">
        <ele>392.8</ele>
        <time>2020-01-12T12:59:46Z</time>
      </trkpt>
      <trkpt lat="42.4621520" lon="-2.4400180">
        <ele>392.7</ele>
        <time>2020-01-12T12:59:47Z</time>
      </trkpt>
      <trkpt lat="42.4622760" lon="-2.4399570">
        <ele>392.3</ele>
        <time>2020-01-12T12:59:48Z</time>
      </trkpt>
      <trkpt lat="42.4623610" lon="-2.4399520">
        <ele>392.0</ele>
        <time>2020-01-12T12:59:49Z</time>
      </trkpt>
      <trkpt lat="42.4624310" lon="-2.4399320">
        <ele>391.9</ele>
        <time>2020-01-12T12:59:50Z</time>
      </trkpt>
      <trkpt lat="42.4625560" lon="-2.4399190">
        <ele>391.5</ele>
        <time>2020-01-12T12:59:51Z</time>
      </trkpt>
      <trkpt lat="42.4627590" lon="-2.4398340">
        <ele>391.1</ele>
        <time>2020-01-12T12:59:52Z</time>
      </trkpt>
      <trkpt lat="42.4628990" lon="-2.4398090">
        <ele>391.0</ele>
        <time>2020-01-12T12:59:53Z</time>
      </trkpt>
      <trkpt lat="42.4630170" lon="-2.4397960">
        <ele>390.9</ele>
        <time>2020-01-12T12:59:54Z</time>
      </trkpt>
      <trkpt lat="42.4631390" lon="-2.4397730">
        <ele>390.8</ele>
        <time>2020-01-12T12:59:55Z</time>
      </trkpt>
      <trkpt lat="42.4632310" lon="-2.4397480">
        <ele>390.8</ele>
        <time>2020-01-12T12:59:56Z</time>
      </trkpt>
      <trkpt lat="42.4632920" lon="-2.4397280">
        <ele>390.8</ele>
        <time>2020-01-12T12:59:57Z</time>
      </trkpt>
      <trkpt lat="42.4633710" lon="-2.4397090">
        <ele>390.7</ele>
        <time>2020-01-12T12:59:58Z</time>
      </trkpt>
      <trkpt lat="42.4634170" lon="-2.4397020">
        <ele>390.6</ele>
        <time>2020-01-12T12:59:59Z</time>
      </trkpt>
      <trkpt lat="42.4634700" lon="-2.4396720">
        <ele>390.5</ele>
        <time>2020-01-12T13:00:00Z</time>
      </trkpt>
      <trkpt lat="42.4635210" lon="-2.4396610">
        <ele>390.5</ele>
        <time>2020-01-12T13:00:01Z</time>
      </trkpt>
      <trkpt lat="42.4635710" lon="-2.4396530">
        <ele>390.5</ele>
        <time>2020-01-12T13:00:02Z</time>
      </trkpt>
      <trkpt lat="42.4636480" lon="-2.4396180">
        <ele>390.5</ele>
        <time>2020-01-12T13:00:03Z</time>
      </trkpt>
      <trkpt lat="42.4637100" lon="-2.4396060">
        <ele>390.6</ele>
        <time>2020-01-12T13:00:04Z</time>
      </trkpt>
      <trkpt lat="42.4637370" lon="-2.4396130">
        <ele>390.6</ele>
        <time>2020-01-12T13:00:05Z</time>
      </trkpt>
      <trkpt lat="42.4638260" lon="-2.4395650">
        <ele>390.7</ele>
        <time>2020-01-12T13:00:06Z</time>
      </trkpt>
      <trkpt lat="42.4638790" lon="-2.4395400">
        <ele>390.9</ele>
        <time>2020-01-12T13:00:07Z</time>
      </trkpt>
      <trkpt lat="42.4639280" lon="-2.4395170">
        <ele>390.9</ele>
        <time>2020-01-12T13:00:08Z</time>
      </trkpt>
      <trkpt lat="42.4639590" lon="-2.4394670">
        <ele>390.9</ele>
        <time>2020-01-12T13:00:09Z</time>
      </trkpt>
      <trkpt lat="42.4640010" lon="-2.4394520">
        <ele>390.8</ele>
        <time>2020-01-12T13:00:10Z</time>
      </trkpt>
      <trkpt lat="42.4640580" lon="-2.4394400">
        <ele>390.8</ele>
        <time>2020-01-12T13:00:11Z</time>
      </trkpt>
      <trkpt lat="42.4641630" lon="-2.4394030">
        <ele>390.8</ele>
        <time>2020-01-12T13:00:12Z</time>
      </trkpt>
      <trkpt lat="42.4641910" lon="-2.4394100">
        <ele>390.8</ele>
        <time>2020-01-12T13:00:13Z</time>
      </trkpt>
      <trkpt lat="42.4642340" lon="-2.4393760">
        <ele>390.7</ele>
        <time>2020-01-12T13:00:14Z</time>
      </trkpt>
      <trkpt lat="42.4643290" lon="-2.4393180">
        <ele>390.6</ele>
        <time>2020-01-12T13:00:15Z</time>
      </trkpt>
      <trkpt lat="42.4644300" lon="-2.4393080">
        <ele>390.5</ele>
        <time>2020-01-12T13:00:16Z</time>
      </trkpt>
      <trkpt lat="42.4644850" lon="-2.4392920">
        <ele>390.5</ele>
        <time>2020-01-12T13:00:17Z</time>
      </trkpt>
      <trkpt lat="42.4645620" lon="-2.4392590">
        <ele>390.4</ele>
        <time>2020-01-12T13:00:18Z</time>
      </trkpt>
      <trkpt lat="42.4646280" lon="-2.4392280">
        <ele>390.3</ele>
        <time>2020-01-12T13:00:19Z</time>
      </trkpt>
      <trkpt lat="42.4646970" lon="-2.4391920">
        <ele>390.2</ele>
        <time>2020-01-12T13:00:20Z</time>
      </trkpt>
      <trkpt lat="42.4647620" lon="-2.4391260">
        <ele>390.1</ele>
        <time>2020-01-12T13:00:21Z</time>
      </trkpt>
      <trkpt lat="42.4648320" lon="-2.4390810">
        <ele>389.7</ele>
        <time>2020-01-12T13:00:22Z</time>
      </trkpt>
      <trkpt lat="42.4649060" lon="-2.4390570">
        <ele>389.5</ele>
        <time>2020-01-12T13:00:23Z</time>
      </trkpt>
      <trkpt lat="42.4649940" lon="-2.4390610">
        <ele>389.4</ele>
        <time>2020-01-12T13:00:24Z</time>
      </trkpt>
      <trkpt lat="42.4650320" lon="-2.4390530">
        <ele>389.3</ele>
        <time>2020-01-12T13:00:25Z</time>
      </trkpt>
      <trkpt lat="42.4649980" lon="-2.4390080">
        <ele>389.2</ele>
        <time>2020-01-12T13:00:26Z</time>
      </trkpt>
      <trkpt lat="42.4650460" lon="-2.4389800">
        <ele>389.2</ele>
        <time>2020-01-12T13:00:27Z</time>
      </trkpt>
      <trkpt lat="42.4650780" lon="-2.4389590">
        <ele>389.1</ele>
        <time>2020-01-12T13:00:28Z</time>
      </trkpt>
      <trkpt lat="42.4651310" lon="-2.4389330">
        <ele>388.9</ele>
        <time>2020-01-12T13:00:29Z</time>
      </trkpt>
      <trkpt lat="42.4651940" lon="-2.4389160">
        <ele>388.8</ele>
        <time>2020-01-12T13:00:30Z</time>
      </trkpt>
      <trkpt lat="42.4652770" lon="-2.4388950">
        <ele>388.4</ele>
        <time>2020-01-12T13:00:31Z</time>
      </trkpt>
      <trkpt lat="42.4653460" lon="-2.4388320">
        <ele>388.2</ele>
        <time>2020-01-12T13:00:32Z</time>
      </trkpt>
      <trkpt lat="42.4654280" lon="-2.4388110">
        <ele>387.9</ele>
        <time>2020-01-12T13:00:33Z</time>
      </trkpt>
      <trkpt lat="42.4654920" lon="-2.4387640">
        <ele>387.7</ele>
        <time>2020-01-12T13:00:34Z</time>
      </trkpt>
      <trkpt lat="42.4655880" lon="-2.4387360">
        <ele>387.4</ele>
        <time>2020-01-12T13:00:35Z</time>
      </trkpt>
      <trkpt lat="42.4656380" lon="-2.4387170">
        <ele>387.4</ele>
        <time>2020-01-12T13:00:36Z</time>
      </trkpt>
      <trkpt lat="42.4657080" lon="-2.4387000">
        <ele>387.3</ele>
        <time>2020-01-12T13:00:37Z</time>
      </trkpt>
      <trkpt lat="42.4657610" lon="-2.4386760">
        <ele>387.3</ele>
        <time>2020-01-12T13:00:38Z</time>
      </trkpt>
      <trkpt lat="42.4658300" lon="-2.4386530">
        <ele>387.4</ele>
        <time>2020-01-12T13:00:39Z</time>
      </trkpt>
      <trkpt lat="42.4658910" lon="-2.4386290">
        <ele>387.5</ele>
        <time>2020-01-12T13:00:40Z</time>
      </trkpt>
      <trkpt lat="42.4659380" lon="-2.4385970">
        <ele>387.6</ele>
        <time>2020-01-12T13:00:41Z</time>
      </trkpt>
      <trkpt lat="42.4660000" lon="-2.4385560">
        <ele>387.6</ele>
        <time>2020-01-12T13:00:42Z</time>
      </trkpt>
      <trkpt lat="42.4660800" lon="-2.4385270">
        <ele>387.6</ele>
        <time>2020-01-12T13:00:43Z</time>
      </trkpt>
      <trkpt lat="42.4661350" lon="-2.4385130">
        <ele>387.7</ele>
        <time>2020-01-12T13:00:44Z</time>
      </trkpt>
      <trkpt lat="42.4662140" lon="-2.4384870">
        <ele>387.8</ele>
        <time>2020-01-12T13:00:45Z</time>
      </trkpt>
      <trkpt lat="42.4662430" lon="-2.4384570">
        <ele>387.9</ele>
        <time>2020-01-12T13:00:46Z</time>
      </trkpt>
      <trkpt lat="42.4662920" lon="-2.4384290">
        <ele>388.0</ele>
        <time>2020-01-12T13:00:47Z</time>
      </trkpt>
      <trkpt lat="42.4663510" lon="-2.4384000">
        <ele>388.1</ele>
        <time>2020-01-12T13:00:48Z</time>
      </trkpt>
      <trkpt lat="42.4664160" lon="-2.4383750">
        <ele>388.2</ele>
        <time>2020-01-12T13:00:49Z</time>
      </trkpt>
      <trkpt lat="42.4664770" lon="-2.4383330">
        <ele>388.4</ele>
        <time>2020-01-12T13:00:50Z</time>
      </trkpt>
      <trkpt lat="42.4665610" lon="-2.4382820">
        <ele>388.5</ele>
        <time>2020-01-12T13:00:51Z</time>
      </trkpt>
      <trkpt lat="42.4666320" lon="-2.4382500">
        <ele>388.6</ele>
        <time>2020-01-12T13:00:52Z</time>
      </trkpt>
      <trkpt lat="42.4667020" lon="-2.4382250">
        <ele>388.6</ele>
        <time>2020-01-12T13:00:53Z</time>
      </trkpt>
      <trkpt lat="42.4667390" lon="-2.4382080">
        <ele>388.7</ele>
        <time>2020-01-12T13:00:54Z</time>
      </trkpt>
      <trkpt lat="42.4668250" lon="-2.4381760">
        <ele>388.7</ele>
        <time>2020-01-12T13:00:55Z</time>
      </trkpt>
      <trkpt lat="42.4669060" lon="-2.4381490">
        <ele>388.9</ele>
        <time>2020-01-12T13:00:56Z</time>
      </trkpt>
      <trkpt lat="42.4669810" lon="-2.4381120">
        <ele>388.9</ele>
        <time>2020-01-12T13:00:57Z</time>
      </trkpt>
      <trkpt lat="42.4670770" lon="-2.4380690">
        <ele>389.0</ele>
        <time>2020-01-12T13:00:58Z</time>
      </trkpt>
      <trkpt lat="42.4671590" lon="-2.4380540">
        <ele>389.1</ele>
        <time>2020-01-12T13:00:59Z</time>
      </trkpt>
      <trkpt lat="42.4672590" lon="-2.4380310">
        <ele>389.2</ele>
        <time>2020-01-12T13:01:00Z</time>
      </trkpt>
      <trkpt lat="42.4673570" lon="-2.4380030">
        <ele>389.3</ele>
        <time>2020-01-12T13:01:01Z</time>
      </trkpt>
      <trkpt lat="42.4674240" lon="-2.4379750">
        <ele>389.2</ele>
        <time>2020-01-12T13:01:02Z</time>
      </trkpt>
      <trkpt lat="42.4675250" lon="-2.4379120">
        <ele>389.0</ele>
        <time>2020-01-12T13:01:03Z</time>
      </trkpt>
      <trkpt lat="42.4675990" lon="-2.4378890">
        <ele>388.8</ele>
        <time>2020-01-12T13:01:04Z</time>
      </trkpt>
      <trkpt lat="42.4676810" lon="-2.4378850">
        <ele>388.6</ele>
        <time>2020-01-12T13:01:05Z</time>
      </trkpt>
      <trkpt lat="42.4677300" lon="-2.4378610">
        <ele>388.5</ele>
        <time>2020-01-12T13:01:06Z</time>
      </trkpt>
      <trkpt lat="42.4678120" lon="-2.4378440">
        <ele>388.3</ele>
        <time>2020-01-12T13:01:07Z</time>
      </trkpt>
      <trkpt lat="42.4679240" lon="-2.4378090">
        <ele>388.0</ele>
        <time>2020-01-12T13:01:08Z</time>
      </trkpt>
      <trkpt lat="42.4680700" lon="-2.4378050">
        <ele>387.6</ele>
        <time>2020-01-12T13:01:09Z</time>
      </trkpt>
      <trkpt lat="42.4681500" lon="-2.4377690">
        <ele>387.4</ele>
        <time>2020-01-12T13:01:10Z</time>
      </trkpt>
      <trkpt lat="42.4681210" lon="-2.4377580">
        <ele>387.4</ele>
        <time>2020-01-12T13:01:11Z</time>
      </trkpt>
      <trkpt lat="42.4681560" lon="-2.4377150">
        <ele>387.3</ele>
        <time>2020-01-12T13:01:13Z</time>
      </trkpt>
      <trkpt lat="42.4682150" lon="-2.4376610">
        <ele>387.0</ele>
        <time>2020-01-12T13:01:14Z</time>
      </trkpt>
      <trkpt lat="42.4682830" lon="-2.4376500">
        <ele>386.8</ele>
        <time>2020-01-12T13:01:15Z</time>
      </trkpt>
      <trkpt lat="42.4683460" lon="-2.4376610">
        <ele>386.5</ele>
        <time>2020-01-12T13:01:16Z</time>
      </trkpt>
      <trkpt lat="42.4684090" lon="-2.4376330">
        <ele>386.2</ele>
        <time>2020-01-12T13:01:17Z</time>
      </trkpt>
      <trkpt lat="42.4684750" lon="-2.4375800">
        <ele>385.4</ele>
        <time>2020-01-12T13:01:19Z</time>
      </trkpt>
      <trkpt lat="42.4685260" lon="-2.4375380">
        <ele>385.4</ele>
        <time>2020-01-12T13:01:20Z</time>
      </trkpt>
      <trkpt lat="42.4685770" lon="-2.4374810">
        <ele>385.4</ele>
        <time>2020-01-12T13:01:21Z</time>
      </trkpt>
      <trkpt lat="42.4686080" lon="-2.4374260">
        <ele>385.4</ele>
        <time>2020-01-12T13:01:22Z</time>
      </trkpt>
      <trkpt lat="42.4686640" lon="-2.4374280">
        <ele>385.3</ele>
        <time>2020-01-12T13:01:23Z</time>
      </trkpt>
      <trkpt lat="42.4686510" lon="-2.4374720">
        <ele>385.3</ele>
        <time>2020-01-12T13:01:25Z</time>
      </trkpt>
      <trkpt lat="42.4686240" lon="-2.4375080">
        <ele>385.3</ele>
        <time>2020-01-12T13:01:26Z</time>
      </trkpt>
      <trkpt lat="42.4686000" lon="-2.4375520">
        <ele>385.3</ele>
        <time>2020-01-12T13:01:30Z</time>
      </trkpt>
      <trkpt lat="42.4685970" lon="-2.4375060">
        <ele>385.3</ele>
        <time>2020-01-12T13:01:31Z</time>
      </trkpt>
      <trkpt lat="42.4685710" lon="-2.4374700">
        <ele>385.3</ele>
        <time>2020-01-12T13:01:33Z</time>
      </trkpt>
      <trkpt lat="42.4685810" lon="-2.4374120">
        <ele>385.3</ele>
        <time>2020-01-12T13:02:09Z</time>
      </trkpt>
      <trkpt lat="42.4686120" lon="-2.4374190">
        <ele>385.3</ele>
        <time>2020-01-12T13:02:10Z</time>
      </trkpt>
      <trkpt lat="42.4686440" lon="-2.4374040">
        <ele>385.3</ele>
        <time>2020-01-12T13:02:12Z</time>
      </trkpt>
      <trkpt lat="42.4686820" lon="-2.4373710">
        <ele>385.3</ele>
        <time>2020-01-12T13:02:15Z</time>
      </trkpt>
      <trkpt lat="42.4686490" lon="-2.4373250">
        <ele>385.3</ele>
        <time>2020-01-12T13:02:17Z</time>
      </trkpt>
      <trkpt lat="42.4686170" lon="-2.4371890">
        <ele>385.3</ele>
        <time>2020-01-12T13:02:20Z</time>
      </trkpt>
      <trkpt lat="42.4690740" lon="-2.4373040">
        <ele>385.6</ele>
        <time>2020-02-01T10:29:26Z</time>
      </trkpt>
      <trkpt lat="42.4688150" lon="-2.4373030">
        <ele>385.4</ele>
        <time>2020-02-01T10:29:27Z</time>
      </trkpt>
      <trkpt lat="42.4686770" lon="-2.4374280">
        <ele>385.4</ele>
        <time>2020-02-01T10:29:28Z</time>
      </trkpt>
      <trkpt lat="42.4686430" lon="-2.4374460">
        <ele>385.4</ele>
        <time>2020-02-01T10:29:29Z</time>
      </trkpt>
      <trkpt lat="42.4686300" lon="-2.4373920">
        <ele>385.3</ele>
        <time>2020-02-01T10:29:30Z</time>
      </trkpt>
      <trkpt lat="42.4686590" lon="-2.4372160">
        <ele>385.3</ele>
        <time>2020-02-01T10:29:31Z</time>
      </trkpt>
      <trkpt lat="42.4686020" lon="-2.4373360">
        <ele>385.3</ele>
        <time>2020-02-01T10:29:32Z</time>
      </trkpt>
      <trkpt lat="42.4684830" lon="-2.4375110">
        <ele>385.6</ele>
        <time>2020-02-01T10:29:33Z</time>
      </trkpt>
      <trkpt lat="42.4682710" lon="-2.4375860">
        <ele>386.3</ele>
        <time>2020-02-01T10:29:34Z</time>
      </trkpt>
      <trkpt lat="42.4682210" lon="-2.4375420">
        <ele>386.5</ele>
        <time>2020-02-01T10:29:35Z</time>
      </trkpt>
      <trkpt lat="42.4681470" lon="-2.4374830">
        <ele>386.7</ele>
        <time>2020-02-01T10:29:36Z</time>
      </trkpt>
      <trkpt lat="42.4681010" lon="-2.4374880">
        <ele>386.8</ele>
        <time>2020-02-01T10:29:37Z</time>
      </trkpt>
      <trkpt lat="42.4680830" lon="-2.4373560">
        <ele>387.0</ele>
        <time>2020-02-01T10:29:39Z</time>
      </trkpt>
      <trkpt lat="42.4681170" lon="-2.4374990">
        <ele>387.3</ele>
        <time>2020-02-01T10:29:41Z</time>
      </trkpt>
      <trkpt lat="42.4682110" lon="-2.4379060">
        <ele>387.7</ele>
        <time>2020-02-01T10:29:43Z</time>
      </trkpt>
      <trkpt lat="42.4680060" lon="-2.4378440">
        <ele>388.4</ele>
        <time>2020-02-01T10:29:44Z</time>
      </trkpt>
      <trkpt lat="42.4679790" lon="-2.4378210">
        <ele>388.5</ele>
        <time>2020-02-01T10:29:45Z</time>
      </trkpt>
      <trkpt lat="42.4677870" lon="-2.4376190">
        <ele>388.9</ele>
        <time>2020-02-01T10:29:47Z</time>
      </trkpt>
      <trkpt lat="42.4675040" lon="-2.4375770">
        <ele>390.0</ele>
        <time>2020-02-01T10:29:49Z</time>
      </trkpt>
      <trkpt lat="42.4674590" lon="-2.4374510">
        <ele>389.8</ele>
        <time>2020-02-01T10:29:51Z</time>
      </trkpt>
      <trkpt lat="42.4674780" lon="-2.4375350">
        <ele>389.9</ele>
        <time>2020-02-01T10:29:52Z</time>
      </trkpt>
      <trkpt lat="42.4674260" lon="-2.4375720">
        <ele>390.1</ele>
        <time>2020-02-01T10:29:54Z</time>
      </trkpt>
      <trkpt lat="42.4673720" lon="-2.4375760">
        <ele>390.2</ele>
        <time>2020-02-01T10:29:56Z</time>
      </trkpt>
      <trkpt lat="42.4673830" lon="-2.4376660">
        <ele>390.1</ele>
        <time>2020-02-01T10:29:58Z</time>
      </trkpt>
      <trkpt lat="42.4674170" lon="-2.4377110">
        <ele>390.0</ele>
        <time>2020-02-01T10:30:00Z</time>
      </trkpt>
      <trkpt lat="42.4669690" lon="-2.4377070">
        <ele>390.1</ele>
        <time>2020-02-01T10:30:32Z</time>
      </trkpt>
      <trkpt lat="42.4667730" lon="-2.4376770">
        <ele>389.8</ele>
        <time>2020-02-01T10:30:34Z</time>
      </trkpt>
      <trkpt lat="42.4667330" lon="-2.4376840">
        <ele>389.7</ele>
        <time>2020-02-01T10:30:35Z</time>
      </trkpt>
      <trkpt lat="42.4661080" lon="-2.4375780">
        <ele>388.2</ele>
        <time>2020-02-01T10:30:38Z</time>
      </trkpt>
      <trkpt lat="42.4650870" lon="-2.4385460">
        <ele>390.6</ele>
        <time>2020-02-01T10:30:41Z</time>
      </trkpt>
      <trkpt lat="42.4653500" lon="-2.4379130">
        <ele>389.2</ele>
        <time>2020-02-01T10:30:44Z</time>
      </trkpt>
      <trkpt lat="42.4636840" lon="-2.4396070">
        <ele>390.6</ele>
        <time>2020-02-01T10:31:09Z</time>
      </trkpt>
      <trkpt lat="42.4636400" lon="-2.4396420">
        <ele>390.5</ele>
        <time>2020-02-01T10:31:10Z</time>
      </trkpt>
      <trkpt lat="42.4635900" lon="-2.4396840">
        <ele>390.5</ele>
        <time>2020-02-01T10:31:11Z</time>
      </trkpt>
      <trkpt lat="42.4635790" lon="-2.4396080">
        <ele>390.5</ele>
        <time>2020-02-01T10:31:12Z</time>
      </trkpt>
      <trkpt lat="42.4634870" lon="-2.4396260">
        <ele>390.5</ele>
        <time>2020-02-01T10:31:13Z</time>
      </trkpt>
      <trkpt lat="42.4634310" lon="-2.4396560">
        <ele>390.6</ele>
        <time>2020-02-01T10:31:14Z</time>
      </trkpt>
      <trkpt lat="42.4633280" lon="-2.4396340">
        <ele>390.7</ele>
        <time>2020-02-01T10:31:15Z</time>
      </trkpt>
      <trkpt lat="42.4632740" lon="-2.4396570">
        <ele>390.8</ele>
        <time>2020-02-01T10:31:16Z</time>
      </trkpt>
      <trkpt lat="42.4631940" lon="-2.4397090">
        <ele>390.8</ele>
        <time>2020-02-01T10:31:17Z</time>
      </trkpt>
      <trkpt lat="42.4631430" lon="-2.4397060">
        <ele>390.8</ele>
        <time>2020-02-01T10:31:18Z</time>
      </trkpt>
      <trkpt lat="42.4630850" lon="-2.4397220">
        <ele>390.8</ele>
        <time>2020-02-01T10:31:19Z</time>
      </trkpt>
      <trkpt lat="42.4630320" lon="-2.4397420">
        <ele>390.8</ele>
        <time>2020-02-01T10:31:20Z</time>
      </trkpt>
      <trkpt lat="42.4629980" lon="-2.4398060">
        <ele>390.9</ele>
        <time>2020-02-01T10:31:21Z</time>
      </trkpt>
      <trkpt lat="42.4629470" lon="-2.4398450">
        <ele>390.9</ele>
        <time>2020-02-01T10:31:22Z</time>
      </trkpt>
      <trkpt lat="42.4628640" lon="-2.4398760">
        <ele>391.0</ele>
        <time>2020-02-01T10:31:23Z</time>
      </trkpt>
      <trkpt lat="42.4628070" lon="-2.4399130">
        <ele>391.1</ele>
        <time>2020-02-01T10:31:24Z</time>
      </trkpt>
      <trkpt lat="42.4627500" lon="-2.4399510">
        <ele>391.2</ele>
        <time>2020-02-01T10:31:25Z</time>
      </trkpt>
      <trkpt lat="42.4626850" lon="-2.4399650">
        <ele>391.2</ele>
        <time>2020-02-01T10:31:26Z</time>
      </trkpt>
      <trkpt lat="42.4626410" lon="-2.4400430">
        <ele>391.4</ele>
        <time>2020-02-01T10:31:27Z</time>
      </trkpt>
      <trkpt lat="42.4625890" lon="-2.4400860">
        <ele>391.5</ele>
        <time>2020-02-01T10:31:28Z</time>
      </trkpt>
      <trkpt lat="42.4625360" lon="-2.4401290">
        <ele>391.7</ele>
        <time>2020-02-01T10:31:29Z</time>
      </trkpt>
      <trkpt lat="42.4624850" lon="-2.4401720">
        <ele>391.8</ele>
        <time>2020-02-01T10:31:30Z</time>
      </trkpt>
      <trkpt lat="42.4624320" lon="-2.4402150">
        <ele>391.9</ele>
        <time>2020-02-01T10:31:31Z</time>
      </trkpt>
      <trkpt lat="42.4623510" lon="-2.4401720">
        <ele>392.1</ele>
        <time>2020-02-01T10:31:32Z</time>
      </trkpt>
      <trkpt lat="42.4622920" lon="-2.4402090">
        <ele>392.3</ele>
        <time>2020-02-01T10:31:33Z</time>
      </trkpt>
      <trkpt lat="42.4622330" lon="-2.4402520">
        <ele>392.5</ele>
        <time>2020-02-01T10:31:34Z</time>
      </trkpt>
      <trkpt lat="42.4621400" lon="-2.4402130">
        <ele>392.8</ele>
        <time>2020-02-01T10:31:35Z</time>
      </trkpt>
      <trkpt lat="42.4620760" lon="-2.4402420">
        <ele>392.9</ele>
        <time>2020-02-01T10:31:36Z</time>
      </trkpt>
      <trkpt lat="42.4618270" lon="-2.4403820">
        <ele>393.6</ele>
        <time>2020-02-01T10:31:38Z</time>
      </trkpt>
      <trkpt lat="42.4617140" lon="-2.4404190">
        <ele>394.2</ele>
        <time>2020-02-01T10:31:39Z</time>
      </trkpt>
      <trkpt lat="42.4616240" lon="-2.4404300">
        <ele>394.6</ele>
        <time>2020-02-01T10:31:40Z</time>
      </trkpt>
      <trkpt lat="42.4615720" lon="-2.4405000">
        <ele>394.8</ele>
        <time>2020-02-01T10:31:41Z</time>
      </trkpt>
      <trkpt lat="42.4614890" lon="-2.4405280">
        <ele>395.0</ele>
        <time>2020-02-01T10:31:42Z</time>
      </trkpt>
      <trkpt lat="42.4614590" lon="-2.4405370">
        <ele>395.1</ele>
        <time>2020-02-01T10:31:43Z</time>
      </trkpt>
      <trkpt lat="42.4614070" lon="-2.4405690">
        <ele>395.1</ele>
        <time>2020-02-01T10:31:44Z</time>
      </trkpt>
      <trkpt lat="42.4613560" lon="-2.4406060">
        <ele>395.2</ele>
        <time>2020-02-01T10:31:45Z</time>
      </trkpt>
      <trkpt lat="42.4613060" lon="-2.4406390">
        <ele>395.2</ele>
        <time>2020-02-01T10:31:46Z</time>
      </trkpt>
      <trkpt lat="42.4612660" lon="-2.4406680">
        <ele>395.2</ele>
        <time>2020-02-01T10:31:47Z</time>
      </trkpt>
      <trkpt lat="42.4612260" lon="-2.4407010">
        <ele>395.3</ele>
        <time>2020-02-01T10:31:48Z</time>
      </trkpt>
      <trkpt lat="42.4611660" lon="-2.4407140">
        <ele>395.3</ele>
        <time>2020-02-01T10:31:49Z</time>
      </trkpt>
      <trkpt lat="42.4611390" lon="-2.4407020">
        <ele>395.3</ele>
        <time>2020-02-01T10:31:51Z</time>
      </trkpt>
      <trkpt lat="42.4611210" lon="-2.4407900">
        <ele>395.3</ele>
        <time>2020-02-01T10:31:58Z</time>
      </trkpt>
      <trkpt lat="42.4611210" lon="-2.4408300">
        <ele>395.3</ele>
        <time>2020-02-01T10:31:59Z</time>
      </trkpt>
      <trkpt lat="42.4611510" lon="-2.4408670">
        <ele>395.3</ele>
        <time>2020-02-01T10:32:01Z</time>
      </trkpt>
      <trkpt lat="42.4611750" lon="-2.4408410">
        <ele>395.3</ele>
        <time>2020-02-01T10:32:08Z</time>
      </trkpt>
      <trkpt lat="42.4610970" lon="-2.4408210">
        <ele>395.3</ele>
        <time>2020-02-01T10:32:11Z</time>
      </trkpt>
      <trkpt lat="42.4611420" lon="-2.4408530">
        <ele>395.3</ele>
        <time>2020-02-01T10:32:12Z</time>
      </trkpt>
      <trkpt lat="42.4610760" lon="-2.4409090">
        <ele>395.3</ele>
        <time>2020-02-01T10:32:19Z</time>
      </trkpt>
      <trkpt lat="42.4610050" lon="-2.4410050">
        <ele>395.4</ele>
        <time>2020-02-01T10:32:44Z</time>
      </trkpt>
      <trkpt lat="42.4609330" lon="-2.4411020">
        <ele>395.4</ele>
        <time>2020-02-01T10:32:45Z</time>
      </trkpt>
      <trkpt lat="42.4608960" lon="-2.4411640">
        <ele>395.5</ele>
        <time>2020-02-01T10:32:46Z</time>
      </trkpt>
      <trkpt lat="42.4608550" lon="-2.4412180">
        <ele>395.6</ele>
        <time>2020-02-01T10:32:47Z</time>
      </trkpt>
      <trkpt lat="42.4608130" lon="-2.4412760">
        <ele>395.6</ele>
        <time>2020-02-01T10:32:48Z</time>
      </trkpt>
      <trkpt lat="42.4606770" lon="-2.4411140">
        <ele>396.0</ele>
        <time>2020-02-01T10:32:50Z</time>
      </trkpt>
      <trkpt lat="42.4606520" lon="-2.4411460">
        <ele>396.1</ele>
        <time>2020-02-01T10:32:51Z</time>
      </trkpt>
      <trkpt lat="42.4606210" lon="-2.4411660">
        <ele>396.2</ele>
        <time>2020-02-01T10:32:52Z</time>
      </trkpt>
      <trkpt lat="42.4601010" lon="-2.4411630">
        <ele>396.8</ele>
        <time>2020-02-01T10:32:55Z</time>
      </trkpt>
      <trkpt lat="42.4600560" lon="-2.4412140">
        <ele>396.8</ele>
        <time>2020-02-01T10:32:56Z</time>
      </trkpt>
      <trkpt lat="42.4600100" lon="-2.4412620">
        <ele>396.9</ele>
        <time>2020-02-01T10:32:57Z</time>
      </trkpt>
      <trkpt lat="42.4599430" lon="-2.4412490">
        <ele>396.9</ele>
        <time>2020-02-01T10:32:58Z</time>
      </trkpt>
      <trkpt lat="42.4598820" lon="-2.4412840">
        <ele>396.9</ele>
        <time>2020-02-01T10:32:59Z</time>
      </trkpt>
      <trkpt lat="42.4598340" lon="-2.4413130">
        <ele>396.9</ele>
        <time>2020-02-01T10:33:00Z</time>
      </trkpt>
      <trkpt lat="42.4597870" lon="-2.4413420">
        <ele>396.9</ele>
        <time>2020-02-01T10:33:01Z</time>
      </trkpt>
      <trkpt lat="42.4597390" lon="-2.4413730">
        <ele>396.9</ele>
        <time>2020-02-01T10:33:02Z</time>
      </trkpt>
      <trkpt lat="42.4596910" lon="-2.4414000">
        <ele>396.7</ele>
        <time>2020-02-01T10:33:03Z</time>
      </trkpt>
      <trkpt lat="42.4596420" lon="-2.4414320">
        <ele>396.5</ele>
        <time>2020-02-01T10:33:04Z</time>
      </trkpt>
      <trkpt lat="42.4595940" lon="-2.4414590">
        <ele>396.3</ele>
        <time>2020-02-01T10:33:05Z</time>
      </trkpt>
      <trkpt lat="42.4584670" lon="-2.4414700">
        <ele>393.6</ele>
        <time>2020-02-01T10:33:18Z</time>
      </trkpt>
      <trkpt lat="42.4584890" lon="-2.4415340">
        <ele>393.6</ele>
        <time>2020-02-01T10:33:20Z</time>
      </trkpt>
      <trkpt lat="42.4584570" lon="-2.4415400">
        <ele>393.6</ele>
        <time>2020-02-01T10:33:22Z</time>
      </trkpt>
      <trkpt lat="42.4583980" lon="-2.4415610">
        <ele>393.2</ele>
        <time>2020-02-01T10:33:24Z</time>
      </trkpt>
      <trkpt lat="42.4583600" lon="-2.4415880">
        <ele>392.9</ele>
        <time>2020-02-01T10:33:25Z</time>
      </trkpt>
      <trkpt lat="42.4581800" lon="-2.4418730">
        <ele>392.0</ele>
        <time>2020-02-01T10:33:32Z</time>
      </trkpt>
      <trkpt lat="42.4581710" lon="-2.4417780">
        <ele>391.8</ele>
        <time>2020-02-01T10:33:33Z</time>
      </trkpt>
      <trkpt lat="42.4581030" lon="-2.4417650">
        <ele>391.6</ele>
        <time>2020-02-01T10:33:36Z</time>
      </trkpt>
      <trkpt lat="42.4580380" lon="-2.4417420">
        <ele>391.3</ele>
        <time>2020-02-01T10:33:37Z</time>
      </trkpt>
      <trkpt lat="42.4580640" lon="-2.4417160">
        <ele>391.4</ele>
        <time>2020-02-01T10:33:38Z</time>
      </trkpt>
      <trkpt lat="42.4580080" lon="-2.4417260">
        <ele>391.2</ele>
        <time>2020-02-01T10:33:39Z</time>
      </trkpt>
      <trkpt lat="42.4579440" lon="-2.4417130">
        <ele>390.9</ele>
        <time>2020-02-01T10:33:40Z</time>
      </trkpt>
      <trkpt lat="42.4578940" lon="-2.4417520">
        <ele>390.7</ele>
        <time>2020-02-01T10:33:41Z</time>
      </trkpt>
      <trkpt lat="42.4578240" lon="-2.4417440">
        <ele>390.5</ele>
        <time>2020-02-01T10:33:42Z</time>
      </trkpt>
      <trkpt lat="42.4577770" lon="-2.4417420">
        <ele>390.4</ele>
        <time>2020-02-01T10:33:43Z</time>
      </trkpt>
      <trkpt lat="42.4577130" lon="-2.4417520">
        <ele>390.3</ele>
        <time>2020-02-01T10:33:44Z</time>
      </trkpt>
      <trkpt lat="42.4576540" lon="-2.4417470">
        <ele>390.2</ele>
        <time>2020-02-01T10:33:45Z</time>
      </trkpt>
      <trkpt lat="42.4576130" lon="-2.4417300">
        <ele>390.1</ele>
        <time>2020-02-01T10:33:46Z</time>
      </trkpt>
      <trkpt lat="42.4575720" lon="-2.4417080">
        <ele>390.0</ele>
        <time>2020-02-01T10:33:47Z</time>
      </trkpt>
      <trkpt lat="42.4575040" lon="-2.4417070">
        <ele>389.8</ele>
        <time>2020-02-01T10:33:49Z</time>
      </trkpt>
      <trkpt lat="42.4574400" lon="-2.4416870">
        <ele>389.3</ele>
        <time>2020-02-01T10:33:50Z</time>
      </trkpt>
      <trkpt lat="42.4573850" lon="-2.4416740">
        <ele>389.1</ele>
        <time>2020-02-01T10:33:51Z</time>
      </trkpt>
      <trkpt lat="42.4573270" lon="-2.4416700">
        <ele>389.0</ele>
        <time>2020-02-01T10:33:52Z</time>
      </trkpt>
      <trkpt lat="42.4572710" lon="-2.4416650">
        <ele>389.0</ele>
        <time>2020-02-01T10:33:53Z</time>
      </trkpt>
      <trkpt lat="42.4572110" lon="-2.4416520">
        <ele>389.1</ele>
        <time>2020-02-01T10:33:54Z</time>
      </trkpt>
      <trkpt lat="42.4571440" lon="-2.4416180">
        <ele>389.1</ele>
        <time>2020-02-01T10:33:55Z</time>
      </trkpt>
      <trkpt lat="42.4570830" lon="-2.4415940">
        <ele>389.1</ele>
        <time>2020-02-01T10:33:56Z</time>
      </trkpt>
      <trkpt lat="42.4570440" lon="-2.4415750">
        <ele>389.1</ele>
        <time>2020-02-01T10:33:57Z</time>
      </trkpt>
      <trkpt lat="42.4569880" lon="-2.4415700">
        <ele>389.2</ele>
        <time>2020-02-01T10:33:58Z</time>
      </trkpt>
      <trkpt lat="42.4569130" lon="-2.4415670">
        <ele>389.2</ele>
        <time>2020-02-01T10:33:59Z</time>
      </trkpt>
      <trkpt lat="42.4568360" lon="-2.4415620">
        <ele>389.2</ele>
        <time>2020-02-01T10:34:00Z</time>
      </trkpt>
      <trkpt lat="42.4567630" lon="-2.4415520">
        <ele>389.2</ele>
        <time>2020-02-01T10:34:01Z</time>
      </trkpt>
      <trkpt lat="42.4567140" lon="-2.4415360">
        <ele>389.3</ele>
        <time>2020-02-01T10:34:02Z</time>
      </trkpt>
      <trkpt lat="42.4566460" lon="-2.4415070">
        <ele>389.7</ele>
        <time>2020-02-01T10:34:03Z</time>
      </trkpt>
      <trkpt lat="42.4565960" lon="-2.4414840">
        <ele>389.7</ele>
        <time>2020-02-01T10:34:04Z</time>
      </trkpt>
      <trkpt lat="42.4565360" lon="-2.4414780">
        <ele>390.1</ele>
        <time>2020-02-01T10:34:05Z</time>
      </trkpt>
      <trkpt lat="42.4564680" lon="-2.4414630">
        <ele>390.3</ele>
        <time>2020-02-01T10:34:06Z</time>
      </trkpt>
      <trkpt lat="42.4564040" lon="-2.4414700">
        <ele>390.5</ele>
        <time>2020-02-01T10:34:07Z</time>
      </trkpt>
      <trkpt lat="42.4563390" lon="-2.4414860">
        <ele>390.6</ele>
        <time>2020-02-01T10:34:08Z</time>
      </trkpt>
      <trkpt lat="42.4562820" lon="-2.4414790">
        <ele>390.8</ele>
        <time>2020-02-01T10:34:09Z</time>
      </trkpt>
      <trkpt lat="42.4562270" lon="-2.4414810">
        <ele>390.9</ele>
        <time>2020-02-01T10:34:10Z</time>
      </trkpt>
      <trkpt lat="42.4561880" lon="-2.4414710">
        <ele>391.0</ele>
        <time>2020-02-01T10:34:11Z</time>
      </trkpt>
      <trkpt lat="42.4561560" lon="-2.4414530">
        <ele>391.1</ele>
        <time>2020-02-01T10:34:12Z</time>
      </trkpt>
      <trkpt lat="42.4561130" lon="-2.4414380">
        <ele>391.2</ele>
        <time>2020-02-01T10:34:13Z</time>
      </trkpt>
      <trkpt lat="42.4560780" lon="-2.4414040">
        <ele>391.3</ele>
        <time>2020-02-01T10:34:14Z</time>
      </trkpt>
      <trkpt lat="42.4560350" lon="-2.4414270">
        <ele>391.4</ele>
        <time>2020-02-01T10:34:15Z</time>
      </trkpt>
      <trkpt lat="42.4559860" lon="-2.4414510">
        <ele>391.5</ele>
        <time>2020-02-01T10:34:16Z</time>
      </trkpt>
      <trkpt lat="42.4559410" lon="-2.4414270">
        <ele>391.6</ele>
        <time>2020-02-01T10:34:17Z</time>
      </trkpt>
      <trkpt lat="42.4558720" lon="-2.4414160">
        <ele>391.7</ele>
        <time>2020-02-01T10:34:19Z</time>
      </trkpt>
      <trkpt lat="42.4558290" lon="-2.4414540">
        <ele>391.7</ele>
        <time>2020-02-01T10:34:20Z</time>
      </trkpt>
      <trkpt lat="42.4557830" lon="-2.4414830">
        <ele>391.7</ele>
        <time>2020-02-01T10:34:21Z</time>
      </trkpt>
      <trkpt lat="42.4557350" lon="-2.4415110">
        <ele>391.7</ele>
        <time>2020-02-01T10:34:22Z</time>
      </trkpt>
      <trkpt lat="42.4556960" lon="-2.4415410">
        <ele>391.7</ele>
        <time>2020-02-01T10:34:23Z</time>
      </trkpt>
      <trkpt lat="42.4556600" lon="-2.4415730">
        <ele>391.7</ele>
        <time>2020-02-01T10:34:24Z</time>
      </trkpt>
      <trkpt lat="42.4555980" lon="-2.4415750">
        <ele>391.7</ele>
        <time>2020-02-01T10:34:25Z</time>
      </trkpt>
      <trkpt lat="42.4555580" lon="-2.4415490">
        <ele>391.7</ele>
        <time>2020-02-01T10:34:26Z</time>
      </trkpt>
      <trkpt lat="42.4555290" lon="-2.4414980">
        <ele>391.7</ele>
        <time>2020-02-01T10:34:27Z</time>
      </trkpt>
      <trkpt lat="42.4554800" lon="-2.4414610">
        <ele>391.7</ele>
        <time>2020-02-01T10:34:28Z</time>
      </trkpt>
      <trkpt lat="42.4554330" lon="-2.4414080">
        <ele>391.7</ele>
        <time>2020-02-01T10:34:29Z</time>
      </trkpt>
      <trkpt lat="42.4553780" lon="-2.4413860">
        <ele>391.6</ele>
        <time>2020-02-01T10:34:30Z</time>
      </trkpt>
      <trkpt lat="42.4553310" lon="-2.4413610">
        <ele>391.6</ele>
        <time>2020-02-01T10:34:31Z</time>
      </trkpt>
      <trkpt lat="42.4552870" lon="-2.4413270">
        <ele>391.5</ele>
        <time>2020-02-01T10:34:32Z</time>
      </trkpt>
      <trkpt lat="42.4552040" lon="-2.4413670">
        <ele>391.6</ele>
        <time>2020-02-01T10:34:33Z</time>
      </trkpt>
      <trkpt lat="42.4551500" lon="-2.4413770">
        <ele>391.7</ele>
        <time>2020-02-01T10:34:34Z</time>
      </trkpt>
      <trkpt lat="42.4551100" lon="-2.4413590">
        <ele>391.8</ele>
        <time>2020-02-01T10:34:35Z</time>
      </trkpt>
      <trkpt lat="42.4550500" lon="-2.4413670">
        <ele>391.9</ele>
        <time>2020-02-01T10:34:36Z</time>
      </trkpt>
      <trkpt lat="42.4550010" lon="-2.4413470">
        <ele>392.1</ele>
        <time>2020-02-01T10:34:37Z</time>
      </trkpt>
      <trkpt lat="42.4549410" lon="-2.4413330">
        <ele>392.2</ele>
        <time>2020-02-01T10:34:38Z</time>
      </trkpt>
      <trkpt lat="42.4549000" lon="-2.4413140">
        <ele>392.3</ele>
        <time>2020-02-01T10:34:39Z</time>
      </trkpt>
      <trkpt lat="42.4548520" lon="-2.4413090">
        <ele>392.3</ele>
        <time>2020-02-01T10:34:40Z</time>
      </trkpt>
      <trkpt lat="42.4548170" lon="-2.4412850">
        <ele>392.4</ele>
        <time>2020-02-01T10:34:41Z</time>
      </trkpt>
      <trkpt lat="42.4547480" lon="-2.4412830">
        <ele>392.4</ele>
        <time>2020-02-01T10:34:42Z</time>
      </trkpt>
      <trkpt lat="42.4546890" lon="-2.4412690">
        <ele>392.5</ele>
        <time>2020-02-01T10:34:43Z</time>
      </trkpt>
      <trkpt lat="42.4546660" lon="-2.4412380">
        <ele>392.5</ele>
        <time>2020-02-01T10:34:44Z</time>
      </trkpt>
      <trkpt lat="42.4546180" lon="-2.4412150">
        <ele>392.6</ele>
        <time>2020-02-01T10:34:45Z</time>
      </trkpt>
      <trkpt lat="42.4545620" lon="-2.4412390">
        <ele>392.6</ele>
        <time>2020-02-01T10:34:46Z</time>
      </trkpt>
      <trkpt lat="42.4545040" lon="-2.4412150">
        <ele>392.7</ele>
        <time>2020-02-01T10:34:47Z</time>
      </trkpt>
      <trkpt lat="42.4544450" lon="-2.4412010">
        <ele>392.8</ele>
        <time>2020-02-01T10:34:48Z</time>
      </trkpt>
      <trkpt lat="42.4544010" lon="-2.4411840">
        <ele>392.9</ele>
        <time>2020-02-01T10:34:49Z</time>
      </trkpt>
      <trkpt lat="42.4543550" lon="-2.4411890">
        <ele>393.0</ele>
        <time>2020-02-01T10:34:50Z</time>
      </trkpt>
      <trkpt lat="42.4542690" lon="-2.4412130">
        <ele>393.2</ele>
        <time>2020-02-01T10:34:51Z</time>
      </trkpt>
      <trkpt lat="42.4542040" lon="-2.4412610">
        <ele>393.4</ele>
        <time>2020-02-01T10:34:52Z</time>
      </trkpt>
      <trkpt lat="42.4541590" lon="-2.4412890">
        <ele>393.5</ele>
        <time>2020-02-01T10:34:53Z</time>
      </trkpt>
      <trkpt lat="42.4541060" lon="-2.4413310">
        <ele>393.4</ele>
        <time>2020-02-01T10:34:54Z</time>
      </trkpt>
      <trkpt lat="42.4540540" lon="-2.4413400">
        <ele>393.4</ele>
        <time>2020-02-01T10:34:55Z</time>
      </trkpt>
      <trkpt lat="42.4539930" lon="-2.4413460">
        <ele>393.4</ele>
        <time>2020-02-01T10:34:56Z</time>
      </trkpt>
      <trkpt lat="42.4539100" lon="-2.4413100">
        <ele>393.4</ele>
        <time>2020-02-01T10:34:57Z</time>
      </trkpt>
      <trkpt lat="42.4538620" lon="-2.4412890">
        <ele>393.4</ele>
        <time>2020-02-01T10:34:58Z</time>
      </trkpt>
      <trkpt lat="42.4538130" lon="-2.4412330">
        <ele>393.5</ele>
        <time>2020-02-01T10:34:59Z</time>
      </trkpt>
      <trkpt lat="42.4537560" lon="-2.4411950">
        <ele>393.4</ele>
        <time>2020-02-01T10:35:00Z</time>
      </trkpt>
      <trkpt lat="42.4536940" lon="-2.4411630">
        <ele>393.3</ele>
        <time>2020-02-01T10:35:01Z</time>
      </trkpt>
      <trkpt lat="42.4536410" lon="-2.4411330">
        <ele>393.1</ele>
        <time>2020-02-01T10:35:02Z</time>
      </trkpt>
      <trkpt lat="42.4535850" lon="-2.4411010">
        <ele>393.0</ele>
        <time>2020-02-01T10:35:03Z</time>
      </trkpt>
      <trkpt lat="42.4535150" lon="-2.4411100">
        <ele>392.8</ele>
        <time>2020-02-01T10:35:04Z</time>
      </trkpt>
      <trkpt lat="42.4534440" lon="-2.4411340">
        <ele>392.7</ele>
        <time>2020-02-01T10:35:05Z</time>
      </trkpt>
      <trkpt lat="42.4533690" lon="-2.4411800">
        <ele>392.5</ele>
        <time>2020-02-01T10:35:06Z</time>
      </trkpt>
      <trkpt lat="42.4533250" lon="-2.4412070">
        <ele>392.4</ele>
        <time>2020-02-01T10:35:07Z</time>
      </trkpt>
      <trkpt lat="42.4532680" lon="-2.4412330">
        <ele>392.3</ele>
        <time>2020-02-01T10:35:08Z</time>
      </trkpt>
      <trkpt lat="42.4532290" lon="-2.4412840">
        <ele>392.2</ele>
        <time>2020-02-01T10:35:09Z</time>
      </trkpt>
      <trkpt lat="42.4531640" lon="-2.4413430">
        <ele>392.2</ele>
        <time>2020-02-01T10:35:10Z</time>
      </trkpt>
      <trkpt lat="42.4531030" lon="-2.4413730">
        <ele>392.1</ele>
        <time>2020-02-01T10:35:11Z</time>
      </trkpt>
      <trkpt lat="42.4530600" lon="-2.4414010">
        <ele>392.1</ele>
        <time>2020-02-01T10:35:12Z</time>
      </trkpt>
      <trkpt lat="42.4530270" lon="-2.4413650">
        <ele>392.1</ele>
        <time>2020-02-01T10:35:13Z</time>
      </trkpt>
      <trkpt lat="42.4529880" lon="-2.4413170">
        <ele>392.1</ele>
        <time>2020-02-01T10:35:14Z</time>
      </trkpt>
      <trkpt lat="42.4529510" lon="-2.4412320">
        <ele>392.0</ele>
        <time>2020-02-01T10:35:15Z</time>
      </trkpt>
      <trkpt lat="42.4529100" lon="-2.4411890">
        <ele>392.0</ele>
        <time>2020-02-01T10:35:16Z</time>
      </trkpt>
      <trkpt lat="42.4528560" lon="-2.4410780">
        <ele>392.0</ele>
        <time>2020-02-01T10:35:18Z</time>
      </trkpt>
      <trkpt lat="42.4528830" lon="-2.4409930">
        <ele>392.0</ele>
        <time>2020-02-01T10:35:19Z</time>
      </trkpt>
      <trkpt lat="42.4529100" lon="-2.4408900">
        <ele>392.0</ele>
        <time>2020-02-01T10:35:20Z</time>
      </trkpt>
      <trkpt lat="42.4529080" lon="-2.4407830">
        <ele>392.0</ele>
        <time>2020-02-01T10:35:21Z</time>
      </trkpt>
      <trkpt lat="42.4530250" lon="-2.4407360">
        <ele>392.1</ele>
        <time>2020-02-01T10:35:22Z</time>
      </trkpt>
      <trkpt lat="42.4530730" lon="-2.4407040">
        <ele>392.1</ele>
        <time>2020-02-01T10:35:23Z</time>
      </trkpt>
      <trkpt lat="42.4531130" lon="-2.4406370">
        <ele>392.2</ele>
        <time>2020-02-01T10:35:24Z</time>
      </trkpt>
      <trkpt lat="42.4531620" lon="-2.4405620">
        <ele>392.2</ele>
        <time>2020-02-01T10:35:25Z</time>
      </trkpt>
      <trkpt lat="42.4532250" lon="-2.4405030">
        <ele>392.2</ele>
        <time>2020-02-01T10:35:26Z</time>
      </trkpt>
      <trkpt lat="42.4532530" lon="-2.4404580">
        <ele>392.2</ele>
        <time>2020-02-01T10:35:27Z</time>
      </trkpt>
      <trkpt lat="42.4532770" lon="-2.4403630">
        <ele>392.2</ele>
        <time>2020-02-01T10:35:28Z</time>
      </trkpt>
      <trkpt lat="42.4533470" lon="-2.4403110">
        <ele>392.2</ele>
        <time>2020-02-01T10:35:29Z</time>
      </trkpt>
      <trkpt lat="42.4534290" lon="-2.4402460">
        <ele>392.2</ele>
        <time>2020-02-01T10:35:30Z</time>
      </trkpt>
      <trkpt lat="42.4535190" lon="-2.4401890">
        <ele>392.2</ele>
        <time>2020-02-01T10:35:31Z</time>
      </trkpt>
      <trkpt lat="42.4535720" lon="-2.4401220">
        <ele>392.2</ele>
        <time>2020-02-01T10:35:32Z</time>
      </trkpt>
      <trkpt lat="42.4536450" lon="-2.4400580">
        <ele>392.2</ele>
        <time>2020-02-01T10:35:33Z</time>
      </trkpt>
      <trkpt lat="42.4536370" lon="-2.4399680">
        <ele>392.2</ele>
        <time>2020-02-01T10:35:34Z</time>
      </trkpt>
      <trkpt lat="42.4535890" lon="-2.4398620">
        <ele>392.1</ele>
        <time>2020-02-01T10:35:35Z</time>
      </trkpt>
      <trkpt lat="42.4536220" lon="-2.4397940">
        <ele>391.9</ele>
        <time>2020-02-01T10:35:36Z</time>
      </trkpt>
      <trkpt lat="42.4536730" lon="-2.4397480">
        <ele>391.8</ele>
        <time>2020-02-01T10:35:37Z</time>
      </trkpt>
      <trkpt lat="42.4536240" lon="-2.4396160">
        <ele>391.6</ele>
        <time>2020-02-01T10:35:38Z</time>
      </trkpt>
      <trkpt lat="42.4536620" lon="-2.4395630">
        <ele>391.5</ele>
        <time>2020-02-01T10:35:39Z</time>
      </trkpt>
      <trkpt lat="42.4536590" lon="-2.4394540">
        <ele>391.5</ele>
        <time>2020-02-01T10:35:40Z</time>
      </trkpt>
      <trkpt lat="42.4536050" lon="-2.4392850">
        <ele>391.4</ele>
        <time>2020-02-01T10:35:41Z</time>
      </trkpt>
      <trkpt lat="42.4536210" lon="-2.4391930">
        <ele>391.4</ele>
        <time>2020-02-01T10:35:42Z</time>
      </trkpt>
      <trkpt lat="42.4536110" lon="-2.4391320">
        <ele>391.4</ele>
        <time>2020-02-01T10:35:43Z</time>
      </trkpt>
      <trkpt lat="42.4536040" lon="-2.4390700">
        <ele>391.4</ele>
        <time>2020-02-01T10:35:44Z</time>
      </trkpt>
      <trkpt lat="42.4536000" lon="-2.4389850">
        <ele>391.3</ele>
        <time>2020-02-01T10:35:45Z</time>
      </trkpt>
      <trkpt lat="42.4535920" lon="-2.4388650">
        <ele>391.2</ele>
        <time>2020-02-01T10:35:46Z</time>
      </trkpt>
      <trkpt lat="42.4536050" lon="-2.4387980">
        <ele>391.1</ele>
        <time>2020-02-01T10:35:47Z</time>
      </trkpt>
      <trkpt lat="42.4536200" lon="-2.4387340">
        <ele>391.0</ele>
        <time>2020-02-01T10:35:48Z</time>
      </trkpt>
      <trkpt lat="42.4536330" lon="-2.4386770">
        <ele>390.9</ele>
        <time>2020-02-01T10:35:49Z</time>
      </trkpt>
      <trkpt lat="42.4536290" lon="-2.4386000">
        <ele>390.8</ele>
        <time>2020-02-01T10:35:50Z</time>
      </trkpt>
      <trkpt lat="42.4536300" lon="-2.4385300">
        <ele>390.6</ele>
        <time>2020-02-01T10:35:51Z</time>
      </trkpt>
      <trkpt lat="42.4536060" lon="-2.4384820">
        <ele>390.5</ele>
        <time>2020-02-01T10:35:52Z</time>
      </trkpt>
      <trkpt lat="42.4535830" lon="-2.4384390">
        <ele>390.4</ele>
        <time>2020-02-01T10:35:53Z</time>
      </trkpt>
      <trkpt lat="42.4535490" lon="-2.4383820">
        <ele>390.3</ele>
        <time>2020-02-01T10:35:54Z</time>
      </trkpt>
      <trkpt lat="42.4534930" lon="-2.4383370">
        <ele>390.2</ele>
        <time>2020-02-01T10:35:55Z</time>
      </trkpt>
      <trkpt lat="42.4534430" lon="-2.4382920">
        <ele>390.2</ele>
        <time>2020-02-01T10:35:56Z</time>
      </trkpt>
      <trkpt lat="42.4534000" lon="-2.4382770">
        <ele>390.1</ele>
        <time>2020-02-01T10:35:57Z</time>
      </trkpt>
      <trkpt lat="42.4533560" lon="-2.4382610">
        <ele>390.0</ele>
        <time>2020-02-01T10:35:58Z</time>
      </trkpt>
      <trkpt lat="42.4533080" lon="-2.4382360">
        <ele>389.9</ele>
        <time>2020-02-01T10:35:59Z</time>
      </trkpt>
      <trkpt lat="42.4532560" lon="-2.4382020">
        <ele>389.9</ele>
        <time>2020-02-01T10:36:00Z</time>
      </trkpt>
      <trkpt lat="42.4532160" lon="-2.4382190">
        <ele>389.8</ele>
        <time>2020-02-01T10:36:01Z</time>
      </trkpt>
      <trkpt lat="42.4531810" lon="-2.4382060">
        <ele>390.0</ele>
        <time>2020-02-01T10:36:02Z</time>
      </trkpt>
      <trkpt lat="42.4531390" lon="-2.4382130">
        <ele>390.1</ele>
        <time>2020-02-01T10:36:03Z</time>
      </trkpt>
      <trkpt lat="42.4530070" lon="-2.4382080">
        <ele>390.3</ele>
        <time>2020-02-01T10:36:05Z</time>
      </trkpt>
      <trkpt lat="42.4529050" lon="-2.4380960">
        <ele>390.6</ele>
        <time>2020-02-01T10:36:06Z</time>
      </trkpt>
      <trkpt lat="42.4528400" lon="-2.4380690">
        <ele>390.7</ele>
        <time>2020-02-01T10:36:07Z</time>
      </trkpt>
      <trkpt lat="42.4527780" lon="-2.4380520">
        <ele>390.8</ele>
        <time>2020-02-01T10:36:08Z</time>
      </trkpt>
      <trkpt lat="42.4526810" lon="-2.4380200">
        <ele>390.9</ele>
        <time>2020-02-01T10:36:09Z</time>
      </trkpt>
      <trkpt lat="42.4526490" lon="-2.4379970">
        <ele>390.9</ele>
        <time>2020-02-01T10:36:10Z</time>
      </trkpt>
      <trkpt lat="42.4525800" lon="-2.4379710">
        <ele>391.1</ele>
        <time>2020-02-01T10:36:11Z</time>
      </trkpt>
      <trkpt lat="42.4525400" lon="-2.4379590">
        <ele>391.1</ele>
        <time>2020-02-01T10:36:12Z</time>
      </trkpt>
      <trkpt lat="42.4524650" lon="-2.4379920">
        <ele>391.2</ele>
        <time>2020-02-01T10:36:13Z</time>
      </trkpt>
      <trkpt lat="42.4524200" lon="-2.4380050">
        <ele>391.3</ele>
        <time>2020-02-01T10:36:14Z</time>
      </trkpt>
      <trkpt lat="42.4523730" lon="-2.4379090">
        <ele>391.4</ele>
        <time>2020-02-01T10:36:15Z</time>
      </trkpt>
      <trkpt lat="42.4523460" lon="-2.4379130">
        <ele>391.4</ele>
        <time>2020-02-01T10:36:16Z</time>
      </trkpt>
      <trkpt lat="42.4523090" lon="-2.4378950">
        <ele>391.5</ele>
        <time>2020-02-01T10:36:17Z</time>
      </trkpt>
      <trkpt lat="42.4522670" lon="-2.4379600">
        <ele>391.5</ele>
        <time>2020-02-01T10:36:18Z</time>
      </trkpt>
      <trkpt lat="42.4521980" lon="-2.4378440">
        <ele>391.7</ele>
        <time>2020-02-01T10:36:19Z</time>
      </trkpt>
      <trkpt lat="42.4521660" lon="-2.4378460">
        <ele>391.7</ele>
        <time>2020-02-01T10:36:20Z</time>
      </trkpt>
      <trkpt lat="42.4520890" lon="-2.4377970">
        <ele>391.8</ele>
        <time>2020-02-01T10:36:21Z</time>
      </trkpt>
      <trkpt lat="42.4520480" lon="-2.4377830">
        <ele>391.8</ele>
        <time>2020-02-01T10:36:22Z</time>
      </trkpt>
      <trkpt lat="42.4519870" lon="-2.4377630">
        <ele>391.8</ele>
        <time>2020-02-01T10:36:23Z</time>
      </trkpt>
      <trkpt lat="42.4518860" lon="-2.4377080">
        <ele>391.9</ele>
        <time>2020-02-01T10:36:24Z</time>
      </trkpt>
      <trkpt lat="42.4518250" lon="-2.4376780">
        <ele>392.0</ele>
        <time>2020-02-01T10:36:25Z</time>
      </trkpt>
      <trkpt lat="42.4517690" lon="-2.4377180">
        <ele>392.0</ele>
        <time>2020-02-01T10:36:26Z</time>
      </trkpt>
      <trkpt lat="42.4517230" lon="-2.4376810">
        <ele>392.0</ele>
        <time>2020-02-01T10:36:27Z</time>
      </trkpt>
      <trkpt lat="42.4516570" lon="-2.4376840">
        <ele>392.1</ele>
        <time>2020-02-01T10:36:28Z</time>
      </trkpt>
      <trkpt lat="42.4516070" lon="-2.4376430">
        <ele>392.2</ele>
        <time>2020-02-01T10:36:29Z</time>
      </trkpt>
      <trkpt lat="42.4515500" lon="-2.4376550">
        <ele>392.3</ele>
        <time>2020-02-01T10:36:30Z</time>
      </trkpt>
      <trkpt lat="42.4515210" lon="-2.4377270">
        <ele>392.3</ele>
        <time>2020-02-01T10:36:31Z</time>
      </trkpt>
      <trkpt lat="42.4514830" lon="-2.4377600">
        <ele>392.5</ele>
        <time>2020-02-01T10:36:32Z</time>
      </trkpt>
      <trkpt lat="42.4514680" lon="-2.4378080">
        <ele>392.5</ele>
        <time>2020-02-01T10:36:33Z</time>
      </trkpt>
      <trkpt lat="42.4514120" lon="-2.4378340">
        <ele>392.7</ele>
        <time>2020-02-01T10:36:35Z</time>
      </trkpt>
      <trkpt lat="42.4513450" lon="-2.4378420">
        <ele>392.9</ele>
        <time>2020-02-01T10:36:36Z</time>
      </trkpt>
      <trkpt lat="42.4492890" lon="-2.4411480">
        <ele>394.4</ele>
        <time>2020-02-01T10:37:39Z</time>
      </trkpt>
      <trkpt lat="42.4492260" lon="-2.4412330">
        <ele>394.4</ele>
        <time>2020-02-01T10:37:40Z</time>
      </trkpt>
      <trkpt lat="42.4491950" lon="-2.4413010">
        <ele>394.5</ele>
        <time>2020-02-01T10:37:41Z</time>
      </trkpt>
      <trkpt lat="42.4491630" lon="-2.4413670">
        <ele>394.5</ele>
        <time>2020-02-01T10:37:42Z</time>
      </trkpt>
      <trkpt lat="42.4491330" lon="-2.4414380">
        <ele>394.5</ele>
        <time>2020-02-01T10:37:43Z</time>
      </trkpt>
      <trkpt lat="42.4491010" lon="-2.4415020">
        <ele>394.6</ele>
        <time>2020-02-01T10:37:44Z</time>
      </trkpt>
      <trkpt lat="42.4490690" lon="-2.4415670">
        <ele>394.6</ele>
        <time>2020-02-01T10:37:45Z</time>
      </trkpt>
      <trkpt lat="42.4489510" lon="-2.4415450">
        <ele>394.7</ele>
        <time>2020-02-01T10:37:46Z</time>
      </trkpt>
      <trkpt lat="42.4489080" lon="-2.4415880">
        <ele>394.7</ele>
        <time>2020-02-01T10:37:47Z</time>
      </trkpt>
      <trkpt lat="42.4489310" lon="-2.4416480">
        <ele>394.8</ele>
        <time>2020-02-01T10:37:48Z</time>
      </trkpt>
      <trkpt lat="42.4489030" lon="-2.4417060">
        <ele>394.8</ele>
        <time>2020-02-01T10:37:49Z</time>
      </trkpt>
      <trkpt lat="42.4488710" lon="-2.4417650">
        <ele>394.8</ele>
        <time>2020-02-01T10:37:50Z</time>
      </trkpt>
      <trkpt lat="42.4488440" lon="-2.4418290">
        <ele>394.8</ele>
        <time>2020-02-01T10:37:51Z</time>
      </trkpt>
      <trkpt lat="42.4488170" lon="-2.4418830">
        <ele>394.8</ele>
        <time>2020-02-01T10:37:52Z</time>
      </trkpt>
      <trkpt lat="42.4487950" lon="-2.4419370">
        <ele>394.8</ele>
        <time>2020-02-01T10:37:53Z</time>
      </trkpt>
      <trkpt lat="42.4487260" lon="-2.4420490">
        <ele>394.7</ele>
        <time>2020-02-01T10:37:54Z</time>
      </trkpt>
      <trkpt lat="42.4486940" lon="-2.4421300">
        <ele>394.7</ele>
        <time>2020-02-01T10:37:55Z</time>
      </trkpt>
      <trkpt lat="42.4486600" lon="-2.4422060">
        <ele>394.7</ele>
        <time>2020-02-01T10:37:56Z</time>
      </trkpt>
      <trkpt lat="42.4486020" lon="-2.4423180">
        <ele>394.7</ele>
        <time>2020-02-01T10:37:57Z</time>
      </trkpt>
      <trkpt lat="42.4485650" lon="-2.4423980">
        <ele>394.8</ele>
        <time>2020-02-01T10:37:58Z</time>
      </trkpt>
      <trkpt lat="42.4485270" lon="-2.4424840">
        <ele>394.8</ele>
        <time>2020-02-01T10:37:59Z</time>
      </trkpt>
      <trkpt lat="42.4484950" lon="-2.4425640">
        <ele>394.8</ele>
        <time>2020-02-01T10:38:00Z</time>
      </trkpt>
      <trkpt lat="42.4484570" lon="-2.4426500">
        <ele>394.9</ele>
        <time>2020-02-01T10:38:01Z</time>
      </trkpt>
      <trkpt lat="42.4483660" lon="-2.4427840">
        <ele>395.1</ele>
        <time>2020-02-01T10:38:05Z</time>
      </trkpt>
      <trkpt lat="42.4483340" lon="-2.4428540">
        <ele>395.1</ele>
        <time>2020-02-01T10:38:06Z</time>
      </trkpt>
      <trkpt lat="42.4483060" lon="-2.4429270">
        <ele>395.2</ele>
        <time>2020-02-01T10:38:07Z</time>
      </trkpt>
      <trkpt lat="42.4482640" lon="-2.4429940">
        <ele>395.2</ele>
        <time>2020-02-01T10:38:08Z</time>
      </trkpt>
      <trkpt lat="42.4482380" lon="-2.4430630">
        <ele>395.2</ele>
        <time>2020-02-01T10:38:09Z</time>
      </trkpt>
      <trkpt lat="42.4482050" lon="-2.4431330">
        <ele>395.3</ele>
        <time>2020-02-01T10:38:10Z</time>
      </trkpt>
      <trkpt lat="42.4481300" lon="-2.4432560">
        <ele>395.4</ele>
        <time>2020-02-01T10:38:11Z</time>
      </trkpt>
      <trkpt lat="42.4480600" lon="-2.4432970">
        <ele>395.4</ele>
        <time>2020-02-01T10:38:12Z</time>
      </trkpt>
      <trkpt lat="42.4480020" lon="-2.4433640">
        <ele>395.5</ele>
        <time>2020-02-01T10:38:13Z</time>
      </trkpt>
      <trkpt lat="42.4479590" lon="-2.4434330">
        <ele>395.6</ele>
        <time>2020-02-01T10:38:14Z</time>
      </trkpt>
      <trkpt lat="42.4479160" lon="-2.4434980">
        <ele>395.7</ele>
        <time>2020-02-01T10:38:15Z</time>
      </trkpt>
      <trkpt lat="42.4478730" lon="-2.4435570">
        <ele>395.7</ele>
        <time>2020-02-01T10:38:16Z</time>
      </trkpt>
      <trkpt lat="42.4478300" lon="-2.4436270">
        <ele>395.8</ele>
        <time>2020-02-01T10:38:17Z</time>
      </trkpt>
      <trkpt lat="42.4477870" lon="-2.4436910">
        <ele>395.9</ele>
        <time>2020-02-01T10:38:18Z</time>
      </trkpt>
      <trkpt lat="42.4477440" lon="-2.4437500">
        <ele>395.9</ele>
        <time>2020-02-01T10:38:19Z</time>
      </trkpt>
      <trkpt lat="42.4478730" lon="-2.4438790">
        <ele>396.1</ele>
        <time>2020-02-01T10:38:20Z</time>
      </trkpt>
      <trkpt lat="42.4478460" lon="-2.4439380">
        <ele>396.1</ele>
        <time>2020-02-01T10:38:21Z</time>
      </trkpt>
      <trkpt lat="42.4478010" lon="-2.4440420">
        <ele>396.2</ele>
        <time>2020-02-01T10:38:22Z</time>
      </trkpt>
      <trkpt lat="42.4477810" lon="-2.4441100">
        <ele>396.2</ele>
        <time>2020-02-01T10:38:23Z</time>
      </trkpt>
      <trkpt lat="42.4476830" lon="-2.4441590">
        <ele>396.3</ele>
        <time>2020-02-01T10:38:24Z</time>
      </trkpt>
      <trkpt lat="42.4476750" lon="-2.4442080">
        <ele>396.4</ele>
        <time>2020-02-01T10:38:25Z</time>
      </trkpt>
      <trkpt lat="42.4476480" lon="-2.4442660">
        <ele>396.5</ele>
        <time>2020-02-01T10:38:26Z</time>
      </trkpt>
      <trkpt lat="42.4476220" lon="-2.4443250">
        <ele>396.6</ele>
        <time>2020-02-01T10:38:27Z</time>
      </trkpt>
      <trkpt lat="42.4476060" lon="-2.4443800">
        <ele>396.6</ele>
        <time>2020-02-01T10:38:28Z</time>
      </trkpt>
      <trkpt lat="42.4475790" lon="-2.4444400">
        <ele>396.8</ele>
        <time>2020-02-01T10:38:29Z</time>
      </trkpt>
      <trkpt lat="42.4475540" lon="-2.4444980">
        <ele>396.9</ele>
        <time>2020-02-01T10:38:30Z</time>
      </trkpt>
      <trkpt lat="42.4475190" lon="-2.4445760">
        <ele>397.0</ele>
        <time>2020-02-01T10:38:31Z</time>
      </trkpt>
      <trkpt lat="42.4474920" lon="-2.4446350">
        <ele>397.1</ele>
        <time>2020-02-01T10:38:32Z</time>
      </trkpt>
      <trkpt lat="42.4474650" lon="-2.4446940">
        <ele>397.2</ele>
        <time>2020-02-01T10:38:33Z</time>
      </trkpt>
      <trkpt lat="42.4474380" lon="-2.4447530">
        <ele>397.4</ele>
        <time>2020-02-01T10:38:34Z</time>
      </trkpt>
      <trkpt lat="42.4474110" lon="-2.4448120">
        <ele>397.5</ele>
        <time>2020-02-01T10:38:35Z</time>
      </trkpt>
      <trkpt lat="42.4473850" lon="-2.4448760">
        <ele>397.6</ele>
        <time>2020-02-01T10:38:36Z</time>
      </trkpt>
      <trkpt lat="42.4471000" lon="-2.4456110">
        <ele>398.8</ele>
        <time>2020-02-01T10:38:45Z</time>
      </trkpt>
      <trkpt lat="42.4470720" lon="-2.4456830">
        <ele>398.9</ele>
        <time>2020-02-01T10:38:46Z</time>
      </trkpt>
      <trkpt lat="42.4470150" lon="-2.4457650">
        <ele>399.0</ele>
        <time>2020-02-01T10:38:47Z</time>
      </trkpt>
      <trkpt lat="42.4469820" lon="-2.4458310">
        <ele>399.0</ele>
        <time>2020-02-01T10:38:48Z</time>
      </trkpt>
      <trkpt lat="42.4469500" lon="-2.4459060">
        <ele>399.1</ele>
        <time>2020-02-01T10:38:49Z</time>
      </trkpt>
      <trkpt lat="42.4469180" lon="-2.4459760">
        <ele>399.1</ele>
        <time>2020-02-01T10:38:50Z</time>
      </trkpt>
      <trkpt lat="42.4468910" lon="-2.4460460">
        <ele>399.2</ele>
        <time>2020-02-01T10:38:51Z</time>
      </trkpt>
      <trkpt lat="42.4469290" lon="-2.4459820">
        <ele>399.3</ele>
        <time>2020-02-01T10:38:52Z</time>
      </trkpt>
      <trkpt lat="42.4469020" lon="-2.4460570">
        <ele>399.4</ele>
        <time>2020-02-01T10:38:53Z</time>
      </trkpt>
      <trkpt lat="42.4468750" lon="-2.4461300">
        <ele>399.5</ele>
        <time>2020-02-01T10:38:54Z</time>
      </trkpt>
      <trkpt lat="42.4468960" lon="-2.4461930">
        <ele>399.6</ele>
        <time>2020-02-01T10:38:55Z</time>
      </trkpt>
      <trkpt lat="42.4467950" lon="-2.4463300">
        <ele>399.8</ele>
        <time>2020-02-01T10:38:56Z</time>
      </trkpt>
      <trkpt lat="42.4467350" lon="-2.4464400">
        <ele>399.9</ele>
        <time>2020-02-01T10:38:57Z</time>
      </trkpt>
      <trkpt lat="42.4467160" lon="-2.4464930">
        <ele>400.0</ele>
        <time>2020-02-01T10:38:58Z</time>
      </trkpt>
      <trkpt lat="42.4466860" lon="-2.4465630">
        <ele>400.1</ele>
        <time>2020-02-01T10:38:59Z</time>
      </trkpt>
      <trkpt lat="42.4466550" lon="-2.4466360">
        <ele>400.1</ele>
        <time>2020-02-01T10:39:00Z</time>
      </trkpt>
      <trkpt lat="42.4466280" lon="-2.4467060">
        <ele>400.2</ele>
        <time>2020-02-01T10:39:01Z</time>
      </trkpt>
      <trkpt lat="42.4465960" lon="-2.4467750">
        <ele>400.2</ele>
        <time>2020-02-01T10:39:02Z</time>
      </trkpt>
      <trkpt lat="42.4465640" lon="-2.4468510">
        <ele>400.3</ele>
        <time>2020-02-01T10:39:03Z</time>
      </trkpt>
      <trkpt lat="42.4465050" lon="-2.4468340">
        <ele>400.3</ele>
        <time>2020-02-01T10:39:04Z</time>
      </trkpt>
      <trkpt lat="42.4464710" lon="-2.4468980">
        <ele>400.4</ele>
        <time>2020-02-01T10:39:05Z</time>
      </trkpt>
      <trkpt lat="42.4464240" lon="-2.4469690">
        <ele>400.5</ele>
        <time>2020-02-01T10:39:06Z</time>
      </trkpt>
      <trkpt lat="42.4463920" lon="-2.4470280">
        <ele>400.7</ele>
        <time>2020-02-01T10:39:07Z</time>
      </trkpt>
      <trkpt lat="42.4463600" lon="-2.4470970">
        <ele>400.8</ele>
        <time>2020-02-01T10:39:08Z</time>
      </trkpt>
      <trkpt lat="42.4463280" lon="-2.4471620">
        <ele>400.9</ele>
        <time>2020-02-01T10:39:09Z</time>
      </trkpt>
      <trkpt lat="42.4462960" lon="-2.4472260">
        <ele>401.0</ele>
        <time>2020-02-01T10:39:10Z</time>
      </trkpt>
      <trkpt lat="42.4462580" lon="-2.4472960">
        <ele>401.1</ele>
        <time>2020-02-01T10:39:11Z</time>
      </trkpt>
      <trkpt lat="42.4462150" lon="-2.4474300">
        <ele>401.1</ele>
        <time>2020-02-01T10:39:12Z</time>
      </trkpt>
      <trkpt lat="42.4462040" lon="-2.4474840">
        <ele>401.2</ele>
        <time>2020-02-01T10:39:13Z</time>
      </trkpt>
      <trkpt lat="42.4461630" lon="-2.4475520">
        <ele>401.2</ele>
        <time>2020-02-01T10:39:14Z</time>
      </trkpt>
      <trkpt lat="42.4461280" lon="-2.4476200">
        <ele>401.3</ele>
        <time>2020-02-01T10:39:15Z</time>
      </trkpt>
      <trkpt lat="42.4460940" lon="-2.4476870">
        <ele>401.4</ele>
        <time>2020-02-01T10:39:16Z</time>
      </trkpt>
      <trkpt lat="42.4460650" lon="-2.4477520">
        <ele>401.4</ele>
        <time>2020-02-01T10:39:17Z</time>
      </trkpt>
      <trkpt lat="42.4460330" lon="-2.4478160">
        <ele>401.6</ele>
        <time>2020-02-01T10:39:18Z</time>
      </trkpt>
      <trkpt lat="42.4460050" lon="-2.4478860">
        <ele>401.7</ele>
        <time>2020-02-01T10:39:19Z</time>
      </trkpt>
      <trkpt lat="42.4459740" lon="-2.4479450">
        <ele>401.9</ele>
        <time>2020-02-01T10:39:20Z</time>
      </trkpt>
      <trkpt lat="42.4456950" lon="-2.4487920">
        <ele>403.1</ele>
        <time>2020-02-01T10:39:32Z</time>
      </trkpt>
      <trkpt lat="42.4456950" lon="-2.4488440">
        <ele>403.1</ele>
        <time>2020-02-01T10:39:33Z</time>
      </trkpt>
      <trkpt lat="42.4456470" lon="-2.4489470">
        <ele>403.1</ele>
        <time>2020-02-01T10:39:34Z</time>
      </trkpt>
      <trkpt lat="42.4456260" lon="-2.4490180">
        <ele>403.2</ele>
        <time>2020-02-01T10:39:35Z</time>
      </trkpt>
      <trkpt lat="42.4456090" lon="-2.4490780">
        <ele>403.2</ele>
        <time>2020-02-01T10:39:36Z</time>
      </trkpt>
      <trkpt lat="42.4456320" lon="-2.4491580">
        <ele>403.2</ele>
        <time>2020-02-01T10:39:37Z</time>
      </trkpt>
      <trkpt lat="42.4456190" lon="-2.4492260">
        <ele>403.2</ele>
        <time>2020-02-01T10:39:38Z</time>
      </trkpt>
      <trkpt lat="42.4456070" lon="-2.4492950">
        <ele>403.3</ele>
        <time>2020-02-01T10:39:39Z</time>
      </trkpt>
      <trkpt lat="42.4455820" lon="-2.4493830">
        <ele>403.3</ele>
        <time>2020-02-01T10:39:40Z</time>
      </trkpt>
      <trkpt lat="42.4455710" lon="-2.4494520">
        <ele>403.4</ele>
        <time>2020-02-01T10:39:41Z</time>
      </trkpt>
      <trkpt lat="42.4455610" lon="-2.4495220">
        <ele>403.5</ele>
        <time>2020-02-01T10:39:42Z</time>
      </trkpt>
      <trkpt lat="42.4455500" lon="-2.4495920">
        <ele>403.5</ele>
        <time>2020-02-01T10:39:43Z</time>
      </trkpt>
      <trkpt lat="42.4455390" lon="-2.4496610">
        <ele>403.6</ele>
        <time>2020-02-01T10:39:44Z</time>
      </trkpt>
      <trkpt lat="42.4455290" lon="-2.4497310">
        <ele>403.7</ele>
        <time>2020-02-01T10:39:45Z</time>
      </trkpt>
      <trkpt lat="42.4455180" lon="-2.4498010">
        <ele>403.8</ele>
        <time>2020-02-01T10:39:46Z</time>
      </trkpt>
      <trkpt lat="42.4447670" lon="-2.4506270">
        <ele>404.1</ele>
        <time>2020-02-01T10:39:57Z</time>
      </trkpt>
      <trkpt lat="42.4447290" lon="-2.4506910">
        <ele>404.1</ele>
        <time>2020-02-01T10:39:58Z</time>
      </trkpt>
      <trkpt lat="42.4446920" lon="-2.4507610">
        <ele>404.2</ele>
        <time>2020-02-01T10:39:59Z</time>
      </trkpt>
      <trkpt lat="42.4446760" lon="-2.4508090">
        <ele>404.3</ele>
        <time>2020-02-01T10:40:00Z</time>
      </trkpt>
      <trkpt lat="42.4446000" lon="-2.4509870">
        <ele>404.8</ele>
        <time>2020-02-01T10:40:02Z</time>
      </trkpt>
      <trkpt lat="42.4445680" lon="-2.4509850">
        <ele>404.8</ele>
        <time>2020-02-01T10:40:04Z</time>
      </trkpt>
      <trkpt lat="42.4445450" lon="-2.4510130">
        <ele>404.9</ele>
        <time>2020-02-01T10:40:05Z</time>
      </trkpt>
      <trkpt lat="42.4445220" lon="-2.4510420">
        <ele>405.2</ele>
        <time>2020-02-01T10:40:06Z</time>
      </trkpt>
      <trkpt lat="42.4444990" lon="-2.4510790">
        <ele>405.2</ele>
        <time>2020-02-01T10:40:07Z</time>
      </trkpt>
      <trkpt lat="42.4441280" lon="-2.4510830">
        <ele>405.6</ele>
        <time>2020-02-01T10:40:20Z</time>
      </trkpt>
      <trkpt lat="42.4441500" lon="-2.4511960">
        <ele>405.7</ele>
        <time>2020-02-01T10:40:21Z</time>
      </trkpt>
      <trkpt lat="42.4440460" lon="-2.4511720">
        <ele>405.8</ele>
        <time>2020-02-01T10:40:22Z</time>
      </trkpt>
      <trkpt lat="42.4439930" lon="-2.4511550">
        <ele>405.9</ele>
        <time>2020-02-01T10:40:23Z</time>
      </trkpt>
      <trkpt lat="42.4439630" lon="-2.4512030">
        <ele>406.0</ele>
        <time>2020-02-01T10:40:24Z</time>
      </trkpt>
      <trkpt lat="42.4439090" lon="-2.4512180">
        <ele>406.1</ele>
        <time>2020-02-01T10:40:25Z</time>
      </trkpt>
      <trkpt lat="42.4438620" lon="-2.4512670">
        <ele>406.1</ele>
        <time>2020-02-01T10:40:26Z</time>
      </trkpt>
      <trkpt lat="42.4438180" lon="-2.4512710">
        <ele>406.2</ele>
        <time>2020-02-01T10:40:27Z</time>
      </trkpt>
      <trkpt lat="42.4437630" lon="-2.4512900">
        <ele>406.3</ele>
        <time>2020-02-01T10:40:28Z</time>
      </trkpt>
      <trkpt lat="42.4437050" lon="-2.4513190">
        <ele>406.3</ele>
        <time>2020-02-01T10:40:29Z</time>
      </trkpt>
      <trkpt lat="42.4436780" lon="-2.4513680">
        <ele>406.3</ele>
        <time>2020-02-01T10:40:30Z</time>
      </trkpt>
      <trkpt lat="42.4435880" lon="-2.4513340">
        <ele>406.4</ele>
        <time>2020-02-01T10:40:31Z</time>
      </trkpt>
      <trkpt lat="42.4435340" lon="-2.4513490">
        <ele>406.4</ele>
        <time>2020-02-01T10:40:32Z</time>
      </trkpt>
      <trkpt lat="42.4434580" lon="-2.4513830">
        <ele>406.4</ele>
        <time>2020-02-01T10:40:33Z</time>
      </trkpt>
      <trkpt lat="42.4434040" lon="-2.4514000">
        <ele>406.4</ele>
        <time>2020-02-01T10:40:34Z</time>
      </trkpt>
      <trkpt lat="42.4433510" lon="-2.4514160">
        <ele>406.4</ele>
        <time>2020-02-01T10:40:35Z</time>
      </trkpt>
      <trkpt lat="42.4432970" lon="-2.4514320">
        <ele>406.4</ele>
        <time>2020-02-01T10:40:36Z</time>
      </trkpt>
      <trkpt lat="42.4432430" lon="-2.4514530">
        <ele>406.5</ele>
        <time>2020-02-01T10:40:37Z</time>
      </trkpt>
      <trkpt lat="42.4431900" lon="-2.4514690">
        <ele>406.5</ele>
        <time>2020-02-01T10:40:38Z</time>
      </trkpt>
      <trkpt lat="42.4431310" lon="-2.4514910">
        <ele>406.5</ele>
        <time>2020-02-01T10:40:39Z</time>
      </trkpt>
      <trkpt lat="42.4430770" lon="-2.4515070">
        <ele>406.6</ele>
        <time>2020-02-01T10:40:40Z</time>
      </trkpt>
      <trkpt lat="42.4430230" lon="-2.4515230">
        <ele>406.6</ele>
        <time>2020-02-01T10:40:41Z</time>
      </trkpt>
      <trkpt lat="42.4429640" lon="-2.4515440">
        <ele>406.7</ele>
        <time>2020-02-01T10:40:42Z</time>
      </trkpt>
      <trkpt lat="42.4426370" lon="-2.4517210">
        <ele>407.1</ele>
        <time>2020-02-01T10:40:51Z</time>
      </trkpt>
      <trkpt lat="42.4424200" lon="-2.4517600">
        <ele>407.2</ele>
        <time>2020-02-01T10:40:53Z</time>
      </trkpt>
      <trkpt lat="42.4423590" lon="-2.4517740">
        <ele>407.2</ele>
        <time>2020-02-01T10:40:54Z</time>
      </trkpt>
      <trkpt lat="42.4422820" lon="-2.4517620">
        <ele>407.2</ele>
        <time>2020-02-01T10:40:55Z</time>
      </trkpt>
      <trkpt lat="42.4422360" lon="-2.4518290">
        <ele>407.2</ele>
        <time>2020-02-01T10:40:56Z</time>
      </trkpt>
      <trkpt lat="42.4421130" lon="-2.4518710">
        <ele>407.3</ele>
        <time>2020-02-01T10:40:57Z</time>
      </trkpt>
      <trkpt lat="42.4420650" lon="-2.4518870">
        <ele>407.5</ele>
        <time>2020-02-01T10:40:58Z</time>
      </trkpt>
      <trkpt lat="42.4420050" lon="-2.4519010">
        <ele>407.7</ele>
        <time>2020-02-01T10:40:59Z</time>
      </trkpt>
      <trkpt lat="42.4419510" lon="-2.4519120">
        <ele>407.8</ele>
        <time>2020-02-01T10:41:00Z</time>
      </trkpt>
      <trkpt lat="42.4418910" lon="-2.4519250">
        <ele>407.9</ele>
        <time>2020-02-01T10:41:01Z</time>
      </trkpt>
      <trkpt lat="42.4418320" lon="-2.4519470">
        <ele>408.0</ele>
        <time>2020-02-01T10:41:02Z</time>
      </trkpt>
      <trkpt lat="42.4417680" lon="-2.4519630">
        <ele>408.1</ele>
        <time>2020-02-01T10:41:03Z</time>
      </trkpt>
      <trkpt lat="42.4417300" lon="-2.4519790">
        <ele>408.1</ele>
        <time>2020-02-01T10:41:04Z</time>
      </trkpt>
      <trkpt lat="42.4416710" lon="-2.4519950">
        <ele>408.1</ele>
        <time>2020-02-01T10:41:05Z</time>
      </trkpt>
      <trkpt lat="42.4416180" lon="-2.4519980">
        <ele>408.2</ele>
        <time>2020-02-01T10:41:06Z</time>
      </trkpt>
      <trkpt lat="42.4415600" lon="-2.4520140">
        <ele>408.2</ele>
        <time>2020-02-01T10:41:07Z</time>
      </trkpt>
      <trkpt lat="42.4415000" lon="-2.4520330">
        <ele>408.2</ele>
        <time>2020-02-01T10:41:08Z</time>
      </trkpt>
      <trkpt lat="42.4414460" lon="-2.4520490">
        <ele>408.3</ele>
        <time>2020-02-01T10:41:09Z</time>
      </trkpt>
      <trkpt lat="42.4413870" lon="-2.4520650">
        <ele>408.5</ele>
        <time>2020-02-01T10:41:10Z</time>
      </trkpt>
      <trkpt lat="42.4412850" lon="-2.4520650">
        <ele>408.7</ele>
        <time>2020-02-01T10:41:11Z</time>
      </trkpt>
      <trkpt lat="42.4412400" lon="-2.4520610">
        <ele>408.8</ele>
        <time>2020-02-01T10:41:12Z</time>
      </trkpt>
      <trkpt lat="42.4411690" lon="-2.4520860">
        <ele>409.0</ele>
        <time>2020-02-01T10:41:13Z</time>
      </trkpt>
      <trkpt lat="42.4411070" lon="-2.4521060">
        <ele>409.1</ele>
        <time>2020-02-01T10:41:14Z</time>
      </trkpt>
      <trkpt lat="42.4410520" lon="-2.4521160">
        <ele>409.2</ele>
        <time>2020-02-01T10:41:15Z</time>
      </trkpt>
      <trkpt lat="42.4410060" lon="-2.4521400">
        <ele>409.3</ele>
        <time>2020-02-01T10:41:16Z</time>
      </trkpt>
      <trkpt lat="42.4409600" lon="-2.4521430">
        <ele>409.4</ele>
        <time>2020-02-01T10:41:17Z</time>
      </trkpt>
      <trkpt lat="42.4409080" lon="-2.4521590">
        <ele>409.6</ele>
        <time>2020-02-01T10:41:18Z</time>
      </trkpt>
      <trkpt lat="42.4408560" lon="-2.4521770">
        <ele>409.7</ele>
        <time>2020-02-01T10:41:19Z</time>
      </trkpt>
      <trkpt lat="42.4407970" lon="-2.4522420">
        <ele>409.9</ele>
        <time>2020-02-01T10:41:20Z</time>
      </trkpt>
      <trkpt lat="42.4407280" lon="-2.4522560">
        <ele>410.0</ele>
        <time>2020-02-01T10:41:21Z</time>
      </trkpt>
      <trkpt lat="42.4406630" lon="-2.4522730">
        <ele>410.1</ele>
        <time>2020-02-01T10:41:22Z</time>
      </trkpt>
      <trkpt lat="42.4406080" lon="-2.4523120">
        <ele>410.1</ele>
        <time>2020-02-01T10:41:23Z</time>
      </trkpt>
      <trkpt lat="42.4405750" lon="-2.4523360">
        <ele>410.2</ele>
        <time>2020-02-01T10:41:24Z</time>
      </trkpt>
      <trkpt lat="42.4404990" lon="-2.4523510">
        <ele>410.1</ele>
        <time>2020-02-01T10:41:25Z</time>
      </trkpt>
      <trkpt lat="42.4404510" lon="-2.4523760">
        <ele>410.2</ele>
        <time>2020-02-01T10:41:26Z</time>
      </trkpt>
      <trkpt lat="42.4403690" lon="-2.4523850">
        <ele>410.2</ele>
        <time>2020-02-01T10:41:27Z</time>
      </trkpt>
      <trkpt lat="42.4403210" lon="-2.4524000">
        <ele>410.1</ele>
        <time>2020-02-01T10:41:28Z</time>
      </trkpt>
      <trkpt lat="42.4402700" lon="-2.4524130">
        <ele>410.1</ele>
        <time>2020-02-01T10:41:29Z</time>
      </trkpt>
      <trkpt lat="42.4402210" lon="-2.4524210">
        <ele>410.1</ele>
        <time>2020-02-01T10:41:30Z</time>
      </trkpt>
      <trkpt lat="42.4401560" lon="-2.4524310">
        <ele>410.2</ele>
        <time>2020-02-01T10:41:31Z</time>
      </trkpt>
      <trkpt lat="42.4401130" lon="-2.4524770">
        <ele>410.2</ele>
        <time>2020-02-01T10:41:32Z</time>
      </trkpt>
      <trkpt lat="42.4400460" lon="-2.4524920">
        <ele>410.3</ele>
        <time>2020-02-01T10:41:33Z</time>
      </trkpt>
      <trkpt lat="42.4399920" lon="-2.4525220">
        <ele>410.3</ele>
        <time>2020-02-01T10:41:34Z</time>
      </trkpt>
      <trkpt lat="42.4399270" lon="-2.4525230">
        <ele>410.5</ele>
        <time>2020-02-01T10:41:35Z</time>
      </trkpt>
      <trkpt lat="42.4398630" lon="-2.4525450">
        <ele>410.7</ele>
        <time>2020-02-01T10:41:36Z</time>
      </trkpt>
      <trkpt lat="42.4398130" lon="-2.4525660">
        <ele>410.8</ele>
        <time>2020-02-01T10:41:37Z</time>
      </trkpt>
      <trkpt lat="42.4397160" lon="-2.4525830">
        <ele>411.1</ele>
        <time>2020-02-01T10:41:38Z</time>
      </trkpt>
      <trkpt lat="42.4396790" lon="-2.4526110">
        <ele>411.1</ele>
        <time>2020-02-01T10:41:39Z</time>
      </trkpt>
      <trkpt lat="42.4396290" lon="-2.4526220">
        <ele>411.2</ele>
        <time>2020-02-01T10:41:40Z</time>
      </trkpt>
      <trkpt lat="42.4395780" lon="-2.4526320">
        <ele>411.3</ele>
        <time>2020-02-01T10:41:41Z</time>
      </trkpt>
      <trkpt lat="42.4395340" lon="-2.4526540">
        <ele>411.3</ele>
        <time>2020-02-01T10:41:42Z</time>
      </trkpt>
      <trkpt lat="42.4394730" lon="-2.4526710">
        <ele>411.3</ele>
        <time>2020-02-01T10:41:43Z</time>
      </trkpt>
      <trkpt lat="42.4393920" lon="-2.4526870">
        <ele>411.3</ele>
        <time>2020-02-01T10:41:44Z</time>
      </trkpt>
      <trkpt lat="42.4393300" lon="-2.4527070">
        <ele>411.4</ele>
        <time>2020-02-01T10:41:45Z</time>
      </trkpt>
      <trkpt lat="42.4392580" lon="-2.4527180">
        <ele>411.4</ele>
        <time>2020-02-01T10:41:46Z</time>
      </trkpt>
      <trkpt lat="42.4392020" lon="-2.4527340">
        <ele>411.4</ele>
        <time>2020-02-01T10:41:47Z</time>
      </trkpt>
      <trkpt lat="42.4391460" lon="-2.4527450">
        <ele>411.4</ele>
        <time>2020-02-01T10:41:48Z</time>
      </trkpt>
      <trkpt lat="42.4390980" lon="-2.4527620">
        <ele>411.4</ele>
        <time>2020-02-01T10:41:49Z</time>
      </trkpt>
      <trkpt lat="42.4390160" lon="-2.4527750">
        <ele>411.4</ele>
        <time>2020-02-01T10:41:50Z</time>
      </trkpt>
      <trkpt lat="42.4389640" lon="-2.4528000">
        <ele>411.5</ele>
        <time>2020-02-01T10:41:51Z</time>
      </trkpt>
      <trkpt lat="42.4389060" lon="-2.4528210">
        <ele>411.5</ele>
        <time>2020-02-01T10:41:52Z</time>
      </trkpt>
      <trkpt lat="42.4388450" lon="-2.4528360">
        <ele>411.5</ele>
        <time>2020-02-01T10:41:53Z</time>
      </trkpt>
      <trkpt lat="42.4387900" lon="-2.4528580">
        <ele>411.5</ele>
        <time>2020-02-01T10:41:54Z</time>
      </trkpt>
      <trkpt lat="42.4387360" lon="-2.4528970">
        <ele>411.5</ele>
        <time>2020-02-01T10:41:55Z</time>
      </trkpt>
      <trkpt lat="42.4386690" lon="-2.4529110">
        <ele>411.5</ele>
        <time>2020-02-01T10:41:56Z</time>
      </trkpt>
      <trkpt lat="42.4386090" lon="-2.4529200">
        <ele>411.5</ele>
        <time>2020-02-01T10:41:57Z</time>
      </trkpt>
      <trkpt lat="42.4385450" lon="-2.4529370">
        <ele>411.5</ele>
        <time>2020-02-01T10:41:58Z</time>
      </trkpt>
      <trkpt lat="42.4385000" lon="-2.4529530">
        <ele>411.5</ele>
        <time>2020-02-01T10:41:59Z</time>
      </trkpt>
      <trkpt lat="42.4384440" lon="-2.4529700">
        <ele>411.5</ele>
        <time>2020-02-01T10:42:00Z</time>
      </trkpt>
      <trkpt lat="42.4383990" lon="-2.4530190">
        <ele>411.6</ele>
        <time>2020-02-01T10:42:01Z</time>
      </trkpt>
      <trkpt lat="42.4383520" lon="-2.4530520">
        <ele>411.6</ele>
        <time>2020-02-01T10:42:02Z</time>
      </trkpt>
      <trkpt lat="42.4382780" lon="-2.4530350">
        <ele>411.7</ele>
        <time>2020-02-01T10:42:03Z</time>
      </trkpt>
      <trkpt lat="42.4382430" lon="-2.4530360">
        <ele>411.8</ele>
        <time>2020-02-01T10:42:04Z</time>
      </trkpt>
      <trkpt lat="42.4382160" lon="-2.4530420">
        <ele>411.8</ele>
        <time>2020-02-01T10:42:05Z</time>
      </trkpt>
      <trkpt lat="42.4381520" lon="-2.4530510">
        <ele>412.0</ele>
        <time>2020-02-01T10:42:06Z</time>
      </trkpt>
      <trkpt lat="42.4380980" lon="-2.4530850">
        <ele>412.1</ele>
        <time>2020-02-01T10:42:07Z</time>
      </trkpt>
      <trkpt lat="42.4380490" lon="-2.4531240">
        <ele>412.2</ele>
        <time>2020-02-01T10:42:08Z</time>
      </trkpt>
      <trkpt lat="42.4379850" lon="-2.4531390">
        <ele>412.4</ele>
        <time>2020-02-01T10:42:09Z</time>
      </trkpt>
      <trkpt lat="42.4379310" lon="-2.4531620">
        <ele>412.5</ele>
        <time>2020-02-01T10:42:10Z</time>
      </trkpt>
      <trkpt lat="42.4378910" lon="-2.4532140">
        <ele>412.6</ele>
        <time>2020-02-01T10:42:11Z</time>
      </trkpt>
      <trkpt lat="42.4378550" lon="-2.4532660">
        <ele>412.6</ele>
        <time>2020-02-01T10:42:12Z</time>
      </trkpt>
      <trkpt lat="42.4378130" lon="-2.4533080">
        <ele>412.6</ele>
        <time>2020-02-01T10:42:13Z</time>
      </trkpt>
      <trkpt lat="42.4377720" lon="-2.4533560">
        <ele>412.6</ele>
        <time>2020-02-01T10:42:14Z</time>
      </trkpt>
      <trkpt lat="42.4377290" lon="-2.4534060">
        <ele>412.5</ele>
        <time>2020-02-01T10:42:15Z</time>
      </trkpt>
      <trkpt lat="42.4376560" lon="-2.4533470">
        <ele>412.6</ele>
        <time>2020-02-01T10:42:16Z</time>
      </trkpt>
      <trkpt lat="42.4376050" lon="-2.4533450">
        <ele>412.7</ele>
        <time>2020-02-01T10:42:17Z</time>
      </trkpt>
      <trkpt lat="42.4375660" lon="-2.4533230">
        <ele>412.7</ele>
        <time>2020-02-01T10:42:18Z</time>
      </trkpt>
      <trkpt lat="42.4375150" lon="-2.4533000">
        <ele>412.8</ele>
        <time>2020-02-01T10:42:19Z</time>
      </trkpt>
      <trkpt lat="42.4374600" lon="-2.4532770">
        <ele>412.8</ele>
        <time>2020-02-01T10:42:20Z</time>
      </trkpt>
      <trkpt lat="42.4374120" lon="-2.4532560">
        <ele>412.8</ele>
        <time>2020-02-01T10:42:21Z</time>
      </trkpt>
      <trkpt lat="42.4373640" lon="-2.4532340">
        <ele>412.8</ele>
        <time>2020-02-01T10:42:22Z</time>
      </trkpt>
      <trkpt lat="42.4373100" lon="-2.4532130">
        <ele>412.8</ele>
        <time>2020-02-01T10:42:23Z</time>
      </trkpt>
      <trkpt lat="42.4372620" lon="-2.4531910">
        <ele>412.9</ele>
        <time>2020-02-01T10:42:24Z</time>
      </trkpt>
      <trkpt lat="42.4370820" lon="-2.4533990">
        <ele>413.2</ele>
        <time>2020-02-01T10:42:26Z</time>
      </trkpt>
      <trkpt lat="42.4370150" lon="-2.4534160">
        <ele>413.4</ele>
        <time>2020-02-01T10:42:27Z</time>
      </trkpt>
      <trkpt lat="42.4369380" lon="-2.4534220">
        <ele>413.6</ele>
        <time>2020-02-01T10:42:28Z</time>
      </trkpt>
      <trkpt lat="42.4369050" lon="-2.4534590">
        <ele>413.7</ele>
        <time>2020-02-01T10:42:29Z</time>
      </trkpt>
      <trkpt lat="42.4368410" lon="-2.4534610">
        <ele>413.8</ele>
        <time>2020-02-01T10:42:30Z</time>
      </trkpt>
      <trkpt lat="42.4367860" lon="-2.4534800">
        <ele>413.9</ele>
        <time>2020-02-01T10:42:31Z</time>
      </trkpt>
      <trkpt lat="42.4367220" lon="-2.4535150">
        <ele>414.0</ele>
        <time>2020-02-01T10:42:32Z</time>
      </trkpt>
      <trkpt lat="42.4366670" lon="-2.4535250">
        <ele>414.0</ele>
        <time>2020-02-01T10:42:33Z</time>
      </trkpt>
      <trkpt lat="42.4365980" lon="-2.4535330">
        <ele>414.1</ele>
        <time>2020-02-01T10:42:34Z</time>
      </trkpt>
      <trkpt lat="42.4365240" lon="-2.4535400">
        <ele>414.1</ele>
        <time>2020-02-01T10:42:35Z</time>
      </trkpt>
      <trkpt lat="42.4364550" lon="-2.4535760">
        <ele>414.2</ele>
        <time>2020-02-01T10:42:36Z</time>
      </trkpt>
      <trkpt lat="42.4364070" lon="-2.4535970">
        <ele>414.3</ele>
        <time>2020-02-01T10:42:37Z</time>
      </trkpt>
      <trkpt lat="42.4363480" lon="-2.4536080">
        <ele>414.4</ele>
        <time>2020-02-01T10:42:38Z</time>
      </trkpt>
      <trkpt lat="42.4363020" lon="-2.4536380">
        <ele>414.5</ele>
        <time>2020-02-01T10:42:39Z</time>
      </trkpt>
      <trkpt lat="42.4362480" lon="-2.4536650">
        <ele>414.7</ele>
        <time>2020-02-01T10:42:40Z</time>
      </trkpt>
      <trkpt lat="42.4361840" lon="-2.4536680">
        <ele>414.8</ele>
        <time>2020-02-01T10:42:41Z</time>
      </trkpt>
      <trkpt lat="42.4361410" lon="-2.4536910">
        <ele>414.9</ele>
        <time>2020-02-01T10:42:42Z</time>
      </trkpt>
      <trkpt lat="42.4360880" lon="-2.4537210">
        <ele>415.0</ele>
        <time>2020-02-01T10:42:43Z</time>
      </trkpt>
      <trkpt lat="42.4360330" lon="-2.4537380">
        <ele>415.1</ele>
        <time>2020-02-01T10:42:44Z</time>
      </trkpt>
      <trkpt lat="42.4359730" lon="-2.4537490">
        <ele>415.1</ele>
        <time>2020-02-01T10:42:45Z</time>
      </trkpt>
      <trkpt lat="42.4359130" lon="-2.4537590">
        <ele>415.2</ele>
        <time>2020-02-01T10:42:46Z</time>
      </trkpt>
      <trkpt lat="42.4358420" lon="-2.4537510">
        <ele>415.2</ele>
        <time>2020-02-01T10:42:47Z</time>
      </trkpt>
      <trkpt lat="42.4357850" lon="-2.4537710">
        <ele>415.2</ele>
        <time>2020-02-01T10:42:48Z</time>
      </trkpt>
      <trkpt lat="42.4357440" lon="-2.4538050">
        <ele>415.2</ele>
        <time>2020-02-01T10:42:49Z</time>
      </trkpt>
      <trkpt lat="42.4356910" lon="-2.4538370">
        <ele>415.2</ele>
        <time>2020-02-01T10:42:50Z</time>
      </trkpt>
      <trkpt lat="42.4356330" lon="-2.4538630">
        <ele>415.3</ele>
        <time>2020-02-01T10:42:51Z</time>
      </trkpt>
      <trkpt lat="42.4355720" lon="-2.4538890">
        <ele>415.3</ele>
        <time>2020-02-01T10:42:52Z</time>
      </trkpt>
      <trkpt lat="42.4355190" lon="-2.4539100">
        <ele>415.3</ele>
        <time>2020-02-01T10:42:53Z</time>
      </trkpt>
      <trkpt lat="42.4354590" lon="-2.4539370">
        <ele>415.3</ele>
        <time>2020-02-01T10:42:54Z</time>
      </trkpt>
      <trkpt lat="42.4354000" lon="-2.4539640">
        <ele>415.4</ele>
        <time>2020-02-01T10:42:55Z</time>
      </trkpt>
      <trkpt lat="42.4353470" lon="-2.4539850">
        <ele>415.6</ele>
        <time>2020-02-01T10:42:56Z</time>
      </trkpt>
      <trkpt lat="42.4353090" lon="-2.4539050">
        <ele>415.7</ele>
        <time>2020-02-01T10:42:57Z</time>
      </trkpt>
      <trkpt lat="42.4352460" lon="-2.4539380">
        <ele>415.9</ele>
        <time>2020-02-01T10:42:58Z</time>
      </trkpt>
      <trkpt lat="42.4351980" lon="-2.4539750">
        <ele>416.0</ele>
        <time>2020-02-01T10:42:59Z</time>
      </trkpt>
      <trkpt lat="42.4351170" lon="-2.4539790">
        <ele>416.2</ele>
        <time>2020-02-01T10:43:00Z</time>
      </trkpt>
      <trkpt lat="42.4350620" lon="-2.4540000">
        <ele>416.2</ele>
        <time>2020-02-01T10:43:01Z</time>
      </trkpt>
      <trkpt lat="42.4350050" lon="-2.4540130">
        <ele>416.2</ele>
        <time>2020-02-01T10:43:02Z</time>
      </trkpt>
      <trkpt lat="42.4349600" lon="-2.4540480">
        <ele>416.2</ele>
        <time>2020-02-01T10:43:03Z</time>
      </trkpt>
      <trkpt lat="42.4349140" lon="-2.4540730">
        <ele>416.2</ele>
        <time>2020-02-01T10:43:04Z</time>
      </trkpt>
      <trkpt lat="42.4348670" lon="-2.4540700">
        <ele>416.2</ele>
        <time>2020-02-01T10:43:05Z</time>
      </trkpt>
      <trkpt lat="42.4348210" lon="-2.4541090">
        <ele>416.2</ele>
        <time>2020-02-01T10:43:06Z</time>
      </trkpt>
      <trkpt lat="42.4347720" lon="-2.4541130">
        <ele>416.2</ele>
        <time>2020-02-01T10:43:07Z</time>
      </trkpt>
      <trkpt lat="42.4347240" lon="-2.4541290">
        <ele>416.2</ele>
        <time>2020-02-01T10:43:08Z</time>
      </trkpt>
      <trkpt lat="42.4346820" lon="-2.4541530">
        <ele>416.2</ele>
        <time>2020-02-01T10:43:09Z</time>
      </trkpt>
      <trkpt lat="42.4346280" lon="-2.4541700">
        <ele>416.3</ele>
        <time>2020-02-01T10:43:10Z</time>
      </trkpt>
      <trkpt lat="42.4345800" lon="-2.4542020">
        <ele>416.3</ele>
        <time>2020-02-01T10:43:11Z</time>
      </trkpt>
      <trkpt lat="42.4345350" lon="-2.4542180">
        <ele>416.4</ele>
        <time>2020-02-01T10:43:12Z</time>
      </trkpt>
      <trkpt lat="42.4344780" lon="-2.4542460">
        <ele>416.5</ele>
        <time>2020-02-01T10:43:13Z</time>
      </trkpt>
      <trkpt lat="42.4344260" lon="-2.4542540">
        <ele>416.6</ele>
        <time>2020-02-01T10:43:14Z</time>
      </trkpt>
      <trkpt lat="42.4343790" lon="-2.4542840">
        <ele>416.7</ele>
        <time>2020-02-01T10:43:15Z</time>
      </trkpt>
      <trkpt lat="42.4343280" lon="-2.4543020">
        <ele>416.8</ele>
        <time>2020-02-01T10:43:16Z</time>
      </trkpt>
      <trkpt lat="42.4342790" lon="-2.4543170">
        <ele>416.9</ele>
        <time>2020-02-01T10:43:17Z</time>
      </trkpt>
      <trkpt lat="42.4342350" lon="-2.4543300">
        <ele>416.9</ele>
        <time>2020-02-01T10:43:18Z</time>
      </trkpt>
      <trkpt lat="42.4341840" lon="-2.4543480">
        <ele>417.0</ele>
        <time>2020-02-01T10:43:19Z</time>
      </trkpt>
      <trkpt lat="42.4341340" lon="-2.4543660">
        <ele>417.0</ele>
        <time>2020-02-01T10:43:20Z</time>
      </trkpt>
      <trkpt lat="42.4340810" lon="-2.4543880">
        <ele>417.0</ele>
        <time>2020-02-01T10:43:21Z</time>
      </trkpt>
      <trkpt lat="42.4340330" lon="-2.4544040">
        <ele>417.0</ele>
        <time>2020-02-01T10:43:22Z</time>
      </trkpt>
      <trkpt lat="42.4339840" lon="-2.4544250">
        <ele>417.1</ele>
        <time>2020-02-01T10:43:23Z</time>
      </trkpt>
      <trkpt lat="42.4339310" lon="-2.4544410">
        <ele>417.1</ele>
        <time>2020-02-01T10:43:24Z</time>
      </trkpt>
      <trkpt lat="42.4338820" lon="-2.4544570">
        <ele>417.1</ele>
        <time>2020-02-01T10:43:25Z</time>
      </trkpt>
      <trkpt lat="42.4338020" lon="-2.4544630">
        <ele>417.0</ele>
        <time>2020-02-01T10:43:26Z</time>
      </trkpt>
      <trkpt lat="42.4337420" lon="-2.4544480">
        <ele>417.0</ele>
        <time>2020-02-01T10:43:27Z</time>
      </trkpt>
      <trkpt lat="42.4336670" lon="-2.4544300">
        <ele>417.0</ele>
        <time>2020-02-01T10:43:28Z</time>
      </trkpt>
      <trkpt lat="42.4336030" lon="-2.4544220">
        <ele>417.0</ele>
        <time>2020-02-01T10:43:29Z</time>
      </trkpt>
      <trkpt lat="42.4335720" lon="-2.4544280">
        <ele>417.0</ele>
        <time>2020-02-01T10:43:30Z</time>
      </trkpt>
      <trkpt lat="42.4334970" lon="-2.4544150">
        <ele>417.0</ele>
        <time>2020-02-01T10:43:31Z</time>
      </trkpt>
      <trkpt lat="42.4334340" lon="-2.4544100">
        <ele>416.9</ele>
        <time>2020-02-01T10:43:32Z</time>
      </trkpt>
      <trkpt lat="42.4333840" lon="-2.4544410">
        <ele>416.9</ele>
        <time>2020-02-01T10:43:33Z</time>
      </trkpt>
      <trkpt lat="42.4333410" lon="-2.4544590">
        <ele>417.0</ele>
        <time>2020-02-01T10:43:34Z</time>
      </trkpt>
      <trkpt lat="42.4332680" lon="-2.4544630">
        <ele>417.0</ele>
        <time>2020-02-01T10:43:35Z</time>
      </trkpt>
      <trkpt lat="42.4332140" lon="-2.4544610">
        <ele>417.0</ele>
        <time>2020-02-01T10:43:36Z</time>
      </trkpt>
      <trkpt lat="42.4331390" lon="-2.4544760">
        <ele>417.0</ele>
        <time>2020-02-01T10:43:37Z</time>
      </trkpt>
      <trkpt lat="42.4330760" lon="-2.4544890">
        <ele>417.1</ele>
        <time>2020-02-01T10:43:38Z</time>
      </trkpt>
      <trkpt lat="42.4330090" lon="-2.4545180">
        <ele>417.3</ele>
        <time>2020-02-01T10:43:39Z</time>
      </trkpt>
      <trkpt lat="42.4329540" lon="-2.4545240">
        <ele>417.4</ele>
        <time>2020-02-01T10:43:40Z</time>
      </trkpt>
      <trkpt lat="42.4328940" lon="-2.4545410">
        <ele>417.5</ele>
        <time>2020-02-01T10:43:41Z</time>
      </trkpt>
      <trkpt lat="42.4328280" lon="-2.4545650">
        <ele>417.6</ele>
        <time>2020-02-01T10:43:42Z</time>
      </trkpt>
      <trkpt lat="42.4327590" lon="-2.4545820">
        <ele>417.8</ele>
        <time>2020-02-01T10:43:43Z</time>
      </trkpt>
      <trkpt lat="42.4327030" lon="-2.4546180">
        <ele>417.9</ele>
        <time>2020-02-01T10:43:44Z</time>
      </trkpt>
      <trkpt lat="42.4326470" lon="-2.4546410">
        <ele>418.2</ele>
        <time>2020-02-01T10:43:45Z</time>
      </trkpt>
      <trkpt lat="42.4325940" lon="-2.4546700">
        <ele>418.2</ele>
        <time>2020-02-01T10:43:46Z</time>
      </trkpt>
      <trkpt lat="42.4325360" lon="-2.4547040">
        <ele>418.2</ele>
        <time>2020-02-01T10:43:47Z</time>
      </trkpt>
      <trkpt lat="42.4324820" lon="-2.4547310">
        <ele>418.2</ele>
        <time>2020-02-01T10:43:48Z</time>
      </trkpt>
      <trkpt lat="42.4324290" lon="-2.4547520">
        <ele>418.2</ele>
        <time>2020-02-01T10:43:49Z</time>
      </trkpt>
      <trkpt lat="42.4323750" lon="-2.4547850">
        <ele>418.2</ele>
        <time>2020-02-01T10:43:50Z</time>
      </trkpt>
      <trkpt lat="42.4323160" lon="-2.4548110">
        <ele>418.3</ele>
        <time>2020-02-01T10:43:51Z</time>
      </trkpt>
      <trkpt lat="42.4322620" lon="-2.4548380">
        <ele>418.3</ele>
        <time>2020-02-01T10:43:52Z</time>
      </trkpt>
      <trkpt lat="42.4322090" lon="-2.4548650">
        <ele>418.4</ele>
        <time>2020-02-01T10:43:53Z</time>
      </trkpt>
      <trkpt lat="42.4321550" lon="-2.4548920">
        <ele>418.5</ele>
        <time>2020-02-01T10:43:54Z</time>
      </trkpt>
      <trkpt lat="42.4321010" lon="-2.4549190">
        <ele>418.6</ele>
        <time>2020-02-01T10:43:55Z</time>
      </trkpt>
      <trkpt lat="42.4318390" lon="-2.4550300">
        <ele>419.1</ele>
        <time>2020-02-01T10:43:59Z</time>
      </trkpt>
      <trkpt lat="42.4317180" lon="-2.4550800">
        <ele>419.2</ele>
        <time>2020-02-01T10:44:00Z</time>
      </trkpt>
      <trkpt lat="42.4316560" lon="-2.4550370">
        <ele>419.3</ele>
        <time>2020-02-01T10:44:01Z</time>
      </trkpt>
      <trkpt lat="42.4315900" lon="-2.4550590">
        <ele>419.3</ele>
        <time>2020-02-01T10:44:02Z</time>
      </trkpt>
      <trkpt lat="42.4315270" lon="-2.4550670">
        <ele>419.3</ele>
        <time>2020-02-01T10:44:03Z</time>
      </trkpt>
      <trkpt lat="42.4314840" lon="-2.4550660">
        <ele>419.3</ele>
        <time>2020-02-01T10:44:04Z</time>
      </trkpt>
      <trkpt lat="42.4314150" lon="-2.4551050">
        <ele>419.4</ele>
        <time>2020-02-01T10:44:05Z</time>
      </trkpt>
      <trkpt lat="42.4313770" lon="-2.4551280">
        <ele>419.4</ele>
        <time>2020-02-01T10:44:06Z</time>
      </trkpt>
      <trkpt lat="42.4313230" lon="-2.4551280">
        <ele>419.5</ele>
        <time>2020-02-01T10:44:07Z</time>
      </trkpt>
      <trkpt lat="42.4312610" lon="-2.4551410">
        <ele>419.6</ele>
        <time>2020-02-01T10:44:08Z</time>
      </trkpt>
      <trkpt lat="42.4312000" lon="-2.4551530">
        <ele>419.8</ele>
        <time>2020-02-01T10:44:09Z</time>
      </trkpt>
      <trkpt lat="42.4311410" lon="-2.4551880">
        <ele>419.9</ele>
        <time>2020-02-01T10:44:10Z</time>
      </trkpt>
      <trkpt lat="42.4310610" lon="-2.4552140">
        <ele>420.1</ele>
        <time>2020-02-01T10:44:11Z</time>
      </trkpt>
      <trkpt lat="42.4310000" lon="-2.4552350">
        <ele>420.2</ele>
        <time>2020-02-01T10:44:12Z</time>
      </trkpt>
      <trkpt lat="42.4309430" lon="-2.4552450">
        <ele>420.3</ele>
        <time>2020-02-01T10:44:13Z</time>
      </trkpt>
      <trkpt lat="42.4308930" lon="-2.4552670">
        <ele>420.4</ele>
        <time>2020-02-01T10:44:14Z</time>
      </trkpt>
      <trkpt lat="42.4308290" lon="-2.4552800">
        <ele>420.5</ele>
        <time>2020-02-01T10:44:15Z</time>
      </trkpt>
      <trkpt lat="42.4307680" lon="-2.4552970">
        <ele>420.6</ele>
        <time>2020-02-01T10:44:16Z</time>
      </trkpt>
      <trkpt lat="42.4307280" lon="-2.4553480">
        <ele>420.7</ele>
        <time>2020-02-01T10:44:17Z</time>
      </trkpt>
      <trkpt lat="42.4306350" lon="-2.4553190">
        <ele>420.9</ele>
        <time>2020-02-01T10:44:18Z</time>
      </trkpt>
      <trkpt lat="42.4305850" lon="-2.4553360">
        <ele>421.0</ele>
        <time>2020-02-01T10:44:19Z</time>
      </trkpt>
      <trkpt lat="42.4305510" lon="-2.4553590">
        <ele>421.1</ele>
        <time>2020-02-01T10:44:20Z</time>
      </trkpt>
      <trkpt lat="42.4305020" lon="-2.4553800">
        <ele>421.2</ele>
        <time>2020-02-01T10:44:21Z</time>
      </trkpt>
      <trkpt lat="42.4304440" lon="-2.4553780">
        <ele>421.3</ele>
        <time>2020-02-01T10:44:22Z</time>
      </trkpt>
      <trkpt lat="42.4303850" lon="-2.4554120">
        <ele>421.3</ele>
        <time>2020-02-01T10:44:23Z</time>
      </trkpt>
      <trkpt lat="42.4303260" lon="-2.4554290">
        <ele>421.4</ele>
        <time>2020-02-01T10:44:24Z</time>
      </trkpt>
      <trkpt lat="42.4302650" lon="-2.4554720">
        <ele>421.4</ele>
        <time>2020-02-01T10:44:25Z</time>
      </trkpt>
      <trkpt lat="42.4302060" lon="-2.4554970">
        <ele>421.4</ele>
        <time>2020-02-01T10:44:26Z</time>
      </trkpt>
      <trkpt lat="42.4301490" lon="-2.4555190">
        <ele>421.5</ele>
        <time>2020-02-01T10:44:27Z</time>
      </trkpt>
      <trkpt lat="42.4300900" lon="-2.4555460">
        <ele>421.5</ele>
        <time>2020-02-01T10:44:28Z</time>
      </trkpt>
      <trkpt lat="42.4300310" lon="-2.4555730">
        <ele>421.5</ele>
        <time>2020-02-01T10:44:29Z</time>
      </trkpt>
      <trkpt lat="42.4299720" lon="-2.4556000">
        <ele>421.5</ele>
        <time>2020-02-01T10:44:30Z</time>
      </trkpt>
      <trkpt lat="42.4299130" lon="-2.4556270">
        <ele>421.5</ele>
        <time>2020-02-01T10:44:31Z</time>
      </trkpt>
      <trkpt lat="42.4298540" lon="-2.4556480">
        <ele>421.5</ele>
        <time>2020-02-01T10:44:32Z</time>
      </trkpt>
      <trkpt lat="42.4297950" lon="-2.4556210">
        <ele>421.6</ele>
        <time>2020-02-01T10:44:33Z</time>
      </trkpt>
      <trkpt lat="42.4297510" lon="-2.4556790">
        <ele>421.6</ele>
        <time>2020-02-01T10:44:34Z</time>
      </trkpt>
      <trkpt lat="42.4297100" lon="-2.4556870">
        <ele>421.7</ele>
        <time>2020-02-01T10:44:35Z</time>
      </trkpt>
      <trkpt lat="42.4296350" lon="-2.4557160">
        <ele>421.8</ele>
        <time>2020-02-01T10:44:36Z</time>
      </trkpt>
      <trkpt lat="42.4295890" lon="-2.4557240">
        <ele>421.9</ele>
        <time>2020-02-01T10:44:37Z</time>
      </trkpt>
      <trkpt lat="42.4295390" lon="-2.4557230">
        <ele>422.0</ele>
        <time>2020-02-01T10:44:38Z</time>
      </trkpt>
      <trkpt lat="42.4294830" lon="-2.4557480">
        <ele>422.1</ele>
        <time>2020-02-01T10:44:39Z</time>
      </trkpt>
      <trkpt lat="42.4294230" lon="-2.4557620">
        <ele>422.3</ele>
        <time>2020-02-01T10:44:40Z</time>
      </trkpt>
      <trkpt lat="42.4293610" lon="-2.4557840">
        <ele>422.4</ele>
        <time>2020-02-01T10:44:41Z</time>
      </trkpt>
      <trkpt lat="42.4293010" lon="-2.4558000">
        <ele>422.5</ele>
        <time>2020-02-01T10:44:42Z</time>
      </trkpt>
      <trkpt lat="42.4292460" lon="-2.4558150">
        <ele>422.5</ele>
        <time>2020-02-01T10:44:43Z</time>
      </trkpt>
      <trkpt lat="42.4291850" lon="-2.4558310">
        <ele>422.5</ele>
        <time>2020-02-01T10:44:44Z</time>
      </trkpt>
      <trkpt lat="42.4291290" lon="-2.4558510">
        <ele>422.6</ele>
        <time>2020-02-01T10:44:45Z</time>
      </trkpt>
      <trkpt lat="42.4290650" lon="-2.4558690">
        <ele>422.6</ele>
        <time>2020-02-01T10:44:46Z</time>
      </trkpt>
      <trkpt lat="42.4290030" lon="-2.4558880">
        <ele>422.6</ele>
        <time>2020-02-01T10:44:47Z</time>
      </trkpt>
      <trkpt lat="42.4289520" lon="-2.4559100">
        <ele>422.6</ele>
        <time>2020-02-01T10:44:48Z</time>
      </trkpt>
      <trkpt lat="42.4289000" lon="-2.4559310">
        <ele>422.6</ele>
        <time>2020-02-01T10:44:49Z</time>
      </trkpt>
      <trkpt lat="42.4288460" lon="-2.4559460">
        <ele>422.7</ele>
        <time>2020-02-01T10:44:50Z</time>
      </trkpt>
      <trkpt lat="42.4287870" lon="-2.4559520">
        <ele>422.7</ele>
        <time>2020-02-01T10:44:51Z</time>
      </trkpt>
      <trkpt lat="42.4287170" lon="-2.4559640">
        <ele>422.8</ele>
        <time>2020-02-01T10:44:52Z</time>
      </trkpt>
      <trkpt lat="42.4286560" lon="-2.4559970">
        <ele>422.8</ele>
        <time>2020-02-01T10:44:53Z</time>
      </trkpt>
      <trkpt lat="42.4285940" lon="-2.4560110">
        <ele>422.9</ele>
        <time>2020-02-01T10:44:54Z</time>
      </trkpt>
      <trkpt lat="42.4285180" lon="-2.4560180">
        <ele>422.9</ele>
        <time>2020-02-01T10:44:55Z</time>
      </trkpt>
      <trkpt lat="42.4284660" lon="-2.4560380">
        <ele>423.0</ele>
        <time>2020-02-01T10:44:56Z</time>
      </trkpt>
      <trkpt lat="42.4284030" lon="-2.4560470">
        <ele>423.1</ele>
        <time>2020-02-01T10:44:57Z</time>
      </trkpt>
      <trkpt lat="42.4283380" lon="-2.4560580">
        <ele>423.2</ele>
        <time>2020-02-01T10:44:58Z</time>
      </trkpt>
      <trkpt lat="42.4282860" lon="-2.4560900">
        <ele>423.3</ele>
        <time>2020-02-01T10:44:59Z</time>
      </trkpt>
      <trkpt lat="42.4282330" lon="-2.4561060">
        <ele>423.4</ele>
        <time>2020-02-01T10:45:00Z</time>
      </trkpt>
      <trkpt lat="42.4281800" lon="-2.4561360">
        <ele>423.5</ele>
        <time>2020-02-01T10:45:01Z</time>
      </trkpt>
      <trkpt lat="42.4281200" lon="-2.4561540">
        <ele>423.8</ele>
        <time>2020-02-01T10:45:02Z</time>
      </trkpt>
      <trkpt lat="42.4280710" lon="-2.4561710">
        <ele>423.8</ele>
        <time>2020-02-01T10:45:03Z</time>
      </trkpt>
      <trkpt lat="42.4280180" lon="-2.4561860">
        <ele>423.8</ele>
        <time>2020-02-01T10:45:04Z</time>
      </trkpt>
      <trkpt lat="42.4279710" lon="-2.4561900">
        <ele>423.8</ele>
        <time>2020-02-01T10:45:05Z</time>
      </trkpt>
      <trkpt lat="42.4279170" lon="-2.4562010">
        <ele>423.8</ele>
        <time>2020-02-01T10:45:06Z</time>
      </trkpt>
      <trkpt lat="42.4278590" lon="-2.4562150">
        <ele>423.8</ele>
        <time>2020-02-01T10:45:07Z</time>
      </trkpt>
      <trkpt lat="42.4278080" lon="-2.4562410">
        <ele>423.8</ele>
        <time>2020-02-01T10:45:08Z</time>
      </trkpt>
      <trkpt lat="42.4277450" lon="-2.4562400">
        <ele>423.8</ele>
        <time>2020-02-01T10:45:09Z</time>
      </trkpt>
      <trkpt lat="42.4276850" lon="-2.4562530">
        <ele>423.9</ele>
        <time>2020-02-01T10:45:10Z</time>
      </trkpt>
      <trkpt lat="42.4276340" lon="-2.4562760">
        <ele>423.9</ele>
        <time>2020-02-01T10:45:11Z</time>
      </trkpt>
      <trkpt lat="42.4275760" lon="-2.4562910">
        <ele>423.9</ele>
        <time>2020-02-01T10:45:12Z</time>
      </trkpt>
      <trkpt lat="42.4275120" lon="-2.4562980">
        <ele>423.9</ele>
        <time>2020-02-01T10:45:13Z</time>
      </trkpt>
      <trkpt lat="42.4274500" lon="-2.4563120">
        <ele>424.0</ele>
        <time>2020-02-01T10:45:14Z</time>
      </trkpt>
      <trkpt lat="42.4273890" lon="-2.4563250">
        <ele>424.0</ele>
        <time>2020-02-01T10:45:15Z</time>
      </trkpt>
      <trkpt lat="42.4273320" lon="-2.4563440">
        <ele>424.1</ele>
        <time>2020-02-01T10:45:16Z</time>
      </trkpt>
      <trkpt lat="42.4272790" lon="-2.4563620">
        <ele>424.2</ele>
        <time>2020-02-01T10:45:17Z</time>
      </trkpt>
      <trkpt lat="42.4272200" lon="-2.4563830">
        <ele>424.3</ele>
        <time>2020-02-01T10:45:18Z</time>
      </trkpt>
      <trkpt lat="42.4271610" lon="-2.4564050">
        <ele>424.4</ele>
        <time>2020-02-01T10:45:19Z</time>
      </trkpt>
      <trkpt lat="42.4271020" lon="-2.4564210">
        <ele>424.6</ele>
        <time>2020-02-01T10:45:20Z</time>
      </trkpt>
      <trkpt lat="42.4270430" lon="-2.4564420">
        <ele>424.7</ele>
        <time>2020-02-01T10:45:21Z</time>
      </trkpt>
      <trkpt lat="42.4269890" lon="-2.4564580">
        <ele>424.9</ele>
        <time>2020-02-01T10:45:22Z</time>
      </trkpt>
      <trkpt lat="42.4268900" lon="-2.4565230">
        <ele>424.9</ele>
        <time>2020-02-01T10:45:23Z</time>
      </trkpt>
      <trkpt lat="42.4268410" lon="-2.4565450">
        <ele>424.9</ele>
        <time>2020-02-01T10:45:24Z</time>
      </trkpt>
      <trkpt lat="42.4267780" lon="-2.4565690">
        <ele>424.9</ele>
        <time>2020-02-01T10:45:25Z</time>
      </trkpt>
      <trkpt lat="42.4267130" lon="-2.4565680">
        <ele>425.0</ele>
        <time>2020-02-01T10:45:26Z</time>
      </trkpt>
      <trkpt lat="42.4266630" lon="-2.4565810">
        <ele>425.0</ele>
        <time>2020-02-01T10:45:27Z</time>
      </trkpt>
      <trkpt lat="42.4266050" lon="-2.4565910">
        <ele>425.1</ele>
        <time>2020-02-01T10:45:28Z</time>
      </trkpt>
      <trkpt lat="42.4265520" lon="-2.4566240">
        <ele>425.3</ele>
        <time>2020-02-01T10:45:29Z</time>
      </trkpt>
      <trkpt lat="42.4264950" lon="-2.4566440">
        <ele>425.4</ele>
        <time>2020-02-01T10:45:30Z</time>
      </trkpt>
      <trkpt lat="42.4264400" lon="-2.4566690">
        <ele>425.6</ele>
        <time>2020-02-01T10:45:31Z</time>
      </trkpt>
      <trkpt lat="42.4263750" lon="-2.4566880">
        <ele>425.7</ele>
        <time>2020-02-01T10:45:32Z</time>
      </trkpt>
      <trkpt lat="42.4263160" lon="-2.4567070">
        <ele>425.8</ele>
        <time>2020-02-01T10:45:33Z</time>
      </trkpt>
      <trkpt lat="42.4262650" lon="-2.4567160">
        <ele>426.0</ele>
        <time>2020-02-01T10:45:34Z</time>
      </trkpt>
      <trkpt lat="42.4262060" lon="-2.4567370">
        <ele>426.1</ele>
        <time>2020-02-01T10:45:35Z</time>
      </trkpt>
      <trkpt lat="42.4261470" lon="-2.4567530">
        <ele>426.3</ele>
        <time>2020-02-01T10:45:36Z</time>
      </trkpt>
      <trkpt lat="42.4260880" lon="-2.4567750">
        <ele>426.6</ele>
        <time>2020-02-01T10:45:37Z</time>
      </trkpt>
      <trkpt lat="42.4260290" lon="-2.4567910">
        <ele>426.8</ele>
        <time>2020-02-01T10:45:38Z</time>
      </trkpt>
      <trkpt lat="42.4259860" lon="-2.4568500">
        <ele>427.1</ele>
        <time>2020-02-01T10:45:39Z</time>
      </trkpt>
      <trkpt lat="42.4259220" lon="-2.4568660">
        <ele>427.4</ele>
        <time>2020-02-01T10:45:40Z</time>
      </trkpt>
      <trkpt lat="42.4258620" lon="-2.4568730">
        <ele>427.6</ele>
        <time>2020-02-01T10:45:41Z</time>
      </trkpt>
      <trkpt lat="42.4258160" lon="-2.4568840">
        <ele>427.7</ele>
        <time>2020-02-01T10:45:42Z</time>
      </trkpt>
      <trkpt lat="42.4257510" lon="-2.4569110">
        <ele>427.7</ele>
        <time>2020-02-01T10:45:43Z</time>
      </trkpt>
      <trkpt lat="42.4257150" lon="-2.4569580">
        <ele>427.8</ele>
        <time>2020-02-01T10:45:44Z</time>
      </trkpt>
      <trkpt lat="42.4256680" lon="-2.4569720">
        <ele>427.9</ele>
        <time>2020-02-01T10:45:45Z</time>
      </trkpt>
      <trkpt lat="42.4256060" lon="-2.4569810">
        <ele>427.9</ele>
        <time>2020-02-01T10:45:46Z</time>
      </trkpt>
      <trkpt lat="42.4255510" lon="-2.4569940">
        <ele>428.0</ele>
        <time>2020-02-01T10:45:47Z</time>
      </trkpt>
      <trkpt lat="42.4254990" lon="-2.4570200">
        <ele>428.1</ele>
        <time>2020-02-01T10:45:48Z</time>
      </trkpt>
      <trkpt lat="42.4254500" lon="-2.4570350">
        <ele>428.3</ele>
        <time>2020-02-01T10:45:49Z</time>
      </trkpt>
      <trkpt lat="42.4253970" lon="-2.4570640">
        <ele>428.4</ele>
        <time>2020-02-01T10:45:50Z</time>
      </trkpt>
      <trkpt lat="42.4253290" lon="-2.4570820">
        <ele>428.6</ele>
        <time>2020-02-01T10:45:51Z</time>
      </trkpt>
      <trkpt lat="42.4252850" lon="-2.4570750">
        <ele>428.6</ele>
        <time>2020-02-01T10:45:52Z</time>
      </trkpt>
      <trkpt lat="42.4252410" lon="-2.4570940">
        <ele>428.7</ele>
        <time>2020-02-01T10:45:53Z</time>
      </trkpt>
      <trkpt lat="42.4251570" lon="-2.4571040">
        <ele>428.8</ele>
        <time>2020-02-01T10:45:54Z</time>
      </trkpt>
      <trkpt lat="42.4250760" lon="-2.4570950">
        <ele>429.0</ele>
        <time>2020-02-01T10:45:55Z</time>
      </trkpt>
      <trkpt lat="42.4250010" lon="-2.4570960">
        <ele>429.2</ele>
        <time>2020-02-01T10:45:56Z</time>
      </trkpt>
      <trkpt lat="42.4249510" lon="-2.4571070">
        <ele>429.3</ele>
        <time>2020-02-01T10:45:57Z</time>
      </trkpt>
      <trkpt lat="42.4248920" lon="-2.4571210">
        <ele>429.6</ele>
        <time>2020-02-01T10:45:58Z</time>
      </trkpt>
      <trkpt lat="42.4248390" lon="-2.4571400">
        <ele>429.8</ele>
        <time>2020-02-01T10:45:59Z</time>
      </trkpt>
      <trkpt lat="42.4247760" lon="-2.4571670">
        <ele>430.1</ele>
        <time>2020-02-01T10:46:00Z</time>
      </trkpt>
      <trkpt lat="42.4247200" lon="-2.4571880">
        <ele>430.3</ele>
        <time>2020-02-01T10:46:01Z</time>
      </trkpt>
      <trkpt lat="42.4246660" lon="-2.4572090">
        <ele>430.4</ele>
        <time>2020-02-01T10:46:02Z</time>
      </trkpt>
      <trkpt lat="42.4245980" lon="-2.4572380">
        <ele>430.6</ele>
        <time>2020-02-01T10:46:03Z</time>
      </trkpt>
      <trkpt lat="42.4245430" lon="-2.4572580">
        <ele>430.7</ele>
        <time>2020-02-01T10:46:04Z</time>
      </trkpt>
      <trkpt lat="42.4244880" lon="-2.4572800">
        <ele>430.8</ele>
        <time>2020-02-01T10:46:05Z</time>
      </trkpt>
      <trkpt lat="42.4244300" lon="-2.4573060">
        <ele>430.9</ele>
        <time>2020-02-01T10:46:06Z</time>
      </trkpt>
      <trkpt lat="42.4243710" lon="-2.4573270">
        <ele>431.0</ele>
        <time>2020-02-01T10:46:07Z</time>
      </trkpt>
      <trkpt lat="42.4243230" lon="-2.4573490">
        <ele>431.1</ele>
        <time>2020-02-01T10:46:08Z</time>
      </trkpt>
      <trkpt lat="42.4242640" lon="-2.4573700">
        <ele>431.3</ele>
        <time>2020-02-01T10:46:09Z</time>
      </trkpt>
      <trkpt lat="42.4242100" lon="-2.4573920">
        <ele>431.4</ele>
        <time>2020-02-01T10:46:10Z</time>
      </trkpt>
      <trkpt lat="42.4241570" lon="-2.4574130">
        <ele>431.5</ele>
        <time>2020-02-01T10:46:11Z</time>
      </trkpt>
      <trkpt lat="42.4234700" lon="-2.4575530">
        <ele>433.2</ele>
        <time>2020-02-01T10:46:22Z</time>
      </trkpt>
      <trkpt lat="42.4235020" lon="-2.4576010">
        <ele>433.4</ele>
        <time>2020-02-01T10:46:23Z</time>
      </trkpt>
      <trkpt lat="42.4234420" lon="-2.4575710">
        <ele>433.6</ele>
        <time>2020-02-01T10:46:24Z</time>
      </trkpt>
      <trkpt lat="42.4233720" lon="-2.4575940">
        <ele>433.9</ele>
        <time>2020-02-01T10:46:25Z</time>
      </trkpt>
      <trkpt lat="42.4233280" lon="-2.4576020">
        <ele>434.0</ele>
        <time>2020-02-01T10:46:26Z</time>
      </trkpt>
      <trkpt lat="42.4232740" lon="-2.4576350">
        <ele>434.2</ele>
        <time>2020-02-01T10:46:27Z</time>
      </trkpt>
      <trkpt lat="42.4232130" lon="-2.4576380">
        <ele>434.4</ele>
        <time>2020-02-01T10:46:28Z</time>
      </trkpt>
      <trkpt lat="42.4231640" lon="-2.4576390">
        <ele>434.6</ele>
        <time>2020-02-01T10:46:29Z</time>
      </trkpt>
      <trkpt lat="42.4231040" lon="-2.4576630">
        <ele>434.9</ele>
        <time>2020-02-01T10:46:30Z</time>
      </trkpt>
      <trkpt lat="42.4230520" lon="-2.4576870">
        <ele>435.1</ele>
        <time>2020-02-01T10:46:31Z</time>
      </trkpt>
      <trkpt lat="42.4229990" lon="-2.4577020">
        <ele>435.2</ele>
        <time>2020-02-01T10:46:32Z</time>
      </trkpt>
      <trkpt lat="42.4229500" lon="-2.4577300">
        <ele>435.4</ele>
        <time>2020-02-01T10:46:33Z</time>
      </trkpt>
      <trkpt lat="42.4228970" lon="-2.4577470">
        <ele>435.5</ele>
        <time>2020-02-01T10:46:34Z</time>
      </trkpt>
      <trkpt lat="42.4228450" lon="-2.4577650">
        <ele>435.5</ele>
        <time>2020-02-01T10:46:35Z</time>
      </trkpt>
      <trkpt lat="42.4227940" lon="-2.4577830">
        <ele>435.6</ele>
        <time>2020-02-01T10:46:36Z</time>
      </trkpt>
      <trkpt lat="42.4227400" lon="-2.4577990">
        <ele>436.0</ele>
        <time>2020-02-01T10:46:37Z</time>
      </trkpt>
      <trkpt lat="42.4226870" lon="-2.4578210">
        <ele>436.3</ele>
        <time>2020-02-01T10:46:38Z</time>
      </trkpt>
      <trkpt lat="42.4226330" lon="-2.4578370">
        <ele>436.5</ele>
        <time>2020-02-01T10:46:39Z</time>
      </trkpt>
      <trkpt lat="42.4225850" lon="-2.4578530">
        <ele>436.7</ele>
        <time>2020-02-01T10:46:40Z</time>
      </trkpt>
      <trkpt lat="42.4225310" lon="-2.4578740">
        <ele>436.9</ele>
        <time>2020-02-01T10:46:41Z</time>
      </trkpt>
      <trkpt lat="42.4224830" lon="-2.4578910">
        <ele>437.1</ele>
        <time>2020-02-01T10:46:42Z</time>
      </trkpt>
      <trkpt lat="42.4224290" lon="-2.4579070">
        <ele>437.4</ele>
        <time>2020-02-01T10:46:43Z</time>
      </trkpt>
      <trkpt lat="42.4223760" lon="-2.4579280">
        <ele>437.5</ele>
        <time>2020-02-01T10:46:44Z</time>
      </trkpt>
      <trkpt lat="42.4223270" lon="-2.4579440">
        <ele>437.6</ele>
        <time>2020-02-01T10:46:45Z</time>
      </trkpt>
      <trkpt lat="42.4223270" lon="-2.4580140">
        <ele>437.7</ele>
        <time>2020-02-01T10:46:46Z</time>
      </trkpt>
      <trkpt lat="42.4222720" lon="-2.4579990">
        <ele>437.8</ele>
        <time>2020-02-01T10:46:48Z</time>
      </trkpt>
      <trkpt lat="42.4221870" lon="-2.4579760">
        <ele>438.5</ele>
        <time>2020-02-01T10:46:49Z</time>
      </trkpt>
      <trkpt lat="42.4221450" lon="-2.4580080">
        <ele>438.5</ele>
        <time>2020-02-01T10:46:50Z</time>
      </trkpt>
      <trkpt lat="42.4221030" lon="-2.4580670">
        <ele>438.8</ele>
        <time>2020-02-01T10:46:51Z</time>
      </trkpt>
      <trkpt lat="42.4220570" lon="-2.4580810">
        <ele>438.9</ele>
        <time>2020-02-01T10:46:52Z</time>
      </trkpt>
      <trkpt lat="42.4220180" lon="-2.4580920">
        <ele>439.0</ele>
        <time>2020-02-01T10:46:53Z</time>
      </trkpt>
      <trkpt lat="42.4219740" lon="-2.4581050">
        <ele>439.1</ele>
        <time>2020-02-01T10:46:54Z</time>
      </trkpt>
      <trkpt lat="42.4219210" lon="-2.4581300">
        <ele>439.3</ele>
        <time>2020-02-01T10:46:55Z</time>
      </trkpt>
      <trkpt lat="42.4218630" lon="-2.4581550">
        <ele>439.4</ele>
        <time>2020-02-01T10:46:56Z</time>
      </trkpt>
      <trkpt lat="42.4218100" lon="-2.4581840">
        <ele>439.6</ele>
        <time>2020-02-01T10:46:57Z</time>
      </trkpt>
      <trkpt lat="42.4217580" lon="-2.4582120">
        <ele>439.7</ele>
        <time>2020-02-01T10:46:58Z</time>
      </trkpt>
      <trkpt lat="42.4217070" lon="-2.4582760">
        <ele>439.9</ele>
        <time>2020-02-01T10:46:59Z</time>
      </trkpt>
      <trkpt lat="42.4216410" lon="-2.4582910">
        <ele>440.1</ele>
        <time>2020-02-01T10:47:01Z</time>
      </trkpt>
      <trkpt lat="42.4215870" lon="-2.4583300">
        <ele>440.3</ele>
        <time>2020-02-01T10:47:02Z</time>
      </trkpt>
      <trkpt lat="42.4215440" lon="-2.4583570">
        <ele>440.4</ele>
        <time>2020-02-01T10:47:03Z</time>
      </trkpt>
      <trkpt lat="42.4215120" lon="-2.4584050">
        <ele>440.6</ele>
        <time>2020-02-01T10:47:04Z</time>
      </trkpt>
      <trkpt lat="42.4214790" lon="-2.4584350">
        <ele>440.7</ele>
        <time>2020-02-01T10:47:05Z</time>
      </trkpt>
      <trkpt lat="42.4214240" lon="-2.4584740">
        <ele>440.8</ele>
        <time>2020-02-01T10:47:06Z</time>
      </trkpt>
      <trkpt lat="42.4213880" lon="-2.4585070">
        <ele>440.9</ele>
        <time>2020-02-01T10:47:07Z</time>
      </trkpt>
      <trkpt lat="42.4213340" lon="-2.4585480">
        <ele>440.9</ele>
        <time>2020-02-01T10:47:08Z</time>
      </trkpt>
      <trkpt lat="42.4212990" lon="-2.4585500">
        <ele>441.0</ele>
        <time>2020-02-01T10:47:09Z</time>
      </trkpt>
      <trkpt lat="42.4212120" lon="-2.4584970">
        <ele>441.0</ele>
        <time>2020-02-01T10:47:10Z</time>
      </trkpt>
      <trkpt lat="42.4211650" lon="-2.4585690">
        <ele>441.1</ele>
        <time>2020-02-01T10:47:11Z</time>
      </trkpt>
      <trkpt lat="42.4211020" lon="-2.4585000">
        <ele>441.1</ele>
        <time>2020-02-01T10:47:12Z</time>
      </trkpt>
      <trkpt lat="42.4209950" lon="-2.4585370">
        <ele>441.1</ele>
        <time>2020-02-01T10:47:13Z</time>
      </trkpt>
      <trkpt lat="42.4209500" lon="-2.4586840">
        <ele>441.1</ele>
        <time>2020-02-01T10:47:14Z</time>
      </trkpt>
      <trkpt lat="42.4209570" lon="-2.4587460">
        <ele>441.1</ele>
        <time>2020-02-01T10:47:15Z</time>
      </trkpt>
      <trkpt lat="42.4208790" lon="-2.4587700">
        <ele>441.1</ele>
        <time>2020-02-01T10:47:16Z</time>
      </trkpt>
      <trkpt lat="42.4208300" lon="-2.4588120">
        <ele>441.1</ele>
        <time>2020-02-01T10:47:17Z</time>
      </trkpt>
      <trkpt lat="42.4207660" lon="-2.4588430">
        <ele>441.1</ele>
        <time>2020-02-01T10:47:18Z</time>
      </trkpt>
      <trkpt lat="42.4207140" lon="-2.4588810">
        <ele>441.1</ele>
        <time>2020-02-01T10:47:19Z</time>
      </trkpt>
      <trkpt lat="42.4206540" lon="-2.4589370">
        <ele>441.1</ele>
        <time>2020-02-01T10:47:20Z</time>
      </trkpt>
      <trkpt lat="42.4206000" lon="-2.4589740">
        <ele>441.1</ele>
        <time>2020-02-01T10:47:21Z</time>
      </trkpt>
      <trkpt lat="42.4205460" lon="-2.4590170">
        <ele>441.1</ele>
        <time>2020-02-01T10:47:22Z</time>
      </trkpt>
      <trkpt lat="42.4204980" lon="-2.4590550">
        <ele>441.2</ele>
        <time>2020-02-01T10:47:23Z</time>
      </trkpt>
      <trkpt lat="42.4204440" lon="-2.4590920">
        <ele>441.2</ele>
        <time>2020-02-01T10:47:24Z</time>
      </trkpt>
      <trkpt lat="42.4203850" lon="-2.4589850">
        <ele>441.2</ele>
        <time>2020-02-01T10:47:25Z</time>
      </trkpt>
      <trkpt lat="42.4203430" lon="-2.4590560">
        <ele>441.2</ele>
        <time>2020-02-01T10:47:26Z</time>
      </trkpt>
      <trkpt lat="42.4203050" lon="-2.4590710">
        <ele>441.2</ele>
        <time>2020-02-01T10:47:27Z</time>
      </trkpt>
      <trkpt lat="42.4202410" lon="-2.4590520">
        <ele>441.2</ele>
        <time>2020-02-01T10:47:28Z</time>
      </trkpt>
      <trkpt lat="42.4201770" lon="-2.4591180">
        <ele>441.2</ele>
        <time>2020-02-01T10:47:29Z</time>
      </trkpt>
      <trkpt lat="42.4201330" lon="-2.4591500">
        <ele>441.2</ele>
        <time>2020-02-01T10:47:30Z</time>
      </trkpt>
      <trkpt lat="42.4200700" lon="-2.4592060">
        <ele>441.2</ele>
        <time>2020-02-01T10:47:31Z</time>
      </trkpt>
      <trkpt lat="42.4200280" lon="-2.4592410">
        <ele>441.2</ele>
        <time>2020-02-01T10:47:32Z</time>
      </trkpt>
      <trkpt lat="42.4199800" lon="-2.4593050">
        <ele>441.2</ele>
        <time>2020-02-01T10:47:33Z</time>
      </trkpt>
      <trkpt lat="42.4199430" lon="-2.4593510">
        <ele>441.2</ele>
        <time>2020-02-01T10:47:34Z</time>
      </trkpt>
      <trkpt lat="42.4198950" lon="-2.4593920">
        <ele>441.2</ele>
        <time>2020-02-01T10:47:35Z</time>
      </trkpt>
      <trkpt lat="42.4198490" lon="-2.4594410">
        <ele>441.2</ele>
        <time>2020-02-01T10:47:36Z</time>
      </trkpt>
      <trkpt lat="42.4198060" lon="-2.4594840">
        <ele>441.2</ele>
        <time>2020-02-01T10:47:37Z</time>
      </trkpt>
      <trkpt lat="42.4197580" lon="-2.4595270">
        <ele>441.2</ele>
        <time>2020-02-01T10:47:38Z</time>
      </trkpt>
      <trkpt lat="42.4197100" lon="-2.4595700">
        <ele>441.3</ele>
        <time>2020-02-01T10:47:39Z</time>
      </trkpt>
      <trkpt lat="42.4196610" lon="-2.4596120">
        <ele>441.3</ele>
        <time>2020-02-01T10:47:40Z</time>
      </trkpt>
      <trkpt lat="42.4196180" lon="-2.4596550">
        <ele>441.3</ele>
        <time>2020-02-01T10:47:41Z</time>
      </trkpt>
      <trkpt lat="42.4195700" lon="-2.4596980">
        <ele>441.3</ele>
        <time>2020-02-01T10:47:42Z</time>
      </trkpt>
      <trkpt lat="42.4195220" lon="-2.4597410">
        <ele>441.3</ele>
        <time>2020-02-01T10:47:43Z</time>
      </trkpt>
      <trkpt lat="42.4194790" lon="-2.4597840">
        <ele>441.3</ele>
        <time>2020-02-01T10:47:44Z</time>
      </trkpt>
      <trkpt lat="42.4190010" lon="-2.4600420">
        <ele>441.9</ele>
        <time>2020-02-01T10:47:53Z</time>
      </trkpt>
      <trkpt lat="42.4189480" lon="-2.4600790">
        <ele>442.1</ele>
        <time>2020-02-01T10:47:54Z</time>
      </trkpt>
      <trkpt lat="42.4188940" lon="-2.4601220">
        <ele>442.2</ele>
        <time>2020-02-01T10:47:55Z</time>
      </trkpt>
      <trkpt lat="42.4188220" lon="-2.4601200">
        <ele>442.4</ele>
        <time>2020-02-01T10:47:56Z</time>
      </trkpt>
      <trkpt lat="42.4187640" lon="-2.4601310">
        <ele>442.6</ele>
        <time>2020-02-01T10:47:57Z</time>
      </trkpt>
      <trkpt lat="42.4186990" lon="-2.4602190">
        <ele>442.9</ele>
        <time>2020-02-01T10:47:58Z</time>
      </trkpt>
      <trkpt lat="42.4186420" lon="-2.4602620">
        <ele>443.0</ele>
        <time>2020-02-01T10:47:59Z</time>
      </trkpt>
      <trkpt lat="42.4185580" lon="-2.4602740">
        <ele>443.1</ele>
        <time>2020-02-01T10:48:00Z</time>
      </trkpt>
      <trkpt lat="42.4184900" lon="-2.4603200">
        <ele>443.2</ele>
        <time>2020-02-01T10:48:01Z</time>
      </trkpt>
      <trkpt lat="42.4184340" lon="-2.4603030">
        <ele>443.2</ele>
        <time>2020-02-01T10:48:02Z</time>
      </trkpt>
      <trkpt lat="42.4183620" lon="-2.4603110">
        <ele>443.2</ele>
        <time>2020-02-01T10:48:03Z</time>
      </trkpt>
      <trkpt lat="42.4183010" lon="-2.4603370">
        <ele>443.2</ele>
        <time>2020-02-01T10:48:04Z</time>
      </trkpt>
      <trkpt lat="42.4182560" lon="-2.4603690">
        <ele>443.2</ele>
        <time>2020-02-01T10:48:05Z</time>
      </trkpt>
      <trkpt lat="42.4181680" lon="-2.4603870">
        <ele>443.2</ele>
        <time>2020-02-01T10:48:06Z</time>
      </trkpt>
      <trkpt lat="42.4181050" lon="-2.4604120">
        <ele>443.3</ele>
        <time>2020-02-01T10:48:07Z</time>
      </trkpt>
      <trkpt lat="42.4180510" lon="-2.4605360">
        <ele>443.3</ele>
        <time>2020-02-01T10:48:08Z</time>
      </trkpt>
      <trkpt lat="42.4179890" lon="-2.4605810">
        <ele>443.4</ele>
        <time>2020-02-01T10:48:09Z</time>
      </trkpt>
      <trkpt lat="42.4179310" lon="-2.4606250">
        <ele>443.5</ele>
        <time>2020-02-01T10:48:10Z</time>
      </trkpt>
      <trkpt lat="42.4178750" lon="-2.4606690">
        <ele>443.7</ele>
        <time>2020-02-01T10:48:11Z</time>
      </trkpt>
      <trkpt lat="42.4178650" lon="-2.4607140">
        <ele>443.7</ele>
        <time>2020-02-01T10:48:12Z</time>
      </trkpt>
      <trkpt lat="42.4178350" lon="-2.4607750">
        <ele>443.9</ele>
        <time>2020-02-01T10:48:14Z</time>
      </trkpt>
      <trkpt lat="42.4177680" lon="-2.4608140">
        <ele>444.1</ele>
        <time>2020-02-01T10:48:15Z</time>
      </trkpt>
      <trkpt lat="42.4177220" lon="-2.4608490">
        <ele>444.2</ele>
        <time>2020-02-01T10:48:16Z</time>
      </trkpt>
      <trkpt lat="42.4176270" lon="-2.4608400">
        <ele>444.5</ele>
        <time>2020-02-01T10:48:17Z</time>
      </trkpt>
      <trkpt lat="42.4175580" lon="-2.4608620">
        <ele>444.7</ele>
        <time>2020-02-01T10:48:18Z</time>
      </trkpt>
      <trkpt lat="42.4174930" lon="-2.4609030">
        <ele>444.9</ele>
        <time>2020-02-01T10:48:19Z</time>
      </trkpt>
      <trkpt lat="42.4174170" lon="-2.4609480">
        <ele>445.0</ele>
        <time>2020-02-01T10:48:21Z</time>
      </trkpt>
      <trkpt lat="42.4173590" lon="-2.4609840">
        <ele>445.1</ele>
        <time>2020-02-01T10:48:22Z</time>
      </trkpt>
      <trkpt lat="42.4172960" lon="-2.4610230">
        <ele>445.2</ele>
        <time>2020-02-01T10:48:23Z</time>
      </trkpt>
      <trkpt lat="42.4172420" lon="-2.4610560">
        <ele>445.2</ele>
        <time>2020-02-01T10:48:24Z</time>
      </trkpt>
      <trkpt lat="42.4171880" lon="-2.4610880">
        <ele>445.2</ele>
        <time>2020-02-01T10:48:25Z</time>
      </trkpt>
      <trkpt lat="42.4171290" lon="-2.4611250">
        <ele>445.2</ele>
        <time>2020-02-01T10:48:26Z</time>
      </trkpt>
      <trkpt lat="42.4170810" lon="-2.4611570">
        <ele>445.2</ele>
        <time>2020-02-01T10:48:27Z</time>
      </trkpt>
      <trkpt lat="42.4170220" lon="-2.4611900">
        <ele>445.2</ele>
        <time>2020-02-01T10:48:28Z</time>
      </trkpt>
      <trkpt lat="42.4169740" lon="-2.4612220">
        <ele>445.2</ele>
        <time>2020-02-01T10:48:29Z</time>
      </trkpt>
      <trkpt lat="42.4169030" lon="-2.4612210">
        <ele>445.2</ele>
        <time>2020-02-01T10:48:31Z</time>
      </trkpt>
      <trkpt lat="42.4168600" lon="-2.4612560">
        <ele>445.2</ele>
        <time>2020-02-01T10:48:32Z</time>
      </trkpt>
      <trkpt lat="42.4167990" lon="-2.4613060">
        <ele>445.2</ele>
        <time>2020-02-01T10:48:33Z</time>
      </trkpt>
      <trkpt lat="42.4167410" lon="-2.4613010">
        <ele>445.2</ele>
        <time>2020-02-01T10:48:34Z</time>
      </trkpt>
      <trkpt lat="42.4166830" lon="-2.4613460">
        <ele>445.2</ele>
        <time>2020-02-01T10:48:35Z</time>
      </trkpt>
      <trkpt lat="42.4166300" lon="-2.4613990">
        <ele>445.2</ele>
        <time>2020-02-01T10:48:36Z</time>
      </trkpt>
      <trkpt lat="42.4165810" lon="-2.4614350">
        <ele>445.2</ele>
        <time>2020-02-01T10:48:37Z</time>
      </trkpt>
      <trkpt lat="42.4165180" lon="-2.4614700">
        <ele>445.2</ele>
        <time>2020-02-01T10:48:38Z</time>
      </trkpt>
      <trkpt lat="42.4164640" lon="-2.4615110">
        <ele>445.2</ele>
        <time>2020-02-01T10:48:39Z</time>
      </trkpt>
      <trkpt lat="42.4163980" lon="-2.4615640">
        <ele>445.2</ele>
        <time>2020-02-01T10:48:40Z</time>
      </trkpt>
      <trkpt lat="42.4163460" lon="-2.4616020">
        <ele>445.2</ele>
        <time>2020-02-01T10:48:41Z</time>
      </trkpt>
      <trkpt lat="42.4162930" lon="-2.4616400">
        <ele>445.2</ele>
        <time>2020-02-01T10:48:42Z</time>
      </trkpt>
      <trkpt lat="42.4162440" lon="-2.4616720">
        <ele>445.2</ele>
        <time>2020-02-01T10:48:43Z</time>
      </trkpt>
      <trkpt lat="42.4161910" lon="-2.4617150">
        <ele>445.2</ele>
        <time>2020-02-01T10:48:44Z</time>
      </trkpt>
      <trkpt lat="42.4160510" lon="-2.4617210">
        <ele>445.2</ele>
        <time>2020-02-01T10:48:45Z</time>
      </trkpt>
      <trkpt lat="42.4159970" lon="-2.4617560">
        <ele>445.2</ele>
        <time>2020-02-01T10:48:46Z</time>
      </trkpt>
      <trkpt lat="42.4159380" lon="-2.4617900">
        <ele>445.2</ele>
        <time>2020-02-01T10:48:47Z</time>
      </trkpt>
      <trkpt lat="42.4158800" lon="-2.4618660">
        <ele>445.2</ele>
        <time>2020-02-01T10:48:48Z</time>
      </trkpt>
      <trkpt lat="42.4158190" lon="-2.4619100">
        <ele>445.2</ele>
        <time>2020-02-01T10:48:50Z</time>
      </trkpt>
      <trkpt lat="42.4157710" lon="-2.4619450">
        <ele>445.2</ele>
        <time>2020-02-01T10:48:51Z</time>
      </trkpt>
      <trkpt lat="42.4156640" lon="-2.4619530">
        <ele>445.2</ele>
        <time>2020-02-01T10:48:52Z</time>
      </trkpt>
      <trkpt lat="42.4156280" lon="-2.4620100">
        <ele>445.2</ele>
        <time>2020-02-01T10:48:53Z</time>
      </trkpt>
      <trkpt lat="42.4155740" lon="-2.4620400">
        <ele>445.2</ele>
        <time>2020-02-01T10:48:54Z</time>
      </trkpt>
      <trkpt lat="42.4155340" lon="-2.4620980">
        <ele>445.2</ele>
        <time>2020-02-01T10:48:55Z</time>
      </trkpt>
      <trkpt lat="42.4154830" lon="-2.4621310">
        <ele>445.2</ele>
        <time>2020-02-01T10:48:56Z</time>
      </trkpt>
      <trkpt lat="42.4154400" lon="-2.4621650">
        <ele>445.3</ele>
        <time>2020-02-01T10:48:57Z</time>
      </trkpt>
      <trkpt lat="42.4154020" lon="-2.4621450">
        <ele>445.3</ele>
        <time>2020-02-01T10:48:58Z</time>
      </trkpt>
      <trkpt lat="42.4153420" lon="-2.4622100">
        <ele>445.4</ele>
        <time>2020-02-01T10:48:59Z</time>
      </trkpt>
      <trkpt lat="42.4152910" lon="-2.4622430">
        <ele>445.5</ele>
        <time>2020-02-01T10:49:00Z</time>
      </trkpt>
      <trkpt lat="42.4152270" lon="-2.4622600">
        <ele>445.6</ele>
        <time>2020-02-01T10:49:01Z</time>
      </trkpt>
      <trkpt lat="42.4151700" lon="-2.4622890">
        <ele>445.8</ele>
        <time>2020-02-01T10:49:02Z</time>
      </trkpt>
      <trkpt lat="42.4151120" lon="-2.4623550">
        <ele>445.9</ele>
        <time>2020-02-01T10:49:03Z</time>
      </trkpt>
      <trkpt lat="42.4150420" lon="-2.4623950">
        <ele>446.1</ele>
        <time>2020-02-01T10:49:04Z</time>
      </trkpt>
      <trkpt lat="42.4149880" lon="-2.4624320">
        <ele>446.1</ele>
        <time>2020-02-01T10:49:05Z</time>
      </trkpt>
      <trkpt lat="42.4149330" lon="-2.4624670">
        <ele>446.2</ele>
        <time>2020-02-01T10:49:06Z</time>
      </trkpt>
      <trkpt lat="42.4148770" lon="-2.4625020">
        <ele>446.2</ele>
        <time>2020-02-01T10:49:07Z</time>
      </trkpt>
      <trkpt lat="42.4148170" lon="-2.4625360">
        <ele>446.3</ele>
        <time>2020-02-01T10:49:08Z</time>
      </trkpt>
      <trkpt lat="42.4147640" lon="-2.4625680">
        <ele>446.4</ele>
        <time>2020-02-01T10:49:09Z</time>
      </trkpt>
      <trkpt lat="42.4147530" lon="-2.4624770">
        <ele>446.5</ele>
        <time>2020-02-01T10:49:10Z</time>
      </trkpt>
      <trkpt lat="42.4146200" lon="-2.4624340">
        <ele>446.8</ele>
        <time>2020-02-01T10:49:11Z</time>
      </trkpt>
      <trkpt lat="42.4145600" lon="-2.4624310">
        <ele>446.9</ele>
        <time>2020-02-01T10:49:12Z</time>
      </trkpt>
      <trkpt lat="42.4144850" lon="-2.4623910">
        <ele>447.0</ele>
        <time>2020-02-01T10:49:13Z</time>
      </trkpt>
      <trkpt lat="42.4144260" lon="-2.4623860">
        <ele>447.1</ele>
        <time>2020-02-01T10:49:14Z</time>
      </trkpt>
      <trkpt lat="42.4143670" lon="-2.4623750">
        <ele>447.1</ele>
        <time>2020-02-01T10:49:15Z</time>
      </trkpt>
      <trkpt lat="42.4143020" lon="-2.4623700">
        <ele>447.2</ele>
        <time>2020-02-01T10:49:16Z</time>
      </trkpt>
      <trkpt lat="42.4142430" lon="-2.4623590">
        <ele>447.2</ele>
        <time>2020-02-01T10:49:17Z</time>
      </trkpt>
      <trkpt lat="42.4142860" lon="-2.4629140">
        <ele>447.3</ele>
        <time>2020-02-01T10:49:19Z</time>
      </trkpt>
      <trkpt lat="42.4142230" lon="-2.4629270">
        <ele>447.3</ele>
        <time>2020-02-01T10:49:20Z</time>
      </trkpt>
      <trkpt lat="42.4141410" lon="-2.4629380">
        <ele>447.4</ele>
        <time>2020-02-01T10:49:21Z</time>
      </trkpt>
      <trkpt lat="42.4141140" lon="-2.4630250">
        <ele>447.4</ele>
        <time>2020-02-01T10:49:22Z</time>
      </trkpt>
      <trkpt lat="42.4140540" lon="-2.4630640">
        <ele>447.5</ele>
        <time>2020-02-01T10:49:23Z</time>
      </trkpt>
      <trkpt lat="42.4140060" lon="-2.4631060">
        <ele>447.6</ele>
        <time>2020-02-01T10:49:24Z</time>
      </trkpt>
      <trkpt lat="42.4139560" lon="-2.4631490">
        <ele>447.6</ele>
        <time>2020-02-01T10:49:25Z</time>
      </trkpt>
      <trkpt lat="42.4138950" lon="-2.4631800">
        <ele>447.7</ele>
        <time>2020-02-01T10:49:26Z</time>
      </trkpt>
      <trkpt lat="42.4138520" lon="-2.4632140">
        <ele>447.7</ele>
        <time>2020-02-01T10:49:27Z</time>
      </trkpt>
      <trkpt lat="42.4137980" lon="-2.4632450">
        <ele>447.7</ele>
        <time>2020-02-01T10:49:28Z</time>
      </trkpt>
      <trkpt lat="42.4137450" lon="-2.4632770">
        <ele>447.7</ele>
        <time>2020-02-01T10:49:29Z</time>
      </trkpt>
      <trkpt lat="42.4136910" lon="-2.4633090">
        <ele>447.7</ele>
        <time>2020-02-01T10:49:30Z</time>
      </trkpt>
      <trkpt lat="42.4136370" lon="-2.4633410">
        <ele>447.7</ele>
        <time>2020-02-01T10:49:31Z</time>
      </trkpt>
      <trkpt lat="42.4135780" lon="-2.4633180">
        <ele>447.7</ele>
        <time>2020-02-01T10:49:32Z</time>
      </trkpt>
      <trkpt lat="42.4135490" lon="-2.4634060">
        <ele>447.8</ele>
        <time>2020-02-01T10:49:33Z</time>
      </trkpt>
      <trkpt lat="42.4134960" lon="-2.4634400">
        <ele>447.8</ele>
        <time>2020-02-01T10:49:34Z</time>
      </trkpt>
      <trkpt lat="42.4134320" lon="-2.4634690">
        <ele>447.9</ele>
        <time>2020-02-01T10:49:35Z</time>
      </trkpt>
      <trkpt lat="42.4133800" lon="-2.4635020">
        <ele>448.0</ele>
        <time>2020-02-01T10:49:36Z</time>
      </trkpt>
      <trkpt lat="42.4133260" lon="-2.4635340">
        <ele>448.2</ele>
        <time>2020-02-01T10:49:37Z</time>
      </trkpt>
      <trkpt lat="42.4132720" lon="-2.4635660">
        <ele>448.3</ele>
        <time>2020-02-01T10:49:38Z</time>
      </trkpt>
      <trkpt lat="42.4132130" lon="-2.4636040">
        <ele>448.4</ele>
        <time>2020-02-01T10:49:39Z</time>
      </trkpt>
      <trkpt lat="42.4131600" lon="-2.4636360">
        <ele>448.6</ele>
        <time>2020-02-01T10:49:40Z</time>
      </trkpt>
      <trkpt lat="42.4131060" lon="-2.4636680">
        <ele>448.7</ele>
        <time>2020-02-01T10:49:41Z</time>
      </trkpt>
      <trkpt lat="42.4130360" lon="-2.4637220">
        <ele>448.9</ele>
        <time>2020-02-01T10:49:42Z</time>
      </trkpt>
      <trkpt lat="42.4129860" lon="-2.4637460">
        <ele>449.0</ele>
        <time>2020-02-01T10:49:43Z</time>
      </trkpt>
      <trkpt lat="42.4129310" lon="-2.4637740">
        <ele>449.2</ele>
        <time>2020-02-01T10:49:44Z</time>
      </trkpt>
      <trkpt lat="42.4128430" lon="-2.4638090">
        <ele>449.4</ele>
        <time>2020-02-01T10:49:45Z</time>
      </trkpt>
      <trkpt lat="42.4127910" lon="-2.4638370">
        <ele>449.5</ele>
        <time>2020-02-01T10:49:46Z</time>
      </trkpt>
      <trkpt lat="42.4127380" lon="-2.4638650">
        <ele>449.6</ele>
        <time>2020-02-01T10:49:47Z</time>
      </trkpt>
      <trkpt lat="42.4126870" lon="-2.4638920">
        <ele>449.7</ele>
        <time>2020-02-01T10:49:48Z</time>
      </trkpt>
      <trkpt lat="42.4126790" lon="-2.4639770">
        <ele>449.9</ele>
        <time>2020-02-01T10:49:49Z</time>
      </trkpt>
      <trkpt lat="42.4125350" lon="-2.4639070">
        <ele>450.2</ele>
        <time>2020-02-01T10:49:51Z</time>
      </trkpt>
      <trkpt lat="42.4125530" lon="-2.4639630">
        <ele>450.3</ele>
        <time>2020-02-01T10:49:52Z</time>
      </trkpt>
      <trkpt lat="42.4124730" lon="-2.4641180">
        <ele>450.6</ele>
        <time>2020-02-01T10:49:53Z</time>
      </trkpt>
      <trkpt lat="42.4124280" lon="-2.4641030">
        <ele>450.7</ele>
        <time>2020-02-01T10:49:54Z</time>
      </trkpt>
      <trkpt lat="42.4123930" lon="-2.4641460">
        <ele>450.8</ele>
        <time>2020-02-01T10:49:55Z</time>
      </trkpt>
      <trkpt lat="42.4123460" lon="-2.4641700">
        <ele>451.0</ele>
        <time>2020-02-01T10:49:56Z</time>
      </trkpt>
      <trkpt lat="42.4122780" lon="-2.4642070">
        <ele>451.3</ele>
        <time>2020-02-01T10:49:57Z</time>
      </trkpt>
      <trkpt lat="42.4122330" lon="-2.4642410">
        <ele>451.5</ele>
        <time>2020-02-01T10:49:58Z</time>
      </trkpt>
      <trkpt lat="42.4121830" lon="-2.4642720">
        <ele>451.8</ele>
        <time>2020-02-01T10:49:59Z</time>
      </trkpt>
      <trkpt lat="42.4121350" lon="-2.4643010">
        <ele>452.0</ele>
        <time>2020-02-01T10:50:00Z</time>
      </trkpt>
      <trkpt lat="42.4120870" lon="-2.4643330">
        <ele>452.2</ele>
        <time>2020-02-01T10:50:01Z</time>
      </trkpt>
      <trkpt lat="42.4120510" lon="-2.4643880">
        <ele>452.4</ele>
        <time>2020-02-01T10:50:03Z</time>
      </trkpt>
      <trkpt lat="42.4120130" lon="-2.4644190">
        <ele>452.5</ele>
        <time>2020-02-01T10:50:04Z</time>
      </trkpt>
      <trkpt lat="42.4119740" lon="-2.4644460">
        <ele>452.7</ele>
        <time>2020-02-01T10:50:05Z</time>
      </trkpt>
      <trkpt lat="42.4119370" lon="-2.4644780">
        <ele>452.8</ele>
        <time>2020-02-01T10:50:06Z</time>
      </trkpt>
      <trkpt lat="42.4118990" lon="-2.4645100">
        <ele>453.0</ele>
        <time>2020-02-01T10:50:07Z</time>
      </trkpt>
      <trkpt lat="42.4118610" lon="-2.4645370">
        <ele>453.2</ele>
        <time>2020-02-01T10:50:08Z</time>
      </trkpt>
      <trkpt lat="42.4115790" lon="-2.4647110">
        <ele>454.5</ele>
        <time>2020-02-01T10:50:10Z</time>
      </trkpt>
      <trkpt lat="42.4115220" lon="-2.4647580">
        <ele>454.7</ele>
        <time>2020-02-01T10:50:11Z</time>
      </trkpt>
      <trkpt lat="42.4114590" lon="-2.4648210">
        <ele>455.4</ele>
        <time>2020-02-01T10:50:12Z</time>
      </trkpt>
      <trkpt lat="42.4114050" lon="-2.4648750">
        <ele>456.0</ele>
        <time>2020-02-01T10:50:13Z</time>
      </trkpt>
      <trkpt lat="42.4113460" lon="-2.4649230">
        <ele>456.5</ele>
        <time>2020-02-01T10:50:14Z</time>
      </trkpt>
      <trkpt lat="42.4112870" lon="-2.4649770">
        <ele>456.8</ele>
        <time>2020-02-01T10:50:15Z</time>
      </trkpt>
      <trkpt lat="42.4112280" lon="-2.4650250">
        <ele>457.1</ele>
        <time>2020-02-01T10:50:16Z</time>
      </trkpt>
      <trkpt lat="42.4111690" lon="-2.4650790">
        <ele>457.4</ele>
        <time>2020-02-01T10:50:17Z</time>
      </trkpt>
      <trkpt lat="42.4111100" lon="-2.4651320">
        <ele>457.6</ele>
        <time>2020-02-01T10:50:18Z</time>
      </trkpt>
      <trkpt lat="42.4110570" lon="-2.4651810">
        <ele>457.9</ele>
        <time>2020-02-01T10:50:19Z</time>
      </trkpt>
      <trkpt lat="42.4115820" lon="-2.4656960">
        <ele>460.4</ele>
        <time>2020-02-01T10:50:25Z</time>
      </trkpt>
      <trkpt lat="42.4115990" lon="-2.4657650">
        <ele>460.5</ele>
        <time>2020-02-01T10:50:26Z</time>
      </trkpt>
      <trkpt lat="42.4116150" lon="-2.4658350">
        <ele>460.7</ele>
        <time>2020-02-01T10:50:27Z</time>
      </trkpt>
      <trkpt lat="42.4116310" lon="-2.4659100">
        <ele>460.8</ele>
        <time>2020-02-01T10:50:28Z</time>
      </trkpt>
      <trkpt lat="42.4114150" lon="-2.4657930">
        <ele>461.2</ele>
        <time>2020-02-01T10:50:32Z</time>
      </trkpt>
      <trkpt lat="42.4113710" lon="-2.4658090">
        <ele>461.4</ele>
        <time>2020-02-01T10:50:33Z</time>
      </trkpt>
      <trkpt lat="42.4113150" lon="-2.4658960">
        <ele>461.7</ele>
        <time>2020-02-01T10:50:34Z</time>
      </trkpt>
      <trkpt lat="42.4112590" lon="-2.4659100">
        <ele>461.8</ele>
        <time>2020-02-01T10:50:35Z</time>
      </trkpt>
      <trkpt lat="42.4112070" lon="-2.4659000">
        <ele>461.9</ele>
        <time>2020-02-01T10:50:36Z</time>
      </trkpt>
      <trkpt lat="42.4111440" lon="-2.4659010">
        <ele>461.9</ele>
        <time>2020-02-01T10:50:37Z</time>
      </trkpt>
      <trkpt lat="42.4110890" lon="-2.4659060">
        <ele>461.8</ele>
        <time>2020-02-01T10:50:38Z</time>
      </trkpt>
      <trkpt lat="42.4110190" lon="-2.4659050">
        <ele>461.8</ele>
        <time>2020-02-01T10:50:39Z</time>
      </trkpt>
      <trkpt lat="42.4109660" lon="-2.4659160">
        <ele>461.7</ele>
        <time>2020-02-01T10:50:40Z</time>
      </trkpt>
      <trkpt lat="42.4109010" lon="-2.4659210">
        <ele>461.5</ele>
        <time>2020-02-01T10:50:41Z</time>
      </trkpt>
      <trkpt lat="42.4108480" lon="-2.4659260">
        <ele>461.4</ele>
        <time>2020-02-01T10:50:42Z</time>
      </trkpt>
      <trkpt lat="42.4107890" lon="-2.4659320">
        <ele>461.3</ele>
        <time>2020-02-01T10:50:43Z</time>
      </trkpt>
      <trkpt lat="42.4107300" lon="-2.4659430">
        <ele>461.2</ele>
        <time>2020-02-01T10:50:44Z</time>
      </trkpt>
      <trkpt lat="42.4106710" lon="-2.4659480">
        <ele>461.2</ele>
        <time>2020-02-01T10:50:45Z</time>
      </trkpt>
      <trkpt lat="42.4106120" lon="-2.4659530">
        <ele>461.2</ele>
        <time>2020-02-01T10:50:46Z</time>
      </trkpt>
      <trkpt lat="42.4103160" lon="-2.4658510">
        <ele>461.2</ele>
        <time>2020-02-01T10:50:50Z</time>
      </trkpt>
      <trkpt lat="42.4102850" lon="-2.4658640">
        <ele>461.3</ele>
        <time>2020-02-01T10:50:51Z</time>
      </trkpt>
      <trkpt lat="42.4102670" lon="-2.4658910">
        <ele>461.3</ele>
        <time>2020-02-01T10:50:52Z</time>
      </trkpt>
      <trkpt lat="42.4102060" lon="-2.4659090">
        <ele>461.3</ele>
        <time>2020-02-01T10:50:53Z</time>
      </trkpt>
      <trkpt lat="42.4101430" lon="-2.4659210">
        <ele>461.3</ele>
        <time>2020-02-01T10:50:54Z</time>
      </trkpt>
      <trkpt lat="42.4100910" lon="-2.4659200">
        <ele>461.3</ele>
        <time>2020-02-01T10:50:55Z</time>
      </trkpt>
      <trkpt lat="42.4100180" lon="-2.4659110">
        <ele>461.4</ele>
        <time>2020-02-01T10:50:56Z</time>
      </trkpt>
      <trkpt lat="42.4099620" lon="-2.4659100">
        <ele>461.4</ele>
        <time>2020-02-01T10:50:57Z</time>
      </trkpt>
      <trkpt lat="42.4099080" lon="-2.4659260">
        <ele>461.4</ele>
        <time>2020-02-01T10:50:58Z</time>
      </trkpt>
      <trkpt lat="42.4098390" lon="-2.4659220">
        <ele>461.4</ele>
        <time>2020-02-01T10:50:59Z</time>
      </trkpt>
      <trkpt lat="42.4097710" lon="-2.4659390">
        <ele>461.4</ele>
        <time>2020-02-01T10:51:00Z</time>
      </trkpt>
      <trkpt lat="42.4097170" lon="-2.4659680">
        <ele>461.3</ele>
        <time>2020-02-01T10:51:01Z</time>
      </trkpt>
      <trkpt lat="42.4096620" lon="-2.4659790">
        <ele>461.2</ele>
        <time>2020-02-01T10:51:02Z</time>
      </trkpt>
      <trkpt lat="42.4095810" lon="-2.4659740">
        <ele>461.0</ele>
        <time>2020-02-01T10:51:03Z</time>
      </trkpt>
      <trkpt lat="42.4095070" lon="-2.4659790">
        <ele>460.9</ele>
        <time>2020-02-01T10:51:04Z</time>
      </trkpt>
      <trkpt lat="42.4094420" lon="-2.4660130">
        <ele>460.7</ele>
        <time>2020-02-01T10:51:05Z</time>
      </trkpt>
      <trkpt lat="42.4093820" lon="-2.4660340">
        <ele>460.7</ele>
        <time>2020-02-01T10:51:06Z</time>
      </trkpt>
      <trkpt lat="42.4093260" lon="-2.4660540">
        <ele>460.7</ele>
        <time>2020-02-01T10:51:07Z</time>
      </trkpt>
      <trkpt lat="42.4092600" lon="-2.4660770">
        <ele>460.7</ele>
        <time>2020-02-01T10:51:08Z</time>
      </trkpt>
      <trkpt lat="42.4092010" lon="-2.4661220">
        <ele>460.7</ele>
        <time>2020-02-01T10:51:09Z</time>
      </trkpt>
      <trkpt lat="42.4091280" lon="-2.4661250">
        <ele>460.7</ele>
        <time>2020-02-01T10:51:10Z</time>
      </trkpt>
      <trkpt lat="42.4090730" lon="-2.4661680">
        <ele>460.7</ele>
        <time>2020-02-01T10:51:11Z</time>
      </trkpt>
      <trkpt lat="42.4090180" lon="-2.4662070">
        <ele>460.7</ele>
        <time>2020-02-01T10:51:12Z</time>
      </trkpt>
      <trkpt lat="42.4089540" lon="-2.4662380">
        <ele>460.7</ele>
        <time>2020-02-01T10:51:13Z</time>
      </trkpt>
      <trkpt lat="42.4088970" lon="-2.4662610">
        <ele>460.6</ele>
        <time>2020-02-01T10:51:14Z</time>
      </trkpt>
      <trkpt lat="42.4088340" lon="-2.4663020">
        <ele>460.6</ele>
        <time>2020-02-01T10:51:15Z</time>
      </trkpt>
      <trkpt lat="42.4087630" lon="-2.4663130">
        <ele>460.5</ele>
        <time>2020-02-01T10:51:16Z</time>
      </trkpt>
      <trkpt lat="42.4087030" lon="-2.4663300">
        <ele>460.3</ele>
        <time>2020-02-01T10:51:17Z</time>
      </trkpt>
      <trkpt lat="42.4086420" lon="-2.4663570">
        <ele>460.1</ele>
        <time>2020-02-01T10:51:18Z</time>
      </trkpt>
      <trkpt lat="42.4085810" lon="-2.4663840">
        <ele>460.0</ele>
        <time>2020-02-01T10:51:19Z</time>
      </trkpt>
      <trkpt lat="42.4085250" lon="-2.4664090">
        <ele>459.9</ele>
        <time>2020-02-01T10:51:20Z</time>
      </trkpt>
      <trkpt lat="42.4084600" lon="-2.4664360">
        <ele>459.9</ele>
        <time>2020-02-01T10:51:21Z</time>
      </trkpt>
      <trkpt lat="42.4083910" lon="-2.4665060">
        <ele>460.0</ele>
        <time>2020-02-01T10:51:23Z</time>
      </trkpt>
      <trkpt lat="42.4083420" lon="-2.4665270">
        <ele>460.2</ele>
        <time>2020-02-01T10:51:24Z</time>
      </trkpt>
      <trkpt lat="42.4082990" lon="-2.4665540">
        <ele>460.4</ele>
        <time>2020-02-01T10:51:25Z</time>
      </trkpt>
      <trkpt lat="42.4082430" lon="-2.4665760">
        <ele>460.6</ele>
        <time>2020-02-01T10:51:26Z</time>
      </trkpt>
      <trkpt lat="42.4081990" lon="-2.4666200">
        <ele>460.6</ele>
        <time>2020-02-01T10:51:27Z</time>
      </trkpt>
      <trkpt lat="42.4081420" lon="-2.4666540">
        <ele>460.6</ele>
        <time>2020-02-01T10:51:28Z</time>
      </trkpt>
      <trkpt lat="42.4080800" lon="-2.4666880">
        <ele>460.5</ele>
        <time>2020-02-01T10:51:29Z</time>
      </trkpt>
      <trkpt lat="42.4080230" lon="-2.4667220">
        <ele>460.5</ele>
        <time>2020-02-01T10:51:30Z</time>
      </trkpt>
      <trkpt lat="42.4079650" lon="-2.4667540">
        <ele>460.5</ele>
        <time>2020-02-01T10:51:31Z</time>
      </trkpt>
      <trkpt lat="42.4079100" lon="-2.4667640">
        <ele>460.5</ele>
        <time>2020-02-01T10:51:32Z</time>
      </trkpt>
      <trkpt lat="42.4078540" lon="-2.4667670">
        <ele>460.5</ele>
        <time>2020-02-01T10:51:33Z</time>
      </trkpt>
      <trkpt lat="42.4077950" lon="-2.4667900">
        <ele>460.5</ele>
        <time>2020-02-01T10:51:34Z</time>
      </trkpt>
      <trkpt lat="42.4077390" lon="-2.4668110">
        <ele>460.5</ele>
        <time>2020-02-01T10:51:35Z</time>
      </trkpt>
      <trkpt lat="42.4076830" lon="-2.4668330">
        <ele>460.5</ele>
        <time>2020-02-01T10:51:36Z</time>
      </trkpt>
      <trkpt lat="42.4076240" lon="-2.4668540">
        <ele>460.4</ele>
        <time>2020-02-01T10:51:37Z</time>
      </trkpt>
      <trkpt lat="42.4075650" lon="-2.4668760">
        <ele>460.4</ele>
        <time>2020-02-01T10:51:38Z</time>
      </trkpt>
      <trkpt lat="42.4075110" lon="-2.4668970">
        <ele>460.4</ele>
        <time>2020-02-01T10:51:39Z</time>
      </trkpt>
      <trkpt lat="42.4074090" lon="-2.4669890">
        <ele>460.5</ele>
        <time>2020-02-01T10:51:40Z</time>
      </trkpt>
      <trkpt lat="42.4073490" lon="-2.4670140">
        <ele>460.5</ele>
        <time>2020-02-01T10:51:41Z</time>
      </trkpt>
      <trkpt lat="42.4072880" lon="-2.4670420">
        <ele>460.6</ele>
        <time>2020-02-01T10:51:42Z</time>
      </trkpt>
      <trkpt lat="42.4072270" lon="-2.4670690">
        <ele>460.6</ele>
        <time>2020-02-01T10:51:43Z</time>
      </trkpt>
      <trkpt lat="42.4071680" lon="-2.4670960">
        <ele>460.7</ele>
        <time>2020-02-01T10:51:44Z</time>
      </trkpt>
      <trkpt lat="42.4071090" lon="-2.4671230">
        <ele>460.7</ele>
        <time>2020-02-01T10:51:45Z</time>
      </trkpt>
      <trkpt lat="42.4070500" lon="-2.4671490">
        <ele>460.8</ele>
        <time>2020-02-01T10:51:46Z</time>
      </trkpt>
      <trkpt lat="42.4069910" lon="-2.4671820">
        <ele>460.9</ele>
        <time>2020-02-01T10:51:47Z</time>
      </trkpt>
      <trkpt lat="42.4069320" lon="-2.4672090">
        <ele>461.0</ele>
        <time>2020-02-01T10:51:48Z</time>
      </trkpt>
      <trkpt lat="42.4068730" lon="-2.4672350">
        <ele>461.0</ele>
        <time>2020-02-01T10:51:49Z</time>
      </trkpt>
      <trkpt lat="42.4068140" lon="-2.4672620">
        <ele>461.1</ele>
        <time>2020-02-01T10:51:50Z</time>
      </trkpt>
      <trkpt lat="42.4067490" lon="-2.4672890">
        <ele>461.2</ele>
        <time>2020-02-01T10:51:51Z</time>
      </trkpt>
      <trkpt lat="42.4066950" lon="-2.4673160">
        <ele>461.3</ele>
        <time>2020-02-01T10:51:52Z</time>
      </trkpt>
      <trkpt lat="42.4064650" lon="-2.4676270">
        <ele>461.3</ele>
        <time>2020-02-01T10:51:59Z</time>
      </trkpt>
      <trkpt lat="42.4063870" lon="-2.4676380">
        <ele>461.2</ele>
        <time>2020-02-01T10:52:00Z</time>
      </trkpt>
      <trkpt lat="42.4063310" lon="-2.4676670">
        <ele>461.2</ele>
        <time>2020-02-01T10:52:01Z</time>
      </trkpt>
      <trkpt lat="42.4062640" lon="-2.4677010">
        <ele>461.1</ele>
        <time>2020-02-01T10:52:02Z</time>
      </trkpt>
      <trkpt lat="42.4062020" lon="-2.4677340">
        <ele>461.1</ele>
        <time>2020-02-01T10:52:03Z</time>
      </trkpt>
      <trkpt lat="42.4061650" lon="-2.4677240">
        <ele>461.0</ele>
        <time>2020-02-01T10:52:04Z</time>
      </trkpt>
      <trkpt lat="42.4060800" lon="-2.4678170">
        <ele>461.0</ele>
        <time>2020-02-01T10:52:05Z</time>
      </trkpt>
      <trkpt lat="42.4060100" lon="-2.4678610">
        <ele>460.9</ele>
        <time>2020-02-01T10:52:07Z</time>
      </trkpt>
      <trkpt lat="42.4059510" lon="-2.4678920">
        <ele>460.9</ele>
        <time>2020-02-01T10:52:08Z</time>
      </trkpt>
      <trkpt lat="42.4058940" lon="-2.4679250">
        <ele>460.9</ele>
        <time>2020-02-01T10:52:09Z</time>
      </trkpt>
      <trkpt lat="42.4058500" lon="-2.4679590">
        <ele>460.9</ele>
        <time>2020-02-01T10:52:10Z</time>
      </trkpt>
      <trkpt lat="42.4057960" lon="-2.4679910">
        <ele>460.9</ele>
        <time>2020-02-01T10:52:11Z</time>
      </trkpt>
      <trkpt lat="42.4057430" lon="-2.4680230">
        <ele>460.9</ele>
        <time>2020-02-01T10:52:12Z</time>
      </trkpt>
      <trkpt lat="42.4056310" lon="-2.4680450">
        <ele>460.9</ele>
        <time>2020-02-01T10:52:14Z</time>
      </trkpt>
      <trkpt lat="42.4055590" lon="-2.4680380">
        <ele>460.9</ele>
        <time>2020-02-01T10:52:15Z</time>
      </trkpt>
      <trkpt lat="42.4054900" lon="-2.4680630">
        <ele>460.7</ele>
        <time>2020-02-01T10:52:16Z</time>
      </trkpt>
      <trkpt lat="42.4054130" lon="-2.4680880">
        <ele>460.6</ele>
        <time>2020-02-01T10:52:17Z</time>
      </trkpt>
      <trkpt lat="42.4053570" lon="-2.4681190">
        <ele>460.5</ele>
        <time>2020-02-01T10:52:18Z</time>
      </trkpt>
      <trkpt lat="42.4053040" lon="-2.4681600">
        <ele>460.4</ele>
        <time>2020-02-01T10:52:19Z</time>
      </trkpt>
      <trkpt lat="42.4052530" lon="-2.4681830">
        <ele>460.3</ele>
        <time>2020-02-01T10:52:20Z</time>
      </trkpt>
      <trkpt lat="42.4052060" lon="-2.4682150">
        <ele>460.2</ele>
        <time>2020-02-01T10:52:21Z</time>
      </trkpt>
      <trkpt lat="42.4051540" lon="-2.4682530">
        <ele>460.1</ele>
        <time>2020-02-01T10:52:22Z</time>
      </trkpt>
      <trkpt lat="42.4051010" lon="-2.4682900">
        <ele>460.0</ele>
        <time>2020-02-01T10:52:23Z</time>
      </trkpt>
      <trkpt lat="42.4050550" lon="-2.4683330">
        <ele>460.0</ele>
        <time>2020-02-01T10:52:24Z</time>
      </trkpt>
      <trkpt lat="42.4049900" lon="-2.4683750">
        <ele>460.0</ele>
        <time>2020-02-01T10:52:25Z</time>
      </trkpt>
      <trkpt lat="42.4049410" lon="-2.4683770">
        <ele>460.0</ele>
        <time>2020-02-01T10:52:26Z</time>
      </trkpt>
      <trkpt lat="42.4048860" lon="-2.4684090">
        <ele>460.0</ele>
        <time>2020-02-01T10:52:27Z</time>
      </trkpt>
      <trkpt lat="42.4048130" lon="-2.4684150">
        <ele>460.0</ele>
        <time>2020-02-01T10:52:28Z</time>
      </trkpt>
      <trkpt lat="42.4047370" lon="-2.4684290">
        <ele>460.0</ele>
        <time>2020-02-01T10:52:29Z</time>
      </trkpt>
      <trkpt lat="42.4046620" lon="-2.4684400">
        <ele>460.0</ele>
        <time>2020-02-01T10:52:30Z</time>
      </trkpt>
      <trkpt lat="42.4046340" lon="-2.4684990">
        <ele>460.0</ele>
        <time>2020-02-01T10:52:31Z</time>
      </trkpt>
      <trkpt lat="42.4045840" lon="-2.4685340">
        <ele>460.0</ele>
        <time>2020-02-01T10:52:32Z</time>
      </trkpt>
      <trkpt lat="42.4045340" lon="-2.4685870">
        <ele>460.0</ele>
        <time>2020-02-01T10:52:33Z</time>
      </trkpt>
      <trkpt lat="42.4044720" lon="-2.4686060">
        <ele>460.0</ele>
        <time>2020-02-01T10:52:34Z</time>
      </trkpt>
      <trkpt lat="42.4044150" lon="-2.4686440">
        <ele>460.0</ele>
        <time>2020-02-01T10:52:35Z</time>
      </trkpt>
      <trkpt lat="42.4043570" lon="-2.4686910">
        <ele>460.1</ele>
        <time>2020-02-01T10:52:36Z</time>
      </trkpt>
      <trkpt lat="42.4042890" lon="-2.4687060">
        <ele>460.1</ele>
        <time>2020-02-01T10:52:37Z</time>
      </trkpt>
      <trkpt lat="42.4042280" lon="-2.4687210">
        <ele>460.1</ele>
        <time>2020-02-01T10:52:38Z</time>
      </trkpt>
      <trkpt lat="42.4041640" lon="-2.4687610">
        <ele>460.1</ele>
        <time>2020-02-01T10:52:39Z</time>
      </trkpt>
      <trkpt lat="42.4041190" lon="-2.4687890">
        <ele>460.1</ele>
        <time>2020-02-01T10:52:40Z</time>
      </trkpt>
      <trkpt lat="42.4040610" lon="-2.4688140">
        <ele>460.1</ele>
        <time>2020-02-01T10:52:41Z</time>
      </trkpt>
      <trkpt lat="42.4039960" lon="-2.4688360">
        <ele>460.1</ele>
        <time>2020-02-01T10:52:42Z</time>
      </trkpt>
      <trkpt lat="42.4039590" lon="-2.4688840">
        <ele>460.1</ele>
        <time>2020-02-01T10:52:43Z</time>
      </trkpt>
      <trkpt lat="42.4039040" lon="-2.4689140">
        <ele>460.1</ele>
        <time>2020-02-01T10:52:44Z</time>
      </trkpt>
      <trkpt lat="42.4038500" lon="-2.4689450">
        <ele>460.1</ele>
        <time>2020-02-01T10:52:45Z</time>
      </trkpt>
      <trkpt lat="42.4037930" lon="-2.4689790">
        <ele>460.1</ele>
        <time>2020-02-01T10:52:46Z</time>
      </trkpt>
      <trkpt lat="42.4037400" lon="-2.4690060">
        <ele>460.1</ele>
        <time>2020-02-01T10:52:47Z</time>
      </trkpt>
      <trkpt lat="42.4036860" lon="-2.4690380">
        <ele>460.1</ele>
        <time>2020-02-01T10:52:48Z</time>
      </trkpt>
      <trkpt lat="42.4035790" lon="-2.4689950">
        <ele>460.1</ele>
        <time>2020-02-01T10:52:49Z</time>
      </trkpt>
      <trkpt lat="42.4035310" lon="-2.4690370">
        <ele>460.1</ele>
        <time>2020-02-01T10:52:50Z</time>
      </trkpt>
      <trkpt lat="42.4034660" lon="-2.4690670">
        <ele>460.2</ele>
        <time>2020-02-01T10:52:51Z</time>
      </trkpt>
      <trkpt lat="42.4034140" lon="-2.4690930">
        <ele>460.2</ele>
        <time>2020-02-01T10:52:52Z</time>
      </trkpt>
      <trkpt lat="42.4033640" lon="-2.4691130">
        <ele>460.2</ele>
        <time>2020-02-01T10:52:53Z</time>
      </trkpt>
      <trkpt lat="42.4033110" lon="-2.4691400">
        <ele>460.2</ele>
        <time>2020-02-01T10:52:54Z</time>
      </trkpt>
      <trkpt lat="42.4032570" lon="-2.4691670">
        <ele>460.2</ele>
        <time>2020-02-01T10:52:55Z</time>
      </trkpt>
      <trkpt lat="42.4032270" lon="-2.4692860">
        <ele>460.2</ele>
        <time>2020-02-01T10:52:56Z</time>
      </trkpt>
      <trkpt lat="42.4031780" lon="-2.4693390">
        <ele>460.2</ele>
        <time>2020-02-01T10:52:57Z</time>
      </trkpt>
      <trkpt lat="42.4031210" lon="-2.4693680">
        <ele>460.2</ele>
        <time>2020-02-01T10:52:58Z</time>
      </trkpt>
      <trkpt lat="42.4030800" lon="-2.4693970">
        <ele>460.2</ele>
        <time>2020-02-01T10:52:59Z</time>
      </trkpt>
      <trkpt lat="42.4030420" lon="-2.4694280">
        <ele>460.2</ele>
        <time>2020-02-01T10:53:00Z</time>
      </trkpt>
      <trkpt lat="42.4030170" lon="-2.4694820">
        <ele>460.3</ele>
        <time>2020-02-01T10:53:01Z</time>
      </trkpt>
      <trkpt lat="42.4029620" lon="-2.4695110">
        <ele>460.3</ele>
        <time>2020-02-01T10:53:02Z</time>
      </trkpt>
      <trkpt lat="42.4029090" lon="-2.4695400">
        <ele>460.4</ele>
        <time>2020-02-01T10:53:03Z</time>
      </trkpt>
      <trkpt lat="42.4028560" lon="-2.4695690">
        <ele>460.5</ele>
        <time>2020-02-01T10:53:04Z</time>
      </trkpt>
      <trkpt lat="42.4028020" lon="-2.4695990">
        <ele>460.7</ele>
        <time>2020-02-01T10:53:05Z</time>
      </trkpt>
      <trkpt lat="42.4027290" lon="-2.4696420">
        <ele>460.9</ele>
        <time>2020-02-01T10:53:06Z</time>
      </trkpt>
      <trkpt lat="42.4026760" lon="-2.4696760">
        <ele>461.0</ele>
        <time>2020-02-01T10:53:07Z</time>
      </trkpt>
      <trkpt lat="42.4026230" lon="-2.4697100">
        <ele>461.1</ele>
        <time>2020-02-01T10:53:08Z</time>
      </trkpt>
      <trkpt lat="42.4025700" lon="-2.4697460">
        <ele>461.2</ele>
        <time>2020-02-01T10:53:09Z</time>
      </trkpt>
      <trkpt lat="42.4025170" lon="-2.4697780">
        <ele>461.2</ele>
        <time>2020-02-01T10:53:10Z</time>
      </trkpt>
      <trkpt lat="42.4024630" lon="-2.4698160">
        <ele>461.2</ele>
        <time>2020-02-01T10:53:11Z</time>
      </trkpt>
      <trkpt lat="42.4024150" lon="-2.4698480">
        <ele>461.3</ele>
        <time>2020-02-01T10:53:12Z</time>
      </trkpt>
      <trkpt lat="42.4022180" lon="-2.4696790">
        <ele>461.3</ele>
        <time>2020-02-01T10:53:14Z</time>
      </trkpt>
      <trkpt lat="42.4021510" lon="-2.4696850">
        <ele>461.3</ele>
        <time>2020-02-01T10:53:15Z</time>
      </trkpt>
      <trkpt lat="42.4020870" lon="-2.4696870">
        <ele>461.3</ele>
        <time>2020-02-01T10:53:16Z</time>
      </trkpt>
      <trkpt lat="42.4020230" lon="-2.4696920">
        <ele>461.3</ele>
        <time>2020-02-01T10:53:17Z</time>
      </trkpt>
      <trkpt lat="42.4019530" lon="-2.4696980">
        <ele>461.3</ele>
        <time>2020-02-01T10:53:18Z</time>
      </trkpt>
      <trkpt lat="42.4018840" lon="-2.4697030">
        <ele>461.3</ele>
        <time>2020-02-01T10:53:19Z</time>
      </trkpt>
      <trkpt lat="42.4018190" lon="-2.4697080">
        <ele>461.3</ele>
        <time>2020-02-01T10:53:20Z</time>
      </trkpt>
      <trkpt lat="42.4017490" lon="-2.4697140">
        <ele>461.3</ele>
        <time>2020-02-01T10:53:21Z</time>
      </trkpt>
      <trkpt lat="42.4016800" lon="-2.4697190">
        <ele>461.4</ele>
        <time>2020-02-01T10:53:22Z</time>
      </trkpt>
      <trkpt lat="42.4016100" lon="-2.4697240">
        <ele>461.4</ele>
        <time>2020-02-01T10:53:23Z</time>
      </trkpt>
      <trkpt lat="42.4015400" lon="-2.4697300">
        <ele>461.4</ele>
        <time>2020-02-01T10:53:24Z</time>
      </trkpt>
      <trkpt lat="42.4013900" lon="-2.4701370">
        <ele>461.5</ele>
        <time>2020-02-01T10:53:29Z</time>
      </trkpt>
      <trkpt lat="42.4013360" lon="-2.4701700">
        <ele>461.6</ele>
        <time>2020-02-01T10:53:30Z</time>
      </trkpt>
      <trkpt lat="42.4012840" lon="-2.4702050">
        <ele>461.7</ele>
        <time>2020-02-01T10:53:31Z</time>
      </trkpt>
      <trkpt lat="42.4012240" lon="-2.4702880">
        <ele>461.8</ele>
        <time>2020-02-01T10:53:32Z</time>
      </trkpt>
      <trkpt lat="42.4011700" lon="-2.4703200">
        <ele>461.9</ele>
        <time>2020-02-01T10:53:33Z</time>
      </trkpt>
      <trkpt lat="42.4011160" lon="-2.4703570">
        <ele>462.0</ele>
        <time>2020-02-01T10:53:34Z</time>
      </trkpt>
      <trkpt lat="42.4010630" lon="-2.4703950">
        <ele>462.0</ele>
        <time>2020-02-01T10:53:35Z</time>
      </trkpt>
      <trkpt lat="42.4010090" lon="-2.4704270">
        <ele>462.0</ele>
        <time>2020-02-01T10:53:36Z</time>
      </trkpt>
      <trkpt lat="42.4009560" lon="-2.4704650">
        <ele>462.0</ele>
        <time>2020-02-01T10:53:37Z</time>
      </trkpt>
      <trkpt lat="42.4009070" lon="-2.4705020">
        <ele>462.0</ele>
        <time>2020-02-01T10:53:38Z</time>
      </trkpt>
      <trkpt lat="42.4005690" lon="-2.4706040">
        <ele>462.5</ele>
        <time>2020-02-01T10:53:44Z</time>
      </trkpt>
      <trkpt lat="42.4005150" lon="-2.4706390">
        <ele>462.7</ele>
        <time>2020-02-01T10:53:45Z</time>
      </trkpt>
      <trkpt lat="42.4004600" lon="-2.4706690">
        <ele>462.8</ele>
        <time>2020-02-01T10:53:46Z</time>
      </trkpt>
      <trkpt lat="42.4004050" lon="-2.4707000">
        <ele>462.8</ele>
        <time>2020-02-01T10:53:47Z</time>
      </trkpt>
      <trkpt lat="42.4003600" lon="-2.4707440">
        <ele>462.8</ele>
        <time>2020-02-01T10:53:48Z</time>
      </trkpt>
      <trkpt lat="42.4003120" lon="-2.4707760">
        <ele>462.9</ele>
        <time>2020-02-01T10:53:49Z</time>
      </trkpt>
      <trkpt lat="42.4002530" lon="-2.4708080">
        <ele>462.9</ele>
        <time>2020-02-01T10:53:50Z</time>
      </trkpt>
      <trkpt lat="42.4001990" lon="-2.4708400">
        <ele>462.9</ele>
        <time>2020-02-01T10:53:51Z</time>
      </trkpt>
      <trkpt lat="42.4001460" lon="-2.4708670">
        <ele>462.9</ele>
        <time>2020-02-01T10:53:52Z</time>
      </trkpt>
      <trkpt lat="42.4000330" lon="-2.4708620">
        <ele>462.9</ele>
        <time>2020-02-01T10:53:53Z</time>
      </trkpt>
      <trkpt lat="42.3999780" lon="-2.4709520">
        <ele>463.0</ele>
        <time>2020-02-01T10:53:54Z</time>
      </trkpt>
      <trkpt lat="42.3999250" lon="-2.4709530">
        <ele>463.0</ele>
        <time>2020-02-01T10:53:55Z</time>
      </trkpt>
      <trkpt lat="42.3998890" lon="-2.4710260">
        <ele>463.0</ele>
        <time>2020-02-01T10:53:56Z</time>
      </trkpt>
      <trkpt lat="42.3998440" lon="-2.4710510">
        <ele>463.1</ele>
        <time>2020-02-01T10:53:57Z</time>
      </trkpt>
      <trkpt lat="42.3997950" lon="-2.4710970">
        <ele>463.2</ele>
        <time>2020-02-01T10:53:58Z</time>
      </trkpt>
      <trkpt lat="42.3997480" lon="-2.4711230">
        <ele>463.2</ele>
        <time>2020-02-01T10:53:59Z</time>
      </trkpt>
      <trkpt lat="42.3997160" lon="-2.4711570">
        <ele>463.3</ele>
        <time>2020-02-01T10:54:00Z</time>
      </trkpt>
      <trkpt lat="42.3996480" lon="-2.4711810">
        <ele>463.4</ele>
        <time>2020-02-01T10:54:01Z</time>
      </trkpt>
      <trkpt lat="42.3995990" lon="-2.4712180">
        <ele>463.5</ele>
        <time>2020-02-01T10:54:02Z</time>
      </trkpt>
      <trkpt lat="42.3995450" lon="-2.4712530">
        <ele>463.6</ele>
        <time>2020-02-01T10:54:03Z</time>
      </trkpt>
      <trkpt lat="42.3994900" lon="-2.4712890">
        <ele>463.6</ele>
        <time>2020-02-01T10:54:04Z</time>
      </trkpt>
      <trkpt lat="42.3994370" lon="-2.4713230">
        <ele>463.7</ele>
        <time>2020-02-01T10:54:05Z</time>
      </trkpt>
      <trkpt lat="42.3993840" lon="-2.4713610">
        <ele>463.7</ele>
        <time>2020-02-01T10:54:06Z</time>
      </trkpt>
      <trkpt lat="42.3993250" lon="-2.4713930">
        <ele>463.8</ele>
        <time>2020-02-01T10:54:07Z</time>
      </trkpt>
      <trkpt lat="42.3992030" lon="-2.4713670">
        <ele>463.9</ele>
        <time>2020-02-01T10:54:08Z</time>
      </trkpt>
      <trkpt lat="42.3991480" lon="-2.4713960">
        <ele>464.0</ele>
        <time>2020-02-01T10:54:09Z</time>
      </trkpt>
      <trkpt lat="42.3990940" lon="-2.4714260">
        <ele>464.0</ele>
        <time>2020-02-01T10:54:10Z</time>
      </trkpt>
      <trkpt lat="42.3990400" lon="-2.4714570">
        <ele>464.1</ele>
        <time>2020-02-01T10:54:11Z</time>
      </trkpt>
      <trkpt lat="42.3989810" lon="-2.4714840">
        <ele>464.7</ele>
        <time>2020-02-01T10:54:12Z</time>
      </trkpt>
      <trkpt lat="42.3989280" lon="-2.4715160">
        <ele>464.9</ele>
        <time>2020-02-01T10:54:13Z</time>
      </trkpt>
      <trkpt lat="42.3988740" lon="-2.4715430">
        <ele>465.2</ele>
        <time>2020-02-01T10:54:14Z</time>
      </trkpt>
      <trkpt lat="42.3988260" lon="-2.4715640">
        <ele>465.3</ele>
        <time>2020-02-01T10:54:16Z</time>
      </trkpt>
      <trkpt lat="42.3987630" lon="-2.4716310">
        <ele>465.6</ele>
        <time>2020-02-01T10:54:17Z</time>
      </trkpt>
      <trkpt lat="42.3987080" lon="-2.4716840">
        <ele>465.7</ele>
        <time>2020-02-01T10:54:18Z</time>
      </trkpt>
      <trkpt lat="42.3986530" lon="-2.4717150">
        <ele>465.8</ele>
        <time>2020-02-01T10:54:19Z</time>
      </trkpt>
      <trkpt lat="42.3985990" lon="-2.4717470">
        <ele>465.8</ele>
        <time>2020-02-01T10:54:20Z</time>
      </trkpt>
      <trkpt lat="42.3985470" lon="-2.4717790">
        <ele>465.7</ele>
        <time>2020-02-01T10:54:21Z</time>
      </trkpt>
      <trkpt lat="42.3984880" lon="-2.4718110">
        <ele>465.6</ele>
        <time>2020-02-01T10:54:22Z</time>
      </trkpt>
      <trkpt lat="42.3984340" lon="-2.4718110">
        <ele>465.5</ele>
        <time>2020-02-01T10:54:23Z</time>
      </trkpt>
      <trkpt lat="42.3983810" lon="-2.4718440">
        <ele>465.4</ele>
        <time>2020-02-01T10:54:24Z</time>
      </trkpt>
      <trkpt lat="42.3983260" lon="-2.4718740">
        <ele>465.3</ele>
        <time>2020-02-01T10:54:25Z</time>
      </trkpt>
      <trkpt lat="42.3982730" lon="-2.4719020">
        <ele>465.2</ele>
        <time>2020-02-01T10:54:26Z</time>
      </trkpt>
      <trkpt lat="42.3982140" lon="-2.4719350">
        <ele>465.2</ele>
        <time>2020-02-01T10:54:27Z</time>
      </trkpt>
      <trkpt lat="42.3981800" lon="-2.4719870">
        <ele>465.2</ele>
        <time>2020-02-01T10:54:28Z</time>
      </trkpt>
      <trkpt lat="42.3981370" lon="-2.4719840">
        <ele>465.2</ele>
        <time>2020-02-01T10:54:29Z</time>
      </trkpt>
      <trkpt lat="42.3980820" lon="-2.4720130">
        <ele>465.2</ele>
        <time>2020-02-01T10:54:30Z</time>
      </trkpt>
      <trkpt lat="42.3980270" lon="-2.4720420">
        <ele>465.2</ele>
        <time>2020-02-01T10:54:31Z</time>
      </trkpt>
      <trkpt lat="42.3979730" lon="-2.4720690">
        <ele>465.2</ele>
        <time>2020-02-01T10:54:32Z</time>
      </trkpt>
      <trkpt lat="42.3979140" lon="-2.4721010">
        <ele>465.2</ele>
        <time>2020-02-01T10:54:33Z</time>
      </trkpt>
      <trkpt lat="42.3978600" lon="-2.4721330">
        <ele>465.2</ele>
        <time>2020-02-01T10:54:34Z</time>
      </trkpt>
      <trkpt lat="42.3977850" lon="-2.4721650">
        <ele>465.2</ele>
        <time>2020-02-01T10:54:35Z</time>
      </trkpt>
      <trkpt lat="42.3977150" lon="-2.4721970">
        <ele>465.2</ele>
        <time>2020-02-01T10:54:36Z</time>
      </trkpt>
      <trkpt lat="42.3976580" lon="-2.4722390">
        <ele>465.2</ele>
        <time>2020-02-01T10:54:37Z</time>
      </trkpt>
      <trkpt lat="42.3976030" lon="-2.4722670">
        <ele>465.2</ele>
        <time>2020-02-01T10:54:38Z</time>
      </trkpt>
      <trkpt lat="42.3975690" lon="-2.4722950">
        <ele>465.2</ele>
        <time>2020-02-01T10:54:39Z</time>
      </trkpt>
      <trkpt lat="42.3975240" lon="-2.4723240">
        <ele>465.2</ele>
        <time>2020-02-01T10:54:40Z</time>
      </trkpt>
      <trkpt lat="42.3974740" lon="-2.4723530">
        <ele>465.3</ele>
        <time>2020-02-01T10:54:41Z</time>
      </trkpt>
      <trkpt lat="42.3974140" lon="-2.4723650">
        <ele>465.3</ele>
        <time>2020-02-01T10:54:42Z</time>
      </trkpt>
      <trkpt lat="42.3973610" lon="-2.4724060">
        <ele>465.3</ele>
        <time>2020-02-01T10:54:43Z</time>
      </trkpt>
      <trkpt lat="42.3973100" lon="-2.4724410">
        <ele>465.3</ele>
        <time>2020-02-01T10:54:44Z</time>
      </trkpt>
      <trkpt lat="42.3972590" lon="-2.4724760">
        <ele>465.3</ele>
        <time>2020-02-01T10:54:45Z</time>
      </trkpt>
      <trkpt lat="42.3972060" lon="-2.4725140">
        <ele>465.3</ele>
        <time>2020-02-01T10:54:46Z</time>
      </trkpt>
      <trkpt lat="42.3971190" lon="-2.4725350">
        <ele>465.3</ele>
        <time>2020-02-01T10:54:47Z</time>
      </trkpt>
      <trkpt lat="42.3970560" lon="-2.4725630">
        <ele>465.4</ele>
        <time>2020-02-01T10:54:48Z</time>
      </trkpt>
      <trkpt lat="42.3970000" lon="-2.4725930">
        <ele>465.5</ele>
        <time>2020-02-01T10:54:49Z</time>
      </trkpt>
      <trkpt lat="42.3969510" lon="-2.4726360">
        <ele>465.6</ele>
        <time>2020-02-01T10:54:50Z</time>
      </trkpt>
      <trkpt lat="42.3968810" lon="-2.4726730">
        <ele>465.8</ele>
        <time>2020-02-01T10:54:51Z</time>
      </trkpt>
      <trkpt lat="42.3968250" lon="-2.4727080">
        <ele>466.0</ele>
        <time>2020-02-01T10:54:52Z</time>
      </trkpt>
      <trkpt lat="42.3967800" lon="-2.4727350">
        <ele>466.1</ele>
        <time>2020-02-01T10:54:53Z</time>
      </trkpt>
      <trkpt lat="42.3967190" lon="-2.4727620">
        <ele>466.2</ele>
        <time>2020-02-01T10:54:54Z</time>
      </trkpt>
      <trkpt lat="42.3966650" lon="-2.4728020">
        <ele>466.2</ele>
        <time>2020-02-01T10:54:55Z</time>
      </trkpt>
      <trkpt lat="42.3966130" lon="-2.4728440">
        <ele>466.3</ele>
        <time>2020-02-01T10:54:56Z</time>
      </trkpt>
      <trkpt lat="42.3965480" lon="-2.4728720">
        <ele>466.3</ele>
        <time>2020-02-01T10:54:57Z</time>
      </trkpt>
      <trkpt lat="42.3964800" lon="-2.4728850">
        <ele>466.3</ele>
        <time>2020-02-01T10:54:58Z</time>
      </trkpt>
      <trkpt lat="42.3964210" lon="-2.4729090">
        <ele>466.3</ele>
        <time>2020-02-01T10:54:59Z</time>
      </trkpt>
      <trkpt lat="42.3963800" lon="-2.4729430">
        <ele>466.3</ele>
        <time>2020-02-01T10:55:00Z</time>
      </trkpt>
      <trkpt lat="42.3963290" lon="-2.4729750">
        <ele>466.4</ele>
        <time>2020-02-01T10:55:01Z</time>
      </trkpt>
      <trkpt lat="42.3962770" lon="-2.4730080">
        <ele>466.4</ele>
        <time>2020-02-01T10:55:02Z</time>
      </trkpt>
      <trkpt lat="42.3962200" lon="-2.4730570">
        <ele>466.4</ele>
        <time>2020-02-01T10:55:04Z</time>
      </trkpt>
      <trkpt lat="42.3961760" lon="-2.4730850">
        <ele>466.5</ele>
        <time>2020-02-01T10:55:05Z</time>
      </trkpt>
      <trkpt lat="42.3961330" lon="-2.4731150">
        <ele>466.6</ele>
        <time>2020-02-01T10:55:06Z</time>
      </trkpt>
      <trkpt lat="42.3960900" lon="-2.4731420">
        <ele>466.8</ele>
        <time>2020-02-01T10:55:07Z</time>
      </trkpt>
      <trkpt lat="42.3960420" lon="-2.4731680">
        <ele>466.9</ele>
        <time>2020-02-01T10:55:08Z</time>
      </trkpt>
      <trkpt lat="42.3959990" lon="-2.4731950">
        <ele>467.0</ele>
        <time>2020-02-01T10:55:09Z</time>
      </trkpt>
      <trkpt lat="42.3958920" lon="-2.4731900">
        <ele>467.2</ele>
        <time>2020-02-01T10:55:10Z</time>
      </trkpt>
      <trkpt lat="42.3958390" lon="-2.4732200">
        <ele>467.3</ele>
        <time>2020-02-01T10:55:11Z</time>
      </trkpt>
      <trkpt lat="42.3957870" lon="-2.4732510">
        <ele>467.3</ele>
        <time>2020-02-01T10:55:12Z</time>
      </trkpt>
      <trkpt lat="42.3957250" lon="-2.4732810">
        <ele>467.4</ele>
        <time>2020-02-01T10:55:13Z</time>
      </trkpt>
      <trkpt lat="42.3956720" lon="-2.4733130">
        <ele>467.4</ele>
        <time>2020-02-01T10:55:14Z</time>
      </trkpt>
      <trkpt lat="42.3956180" lon="-2.4733450">
        <ele>467.5</ele>
        <time>2020-02-01T10:55:15Z</time>
      </trkpt>
      <trkpt lat="42.3955640" lon="-2.4733780">
        <ele>467.6</ele>
        <time>2020-02-01T10:55:16Z</time>
      </trkpt>
      <trkpt lat="42.3955160" lon="-2.4734040">
        <ele>467.7</ele>
        <time>2020-02-01T10:55:17Z</time>
      </trkpt>
      <trkpt lat="42.3954620" lon="-2.4734370">
        <ele>467.9</ele>
        <time>2020-02-01T10:55:18Z</time>
      </trkpt>
      <trkpt lat="42.3954090" lon="-2.4734690">
        <ele>468.1</ele>
        <time>2020-02-01T10:55:19Z</time>
      </trkpt>
      <trkpt lat="42.3953550" lon="-2.4735010">
        <ele>468.3</ele>
        <time>2020-02-01T10:55:20Z</time>
      </trkpt>
      <trkpt lat="42.3953010" lon="-2.4735330">
        <ele>468.6</ele>
        <time>2020-02-01T10:55:21Z</time>
      </trkpt>
      <trkpt lat="42.3947220" lon="-2.4737210">
        <ele>469.6</ele>
        <time>2020-02-01T10:55:28Z</time>
      </trkpt>
      <trkpt lat="42.3946470" lon="-2.4737580">
        <ele>469.7</ele>
        <time>2020-02-01T10:55:29Z</time>
      </trkpt>
      <trkpt lat="42.3945770" lon="-2.4737910">
        <ele>469.9</ele>
        <time>2020-02-01T10:55:30Z</time>
      </trkpt>
      <trkpt lat="42.3945670" lon="-2.4738870">
        <ele>470.1</ele>
        <time>2020-02-01T10:55:31Z</time>
      </trkpt>
      <trkpt lat="42.3944910" lon="-2.4739250">
        <ele>470.3</ele>
        <time>2020-02-01T10:55:32Z</time>
      </trkpt>
      <trkpt lat="42.3944220" lon="-2.4739620">
        <ele>470.4</ele>
        <time>2020-02-01T10:55:33Z</time>
      </trkpt>
      <trkpt lat="42.3941960" lon="-2.4743650">
        <ele>470.5</ele>
        <time>2020-02-01T10:55:37Z</time>
      </trkpt>
      <trkpt lat="42.3939690" lon="-2.4742570">
        <ele>470.4</ele>
        <time>2020-02-01T10:55:39Z</time>
      </trkpt>
      <trkpt lat="42.3939070" lon="-2.4742870">
        <ele>470.4</ele>
        <time>2020-02-01T10:55:40Z</time>
      </trkpt>
      <trkpt lat="42.3939660" lon="-2.4743810">
        <ele>470.4</ele>
        <time>2020-02-01T10:55:41Z</time>
      </trkpt>
      <trkpt lat="42.3939010" lon="-2.4744130">
        <ele>470.4</ele>
        <time>2020-02-01T10:55:42Z</time>
      </trkpt>
      <trkpt lat="42.3940260" lon="-2.4743140">
        <ele>470.4</ele>
        <time>2020-02-01T10:55:43Z</time>
      </trkpt>
      <trkpt lat="42.3939910" lon="-2.4743370">
        <ele>470.4</ele>
        <time>2020-02-01T10:55:44Z</time>
      </trkpt>
      <trkpt lat="42.3939540" lon="-2.4743580">
        <ele>470.3</ele>
        <time>2020-02-01T10:55:45Z</time>
      </trkpt>
      <trkpt lat="42.3939170" lon="-2.4743540">
        <ele>470.3</ele>
        <time>2020-02-01T10:55:46Z</time>
      </trkpt>
      <trkpt lat="42.3938750" lon="-2.4743700">
        <ele>470.3</ele>
        <time>2020-02-01T10:55:47Z</time>
      </trkpt>
      <trkpt lat="42.3938320" lon="-2.4743810">
        <ele>470.3</ele>
        <time>2020-02-01T10:55:48Z</time>
      </trkpt>
      <trkpt lat="42.3937940" lon="-2.4743970">
        <ele>470.3</ele>
        <time>2020-02-01T10:55:49Z</time>
      </trkpt>
      <trkpt lat="42.3937510" lon="-2.4744130">
        <ele>470.3</ele>
        <time>2020-02-01T10:55:50Z</time>
      </trkpt>
      <trkpt lat="42.3937080" lon="-2.4744290">
        <ele>470.2</ele>
        <time>2020-02-01T10:55:51Z</time>
      </trkpt>
      <trkpt lat="42.3933540" lon="-2.4745310">
        <ele>470.0</ele>
        <time>2020-02-01T10:55:55Z</time>
      </trkpt>
      <trkpt lat="42.3933080" lon="-2.4745700">
        <ele>469.9</ele>
        <time>2020-02-01T10:55:56Z</time>
      </trkpt>
      <trkpt lat="42.3932580" lon="-2.4746010">
        <ele>469.9</ele>
        <time>2020-02-01T10:55:57Z</time>
      </trkpt>
      <trkpt lat="42.3932090" lon="-2.4746170">
        <ele>469.8</ele>
        <time>2020-02-01T10:55:58Z</time>
      </trkpt>
      <trkpt lat="42.3931610" lon="-2.4746490">
        <ele>469.7</ele>
        <time>2020-02-01T10:55:59Z</time>
      </trkpt>
      <trkpt lat="42.3931130" lon="-2.4746760">
        <ele>469.7</ele>
        <time>2020-02-01T10:56:00Z</time>
      </trkpt>
      <trkpt lat="42.3930640" lon="-2.4747080">
        <ele>469.6</ele>
        <time>2020-02-01T10:56:01Z</time>
      </trkpt>
      <trkpt lat="42.3930220" lon="-2.4747350">
        <ele>469.6</ele>
        <time>2020-02-01T10:56:02Z</time>
      </trkpt>
      <trkpt lat="42.3928340" lon="-2.4748850">
        <ele>469.4</ele>
        <time>2020-02-01T10:56:04Z</time>
      </trkpt>
      <trkpt lat="42.3928020" lon="-2.4749330">
        <ele>469.4</ele>
        <time>2020-02-01T10:56:05Z</time>
      </trkpt>
      <trkpt lat="42.3927430" lon="-2.4750030">
        <ele>469.5</ele>
        <time>2020-02-01T10:56:06Z</time>
      </trkpt>
      <trkpt lat="42.3926890" lon="-2.4750510">
        <ele>469.6</ele>
        <time>2020-02-01T10:56:07Z</time>
      </trkpt>
      <trkpt lat="42.3926410" lon="-2.4751000">
        <ele>469.7</ele>
        <time>2020-02-01T10:56:08Z</time>
      </trkpt>
      <trkpt lat="42.3925820" lon="-2.4751480">
        <ele>469.7</ele>
        <time>2020-02-01T10:56:09Z</time>
      </trkpt>
      <trkpt lat="42.3925280" lon="-2.4752010">
        <ele>469.6</ele>
        <time>2020-02-01T10:56:10Z</time>
      </trkpt>
      <trkpt lat="42.3924800" lon="-2.4752440">
        <ele>469.6</ele>
        <time>2020-02-01T10:56:11Z</time>
      </trkpt>
      <trkpt lat="42.3924210" lon="-2.4752930">
        <ele>469.7</ele>
        <time>2020-02-01T10:56:12Z</time>
      </trkpt>
      <trkpt lat="42.3923720" lon="-2.4753410">
        <ele>469.8</ele>
        <time>2020-02-01T10:56:13Z</time>
      </trkpt>
      <trkpt lat="42.3920400" lon="-2.4753200">
        <ele>470.8</ele>
        <time>2020-02-01T10:56:22Z</time>
      </trkpt>
      <trkpt lat="42.3919720" lon="-2.4753800">
        <ele>471.2</ele>
        <time>2020-02-01T10:56:23Z</time>
      </trkpt>
      <trkpt lat="42.3918770" lon="-2.4753920">
        <ele>471.4</ele>
        <time>2020-02-01T10:56:24Z</time>
      </trkpt>
      <trkpt lat="42.3917880" lon="-2.4754230">
        <ele>471.5</ele>
        <time>2020-02-01T10:56:25Z</time>
      </trkpt>
      <trkpt lat="42.3917520" lon="-2.4754560">
        <ele>471.6</ele>
        <time>2020-02-01T10:56:26Z</time>
      </trkpt>
      <trkpt lat="42.3916890" lon="-2.4754830">
        <ele>471.7</ele>
        <time>2020-02-01T10:56:27Z</time>
      </trkpt>
      <trkpt lat="42.3916480" lon="-2.4755290">
        <ele>471.7</ele>
        <time>2020-02-01T10:56:28Z</time>
      </trkpt>
      <trkpt lat="42.3915950" lon="-2.4755460">
        <ele>471.8</ele>
        <time>2020-02-01T10:56:29Z</time>
      </trkpt>
      <trkpt lat="42.3915350" lon="-2.4755670">
        <ele>472.0</ele>
        <time>2020-02-01T10:56:30Z</time>
      </trkpt>
      <trkpt lat="42.3914790" lon="-2.4756010">
        <ele>472.1</ele>
        <time>2020-02-01T10:56:31Z</time>
      </trkpt>
      <trkpt lat="42.3914200" lon="-2.4756400">
        <ele>472.3</ele>
        <time>2020-02-01T10:56:32Z</time>
      </trkpt>
      <trkpt lat="42.3913640" lon="-2.4756680">
        <ele>472.4</ele>
        <time>2020-02-01T10:56:33Z</time>
      </trkpt>
      <trkpt lat="42.3913130" lon="-2.4756980">
        <ele>472.5</ele>
        <time>2020-02-01T10:56:34Z</time>
      </trkpt>
      <trkpt lat="42.3912620" lon="-2.4757270">
        <ele>472.5</ele>
        <time>2020-02-01T10:56:35Z</time>
      </trkpt>
      <trkpt lat="42.3912030" lon="-2.4757540">
        <ele>472.5</ele>
        <time>2020-02-01T10:56:36Z</time>
      </trkpt>
      <trkpt lat="42.3911550" lon="-2.4757810">
        <ele>472.5</ele>
        <time>2020-02-01T10:56:37Z</time>
      </trkpt>
      <trkpt lat="42.3911010" lon="-2.4758130">
        <ele>472.5</ele>
        <time>2020-02-01T10:56:38Z</time>
      </trkpt>
      <trkpt lat="42.3910420" lon="-2.4758400">
        <ele>472.5</ele>
        <time>2020-02-01T10:56:39Z</time>
      </trkpt>
      <trkpt lat="42.3909940" lon="-2.4758670">
        <ele>472.5</ele>
        <time>2020-02-01T10:56:40Z</time>
      </trkpt>
      <trkpt lat="42.3909400" lon="-2.4758990">
        <ele>472.5</ele>
        <time>2020-02-01T10:56:41Z</time>
      </trkpt>
      <trkpt lat="42.3908810" lon="-2.4759260">
        <ele>472.5</ele>
        <time>2020-02-01T10:56:42Z</time>
      </trkpt>
      <trkpt lat="42.3908330" lon="-2.4759580">
        <ele>472.5</ele>
        <time>2020-02-01T10:56:43Z</time>
      </trkpt>
      <trkpt lat="42.3907790" lon="-2.4759850">
        <ele>472.5</ele>
        <time>2020-02-01T10:56:44Z</time>
      </trkpt>
      <trkpt lat="42.3904950" lon="-2.4764140">
        <ele>472.6</ele>
        <time>2020-02-01T10:56:56Z</time>
      </trkpt>
      <trkpt lat="42.3905650" lon="-2.4764570">
        <ele>472.6</ele>
        <time>2020-02-01T10:56:57Z</time>
      </trkpt>
      <trkpt lat="42.3905860" lon="-2.4765190">
        <ele>472.7</ele>
        <time>2020-02-01T10:56:58Z</time>
      </trkpt>
      <trkpt lat="42.3905840" lon="-2.4765670">
        <ele>472.7</ele>
        <time>2020-02-01T10:56:59Z</time>
      </trkpt>
      <trkpt lat="42.3906060" lon="-2.4766230">
        <ele>472.7</ele>
        <time>2020-02-01T10:57:00Z</time>
      </trkpt>
      <trkpt lat="42.3906240" lon="-2.4766660">
        <ele>472.8</ele>
        <time>2020-02-01T10:57:01Z</time>
      </trkpt>
      <trkpt lat="42.3906550" lon="-2.4767330">
        <ele>472.8</ele>
        <time>2020-02-01T10:57:02Z</time>
      </trkpt>
      <trkpt lat="42.3906730" lon="-2.4767700">
        <ele>472.9</ele>
        <time>2020-02-01T10:57:03Z</time>
      </trkpt>
      <trkpt lat="42.3906740" lon="-2.4768190">
        <ele>472.9</ele>
        <time>2020-02-01T10:57:04Z</time>
      </trkpt>
      <trkpt lat="42.3906860" lon="-2.4768560">
        <ele>473.0</ele>
        <time>2020-02-01T10:57:05Z</time>
      </trkpt>
      <trkpt lat="42.3906660" lon="-2.4769340">
        <ele>473.1</ele>
        <time>2020-02-01T10:57:07Z</time>
      </trkpt>
      <trkpt lat="42.3906400" lon="-2.4769740">
        <ele>473.1</ele>
        <time>2020-02-01T10:57:08Z</time>
      </trkpt>
      <trkpt lat="42.3906290" lon="-2.4770200">
        <ele>473.2</ele>
        <time>2020-02-01T10:57:12Z</time>
      </trkpt>
      <trkpt lat="42.3906290" lon="-2.4770580">
        <ele>473.1</ele>
        <time>2020-02-01T10:57:16Z</time>
      </trkpt>
      <trkpt lat="42.3906290" lon="-2.4771000">
        <ele>473.1</ele>
        <time>2020-02-01T10:57:20Z</time>
      </trkpt>
      <trkpt lat="42.3905920" lon="-2.4770200">
        <ele>473.1</ele>
        <time>2020-02-01T10:57:24Z</time>
      </trkpt>
      <trkpt lat="42.3907160" lon="-2.4768900">
        <ele>473.0</ele>
        <time>2020-02-01T10:57:28Z</time>
      </trkpt>
      <trkpt lat="42.3906670" lon="-2.4768760">
        <ele>473.0</ele>
        <time>2020-02-01T10:57:29Z</time>
      </trkpt>
      <trkpt lat="42.3906600" lon="-2.4769140">
        <ele>473.0</ele>
        <time>2020-02-01T10:57:30Z</time>
      </trkpt>
      <trkpt lat="42.3905900" lon="-2.4768770">
        <ele>472.9</ele>
        <time>2020-02-01T10:57:35Z</time>
      </trkpt>
      <trkpt lat="42.3904920" lon="-2.4768360">
        <ele>472.9</ele>
        <time>2020-02-01T10:57:40Z</time>
      </trkpt>
      <trkpt lat="42.3903930" lon="-2.4767950">
        <ele>473.6</ele>
        <time>2020-02-01T11:02:54Z</time>
      </trkpt>
      <trkpt lat="42.3902950" lon="-2.4767540">
        <ele>473.8</ele>
        <time>2020-02-01T11:02:55Z</time>
      </trkpt>
      <trkpt lat="42.3902570" lon="-2.4767440">
        <ele>473.9</ele>
        <time>2020-02-01T11:02:56Z</time>
      </trkpt>
      <trkpt lat="42.3902000" lon="-2.4766930">
        <ele>474.0</ele>
        <time>2020-02-01T11:02:57Z</time>
      </trkpt>
      <trkpt lat="42.3901280" lon="-2.4767050">
        <ele>474.1</ele>
        <time>2020-02-01T11:02:58Z</time>
      </trkpt>
      <trkpt lat="42.3900800" lon="-2.4767410">
        <ele>474.2</ele>
        <time>2020-02-01T11:02:59Z</time>
      </trkpt>
      <trkpt lat="42.3900220" lon="-2.4767510">
        <ele>474.3</ele>
        <time>2020-02-01T11:03:00Z</time>
      </trkpt>
      <trkpt lat="42.3899830" lon="-2.4767760">
        <ele>474.3</ele>
        <time>2020-02-01T11:03:01Z</time>
      </trkpt>
      <trkpt lat="42.3899010" lon="-2.4767840">
        <ele>474.4</ele>
        <time>2020-02-01T11:03:02Z</time>
      </trkpt>
      <trkpt lat="42.3898460" lon="-2.4768000">
        <ele>474.5</ele>
        <time>2020-02-01T11:03:03Z</time>
      </trkpt>
      <trkpt lat="42.3897960" lon="-2.4768350">
        <ele>474.6</ele>
        <time>2020-02-01T11:03:04Z</time>
      </trkpt>
      <trkpt lat="42.3896970" lon="-2.4767510">
        <ele>474.8</ele>
        <time>2020-02-01T11:03:05Z</time>
      </trkpt>
      <trkpt lat="42.3895560" lon="-2.4767330">
        <ele>475.3</ele>
        <time>2020-02-01T11:03:06Z</time>
      </trkpt>
      <trkpt lat="42.3895140" lon="-2.4767400">
        <ele>475.4</ele>
        <time>2020-02-01T11:03:07Z</time>
      </trkpt>
      <trkpt lat="42.3893800" lon="-2.4767900">
        <ele>475.9</ele>
        <time>2020-02-01T11:03:08Z</time>
      </trkpt>
      <trkpt lat="42.3893090" lon="-2.4768020">
        <ele>476.0</ele>
        <time>2020-02-01T11:03:09Z</time>
      </trkpt>
      <trkpt lat="42.3892440" lon="-2.4768200">
        <ele>476.1</ele>
        <time>2020-02-01T11:03:10Z</time>
      </trkpt>
      <trkpt lat="42.3891690" lon="-2.4768460">
        <ele>476.1</ele>
        <time>2020-02-01T11:03:11Z</time>
      </trkpt>
      <trkpt lat="42.3891330" lon="-2.4768860">
        <ele>476.2</ele>
        <time>2020-02-01T11:03:12Z</time>
      </trkpt>
      <trkpt lat="42.3890640" lon="-2.4768980">
        <ele>476.2</ele>
        <time>2020-02-01T11:03:13Z</time>
      </trkpt>
      <trkpt lat="42.3890200" lon="-2.4769220">
        <ele>476.2</ele>
        <time>2020-02-01T11:03:14Z</time>
      </trkpt>
      <trkpt lat="42.3889520" lon="-2.4769530">
        <ele>476.3</ele>
        <time>2020-02-01T11:03:15Z</time>
      </trkpt>
      <trkpt lat="42.3888990" lon="-2.4769830">
        <ele>476.4</ele>
        <time>2020-02-01T11:03:16Z</time>
      </trkpt>
      <trkpt lat="42.3888060" lon="-2.4770030">
        <ele>476.6</ele>
        <time>2020-02-01T11:03:17Z</time>
      </trkpt>
      <trkpt lat="42.3887330" lon="-2.4770220">
        <ele>476.8</ele>
        <time>2020-02-01T11:03:18Z</time>
      </trkpt>
      <trkpt lat="42.3886880" lon="-2.4770600">
        <ele>477.0</ele>
        <time>2020-02-01T11:03:19Z</time>
      </trkpt>
      <trkpt lat="42.3886290" lon="-2.4770740">
        <ele>477.2</ele>
        <time>2020-02-01T11:03:20Z</time>
      </trkpt>
      <trkpt lat="42.3885750" lon="-2.4770900">
        <ele>477.4</ele>
        <time>2020-02-01T11:03:21Z</time>
      </trkpt>
      <trkpt lat="42.3885580" lon="-2.4771660">
        <ele>477.5</ele>
        <time>2020-02-01T11:03:22Z</time>
      </trkpt>
      <trkpt lat="42.3885030" lon="-2.4772120">
        <ele>477.7</ele>
        <time>2020-02-01T11:03:23Z</time>
      </trkpt>
      <trkpt lat="42.3884230" lon="-2.4772290">
        <ele>477.8</ele>
        <time>2020-02-01T11:03:24Z</time>
      </trkpt>
      <trkpt lat="42.3883550" lon="-2.4772720">
        <ele>477.9</ele>
        <time>2020-02-01T11:03:25Z</time>
      </trkpt>
      <trkpt lat="42.3882880" lon="-2.4773080">
        <ele>478.0</ele>
        <time>2020-02-01T11:03:26Z</time>
      </trkpt>
      <trkpt lat="42.3882190" lon="-2.4773140">
        <ele>478.0</ele>
        <time>2020-02-01T11:03:27Z</time>
      </trkpt>
      <trkpt lat="42.3881630" lon="-2.4773360">
        <ele>478.1</ele>
        <time>2020-02-01T11:03:28Z</time>
      </trkpt>
      <trkpt lat="42.3881070" lon="-2.4773530">
        <ele>478.1</ele>
        <time>2020-02-01T11:03:29Z</time>
      </trkpt>
      <trkpt lat="42.3880210" lon="-2.4773370">
        <ele>478.1</ele>
        <time>2020-02-01T11:03:30Z</time>
      </trkpt>
      <trkpt lat="42.3879640" lon="-2.4773620">
        <ele>478.1</ele>
        <time>2020-02-01T11:03:31Z</time>
      </trkpt>
      <trkpt lat="42.3880240" lon="-2.4774350">
        <ele>478.2</ele>
        <time>2020-02-01T11:03:32Z</time>
      </trkpt>
      <trkpt lat="42.3879250" lon="-2.4774210">
        <ele>478.4</ele>
        <time>2020-02-01T11:03:33Z</time>
      </trkpt>
      <trkpt lat="42.3878660" lon="-2.4774490">
        <ele>478.4</ele>
        <time>2020-02-01T11:03:34Z</time>
      </trkpt>
      <trkpt lat="42.3877910" lon="-2.4775510">
        <ele>478.6</ele>
        <time>2020-02-01T11:03:35Z</time>
      </trkpt>
      <trkpt lat="42.3877060" lon="-2.4775520">
        <ele>478.7</ele>
        <time>2020-02-01T11:03:36Z</time>
      </trkpt>
      <trkpt lat="42.3876570" lon="-2.4775660">
        <ele>478.8</ele>
        <time>2020-02-01T11:03:37Z</time>
      </trkpt>
      <trkpt lat="42.3876170" lon="-2.4775990">
        <ele>478.9</ele>
        <time>2020-02-01T11:03:38Z</time>
      </trkpt>
      <trkpt lat="42.3875810" lon="-2.4776350">
        <ele>479.0</ele>
        <time>2020-02-01T11:03:39Z</time>
      </trkpt>
      <trkpt lat="42.3875450" lon="-2.4776530">
        <ele>479.0</ele>
        <time>2020-02-01T11:03:40Z</time>
      </trkpt>
      <trkpt lat="42.3874780" lon="-2.4776790">
        <ele>479.1</ele>
        <time>2020-02-01T11:03:41Z</time>
      </trkpt>
      <trkpt lat="42.3874230" lon="-2.4777050">
        <ele>479.2</ele>
        <time>2020-02-01T11:03:42Z</time>
      </trkpt>
      <trkpt lat="42.3873660" lon="-2.4777540">
        <ele>479.3</ele>
        <time>2020-02-01T11:03:43Z</time>
      </trkpt>
      <trkpt lat="42.3873030" lon="-2.4777720">
        <ele>479.4</ele>
        <time>2020-02-01T11:03:44Z</time>
      </trkpt>
      <trkpt lat="42.3872260" lon="-2.4777970">
        <ele>479.6</ele>
        <time>2020-02-01T11:03:45Z</time>
      </trkpt>
      <trkpt lat="42.3871890" lon="-2.4778340">
        <ele>479.7</ele>
        <time>2020-02-01T11:03:46Z</time>
      </trkpt>
      <trkpt lat="42.3871140" lon="-2.4778570">
        <ele>479.9</ele>
        <time>2020-02-01T11:03:47Z</time>
      </trkpt>
      <trkpt lat="42.3870840" lon="-2.4778900">
        <ele>480.0</ele>
        <time>2020-02-01T11:03:48Z</time>
      </trkpt>
      <trkpt lat="42.3870030" lon="-2.4779040">
        <ele>480.2</ele>
        <time>2020-02-01T11:03:49Z</time>
      </trkpt>
      <trkpt lat="42.3869170" lon="-2.4779200">
        <ele>480.4</ele>
        <time>2020-02-01T11:03:50Z</time>
      </trkpt>
      <trkpt lat="42.3868530" lon="-2.4779480">
        <ele>480.5</ele>
        <time>2020-02-01T11:03:51Z</time>
      </trkpt>
      <trkpt lat="42.3867880" lon="-2.4779810">
        <ele>480.6</ele>
        <time>2020-02-01T11:03:52Z</time>
      </trkpt>
      <trkpt lat="42.3867220" lon="-2.4780100">
        <ele>480.7</ele>
        <time>2020-02-01T11:03:53Z</time>
      </trkpt>
      <trkpt lat="42.3866620" lon="-2.4780530">
        <ele>480.8</ele>
        <time>2020-02-01T11:03:54Z</time>
      </trkpt>
      <trkpt lat="42.3866180" lon="-2.4780940">
        <ele>480.8</ele>
        <time>2020-02-01T11:03:55Z</time>
      </trkpt>
      <trkpt lat="42.3865510" lon="-2.4781190">
        <ele>480.9</ele>
        <time>2020-02-01T11:03:56Z</time>
      </trkpt>
      <trkpt lat="42.3864880" lon="-2.4781470">
        <ele>480.9</ele>
        <time>2020-02-01T11:03:57Z</time>
      </trkpt>
      <trkpt lat="42.3864390" lon="-2.4781640">
        <ele>481.0</ele>
        <time>2020-02-01T11:03:58Z</time>
      </trkpt>
      <trkpt lat="42.3863900" lon="-2.4781920">
        <ele>481.0</ele>
        <time>2020-02-01T11:03:59Z</time>
      </trkpt>
      <trkpt lat="42.3863490" lon="-2.4782250">
        <ele>481.0</ele>
        <time>2020-02-01T11:04:00Z</time>
      </trkpt>
      <trkpt lat="42.3863120" lon="-2.4782580">
        <ele>481.1</ele>
        <time>2020-02-01T11:04:01Z</time>
      </trkpt>
      <trkpt lat="42.3862590" lon="-2.4782840">
        <ele>481.1</ele>
        <time>2020-02-01T11:04:02Z</time>
      </trkpt>
      <trkpt lat="42.3862170" lon="-2.4783090">
        <ele>481.2</ele>
        <time>2020-02-01T11:04:03Z</time>
      </trkpt>
      <trkpt lat="42.3861820" lon="-2.4783600">
        <ele>481.2</ele>
        <time>2020-02-01T11:04:04Z</time>
      </trkpt>
      <trkpt lat="42.3860990" lon="-2.4783650">
        <ele>481.4</ele>
        <time>2020-02-01T11:04:05Z</time>
      </trkpt>
      <trkpt lat="42.3860490" lon="-2.4783840">
        <ele>481.5</ele>
        <time>2020-02-01T11:04:06Z</time>
      </trkpt>
      <trkpt lat="42.3859960" lon="-2.4784300">
        <ele>481.6</ele>
        <time>2020-02-01T11:04:07Z</time>
      </trkpt>
      <trkpt lat="42.3859460" lon="-2.4784680">
        <ele>481.6</ele>
        <time>2020-02-01T11:04:08Z</time>
      </trkpt>
      <trkpt lat="42.3858950" lon="-2.4785010">
        <ele>481.7</ele>
        <time>2020-02-01T11:04:09Z</time>
      </trkpt>
      <trkpt lat="42.3858560" lon="-2.4785180">
        <ele>481.7</ele>
        <time>2020-02-01T11:04:10Z</time>
      </trkpt>
      <trkpt lat="42.3858170" lon="-2.4785900">
        <ele>481.8</ele>
        <time>2020-02-01T11:04:11Z</time>
      </trkpt>
      <trkpt lat="42.3857340" lon="-2.4785260">
        <ele>481.8</ele>
        <time>2020-02-01T11:04:12Z</time>
      </trkpt>
      <trkpt lat="42.3856600" lon="-2.4785550">
        <ele>481.9</ele>
        <time>2020-02-01T11:04:13Z</time>
      </trkpt>
      <trkpt lat="42.3856030" lon="-2.4785790">
        <ele>481.9</ele>
        <time>2020-02-01T11:04:14Z</time>
      </trkpt>
      <trkpt lat="42.3855440" lon="-2.4786290">
        <ele>481.9</ele>
        <time>2020-02-01T11:04:15Z</time>
      </trkpt>
      <trkpt lat="42.3855010" lon="-2.4786820">
        <ele>482.0</ele>
        <time>2020-02-01T11:04:16Z</time>
      </trkpt>
      <trkpt lat="42.3854360" lon="-2.4786930">
        <ele>482.0</ele>
        <time>2020-02-01T11:04:17Z</time>
      </trkpt>
      <trkpt lat="42.3854130" lon="-2.4787230">
        <ele>482.1</ele>
        <time>2020-02-01T11:04:18Z</time>
      </trkpt>
      <trkpt lat="42.3853610" lon="-2.4787800">
        <ele>482.2</ele>
        <time>2020-02-01T11:04:19Z</time>
      </trkpt>
      <trkpt lat="42.3853050" lon="-2.4788270">
        <ele>482.3</ele>
        <time>2020-02-01T11:04:20Z</time>
      </trkpt>
      <trkpt lat="42.3852590" lon="-2.4788580">
        <ele>482.4</ele>
        <time>2020-02-01T11:04:21Z</time>
      </trkpt>
      <trkpt lat="42.3852050" lon="-2.4788810">
        <ele>482.4</ele>
        <time>2020-02-01T11:04:22Z</time>
      </trkpt>
      <trkpt lat="42.3851500" lon="-2.4789070">
        <ele>482.5</ele>
        <time>2020-02-01T11:04:23Z</time>
      </trkpt>
      <trkpt lat="42.3850930" lon="-2.4789460">
        <ele>482.6</ele>
        <time>2020-02-01T11:04:24Z</time>
      </trkpt>
      <trkpt lat="42.3850290" lon="-2.4789810">
        <ele>482.7</ele>
        <time>2020-02-01T11:04:25Z</time>
      </trkpt>
      <trkpt lat="42.3849990" lon="-2.4790170">
        <ele>482.7</ele>
        <time>2020-02-01T11:04:26Z</time>
      </trkpt>
      <trkpt lat="42.3849520" lon="-2.4790270">
        <ele>482.8</ele>
        <time>2020-02-01T11:04:27Z</time>
      </trkpt>
      <trkpt lat="42.3848800" lon="-2.4790460">
        <ele>482.8</ele>
        <time>2020-02-01T11:04:28Z</time>
      </trkpt>
      <trkpt lat="42.3848300" lon="-2.4790960">
        <ele>482.8</ele>
        <time>2020-02-01T11:04:29Z</time>
      </trkpt>
      <trkpt lat="42.3847830" lon="-2.4791220">
        <ele>482.9</ele>
        <time>2020-02-01T11:04:30Z</time>
      </trkpt>
      <trkpt lat="42.3847130" lon="-2.4791390">
        <ele>482.9</ele>
        <time>2020-02-01T11:04:31Z</time>
      </trkpt>
      <trkpt lat="42.3846570" lon="-2.4791690">
        <ele>482.9</ele>
        <time>2020-02-01T11:04:32Z</time>
      </trkpt>
      <trkpt lat="42.3846010" lon="-2.4792000">
        <ele>482.9</ele>
        <time>2020-02-01T11:04:33Z</time>
      </trkpt>
      <trkpt lat="42.3845460" lon="-2.4792300">
        <ele>483.0</ele>
        <time>2020-02-01T11:04:34Z</time>
      </trkpt>
      <trkpt lat="42.3844920" lon="-2.4792620">
        <ele>483.0</ele>
        <time>2020-02-01T11:04:35Z</time>
      </trkpt>
      <trkpt lat="42.3844330" lon="-2.4792890">
        <ele>483.1</ele>
        <time>2020-02-01T11:04:36Z</time>
      </trkpt>
      <trkpt lat="42.3843800" lon="-2.4793210">
        <ele>483.2</ele>
        <time>2020-02-01T11:04:37Z</time>
      </trkpt>
      <trkpt lat="42.3843200" lon="-2.4793540">
        <ele>483.2</ele>
        <time>2020-02-01T11:04:38Z</time>
      </trkpt>
      <trkpt lat="42.3842670" lon="-2.4793860">
        <ele>483.3</ele>
        <time>2020-02-01T11:04:39Z</time>
      </trkpt>
      <trkpt lat="42.3842130" lon="-2.4794130">
        <ele>483.4</ele>
        <time>2020-02-01T11:04:40Z</time>
      </trkpt>
      <trkpt lat="42.3841540" lon="-2.4794450">
        <ele>483.5</ele>
        <time>2020-02-01T11:04:41Z</time>
      </trkpt>
      <trkpt lat="42.3840950" lon="-2.4794770">
        <ele>483.6</ele>
        <time>2020-02-01T11:04:42Z</time>
      </trkpt>
      <trkpt lat="42.3840420" lon="-2.4795040">
        <ele>483.6</ele>
        <time>2020-02-01T11:04:43Z</time>
      </trkpt>
      <trkpt lat="42.3838650" lon="-2.4796380">
        <ele>483.8</ele>
        <time>2020-02-01T11:04:47Z</time>
      </trkpt>
      <trkpt lat="42.3838140" lon="-2.4796930">
        <ele>483.8</ele>
        <time>2020-02-01T11:04:48Z</time>
      </trkpt>
      <trkpt lat="42.3837590" lon="-2.4797470">
        <ele>483.8</ele>
        <time>2020-02-01T11:04:49Z</time>
      </trkpt>
      <trkpt lat="42.3837150" lon="-2.4797920">
        <ele>483.8</ele>
        <time>2020-02-01T11:04:50Z</time>
      </trkpt>
      <trkpt lat="42.3836180" lon="-2.4797670">
        <ele>483.8</ele>
        <time>2020-02-01T11:04:51Z</time>
      </trkpt>
      <trkpt lat="42.3835510" lon="-2.4797790">
        <ele>483.9</ele>
        <time>2020-02-01T11:04:52Z</time>
      </trkpt>
      <trkpt lat="42.3835020" lon="-2.4798070">
        <ele>483.9</ele>
        <time>2020-02-01T11:04:53Z</time>
      </trkpt>
      <trkpt lat="42.3834420" lon="-2.4798450">
        <ele>484.0</ele>
        <time>2020-02-01T11:04:54Z</time>
      </trkpt>
      <trkpt lat="42.3833760" lon="-2.4798730">
        <ele>484.1</ele>
        <time>2020-02-01T11:04:55Z</time>
      </trkpt>
      <trkpt lat="42.3833160" lon="-2.4798830">
        <ele>484.2</ele>
        <time>2020-02-01T11:04:56Z</time>
      </trkpt>
      <trkpt lat="42.3832570" lon="-2.4799030">
        <ele>484.4</ele>
        <time>2020-02-01T11:04:57Z</time>
      </trkpt>
      <trkpt lat="42.3831830" lon="-2.4799410">
        <ele>484.6</ele>
        <time>2020-02-01T11:04:58Z</time>
      </trkpt>
      <trkpt lat="42.3831180" lon="-2.4799650">
        <ele>484.7</ele>
        <time>2020-02-01T11:04:59Z</time>
      </trkpt>
      <trkpt lat="42.3830720" lon="-2.4800120">
        <ele>484.8</ele>
        <time>2020-02-01T11:05:00Z</time>
      </trkpt>
      <trkpt lat="42.3830210" lon="-2.4800320">
        <ele>484.8</ele>
        <time>2020-02-01T11:05:01Z</time>
      </trkpt>
      <trkpt lat="42.3829670" lon="-2.4800580">
        <ele>484.9</ele>
        <time>2020-02-01T11:05:02Z</time>
      </trkpt>
      <trkpt lat="42.3829130" lon="-2.4800830">
        <ele>484.9</ele>
        <time>2020-02-01T11:05:03Z</time>
      </trkpt>
      <trkpt lat="42.3828560" lon="-2.4801050">
        <ele>484.9</ele>
        <time>2020-02-01T11:05:04Z</time>
      </trkpt>
      <trkpt lat="42.3827970" lon="-2.4801310">
        <ele>485.0</ele>
        <time>2020-02-01T11:05:05Z</time>
      </trkpt>
      <trkpt lat="42.3827490" lon="-2.4801530">
        <ele>485.1</ele>
        <time>2020-02-01T11:05:06Z</time>
      </trkpt>
      <trkpt lat="42.3826900" lon="-2.4801800">
        <ele>485.2</ele>
        <time>2020-02-01T11:05:07Z</time>
      </trkpt>
      <trkpt lat="42.3826790" lon="-2.4802550">
        <ele>485.4</ele>
        <time>2020-02-01T11:05:08Z</time>
      </trkpt>
      <trkpt lat="42.3826120" lon="-2.4802860">
        <ele>485.6</ele>
        <time>2020-02-01T11:05:10Z</time>
      </trkpt>
      <trkpt lat="42.3825690" lon="-2.4803160">
        <ele>485.7</ele>
        <time>2020-02-01T11:05:11Z</time>
      </trkpt>
      <trkpt lat="42.3825230" lon="-2.4803510">
        <ele>485.8</ele>
        <time>2020-02-01T11:05:12Z</time>
      </trkpt>
      <trkpt lat="42.3824810" lon="-2.4803890">
        <ele>485.9</ele>
        <time>2020-02-01T11:05:13Z</time>
      </trkpt>
      <trkpt lat="42.3824380" lon="-2.4804210">
        <ele>485.9</ele>
        <time>2020-02-01T11:05:14Z</time>
      </trkpt>
      <trkpt lat="42.3823950" lon="-2.4804530">
        <ele>486.0</ele>
        <time>2020-02-01T11:05:15Z</time>
      </trkpt>
      <trkpt lat="42.3823520" lon="-2.4804850">
        <ele>486.0</ele>
        <time>2020-02-01T11:05:16Z</time>
      </trkpt>
      <trkpt lat="42.3823090" lon="-2.4805180">
        <ele>486.1</ele>
        <time>2020-02-01T11:05:17Z</time>
      </trkpt>
      <trkpt lat="42.3822660" lon="-2.4805500">
        <ele>486.2</ele>
        <time>2020-02-01T11:05:18Z</time>
      </trkpt>
      <trkpt lat="42.3822230" lon="-2.4805820">
        <ele>486.3</ele>
        <time>2020-02-01T11:05:19Z</time>
      </trkpt>
      <trkpt lat="42.3817190" lon="-2.4806410">
        <ele>487.4</ele>
        <time>2020-02-01T11:05:24Z</time>
      </trkpt>
      <trkpt lat="42.3816630" lon="-2.4806620">
        <ele>487.7</ele>
        <time>2020-02-01T11:05:25Z</time>
      </trkpt>
      <trkpt lat="42.3815990" lon="-2.4807460">
        <ele>488.0</ele>
        <time>2020-02-01T11:05:26Z</time>
      </trkpt>
      <trkpt lat="42.3815550" lon="-2.4807930">
        <ele>488.0</ele>
        <time>2020-02-01T11:05:27Z</time>
      </trkpt>
      <trkpt lat="42.3815150" lon="-2.4808380">
        <ele>488.0</ele>
        <time>2020-02-01T11:05:28Z</time>
      </trkpt>
      <trkpt lat="42.3814660" lon="-2.4808880">
        <ele>488.1</ele>
        <time>2020-02-01T11:05:29Z</time>
      </trkpt>
      <trkpt lat="42.3813980" lon="-2.4809230">
        <ele>488.1</ele>
        <time>2020-02-01T11:05:30Z</time>
      </trkpt>
      <trkpt lat="42.3813440" lon="-2.4809730">
        <ele>488.2</ele>
        <time>2020-02-01T11:05:31Z</time>
      </trkpt>
      <trkpt lat="42.3812800" lon="-2.4810040">
        <ele>488.3</ele>
        <time>2020-02-01T11:05:32Z</time>
      </trkpt>
      <trkpt lat="42.3812270" lon="-2.4810390">
        <ele>488.4</ele>
        <time>2020-02-01T11:05:33Z</time>
      </trkpt>
      <trkpt lat="42.3811680" lon="-2.4810680">
        <ele>488.5</ele>
        <time>2020-02-01T11:05:34Z</time>
      </trkpt>
      <trkpt lat="42.3811130" lon="-2.4810990">
        <ele>488.7</ele>
        <time>2020-02-01T11:05:35Z</time>
      </trkpt>
      <trkpt lat="42.3810540" lon="-2.4811350">
        <ele>488.8</ele>
        <time>2020-02-01T11:05:36Z</time>
      </trkpt>
      <trkpt lat="42.3809940" lon="-2.4811640">
        <ele>488.9</ele>
        <time>2020-02-01T11:05:37Z</time>
      </trkpt>
      <trkpt lat="42.3809430" lon="-2.4811860">
        <ele>489.0</ele>
        <time>2020-02-01T11:05:38Z</time>
      </trkpt>
      <trkpt lat="42.3808820" lon="-2.4812150">
        <ele>489.1</ele>
        <time>2020-02-01T11:05:39Z</time>
      </trkpt>
      <trkpt lat="42.3808180" lon="-2.4812360">
        <ele>489.2</ele>
        <time>2020-02-01T11:05:40Z</time>
      </trkpt>
      <trkpt lat="42.3807640" lon="-2.4812690">
        <ele>489.2</ele>
        <time>2020-02-01T11:05:41Z</time>
      </trkpt>
      <trkpt lat="42.3807020" lon="-2.4812870">
        <ele>489.3</ele>
        <time>2020-02-01T11:05:42Z</time>
      </trkpt>
      <trkpt lat="42.3806470" lon="-2.4813160">
        <ele>489.3</ele>
        <time>2020-02-01T11:05:43Z</time>
      </trkpt>
      <trkpt lat="42.3805920" lon="-2.4813460">
        <ele>489.4</ele>
        <time>2020-02-01T11:05:44Z</time>
      </trkpt>
      <trkpt lat="42.3805330" lon="-2.4813760">
        <ele>489.5</ele>
        <time>2020-02-01T11:05:45Z</time>
      </trkpt>
      <trkpt lat="42.3804740" lon="-2.4814030">
        <ele>489.7</ele>
        <time>2020-02-01T11:05:46Z</time>
      </trkpt>
      <trkpt lat="42.3804210" lon="-2.4814300">
        <ele>489.8</ele>
        <time>2020-02-01T11:05:47Z</time>
      </trkpt>
      <trkpt lat="42.3803670" lon="-2.4814620">
        <ele>489.9</ele>
        <time>2020-02-01T11:05:48Z</time>
      </trkpt>
      <trkpt lat="42.3803130" lon="-2.4814890">
        <ele>490.0</ele>
        <time>2020-02-01T11:05:49Z</time>
      </trkpt>
      <trkpt lat="42.3802600" lon="-2.4815210">
        <ele>490.1</ele>
        <time>2020-02-01T11:05:50Z</time>
      </trkpt>
      <trkpt lat="42.3802010" lon="-2.4815480">
        <ele>490.2</ele>
        <time>2020-02-01T11:05:51Z</time>
      </trkpt>
      <trkpt lat="42.3801470" lon="-2.4815800">
        <ele>490.2</ele>
        <time>2020-02-01T11:05:52Z</time>
      </trkpt>
      <trkpt lat="42.3800930" lon="-2.4816070">
        <ele>490.3</ele>
        <time>2020-02-01T11:05:53Z</time>
      </trkpt>
      <trkpt lat="42.3800400" lon="-2.4816330">
        <ele>490.3</ele>
        <time>2020-02-01T11:05:54Z</time>
      </trkpt>
      <trkpt lat="42.3800180" lon="-2.4818160">
        <ele>490.4</ele>
        <time>2020-02-01T11:05:55Z</time>
      </trkpt>
      <trkpt lat="42.3799700" lon="-2.4817680">
        <ele>490.6</ele>
        <time>2020-02-01T11:05:56Z</time>
      </trkpt>
      <trkpt lat="42.3799060" lon="-2.4817490">
        <ele>490.6</ele>
        <time>2020-02-01T11:05:57Z</time>
      </trkpt>
      <trkpt lat="42.3798390" lon="-2.4817470">
        <ele>490.6</ele>
        <time>2020-02-01T11:05:58Z</time>
      </trkpt>
      <trkpt lat="42.3797780" lon="-2.4817640">
        <ele>490.6</ele>
        <time>2020-02-01T11:05:59Z</time>
      </trkpt>
      <trkpt lat="42.3797190" lon="-2.4817940">
        <ele>490.6</ele>
        <time>2020-02-01T11:06:00Z</time>
      </trkpt>
      <trkpt lat="42.3796890" lon="-2.4818290">
        <ele>490.6</ele>
        <time>2020-02-01T11:06:01Z</time>
      </trkpt>
      <trkpt lat="42.3796250" lon="-2.4818490">
        <ele>490.6</ele>
        <time>2020-02-01T11:06:02Z</time>
      </trkpt>
      <trkpt lat="42.3795610" lon="-2.4818750">
        <ele>490.6</ele>
        <time>2020-02-01T11:06:03Z</time>
      </trkpt>
      <trkpt lat="42.3795120" lon="-2.4818920">
        <ele>490.6</ele>
        <time>2020-02-01T11:06:04Z</time>
      </trkpt>
      <trkpt lat="42.3794470" lon="-2.4819200">
        <ele>490.6</ele>
        <time>2020-02-01T11:06:05Z</time>
      </trkpt>
      <trkpt lat="42.3793910" lon="-2.4819500">
        <ele>490.6</ele>
        <time>2020-02-01T11:06:06Z</time>
      </trkpt>
      <trkpt lat="42.3793360" lon="-2.4819750">
        <ele>490.6</ele>
        <time>2020-02-01T11:06:07Z</time>
      </trkpt>
      <trkpt lat="42.3792780" lon="-2.4820040">
        <ele>490.6</ele>
        <time>2020-02-01T11:06:08Z</time>
      </trkpt>
      <trkpt lat="42.3792190" lon="-2.4820360">
        <ele>490.7</ele>
        <time>2020-02-01T11:06:09Z</time>
      </trkpt>
      <trkpt lat="42.3791910" lon="-2.4820960">
        <ele>490.7</ele>
        <time>2020-02-01T11:06:10Z</time>
      </trkpt>
      <trkpt lat="42.3791370" lon="-2.4821640">
        <ele>490.7</ele>
        <time>2020-02-01T11:06:11Z</time>
      </trkpt>
      <trkpt lat="42.3790900" lon="-2.4821860">
        <ele>490.7</ele>
        <time>2020-02-01T11:06:12Z</time>
      </trkpt>
      <trkpt lat="42.3790360" lon="-2.4822120">
        <ele>490.7</ele>
        <time>2020-02-01T11:06:13Z</time>
      </trkpt>
      <trkpt lat="42.3789800" lon="-2.4822390">
        <ele>490.7</ele>
        <time>2020-02-01T11:06:14Z</time>
      </trkpt>
      <trkpt lat="42.3789140" lon="-2.4822760">
        <ele>490.7</ele>
        <time>2020-02-01T11:06:15Z</time>
      </trkpt>
      <trkpt lat="42.3788570" lon="-2.4822910">
        <ele>490.7</ele>
        <time>2020-02-01T11:06:16Z</time>
      </trkpt>
      <trkpt lat="42.3788020" lon="-2.4823290">
        <ele>490.8</ele>
        <time>2020-02-01T11:06:17Z</time>
      </trkpt>
      <trkpt lat="42.3787500" lon="-2.4823640">
        <ele>490.8</ele>
        <time>2020-02-01T11:06:18Z</time>
      </trkpt>
      <trkpt lat="42.3786760" lon="-2.4823710">
        <ele>490.9</ele>
        <time>2020-02-01T11:06:19Z</time>
      </trkpt>
      <trkpt lat="42.3786200" lon="-2.4824050">
        <ele>491.0</ele>
        <time>2020-02-01T11:06:20Z</time>
      </trkpt>
      <trkpt lat="42.3785810" lon="-2.4824530">
        <ele>491.1</ele>
        <time>2020-02-01T11:06:21Z</time>
      </trkpt>
      <trkpt lat="42.3785220" lon="-2.4824760">
        <ele>491.2</ele>
        <time>2020-02-01T11:06:22Z</time>
      </trkpt>
      <trkpt lat="42.3784590" lon="-2.4824990">
        <ele>491.3</ele>
        <time>2020-02-01T11:06:23Z</time>
      </trkpt>
      <trkpt lat="42.3784050" lon="-2.4825300">
        <ele>491.4</ele>
        <time>2020-02-01T11:06:24Z</time>
      </trkpt>
      <trkpt lat="42.3783480" lon="-2.4825570">
        <ele>491.5</ele>
        <time>2020-02-01T11:06:25Z</time>
      </trkpt>
      <trkpt lat="42.3782960" lon="-2.4825820">
        <ele>491.5</ele>
        <time>2020-02-01T11:06:26Z</time>
      </trkpt>
      <trkpt lat="42.3782370" lon="-2.4826100">
        <ele>491.6</ele>
        <time>2020-02-01T11:06:27Z</time>
      </trkpt>
      <trkpt lat="42.3781720" lon="-2.4826300">
        <ele>491.6</ele>
        <time>2020-02-01T11:06:28Z</time>
      </trkpt>
      <trkpt lat="42.3781120" lon="-2.4826590">
        <ele>491.7</ele>
        <time>2020-02-01T11:06:29Z</time>
      </trkpt>
      <trkpt lat="42.3780520" lon="-2.4826880">
        <ele>491.7</ele>
        <time>2020-02-01T11:06:30Z</time>
      </trkpt>
      <trkpt lat="42.3779580" lon="-2.4826760">
        <ele>491.8</ele>
        <time>2020-02-01T11:06:31Z</time>
      </trkpt>
      <trkpt lat="42.3779560" lon="-2.4827570">
        <ele>491.9</ele>
        <time>2020-02-01T11:06:32Z</time>
      </trkpt>
      <trkpt lat="42.3778860" lon="-2.4827910">
        <ele>492.0</ele>
        <time>2020-02-01T11:06:33Z</time>
      </trkpt>
      <trkpt lat="42.3778400" lon="-2.4827990">
        <ele>492.0</ele>
        <time>2020-02-01T11:06:34Z</time>
      </trkpt>
      <trkpt lat="42.3777610" lon="-2.4828170">
        <ele>492.2</ele>
        <time>2020-02-01T11:06:35Z</time>
      </trkpt>
      <trkpt lat="42.3777050" lon="-2.4828460">
        <ele>492.3</ele>
        <time>2020-02-01T11:06:36Z</time>
      </trkpt>
      <trkpt lat="42.3776650" lon="-2.4828940">
        <ele>492.4</ele>
        <time>2020-02-01T11:06:37Z</time>
      </trkpt>
      <trkpt lat="42.3776180" lon="-2.4829170">
        <ele>492.5</ele>
        <time>2020-02-01T11:06:38Z</time>
      </trkpt>
      <trkpt lat="42.3775600" lon="-2.4829410">
        <ele>492.6</ele>
        <time>2020-02-01T11:06:39Z</time>
      </trkpt>
      <trkpt lat="42.3774990" lon="-2.4829780">
        <ele>492.7</ele>
        <time>2020-02-01T11:06:40Z</time>
      </trkpt>
      <trkpt lat="42.3774410" lon="-2.4830110">
        <ele>492.8</ele>
        <time>2020-02-01T11:06:41Z</time>
      </trkpt>
      <trkpt lat="42.3773830" lon="-2.4830430">
        <ele>492.9</ele>
        <time>2020-02-01T11:06:42Z</time>
      </trkpt>
      <trkpt lat="42.3773250" lon="-2.4830760">
        <ele>493.0</ele>
        <time>2020-02-01T11:06:43Z</time>
      </trkpt>
      <trkpt lat="42.3772660" lon="-2.4831090">
        <ele>493.1</ele>
        <time>2020-02-01T11:06:44Z</time>
      </trkpt>
      <trkpt lat="42.3772130" lon="-2.4831410">
        <ele>493.3</ele>
        <time>2020-02-01T11:06:45Z</time>
      </trkpt>
      <trkpt lat="42.3771540" lon="-2.4831730">
        <ele>493.4</ele>
        <time>2020-02-01T11:06:46Z</time>
      </trkpt>
      <trkpt lat="42.3771270" lon="-2.4831680">
        <ele>493.7</ele>
        <time>2020-02-01T11:06:47Z</time>
      </trkpt>
      <trkpt lat="42.3770740" lon="-2.4831930">
        <ele>493.7</ele>
        <time>2020-02-01T11:06:48Z</time>
      </trkpt>
      <trkpt lat="42.3770220" lon="-2.4832190">
        <ele>493.7</ele>
        <time>2020-02-01T11:06:49Z</time>
      </trkpt>
      <trkpt lat="42.3769710" lon="-2.4832430">
        <ele>493.8</ele>
        <time>2020-02-01T11:06:50Z</time>
      </trkpt>
      <trkpt lat="42.3769180" lon="-2.4832700">
        <ele>493.8</ele>
        <time>2020-02-01T11:06:51Z</time>
      </trkpt>
      <trkpt lat="42.3768690" lon="-2.4832960">
        <ele>493.8</ele>
        <time>2020-02-01T11:06:52Z</time>
      </trkpt>
      <trkpt lat="42.3768160" lon="-2.4833180">
        <ele>493.9</ele>
        <time>2020-02-01T11:06:53Z</time>
      </trkpt>
      <trkpt lat="42.3767620" lon="-2.4833450">
        <ele>493.9</ele>
        <time>2020-02-01T11:06:54Z</time>
      </trkpt>
      <trkpt lat="42.3767080" lon="-2.4833710">
        <ele>494.0</ele>
        <time>2020-02-01T11:06:55Z</time>
      </trkpt>
      <trkpt lat="42.3766600" lon="-2.4833930">
        <ele>494.0</ele>
        <time>2020-02-01T11:06:56Z</time>
      </trkpt>
      <trkpt lat="42.3766060" lon="-2.4834200">
        <ele>494.1</ele>
        <time>2020-02-01T11:06:57Z</time>
      </trkpt>
      <trkpt lat="42.3761930" lon="-2.4839350">
        <ele>494.7</ele>
        <time>2020-02-01T11:07:08Z</time>
      </trkpt>
      <trkpt lat="42.3759190" lon="-2.4838780">
        <ele>495.0</ele>
        <time>2020-02-01T11:07:10Z</time>
      </trkpt>
      <trkpt lat="42.3758720" lon="-2.4839290">
        <ele>495.0</ele>
        <time>2020-02-01T11:07:11Z</time>
      </trkpt>
      <trkpt lat="42.3758080" lon="-2.4839510">
        <ele>495.1</ele>
        <time>2020-02-01T11:07:12Z</time>
      </trkpt>
      <trkpt lat="42.3757240" lon="-2.4839870">
        <ele>495.2</ele>
        <time>2020-02-01T11:07:13Z</time>
      </trkpt>
      <trkpt lat="42.3756500" lon="-2.4840040">
        <ele>495.3</ele>
        <time>2020-02-01T11:07:14Z</time>
      </trkpt>
      <trkpt lat="42.3755840" lon="-2.4840230">
        <ele>495.4</ele>
        <time>2020-02-01T11:07:15Z</time>
      </trkpt>
      <trkpt lat="42.3755200" lon="-2.4840720">
        <ele>495.6</ele>
        <time>2020-02-01T11:07:16Z</time>
      </trkpt>
      <trkpt lat="42.3754680" lon="-2.4840970">
        <ele>495.7</ele>
        <time>2020-02-01T11:07:17Z</time>
      </trkpt>
      <trkpt lat="42.3753970" lon="-2.4841030">
        <ele>495.7</ele>
        <time>2020-02-01T11:07:18Z</time>
      </trkpt>
      <trkpt lat="42.3753430" lon="-2.4841330">
        <ele>495.7</ele>
        <time>2020-02-01T11:07:19Z</time>
      </trkpt>
      <trkpt lat="42.3752870" lon="-2.4841790">
        <ele>495.7</ele>
        <time>2020-02-01T11:07:20Z</time>
      </trkpt>
      <trkpt lat="42.3752460" lon="-2.4842170">
        <ele>495.7</ele>
        <time>2020-02-01T11:07:21Z</time>
      </trkpt>
      <trkpt lat="42.3751910" lon="-2.4842570">
        <ele>495.7</ele>
        <time>2020-02-01T11:07:22Z</time>
      </trkpt>
      <trkpt lat="42.3751250" lon="-2.4842690">
        <ele>495.7</ele>
        <time>2020-02-01T11:07:23Z</time>
      </trkpt>
      <trkpt lat="42.3750600" lon="-2.4842870">
        <ele>495.7</ele>
        <time>2020-02-01T11:07:24Z</time>
      </trkpt>
      <trkpt lat="42.3749940" lon="-2.4843130">
        <ele>495.7</ele>
        <time>2020-02-01T11:07:25Z</time>
      </trkpt>
      <trkpt lat="42.3749350" lon="-2.4843460">
        <ele>495.7</ele>
        <time>2020-02-01T11:07:26Z</time>
      </trkpt>
      <trkpt lat="42.3748820" lon="-2.4843880">
        <ele>495.7</ele>
        <time>2020-02-01T11:07:27Z</time>
      </trkpt>
      <trkpt lat="42.3748150" lon="-2.4844130">
        <ele>495.7</ele>
        <time>2020-02-01T11:07:28Z</time>
      </trkpt>
      <trkpt lat="42.3747660" lon="-2.4844450">
        <ele>495.8</ele>
        <time>2020-02-01T11:07:29Z</time>
      </trkpt>
      <trkpt lat="42.3747040" lon="-2.4844760">
        <ele>495.9</ele>
        <time>2020-02-01T11:07:30Z</time>
      </trkpt>
      <trkpt lat="42.3746430" lon="-2.4845030">
        <ele>496.0</ele>
        <time>2020-02-01T11:07:31Z</time>
      </trkpt>
      <trkpt lat="42.3745960" lon="-2.4845390">
        <ele>496.1</ele>
        <time>2020-02-01T11:07:32Z</time>
      </trkpt>
      <trkpt lat="42.3745360" lon="-2.4845620">
        <ele>496.3</ele>
        <time>2020-02-01T11:07:33Z</time>
      </trkpt>
      <trkpt lat="42.3744910" lon="-2.4846030">
        <ele>496.4</ele>
        <time>2020-02-01T11:07:34Z</time>
      </trkpt>
      <trkpt lat="42.3744330" lon="-2.4846360">
        <ele>496.5</ele>
        <time>2020-02-01T11:07:35Z</time>
      </trkpt>
      <trkpt lat="42.3743710" lon="-2.4846500">
        <ele>496.6</ele>
        <time>2020-02-01T11:07:36Z</time>
      </trkpt>
      <trkpt lat="42.3743150" lon="-2.4846800">
        <ele>496.7</ele>
        <time>2020-02-01T11:07:37Z</time>
      </trkpt>
      <trkpt lat="42.3742570" lon="-2.4847130">
        <ele>496.8</ele>
        <time>2020-02-01T11:07:38Z</time>
      </trkpt>
      <trkpt lat="42.3742030" lon="-2.4847390">
        <ele>496.9</ele>
        <time>2020-02-01T11:07:39Z</time>
      </trkpt>
      <trkpt lat="42.3741440" lon="-2.4847720">
        <ele>497.0</ele>
        <time>2020-02-01T11:07:40Z</time>
      </trkpt>
      <trkpt lat="42.3740850" lon="-2.4847980">
        <ele>497.2</ele>
        <time>2020-02-01T11:07:41Z</time>
      </trkpt>
      <trkpt lat="42.3740320" lon="-2.4848310">
        <ele>497.3</ele>
        <time>2020-02-01T11:07:42Z</time>
      </trkpt>
      <trkpt lat="42.3739240" lon="-2.4848150">
        <ele>497.5</ele>
        <time>2020-02-01T11:07:43Z</time>
      </trkpt>
      <trkpt lat="42.3738810" lon="-2.4848860">
        <ele>497.6</ele>
        <time>2020-02-01T11:07:44Z</time>
      </trkpt>
      <trkpt lat="42.3738110" lon="-2.4849080">
        <ele>497.6</ele>
        <time>2020-02-01T11:07:45Z</time>
      </trkpt>
      <trkpt lat="42.3737670" lon="-2.4849290">
        <ele>497.7</ele>
        <time>2020-02-01T11:07:46Z</time>
      </trkpt>
      <trkpt lat="42.3737160" lon="-2.4849460">
        <ele>497.7</ele>
        <time>2020-02-01T11:07:47Z</time>
      </trkpt>
      <trkpt lat="42.3736760" lon="-2.4849910">
        <ele>497.7</ele>
        <time>2020-02-01T11:07:48Z</time>
      </trkpt>
      <trkpt lat="42.3736070" lon="-2.4850330">
        <ele>497.7</ele>
        <time>2020-02-01T11:07:49Z</time>
      </trkpt>
      <trkpt lat="42.3735420" lon="-2.4850460">
        <ele>497.7</ele>
        <time>2020-02-01T11:07:50Z</time>
      </trkpt>
      <trkpt lat="42.3734980" lon="-2.4850730">
        <ele>497.7</ele>
        <time>2020-02-01T11:07:51Z</time>
      </trkpt>
      <trkpt lat="42.3734410" lon="-2.4851060">
        <ele>497.7</ele>
        <time>2020-02-01T11:07:52Z</time>
      </trkpt>
      <trkpt lat="42.3733940" lon="-2.4851440">
        <ele>497.8</ele>
        <time>2020-02-01T11:07:53Z</time>
      </trkpt>
      <trkpt lat="42.3733400" lon="-2.4851740">
        <ele>497.9</ele>
        <time>2020-02-01T11:07:54Z</time>
      </trkpt>
      <trkpt lat="42.3732820" lon="-2.4852090">
        <ele>498.1</ele>
        <time>2020-02-01T11:07:55Z</time>
      </trkpt>
      <trkpt lat="42.3732270" lon="-2.4852440">
        <ele>498.3</ele>
        <time>2020-02-01T11:07:56Z</time>
      </trkpt>
      <trkpt lat="42.3731680" lon="-2.4852760">
        <ele>498.4</ele>
        <time>2020-02-01T11:07:57Z</time>
      </trkpt>
      <trkpt lat="42.3731140" lon="-2.4853080">
        <ele>498.5</ele>
        <time>2020-02-01T11:07:58Z</time>
      </trkpt>
      <trkpt lat="42.3730550" lon="-2.4853400">
        <ele>498.6</ele>
        <time>2020-02-01T11:07:59Z</time>
      </trkpt>
      <trkpt lat="42.3729630" lon="-2.4853520">
        <ele>498.6</ele>
        <time>2020-02-01T11:08:00Z</time>
      </trkpt>
      <trkpt lat="42.3729090" lon="-2.4853830">
        <ele>498.7</ele>
        <time>2020-02-01T11:08:01Z</time>
      </trkpt>
      <trkpt lat="42.3728540" lon="-2.4854150">
        <ele>498.7</ele>
        <time>2020-02-01T11:08:02Z</time>
      </trkpt>
      <trkpt lat="42.3727870" lon="-2.4854370">
        <ele>498.7</ele>
        <time>2020-02-01T11:08:03Z</time>
      </trkpt>
      <trkpt lat="42.3727330" lon="-2.4854690">
        <ele>498.7</ele>
        <time>2020-02-01T11:08:04Z</time>
      </trkpt>
      <trkpt lat="42.3726800" lon="-2.4854960">
        <ele>498.7</ele>
        <time>2020-02-01T11:08:05Z</time>
      </trkpt>
      <trkpt lat="42.3726260" lon="-2.4855280">
        <ele>498.7</ele>
        <time>2020-02-01T11:08:06Z</time>
      </trkpt>
      <trkpt lat="42.3725670" lon="-2.4855600">
        <ele>498.7</ele>
        <time>2020-02-01T11:08:07Z</time>
      </trkpt>
      <trkpt lat="42.3725130" lon="-2.4855920">
        <ele>498.9</ele>
        <time>2020-02-01T11:08:08Z</time>
      </trkpt>
      <trkpt lat="42.3724600" lon="-2.4856250">
        <ele>499.1</ele>
        <time>2020-02-01T11:08:09Z</time>
      </trkpt>
      <trkpt lat="42.3724700" lon="-2.4857050">
        <ele>499.3</ele>
        <time>2020-02-01T11:08:10Z</time>
      </trkpt>
      <trkpt lat="42.3723690" lon="-2.4857280">
        <ele>499.5</ele>
        <time>2020-02-01T11:08:12Z</time>
      </trkpt>
      <trkpt lat="42.3723280" lon="-2.4857640">
        <ele>499.5</ele>
        <time>2020-02-01T11:08:13Z</time>
      </trkpt>
      <trkpt lat="42.3722650" lon="-2.4857830">
        <ele>499.6</ele>
        <time>2020-02-01T11:08:14Z</time>
      </trkpt>
      <trkpt lat="42.3722140" lon="-2.4858100">
        <ele>499.6</ele>
        <time>2020-02-01T11:08:15Z</time>
      </trkpt>
      <trkpt lat="42.3721430" lon="-2.4858390">
        <ele>499.6</ele>
        <time>2020-02-01T11:08:16Z</time>
      </trkpt>
      <trkpt lat="42.3720670" lon="-2.4858640">
        <ele>499.7</ele>
        <time>2020-02-01T11:08:17Z</time>
      </trkpt>
      <trkpt lat="42.3720610" lon="-2.4859350">
        <ele>499.7</ele>
        <time>2020-02-01T11:08:18Z</time>
      </trkpt>
      <trkpt lat="42.3720140" lon="-2.4859600">
        <ele>499.8</ele>
        <time>2020-02-01T11:08:19Z</time>
      </trkpt>
      <trkpt lat="42.3719680" lon="-2.4859940">
        <ele>499.9</ele>
        <time>2020-02-01T11:08:20Z</time>
      </trkpt>
      <trkpt lat="42.3718970" lon="-2.4860270">
        <ele>500.1</ele>
        <time>2020-02-01T11:08:21Z</time>
      </trkpt>
      <trkpt lat="42.3718440" lon="-2.4860730">
        <ele>500.2</ele>
        <time>2020-02-01T11:08:22Z</time>
      </trkpt>
      <trkpt lat="42.3717920" lon="-2.4861050">
        <ele>500.3</ele>
        <time>2020-02-01T11:08:23Z</time>
      </trkpt>
      <trkpt lat="42.3717330" lon="-2.4861380">
        <ele>500.4</ele>
        <time>2020-02-01T11:08:24Z</time>
      </trkpt>
      <trkpt lat="42.3716750" lon="-2.4861710">
        <ele>500.5</ele>
        <time>2020-02-01T11:08:25Z</time>
      </trkpt>
      <trkpt lat="42.3716130" lon="-2.4862020">
        <ele>500.5</ele>
        <time>2020-02-01T11:08:26Z</time>
      </trkpt>
      <trkpt lat="42.3715560" lon="-2.4862390">
        <ele>500.6</ele>
        <time>2020-02-01T11:08:27Z</time>
      </trkpt>
      <trkpt lat="42.3715010" lon="-2.4862760">
        <ele>500.7</ele>
        <time>2020-02-01T11:08:28Z</time>
      </trkpt>
      <trkpt lat="42.3714460" lon="-2.4863120">
        <ele>500.8</ele>
        <time>2020-02-01T11:08:29Z</time>
      </trkpt>
      <trkpt lat="42.3713920" lon="-2.4863490">
        <ele>501.0</ele>
        <time>2020-02-01T11:08:30Z</time>
      </trkpt>
      <trkpt lat="42.3713330" lon="-2.4863860">
        <ele>501.1</ele>
        <time>2020-02-01T11:08:31Z</time>
      </trkpt>
      <trkpt lat="42.3712800" lon="-2.4864180">
        <ele>501.2</ele>
        <time>2020-02-01T11:08:32Z</time>
      </trkpt>
      <trkpt lat="42.3712260" lon="-2.4864560">
        <ele>501.3</ele>
        <time>2020-02-01T11:08:33Z</time>
      </trkpt>
      <trkpt lat="42.3711500" lon="-2.4864090">
        <ele>501.4</ele>
        <time>2020-02-01T11:08:34Z</time>
      </trkpt>
      <trkpt lat="42.3710970" lon="-2.4864700">
        <ele>501.4</ele>
        <time>2020-02-01T11:08:35Z</time>
      </trkpt>
      <trkpt lat="42.3710380" lon="-2.4864830">
        <ele>501.4</ele>
        <time>2020-02-01T11:08:36Z</time>
      </trkpt>
      <trkpt lat="42.3709800" lon="-2.4865010">
        <ele>501.4</ele>
        <time>2020-02-01T11:08:37Z</time>
      </trkpt>
      <trkpt lat="42.3709270" lon="-2.4865070">
        <ele>501.4</ele>
        <time>2020-02-01T11:08:38Z</time>
      </trkpt>
      <trkpt lat="42.3708720" lon="-2.4865630">
        <ele>501.4</ele>
        <time>2020-02-01T11:08:39Z</time>
      </trkpt>
      <trkpt lat="42.3708320" lon="-2.4866030">
        <ele>501.4</ele>
        <time>2020-02-01T11:08:40Z</time>
      </trkpt>
      <trkpt lat="42.3707530" lon="-2.4866290">
        <ele>501.4</ele>
        <time>2020-02-01T11:08:41Z</time>
      </trkpt>
      <trkpt lat="42.3707000" lon="-2.4866350">
        <ele>501.4</ele>
        <time>2020-02-01T11:08:42Z</time>
      </trkpt>
      <trkpt lat="42.3706410" lon="-2.4866690">
        <ele>501.4</ele>
        <time>2020-02-01T11:08:43Z</time>
      </trkpt>
      <trkpt lat="42.3705780" lon="-2.4866820">
        <ele>501.4</ele>
        <time>2020-02-01T11:08:44Z</time>
      </trkpt>
      <trkpt lat="42.3705120" lon="-2.4867030">
        <ele>501.4</ele>
        <time>2020-02-01T11:08:45Z</time>
      </trkpt>
      <trkpt lat="42.3704730" lon="-2.4867420">
        <ele>501.5</ele>
        <time>2020-02-01T11:08:46Z</time>
      </trkpt>
      <trkpt lat="42.3704180" lon="-2.4867730">
        <ele>501.6</ele>
        <time>2020-02-01T11:08:47Z</time>
      </trkpt>
      <trkpt lat="42.3703680" lon="-2.4867990">
        <ele>501.7</ele>
        <time>2020-02-01T11:08:48Z</time>
      </trkpt>
      <trkpt lat="42.3703090" lon="-2.4868320">
        <ele>502.1</ele>
        <time>2020-02-01T11:08:49Z</time>
      </trkpt>
      <trkpt lat="42.3702550" lon="-2.4868640">
        <ele>502.6</ele>
        <time>2020-02-01T11:08:50Z</time>
      </trkpt>
      <trkpt lat="42.3702010" lon="-2.4868910">
        <ele>503.1</ele>
        <time>2020-02-01T11:08:51Z</time>
      </trkpt>
      <trkpt lat="42.3701420" lon="-2.4869230">
        <ele>503.3</ele>
        <time>2020-02-01T11:08:52Z</time>
      </trkpt>
      <trkpt lat="42.3700220" lon="-2.4869590">
        <ele>503.2</ele>
        <time>2020-02-01T11:08:53Z</time>
      </trkpt>
      <trkpt lat="42.3699640" lon="-2.4869910">
        <ele>503.2</ele>
        <time>2020-02-01T11:08:54Z</time>
      </trkpt>
      <trkpt lat="42.3699060" lon="-2.4870250">
        <ele>503.1</ele>
        <time>2020-02-01T11:08:55Z</time>
      </trkpt>
      <trkpt lat="42.3698310" lon="-2.4870460">
        <ele>503.0</ele>
        <time>2020-02-01T11:08:56Z</time>
      </trkpt>
      <trkpt lat="42.3697720" lon="-2.4870780">
        <ele>503.0</ele>
        <time>2020-02-01T11:08:57Z</time>
      </trkpt>
      <trkpt lat="42.3697130" lon="-2.4871100">
        <ele>502.9</ele>
        <time>2020-02-01T11:08:58Z</time>
      </trkpt>
      <trkpt lat="42.3696600" lon="-2.4871430">
        <ele>502.9</ele>
        <time>2020-02-01T11:08:59Z</time>
      </trkpt>
      <trkpt lat="42.3696010" lon="-2.4871750">
        <ele>502.8</ele>
        <time>2020-02-01T11:09:00Z</time>
      </trkpt>
      <trkpt lat="42.3695420" lon="-2.4872070">
        <ele>502.8</ele>
        <time>2020-02-01T11:09:01Z</time>
      </trkpt>
      <trkpt lat="42.3694830" lon="-2.4872390">
        <ele>502.8</ele>
        <time>2020-02-01T11:09:02Z</time>
      </trkpt>
      <trkpt lat="42.3694510" lon="-2.4873010">
        <ele>502.7</ele>
        <time>2020-02-01T11:09:04Z</time>
      </trkpt>
      <trkpt lat="42.3694140" lon="-2.4873450">
        <ele>502.7</ele>
        <time>2020-02-01T11:09:05Z</time>
      </trkpt>
      <trkpt lat="42.3693580" lon="-2.4873750">
        <ele>502.6</ele>
        <time>2020-02-01T11:09:06Z</time>
      </trkpt>
      <trkpt lat="42.3693020" lon="-2.4874050">
        <ele>502.7</ele>
        <time>2020-02-01T11:09:07Z</time>
      </trkpt>
      <trkpt lat="42.3692410" lon="-2.4874320">
        <ele>502.7</ele>
        <time>2020-02-01T11:09:08Z</time>
      </trkpt>
      <trkpt lat="42.3691870" lon="-2.4874590">
        <ele>502.7</ele>
        <time>2020-02-01T11:09:09Z</time>
      </trkpt>
      <trkpt lat="42.3691280" lon="-2.4874910">
        <ele>502.7</ele>
        <time>2020-02-01T11:09:10Z</time>
      </trkpt>
      <trkpt lat="42.3690690" lon="-2.4875240">
        <ele>502.7</ele>
        <time>2020-02-01T11:09:11Z</time>
      </trkpt>
      <trkpt lat="42.3690160" lon="-2.4875500">
        <ele>502.9</ele>
        <time>2020-02-01T11:09:12Z</time>
      </trkpt>
      <trkpt lat="42.3688760" lon="-2.4875400">
        <ele>503.5</ele>
        <time>2020-02-01T11:09:13Z</time>
      </trkpt>
      <trkpt lat="42.3688430" lon="-2.4875920">
        <ele>503.7</ele>
        <time>2020-02-01T11:09:14Z</time>
      </trkpt>
      <trkpt lat="42.3687860" lon="-2.4876200">
        <ele>504.1</ele>
        <time>2020-02-01T11:09:15Z</time>
      </trkpt>
      <trkpt lat="42.3687290" lon="-2.4876480">
        <ele>504.4</ele>
        <time>2020-02-01T11:09:16Z</time>
      </trkpt>
      <trkpt lat="42.3686720" lon="-2.4876740">
        <ele>504.8</ele>
        <time>2020-02-01T11:09:17Z</time>
      </trkpt>
      <trkpt lat="42.3686130" lon="-2.4877010">
        <ele>505.1</ele>
        <time>2020-02-01T11:09:18Z</time>
      </trkpt>
      <trkpt lat="42.3685540" lon="-2.4877270">
        <ele>505.5</ele>
        <time>2020-02-01T11:09:19Z</time>
      </trkpt>
      <trkpt lat="42.3686140" lon="-2.4878110">
        <ele>505.9</ele>
        <time>2020-02-01T11:09:20Z</time>
      </trkpt>
      <trkpt lat="42.3685760" lon="-2.4878500">
        <ele>506.1</ele>
        <time>2020-02-01T11:09:21Z</time>
      </trkpt>
      <trkpt lat="42.3685380" lon="-2.4878880">
        <ele>506.3</ele>
        <time>2020-02-01T11:09:22Z</time>
      </trkpt>
      <trkpt lat="42.3685170" lon="-2.4879260">
        <ele>506.4</ele>
        <time>2020-02-01T11:09:23Z</time>
      </trkpt>
      <trkpt lat="42.3684790" lon="-2.4879690">
        <ele>506.6</ele>
        <time>2020-02-01T11:09:24Z</time>
      </trkpt>
      <trkpt lat="42.3684420" lon="-2.4880060">
        <ele>506.7</ele>
        <time>2020-02-01T11:09:25Z</time>
      </trkpt>
      <trkpt lat="42.3684040" lon="-2.4880440">
        <ele>506.8</ele>
        <time>2020-02-01T11:09:26Z</time>
      </trkpt>
      <trkpt lat="42.3683670" lon="-2.4880870">
        <ele>507.0</ele>
        <time>2020-02-01T11:09:27Z</time>
      </trkpt>
      <trkpt lat="42.3683350" lon="-2.4881240">
        <ele>507.1</ele>
        <time>2020-02-01T11:09:28Z</time>
      </trkpt>
      <trkpt lat="42.3682970" lon="-2.4881620">
        <ele>507.2</ele>
        <time>2020-02-01T11:09:29Z</time>
      </trkpt>
      <trkpt lat="42.3682590" lon="-2.4882050">
        <ele>507.4</ele>
        <time>2020-02-01T11:09:30Z</time>
      </trkpt>
      <trkpt lat="42.3679110" lon="-2.4882850">
        <ele>508.0</ele>
        <time>2020-02-01T11:09:34Z</time>
      </trkpt>
      <trkpt lat="42.3678570" lon="-2.4883170">
        <ele>508.0</ele>
        <time>2020-02-01T11:09:35Z</time>
      </trkpt>
      <trkpt lat="42.3678090" lon="-2.4883500">
        <ele>508.0</ele>
        <time>2020-02-01T11:09:36Z</time>
      </trkpt>
      <trkpt lat="42.3677610" lon="-2.4883820">
        <ele>508.0</ele>
        <time>2020-02-01T11:09:37Z</time>
      </trkpt>
      <trkpt lat="42.3677070" lon="-2.4884090">
        <ele>508.0</ele>
        <time>2020-02-01T11:09:38Z</time>
      </trkpt>
      <trkpt lat="42.3676480" lon="-2.4884360">
        <ele>508.0</ele>
        <time>2020-02-01T11:09:39Z</time>
      </trkpt>
      <trkpt lat="42.3675940" lon="-2.4884680">
        <ele>508.0</ele>
        <time>2020-02-01T11:09:40Z</time>
      </trkpt>
      <trkpt lat="42.3674770" lon="-2.4885060">
        <ele>508.1</ele>
        <time>2020-02-01T11:09:41Z</time>
      </trkpt>
      <trkpt lat="42.3674310" lon="-2.4885460">
        <ele>508.3</ele>
        <time>2020-02-01T11:09:42Z</time>
      </trkpt>
      <trkpt lat="42.3673940" lon="-2.4885000">
        <ele>508.4</ele>
        <time>2020-02-01T11:09:43Z</time>
      </trkpt>
      <trkpt lat="42.3673570" lon="-2.4884810">
        <ele>508.5</ele>
        <time>2020-02-01T11:09:44Z</time>
      </trkpt>
      <trkpt lat="42.3672750" lon="-2.4884970">
        <ele>508.5</ele>
        <time>2020-02-01T11:09:45Z</time>
      </trkpt>
      <trkpt lat="42.3672290" lon="-2.4885370">
        <ele>508.5</ele>
        <time>2020-02-01T11:09:46Z</time>
      </trkpt>
      <trkpt lat="42.3671790" lon="-2.4885680">
        <ele>508.4</ele>
        <time>2020-02-01T11:09:47Z</time>
      </trkpt>
      <trkpt lat="42.3671260" lon="-2.4885950">
        <ele>508.4</ele>
        <time>2020-02-01T11:09:48Z</time>
      </trkpt>
      <trkpt lat="42.3670640" lon="-2.4886030">
        <ele>508.3</ele>
        <time>2020-02-01T11:09:49Z</time>
      </trkpt>
      <trkpt lat="42.3670080" lon="-2.4886380">
        <ele>508.4</ele>
        <time>2020-02-01T11:09:50Z</time>
      </trkpt>
      <trkpt lat="42.3669530" lon="-2.4886660">
        <ele>508.4</ele>
        <time>2020-02-01T11:09:51Z</time>
      </trkpt>
      <trkpt lat="42.3668980" lon="-2.4886940">
        <ele>508.6</ele>
        <time>2020-02-01T11:09:52Z</time>
      </trkpt>
      <trkpt lat="42.3668430" lon="-2.4887200">
        <ele>508.8</ele>
        <time>2020-02-01T11:09:53Z</time>
      </trkpt>
      <trkpt lat="42.3667900" lon="-2.4887470">
        <ele>509.0</ele>
        <time>2020-02-01T11:09:54Z</time>
      </trkpt>
      <trkpt lat="42.3667310" lon="-2.4887790">
        <ele>509.3</ele>
        <time>2020-02-01T11:09:55Z</time>
      </trkpt>
      <trkpt lat="42.3666770" lon="-2.4888060">
        <ele>509.6</ele>
        <time>2020-02-01T11:09:56Z</time>
      </trkpt>
      <trkpt lat="42.3666290" lon="-2.4888400">
        <ele>509.8</ele>
        <time>2020-02-01T11:09:58Z</time>
      </trkpt>
      <trkpt lat="42.3665760" lon="-2.4888680">
        <ele>510.0</ele>
        <time>2020-02-01T11:09:59Z</time>
      </trkpt>
      <trkpt lat="42.3665020" lon="-2.4889420">
        <ele>510.1</ele>
        <time>2020-02-01T11:10:00Z</time>
      </trkpt>
      <trkpt lat="42.3664310" lon="-2.4889680">
        <ele>510.2</ele>
        <time>2020-02-01T11:10:01Z</time>
      </trkpt>
      <trkpt lat="42.3663740" lon="-2.4889950">
        <ele>510.3</ele>
        <time>2020-02-01T11:10:02Z</time>
      </trkpt>
      <trkpt lat="42.3663180" lon="-2.4890220">
        <ele>510.4</ele>
        <time>2020-02-01T11:10:03Z</time>
      </trkpt>
      <trkpt lat="42.3662590" lon="-2.4890520">
        <ele>510.5</ele>
        <time>2020-02-01T11:10:04Z</time>
      </trkpt>
      <trkpt lat="42.3662050" lon="-2.4890790">
        <ele>510.7</ele>
        <time>2020-02-01T11:10:05Z</time>
      </trkpt>
      <trkpt lat="42.3661460" lon="-2.4891060">
        <ele>510.9</ele>
        <time>2020-02-01T11:10:06Z</time>
      </trkpt>
      <trkpt lat="42.3660870" lon="-2.4891330">
        <ele>511.0</ele>
        <time>2020-02-01T11:10:07Z</time>
      </trkpt>
      <trkpt lat="42.3660330" lon="-2.4891600">
        <ele>511.2</ele>
        <time>2020-02-01T11:10:08Z</time>
      </trkpt>
      <trkpt lat="42.3659800" lon="-2.4891870">
        <ele>511.3</ele>
        <time>2020-02-01T11:10:09Z</time>
      </trkpt>
      <trkpt lat="42.3659260" lon="-2.4892130">
        <ele>511.3</ele>
        <time>2020-02-01T11:10:10Z</time>
      </trkpt>
      <trkpt lat="42.3658670" lon="-2.4892400">
        <ele>511.4</ele>
        <time>2020-02-01T11:10:11Z</time>
      </trkpt>
      <trkpt lat="42.3658080" lon="-2.4892670">
        <ele>511.6</ele>
        <time>2020-02-01T11:10:12Z</time>
      </trkpt>
      <trkpt lat="42.3657540" lon="-2.4892940">
        <ele>511.6</ele>
        <time>2020-02-01T11:10:13Z</time>
      </trkpt>
      <trkpt lat="42.3654860" lon="-2.4893800">
        <ele>511.5</ele>
        <time>2020-02-01T11:10:17Z</time>
      </trkpt>
      <trkpt lat="42.3654270" lon="-2.4894230">
        <ele>511.6</ele>
        <time>2020-02-01T11:10:18Z</time>
      </trkpt>
      <trkpt lat="42.3653730" lon="-2.4894490">
        <ele>511.7</ele>
        <time>2020-02-01T11:10:19Z</time>
      </trkpt>
      <trkpt lat="42.3653200" lon="-2.4894820">
        <ele>511.9</ele>
        <time>2020-02-01T11:10:20Z</time>
      </trkpt>
      <trkpt lat="42.3652620" lon="-2.4894930">
        <ele>512.0</ele>
        <time>2020-02-01T11:10:22Z</time>
      </trkpt>
      <trkpt lat="42.3652140" lon="-2.4895150">
        <ele>512.1</ele>
        <time>2020-02-01T11:10:23Z</time>
      </trkpt>
      <trkpt lat="42.3651700" lon="-2.4895410">
        <ele>512.2</ele>
        <time>2020-02-01T11:10:24Z</time>
      </trkpt>
      <trkpt lat="42.3651210" lon="-2.4895620">
        <ele>512.2</ele>
        <time>2020-02-01T11:10:25Z</time>
      </trkpt>
      <trkpt lat="42.3650410" lon="-2.4896050">
        <ele>512.2</ele>
        <time>2020-02-01T11:10:26Z</time>
      </trkpt>
      <trkpt lat="42.3649900" lon="-2.4896280">
        <ele>512.2</ele>
        <time>2020-02-01T11:10:27Z</time>
      </trkpt>
      <trkpt lat="42.3649860" lon="-2.4896960">
        <ele>512.2</ele>
        <time>2020-02-01T11:10:28Z</time>
      </trkpt>
      <trkpt lat="42.3649330" lon="-2.4897390">
        <ele>512.2</ele>
        <time>2020-02-01T11:10:29Z</time>
      </trkpt>
      <trkpt lat="42.3648740" lon="-2.4897710">
        <ele>512.2</ele>
        <time>2020-02-01T11:10:30Z</time>
      </trkpt>
      <trkpt lat="42.3647510" lon="-2.4897930">
        <ele>512.2</ele>
        <time>2020-02-01T11:10:31Z</time>
      </trkpt>
      <trkpt lat="42.3646750" lon="-2.4898370">
        <ele>512.3</ele>
        <time>2020-02-01T11:10:32Z</time>
      </trkpt>
      <trkpt lat="42.3646080" lon="-2.4898640">
        <ele>512.4</ele>
        <time>2020-02-01T11:10:33Z</time>
      </trkpt>
      <trkpt lat="42.3645200" lon="-2.4898730">
        <ele>512.6</ele>
        <time>2020-02-01T11:10:34Z</time>
      </trkpt>
      <trkpt lat="42.3644510" lon="-2.4898950">
        <ele>512.7</ele>
        <time>2020-02-01T11:10:35Z</time>
      </trkpt>
      <trkpt lat="42.3644880" lon="-2.4899800">
        <ele>512.9</ele>
        <time>2020-02-01T11:10:36Z</time>
      </trkpt>
      <trkpt lat="42.3644430" lon="-2.4899890">
        <ele>512.9</ele>
        <time>2020-02-01T11:10:37Z</time>
      </trkpt>
      <trkpt lat="42.3643890" lon="-2.4900170">
        <ele>512.9</ele>
        <time>2020-02-01T11:10:38Z</time>
      </trkpt>
      <trkpt lat="42.3643350" lon="-2.4900440">
        <ele>512.9</ele>
        <time>2020-02-01T11:10:39Z</time>
      </trkpt>
      <trkpt lat="42.3642890" lon="-2.4901060">
        <ele>512.9</ele>
        <time>2020-02-01T11:10:40Z</time>
      </trkpt>
      <trkpt lat="42.3642110" lon="-2.4901520">
        <ele>512.9</ele>
        <time>2020-02-01T11:10:42Z</time>
      </trkpt>
      <trkpt lat="42.3641540" lon="-2.4901820">
        <ele>512.9</ele>
        <time>2020-02-01T11:10:43Z</time>
      </trkpt>
      <trkpt lat="42.3640970" lon="-2.4902110">
        <ele>512.8</ele>
        <time>2020-02-01T11:10:44Z</time>
      </trkpt>
      <trkpt lat="42.3639940" lon="-2.4902490">
        <ele>512.8</ele>
        <time>2020-02-01T11:10:45Z</time>
      </trkpt>
      <trkpt lat="42.3639470" lon="-2.4902870">
        <ele>512.8</ele>
        <time>2020-02-01T11:10:46Z</time>
      </trkpt>
      <trkpt lat="42.3638670" lon="-2.4903260">
        <ele>512.7</ele>
        <time>2020-02-01T11:10:47Z</time>
      </trkpt>
      <trkpt lat="42.3638060" lon="-2.4903530">
        <ele>512.7</ele>
        <time>2020-02-01T11:10:48Z</time>
      </trkpt>
      <trkpt lat="42.3637660" lon="-2.4903380">
        <ele>512.7</ele>
        <time>2020-02-01T11:10:49Z</time>
      </trkpt>
      <trkpt lat="42.3637350" lon="-2.4903750">
        <ele>512.7</ele>
        <time>2020-02-01T11:10:50Z</time>
      </trkpt>
      <trkpt lat="42.3637000" lon="-2.4904240">
        <ele>512.7</ele>
        <time>2020-02-01T11:10:51Z</time>
      </trkpt>
      <trkpt lat="42.3636460" lon="-2.4904540">
        <ele>512.7</ele>
        <time>2020-02-01T11:10:52Z</time>
      </trkpt>
      <trkpt lat="42.3635910" lon="-2.4904830">
        <ele>512.7</ele>
        <time>2020-02-01T11:10:53Z</time>
      </trkpt>
      <trkpt lat="42.3635330" lon="-2.4905120">
        <ele>512.7</ele>
        <time>2020-02-01T11:10:54Z</time>
      </trkpt>
      <trkpt lat="42.3634800" lon="-2.4905380">
        <ele>512.7</ele>
        <time>2020-02-01T11:10:55Z</time>
      </trkpt>
      <trkpt lat="42.3634260" lon="-2.4905710">
        <ele>512.7</ele>
        <time>2020-02-01T11:10:56Z</time>
      </trkpt>
      <trkpt lat="42.3633560" lon="-2.4905920">
        <ele>512.8</ele>
        <time>2020-02-01T11:10:57Z</time>
      </trkpt>
      <trkpt lat="42.3633030" lon="-2.4906220">
        <ele>512.8</ele>
        <time>2020-02-01T11:10:58Z</time>
      </trkpt>
      <trkpt lat="42.3632510" lon="-2.4906530">
        <ele>512.9</ele>
        <time>2020-02-01T11:10:59Z</time>
      </trkpt>
      <trkpt lat="42.3631950" lon="-2.4906830">
        <ele>513.0</ele>
        <time>2020-02-01T11:11:00Z</time>
      </trkpt>
      <trkpt lat="42.3631470" lon="-2.4907150">
        <ele>513.1</ele>
        <time>2020-02-01T11:11:01Z</time>
      </trkpt>
      <trkpt lat="42.3630930" lon="-2.4907480">
        <ele>513.3</ele>
        <time>2020-02-01T11:11:02Z</time>
      </trkpt>
      <trkpt lat="42.3630400" lon="-2.4907800">
        <ele>513.5</ele>
        <time>2020-02-01T11:11:03Z</time>
      </trkpt>
      <trkpt lat="42.3629270" lon="-2.4907530">
        <ele>514.1</ele>
        <time>2020-02-01T11:11:04Z</time>
      </trkpt>
      <trkpt lat="42.3628690" lon="-2.4907780">
        <ele>514.4</ele>
        <time>2020-02-01T11:11:05Z</time>
      </trkpt>
      <trkpt lat="42.3628080" lon="-2.4908030">
        <ele>514.7</ele>
        <time>2020-02-01T11:11:06Z</time>
      </trkpt>
      <trkpt lat="42.3627390" lon="-2.4908170">
        <ele>515.1</ele>
        <time>2020-02-01T11:11:07Z</time>
      </trkpt>
      <trkpt lat="42.3626800" lon="-2.4908440">
        <ele>515.4</ele>
        <time>2020-02-01T11:11:08Z</time>
      </trkpt>
      <trkpt lat="42.3626210" lon="-2.4908710">
        <ele>515.6</ele>
        <time>2020-02-01T11:11:09Z</time>
      </trkpt>
      <trkpt lat="42.3625570" lon="-2.4908920">
        <ele>515.7</ele>
        <time>2020-02-01T11:11:10Z</time>
      </trkpt>
      <trkpt lat="42.3624930" lon="-2.4909190">
        <ele>515.8</ele>
        <time>2020-02-01T11:11:11Z</time>
      </trkpt>
      <trkpt lat="42.3624390" lon="-2.4909460">
        <ele>515.9</ele>
        <time>2020-02-01T11:11:12Z</time>
      </trkpt>
      <trkpt lat="42.3623750" lon="-2.4909730">
        <ele>516.1</ele>
        <time>2020-02-01T11:11:13Z</time>
      </trkpt>
      <trkpt lat="42.3623160" lon="-2.4909940">
        <ele>516.2</ele>
        <time>2020-02-01T11:11:14Z</time>
      </trkpt>
      <trkpt lat="42.3620370" lon="-2.4911070">
        <ele>516.9</ele>
        <time>2020-02-01T11:11:18Z</time>
      </trkpt>
      <trkpt lat="42.3620010" lon="-2.4911880">
        <ele>517.1</ele>
        <time>2020-02-01T11:11:19Z</time>
      </trkpt>
      <trkpt lat="42.3619540" lon="-2.4912200">
        <ele>517.3</ele>
        <time>2020-02-01T11:11:20Z</time>
      </trkpt>
      <trkpt lat="42.3619030" lon="-2.4912550">
        <ele>517.4</ele>
        <time>2020-02-01T11:11:21Z</time>
      </trkpt>
      <trkpt lat="42.3618720" lon="-2.4912710">
        <ele>517.5</ele>
        <time>2020-02-01T11:11:22Z</time>
      </trkpt>
      <trkpt lat="42.3618170" lon="-2.4913280">
        <ele>517.7</ele>
        <time>2020-02-01T11:11:24Z</time>
      </trkpt>
      <trkpt lat="42.3617590" lon="-2.4913560">
        <ele>517.8</ele>
        <time>2020-02-01T11:11:25Z</time>
      </trkpt>
      <trkpt lat="42.3617050" lon="-2.4913910">
        <ele>517.9</ele>
        <time>2020-02-01T11:11:26Z</time>
      </trkpt>
      <trkpt lat="42.3616350" lon="-2.4914180">
        <ele>518.0</ele>
        <time>2020-02-01T11:11:27Z</time>
      </trkpt>
      <trkpt lat="42.3615940" lon="-2.4914590">
        <ele>518.1</ele>
        <time>2020-02-01T11:11:28Z</time>
      </trkpt>
      <trkpt lat="42.3615390" lon="-2.4915010">
        <ele>518.1</ele>
        <time>2020-02-01T11:11:29Z</time>
      </trkpt>
      <trkpt lat="42.3614800" lon="-2.4915360">
        <ele>518.2</ele>
        <time>2020-02-01T11:11:30Z</time>
      </trkpt>
      <trkpt lat="42.3614360" lon="-2.4915650">
        <ele>518.4</ele>
        <time>2020-02-01T11:11:31Z</time>
      </trkpt>
      <trkpt lat="42.3613810" lon="-2.4915980">
        <ele>518.5</ele>
        <time>2020-02-01T11:11:32Z</time>
      </trkpt>
      <trkpt lat="42.3613290" lon="-2.4916270">
        <ele>518.7</ele>
        <time>2020-02-01T11:11:33Z</time>
      </trkpt>
      <trkpt lat="42.3612750" lon="-2.4916600">
        <ele>519.0</ele>
        <time>2020-02-01T11:11:34Z</time>
      </trkpt>
      <trkpt lat="42.3612160" lon="-2.4916920">
        <ele>519.2</ele>
        <time>2020-02-01T11:11:35Z</time>
      </trkpt>
      <trkpt lat="42.3611620" lon="-2.4917240">
        <ele>519.5</ele>
        <time>2020-02-01T11:11:36Z</time>
      </trkpt>
      <trkpt lat="42.3611090" lon="-2.4917560">
        <ele>519.7</ele>
        <time>2020-02-01T11:11:37Z</time>
      </trkpt>
      <trkpt lat="42.3610550" lon="-2.4917880">
        <ele>519.8</ele>
        <time>2020-02-01T11:11:38Z</time>
      </trkpt>
      <trkpt lat="42.3610010" lon="-2.4918200">
        <ele>520.0</ele>
        <time>2020-02-01T11:11:39Z</time>
      </trkpt>
      <trkpt lat="42.3609480" lon="-2.4918530">
        <ele>520.1</ele>
        <time>2020-02-01T11:11:40Z</time>
      </trkpt>
      <trkpt lat="42.3608940" lon="-2.4918850">
        <ele>520.1</ele>
        <time>2020-02-01T11:11:41Z</time>
      </trkpt>
      <trkpt lat="42.3608400" lon="-2.4919170">
        <ele>520.2</ele>
        <time>2020-02-01T11:11:42Z</time>
      </trkpt>
      <trkpt lat="42.3607810" lon="-2.4919490">
        <ele>520.3</ele>
        <time>2020-02-01T11:11:43Z</time>
      </trkpt>
      <trkpt lat="42.3603580" lon="-2.4922760">
        <ele>521.3</ele>
        <time>2020-02-01T11:11:54Z</time>
      </trkpt>
      <trkpt lat="42.3600610" lon="-2.4923410">
        <ele>521.8</ele>
        <time>2020-02-01T11:11:56Z</time>
      </trkpt>
      <trkpt lat="42.3599870" lon="-2.4923530">
        <ele>522.0</ele>
        <time>2020-02-01T11:11:57Z</time>
      </trkpt>
      <trkpt lat="42.3599330" lon="-2.4923770">
        <ele>522.1</ele>
        <time>2020-02-01T11:11:58Z</time>
      </trkpt>
      <trkpt lat="42.3598660" lon="-2.4923920">
        <ele>522.1</ele>
        <time>2020-02-01T11:11:59Z</time>
      </trkpt>
      <trkpt lat="42.3598270" lon="-2.4924210">
        <ele>522.2</ele>
        <time>2020-02-01T11:12:00Z</time>
      </trkpt>
      <trkpt lat="42.3597840" lon="-2.4924590">
        <ele>522.2</ele>
        <time>2020-02-01T11:12:01Z</time>
      </trkpt>
      <trkpt lat="42.3597360" lon="-2.4924920">
        <ele>522.3</ele>
        <time>2020-02-01T11:12:02Z</time>
      </trkpt>
      <trkpt lat="42.3596600" lon="-2.4925270">
        <ele>522.4</ele>
        <time>2020-02-01T11:12:03Z</time>
      </trkpt>
      <trkpt lat="42.3596050" lon="-2.4925400">
        <ele>522.5</ele>
        <time>2020-02-01T11:12:04Z</time>
      </trkpt>
      <trkpt lat="42.3595530" lon="-2.4925880">
        <ele>522.6</ele>
        <time>2020-02-01T11:12:05Z</time>
      </trkpt>
      <trkpt lat="42.3595090" lon="-2.4926200">
        <ele>522.7</ele>
        <time>2020-02-01T11:12:06Z</time>
      </trkpt>
      <trkpt lat="42.3594670" lon="-2.4926630">
        <ele>522.8</ele>
        <time>2020-02-01T11:12:07Z</time>
      </trkpt>
      <trkpt lat="42.3594090" lon="-2.4926810">
        <ele>522.9</ele>
        <time>2020-02-01T11:12:08Z</time>
      </trkpt>
      <trkpt lat="42.3593640" lon="-2.4927110">
        <ele>523.0</ele>
        <time>2020-02-01T11:12:09Z</time>
      </trkpt>
      <trkpt lat="42.3593000" lon="-2.4927400">
        <ele>523.1</ele>
        <time>2020-02-01T11:12:10Z</time>
      </trkpt>
      <trkpt lat="42.3592370" lon="-2.4927820">
        <ele>523.2</ele>
        <time>2020-02-01T11:12:11Z</time>
      </trkpt>
      <trkpt lat="42.3591720" lon="-2.4928170">
        <ele>523.2</ele>
        <time>2020-02-01T11:12:12Z</time>
      </trkpt>
      <trkpt lat="42.3591130" lon="-2.4928460">
        <ele>523.2</ele>
        <time>2020-02-01T11:12:13Z</time>
      </trkpt>
      <trkpt lat="42.3590550" lon="-2.4928760">
        <ele>523.2</ele>
        <time>2020-02-01T11:12:14Z</time>
      </trkpt>
      <trkpt lat="42.3589940" lon="-2.4928910">
        <ele>523.3</ele>
        <time>2020-02-01T11:12:15Z</time>
      </trkpt>
      <trkpt lat="42.3589290" lon="-2.4929220">
        <ele>523.3</ele>
        <time>2020-02-01T11:12:16Z</time>
      </trkpt>
      <trkpt lat="42.3588670" lon="-2.4929450">
        <ele>523.4</ele>
        <time>2020-02-01T11:12:17Z</time>
      </trkpt>
      <trkpt lat="42.3588130" lon="-2.4929740">
        <ele>523.6</ele>
        <time>2020-02-01T11:12:18Z</time>
      </trkpt>
      <trkpt lat="42.3587600" lon="-2.4930040">
        <ele>523.7</ele>
        <time>2020-02-01T11:12:19Z</time>
      </trkpt>
      <trkpt lat="42.3587000" lon="-2.4930330">
        <ele>523.8</ele>
        <time>2020-02-01T11:12:20Z</time>
      </trkpt>
      <trkpt lat="42.3586480" lon="-2.4930380">
        <ele>523.9</ele>
        <time>2020-02-01T11:12:21Z</time>
      </trkpt>
      <trkpt lat="42.3586110" lon="-2.4930790">
        <ele>524.0</ele>
        <time>2020-02-01T11:12:22Z</time>
      </trkpt>
      <trkpt lat="42.3585470" lon="-2.4931090">
        <ele>524.1</ele>
        <time>2020-02-01T11:12:23Z</time>
      </trkpt>
      <trkpt lat="42.3584750" lon="-2.4931240">
        <ele>524.1</ele>
        <time>2020-02-01T11:12:24Z</time>
      </trkpt>
      <trkpt lat="42.3584270" lon="-2.4931660">
        <ele>524.2</ele>
        <time>2020-02-01T11:12:25Z</time>
      </trkpt>
      <trkpt lat="42.3583710" lon="-2.4932110">
        <ele>524.2</ele>
        <time>2020-02-01T11:12:26Z</time>
      </trkpt>
      <trkpt lat="42.3582980" lon="-2.4932310">
        <ele>524.3</ele>
        <time>2020-02-01T11:12:27Z</time>
      </trkpt>
      <trkpt lat="42.3582380" lon="-2.4932620">
        <ele>524.5</ele>
        <time>2020-02-01T11:12:28Z</time>
      </trkpt>
      <trkpt lat="42.3581680" lon="-2.4933020">
        <ele>524.6</ele>
        <time>2020-02-01T11:12:29Z</time>
      </trkpt>
      <trkpt lat="42.3581030" lon="-2.4933300">
        <ele>524.8</ele>
        <time>2020-02-01T11:12:30Z</time>
      </trkpt>
      <trkpt lat="42.3580400" lon="-2.4933610">
        <ele>524.9</ele>
        <time>2020-02-01T11:12:31Z</time>
      </trkpt>
      <trkpt lat="42.3579780" lon="-2.4933930">
        <ele>525.0</ele>
        <time>2020-02-01T11:12:32Z</time>
      </trkpt>
      <trkpt lat="42.3579110" lon="-2.4934240">
        <ele>525.1</ele>
        <time>2020-02-01T11:12:33Z</time>
      </trkpt>
      <trkpt lat="42.3578520" lon="-2.4934570">
        <ele>525.1</ele>
        <time>2020-02-01T11:12:34Z</time>
      </trkpt>
      <trkpt lat="42.3577830" lon="-2.4934890">
        <ele>525.1</ele>
        <time>2020-02-01T11:12:35Z</time>
      </trkpt>
      <trkpt lat="42.3577180" lon="-2.4935210">
        <ele>525.2</ele>
        <time>2020-02-01T11:12:36Z</time>
      </trkpt>
      <trkpt lat="42.3576590" lon="-2.4935480">
        <ele>525.2</ele>
        <time>2020-02-01T11:12:37Z</time>
      </trkpt>
      <trkpt lat="42.3575950" lon="-2.4935800">
        <ele>525.3</ele>
        <time>2020-02-01T11:12:38Z</time>
      </trkpt>
      <trkpt lat="42.3575310" lon="-2.4936120">
        <ele>525.5</ele>
        <time>2020-02-01T11:12:39Z</time>
      </trkpt>
      <trkpt lat="42.3574720" lon="-2.4936440">
        <ele>525.7</ele>
        <time>2020-02-01T11:12:40Z</time>
      </trkpt>
      <trkpt lat="42.3574070" lon="-2.4936770">
        <ele>525.9</ele>
        <time>2020-02-01T11:12:41Z</time>
      </trkpt>
      <trkpt lat="42.3571660" lon="-2.4938590">
        <ele>526.2</ele>
        <time>2020-02-01T11:12:48Z</time>
      </trkpt>
      <trkpt lat="42.3570980" lon="-2.4939330">
        <ele>526.3</ele>
        <time>2020-02-01T11:12:49Z</time>
      </trkpt>
      <trkpt lat="42.3570650" lon="-2.4939590">
        <ele>526.3</ele>
        <time>2020-02-01T11:12:50Z</time>
      </trkpt>
      <trkpt lat="42.3569940" lon="-2.4939820">
        <ele>526.5</ele>
        <time>2020-02-01T11:12:51Z</time>
      </trkpt>
      <trkpt lat="42.3569300" lon="-2.4940010">
        <ele>526.7</ele>
        <time>2020-02-01T11:12:52Z</time>
      </trkpt>
      <trkpt lat="42.3568810" lon="-2.4940320">
        <ele>526.8</ele>
        <time>2020-02-01T11:12:53Z</time>
      </trkpt>
      <trkpt lat="42.3568300" lon="-2.4940540">
        <ele>526.9</ele>
        <time>2020-02-01T11:12:54Z</time>
      </trkpt>
      <trkpt lat="42.3567710" lon="-2.4940640">
        <ele>527.0</ele>
        <time>2020-02-01T11:12:55Z</time>
      </trkpt>
      <trkpt lat="42.3567180" lon="-2.4940980">
        <ele>527.1</ele>
        <time>2020-02-01T11:12:56Z</time>
      </trkpt>
      <trkpt lat="42.3566750" lon="-2.4941230">
        <ele>527.1</ele>
        <time>2020-02-01T11:12:57Z</time>
      </trkpt>
      <trkpt lat="42.3566290" lon="-2.4941540">
        <ele>527.2</ele>
        <time>2020-02-01T11:12:58Z</time>
      </trkpt>
      <trkpt lat="42.3565860" lon="-2.4941860">
        <ele>527.3</ele>
        <time>2020-02-01T11:12:59Z</time>
      </trkpt>
      <trkpt lat="42.3565390" lon="-2.4942230">
        <ele>527.3</ele>
        <time>2020-02-01T11:13:00Z</time>
      </trkpt>
      <trkpt lat="42.3564520" lon="-2.4942240">
        <ele>527.6</ele>
        <time>2020-02-01T11:13:01Z</time>
      </trkpt>
      <trkpt lat="42.3564020" lon="-2.4942480">
        <ele>527.7</ele>
        <time>2020-02-01T11:13:02Z</time>
      </trkpt>
      <trkpt lat="42.3563400" lon="-2.4942910">
        <ele>527.9</ele>
        <time>2020-02-01T11:13:03Z</time>
      </trkpt>
      <trkpt lat="42.3562950" lon="-2.4943470">
        <ele>527.9</ele>
        <time>2020-02-01T11:13:04Z</time>
      </trkpt>
      <trkpt lat="42.3562440" lon="-2.4943720">
        <ele>528.0</ele>
        <time>2020-02-01T11:13:05Z</time>
      </trkpt>
      <trkpt lat="42.3561710" lon="-2.4944020">
        <ele>528.1</ele>
        <time>2020-02-01T11:13:06Z</time>
      </trkpt>
      <trkpt lat="42.3561090" lon="-2.4944440">
        <ele>528.1</ele>
        <time>2020-02-01T11:13:07Z</time>
      </trkpt>
      <trkpt lat="42.3560530" lon="-2.4944840">
        <ele>528.2</ele>
        <time>2020-02-01T11:13:08Z</time>
      </trkpt>
      <trkpt lat="42.3559820" lon="-2.4945230">
        <ele>528.4</ele>
        <time>2020-02-01T11:13:09Z</time>
      </trkpt>
      <trkpt lat="42.3559270" lon="-2.4945710">
        <ele>528.5</ele>
        <time>2020-02-01T11:13:10Z</time>
      </trkpt>
      <trkpt lat="42.3558690" lon="-2.4946120">
        <ele>528.6</ele>
        <time>2020-02-01T11:13:11Z</time>
      </trkpt>
      <trkpt lat="42.3558140" lon="-2.4946530">
        <ele>528.8</ele>
        <time>2020-02-01T11:13:12Z</time>
      </trkpt>
      <trkpt lat="42.3557550" lon="-2.4946960">
        <ele>528.9</ele>
        <time>2020-02-01T11:13:13Z</time>
      </trkpt>
      <trkpt lat="42.3556960" lon="-2.4947390">
        <ele>529.0</ele>
        <time>2020-02-01T11:13:14Z</time>
      </trkpt>
      <trkpt lat="42.3556370" lon="-2.4947760">
        <ele>529.0</ele>
        <time>2020-02-01T11:13:15Z</time>
      </trkpt>
      <trkpt lat="42.3556370" lon="-2.4946960">
        <ele>529.1</ele>
        <time>2020-02-01T11:13:16Z</time>
      </trkpt>
      <trkpt lat="42.3555830" lon="-2.4947280">
        <ele>529.1</ele>
        <time>2020-02-01T11:13:17Z</time>
      </trkpt>
      <trkpt lat="42.3555310" lon="-2.4947600">
        <ele>529.1</ele>
        <time>2020-02-01T11:13:18Z</time>
      </trkpt>
      <trkpt lat="42.3554810" lon="-2.4947760">
        <ele>529.2</ele>
        <time>2020-02-01T11:13:19Z</time>
      </trkpt>
      <trkpt lat="42.3554280" lon="-2.4948080">
        <ele>529.3</ele>
        <time>2020-02-01T11:13:20Z</time>
      </trkpt>
      <trkpt lat="42.3553790" lon="-2.4948410">
        <ele>529.4</ele>
        <time>2020-02-01T11:13:21Z</time>
      </trkpt>
      <trkpt lat="42.3553260" lon="-2.4948670">
        <ele>529.5</ele>
        <time>2020-02-01T11:13:22Z</time>
      </trkpt>
      <trkpt lat="42.3552720" lon="-2.4949000">
        <ele>529.6</ele>
        <time>2020-02-01T11:13:23Z</time>
      </trkpt>
      <trkpt lat="42.3552240" lon="-2.4949370">
        <ele>529.7</ele>
        <time>2020-02-01T11:13:24Z</time>
      </trkpt>
      <trkpt lat="42.3551700" lon="-2.4949640">
        <ele>529.8</ele>
        <time>2020-02-01T11:13:25Z</time>
      </trkpt>
      <trkpt lat="42.3551170" lon="-2.4949960">
        <ele>529.9</ele>
        <time>2020-02-01T11:13:26Z</time>
      </trkpt>
      <trkpt lat="42.3550680" lon="-2.4950280">
        <ele>530.0</ele>
        <time>2020-02-01T11:13:27Z</time>
      </trkpt>
      <trkpt lat="42.3547630" lon="-2.4951680">
        <ele>530.3</ele>
        <time>2020-02-01T11:13:32Z</time>
      </trkpt>
      <trkpt lat="42.3547040" lon="-2.4952050">
        <ele>530.5</ele>
        <time>2020-02-01T11:13:33Z</time>
      </trkpt>
      <trkpt lat="42.3546450" lon="-2.4952430">
        <ele>530.7</ele>
        <time>2020-02-01T11:13:34Z</time>
      </trkpt>
      <trkpt lat="42.3545910" lon="-2.4952810">
        <ele>530.8</ele>
        <time>2020-02-01T11:13:35Z</time>
      </trkpt>
      <trkpt lat="42.3545370" lon="-2.4953180">
        <ele>530.9</ele>
        <time>2020-02-01T11:13:36Z</time>
      </trkpt>
      <trkpt lat="42.3544780" lon="-2.4953560">
        <ele>531.0</ele>
        <time>2020-02-01T11:13:37Z</time>
      </trkpt>
      <trkpt lat="42.3544120" lon="-2.4953730">
        <ele>531.1</ele>
        <time>2020-02-01T11:13:38Z</time>
      </trkpt>
      <trkpt lat="42.3543850" lon="-2.4953530">
        <ele>531.2</ele>
        <time>2020-02-01T11:13:39Z</time>
      </trkpt>
      <trkpt lat="42.3543390" lon="-2.4953770">
        <ele>531.3</ele>
        <time>2020-02-01T11:13:40Z</time>
      </trkpt>
      <trkpt lat="42.3542640" lon="-2.4954200">
        <ele>531.5</ele>
        <time>2020-02-01T11:13:41Z</time>
      </trkpt>
      <trkpt lat="42.3542280" lon="-2.4954420">
        <ele>531.6</ele>
        <time>2020-02-01T11:13:42Z</time>
      </trkpt>
      <trkpt lat="42.3541850" lon="-2.4954690">
        <ele>531.7</ele>
        <time>2020-02-01T11:13:43Z</time>
      </trkpt>
      <trkpt lat="42.3541360" lon="-2.4954980">
        <ele>531.9</ele>
        <time>2020-02-01T11:13:44Z</time>
      </trkpt>
      <trkpt lat="42.3540840" lon="-2.4955360">
        <ele>532.0</ele>
        <time>2020-02-01T11:13:45Z</time>
      </trkpt>
      <trkpt lat="42.3540170" lon="-2.4955480">
        <ele>532.2</ele>
        <time>2020-02-01T11:13:46Z</time>
      </trkpt>
      <trkpt lat="42.3539710" lon="-2.4955750">
        <ele>532.3</ele>
        <time>2020-02-01T11:13:47Z</time>
      </trkpt>
      <trkpt lat="42.3539030" lon="-2.4956160">
        <ele>532.5</ele>
        <time>2020-02-01T11:13:48Z</time>
      </trkpt>
      <trkpt lat="42.3538470" lon="-2.4956470">
        <ele>532.7</ele>
        <time>2020-02-01T11:13:49Z</time>
      </trkpt>
      <trkpt lat="42.3537970" lon="-2.4956760">
        <ele>532.9</ele>
        <time>2020-02-01T11:13:50Z</time>
      </trkpt>
      <trkpt lat="42.3537500" lon="-2.4957010">
        <ele>533.0</ele>
        <time>2020-02-01T11:13:51Z</time>
      </trkpt>
      <trkpt lat="42.3536990" lon="-2.4957310">
        <ele>533.2</ele>
        <time>2020-02-01T11:13:52Z</time>
      </trkpt>
      <trkpt lat="42.3536780" lon="-2.4957740">
        <ele>533.3</ele>
        <time>2020-02-01T11:13:53Z</time>
      </trkpt>
      <trkpt lat="42.3536280" lon="-2.4958090">
        <ele>533.5</ele>
        <time>2020-02-01T11:13:54Z</time>
      </trkpt>
      <trkpt lat="42.3535610" lon="-2.4958890">
        <ele>533.8</ele>
        <time>2020-02-01T11:13:55Z</time>
      </trkpt>
      <trkpt lat="42.3535130" lon="-2.4959260">
        <ele>533.9</ele>
        <time>2020-02-01T11:13:56Z</time>
      </trkpt>
      <trkpt lat="42.3534580" lon="-2.4959750">
        <ele>533.9</ele>
        <time>2020-02-01T11:13:57Z</time>
      </trkpt>
      <trkpt lat="42.3534100" lon="-2.4960050">
        <ele>534.0</ele>
        <time>2020-02-01T11:13:58Z</time>
      </trkpt>
      <trkpt lat="42.3533900" lon="-2.4960710">
        <ele>534.0</ele>
        <time>2020-02-01T11:13:59Z</time>
      </trkpt>
      <trkpt lat="42.3532520" lon="-2.4961010">
        <ele>534.0</ele>
        <time>2020-02-01T11:14:00Z</time>
      </trkpt>
      <trkpt lat="42.3532280" lon="-2.4961660">
        <ele>534.0</ele>
        <time>2020-02-01T11:14:01Z</time>
      </trkpt>
      <trkpt lat="42.3531460" lon="-2.4960270">
        <ele>534.0</ele>
        <time>2020-02-01T11:14:02Z</time>
      </trkpt>
      <trkpt lat="42.3530930" lon="-2.4961010">
        <ele>534.0</ele>
        <time>2020-02-01T11:14:03Z</time>
      </trkpt>
      <trkpt lat="42.3530160" lon="-2.4961310">
        <ele>534.1</ele>
        <time>2020-02-01T11:14:04Z</time>
      </trkpt>
      <trkpt lat="42.3529500" lon="-2.4961570">
        <ele>534.1</ele>
        <time>2020-02-01T11:14:05Z</time>
      </trkpt>
      <trkpt lat="42.3528950" lon="-2.4961870">
        <ele>534.2</ele>
        <time>2020-02-01T11:14:06Z</time>
      </trkpt>
      <trkpt lat="42.3528200" lon="-2.4962090">
        <ele>534.4</ele>
        <time>2020-02-01T11:14:07Z</time>
      </trkpt>
      <trkpt lat="42.3527700" lon="-2.4962220">
        <ele>534.6</ele>
        <time>2020-02-01T11:14:08Z</time>
      </trkpt>
      <trkpt lat="42.3527090" lon="-2.4962420">
        <ele>534.7</ele>
        <time>2020-02-01T11:14:09Z</time>
      </trkpt>
      <trkpt lat="42.3526580" lon="-2.4962560">
        <ele>534.8</ele>
        <time>2020-02-01T11:14:10Z</time>
      </trkpt>
      <trkpt lat="42.3526060" lon="-2.4962840">
        <ele>534.9</ele>
        <time>2020-02-01T11:14:11Z</time>
      </trkpt>
      <trkpt lat="42.3525430" lon="-2.4962960">
        <ele>535.0</ele>
        <time>2020-02-01T11:14:12Z</time>
      </trkpt>
      <trkpt lat="42.3525080" lon="-2.4963460">
        <ele>535.0</ele>
        <time>2020-02-01T11:14:13Z</time>
      </trkpt>
      <trkpt lat="42.3524440" lon="-2.4963900">
        <ele>535.0</ele>
        <time>2020-02-01T11:14:14Z</time>
      </trkpt>
      <trkpt lat="42.3523820" lon="-2.4964260">
        <ele>535.0</ele>
        <time>2020-02-01T11:14:15Z</time>
      </trkpt>
      <trkpt lat="42.3523330" lon="-2.4964520">
        <ele>535.1</ele>
        <time>2020-02-01T11:14:16Z</time>
      </trkpt>
      <trkpt lat="42.3522810" lon="-2.4964850">
        <ele>535.1</ele>
        <time>2020-02-01T11:14:17Z</time>
      </trkpt>
      <trkpt lat="42.3522140" lon="-2.4965270">
        <ele>535.1</ele>
        <time>2020-02-01T11:14:18Z</time>
      </trkpt>
      <trkpt lat="42.3521570" lon="-2.4965600">
        <ele>535.2</ele>
        <time>2020-02-01T11:14:19Z</time>
      </trkpt>
      <trkpt lat="42.3521010" lon="-2.4965930">
        <ele>535.3</ele>
        <time>2020-02-01T11:14:20Z</time>
      </trkpt>
      <trkpt lat="42.3520480" lon="-2.4966270">
        <ele>535.5</ele>
        <time>2020-02-01T11:14:21Z</time>
      </trkpt>
      <trkpt lat="42.3519890" lon="-2.4966590">
        <ele>535.7</ele>
        <time>2020-02-01T11:14:22Z</time>
      </trkpt>
      <trkpt lat="42.3519300" lon="-2.4966910">
        <ele>535.9</ele>
        <time>2020-02-01T11:14:23Z</time>
      </trkpt>
      <trkpt lat="42.3518760" lon="-2.4967240">
        <ele>536.1</ele>
        <time>2020-02-01T11:14:24Z</time>
      </trkpt>
      <trkpt lat="42.3518010" lon="-2.4966810">
        <ele>536.4</ele>
        <time>2020-02-01T11:14:25Z</time>
      </trkpt>
      <trkpt lat="42.3517450" lon="-2.4967080">
        <ele>536.7</ele>
        <time>2020-02-01T11:14:26Z</time>
      </trkpt>
      <trkpt lat="42.3516870" lon="-2.4967340">
        <ele>537.0</ele>
        <time>2020-02-01T11:14:27Z</time>
      </trkpt>
      <trkpt lat="42.3516240" lon="-2.4967660">
        <ele>537.4</ele>
        <time>2020-02-01T11:14:28Z</time>
      </trkpt>
      <trkpt lat="42.3515710" lon="-2.4967880">
        <ele>537.6</ele>
        <time>2020-02-01T11:14:29Z</time>
      </trkpt>
      <trkpt lat="42.3515120" lon="-2.4968150">
        <ele>537.8</ele>
        <time>2020-02-01T11:14:30Z</time>
      </trkpt>
      <trkpt lat="42.3514530" lon="-2.4968470">
        <ele>538.0</ele>
        <time>2020-02-01T11:14:31Z</time>
      </trkpt>
      <trkpt lat="42.3513940" lon="-2.4968680">
        <ele>538.2</ele>
        <time>2020-02-01T11:14:32Z</time>
      </trkpt>
      <trkpt lat="42.3513350" lon="-2.4968950">
        <ele>538.4</ele>
        <time>2020-02-01T11:14:33Z</time>
      </trkpt>
      <trkpt lat="42.3512760" lon="-2.4969220">
        <ele>538.6</ele>
        <time>2020-02-01T11:14:34Z</time>
      </trkpt>
      <trkpt lat="42.3512220" lon="-2.4969490">
        <ele>538.8</ele>
        <time>2020-02-01T11:14:35Z</time>
      </trkpt>
      <trkpt lat="42.3506640" lon="-2.4973510">
        <ele>540.5</ele>
        <time>2020-02-01T11:14:46Z</time>
      </trkpt>
      <trkpt lat="42.3506320" lon="-2.4973140">
        <ele>540.6</ele>
        <time>2020-02-01T11:14:47Z</time>
      </trkpt>
      <trkpt lat="42.3506000" lon="-2.4972390">
        <ele>540.7</ele>
        <time>2020-02-01T11:14:48Z</time>
      </trkpt>
      <trkpt lat="42.3505710" lon="-2.4973290">
        <ele>541.0</ele>
        <time>2020-02-01T11:14:49Z</time>
      </trkpt>
      <trkpt lat="42.3505870" lon="-2.4973840">
        <ele>541.2</ele>
        <time>2020-02-01T11:14:50Z</time>
      </trkpt>
      <trkpt lat="42.3505170" lon="-2.4973320">
        <ele>541.5</ele>
        <time>2020-02-01T11:14:51Z</time>
      </trkpt>
      <trkpt lat="42.3504780" lon="-2.4973840">
        <ele>541.7</ele>
        <time>2020-02-01T11:14:52Z</time>
      </trkpt>
      <trkpt lat="42.3504570" lon="-2.4974170">
        <ele>541.8</ele>
        <time>2020-02-01T11:14:53Z</time>
      </trkpt>
      <trkpt lat="42.3504230" lon="-2.4974470">
        <ele>542.0</ele>
        <time>2020-02-01T11:14:54Z</time>
      </trkpt>
      <trkpt lat="42.3503960" lon="-2.4974810">
        <ele>542.1</ele>
        <time>2020-02-01T11:14:55Z</time>
      </trkpt>
      <trkpt lat="42.3503420" lon="-2.4975180">
        <ele>542.4</ele>
        <time>2020-02-01T11:14:56Z</time>
      </trkpt>
      <trkpt lat="42.3502940" lon="-2.4975820">
        <ele>542.6</ele>
        <time>2020-02-01T11:14:57Z</time>
      </trkpt>
      <trkpt lat="42.3502540" lon="-2.4976430">
        <ele>542.9</ele>
        <time>2020-02-01T11:14:58Z</time>
      </trkpt>
      <trkpt lat="42.3501650" lon="-2.4976660">
        <ele>543.2</ele>
        <time>2020-02-01T11:14:59Z</time>
      </trkpt>
      <trkpt lat="42.3500200" lon="-2.4976320">
        <ele>543.6</ele>
        <time>2020-02-01T11:15:00Z</time>
      </trkpt>
      <trkpt lat="42.3499910" lon="-2.4977260">
        <ele>543.8</ele>
        <time>2020-02-01T11:15:01Z</time>
      </trkpt>
      <trkpt lat="42.3498540" lon="-2.4976520">
        <ele>544.0</ele>
        <time>2020-02-01T11:15:02Z</time>
      </trkpt>
      <trkpt lat="42.3497610" lon="-2.4976430">
        <ele>543.7</ele>
        <time>2020-02-01T11:15:03Z</time>
      </trkpt>
      <trkpt lat="42.3497970" lon="-2.4976920">
        <ele>543.4</ele>
        <time>2020-02-01T11:15:04Z</time>
      </trkpt>
      <trkpt lat="42.3497550" lon="-2.4977680">
        <ele>543.0</ele>
        <time>2020-02-01T11:15:05Z</time>
      </trkpt>
      <trkpt lat="42.3497070" lon="-2.4977880">
        <ele>542.8</ele>
        <time>2020-02-01T11:15:06Z</time>
      </trkpt>
      <trkpt lat="42.3496610" lon="-2.4978230">
        <ele>542.6</ele>
        <time>2020-02-01T11:15:07Z</time>
      </trkpt>
      <trkpt lat="42.3496190" lon="-2.4978460">
        <ele>542.5</ele>
        <time>2020-02-01T11:15:08Z</time>
      </trkpt>
      <trkpt lat="42.3495590" lon="-2.4978550">
        <ele>542.5</ele>
        <time>2020-02-01T11:15:09Z</time>
      </trkpt>
      <trkpt lat="42.3495340" lon="-2.4979340">
        <ele>542.6</ele>
        <time>2020-02-01T11:15:10Z</time>
      </trkpt>
      <trkpt lat="42.3494630" lon="-2.4979820">
        <ele>542.7</ele>
        <time>2020-02-01T11:15:11Z</time>
      </trkpt>
      <trkpt lat="42.3494040" lon="-2.4980320">
        <ele>542.9</ele>
        <time>2020-02-01T11:15:12Z</time>
      </trkpt>
      <trkpt lat="42.3493410" lon="-2.4980750">
        <ele>543.0</ele>
        <time>2020-02-01T11:15:13Z</time>
      </trkpt>
      <trkpt lat="42.3492850" lon="-2.4981340">
        <ele>543.0</ele>
        <time>2020-02-01T11:15:14Z</time>
      </trkpt>
      <trkpt lat="42.3492440" lon="-2.4981700">
        <ele>543.0</ele>
        <time>2020-02-01T11:15:15Z</time>
      </trkpt>
      <trkpt lat="42.3491680" lon="-2.4981820">
        <ele>543.0</ele>
        <time>2020-02-01T11:15:16Z</time>
      </trkpt>
      <trkpt lat="42.3491080" lon="-2.4981880">
        <ele>543.1</ele>
        <time>2020-02-01T11:15:17Z</time>
      </trkpt>
      <trkpt lat="42.3490430" lon="-2.4982220">
        <ele>543.1</ele>
        <time>2020-02-01T11:15:18Z</time>
      </trkpt>
      <trkpt lat="42.3490160" lon="-2.4982620">
        <ele>543.1</ele>
        <time>2020-02-01T11:15:19Z</time>
      </trkpt>
      <trkpt lat="42.3489620" lon="-2.4982910">
        <ele>543.1</ele>
        <time>2020-02-01T11:15:20Z</time>
      </trkpt>
      <trkpt lat="42.3489000" lon="-2.4983070">
        <ele>543.1</ele>
        <time>2020-02-01T11:15:21Z</time>
      </trkpt>
      <trkpt lat="42.3488460" lon="-2.4983330">
        <ele>543.1</ele>
        <time>2020-02-01T11:15:22Z</time>
      </trkpt>
      <trkpt lat="42.3487930" lon="-2.4983550">
        <ele>543.2</ele>
        <time>2020-02-01T11:15:23Z</time>
      </trkpt>
      <trkpt lat="42.3487380" lon="-2.4983760">
        <ele>543.3</ele>
        <time>2020-02-01T11:15:24Z</time>
      </trkpt>
      <trkpt lat="42.3486850" lon="-2.4983970">
        <ele>543.4</ele>
        <time>2020-02-01T11:15:25Z</time>
      </trkpt>
      <trkpt lat="42.3486310" lon="-2.4984240">
        <ele>543.5</ele>
        <time>2020-02-01T11:15:26Z</time>
      </trkpt>
      <trkpt lat="42.3485770" lon="-2.4984460">
        <ele>543.6</ele>
        <time>2020-02-01T11:15:27Z</time>
      </trkpt>
      <trkpt lat="42.3485240" lon="-2.4984670">
        <ele>543.7</ele>
        <time>2020-02-01T11:15:28Z</time>
      </trkpt>
      <trkpt lat="42.3484700" lon="-2.4984940">
        <ele>543.8</ele>
        <time>2020-02-01T11:15:29Z</time>
      </trkpt>
      <trkpt lat="42.3484160" lon="-2.4985150">
        <ele>543.9</ele>
        <time>2020-02-01T11:15:30Z</time>
      </trkpt>
      <trkpt lat="42.3481590" lon="-2.4986710">
        <ele>544.0</ele>
        <time>2020-02-01T11:15:34Z</time>
      </trkpt>
      <trkpt lat="42.3481050" lon="-2.4987030">
        <ele>544.1</ele>
        <time>2020-02-01T11:15:35Z</time>
      </trkpt>
      <trkpt lat="42.3480480" lon="-2.4987290">
        <ele>544.1</ele>
        <time>2020-02-01T11:15:36Z</time>
      </trkpt>
      <trkpt lat="42.3479820" lon="-2.4987830">
        <ele>544.2</ele>
        <time>2020-02-01T11:15:37Z</time>
      </trkpt>
      <trkpt lat="42.3479230" lon="-2.4988160">
        <ele>544.3</ele>
        <time>2020-02-01T11:15:38Z</time>
      </trkpt>
      <trkpt lat="42.3478690" lon="-2.4988420">
        <ele>544.5</ele>
        <time>2020-02-01T11:15:39Z</time>
      </trkpt>
      <trkpt lat="42.3478320" lon="-2.4987780">
        <ele>544.6</ele>
        <time>2020-02-01T11:15:40Z</time>
      </trkpt>
      <trkpt lat="42.3477780" lon="-2.4987890">
        <ele>544.8</ele>
        <time>2020-02-01T11:15:41Z</time>
      </trkpt>
      <trkpt lat="42.3477430" lon="-2.4988120">
        <ele>544.8</ele>
        <time>2020-02-01T11:15:42Z</time>
      </trkpt>
      <trkpt lat="42.3476840" lon="-2.4988520">
        <ele>545.0</ele>
        <time>2020-02-01T11:15:43Z</time>
      </trkpt>
      <trkpt lat="42.3476390" lon="-2.4988590">
        <ele>545.1</ele>
        <time>2020-02-01T11:15:44Z</time>
      </trkpt>
      <trkpt lat="42.3476010" lon="-2.4989360">
        <ele>545.3</ele>
        <time>2020-02-01T11:15:45Z</time>
      </trkpt>
      <trkpt lat="42.3475280" lon="-2.4989910">
        <ele>545.5</ele>
        <time>2020-02-01T11:15:46Z</time>
      </trkpt>
      <trkpt lat="42.3474740" lon="-2.4989860">
        <ele>545.6</ele>
        <time>2020-02-01T11:15:47Z</time>
      </trkpt>
      <trkpt lat="42.3474040" lon="-2.4990250">
        <ele>545.8</ele>
        <time>2020-02-01T11:15:48Z</time>
      </trkpt>
      <trkpt lat="42.3473500" lon="-2.4990900">
        <ele>545.9</ele>
        <time>2020-02-01T11:15:49Z</time>
      </trkpt>
      <trkpt lat="42.3472950" lon="-2.4991200">
        <ele>546.0</ele>
        <time>2020-02-01T11:15:50Z</time>
      </trkpt>
      <trkpt lat="42.3472530" lon="-2.4991690">
        <ele>546.0</ele>
        <time>2020-02-01T11:15:51Z</time>
      </trkpt>
      <trkpt lat="42.3472020" lon="-2.4991980">
        <ele>546.0</ele>
        <time>2020-02-01T11:15:52Z</time>
      </trkpt>
      <trkpt lat="42.3471390" lon="-2.4992530">
        <ele>546.0</ele>
        <time>2020-02-01T11:15:53Z</time>
      </trkpt>
      <trkpt lat="42.3470970" lon="-2.4993150">
        <ele>546.0</ele>
        <time>2020-02-01T11:15:54Z</time>
      </trkpt>
      <trkpt lat="42.3470530" lon="-2.4993180">
        <ele>546.0</ele>
        <time>2020-02-01T11:15:55Z</time>
      </trkpt>
      <trkpt lat="42.3470110" lon="-2.4993110">
        <ele>546.0</ele>
        <time>2020-02-01T11:15:56Z</time>
      </trkpt>
      <trkpt lat="42.3469610" lon="-2.4993240">
        <ele>546.0</ele>
        <time>2020-02-01T11:15:57Z</time>
      </trkpt>
      <trkpt lat="42.3469100" lon="-2.4993430">
        <ele>546.1</ele>
        <time>2020-02-01T11:15:58Z</time>
      </trkpt>
      <trkpt lat="42.3468550" lon="-2.4993630">
        <ele>546.1</ele>
        <time>2020-02-01T11:15:59Z</time>
      </trkpt>
      <trkpt lat="42.3468070" lon="-2.4993840">
        <ele>546.2</ele>
        <time>2020-02-01T11:16:00Z</time>
      </trkpt>
      <trkpt lat="42.3467590" lon="-2.4994000">
        <ele>546.3</ele>
        <time>2020-02-01T11:16:01Z</time>
      </trkpt>
      <trkpt lat="42.3467110" lon="-2.4994220">
        <ele>546.4</ele>
        <time>2020-02-01T11:16:02Z</time>
      </trkpt>
      <trkpt lat="42.3466570" lon="-2.4994380">
        <ele>546.6</ele>
        <time>2020-02-01T11:16:03Z</time>
      </trkpt>
      <trkpt lat="42.3464750" lon="-2.4995080">
        <ele>547.0</ele>
        <time>2020-02-01T11:16:05Z</time>
      </trkpt>
      <trkpt lat="42.3464280" lon="-2.4995550">
        <ele>547.2</ele>
        <time>2020-02-01T11:16:06Z</time>
      </trkpt>
      <trkpt lat="42.3463970" lon="-2.4995600">
        <ele>547.2</ele>
        <time>2020-02-01T11:16:07Z</time>
      </trkpt>
      <trkpt lat="42.3463520" lon="-2.4995920">
        <ele>547.4</ele>
        <time>2020-02-01T11:16:08Z</time>
      </trkpt>
      <trkpt lat="42.3462770" lon="-2.4996180">
        <ele>547.6</ele>
        <time>2020-02-01T11:16:09Z</time>
      </trkpt>
      <trkpt lat="42.3462120" lon="-2.4996420">
        <ele>547.7</ele>
        <time>2020-02-01T11:16:10Z</time>
      </trkpt>
      <trkpt lat="42.3461680" lon="-2.4996740">
        <ele>547.8</ele>
        <time>2020-02-01T11:16:11Z</time>
      </trkpt>
      <trkpt lat="42.3461170" lon="-2.4997350">
        <ele>547.9</ele>
        <time>2020-02-01T11:16:12Z</time>
      </trkpt>
      <trkpt lat="42.3460660" lon="-2.4997780">
        <ele>548.0</ele>
        <time>2020-02-01T11:16:13Z</time>
      </trkpt>
      <trkpt lat="42.3460140" lon="-2.4998140">
        <ele>548.0</ele>
        <time>2020-02-01T11:16:14Z</time>
      </trkpt>
      <trkpt lat="42.3459630" lon="-2.4998510">
        <ele>548.1</ele>
        <time>2020-02-01T11:16:15Z</time>
      </trkpt>
      <trkpt lat="42.3459110" lon="-2.4998940">
        <ele>548.2</ele>
        <time>2020-02-01T11:16:16Z</time>
      </trkpt>
      <trkpt lat="42.3458580" lon="-2.4999310">
        <ele>548.4</ele>
        <time>2020-02-01T11:16:17Z</time>
      </trkpt>
      <trkpt lat="42.3458090" lon="-2.4999690">
        <ele>548.6</ele>
        <time>2020-02-01T11:16:18Z</time>
      </trkpt>
      <trkpt lat="42.3457560" lon="-2.5000070">
        <ele>548.7</ele>
        <time>2020-02-01T11:16:19Z</time>
      </trkpt>
      <trkpt lat="42.3457070" lon="-2.5000440">
        <ele>548.9</ele>
        <time>2020-02-01T11:16:20Z</time>
      </trkpt>
      <trkpt lat="42.3456540" lon="-2.5000820">
        <ele>549.1</ele>
        <time>2020-02-01T11:16:21Z</time>
      </trkpt>
      <trkpt lat="42.3456000" lon="-2.5001190">
        <ele>549.3</ele>
        <time>2020-02-01T11:16:22Z</time>
      </trkpt>
      <trkpt lat="42.3455200" lon="-2.5001030">
        <ele>549.5</ele>
        <time>2020-02-01T11:16:23Z</time>
      </trkpt>
      <trkpt lat="42.3454630" lon="-2.5001360">
        <ele>549.7</ele>
        <time>2020-02-01T11:16:24Z</time>
      </trkpt>
      <trkpt lat="42.3454060" lon="-2.5001690">
        <ele>549.8</ele>
        <time>2020-02-01T11:16:25Z</time>
      </trkpt>
      <trkpt lat="42.3453430" lon="-2.5002050">
        <ele>549.9</ele>
        <time>2020-02-01T11:16:26Z</time>
      </trkpt>
      <trkpt lat="42.3452890" lon="-2.5002320">
        <ele>549.9</ele>
        <time>2020-02-01T11:16:27Z</time>
      </trkpt>
      <trkpt lat="42.3452300" lon="-2.5002690">
        <ele>550.0</ele>
        <time>2020-02-01T11:16:28Z</time>
      </trkpt>
      <trkpt lat="42.3451710" lon="-2.5003020">
        <ele>550.0</ele>
        <time>2020-02-01T11:16:29Z</time>
      </trkpt>
      <trkpt lat="42.3451120" lon="-2.5003340">
        <ele>550.0</ele>
        <time>2020-02-01T11:16:30Z</time>
      </trkpt>
      <trkpt lat="42.3450530" lon="-2.5003660">
        <ele>550.0</ele>
        <time>2020-02-01T11:16:31Z</time>
      </trkpt>
      <trkpt lat="42.3449990" lon="-2.5003980">
        <ele>550.0</ele>
        <time>2020-02-01T11:16:32Z</time>
      </trkpt>
      <trkpt lat="42.3444150" lon="-2.5007630">
        <ele>550.4</ele>
        <time>2020-02-01T11:16:43Z</time>
      </trkpt>
      <trkpt lat="42.3443720" lon="-2.5006770">
        <ele>550.6</ele>
        <time>2020-02-01T11:16:44Z</time>
      </trkpt>
      <trkpt lat="42.3443170" lon="-2.5007250">
        <ele>550.7</ele>
        <time>2020-02-01T11:16:45Z</time>
      </trkpt>
      <trkpt lat="42.3442740" lon="-2.5008390">
        <ele>550.8</ele>
        <time>2020-02-01T11:16:46Z</time>
      </trkpt>
      <trkpt lat="42.3442170" lon="-2.5008770">
        <ele>550.9</ele>
        <time>2020-02-01T11:16:47Z</time>
      </trkpt>
      <trkpt lat="42.3441300" lon="-2.5008780">
        <ele>551.0</ele>
        <time>2020-02-01T11:16:48Z</time>
      </trkpt>
      <trkpt lat="42.3440590" lon="-2.5008640">
        <ele>551.0</ele>
        <time>2020-02-01T11:16:49Z</time>
      </trkpt>
      <trkpt lat="42.3440180" lon="-2.5009290">
        <ele>551.2</ele>
        <time>2020-02-01T11:16:50Z</time>
      </trkpt>
      <trkpt lat="42.3439580" lon="-2.5009690">
        <ele>551.3</ele>
        <time>2020-02-01T11:16:51Z</time>
      </trkpt>
      <trkpt lat="42.3439020" lon="-2.5010030">
        <ele>551.5</ele>
        <time>2020-02-01T11:16:52Z</time>
      </trkpt>
      <trkpt lat="42.3438730" lon="-2.5010420">
        <ele>551.6</ele>
        <time>2020-02-01T11:16:53Z</time>
      </trkpt>
      <trkpt lat="42.3438320" lon="-2.5011010">
        <ele>551.7</ele>
        <time>2020-02-01T11:16:54Z</time>
      </trkpt>
      <trkpt lat="42.3437780" lon="-2.5010940">
        <ele>551.8</ele>
        <time>2020-02-01T11:16:55Z</time>
      </trkpt>
      <trkpt lat="42.3437200" lon="-2.5011050">
        <ele>551.9</ele>
        <time>2020-02-01T11:16:56Z</time>
      </trkpt>
      <trkpt lat="42.3436650" lon="-2.5011280">
        <ele>551.9</ele>
        <time>2020-02-01T11:16:57Z</time>
      </trkpt>
      <trkpt lat="42.3436110" lon="-2.5011250">
        <ele>551.9</ele>
        <time>2020-02-01T11:16:58Z</time>
      </trkpt>
      <trkpt lat="42.3435620" lon="-2.5011550">
        <ele>551.9</ele>
        <time>2020-02-01T11:16:59Z</time>
      </trkpt>
      <trkpt lat="42.3435400" lon="-2.5012000">
        <ele>551.9</ele>
        <time>2020-02-01T11:17:00Z</time>
      </trkpt>
      <trkpt lat="42.3434940" lon="-2.5012310">
        <ele>551.9</ele>
        <time>2020-02-01T11:17:01Z</time>
      </trkpt>
      <trkpt lat="42.3434540" lon="-2.5012730">
        <ele>551.9</ele>
        <time>2020-02-01T11:17:02Z</time>
      </trkpt>
      <trkpt lat="42.3434110" lon="-2.5013050">
        <ele>551.9</ele>
        <time>2020-02-01T11:17:03Z</time>
      </trkpt>
      <trkpt lat="42.3433630" lon="-2.5013370">
        <ele>552.0</ele>
        <time>2020-02-01T11:17:04Z</time>
      </trkpt>
      <trkpt lat="42.3433200" lon="-2.5013740">
        <ele>552.0</ele>
        <time>2020-02-01T11:17:05Z</time>
      </trkpt>
      <trkpt lat="42.3432720" lon="-2.5014070">
        <ele>552.1</ele>
        <time>2020-02-01T11:17:06Z</time>
      </trkpt>
      <trkpt lat="42.3432290" lon="-2.5014390">
        <ele>552.3</ele>
        <time>2020-02-01T11:17:07Z</time>
      </trkpt>
      <trkpt lat="42.3431810" lon="-2.5014710">
        <ele>552.4</ele>
        <time>2020-02-01T11:17:08Z</time>
      </trkpt>
      <trkpt lat="42.3431380" lon="-2.5015030">
        <ele>552.6</ele>
        <time>2020-02-01T11:17:09Z</time>
      </trkpt>
      <trkpt lat="42.3430900" lon="-2.5015410">
        <ele>552.7</ele>
        <time>2020-02-01T11:17:10Z</time>
      </trkpt>
      <trkpt lat="42.3423010" lon="-2.5018200">
        <ele>552.8</ele>
        <time>2020-02-01T11:17:21Z</time>
      </trkpt>
      <trkpt lat="42.3422450" lon="-2.5018290">
        <ele>552.8</ele>
        <time>2020-02-01T11:17:22Z</time>
      </trkpt>
      <trkpt lat="42.3421870" lon="-2.5018590">
        <ele>553.4</ele>
        <time>2020-02-01T11:17:24Z</time>
      </trkpt>
      <trkpt lat="42.3421030" lon="-2.5018300">
        <ele>554.4</ele>
        <time>2020-02-01T11:17:25Z</time>
      </trkpt>
      <trkpt lat="42.3420540" lon="-2.5018730">
        <ele>555.1</ele>
        <time>2020-02-01T11:17:26Z</time>
      </trkpt>
      <trkpt lat="42.3420090" lon="-2.5018700">
        <ele>555.6</ele>
        <time>2020-02-01T11:17:27Z</time>
      </trkpt>
      <trkpt lat="42.3419550" lon="-2.5018770">
        <ele>556.1</ele>
        <time>2020-02-01T11:17:28Z</time>
      </trkpt>
      <trkpt lat="42.3418970" lon="-2.5019030">
        <ele>556.6</ele>
        <time>2020-02-01T11:17:29Z</time>
      </trkpt>
      <trkpt lat="42.3418420" lon="-2.5019110">
        <ele>557.0</ele>
        <time>2020-02-01T11:17:30Z</time>
      </trkpt>
      <trkpt lat="42.3417970" lon="-2.5019540">
        <ele>557.3</ele>
        <time>2020-02-01T11:17:31Z</time>
      </trkpt>
      <trkpt lat="42.3417460" lon="-2.5019780">
        <ele>557.6</ele>
        <time>2020-02-01T11:17:32Z</time>
      </trkpt>
      <trkpt lat="42.3416930" lon="-2.5020010">
        <ele>557.9</ele>
        <time>2020-02-01T11:17:33Z</time>
      </trkpt>
      <trkpt lat="42.3416380" lon="-2.5020190">
        <ele>558.2</ele>
        <time>2020-02-01T11:17:34Z</time>
      </trkpt>
      <trkpt lat="42.3415930" lon="-2.5020460">
        <ele>558.4</ele>
        <time>2020-02-01T11:17:35Z</time>
      </trkpt>
      <trkpt lat="42.3415230" lon="-2.5020560">
        <ele>558.7</ele>
        <time>2020-02-01T11:17:36Z</time>
      </trkpt>
      <trkpt lat="42.3414960" lon="-2.5020990">
        <ele>558.8</ele>
        <time>2020-02-01T11:17:37Z</time>
      </trkpt>
      <trkpt lat="42.3414470" lon="-2.5021080">
        <ele>558.9</ele>
        <time>2020-02-01T11:17:38Z</time>
      </trkpt>
      <trkpt lat="42.3413840" lon="-2.5021190">
        <ele>559.0</ele>
        <time>2020-02-01T11:17:39Z</time>
      </trkpt>
      <trkpt lat="42.3413190" lon="-2.5021590">
        <ele>559.2</ele>
        <time>2020-02-01T11:17:40Z</time>
      </trkpt>
      <trkpt lat="42.3412630" lon="-2.5021950">
        <ele>559.4</ele>
        <time>2020-02-01T11:17:41Z</time>
      </trkpt>
      <trkpt lat="42.3412170" lon="-2.5022170">
        <ele>559.5</ele>
        <time>2020-02-01T11:17:42Z</time>
      </trkpt>
      <trkpt lat="42.3411480" lon="-2.5022250">
        <ele>559.7</ele>
        <time>2020-02-01T11:17:43Z</time>
      </trkpt>
      <trkpt lat="42.3411080" lon="-2.5022760">
        <ele>559.9</ele>
        <time>2020-02-01T11:17:44Z</time>
      </trkpt>
      <trkpt lat="42.3410860" lon="-2.5023410">
        <ele>560.0</ele>
        <time>2020-02-01T11:17:45Z</time>
      </trkpt>
      <trkpt lat="42.3410350" lon="-2.5023720">
        <ele>560.1</ele>
        <time>2020-02-01T11:17:46Z</time>
      </trkpt>
      <trkpt lat="42.3409940" lon="-2.5023890">
        <ele>560.2</ele>
        <time>2020-02-01T11:17:47Z</time>
      </trkpt>
      <trkpt lat="42.3409480" lon="-2.5023990">
        <ele>560.4</ele>
        <time>2020-02-01T11:17:48Z</time>
      </trkpt>
      <trkpt lat="42.3409050" lon="-2.5024380">
        <ele>560.5</ele>
        <time>2020-02-01T11:17:49Z</time>
      </trkpt>
      <trkpt lat="42.3408590" lon="-2.5024550">
        <ele>560.7</ele>
        <time>2020-02-01T11:17:50Z</time>
      </trkpt>
      <trkpt lat="42.3408170" lon="-2.5024850">
        <ele>560.9</ele>
        <time>2020-02-01T11:17:51Z</time>
      </trkpt>
      <trkpt lat="42.3407670" lon="-2.5025170">
        <ele>561.1</ele>
        <time>2020-02-01T11:17:52Z</time>
      </trkpt>
      <trkpt lat="42.3407240" lon="-2.5025230">
        <ele>561.2</ele>
        <time>2020-02-01T11:17:53Z</time>
      </trkpt>
      <trkpt lat="42.3406830" lon="-2.5025360">
        <ele>561.4</ele>
        <time>2020-02-01T11:17:54Z</time>
      </trkpt>
      <trkpt lat="42.3406490" lon="-2.5025660">
        <ele>561.6</ele>
        <time>2020-02-01T11:17:55Z</time>
      </trkpt>
      <trkpt lat="42.3406200" lon="-2.5025840">
        <ele>561.7</ele>
        <time>2020-02-01T11:17:56Z</time>
      </trkpt>
      <trkpt lat="42.3405840" lon="-2.5025920">
        <ele>561.9</ele>
        <time>2020-02-01T11:17:57Z</time>
      </trkpt>
      <trkpt lat="42.3405450" lon="-2.5026100">
        <ele>562.1</ele>
        <time>2020-02-01T11:17:58Z</time>
      </trkpt>
      <trkpt lat="42.3405070" lon="-2.5026240">
        <ele>562.3</ele>
        <time>2020-02-01T11:17:59Z</time>
      </trkpt>
      <trkpt lat="42.3404690" lon="-2.5026520">
        <ele>562.6</ele>
        <time>2020-02-01T11:18:01Z</time>
      </trkpt>
      <trkpt lat="42.3404190" lon="-2.5026740">
        <ele>562.9</ele>
        <time>2020-02-01T11:18:02Z</time>
      </trkpt>
      <trkpt lat="42.3403900" lon="-2.5026950">
        <ele>562.9</ele>
        <time>2020-02-01T11:18:03Z</time>
      </trkpt>
      <trkpt lat="42.3403620" lon="-2.5027150">
        <ele>563.1</ele>
        <time>2020-02-01T11:18:04Z</time>
      </trkpt>
      <trkpt lat="42.3403320" lon="-2.5027370">
        <ele>563.2</ele>
        <time>2020-02-01T11:18:05Z</time>
      </trkpt>
      <trkpt lat="42.3403050" lon="-2.5027590">
        <ele>563.3</ele>
        <time>2020-02-01T11:18:06Z</time>
      </trkpt>
      <trkpt lat="42.3402730" lon="-2.5027750">
        <ele>563.5</ele>
        <time>2020-02-01T11:18:07Z</time>
      </trkpt>
      <trkpt lat="42.3402520" lon="-2.5026400">
        <ele>563.5</ele>
        <time>2020-02-01T11:18:08Z</time>
      </trkpt>
      <trkpt lat="42.3402180" lon="-2.5026340">
        <ele>563.5</ele>
        <time>2020-02-01T11:18:09Z</time>
      </trkpt>
      <trkpt lat="42.3401850" lon="-2.5026250">
        <ele>563.5</ele>
        <time>2020-02-01T11:18:10Z</time>
      </trkpt>
      <trkpt lat="42.3401390" lon="-2.5025870">
        <ele>563.4</ele>
        <time>2020-02-01T11:18:11Z</time>
      </trkpt>
      <trkpt lat="42.3401020" lon="-2.5025710">
        <ele>563.4</ele>
        <time>2020-02-01T11:18:12Z</time>
      </trkpt>
      <trkpt lat="42.3400690" lon="-2.5025600">
        <ele>563.3</ele>
        <time>2020-02-01T11:18:13Z</time>
      </trkpt>
      <trkpt lat="42.3400320" lon="-2.5025490">
        <ele>563.2</ele>
        <time>2020-02-01T11:18:14Z</time>
      </trkpt>
      <trkpt lat="42.3399940" lon="-2.5025330">
        <ele>563.1</ele>
        <time>2020-02-01T11:18:15Z</time>
      </trkpt>
      <trkpt lat="42.3399620" lon="-2.5025220">
        <ele>563.0</ele>
        <time>2020-02-01T11:18:16Z</time>
      </trkpt>
      <trkpt lat="42.3399250" lon="-2.5025120">
        <ele>563.0</ele>
        <time>2020-02-01T11:18:17Z</time>
      </trkpt>
      <trkpt lat="42.3400260" lon="-2.5023190">
        <ele>562.0</ele>
        <time>2020-02-01T11:18:19Z</time>
      </trkpt>
      <trkpt lat="42.3400030" lon="-2.5022600">
        <ele>561.6</ele>
        <time>2020-02-01T11:18:20Z</time>
      </trkpt>
      <trkpt lat="42.3399980" lon="-2.5021940">
        <ele>561.2</ele>
        <time>2020-02-01T11:18:21Z</time>
      </trkpt>
      <trkpt lat="42.3399940" lon="-2.5021250">
        <ele>560.8</ele>
        <time>2020-02-01T11:18:22Z</time>
      </trkpt>
      <trkpt lat="42.3399920" lon="-2.5020550">
        <ele>560.3</ele>
        <time>2020-02-01T11:18:23Z</time>
      </trkpt>
      <trkpt lat="42.3400460" lon="-2.5019450">
        <ele>559.6</ele>
        <time>2020-02-01T11:18:24Z</time>
      </trkpt>
      <trkpt lat="42.3400110" lon="-2.5018080">
        <ele>558.8</ele>
        <time>2020-02-01T11:18:25Z</time>
      </trkpt>
      <trkpt lat="42.3400160" lon="-2.5016960">
        <ele>558.2</ele>
        <time>2020-02-01T11:18:26Z</time>
      </trkpt>
      <trkpt lat="42.3400290" lon="-2.5015730">
        <ele>557.8</ele>
        <time>2020-02-01T11:18:27Z</time>
      </trkpt>
      <trkpt lat="42.3400190" lon="-2.5014500">
        <ele>557.3</ele>
        <time>2020-02-01T11:18:28Z</time>
      </trkpt>
      <trkpt lat="42.3399880" lon="-2.5013020">
        <ele>557.0</ele>
        <time>2020-02-01T11:18:29Z</time>
      </trkpt>
      <trkpt lat="42.3399410" lon="-2.5011920">
        <ele>556.9</ele>
        <time>2020-02-01T11:18:30Z</time>
      </trkpt>
      <trkpt lat="42.3399410" lon="-2.5011500">
        <ele>556.8</ele>
        <time>2020-02-01T11:18:31Z</time>
      </trkpt>
      <trkpt lat="42.3399210" lon="-2.5010090">
        <ele>556.7</ele>
        <time>2020-02-01T11:18:32Z</time>
      </trkpt>
      <trkpt lat="42.3399030" lon="-2.5008920">
        <ele>556.5</ele>
        <time>2020-02-01T11:18:33Z</time>
      </trkpt>
      <trkpt lat="42.3398720" lon="-2.5007860">
        <ele>556.3</ele>
        <time>2020-02-01T11:18:34Z</time>
      </trkpt>
      <trkpt lat="42.3398580" lon="-2.5006830">
        <ele>556.0</ele>
        <time>2020-02-01T11:18:35Z</time>
      </trkpt>
      <trkpt lat="42.3398330" lon="-2.5005540">
        <ele>555.7</ele>
        <time>2020-02-01T11:18:36Z</time>
      </trkpt>
      <trkpt lat="42.3398110" lon="-2.5004400">
        <ele>555.3</ele>
        <time>2020-02-01T11:18:37Z</time>
      </trkpt>
      <trkpt lat="42.3397880" lon="-2.5003280">
        <ele>555.0</ele>
        <time>2020-02-01T11:18:38Z</time>
      </trkpt>
      <trkpt lat="42.3397640" lon="-2.5002100">
        <ele>554.4</ele>
        <time>2020-02-01T11:18:39Z</time>
      </trkpt>
      <trkpt lat="42.3397420" lon="-2.5001030">
        <ele>553.9</ele>
        <time>2020-02-01T11:18:40Z</time>
      </trkpt>
      <trkpt lat="42.3397210" lon="-2.4999900">
        <ele>553.2</ele>
        <time>2020-02-01T11:18:41Z</time>
      </trkpt>
      <trkpt lat="42.3396990" lon="-2.4998830">
        <ele>552.8</ele>
        <time>2020-02-01T11:18:42Z</time>
      </trkpt>
      <trkpt lat="42.3396720" lon="-2.4997650">
        <ele>552.2</ele>
        <time>2020-02-01T11:18:43Z</time>
      </trkpt>
      <trkpt lat="42.3395920" lon="-2.4995670">
        <ele>551.3</ele>
        <time>2020-02-01T11:18:44Z</time>
      </trkpt>
      <trkpt lat="42.3395030" lon="-2.4994800">
        <ele>550.8</ele>
        <time>2020-02-01T11:18:45Z</time>
      </trkpt>
      <trkpt lat="42.3393900" lon="-2.4993460">
        <ele>549.9</ele>
        <time>2020-02-01T11:18:46Z</time>
      </trkpt>
      <trkpt lat="42.3393350" lon="-2.4992020">
        <ele>549.5</ele>
        <time>2020-02-01T11:18:47Z</time>
      </trkpt>
      <trkpt lat="42.3392270" lon="-2.4990570">
        <ele>549.1</ele>
        <time>2020-02-01T11:18:48Z</time>
      </trkpt>
      <trkpt lat="42.3391930" lon="-2.4989550">
        <ele>548.9</ele>
        <time>2020-02-01T11:18:49Z</time>
      </trkpt>
      <trkpt lat="42.3391150" lon="-2.4988110">
        <ele>547.8</ele>
        <time>2020-02-01T11:18:50Z</time>
      </trkpt>
      <trkpt lat="42.3390470" lon="-2.4986990">
        <ele>547.3</ele>
        <time>2020-02-01T11:18:51Z</time>
      </trkpt>
      <trkpt lat="42.3389940" lon="-2.4985700">
        <ele>546.8</ele>
        <time>2020-02-01T11:18:52Z</time>
      </trkpt>
      <trkpt lat="42.3389390" lon="-2.4984500">
        <ele>546.4</ele>
        <time>2020-02-01T11:18:53Z</time>
      </trkpt>
      <trkpt lat="42.3388810" lon="-2.4983280">
        <ele>545.9</ele>
        <time>2020-02-01T11:18:54Z</time>
      </trkpt>
      <trkpt lat="42.3388230" lon="-2.4982060">
        <ele>545.5</ele>
        <time>2020-02-01T11:18:55Z</time>
      </trkpt>
      <trkpt lat="42.3387710" lon="-2.4980910">
        <ele>545.1</ele>
        <time>2020-02-01T11:18:56Z</time>
      </trkpt>
      <trkpt lat="42.3387070" lon="-2.4979680">
        <ele>544.6</ele>
        <time>2020-02-01T11:18:57Z</time>
      </trkpt>
      <trkpt lat="42.3387070" lon="-2.4978450">
        <ele>544.2</ele>
        <time>2020-02-01T11:18:58Z</time>
      </trkpt>
      <trkpt lat="42.3386700" lon="-2.4977290">
        <ele>543.8</ele>
        <time>2020-02-01T11:18:59Z</time>
      </trkpt>
      <trkpt lat="42.3386070" lon="-2.4976200">
        <ele>543.5</ele>
        <time>2020-02-01T11:19:00Z</time>
      </trkpt>
      <trkpt lat="42.3385600" lon="-2.4974930">
        <ele>543.1</ele>
        <time>2020-02-01T11:19:01Z</time>
      </trkpt>
      <trkpt lat="42.3385240" lon="-2.4973550">
        <ele>542.8</ele>
        <time>2020-02-01T11:19:02Z</time>
      </trkpt>
      <trkpt lat="42.3384790" lon="-2.4972110">
        <ele>542.4</ele>
        <time>2020-02-01T11:19:03Z</time>
      </trkpt>
      <trkpt lat="42.3384120" lon="-2.4970450">
        <ele>542.0</ele>
        <time>2020-02-01T11:19:04Z</time>
      </trkpt>
      <trkpt lat="42.3383620" lon="-2.4968560">
        <ele>541.8</ele>
        <time>2020-02-01T11:19:05Z</time>
      </trkpt>
      <trkpt lat="42.3383320" lon="-2.4967340">
        <ele>541.8</ele>
        <time>2020-02-01T11:19:06Z</time>
      </trkpt>
      <trkpt lat="42.3382700" lon="-2.4965790">
        <ele>541.7</ele>
        <time>2020-02-01T11:19:07Z</time>
      </trkpt>
      <trkpt lat="42.3382550" lon="-2.4965060">
        <ele>541.7</ele>
        <time>2020-02-01T11:19:08Z</time>
      </trkpt>
      <trkpt lat="42.3382190" lon="-2.4963870">
        <ele>541.6</ele>
        <time>2020-02-01T11:19:09Z</time>
      </trkpt>
      <trkpt lat="42.3381810" lon="-2.4962510">
        <ele>541.3</ele>
        <time>2020-02-01T11:19:10Z</time>
      </trkpt>
      <trkpt lat="42.3381210" lon="-2.4960930">
        <ele>540.9</ele>
        <time>2020-02-01T11:19:11Z</time>
      </trkpt>
      <trkpt lat="42.3381110" lon="-2.4960140">
        <ele>540.7</ele>
        <time>2020-02-01T11:19:12Z</time>
      </trkpt>
      <trkpt lat="42.3380750" lon="-2.4959010">
        <ele>540.4</ele>
        <time>2020-02-01T11:19:13Z</time>
      </trkpt>
      <trkpt lat="42.3380470" lon="-2.4957900">
        <ele>540.1</ele>
        <time>2020-02-01T11:19:14Z</time>
      </trkpt>
      <trkpt lat="42.3380090" lon="-2.4956770">
        <ele>539.7</ele>
        <time>2020-02-01T11:19:15Z</time>
      </trkpt>
      <trkpt lat="42.3379770" lon="-2.4955590">
        <ele>539.5</ele>
        <time>2020-02-01T11:19:16Z</time>
      </trkpt>
      <trkpt lat="42.3379400" lon="-2.4954520">
        <ele>539.3</ele>
        <time>2020-02-01T11:19:17Z</time>
      </trkpt>
      <trkpt lat="42.3379080" lon="-2.4953400">
        <ele>539.1</ele>
        <time>2020-02-01T11:19:18Z</time>
      </trkpt>
      <trkpt lat="42.3378700" lon="-2.4952210">
        <ele>538.9</ele>
        <time>2020-02-01T11:19:19Z</time>
      </trkpt>
      <trkpt lat="42.3378380" lon="-2.4951140">
        <ele>538.7</ele>
        <time>2020-02-01T11:19:20Z</time>
      </trkpt>
      <trkpt lat="42.3378000" lon="-2.4950020">
        <ele>538.5</ele>
        <time>2020-02-01T11:19:21Z</time>
      </trkpt>
      <trkpt lat="42.3377680" lon="-2.4948840">
        <ele>538.3</ele>
        <time>2020-02-01T11:19:22Z</time>
      </trkpt>
      <trkpt lat="42.3377310" lon="-2.4947760">
        <ele>538.0</ele>
        <time>2020-02-01T11:19:23Z</time>
      </trkpt>
      <trkpt lat="42.3376720" lon="-2.4946480">
        <ele>538.1</ele>
        <time>2020-02-01T11:19:24Z</time>
      </trkpt>
      <trkpt lat="42.3376400" lon="-2.4945390">
        <ele>538.2</ele>
        <time>2020-02-01T11:19:25Z</time>
      </trkpt>
      <trkpt lat="42.3376100" lon="-2.4944270">
        <ele>538.4</ele>
        <time>2020-02-01T11:19:26Z</time>
      </trkpt>
      <trkpt lat="42.3375800" lon="-2.4943100">
        <ele>538.7</ele>
        <time>2020-02-01T11:19:27Z</time>
      </trkpt>
      <trkpt lat="42.3375540" lon="-2.4941970">
        <ele>539.0</ele>
        <time>2020-02-01T11:19:28Z</time>
      </trkpt>
      <trkpt lat="42.3375210" lon="-2.4940840">
        <ele>539.3</ele>
        <time>2020-02-01T11:19:29Z</time>
      </trkpt>
      <trkpt lat="42.3374940" lon="-2.4939770">
        <ele>539.6</ele>
        <time>2020-02-01T11:19:30Z</time>
      </trkpt>
      <trkpt lat="42.3374680" lon="-2.4938590">
        <ele>540.0</ele>
        <time>2020-02-01T11:19:31Z</time>
      </trkpt>
      <trkpt lat="42.3374350" lon="-2.4937460">
        <ele>540.5</ele>
        <time>2020-02-01T11:19:32Z</time>
      </trkpt>
      <trkpt lat="42.3374090" lon="-2.4936390">
        <ele>541.1</ele>
        <time>2020-02-01T11:19:33Z</time>
      </trkpt>
      <trkpt lat="42.3373760" lon="-2.4935210">
        <ele>541.7</ele>
        <time>2020-02-01T11:19:34Z</time>
      </trkpt>
      <trkpt lat="42.3372050" lon="-2.4933330">
        <ele>543.3</ele>
        <time>2020-02-01T11:19:41Z</time>
      </trkpt>
      <trkpt lat="42.3371730" lon="-2.4932960">
        <ele>543.6</ele>
        <time>2020-02-01T11:19:42Z</time>
      </trkpt>
      <trkpt lat="42.3371370" lon="-2.4932560">
        <ele>543.9</ele>
        <time>2020-02-01T11:19:43Z</time>
      </trkpt>
      <trkpt lat="42.3371030" lon="-2.4932150">
        <ele>544.2</ele>
        <time>2020-02-01T11:19:44Z</time>
      </trkpt>
      <trkpt lat="42.3370710" lon="-2.4931780">
        <ele>544.4</ele>
        <time>2020-02-01T11:19:45Z</time>
      </trkpt>
      <trkpt lat="42.3370600" lon="-2.4932580">
        <ele>544.8</ele>
        <time>2020-02-01T11:19:46Z</time>
      </trkpt>
      <trkpt lat="42.3370330" lon="-2.4932390">
        <ele>545.0</ele>
        <time>2020-02-01T11:19:47Z</time>
      </trkpt>
      <trkpt lat="42.3370060" lon="-2.4932190">
        <ele>545.1</ele>
        <time>2020-02-01T11:19:48Z</time>
      </trkpt>
      <trkpt lat="42.3369630" lon="-2.4932260">
        <ele>545.4</ele>
        <time>2020-02-01T11:19:50Z</time>
      </trkpt>
      <trkpt lat="42.3368380" lon="-2.4930900">
        <ele>546.4</ele>
        <time>2020-02-01T11:19:52Z</time>
      </trkpt>
      <trkpt lat="42.3368090" lon="-2.4930760">
        <ele>546.5</ele>
        <time>2020-02-01T11:19:53Z</time>
      </trkpt>
      <trkpt lat="42.3367600" lon="-2.4930760">
        <ele>546.7</ele>
        <time>2020-02-01T11:19:55Z</time>
      </trkpt>
      <trkpt lat="42.3367860" lon="-2.4931780">
        <ele>547.0</ele>
        <time>2020-02-01T11:19:56Z</time>
      </trkpt>
      <trkpt lat="42.3367910" lon="-2.4932380">
        <ele>547.1</ele>
        <time>2020-02-01T11:19:57Z</time>
      </trkpt>
      <trkpt lat="42.3367620" lon="-2.4932340">
        <ele>547.2</ele>
        <time>2020-02-01T11:19:58Z</time>
      </trkpt>
      <trkpt lat="42.3367160" lon="-2.4932110">
        <ele>547.4</ele>
        <time>2020-02-01T11:19:59Z</time>
      </trkpt>
      <trkpt lat="42.3366870" lon="-2.4932120">
        <ele>547.5</ele>
        <time>2020-02-01T11:20:00Z</time>
      </trkpt>
      <trkpt lat="42.3366520" lon="-2.4931730">
        <ele>547.7</ele>
        <time>2020-02-01T11:20:01Z</time>
      </trkpt>
      <trkpt lat="42.3366090" lon="-2.4931430">
        <ele>547.8</ele>
        <time>2020-02-01T11:20:02Z</time>
      </trkpt>
      <trkpt lat="42.3365820" lon="-2.4931210">
        <ele>547.9</ele>
        <time>2020-02-01T11:20:03Z</time>
      </trkpt>
      <trkpt lat="42.3365480" lon="-2.4930900">
        <ele>548.1</ele>
        <time>2020-02-01T11:20:04Z</time>
      </trkpt>
      <trkpt lat="42.3365420" lon="-2.4930390">
        <ele>548.3</ele>
        <time>2020-02-01T11:20:05Z</time>
      </trkpt>
      <trkpt lat="42.3365270" lon="-2.4930060">
        <ele>548.4</ele>
        <time>2020-02-01T11:20:06Z</time>
      </trkpt>
      <trkpt lat="42.3365080" lon="-2.4929720">
        <ele>548.5</ele>
        <time>2020-02-01T11:20:07Z</time>
      </trkpt>
      <trkpt lat="42.3364730" lon="-2.4929140">
        <ele>548.8</ele>
        <time>2020-02-01T11:20:09Z</time>
      </trkpt>
      <trkpt lat="42.3364540" lon="-2.4928830">
        <ele>548.9</ele>
        <time>2020-02-01T11:20:10Z</time>
      </trkpt>
      <trkpt lat="42.3364480" lon="-2.4927480">
        <ele>548.9</ele>
        <time>2020-02-01T11:20:12Z</time>
      </trkpt>
      <trkpt lat="42.3364390" lon="-2.4927020">
        <ele>548.9</ele>
        <time>2020-02-01T11:20:13Z</time>
      </trkpt>
      <trkpt lat="42.3364400" lon="-2.4926430">
        <ele>548.9</ele>
        <time>2020-02-01T11:20:14Z</time>
      </trkpt>
      <trkpt lat="42.3365400" lon="-2.4926470">
        <ele>548.9</ele>
        <time>2020-02-01T11:20:15Z</time>
      </trkpt>
      <trkpt lat="42.3366440" lon="-2.4926030">
        <ele>548.5</ele>
        <time>2020-02-01T11:20:16Z</time>
      </trkpt>
      <trkpt lat="42.3366880" lon="-2.4925710">
        <ele>548.4</ele>
        <time>2020-02-01T11:20:17Z</time>
      </trkpt>
      <trkpt lat="42.3367310" lon="-2.4925390">
        <ele>548.2</ele>
        <time>2020-02-01T11:20:18Z</time>
      </trkpt>
      <trkpt lat="42.3367760" lon="-2.4925070">
        <ele>547.7</ele>
        <time>2020-02-01T11:20:19Z</time>
      </trkpt>
      <trkpt lat="42.3368190" lon="-2.4924750">
        <ele>547.6</ele>
        <time>2020-02-01T11:20:20Z</time>
      </trkpt>
      <trkpt lat="42.3368610" lon="-2.4924430">
        <ele>547.4</ele>
        <time>2020-02-01T11:20:21Z</time>
      </trkpt>
      <trkpt lat="42.3370820" lon="-2.4922580">
        <ele>546.6</ele>
        <time>2020-02-01T11:20:23Z</time>
      </trkpt>
      <trkpt lat="42.3371250" lon="-2.4922050">
        <ele>546.6</ele>
        <time>2020-02-01T11:20:24Z</time>
      </trkpt>
      <trkpt lat="42.3371750" lon="-2.4921390">
        <ele>546.6</ele>
        <time>2020-02-01T11:20:25Z</time>
      </trkpt>
      <trkpt lat="42.3372230" lon="-2.4920730">
        <ele>546.6</ele>
        <time>2020-02-01T11:20:26Z</time>
      </trkpt>
      <trkpt lat="42.3372730" lon="-2.4920950">
        <ele>546.6</ele>
        <time>2020-02-01T11:20:27Z</time>
      </trkpt>
      <trkpt lat="42.3372960" lon="-2.4920280">
        <ele>546.6</ele>
        <time>2020-02-01T11:20:28Z</time>
      </trkpt>
      <trkpt lat="42.3373400" lon="-2.4919750">
        <ele>546.6</ele>
        <time>2020-02-01T11:20:29Z</time>
      </trkpt>
      <trkpt lat="42.3373090" lon="-2.4918820">
        <ele>546.7</ele>
        <time>2020-02-01T11:20:30Z</time>
      </trkpt>
      <trkpt lat="42.3373390" lon="-2.4918150">
        <ele>546.7</ele>
        <time>2020-02-01T11:20:31Z</time>
      </trkpt>
      <trkpt lat="42.3373190" lon="-2.4917600">
        <ele>546.7</ele>
        <time>2020-02-01T11:20:32Z</time>
      </trkpt>
      <trkpt lat="42.3373440" lon="-2.4917020">
        <ele>546.8</ele>
        <time>2020-02-01T11:20:33Z</time>
      </trkpt>
      <trkpt lat="42.3373660" lon="-2.4916430">
        <ele>546.8</ele>
        <time>2020-02-01T11:20:34Z</time>
      </trkpt>
      <trkpt lat="42.3373930" lon="-2.4915790">
        <ele>547.0</ele>
        <time>2020-02-01T11:20:35Z</time>
      </trkpt>
      <trkpt lat="42.3374300" lon="-2.4914990">
        <ele>547.1</ele>
        <time>2020-02-01T11:20:36Z</time>
      </trkpt>
      <trkpt lat="42.3374630" lon="-2.4914280">
        <ele>547.3</ele>
        <time>2020-02-01T11:20:37Z</time>
      </trkpt>
      <trkpt lat="42.3374870" lon="-2.4913690">
        <ele>547.5</ele>
        <time>2020-02-01T11:20:38Z</time>
      </trkpt>
      <trkpt lat="42.3375080" lon="-2.4913130">
        <ele>547.6</ele>
        <time>2020-02-01T11:20:39Z</time>
      </trkpt>
      <trkpt lat="42.3375530" lon="-2.4912350">
        <ele>547.8</ele>
        <time>2020-02-01T11:20:40Z</time>
      </trkpt>
      <trkpt lat="42.3375900" lon="-2.4911820">
        <ele>547.9</ele>
        <time>2020-02-01T11:20:41Z</time>
      </trkpt>
      <trkpt lat="42.3376220" lon="-2.4911080">
        <ele>548.1</ele>
        <time>2020-02-01T11:20:42Z</time>
      </trkpt>
      <trkpt lat="42.3376490" lon="-2.4910460">
        <ele>548.2</ele>
        <time>2020-02-01T11:20:43Z</time>
      </trkpt>
      <trkpt lat="42.3376740" lon="-2.4909860">
        <ele>548.3</ele>
        <time>2020-02-01T11:20:44Z</time>
      </trkpt>
      <trkpt lat="42.3376930" lon="-2.4909250">
        <ele>548.4</ele>
        <time>2020-02-01T11:20:45Z</time>
      </trkpt>
      <trkpt lat="42.3377200" lon="-2.4908600">
        <ele>548.5</ele>
        <time>2020-02-01T11:20:46Z</time>
      </trkpt>
      <trkpt lat="42.3377470" lon="-2.4907960">
        <ele>548.6</ele>
        <time>2020-02-01T11:20:47Z</time>
      </trkpt>
      <trkpt lat="42.3377730" lon="-2.4907370">
        <ele>548.6</ele>
        <time>2020-02-01T11:20:48Z</time>
      </trkpt>
      <trkpt lat="42.3378000" lon="-2.4906720">
        <ele>548.7</ele>
        <time>2020-02-01T11:20:49Z</time>
      </trkpt>
      <trkpt lat="42.3378270" lon="-2.4906130">
        <ele>548.7</ele>
        <time>2020-02-01T11:20:50Z</time>
      </trkpt>
      <trkpt lat="42.3378540" lon="-2.4905490">
        <ele>548.7</ele>
        <time>2020-02-01T11:20:51Z</time>
      </trkpt>
      <trkpt lat="42.3378810" lon="-2.4904900">
        <ele>548.7</ele>
        <time>2020-02-01T11:20:52Z</time>
      </trkpt>
      <trkpt lat="42.3379080" lon="-2.4904310">
        <ele>548.7</ele>
        <time>2020-02-01T11:20:53Z</time>
      </trkpt>
      <trkpt lat="42.3381760" lon="-2.4896480">
        <ele>548.7</ele>
        <time>2020-02-01T11:21:03Z</time>
      </trkpt>
      <trkpt lat="42.3382130" lon="-2.4896050">
        <ele>548.7</ele>
        <time>2020-02-01T11:21:04Z</time>
      </trkpt>
      <trkpt lat="42.3382530" lon="-2.4895400">
        <ele>548.7</ele>
        <time>2020-02-01T11:21:05Z</time>
      </trkpt>
      <trkpt lat="42.3382980" lon="-2.4894720">
        <ele>548.7</ele>
        <time>2020-02-01T11:21:06Z</time>
      </trkpt>
      <trkpt lat="42.3383290" lon="-2.4894040">
        <ele>548.7</ele>
        <time>2020-02-01T11:21:07Z</time>
      </trkpt>
      <trkpt lat="42.3383530" lon="-2.4893260">
        <ele>548.6</ele>
        <time>2020-02-01T11:21:08Z</time>
      </trkpt>
      <trkpt lat="42.3383960" lon="-2.4892520">
        <ele>548.6</ele>
        <time>2020-02-01T11:21:09Z</time>
      </trkpt>
      <trkpt lat="42.3384160" lon="-2.4891700">
        <ele>548.5</ele>
        <time>2020-02-01T11:21:10Z</time>
      </trkpt>
      <trkpt lat="42.3384330" lon="-2.4890910">
        <ele>548.4</ele>
        <time>2020-02-01T11:21:11Z</time>
      </trkpt>
      <trkpt lat="42.3384410" lon="-2.4890240">
        <ele>548.4</ele>
        <time>2020-02-01T11:21:12Z</time>
      </trkpt>
      <trkpt lat="42.3384820" lon="-2.4889500">
        <ele>548.2</ele>
        <time>2020-02-01T11:21:13Z</time>
      </trkpt>
      <trkpt lat="42.3385340" lon="-2.4888860">
        <ele>548.1</ele>
        <time>2020-02-01T11:21:14Z</time>
      </trkpt>
      <trkpt lat="42.3385410" lon="-2.4888020">
        <ele>548.0</ele>
        <time>2020-02-01T11:21:15Z</time>
      </trkpt>
      <trkpt lat="42.3385800" lon="-2.4887230">
        <ele>548.0</ele>
        <time>2020-02-01T11:21:16Z</time>
      </trkpt>
      <trkpt lat="42.3386080" lon="-2.4886530">
        <ele>547.9</ele>
        <time>2020-02-01T11:21:17Z</time>
      </trkpt>
      <trkpt lat="42.3386370" lon="-2.4885860">
        <ele>547.8</ele>
        <time>2020-02-01T11:21:18Z</time>
      </trkpt>
      <trkpt lat="42.3386580" lon="-2.4885060">
        <ele>547.8</ele>
        <time>2020-02-01T11:21:19Z</time>
      </trkpt>
      <trkpt lat="42.3386910" lon="-2.4884360">
        <ele>547.8</ele>
        <time>2020-02-01T11:21:20Z</time>
      </trkpt>
      <trkpt lat="42.3387220" lon="-2.4883720">
        <ele>547.8</ele>
        <time>2020-02-01T11:21:21Z</time>
      </trkpt>
      <trkpt lat="42.3387560" lon="-2.4883070">
        <ele>547.8</ele>
        <time>2020-02-01T11:21:22Z</time>
      </trkpt>
      <trkpt lat="42.3387960" lon="-2.4882330">
        <ele>547.8</ele>
        <time>2020-02-01T11:21:23Z</time>
      </trkpt>
      <trkpt lat="42.3388320" lon="-2.4881670">
        <ele>547.7</ele>
        <time>2020-02-01T11:21:24Z</time>
      </trkpt>
      <trkpt lat="42.3388620" lon="-2.4881060">
        <ele>547.7</ele>
        <time>2020-02-01T11:21:25Z</time>
      </trkpt>
      <trkpt lat="42.3389130" lon="-2.4880320">
        <ele>547.6</ele>
        <time>2020-02-01T11:21:26Z</time>
      </trkpt>
      <trkpt lat="42.3389480" lon="-2.4879580">
        <ele>547.6</ele>
        <time>2020-02-01T11:21:27Z</time>
      </trkpt>
      <trkpt lat="42.3389880" lon="-2.4878830">
        <ele>547.5</ele>
        <time>2020-02-01T11:21:28Z</time>
      </trkpt>
      <trkpt lat="42.3390240" lon="-2.4878150">
        <ele>547.4</ele>
        <time>2020-02-01T11:21:29Z</time>
      </trkpt>
      <trkpt lat="42.3390610" lon="-2.4877430">
        <ele>547.3</ele>
        <time>2020-02-01T11:21:30Z</time>
      </trkpt>
      <trkpt lat="42.3391110" lon="-2.4876600">
        <ele>547.2</ele>
        <time>2020-02-01T11:21:31Z</time>
      </trkpt>
      <trkpt lat="42.3391520" lon="-2.4876090">
        <ele>547.1</ele>
        <time>2020-02-01T11:21:32Z</time>
      </trkpt>
      <trkpt lat="42.3392010" lon="-2.4875290">
        <ele>547.0</ele>
        <time>2020-02-01T11:21:33Z</time>
      </trkpt>
      <trkpt lat="42.3392430" lon="-2.4874480">
        <ele>546.9</ele>
        <time>2020-02-01T11:21:34Z</time>
      </trkpt>
      <trkpt lat="42.3392920" lon="-2.4873990">
        <ele>546.8</ele>
        <time>2020-02-01T11:21:35Z</time>
      </trkpt>
      <trkpt lat="42.3393360" lon="-2.4873270">
        <ele>546.8</ele>
        <time>2020-02-01T11:21:36Z</time>
      </trkpt>
      <trkpt lat="42.3393770" lon="-2.4872640">
        <ele>546.7</ele>
        <time>2020-02-01T11:21:37Z</time>
      </trkpt>
      <trkpt lat="42.3394160" lon="-2.4871920">
        <ele>546.6</ele>
        <time>2020-02-01T11:21:38Z</time>
      </trkpt>
      <trkpt lat="42.3394580" lon="-2.4871210">
        <ele>546.5</ele>
        <time>2020-02-01T11:21:39Z</time>
      </trkpt>
      <trkpt lat="42.3394960" lon="-2.4870580">
        <ele>546.4</ele>
        <time>2020-02-01T11:21:40Z</time>
      </trkpt>
      <trkpt lat="42.3395350" lon="-2.4869890">
        <ele>546.2</ele>
        <time>2020-02-01T11:21:41Z</time>
      </trkpt>
      <trkpt lat="42.3395740" lon="-2.4869240">
        <ele>546.1</ele>
        <time>2020-02-01T11:21:42Z</time>
      </trkpt>
      <trkpt lat="42.3396130" lon="-2.4868580">
        <ele>546.0</ele>
        <time>2020-02-01T11:21:43Z</time>
      </trkpt>
      <trkpt lat="42.3396510" lon="-2.4867940">
        <ele>545.9</ele>
        <time>2020-02-01T11:21:44Z</time>
      </trkpt>
      <trkpt lat="42.3396890" lon="-2.4867300">
        <ele>545.7</ele>
        <time>2020-02-01T11:21:45Z</time>
      </trkpt>
      <trkpt lat="42.3397260" lon="-2.4866600">
        <ele>545.5</ele>
        <time>2020-02-01T11:21:46Z</time>
      </trkpt>
      <trkpt lat="42.3396240" lon="-2.4866220">
        <ele>545.3</ele>
        <time>2020-02-01T11:21:47Z</time>
      </trkpt>
      <trkpt lat="42.3396400" lon="-2.4865690">
        <ele>545.2</ele>
        <time>2020-02-01T11:21:48Z</time>
      </trkpt>
      <trkpt lat="42.3396510" lon="-2.4865150">
        <ele>545.1</ele>
        <time>2020-02-01T11:21:49Z</time>
      </trkpt>
      <trkpt lat="42.3396130" lon="-2.4864670">
        <ele>544.9</ele>
        <time>2020-02-01T11:21:50Z</time>
      </trkpt>
      <trkpt lat="42.3396190" lon="-2.4864130">
        <ele>544.9</ele>
        <time>2020-02-01T11:21:51Z</time>
      </trkpt>
      <trkpt lat="42.3396300" lon="-2.4863650">
        <ele>544.7</ele>
        <time>2020-02-01T11:21:52Z</time>
      </trkpt>
      <trkpt lat="42.3396350" lon="-2.4863110">
        <ele>544.5</ele>
        <time>2020-02-01T11:21:53Z</time>
      </trkpt>
      <trkpt lat="42.3396400" lon="-2.4862580">
        <ele>544.3</ele>
        <time>2020-02-01T11:21:54Z</time>
      </trkpt>
      <trkpt lat="42.3396460" lon="-2.4862040">
        <ele>544.1</ele>
        <time>2020-02-01T11:21:55Z</time>
      </trkpt>
      <trkpt lat="42.3402760" lon="-2.4868040">
        <ele>540.9</ele>
        <time>2020-02-01T11:21:58Z</time>
      </trkpt>
      <trkpt lat="42.3403200" lon="-2.4869140">
        <ele>540.5</ele>
        <time>2020-02-01T11:21:59Z</time>
      </trkpt>
      <trkpt lat="42.3403910" lon="-2.4869500">
        <ele>540.2</ele>
        <time>2020-02-01T11:22:00Z</time>
      </trkpt>
      <trkpt lat="42.3404290" lon="-2.4869710">
        <ele>540.0</ele>
        <time>2020-02-01T11:22:01Z</time>
      </trkpt>
      <trkpt lat="42.3404860" lon="-2.4870200">
        <ele>539.7</ele>
        <time>2020-02-01T11:22:02Z</time>
      </trkpt>
      <trkpt lat="42.3405570" lon="-2.4870700">
        <ele>539.4</ele>
        <time>2020-02-01T11:22:03Z</time>
      </trkpt>
      <trkpt lat="42.3406000" lon="-2.4871110">
        <ele>539.2</ele>
        <time>2020-02-01T11:22:04Z</time>
      </trkpt>
      <trkpt lat="42.3406610" lon="-2.4871180">
        <ele>538.8</ele>
        <time>2020-02-01T11:22:05Z</time>
      </trkpt>
      <trkpt lat="42.3406920" lon="-2.4871100">
        <ele>538.6</ele>
        <time>2020-02-01T11:22:06Z</time>
      </trkpt>
      <trkpt lat="42.3407450" lon="-2.4871020">
        <ele>538.3</ele>
        <time>2020-02-01T11:22:07Z</time>
      </trkpt>
      <trkpt lat="42.3408100" lon="-2.4871130">
        <ele>538.0</ele>
        <time>2020-02-01T11:22:08Z</time>
      </trkpt>
      <trkpt lat="42.3408380" lon="-2.4871650">
        <ele>537.8</ele>
        <time>2020-02-01T11:22:09Z</time>
      </trkpt>
      <trkpt lat="42.3408840" lon="-2.4871960">
        <ele>537.7</ele>
        <time>2020-02-01T11:22:10Z</time>
      </trkpt>
      <trkpt lat="42.3409280" lon="-2.4872470">
        <ele>537.5</ele>
        <time>2020-02-01T11:22:11Z</time>
      </trkpt>
      <trkpt lat="42.3409650" lon="-2.4872980">
        <ele>537.4</ele>
        <time>2020-02-01T11:22:12Z</time>
      </trkpt>
      <trkpt lat="42.3410070" lon="-2.4873590">
        <ele>537.2</ele>
        <time>2020-02-01T11:22:13Z</time>
      </trkpt>
      <trkpt lat="42.3410620" lon="-2.4874150">
        <ele>537.0</ele>
        <time>2020-02-01T11:22:14Z</time>
      </trkpt>
      <trkpt lat="42.3411160" lon="-2.4874330">
        <ele>536.7</ele>
        <time>2020-02-01T11:22:15Z</time>
      </trkpt>
      <trkpt lat="42.3411620" lon="-2.4874740">
        <ele>536.5</ele>
        <time>2020-02-01T11:22:16Z</time>
      </trkpt>
      <trkpt lat="42.3412070" lon="-2.4875130">
        <ele>536.2</ele>
        <time>2020-02-01T11:22:17Z</time>
      </trkpt>
      <trkpt lat="42.3412600" lon="-2.4875660">
        <ele>535.8</ele>
        <time>2020-02-01T11:22:18Z</time>
      </trkpt>
      <trkpt lat="42.3413030" lon="-2.4876090">
        <ele>535.4</ele>
        <time>2020-02-01T11:22:19Z</time>
      </trkpt>
      <trkpt lat="42.3413460" lon="-2.4876520">
        <ele>535.1</ele>
        <time>2020-02-01T11:22:20Z</time>
      </trkpt>
      <trkpt lat="42.3413940" lon="-2.4876900">
        <ele>534.8</ele>
        <time>2020-02-01T11:22:21Z</time>
      </trkpt>
      <trkpt lat="42.3414370" lon="-2.4877330">
        <ele>534.5</ele>
        <time>2020-02-01T11:22:22Z</time>
      </trkpt>
      <trkpt lat="42.3414860" lon="-2.4877760">
        <ele>534.2</ele>
        <time>2020-02-01T11:22:23Z</time>
      </trkpt>
      <trkpt lat="42.3415290" lon="-2.4878190">
        <ele>533.9</ele>
        <time>2020-02-01T11:22:24Z</time>
      </trkpt>
      <trkpt lat="42.3415770" lon="-2.4878620">
        <ele>533.6</ele>
        <time>2020-02-01T11:22:25Z</time>
      </trkpt>
      <trkpt lat="42.3416410" lon="-2.4878830">
        <ele>533.3</ele>
        <time>2020-02-01T11:22:26Z</time>
      </trkpt>
      <trkpt lat="42.3416800" lon="-2.4879160">
        <ele>533.0</ele>
        <time>2020-02-01T11:22:27Z</time>
      </trkpt>
      <trkpt lat="42.3417180" lon="-2.4879490">
        <ele>532.8</ele>
        <time>2020-02-01T11:22:28Z</time>
      </trkpt>
      <trkpt lat="42.3417650" lon="-2.4880060">
        <ele>532.5</ele>
        <time>2020-02-01T11:22:29Z</time>
      </trkpt>
      <trkpt lat="42.3418020" lon="-2.4880390">
        <ele>532.3</ele>
        <time>2020-02-01T11:22:30Z</time>
      </trkpt>
      <trkpt lat="42.3418450" lon="-2.4880760">
        <ele>532.0</ele>
        <time>2020-02-01T11:22:31Z</time>
      </trkpt>
      <trkpt lat="42.3418770" lon="-2.4881080">
        <ele>531.8</ele>
        <time>2020-02-01T11:22:32Z</time>
      </trkpt>
      <trkpt lat="42.3419150" lon="-2.4881460">
        <ele>531.6</ele>
        <time>2020-02-01T11:22:33Z</time>
      </trkpt>
      <trkpt lat="42.3419580" lon="-2.4881780">
        <ele>531.3</ele>
        <time>2020-02-01T11:22:34Z</time>
      </trkpt>
      <trkpt lat="42.3419900" lon="-2.4882160">
        <ele>531.2</ele>
        <time>2020-02-01T11:22:35Z</time>
      </trkpt>
      <trkpt lat="42.3420270" lon="-2.4882480">
        <ele>531.0</ele>
        <time>2020-02-01T11:22:36Z</time>
      </trkpt>
      <trkpt lat="42.3420650" lon="-2.4878400">
        <ele>529.7</ele>
        <time>2020-02-01T11:22:40Z</time>
      </trkpt>
      <trkpt lat="42.3420860" lon="-2.4878050">
        <ele>529.6</ele>
        <time>2020-02-01T11:22:42Z</time>
      </trkpt>
      <trkpt lat="42.3421100" lon="-2.4877730">
        <ele>529.6</ele>
        <time>2020-02-01T11:22:43Z</time>
      </trkpt>
      <trkpt lat="42.3421810" lon="-2.4877440">
        <ele>529.5</ele>
        <time>2020-02-01T11:22:44Z</time>
      </trkpt>
      <trkpt lat="42.3422390" lon="-2.4876870">
        <ele>529.5</ele>
        <time>2020-02-01T11:22:45Z</time>
      </trkpt>
      <trkpt lat="42.3422950" lon="-2.4876150">
        <ele>529.4</ele>
        <time>2020-02-01T11:22:47Z</time>
      </trkpt>
      <trkpt lat="42.3422400" lon="-2.4875940">
        <ele>529.4</ele>
        <time>2020-02-01T11:22:48Z</time>
      </trkpt>
      <trkpt lat="42.3422470" lon="-2.4875450">
        <ele>529.4</ele>
        <time>2020-02-01T11:22:50Z</time>
      </trkpt>
      <trkpt lat="42.3422210" lon="-2.4875130">
        <ele>529.3</ele>
        <time>2020-02-01T11:22:51Z</time>
      </trkpt>
      <trkpt lat="42.3421950" lon="-2.4874560">
        <ele>529.3</ele>
        <time>2020-02-01T11:22:53Z</time>
      </trkpt>
      <trkpt lat="42.3421670" lon="-2.4874430">
        <ele>529.3</ele>
        <time>2020-02-01T11:22:55Z</time>
      </trkpt>
      <trkpt lat="42.3421510" lon="-2.4874060">
        <ele>529.2</ele>
        <time>2020-02-01T11:22:57Z</time>
      </trkpt>
      <trkpt lat="42.3421350" lon="-2.4873570">
        <ele>529.2</ele>
        <time>2020-02-01T11:23:00Z</time>
      </trkpt>
      <trkpt lat="42.3421190" lon="-2.4873250">
        <ele>529.2</ele>
        <time>2020-02-01T11:23:02Z</time>
      </trkpt>
      <trkpt lat="42.3421030" lon="-2.4872880">
        <ele>529.2</ele>
        <time>2020-02-01T11:23:04Z</time>
      </trkpt>
      <trkpt lat="42.3420860" lon="-2.4872390">
        <ele>529.1</ele>
        <time>2020-02-01T11:23:07Z</time>
      </trkpt>
      <trkpt lat="42.3422470" lon="-2.4877270">
        <ele>528.8</ele>
        <time>2020-02-01T11:23:12Z</time>
      </trkpt>
      <trkpt lat="42.3422690" lon="-2.4877700">
        <ele>528.8</ele>
        <time>2020-02-01T11:23:14Z</time>
      </trkpt>
      <trkpt lat="42.3422960" lon="-2.4878080">
        <ele>528.8</ele>
        <time>2020-02-01T11:23:16Z</time>
      </trkpt>
      <trkpt lat="42.3423170" lon="-2.4878510">
        <ele>528.7</ele>
        <time>2020-02-01T11:23:18Z</time>
      </trkpt>
      <trkpt lat="42.3421920" lon="-2.4874880">
        <ele>528.5</ele>
        <time>2020-02-01T11:23:20Z</time>
      </trkpt>
      <trkpt lat="42.3422020" lon="-2.4874140">
        <ele>528.4</ele>
        <time>2020-02-01T11:23:22Z</time>
      </trkpt>
      <trkpt lat="42.3422020" lon="-2.4874610">
        <ele>528.4</ele>
        <time>2020-02-01T11:23:27Z</time>
      </trkpt>
      <trkpt lat="42.3422310" lon="-2.4874650">
        <ele>528.4</ele>
        <time>2020-02-01T11:23:28Z</time>
      </trkpt>
      <trkpt lat="42.3421960" lon="-2.4874710">
        <ele>528.4</ele>
        <time>2020-02-01T11:23:29Z</time>
      </trkpt>
      <trkpt lat="42.3422720" lon="-2.4872610">
        <ele>528.3</ele>
        <time>2020-02-01T13:06:23Z</time>
      </trkpt>
      <trkpt lat="42.3422580" lon="-2.4874170">
        <ele>528.4</ele>
        <time>2020-02-01T13:06:25Z</time>
      </trkpt>
      <trkpt lat="42.3422360" lon="-2.4873780">
        <ele>528.5</ele>
        <time>2020-02-01T13:06:27Z</time>
      </trkpt>
      <trkpt lat="42.3421940" lon="-2.4873440">
        <ele>528.6</ele>
        <time>2020-02-01T13:06:32Z</time>
      </trkpt>
      <trkpt lat="42.3422690" lon="-2.4874750">
        <ele>528.9</ele>
        <time>2020-02-01T13:06:36Z</time>
      </trkpt>
      <trkpt lat="42.3422560" lon="-2.4874320">
        <ele>529.0</ele>
        <time>2020-02-01T13:06:37Z</time>
      </trkpt>
      <trkpt lat="42.3422520" lon="-2.4874850">
        <ele>529.1</ele>
        <time>2020-02-01T13:06:41Z</time>
      </trkpt>
      <trkpt lat="42.3422170" lon="-2.4875440">
        <ele>529.2</ele>
        <time>2020-02-01T13:06:47Z</time>
      </trkpt>
      <trkpt lat="42.3421830" lon="-2.4876020">
        <ele>529.3</ele>
        <time>2020-02-01T13:06:48Z</time>
      </trkpt>
      <trkpt lat="42.3421810" lon="-2.4876730">
        <ele>529.5</ele>
        <time>2020-02-01T13:06:56Z</time>
      </trkpt>
      <trkpt lat="42.3421700" lon="-2.4877080">
        <ele>529.5</ele>
        <time>2020-02-01T13:06:57Z</time>
      </trkpt>
      <trkpt lat="42.3421590" lon="-2.4877590">
        <ele>529.6</ele>
        <time>2020-02-01T13:06:58Z</time>
      </trkpt>
      <trkpt lat="42.3421420" lon="-2.4878120">
        <ele>529.7</ele>
        <time>2020-02-01T13:06:59Z</time>
      </trkpt>
      <trkpt lat="42.3421260" lon="-2.4878580">
        <ele>529.8</ele>
        <time>2020-02-01T13:07:00Z</time>
      </trkpt>
      <trkpt lat="42.3421020" lon="-2.4878930">
        <ele>529.9</ele>
        <time>2020-02-01T13:07:01Z</time>
      </trkpt>
      <trkpt lat="42.3420810" lon="-2.4879230">
        <ele>530.1</ele>
        <time>2020-02-01T13:07:02Z</time>
      </trkpt>
      <trkpt lat="42.3420440" lon="-2.4879610">
        <ele>530.3</ele>
        <time>2020-02-01T13:07:03Z</time>
      </trkpt>
      <trkpt lat="42.3420130" lon="-2.4879940">
        <ele>530.5</ele>
        <time>2020-02-01T13:07:04Z</time>
      </trkpt>
      <trkpt lat="42.3419820" lon="-2.4880230">
        <ele>530.6</ele>
        <time>2020-02-01T13:07:05Z</time>
      </trkpt>
      <trkpt lat="42.3419450" lon="-2.4880540">
        <ele>530.8</ele>
        <time>2020-02-01T13:07:07Z</time>
      </trkpt>
      <trkpt lat="42.3418950" lon="-2.4880930">
        <ele>531.1</ele>
        <time>2020-02-01T13:07:09Z</time>
      </trkpt>
      <trkpt lat="42.3418660" lon="-2.4880390">
        <ele>531.3</ele>
        <time>2020-02-01T13:07:10Z</time>
      </trkpt>
      <trkpt lat="42.3418200" lon="-2.4880350">
        <ele>531.5</ele>
        <time>2020-02-01T13:07:12Z</time>
      </trkpt>
      <trkpt lat="42.3417150" lon="-2.4879890">
        <ele>532.3</ele>
        <time>2020-02-01T13:07:14Z</time>
      </trkpt>
      <trkpt lat="42.3416580" lon="-2.4879470">
        <ele>532.6</ele>
        <time>2020-02-01T13:07:15Z</time>
      </trkpt>
      <trkpt lat="42.3416220" lon="-2.4879290">
        <ele>532.8</ele>
        <time>2020-02-01T13:07:16Z</time>
      </trkpt>
      <trkpt lat="42.3415900" lon="-2.4879060">
        <ele>533.0</ele>
        <time>2020-02-01T13:07:17Z</time>
      </trkpt>
      <trkpt lat="42.3415580" lon="-2.4878800">
        <ele>533.3</ele>
        <time>2020-02-01T13:07:18Z</time>
      </trkpt>
      <trkpt lat="42.3415170" lon="-2.4878610">
        <ele>533.5</ele>
        <time>2020-02-01T13:07:19Z</time>
      </trkpt>
      <trkpt lat="42.3414750" lon="-2.4878340">
        <ele>533.8</ele>
        <time>2020-02-01T13:07:20Z</time>
      </trkpt>
      <trkpt lat="42.3414440" lon="-2.4878200">
        <ele>534.0</ele>
        <time>2020-02-01T13:07:21Z</time>
      </trkpt>
      <trkpt lat="42.3414020" lon="-2.4877740">
        <ele>534.4</ele>
        <time>2020-02-01T13:07:22Z</time>
      </trkpt>
      <trkpt lat="42.3413720" lon="-2.4877490">
        <ele>534.6</ele>
        <time>2020-02-01T13:07:23Z</time>
      </trkpt>
      <trkpt lat="42.3413530" lon="-2.4876890">
        <ele>534.9</ele>
        <time>2020-02-01T13:07:24Z</time>
      </trkpt>
      <trkpt lat="42.3413140" lon="-2.4876670">
        <ele>535.2</ele>
        <time>2020-02-01T13:07:25Z</time>
      </trkpt>
      <trkpt lat="42.3412710" lon="-2.4876280">
        <ele>535.5</ele>
        <time>2020-02-01T13:07:26Z</time>
      </trkpt>
      <trkpt lat="42.3412280" lon="-2.4875940">
        <ele>535.9</ele>
        <time>2020-02-01T13:07:27Z</time>
      </trkpt>
      <trkpt lat="42.3411740" lon="-2.4874730">
        <ele>536.6</ele>
        <time>2020-02-01T13:07:28Z</time>
      </trkpt>
      <trkpt lat="42.3411830" lon="-2.4874470">
        <ele>536.7</ele>
        <time>2020-02-01T13:07:31Z</time>
      </trkpt>
      <trkpt lat="42.3411610" lon="-2.4874310">
        <ele>536.9</ele>
        <time>2020-02-01T13:07:32Z</time>
      </trkpt>
      <trkpt lat="42.3410720" lon="-2.4873550">
        <ele>537.3</ele>
        <time>2020-02-01T13:07:34Z</time>
      </trkpt>
      <trkpt lat="42.3410490" lon="-2.4873270">
        <ele>537.4</ele>
        <time>2020-02-01T13:07:35Z</time>
      </trkpt>
      <trkpt lat="42.3410120" lon="-2.4872940">
        <ele>537.5</ele>
        <time>2020-02-01T13:07:37Z</time>
      </trkpt>
      <trkpt lat="42.3409510" lon="-2.4872440">
        <ele>537.7</ele>
        <time>2020-02-01T13:07:39Z</time>
      </trkpt>
      <trkpt lat="42.3409340" lon="-2.4872010">
        <ele>537.9</ele>
        <time>2020-02-01T13:07:41Z</time>
      </trkpt>
      <trkpt lat="42.3409680" lon="-2.4871890">
        <ele>538.0</ele>
        <time>2020-02-01T13:07:42Z</time>
      </trkpt>
      <trkpt lat="42.3409320" lon="-2.4871600">
        <ele>538.3</ele>
        <time>2020-02-01T13:07:44Z</time>
      </trkpt>
      <trkpt lat="42.3409060" lon="-2.4871140">
        <ele>538.6</ele>
        <time>2020-02-01T13:07:46Z</time>
      </trkpt>
      <trkpt lat="42.3407090" lon="-2.4870780">
        <ele>539.7</ele>
        <time>2020-02-01T13:07:48Z</time>
      </trkpt>
      <trkpt lat="42.3406750" lon="-2.4870680">
        <ele>539.9</ele>
        <time>2020-02-01T13:07:49Z</time>
      </trkpt>
      <trkpt lat="42.3406400" lon="-2.4870370">
        <ele>540.1</ele>
        <time>2020-02-01T13:07:50Z</time>
      </trkpt>
      <trkpt lat="42.3405970" lon="-2.4870180">
        <ele>540.3</ele>
        <time>2020-02-01T13:07:51Z</time>
      </trkpt>
      <trkpt lat="42.3405690" lon="-2.4870040">
        <ele>540.5</ele>
        <time>2020-02-01T13:07:52Z</time>
      </trkpt>
      <trkpt lat="42.3404980" lon="-2.4869710">
        <ele>540.9</ele>
        <time>2020-02-01T13:07:54Z</time>
      </trkpt>
      <trkpt lat="42.3404650" lon="-2.4869500">
        <ele>541.1</ele>
        <time>2020-02-01T13:07:55Z</time>
      </trkpt>
      <trkpt lat="42.3404380" lon="-2.4869240">
        <ele>541.3</ele>
        <time>2020-02-01T13:07:56Z</time>
      </trkpt>
      <trkpt lat="42.3404060" lon="-2.4869110">
        <ele>541.4</ele>
        <time>2020-02-01T13:07:57Z</time>
      </trkpt>
      <trkpt lat="42.3403770" lon="-2.4868910">
        <ele>541.6</ele>
        <time>2020-02-01T13:07:58Z</time>
      </trkpt>
      <trkpt lat="42.3403190" lon="-2.4868800">
        <ele>541.8</ele>
        <time>2020-02-01T13:08:00Z</time>
      </trkpt>
      <trkpt lat="42.3402860" lon="-2.4868600">
        <ele>541.9</ele>
        <time>2020-02-01T13:08:01Z</time>
      </trkpt>
      <trkpt lat="42.3402460" lon="-2.4867860">
        <ele>542.2</ele>
        <time>2020-02-01T13:08:02Z</time>
      </trkpt>
      <trkpt lat="42.3402110" lon="-2.4867530">
        <ele>542.4</ele>
        <time>2020-02-01T13:08:03Z</time>
      </trkpt>
      <trkpt lat="42.3401850" lon="-2.4867380">
        <ele>542.6</ele>
        <time>2020-02-01T13:08:04Z</time>
      </trkpt>
      <trkpt lat="42.3401510" lon="-2.4867230">
        <ele>542.8</ele>
        <time>2020-02-01T13:08:05Z</time>
      </trkpt>
      <trkpt lat="42.3401160" lon="-2.4867040">
        <ele>543.0</ele>
        <time>2020-02-01T13:08:06Z</time>
      </trkpt>
      <trkpt lat="42.3400760" lon="-2.4866710">
        <ele>543.3</ele>
        <time>2020-02-01T13:08:08Z</time>
      </trkpt>
      <trkpt lat="42.3400420" lon="-2.4867030">
        <ele>543.5</ele>
        <time>2020-02-01T13:08:09Z</time>
      </trkpt>
      <trkpt lat="42.3400010" lon="-2.4866940">
        <ele>543.7</ele>
        <time>2020-02-01T13:08:11Z</time>
      </trkpt>
      <trkpt lat="42.3399680" lon="-2.4866920">
        <ele>543.8</ele>
        <time>2020-02-01T13:08:13Z</time>
      </trkpt>
      <trkpt lat="42.3399360" lon="-2.4866780">
        <ele>544.0</ele>
        <time>2020-02-01T13:08:14Z</time>
      </trkpt>
      <trkpt lat="42.3399040" lon="-2.4866810">
        <ele>544.2</ele>
        <time>2020-02-01T13:08:15Z</time>
      </trkpt>
      <trkpt lat="42.3398740" lon="-2.4867050">
        <ele>544.4</ele>
        <time>2020-02-01T13:08:16Z</time>
      </trkpt>
      <trkpt lat="42.3398280" lon="-2.4867160">
        <ele>544.9</ele>
        <time>2020-02-01T13:08:17Z</time>
      </trkpt>
      <trkpt lat="42.3398140" lon="-2.4867960">
        <ele>545.1</ele>
        <time>2020-02-01T13:08:19Z</time>
      </trkpt>
      <trkpt lat="42.3398070" lon="-2.4868420">
        <ele>545.2</ele>
        <time>2020-02-01T13:08:20Z</time>
      </trkpt>
      <trkpt lat="42.3397780" lon="-2.4868840">
        <ele>545.3</ele>
        <time>2020-02-01T13:08:21Z</time>
      </trkpt>
      <trkpt lat="42.3397480" lon="-2.4869270">
        <ele>545.4</ele>
        <time>2020-02-01T13:08:22Z</time>
      </trkpt>
      <trkpt lat="42.3396980" lon="-2.4869500">
        <ele>545.5</ele>
        <time>2020-02-01T13:08:23Z</time>
      </trkpt>
      <trkpt lat="42.3396620" lon="-2.4869760">
        <ele>545.7</ele>
        <time>2020-02-01T13:08:24Z</time>
      </trkpt>
      <trkpt lat="42.3396280" lon="-2.4870140">
        <ele>545.8</ele>
        <time>2020-02-01T13:08:25Z</time>
      </trkpt>
      <trkpt lat="42.3395970" lon="-2.4870510">
        <ele>545.9</ele>
        <time>2020-02-01T13:08:26Z</time>
      </trkpt>
      <trkpt lat="42.3395740" lon="-2.4870880">
        <ele>546.0</ele>
        <time>2020-02-01T13:08:27Z</time>
      </trkpt>
      <trkpt lat="42.3395570" lon="-2.4871340">
        <ele>546.0</ele>
        <time>2020-02-01T13:08:28Z</time>
      </trkpt>
      <trkpt lat="42.3395520" lon="-2.4871970">
        <ele>546.1</ele>
        <time>2020-02-01T13:08:29Z</time>
      </trkpt>
      <trkpt lat="42.3395200" lon="-2.4872470">
        <ele>546.2</ele>
        <time>2020-02-01T13:08:30Z</time>
      </trkpt>
      <trkpt lat="42.3394840" lon="-2.4872860">
        <ele>546.3</ele>
        <time>2020-02-01T13:08:31Z</time>
      </trkpt>
      <trkpt lat="42.3394510" lon="-2.4873300">
        <ele>546.4</ele>
        <time>2020-02-01T13:08:32Z</time>
      </trkpt>
      <trkpt lat="42.3394200" lon="-2.4873810">
        <ele>546.5</ele>
        <time>2020-02-01T13:08:33Z</time>
      </trkpt>
      <trkpt lat="42.3393930" lon="-2.4874220">
        <ele>546.6</ele>
        <time>2020-02-01T13:08:34Z</time>
      </trkpt>
      <trkpt lat="42.3393610" lon="-2.4874700">
        <ele>546.7</ele>
        <time>2020-02-01T13:08:35Z</time>
      </trkpt>
      <trkpt lat="42.3393290" lon="-2.4875130">
        <ele>546.7</ele>
        <time>2020-02-01T13:08:36Z</time>
      </trkpt>
      <trkpt lat="42.3393020" lon="-2.4875560">
        <ele>546.7</ele>
        <time>2020-02-01T13:08:37Z</time>
      </trkpt>
      <trkpt lat="42.3392700" lon="-2.4876040">
        <ele>546.8</ele>
        <time>2020-02-01T13:08:38Z</time>
      </trkpt>
      <trkpt lat="42.3392380" lon="-2.4876470">
        <ele>546.9</ele>
        <time>2020-02-01T13:08:39Z</time>
      </trkpt>
      <trkpt lat="42.3392060" lon="-2.4876900">
        <ele>546.9</ele>
        <time>2020-02-01T13:08:40Z</time>
      </trkpt>
      <trkpt lat="42.3391740" lon="-2.4877380">
        <ele>547.0</ele>
        <time>2020-02-01T13:08:41Z</time>
      </trkpt>
      <trkpt lat="42.3391410" lon="-2.4877810">
        <ele>547.0</ele>
        <time>2020-02-01T13:08:42Z</time>
      </trkpt>
      <trkpt lat="42.3391150" lon="-2.4878240">
        <ele>547.1</ele>
        <time>2020-02-01T13:08:43Z</time>
      </trkpt>
      <trkpt lat="42.3390820" lon="-2.4878720">
        <ele>547.1</ele>
        <time>2020-02-01T13:08:44Z</time>
      </trkpt>
      <trkpt lat="42.3390560" lon="-2.4879150">
        <ele>547.2</ele>
        <time>2020-02-01T13:08:45Z</time>
      </trkpt>
      <trkpt lat="42.3390230" lon="-2.4879580">
        <ele>547.3</ele>
        <time>2020-02-01T13:08:46Z</time>
      </trkpt>
      <trkpt lat="42.3391200" lon="-2.4880120">
        <ele>547.5</ele>
        <time>2020-02-01T13:08:47Z</time>
      </trkpt>
      <trkpt lat="42.3391150" lon="-2.4879580">
        <ele>547.5</ele>
        <time>2020-02-01T13:08:48Z</time>
      </trkpt>
      <trkpt lat="42.3390910" lon="-2.4879890">
        <ele>547.6</ele>
        <time>2020-02-01T13:08:49Z</time>
      </trkpt>
      <trkpt lat="42.3390640" lon="-2.4880480">
        <ele>547.6</ele>
        <time>2020-02-01T13:08:50Z</time>
      </trkpt>
      <trkpt lat="42.3390390" lon="-2.4880810">
        <ele>547.6</ele>
        <time>2020-02-01T13:08:51Z</time>
      </trkpt>
      <trkpt lat="42.3390070" lon="-2.4881390">
        <ele>547.7</ele>
        <time>2020-02-01T13:08:52Z</time>
      </trkpt>
      <trkpt lat="42.3389720" lon="-2.4881520">
        <ele>547.7</ele>
        <time>2020-02-01T13:08:53Z</time>
      </trkpt>
      <trkpt lat="42.3389540" lon="-2.4881990">
        <ele>547.7</ele>
        <time>2020-02-01T13:08:54Z</time>
      </trkpt>
      <trkpt lat="42.3389280" lon="-2.4882300">
        <ele>547.7</ele>
        <time>2020-02-01T13:08:55Z</time>
      </trkpt>
      <trkpt lat="42.3388920" lon="-2.4882850">
        <ele>547.8</ele>
        <time>2020-02-01T13:08:56Z</time>
      </trkpt>
      <trkpt lat="42.3388570" lon="-2.4883340">
        <ele>547.8</ele>
        <time>2020-02-01T13:08:57Z</time>
      </trkpt>
      <trkpt lat="42.3388400" lon="-2.4883700">
        <ele>547.8</ele>
        <time>2020-02-01T13:08:58Z</time>
      </trkpt>
      <trkpt lat="42.3388200" lon="-2.4884300">
        <ele>547.8</ele>
        <time>2020-02-01T13:08:59Z</time>
      </trkpt>
      <trkpt lat="42.3387960" lon="-2.4884830">
        <ele>547.8</ele>
        <time>2020-02-01T13:09:00Z</time>
      </trkpt>
      <trkpt lat="42.3387730" lon="-2.4885300">
        <ele>547.8</ele>
        <time>2020-02-01T13:09:01Z</time>
      </trkpt>
      <trkpt lat="42.3387530" lon="-2.4885700">
        <ele>547.8</ele>
        <time>2020-02-01T13:09:02Z</time>
      </trkpt>
      <trkpt lat="42.3387300" lon="-2.4886090">
        <ele>547.9</ele>
        <time>2020-02-01T13:09:03Z</time>
      </trkpt>
      <trkpt lat="42.3387070" lon="-2.4886610">
        <ele>547.9</ele>
        <time>2020-02-01T13:09:04Z</time>
      </trkpt>
      <trkpt lat="42.3386810" lon="-2.4886980">
        <ele>547.9</ele>
        <time>2020-02-01T13:09:05Z</time>
      </trkpt>
      <trkpt lat="42.3386610" lon="-2.4887400">
        <ele>548.0</ele>
        <time>2020-02-01T13:09:06Z</time>
      </trkpt>
      <trkpt lat="42.3386400" lon="-2.4887840">
        <ele>548.0</ele>
        <time>2020-02-01T13:09:07Z</time>
      </trkpt>
      <trkpt lat="42.3386190" lon="-2.4888280">
        <ele>548.1</ele>
        <time>2020-02-01T13:09:08Z</time>
      </trkpt>
      <trkpt lat="42.3386000" lon="-2.4888700">
        <ele>548.1</ele>
        <time>2020-02-01T13:09:09Z</time>
      </trkpt>
      <trkpt lat="42.3385780" lon="-2.4889180">
        <ele>548.2</ele>
        <time>2020-02-01T13:09:10Z</time>
      </trkpt>
      <trkpt lat="42.3385570" lon="-2.4889610">
        <ele>548.3</ele>
        <time>2020-02-01T13:09:11Z</time>
      </trkpt>
      <trkpt lat="42.3385410" lon="-2.4890040">
        <ele>548.3</ele>
        <time>2020-02-01T13:09:12Z</time>
      </trkpt>
      <trkpt lat="42.3385190" lon="-2.4890470">
        <ele>548.4</ele>
        <time>2020-02-01T13:09:13Z</time>
      </trkpt>
      <trkpt lat="42.3384980" lon="-2.4890950">
        <ele>548.4</ele>
        <time>2020-02-01T13:09:14Z</time>
      </trkpt>
      <trkpt lat="42.3384440" lon="-2.4892460">
        <ele>548.6</ele>
        <time>2020-02-01T13:09:15Z</time>
      </trkpt>
      <trkpt lat="42.3384200" lon="-2.4893050">
        <ele>548.6</ele>
        <time>2020-02-01T13:09:16Z</time>
      </trkpt>
      <trkpt lat="42.3383920" lon="-2.4893000">
        <ele>548.7</ele>
        <time>2020-02-01T13:09:18Z</time>
      </trkpt>
      <trkpt lat="42.3383720" lon="-2.4893390">
        <ele>548.7</ele>
        <time>2020-02-01T13:09:19Z</time>
      </trkpt>
      <trkpt lat="42.3383440" lon="-2.4893620">
        <ele>548.7</ele>
        <time>2020-02-01T13:09:20Z</time>
      </trkpt>
      <trkpt lat="42.3383430" lon="-2.4894250">
        <ele>548.7</ele>
        <time>2020-02-01T13:09:21Z</time>
      </trkpt>
      <trkpt lat="42.3383160" lon="-2.4894760">
        <ele>548.7</ele>
        <time>2020-02-01T13:09:22Z</time>
      </trkpt>
      <trkpt lat="42.3383000" lon="-2.4895250">
        <ele>548.7</ele>
        <time>2020-02-01T13:09:23Z</time>
      </trkpt>
      <trkpt lat="42.3382840" lon="-2.4895590">
        <ele>548.7</ele>
        <time>2020-02-01T13:09:24Z</time>
      </trkpt>
      <trkpt lat="42.3382650" lon="-2.4896060">
        <ele>548.7</ele>
        <time>2020-02-01T13:09:25Z</time>
      </trkpt>
      <trkpt lat="42.3382390" lon="-2.4896810">
        <ele>548.7</ele>
        <time>2020-02-01T13:09:26Z</time>
      </trkpt>
      <trkpt lat="42.3382240" lon="-2.4897150">
        <ele>548.7</ele>
        <time>2020-02-01T13:09:27Z</time>
      </trkpt>
      <trkpt lat="42.3382070" lon="-2.4897620">
        <ele>548.7</ele>
        <time>2020-02-01T13:09:28Z</time>
      </trkpt>
      <trkpt lat="42.3381950" lon="-2.4898240">
        <ele>548.7</ele>
        <time>2020-02-01T13:09:29Z</time>
      </trkpt>
      <trkpt lat="42.3381680" lon="-2.4898860">
        <ele>548.7</ele>
        <time>2020-02-01T13:09:31Z</time>
      </trkpt>
      <trkpt lat="42.3381500" lon="-2.4899380">
        <ele>548.7</ele>
        <time>2020-02-01T13:09:32Z</time>
      </trkpt>
      <trkpt lat="42.3381270" lon="-2.4899900">
        <ele>548.7</ele>
        <time>2020-02-01T13:09:33Z</time>
      </trkpt>
      <trkpt lat="42.3381160" lon="-2.4900460">
        <ele>548.7</ele>
        <time>2020-02-01T13:09:34Z</time>
      </trkpt>
      <trkpt lat="42.3381000" lon="-2.4900890">
        <ele>548.7</ele>
        <time>2020-02-01T13:09:35Z</time>
      </trkpt>
      <trkpt lat="42.3380850" lon="-2.4901410">
        <ele>548.7</ele>
        <time>2020-02-01T13:09:36Z</time>
      </trkpt>
      <trkpt lat="42.3380620" lon="-2.4901960">
        <ele>548.7</ele>
        <time>2020-02-01T13:09:37Z</time>
      </trkpt>
      <trkpt lat="42.3380420" lon="-2.4902540">
        <ele>548.7</ele>
        <time>2020-02-01T13:09:38Z</time>
      </trkpt>
      <trkpt lat="42.3380140" lon="-2.4903060">
        <ele>548.7</ele>
        <time>2020-02-01T13:09:39Z</time>
      </trkpt>
      <trkpt lat="42.3379920" lon="-2.4903680">
        <ele>548.7</ele>
        <time>2020-02-01T13:09:40Z</time>
      </trkpt>
      <trkpt lat="42.3379670" lon="-2.4904310">
        <ele>548.7</ele>
        <time>2020-02-01T13:09:41Z</time>
      </trkpt>
      <trkpt lat="42.3379410" lon="-2.4904970">
        <ele>548.7</ele>
        <time>2020-02-01T13:09:42Z</time>
      </trkpt>
      <trkpt lat="42.3379110" lon="-2.4905730">
        <ele>548.7</ele>
        <time>2020-02-01T13:09:43Z</time>
      </trkpt>
      <trkpt lat="42.3378860" lon="-2.4906390">
        <ele>548.7</ele>
        <time>2020-02-01T13:09:44Z</time>
      </trkpt>
      <trkpt lat="42.3378530" lon="-2.4907120">
        <ele>548.6</ele>
        <time>2020-02-01T13:09:45Z</time>
      </trkpt>
      <trkpt lat="42.3378260" lon="-2.4907800">
        <ele>548.5</ele>
        <time>2020-02-01T13:09:46Z</time>
      </trkpt>
      <trkpt lat="42.3377810" lon="-2.4908680">
        <ele>548.4</ele>
        <time>2020-02-01T13:09:47Z</time>
      </trkpt>
      <trkpt lat="42.3377520" lon="-2.4909420">
        <ele>548.3</ele>
        <time>2020-02-01T13:09:48Z</time>
      </trkpt>
      <trkpt lat="42.3377200" lon="-2.4910160">
        <ele>548.2</ele>
        <time>2020-02-01T13:09:49Z</time>
      </trkpt>
      <trkpt lat="42.3377030" lon="-2.4911020">
        <ele>548.0</ele>
        <time>2020-02-01T13:09:50Z</time>
      </trkpt>
      <trkpt lat="42.3376920" lon="-2.4911690">
        <ele>547.9</ele>
        <time>2020-02-01T13:09:51Z</time>
      </trkpt>
      <trkpt lat="42.3376610" lon="-2.4912570">
        <ele>547.7</ele>
        <time>2020-02-01T13:09:52Z</time>
      </trkpt>
      <trkpt lat="42.3376330" lon="-2.4913350">
        <ele>547.5</ele>
        <time>2020-02-01T13:09:53Z</time>
      </trkpt>
      <trkpt lat="42.3375980" lon="-2.4913770">
        <ele>547.3</ele>
        <time>2020-02-01T13:09:54Z</time>
      </trkpt>
      <trkpt lat="42.3375650" lon="-2.4914460">
        <ele>547.1</ele>
        <time>2020-02-01T13:09:55Z</time>
      </trkpt>
      <trkpt lat="42.3375250" lon="-2.4915660">
        <ele>546.9</ele>
        <time>2020-02-01T13:09:56Z</time>
      </trkpt>
      <trkpt lat="42.3374910" lon="-2.4916490">
        <ele>546.8</ele>
        <time>2020-02-01T13:09:57Z</time>
      </trkpt>
      <trkpt lat="42.3374500" lon="-2.4917340">
        <ele>546.7</ele>
        <time>2020-02-01T13:09:58Z</time>
      </trkpt>
      <trkpt lat="42.3374230" lon="-2.4918150">
        <ele>546.7</ele>
        <time>2020-02-01T13:09:59Z</time>
      </trkpt>
      <trkpt lat="42.3374030" lon="-2.4918820">
        <ele>546.6</ele>
        <time>2020-02-01T13:10:00Z</time>
      </trkpt>
      <trkpt lat="42.3373470" lon="-2.4919810">
        <ele>546.6</ele>
        <time>2020-02-01T13:10:01Z</time>
      </trkpt>
      <trkpt lat="42.3373100" lon="-2.4920660">
        <ele>546.6</ele>
        <time>2020-02-01T13:10:02Z</time>
      </trkpt>
      <trkpt lat="42.3372410" lon="-2.4921340">
        <ele>546.6</ele>
        <time>2020-02-01T13:10:03Z</time>
      </trkpt>
      <trkpt lat="42.3371990" lon="-2.4922170">
        <ele>546.6</ele>
        <time>2020-02-01T13:10:04Z</time>
      </trkpt>
      <trkpt lat="42.3371630" lon="-2.4922980">
        <ele>546.6</ele>
        <time>2020-02-01T13:10:05Z</time>
      </trkpt>
      <trkpt lat="42.3371130" lon="-2.4923780">
        <ele>546.6</ele>
        <time>2020-02-01T13:10:06Z</time>
      </trkpt>
      <trkpt lat="42.3370790" lon="-2.4924680">
        <ele>546.6</ele>
        <time>2020-02-01T13:10:07Z</time>
      </trkpt>
      <trkpt lat="42.3370520" lon="-2.4925400">
        <ele>546.6</ele>
        <time>2020-02-01T13:10:08Z</time>
      </trkpt>
      <trkpt lat="42.3370120" lon="-2.4926090">
        <ele>546.6</ele>
        <time>2020-02-01T13:10:09Z</time>
      </trkpt>
      <trkpt lat="42.3369860" lon="-2.4926780">
        <ele>546.6</ele>
        <time>2020-02-01T13:10:10Z</time>
      </trkpt>
      <trkpt lat="42.3369980" lon="-2.4927480">
        <ele>546.6</ele>
        <time>2020-02-01T13:10:11Z</time>
      </trkpt>
      <trkpt lat="42.3369870" lon="-2.4928190">
        <ele>546.5</ele>
        <time>2020-02-01T13:10:12Z</time>
      </trkpt>
      <trkpt lat="42.3370030" lon="-2.4929000">
        <ele>546.2</ele>
        <time>2020-02-01T13:10:13Z</time>
      </trkpt>
      <trkpt lat="42.3370460" lon="-2.4929640">
        <ele>545.8</ele>
        <time>2020-02-01T13:10:14Z</time>
      </trkpt>
      <trkpt lat="42.3370900" lon="-2.4930570">
        <ele>545.3</ele>
        <time>2020-02-01T13:10:15Z</time>
      </trkpt>
      <trkpt lat="42.3371390" lon="-2.4931230">
        <ele>544.9</ele>
        <time>2020-02-01T13:10:16Z</time>
      </trkpt>
      <trkpt lat="42.3371830" lon="-2.4932030">
        <ele>544.4</ele>
        <time>2020-02-01T13:10:17Z</time>
      </trkpt>
      <trkpt lat="42.3372420" lon="-2.4932870">
        <ele>543.9</ele>
        <time>2020-02-01T13:10:18Z</time>
      </trkpt>
      <trkpt lat="42.3372990" lon="-2.4933870">
        <ele>542.8</ele>
        <time>2020-02-01T13:10:19Z</time>
      </trkpt>
      <trkpt lat="42.3373500" lon="-2.4934890">
        <ele>542.0</ele>
        <time>2020-02-01T13:10:20Z</time>
      </trkpt>
      <trkpt lat="42.3373940" lon="-2.4936010">
        <ele>541.3</ele>
        <time>2020-02-01T13:10:21Z</time>
      </trkpt>
      <trkpt lat="42.3374390" lon="-2.4937290">
        <ele>540.6</ele>
        <time>2020-02-01T13:10:22Z</time>
      </trkpt>
      <trkpt lat="42.3374790" lon="-2.4938560">
        <ele>540.1</ele>
        <time>2020-02-01T13:10:23Z</time>
      </trkpt>
      <trkpt lat="42.3375170" lon="-2.4939830">
        <ele>539.6</ele>
        <time>2020-02-01T13:10:24Z</time>
      </trkpt>
      <trkpt lat="42.3375540" lon="-2.4940900">
        <ele>539.3</ele>
        <time>2020-02-01T13:10:25Z</time>
      </trkpt>
      <trkpt lat="42.3375950" lon="-2.4942270">
        <ele>538.9</ele>
        <time>2020-02-01T13:10:26Z</time>
      </trkpt>
      <trkpt lat="42.3376390" lon="-2.4943650">
        <ele>538.5</ele>
        <time>2020-02-01T13:10:27Z</time>
      </trkpt>
      <trkpt lat="42.3376620" lon="-2.4944910">
        <ele>538.3</ele>
        <time>2020-02-01T13:10:28Z</time>
      </trkpt>
      <trkpt lat="42.3376930" lon="-2.4946150">
        <ele>538.1</ele>
        <time>2020-02-01T13:10:29Z</time>
      </trkpt>
      <trkpt lat="42.3377210" lon="-2.4947160">
        <ele>537.9</ele>
        <time>2020-02-01T13:10:30Z</time>
      </trkpt>
      <trkpt lat="42.3377510" lon="-2.4948120">
        <ele>538.2</ele>
        <time>2020-02-01T13:10:31Z</time>
      </trkpt>
      <trkpt lat="42.3377810" lon="-2.4949260">
        <ele>538.4</ele>
        <time>2020-02-01T13:10:32Z</time>
      </trkpt>
      <trkpt lat="42.3378180" lon="-2.4950220">
        <ele>538.5</ele>
        <time>2020-02-01T13:10:33Z</time>
      </trkpt>
      <trkpt lat="42.3378580" lon="-2.4951220">
        <ele>538.7</ele>
        <time>2020-02-01T13:10:34Z</time>
      </trkpt>
      <trkpt lat="42.3378860" lon="-2.4952110">
        <ele>538.9</ele>
        <time>2020-02-01T13:10:35Z</time>
      </trkpt>
      <trkpt lat="42.3379160" lon="-2.4952880">
        <ele>539.0</ele>
        <time>2020-02-01T13:10:36Z</time>
      </trkpt>
      <trkpt lat="42.3379440" lon="-2.4953750">
        <ele>539.1</ele>
        <time>2020-02-01T13:10:37Z</time>
      </trkpt>
      <trkpt lat="42.3379720" lon="-2.4954650">
        <ele>539.3</ele>
        <time>2020-02-01T13:10:38Z</time>
      </trkpt>
      <trkpt lat="42.3379950" lon="-2.4955550">
        <ele>539.5</ele>
        <time>2020-02-01T13:10:39Z</time>
      </trkpt>
      <trkpt lat="42.3380240" lon="-2.4956390">
        <ele>539.7</ele>
        <time>2020-02-01T13:10:40Z</time>
      </trkpt>
      <trkpt lat="42.3380520" lon="-2.4957260">
        <ele>539.9</ele>
        <time>2020-02-01T13:10:41Z</time>
      </trkpt>
      <trkpt lat="42.3380780" lon="-2.4958030">
        <ele>540.1</ele>
        <time>2020-02-01T13:10:42Z</time>
      </trkpt>
      <trkpt lat="42.3381080" lon="-2.4958830">
        <ele>540.4</ele>
        <time>2020-02-01T13:10:43Z</time>
      </trkpt>
      <trkpt lat="42.3381290" lon="-2.4959620">
        <ele>540.6</ele>
        <time>2020-02-01T13:10:44Z</time>
      </trkpt>
      <trkpt lat="42.3381480" lon="-2.4960420">
        <ele>540.8</ele>
        <time>2020-02-01T13:10:45Z</time>
      </trkpt>
      <trkpt lat="42.3381700" lon="-2.4961100">
        <ele>541.0</ele>
        <time>2020-02-01T13:10:46Z</time>
      </trkpt>
      <trkpt lat="42.3381930" lon="-2.4961820">
        <ele>541.2</ele>
        <time>2020-02-01T13:10:47Z</time>
      </trkpt>
      <trkpt lat="42.3382170" lon="-2.4962550">
        <ele>541.4</ele>
        <time>2020-02-01T13:10:48Z</time>
      </trkpt>
      <trkpt lat="42.3382420" lon="-2.4963240">
        <ele>541.5</ele>
        <time>2020-02-01T13:10:49Z</time>
      </trkpt>
      <trkpt lat="42.3382670" lon="-2.4963980">
        <ele>541.6</ele>
        <time>2020-02-01T13:10:50Z</time>
      </trkpt>
      <trkpt lat="42.3382840" lon="-2.4964760">
        <ele>541.7</ele>
        <time>2020-02-01T13:10:51Z</time>
      </trkpt>
      <trkpt lat="42.3383060" lon="-2.4965580">
        <ele>541.7</ele>
        <time>2020-02-01T13:10:52Z</time>
      </trkpt>
      <trkpt lat="42.3383300" lon="-2.4966510">
        <ele>541.8</ele>
        <time>2020-02-01T13:10:53Z</time>
      </trkpt>
      <trkpt lat="42.3383560" lon="-2.4967360">
        <ele>541.8</ele>
        <time>2020-02-01T13:10:54Z</time>
      </trkpt>
      <trkpt lat="42.3383780" lon="-2.4968120">
        <ele>541.8</ele>
        <time>2020-02-01T13:10:55Z</time>
      </trkpt>
      <trkpt lat="42.3384030" lon="-2.4968660">
        <ele>541.8</ele>
        <time>2020-02-01T13:10:56Z</time>
      </trkpt>
      <trkpt lat="42.3384280" lon="-2.4969480">
        <ele>541.9</ele>
        <time>2020-02-01T13:10:57Z</time>
      </trkpt>
      <trkpt lat="42.3384510" lon="-2.4970150">
        <ele>542.0</ele>
        <time>2020-02-01T13:10:58Z</time>
      </trkpt>
      <trkpt lat="42.3384690" lon="-2.4970830">
        <ele>542.2</ele>
        <time>2020-02-01T13:10:59Z</time>
      </trkpt>
      <trkpt lat="42.3384970" lon="-2.4971480">
        <ele>542.3</ele>
        <time>2020-02-01T13:11:00Z</time>
      </trkpt>
      <trkpt lat="42.3385240" lon="-2.4972170">
        <ele>542.5</ele>
        <time>2020-02-01T13:11:01Z</time>
      </trkpt>
      <trkpt lat="42.3385520" lon="-2.4972720">
        <ele>542.6</ele>
        <time>2020-02-01T13:11:02Z</time>
      </trkpt>
      <trkpt lat="42.3385720" lon="-2.4973560">
        <ele>542.9</ele>
        <time>2020-02-01T13:11:03Z</time>
      </trkpt>
      <trkpt lat="42.3385870" lon="-2.4974260">
        <ele>543.0</ele>
        <time>2020-02-01T13:11:04Z</time>
      </trkpt>
      <trkpt lat="42.3386100" lon="-2.4974890">
        <ele>543.2</ele>
        <time>2020-02-01T13:11:05Z</time>
      </trkpt>
      <trkpt lat="42.3386320" lon="-2.4975540">
        <ele>543.4</ele>
        <time>2020-02-01T13:11:06Z</time>
      </trkpt>
      <trkpt lat="42.3386550" lon="-2.4976160">
        <ele>543.5</ele>
        <time>2020-02-01T13:11:07Z</time>
      </trkpt>
      <trkpt lat="42.3386810" lon="-2.4976580">
        <ele>543.7</ele>
        <time>2020-02-01T13:11:08Z</time>
      </trkpt>
      <trkpt lat="42.3387050" lon="-2.4977190">
        <ele>543.9</ele>
        <time>2020-02-01T13:11:09Z</time>
      </trkpt>
      <trkpt lat="42.3387280" lon="-2.4977790">
        <ele>544.1</ele>
        <time>2020-02-01T13:11:10Z</time>
      </trkpt>
      <trkpt lat="42.3387450" lon="-2.4978310">
        <ele>544.3</ele>
        <time>2020-02-01T13:11:11Z</time>
      </trkpt>
      <trkpt lat="42.3387640" lon="-2.4978850">
        <ele>544.5</ele>
        <time>2020-02-01T13:11:12Z</time>
      </trkpt>
      <trkpt lat="42.3387930" lon="-2.4979310">
        <ele>544.7</ele>
        <time>2020-02-01T13:11:13Z</time>
      </trkpt>
      <trkpt lat="42.3388110" lon="-2.4979880">
        <ele>544.9</ele>
        <time>2020-02-01T13:11:14Z</time>
      </trkpt>
      <trkpt lat="42.3388320" lon="-2.4980420">
        <ele>545.1</ele>
        <time>2020-02-01T13:11:15Z</time>
      </trkpt>
      <trkpt lat="42.3388530" lon="-2.4980930">
        <ele>545.2</ele>
        <time>2020-02-01T13:11:16Z</time>
      </trkpt>
      <trkpt lat="42.3388820" lon="-2.4981440">
        <ele>545.4</ele>
        <time>2020-02-01T13:11:17Z</time>
      </trkpt>
      <trkpt lat="42.3388960" lon="-2.4981920">
        <ele>545.6</ele>
        <time>2020-02-01T13:11:18Z</time>
      </trkpt>
      <trkpt lat="42.3389110" lon="-2.4982530">
        <ele>545.8</ele>
        <time>2020-02-01T13:11:19Z</time>
      </trkpt>
      <trkpt lat="42.3389290" lon="-2.4983070">
        <ele>546.0</ele>
        <time>2020-02-01T13:11:20Z</time>
      </trkpt>
      <trkpt lat="42.3389490" lon="-2.4983540">
        <ele>546.1</ele>
        <time>2020-02-01T13:11:21Z</time>
      </trkpt>
      <trkpt lat="42.3389730" lon="-2.4984030">
        <ele>546.3</ele>
        <time>2020-02-01T13:11:22Z</time>
      </trkpt>
      <trkpt lat="42.3389990" lon="-2.4984380">
        <ele>546.5</ele>
        <time>2020-02-01T13:11:23Z</time>
      </trkpt>
      <trkpt lat="42.3390230" lon="-2.4984880">
        <ele>546.6</ele>
        <time>2020-02-01T13:11:24Z</time>
      </trkpt>
      <trkpt lat="42.3390380" lon="-2.4985360">
        <ele>546.8</ele>
        <time>2020-02-01T13:11:25Z</time>
      </trkpt>
      <trkpt lat="42.3390610" lon="-2.4985850">
        <ele>547.0</ele>
        <time>2020-02-01T13:11:26Z</time>
      </trkpt>
      <trkpt lat="42.3390880" lon="-2.4986340">
        <ele>547.2</ele>
        <time>2020-02-01T13:11:27Z</time>
      </trkpt>
      <trkpt lat="42.3391130" lon="-2.4986820">
        <ele>547.4</ele>
        <time>2020-02-01T13:11:28Z</time>
      </trkpt>
      <trkpt lat="42.3391360" lon="-2.4987300">
        <ele>547.6</ele>
        <time>2020-02-01T13:11:29Z</time>
      </trkpt>
      <trkpt lat="42.3391570" lon="-2.4987720">
        <ele>547.8</ele>
        <time>2020-02-01T13:11:30Z</time>
      </trkpt>
      <trkpt lat="42.3391800" lon="-2.4988200">
        <ele>548.0</ele>
        <time>2020-02-01T13:11:31Z</time>
      </trkpt>
      <trkpt lat="42.3392040" lon="-2.4988630">
        <ele>548.1</ele>
        <time>2020-02-01T13:11:32Z</time>
      </trkpt>
      <trkpt lat="42.3392260" lon="-2.4989050">
        <ele>548.3</ele>
        <time>2020-02-01T13:11:33Z</time>
      </trkpt>
      <trkpt lat="42.3392480" lon="-2.4989490">
        <ele>548.9</ele>
        <time>2020-02-01T13:11:34Z</time>
      </trkpt>
      <trkpt lat="42.3392660" lon="-2.4990060">
        <ele>549.1</ele>
        <time>2020-02-01T13:11:35Z</time>
      </trkpt>
      <trkpt lat="42.3392900" lon="-2.4990530">
        <ele>549.2</ele>
        <time>2020-02-01T13:11:36Z</time>
      </trkpt>
      <trkpt lat="42.3393130" lon="-2.4990840">
        <ele>549.3</ele>
        <time>2020-02-01T13:11:37Z</time>
      </trkpt>
      <trkpt lat="42.3393340" lon="-2.4991220">
        <ele>549.4</ele>
        <time>2020-02-01T13:11:38Z</time>
      </trkpt>
      <trkpt lat="42.3393560" lon="-2.4991640">
        <ele>549.5</ele>
        <time>2020-02-01T13:11:39Z</time>
      </trkpt>
      <trkpt lat="42.3393810" lon="-2.4991900">
        <ele>549.6</ele>
        <time>2020-02-01T13:11:40Z</time>
      </trkpt>
      <trkpt lat="42.3394010" lon="-2.4992310">
        <ele>549.7</ele>
        <time>2020-02-01T13:11:41Z</time>
      </trkpt>
      <trkpt lat="42.3394210" lon="-2.4992670">
        <ele>549.8</ele>
        <time>2020-02-01T13:11:42Z</time>
      </trkpt>
      <trkpt lat="42.3394380" lon="-2.4993040">
        <ele>549.9</ele>
        <time>2020-02-01T13:11:43Z</time>
      </trkpt>
      <trkpt lat="42.3394610" lon="-2.4993470">
        <ele>550.1</ele>
        <time>2020-02-01T13:11:44Z</time>
      </trkpt>
      <trkpt lat="42.3394780" lon="-2.4993870">
        <ele>550.3</ele>
        <time>2020-02-01T13:11:45Z</time>
      </trkpt>
      <trkpt lat="42.3394990" lon="-2.4994320">
        <ele>550.5</ele>
        <time>2020-02-01T13:11:46Z</time>
      </trkpt>
      <trkpt lat="42.3395160" lon="-2.4994720">
        <ele>550.7</ele>
        <time>2020-02-01T13:11:47Z</time>
      </trkpt>
      <trkpt lat="42.3395320" lon="-2.4995090">
        <ele>550.9</ele>
        <time>2020-02-01T13:11:48Z</time>
      </trkpt>
      <trkpt lat="42.3395530" lon="-2.4995420">
        <ele>551.1</ele>
        <time>2020-02-01T13:11:49Z</time>
      </trkpt>
      <trkpt lat="42.3395700" lon="-2.4995790">
        <ele>551.3</ele>
        <time>2020-02-01T13:11:50Z</time>
      </trkpt>
      <trkpt lat="42.3395860" lon="-2.4996150">
        <ele>551.4</ele>
        <time>2020-02-01T13:11:51Z</time>
      </trkpt>
      <trkpt lat="42.3396040" lon="-2.4996500">
        <ele>551.6</ele>
        <time>2020-02-01T13:11:52Z</time>
      </trkpt>
      <trkpt lat="42.3396250" lon="-2.4996770">
        <ele>551.7</ele>
        <time>2020-02-01T13:11:53Z</time>
      </trkpt>
      <trkpt lat="42.3396410" lon="-2.4997140">
        <ele>551.9</ele>
        <time>2020-02-01T13:11:54Z</time>
      </trkpt>
      <trkpt lat="42.3396580" lon="-2.4997470">
        <ele>552.1</ele>
        <time>2020-02-01T13:11:55Z</time>
      </trkpt>
      <trkpt lat="42.3396840" lon="-2.4998080">
        <ele>552.4</ele>
        <time>2020-02-01T13:11:57Z</time>
      </trkpt>
      <trkpt lat="42.3397010" lon="-2.4998400">
        <ele>552.5</ele>
        <time>2020-02-01T13:11:58Z</time>
      </trkpt>
      <trkpt lat="42.3397140" lon="-2.4998750">
        <ele>552.7</ele>
        <time>2020-02-01T13:11:59Z</time>
      </trkpt>
      <trkpt lat="42.3397400" lon="-2.4999410">
        <ele>553.0</ele>
        <time>2020-02-01T13:12:01Z</time>
      </trkpt>
      <trkpt lat="42.3397510" lon="-2.4999740">
        <ele>553.1</ele>
        <time>2020-02-01T13:12:02Z</time>
      </trkpt>
      <trkpt lat="42.3397630" lon="-2.5000080">
        <ele>553.3</ele>
        <time>2020-02-01T13:12:03Z</time>
      </trkpt>
      <trkpt lat="42.3397740" lon="-2.5000420">
        <ele>553.5</ele>
        <time>2020-02-01T13:12:04Z</time>
      </trkpt>
      <trkpt lat="42.3397820" lon="-2.5000830">
        <ele>553.8</ele>
        <time>2020-02-01T13:12:05Z</time>
      </trkpt>
      <trkpt lat="42.3397930" lon="-2.5001190">
        <ele>554.0</ele>
        <time>2020-02-01T13:12:06Z</time>
      </trkpt>
      <trkpt lat="42.3398070" lon="-2.5001560">
        <ele>554.2</ele>
        <time>2020-02-01T13:12:07Z</time>
      </trkpt>
      <trkpt lat="42.3398210" lon="-2.5001900">
        <ele>554.4</ele>
        <time>2020-02-01T13:12:08Z</time>
      </trkpt>
      <trkpt lat="42.3398330" lon="-2.5002240">
        <ele>554.6</ele>
        <time>2020-02-01T13:12:09Z</time>
      </trkpt>
      <trkpt lat="42.3398470" lon="-2.5002580">
        <ele>554.8</ele>
        <time>2020-02-01T13:12:10Z</time>
      </trkpt>
      <trkpt lat="42.3398590" lon="-2.5002990">
        <ele>554.9</ele>
        <time>2020-02-01T13:12:11Z</time>
      </trkpt>
      <trkpt lat="42.3398710" lon="-2.5003620">
        <ele>555.1</ele>
        <time>2020-02-01T13:12:13Z</time>
      </trkpt>
      <trkpt lat="42.3398780" lon="-2.5003980">
        <ele>555.2</ele>
        <time>2020-02-01T13:12:14Z</time>
      </trkpt>
      <trkpt lat="42.3398850" lon="-2.5004630">
        <ele>555.5</ele>
        <time>2020-02-01T13:12:16Z</time>
      </trkpt>
      <trkpt lat="42.3398920" lon="-2.5005020">
        <ele>555.6</ele>
        <time>2020-02-01T13:12:17Z</time>
      </trkpt>
      <trkpt lat="42.3398970" lon="-2.5005720">
        <ele>555.8</ele>
        <time>2020-02-01T13:12:19Z</time>
      </trkpt>
      <trkpt lat="42.3399020" lon="-2.5006160">
        <ele>555.9</ele>
        <time>2020-02-01T13:12:20Z</time>
      </trkpt>
      <trkpt lat="42.3399110" lon="-2.5006610">
        <ele>556.0</ele>
        <time>2020-02-01T13:12:21Z</time>
      </trkpt>
      <trkpt lat="42.3399260" lon="-2.5007300">
        <ele>556.2</ele>
        <time>2020-02-01T13:12:23Z</time>
      </trkpt>
      <trkpt lat="42.3399300" lon="-2.5007680">
        <ele>556.3</ele>
        <time>2020-02-01T13:12:24Z</time>
      </trkpt>
      <trkpt lat="42.3399350" lon="-2.5008150">
        <ele>556.4</ele>
        <time>2020-02-01T13:12:25Z</time>
      </trkpt>
      <trkpt lat="42.3399440" lon="-2.5008510">
        <ele>556.4</ele>
        <time>2020-02-01T13:12:26Z</time>
      </trkpt>
      <trkpt lat="42.3399550" lon="-2.5008950">
        <ele>556.5</ele>
        <time>2020-02-01T13:12:27Z</time>
      </trkpt>
      <trkpt lat="42.3399650" lon="-2.5009360">
        <ele>556.6</ele>
        <time>2020-02-01T13:12:28Z</time>
      </trkpt>
      <trkpt lat="42.3399740" lon="-2.5009780">
        <ele>556.7</ele>
        <time>2020-02-01T13:12:29Z</time>
      </trkpt>
      <trkpt lat="42.3399800" lon="-2.5010210">
        <ele>556.7</ele>
        <time>2020-02-01T13:12:30Z</time>
      </trkpt>
      <trkpt lat="42.3399860" lon="-2.5010610">
        <ele>556.8</ele>
        <time>2020-02-01T13:12:31Z</time>
      </trkpt>
      <trkpt lat="42.3399970" lon="-2.5011030">
        <ele>556.8</ele>
        <time>2020-02-01T13:12:32Z</time>
      </trkpt>
      <trkpt lat="42.3400030" lon="-2.5011480">
        <ele>556.8</ele>
        <time>2020-02-01T13:12:33Z</time>
      </trkpt>
      <trkpt lat="42.3400130" lon="-2.5011830">
        <ele>556.9</ele>
        <time>2020-02-01T13:12:34Z</time>
      </trkpt>
      <trkpt lat="42.3400210" lon="-2.5012310">
        <ele>556.9</ele>
        <time>2020-02-01T13:12:35Z</time>
      </trkpt>
      <trkpt lat="42.3400260" lon="-2.5012750">
        <ele>557.0</ele>
        <time>2020-02-01T13:12:36Z</time>
      </trkpt>
      <trkpt lat="42.3400290" lon="-2.5013170">
        <ele>557.0</ele>
        <time>2020-02-01T13:12:37Z</time>
      </trkpt>
      <trkpt lat="42.3400380" lon="-2.5013620">
        <ele>557.0</ele>
        <time>2020-02-01T13:12:38Z</time>
      </trkpt>
      <trkpt lat="42.3400510" lon="-2.5014090">
        <ele>557.2</ele>
        <time>2020-02-01T13:12:39Z</time>
      </trkpt>
      <trkpt lat="42.3400690" lon="-2.5014510">
        <ele>557.4</ele>
        <time>2020-02-01T13:12:40Z</time>
      </trkpt>
      <trkpt lat="42.3400840" lon="-2.5015080">
        <ele>557.6</ele>
        <time>2020-02-01T13:12:41Z</time>
      </trkpt>
      <trkpt lat="42.3401020" lon="-2.5015630">
        <ele>557.9</ele>
        <time>2020-02-01T13:12:42Z</time>
      </trkpt>
      <trkpt lat="42.3401320" lon="-2.5016170">
        <ele>558.0</ele>
        <time>2020-02-01T13:12:43Z</time>
      </trkpt>
      <trkpt lat="42.3401610" lon="-2.5016730">
        <ele>558.2</ele>
        <time>2020-02-01T13:12:44Z</time>
      </trkpt>
      <trkpt lat="42.3402000" lon="-2.5017230">
        <ele>558.3</ele>
        <time>2020-02-01T13:12:45Z</time>
      </trkpt>
      <trkpt lat="42.3402490" lon="-2.5017670">
        <ele>558.5</ele>
        <time>2020-02-01T13:12:46Z</time>
      </trkpt>
      <trkpt lat="42.3403010" lon="-2.5017980">
        <ele>558.5</ele>
        <time>2020-02-01T13:12:47Z</time>
      </trkpt>
      <trkpt lat="42.3403570" lon="-2.5018430">
        <ele>558.6</ele>
        <time>2020-02-01T13:12:48Z</time>
      </trkpt>
      <trkpt lat="42.3404120" lon="-2.5018710">
        <ele>558.7</ele>
        <time>2020-02-01T13:12:49Z</time>
      </trkpt>
      <trkpt lat="42.3404730" lon="-2.5018990">
        <ele>558.8</ele>
        <time>2020-02-01T13:12:50Z</time>
      </trkpt>
      <trkpt lat="42.3405280" lon="-2.5019430">
        <ele>558.9</ele>
        <time>2020-02-01T13:12:51Z</time>
      </trkpt>
      <trkpt lat="42.3405840" lon="-2.5019690">
        <ele>558.8</ele>
        <time>2020-02-01T13:12:52Z</time>
      </trkpt>
      <trkpt lat="42.3406600" lon="-2.5019580">
        <ele>558.8</ele>
        <time>2020-02-01T13:12:53Z</time>
      </trkpt>
      <trkpt lat="42.3407230" lon="-2.5019310">
        <ele>558.8</ele>
        <time>2020-02-01T13:12:54Z</time>
      </trkpt>
      <trkpt lat="42.3407930" lon="-2.5019030">
        <ele>558.7</ele>
        <time>2020-02-01T13:12:55Z</time>
      </trkpt>
      <trkpt lat="42.3408630" lon="-2.5018850">
        <ele>558.5</ele>
        <time>2020-02-01T13:12:56Z</time>
      </trkpt>
      <trkpt lat="42.3409110" lon="-2.5018640">
        <ele>558.4</ele>
        <time>2020-02-01T13:12:57Z</time>
      </trkpt>
      <trkpt lat="42.3409760" lon="-2.5018400">
        <ele>558.3</ele>
        <time>2020-02-01T13:12:58Z</time>
      </trkpt>
      <trkpt lat="42.3410340" lon="-2.5018190">
        <ele>558.1</ele>
        <time>2020-02-01T13:12:59Z</time>
      </trkpt>
      <trkpt lat="42.3411440" lon="-2.5018060">
        <ele>558.0</ele>
        <time>2020-02-01T13:13:00Z</time>
      </trkpt>
      <trkpt lat="42.3412020" lon="-2.5017850">
        <ele>557.9</ele>
        <time>2020-02-01T13:13:01Z</time>
      </trkpt>
      <trkpt lat="42.3412560" lon="-2.5017750">
        <ele>557.9</ele>
        <time>2020-02-01T13:13:02Z</time>
      </trkpt>
      <trkpt lat="42.3413250" lon="-2.5017540">
        <ele>557.9</ele>
        <time>2020-02-01T13:13:03Z</time>
      </trkpt>
      <trkpt lat="42.3414070" lon="-2.5017380">
        <ele>557.8</ele>
        <time>2020-02-01T13:13:04Z</time>
      </trkpt>
      <trkpt lat="42.3414720" lon="-2.5017140">
        <ele>557.8</ele>
        <time>2020-02-01T13:13:05Z</time>
      </trkpt>
      <trkpt lat="42.3415530" lon="-2.5017050">
        <ele>557.8</ele>
        <time>2020-02-01T13:13:06Z</time>
      </trkpt>
      <trkpt lat="42.3416180" lon="-2.5016690">
        <ele>557.7</ele>
        <time>2020-02-01T13:13:07Z</time>
      </trkpt>
      <trkpt lat="42.3416790" lon="-2.5016640">
        <ele>557.6</ele>
        <time>2020-02-01T13:13:08Z</time>
      </trkpt>
      <trkpt lat="42.3417260" lon="-2.5016480">
        <ele>557.6</ele>
        <time>2020-02-01T13:13:09Z</time>
      </trkpt>
      <trkpt lat="42.3417800" lon="-2.5016300">
        <ele>557.4</ele>
        <time>2020-02-01T13:13:10Z</time>
      </trkpt>
      <trkpt lat="42.3418420" lon="-2.5016140">
        <ele>557.3</ele>
        <time>2020-02-01T13:13:11Z</time>
      </trkpt>
      <trkpt lat="42.3419050" lon="-2.5015830">
        <ele>557.1</ele>
        <time>2020-02-01T13:13:12Z</time>
      </trkpt>
      <trkpt lat="42.3419690" lon="-2.5015540">
        <ele>556.9</ele>
        <time>2020-02-01T13:13:13Z</time>
      </trkpt>
      <trkpt lat="42.3420380" lon="-2.5015310">
        <ele>556.7</ele>
        <time>2020-02-01T13:13:14Z</time>
      </trkpt>
      <trkpt lat="42.3421090" lon="-2.5015070">
        <ele>556.5</ele>
        <time>2020-02-01T13:13:15Z</time>
      </trkpt>
      <trkpt lat="42.3421760" lon="-2.5014800">
        <ele>556.3</ele>
        <time>2020-02-01T13:13:16Z</time>
      </trkpt>
      <trkpt lat="42.3422400" lon="-2.5014710">
        <ele>556.1</ele>
        <time>2020-02-01T13:13:17Z</time>
      </trkpt>
      <trkpt lat="42.3423170" lon="-2.5014530">
        <ele>555.9</ele>
        <time>2020-02-01T13:13:18Z</time>
      </trkpt>
      <trkpt lat="42.3423890" lon="-2.5014320">
        <ele>555.7</ele>
        <time>2020-02-01T13:13:19Z</time>
      </trkpt>
      <trkpt lat="42.3424900" lon="-2.5013530">
        <ele>555.3</ele>
        <time>2020-02-01T13:13:20Z</time>
      </trkpt>
      <trkpt lat="42.3425700" lon="-2.5013200">
        <ele>555.0</ele>
        <time>2020-02-01T13:13:21Z</time>
      </trkpt>
      <trkpt lat="42.3426460" lon="-2.5012920">
        <ele>554.7</ele>
        <time>2020-02-01T13:13:22Z</time>
      </trkpt>
      <trkpt lat="42.3427320" lon="-2.5012410">
        <ele>554.4</ele>
        <time>2020-02-01T13:13:23Z</time>
      </trkpt>
      <trkpt lat="42.3428330" lon="-2.5011830">
        <ele>554.0</ele>
        <time>2020-02-01T13:13:24Z</time>
      </trkpt>
      <trkpt lat="42.3429120" lon="-2.5011420">
        <ele>553.8</ele>
        <time>2020-02-01T13:13:25Z</time>
      </trkpt>
      <trkpt lat="42.3429210" lon="-2.5010590">
        <ele>553.6</ele>
        <time>2020-02-01T13:13:26Z</time>
      </trkpt>
      <trkpt lat="42.3430080" lon="-2.5010080">
        <ele>553.3</ele>
        <time>2020-02-01T13:13:27Z</time>
      </trkpt>
      <trkpt lat="42.3430980" lon="-2.5009700">
        <ele>552.9</ele>
        <time>2020-02-01T13:13:28Z</time>
      </trkpt>
      <trkpt lat="42.3431820" lon="-2.5009320">
        <ele>552.6</ele>
        <time>2020-02-01T13:13:29Z</time>
      </trkpt>
      <trkpt lat="42.3432880" lon="-2.5009040">
        <ele>552.2</ele>
        <time>2020-02-01T13:13:30Z</time>
      </trkpt>
      <trkpt lat="42.3433770" lon="-2.5008790">
        <ele>551.9</ele>
        <time>2020-02-01T13:13:31Z</time>
      </trkpt>
      <trkpt lat="42.3434520" lon="-2.5008210">
        <ele>551.7</ele>
        <time>2020-02-01T13:13:32Z</time>
      </trkpt>
      <trkpt lat="42.3435510" lon="-2.5007830">
        <ele>551.4</ele>
        <time>2020-02-01T13:13:33Z</time>
      </trkpt>
      <trkpt lat="42.3436390" lon="-2.5007270">
        <ele>551.2</ele>
        <time>2020-02-01T13:13:34Z</time>
      </trkpt>
      <trkpt lat="42.3437160" lon="-2.5006750">
        <ele>551.0</ele>
        <time>2020-02-01T13:13:35Z</time>
      </trkpt>
      <trkpt lat="42.3438280" lon="-2.5006430">
        <ele>550.8</ele>
        <time>2020-02-01T13:13:36Z</time>
      </trkpt>
      <trkpt lat="42.3439230" lon="-2.5006000">
        <ele>550.7</ele>
        <time>2020-02-01T13:13:37Z</time>
      </trkpt>
      <trkpt lat="42.3439730" lon="-2.5005520">
        <ele>550.6</ele>
        <time>2020-02-01T13:13:38Z</time>
      </trkpt>
      <trkpt lat="42.3440500" lon="-2.5005080">
        <ele>550.5</ele>
        <time>2020-02-01T13:13:39Z</time>
      </trkpt>
      <trkpt lat="42.3441270" lon="-2.5004550">
        <ele>550.3</ele>
        <time>2020-02-01T13:13:40Z</time>
      </trkpt>
      <trkpt lat="42.3442060" lon="-2.5004090">
        <ele>550.1</ele>
        <time>2020-02-01T13:13:41Z</time>
      </trkpt>
      <trkpt lat="42.3442890" lon="-2.5003570">
        <ele>549.9</ele>
        <time>2020-02-01T13:13:42Z</time>
      </trkpt>
      <trkpt lat="42.3443410" lon="-2.5003270">
        <ele>549.8</ele>
        <time>2020-02-01T13:13:43Z</time>
      </trkpt>
      <trkpt lat="42.3444540" lon="-2.5003030">
        <ele>549.6</ele>
        <time>2020-02-01T13:13:44Z</time>
      </trkpt>
      <trkpt lat="42.3445340" lon="-2.5002540">
        <ele>549.4</ele>
        <time>2020-02-01T13:13:45Z</time>
      </trkpt>
      <trkpt lat="42.3446030" lon="-2.5002150">
        <ele>549.2</ele>
        <time>2020-02-01T13:13:46Z</time>
      </trkpt>
      <trkpt lat="42.3446740" lon="-2.5001660">
        <ele>549.0</ele>
        <time>2020-02-01T13:13:47Z</time>
      </trkpt>
      <trkpt lat="42.3447500" lon="-2.5001260">
        <ele>548.8</ele>
        <time>2020-02-01T13:13:48Z</time>
      </trkpt>
      <trkpt lat="42.3448070" lon="-2.5000910">
        <ele>548.7</ele>
        <time>2020-02-01T13:13:49Z</time>
      </trkpt>
      <trkpt lat="42.3449050" lon="-2.5000670">
        <ele>548.5</ele>
        <time>2020-02-01T13:13:50Z</time>
      </trkpt>
      <trkpt lat="42.3449750" lon="-2.5000370">
        <ele>548.3</ele>
        <time>2020-02-01T13:13:51Z</time>
      </trkpt>
      <trkpt lat="42.3450050" lon="-2.4999900">
        <ele>548.2</ele>
        <time>2020-02-01T13:13:52Z</time>
      </trkpt>
      <trkpt lat="42.3450720" lon="-2.4999520">
        <ele>548.0</ele>
        <time>2020-02-01T13:13:53Z</time>
      </trkpt>
      <trkpt lat="42.3451350" lon="-2.4999170">
        <ele>547.9</ele>
        <time>2020-02-01T13:13:54Z</time>
      </trkpt>
      <trkpt lat="42.3452200" lon="-2.4998880">
        <ele>547.7</ele>
        <time>2020-02-01T13:13:55Z</time>
      </trkpt>
      <trkpt lat="42.3452670" lon="-2.4998570">
        <ele>547.6</ele>
        <time>2020-02-01T13:13:56Z</time>
      </trkpt>
      <trkpt lat="42.3453430" lon="-2.4998300">
        <ele>547.4</ele>
        <time>2020-02-01T13:13:57Z</time>
      </trkpt>
      <trkpt lat="42.3454070" lon="-2.4997920">
        <ele>547.2</ele>
        <time>2020-02-01T13:13:58Z</time>
      </trkpt>
      <trkpt lat="42.3454600" lon="-2.4997350">
        <ele>547.0</ele>
        <time>2020-02-01T13:13:59Z</time>
      </trkpt>
      <trkpt lat="42.3455270" lon="-2.4997030">
        <ele>546.9</ele>
        <time>2020-02-01T13:14:00Z</time>
      </trkpt>
      <trkpt lat="42.3456000" lon="-2.4996630">
        <ele>546.7</ele>
        <time>2020-02-01T13:14:01Z</time>
      </trkpt>
      <trkpt lat="42.3456850" lon="-2.4996210">
        <ele>546.5</ele>
        <time>2020-02-01T13:14:02Z</time>
      </trkpt>
      <trkpt lat="42.3457730" lon="-2.4995850">
        <ele>546.3</ele>
        <time>2020-02-01T13:14:03Z</time>
      </trkpt>
      <trkpt lat="42.3458260" lon="-2.4995440">
        <ele>546.1</ele>
        <time>2020-02-01T13:14:04Z</time>
      </trkpt>
      <trkpt lat="42.3459080" lon="-2.4995080">
        <ele>545.9</ele>
        <time>2020-02-01T13:14:05Z</time>
      </trkpt>
      <trkpt lat="42.3459660" lon="-2.4994730">
        <ele>545.8</ele>
        <time>2020-02-01T13:14:06Z</time>
      </trkpt>
      <trkpt lat="42.3460440" lon="-2.4994360">
        <ele>545.5</ele>
        <time>2020-02-01T13:14:07Z</time>
      </trkpt>
      <trkpt lat="42.3461190" lon="-2.4993960">
        <ele>545.3</ele>
        <time>2020-02-01T13:14:08Z</time>
      </trkpt>
      <trkpt lat="42.3461910" lon="-2.4993510">
        <ele>545.1</ele>
        <time>2020-02-01T13:14:09Z</time>
      </trkpt>
      <trkpt lat="42.3462830" lon="-2.4993260">
        <ele>544.7</ele>
        <time>2020-02-01T13:14:10Z</time>
      </trkpt>
      <trkpt lat="42.3463570" lon="-2.4992850">
        <ele>544.5</ele>
        <time>2020-02-01T13:14:11Z</time>
      </trkpt>
      <trkpt lat="42.3464340" lon="-2.4992580">
        <ele>544.3</ele>
        <time>2020-02-01T13:14:12Z</time>
      </trkpt>
      <trkpt lat="42.3465060" lon="-2.4992130">
        <ele>544.1</ele>
        <time>2020-02-01T13:14:13Z</time>
      </trkpt>
      <trkpt lat="42.3465810" lon="-2.4991740">
        <ele>544.0</ele>
        <time>2020-02-01T13:14:14Z</time>
      </trkpt>
      <trkpt lat="42.3466240" lon="-2.4991050">
        <ele>543.9</ele>
        <time>2020-02-01T13:14:15Z</time>
      </trkpt>
      <trkpt lat="42.3467080" lon="-2.4990740">
        <ele>543.9</ele>
        <time>2020-02-01T13:14:16Z</time>
      </trkpt>
      <trkpt lat="42.3467750" lon="-2.4990520">
        <ele>543.9</ele>
        <time>2020-02-01T13:14:17Z</time>
      </trkpt>
      <trkpt lat="42.3468520" lon="-2.4990040">
        <ele>543.8</ele>
        <time>2020-02-01T13:14:18Z</time>
      </trkpt>
      <trkpt lat="42.3469240" lon="-2.4989630">
        <ele>543.8</ele>
        <time>2020-02-01T13:14:19Z</time>
      </trkpt>
      <trkpt lat="42.3469990" lon="-2.4989230">
        <ele>543.6</ele>
        <time>2020-02-01T13:14:20Z</time>
      </trkpt>
      <trkpt lat="42.3470610" lon="-2.4988970">
        <ele>543.5</ele>
        <time>2020-02-01T13:14:21Z</time>
      </trkpt>
      <trkpt lat="42.3471330" lon="-2.4988630">
        <ele>543.3</ele>
        <time>2020-02-01T13:14:22Z</time>
      </trkpt>
      <trkpt lat="42.3472170" lon="-2.4988230">
        <ele>543.2</ele>
        <time>2020-02-01T13:14:23Z</time>
      </trkpt>
      <trkpt lat="42.3472900" lon="-2.4987830">
        <ele>543.0</ele>
        <time>2020-02-01T13:14:24Z</time>
      </trkpt>
      <trkpt lat="42.3473690" lon="-2.4987420">
        <ele>542.9</ele>
        <time>2020-02-01T13:14:25Z</time>
      </trkpt>
      <trkpt lat="42.3474350" lon="-2.4987150">
        <ele>542.9</ele>
        <time>2020-02-01T13:14:26Z</time>
      </trkpt>
      <trkpt lat="42.3475030" lon="-2.4986750">
        <ele>542.8</ele>
        <time>2020-02-01T13:14:27Z</time>
      </trkpt>
      <trkpt lat="42.3475850" lon="-2.4986400">
        <ele>542.6</ele>
        <time>2020-02-01T13:14:28Z</time>
      </trkpt>
      <trkpt lat="42.3476560" lon="-2.4985950">
        <ele>542.4</ele>
        <time>2020-02-01T13:14:29Z</time>
      </trkpt>
      <trkpt lat="42.3477300" lon="-2.4985580">
        <ele>542.2</ele>
        <time>2020-02-01T13:14:30Z</time>
      </trkpt>
      <trkpt lat="42.3478020" lon="-2.4985070">
        <ele>542.1</ele>
        <time>2020-02-01T13:14:31Z</time>
      </trkpt>
      <trkpt lat="42.3478750" lon="-2.4984660">
        <ele>541.9</ele>
        <time>2020-02-01T13:14:32Z</time>
      </trkpt>
      <trkpt lat="42.3479710" lon="-2.4984350">
        <ele>541.7</ele>
        <time>2020-02-01T13:14:33Z</time>
      </trkpt>
      <trkpt lat="42.3480650" lon="-2.4983950">
        <ele>541.4</ele>
        <time>2020-02-01T13:14:34Z</time>
      </trkpt>
      <trkpt lat="42.3481390" lon="-2.4983490">
        <ele>541.3</ele>
        <time>2020-02-01T13:14:35Z</time>
      </trkpt>
      <trkpt lat="42.3482130" lon="-2.4983090">
        <ele>541.1</ele>
        <time>2020-02-01T13:14:36Z</time>
      </trkpt>
      <trkpt lat="42.3482860" lon="-2.4982650">
        <ele>541.0</ele>
        <time>2020-02-01T13:14:37Z</time>
      </trkpt>
      <trkpt lat="42.3483660" lon="-2.4982180">
        <ele>540.9</ele>
        <time>2020-02-01T13:14:38Z</time>
      </trkpt>
      <trkpt lat="42.3484420" lon="-2.4981780">
        <ele>540.8</ele>
        <time>2020-02-01T13:14:39Z</time>
      </trkpt>
      <trkpt lat="42.3485060" lon="-2.4981410">
        <ele>540.7</ele>
        <time>2020-02-01T13:14:40Z</time>
      </trkpt>
      <trkpt lat="42.3485880" lon="-2.4980970">
        <ele>540.5</ele>
        <time>2020-02-01T13:14:41Z</time>
      </trkpt>
      <trkpt lat="42.3486650" lon="-2.4980570">
        <ele>540.4</ele>
        <time>2020-02-01T13:14:42Z</time>
      </trkpt>
      <trkpt lat="42.3487400" lon="-2.4980030">
        <ele>540.2</ele>
        <time>2020-02-01T13:14:43Z</time>
      </trkpt>
      <trkpt lat="42.3488100" lon="-2.4979690">
        <ele>540.1</ele>
        <time>2020-02-01T13:14:44Z</time>
      </trkpt>
      <trkpt lat="42.3489080" lon="-2.4979370">
        <ele>540.0</ele>
        <time>2020-02-01T13:14:45Z</time>
      </trkpt>
      <trkpt lat="42.3489800" lon="-2.4978980">
        <ele>540.0</ele>
        <time>2020-02-01T13:14:46Z</time>
      </trkpt>
      <trkpt lat="42.3490500" lon="-2.4978570">
        <ele>539.9</ele>
        <time>2020-02-01T13:14:47Z</time>
      </trkpt>
      <trkpt lat="42.3491300" lon="-2.4978200">
        <ele>539.9</ele>
        <time>2020-02-01T13:14:48Z</time>
      </trkpt>
      <trkpt lat="42.3491870" lon="-2.4977860">
        <ele>539.8</ele>
        <time>2020-02-01T13:14:49Z</time>
      </trkpt>
      <trkpt lat="42.3492580" lon="-2.4977470">
        <ele>539.6</ele>
        <time>2020-02-01T13:14:50Z</time>
      </trkpt>
      <trkpt lat="42.3493430" lon="-2.4977130">
        <ele>539.4</ele>
        <time>2020-02-01T13:14:51Z</time>
      </trkpt>
      <trkpt lat="42.3494130" lon="-2.4976790">
        <ele>539.3</ele>
        <time>2020-02-01T13:14:52Z</time>
      </trkpt>
      <trkpt lat="42.3494860" lon="-2.4976440">
        <ele>539.2</ele>
        <time>2020-02-01T13:14:53Z</time>
      </trkpt>
      <trkpt lat="42.3495570" lon="-2.4975990">
        <ele>539.1</ele>
        <time>2020-02-01T13:14:54Z</time>
      </trkpt>
      <trkpt lat="42.3496230" lon="-2.4975620">
        <ele>539.1</ele>
        <time>2020-02-01T13:14:55Z</time>
      </trkpt>
      <trkpt lat="42.3496910" lon="-2.4975300">
        <ele>539.0</ele>
        <time>2020-02-01T13:14:56Z</time>
      </trkpt>
      <trkpt lat="42.3497670" lon="-2.4974930">
        <ele>539.0</ele>
        <time>2020-02-01T13:14:57Z</time>
      </trkpt>
      <trkpt lat="42.3498290" lon="-2.4974530">
        <ele>539.0</ele>
        <time>2020-02-01T13:14:58Z</time>
      </trkpt>
      <trkpt lat="42.3498760" lon="-2.4974010">
        <ele>538.9</ele>
        <time>2020-02-01T13:14:59Z</time>
      </trkpt>
      <trkpt lat="42.3499380" lon="-2.4973790">
        <ele>538.8</ele>
        <time>2020-02-01T13:15:00Z</time>
      </trkpt>
      <trkpt lat="42.3500060" lon="-2.4973450">
        <ele>538.7</ele>
        <time>2020-02-01T13:15:01Z</time>
      </trkpt>
      <trkpt lat="42.3500710" lon="-2.4973140">
        <ele>538.5</ele>
        <time>2020-02-01T13:15:02Z</time>
      </trkpt>
      <trkpt lat="42.3501010" lon="-2.4972710">
        <ele>538.4</ele>
        <time>2020-02-01T13:15:03Z</time>
      </trkpt>
      <trkpt lat="42.3501730" lon="-2.4972350">
        <ele>538.3</ele>
        <time>2020-02-01T13:15:04Z</time>
      </trkpt>
      <trkpt lat="42.3502400" lon="-2.4972000">
        <ele>538.2</ele>
        <time>2020-02-01T13:15:05Z</time>
      </trkpt>
      <trkpt lat="42.3503050" lon="-2.4971640">
        <ele>538.1</ele>
        <time>2020-02-01T13:15:06Z</time>
      </trkpt>
      <trkpt lat="42.3503530" lon="-2.4971170">
        <ele>538.1</ele>
        <time>2020-02-01T13:15:07Z</time>
      </trkpt>
      <trkpt lat="42.3504280" lon="-2.4970880">
        <ele>538.0</ele>
        <time>2020-02-01T13:15:08Z</time>
      </trkpt>
      <trkpt lat="42.3504930" lon="-2.4970570">
        <ele>538.0</ele>
        <time>2020-02-01T13:15:09Z</time>
      </trkpt>
      <trkpt lat="42.3505760" lon="-2.4970150">
        <ele>537.9</ele>
        <time>2020-02-01T13:15:10Z</time>
      </trkpt>
      <trkpt lat="42.3506270" lon="-2.4969850">
        <ele>537.8</ele>
        <time>2020-02-01T13:15:11Z</time>
      </trkpt>
      <trkpt lat="42.3506940" lon="-2.4969400">
        <ele>537.6</ele>
        <time>2020-02-01T13:15:12Z</time>
      </trkpt>
      <trkpt lat="42.3507310" lon="-2.4969020">
        <ele>537.5</ele>
        <time>2020-02-01T13:15:13Z</time>
      </trkpt>
      <trkpt lat="42.3508050" lon="-2.4968680">
        <ele>537.3</ele>
        <time>2020-02-01T13:15:14Z</time>
      </trkpt>
      <trkpt lat="42.3508740" lon="-2.4968320">
        <ele>537.1</ele>
        <time>2020-02-01T13:15:15Z</time>
      </trkpt>
      <trkpt lat="42.3509460" lon="-2.4967920">
        <ele>536.9</ele>
        <time>2020-02-01T13:15:16Z</time>
      </trkpt>
      <trkpt lat="42.3510190" lon="-2.4967520">
        <ele>536.6</ele>
        <time>2020-02-01T13:15:17Z</time>
      </trkpt>
      <trkpt lat="42.3510920" lon="-2.4967070">
        <ele>536.4</ele>
        <time>2020-02-01T13:15:18Z</time>
      </trkpt>
      <trkpt lat="42.3511630" lon="-2.4966690">
        <ele>536.2</ele>
        <time>2020-02-01T13:15:19Z</time>
      </trkpt>
      <trkpt lat="42.3512370" lon="-2.4966350">
        <ele>536.0</ele>
        <time>2020-02-01T13:15:20Z</time>
      </trkpt>
      <trkpt lat="42.3513100" lon="-2.4965950">
        <ele>535.8</ele>
        <time>2020-02-01T13:15:21Z</time>
      </trkpt>
      <trkpt lat="42.3513940" lon="-2.4965530">
        <ele>535.6</ele>
        <time>2020-02-01T13:15:22Z</time>
      </trkpt>
      <trkpt lat="42.3514630" lon="-2.4965130">
        <ele>535.4</ele>
        <time>2020-02-01T13:15:23Z</time>
      </trkpt>
      <trkpt lat="42.3515520" lon="-2.4964770">
        <ele>535.3</ele>
        <time>2020-02-01T13:15:24Z</time>
      </trkpt>
      <trkpt lat="42.3516460" lon="-2.4964380">
        <ele>535.0</ele>
        <time>2020-02-01T13:15:25Z</time>
      </trkpt>
      <trkpt lat="42.3517340" lon="-2.4964060">
        <ele>534.8</ele>
        <time>2020-02-01T13:15:26Z</time>
      </trkpt>
      <trkpt lat="42.3517750" lon="-2.4963550">
        <ele>534.7</ele>
        <time>2020-02-01T13:15:27Z</time>
      </trkpt>
      <trkpt lat="42.3518140" lon="-2.4963120">
        <ele>534.5</ele>
        <time>2020-02-01T13:15:28Z</time>
      </trkpt>
      <trkpt lat="42.3518760" lon="-2.4962750">
        <ele>534.3</ele>
        <time>2020-02-01T13:15:29Z</time>
      </trkpt>
      <trkpt lat="42.3519470" lon="-2.4962340">
        <ele>534.1</ele>
        <time>2020-02-01T13:15:30Z</time>
      </trkpt>
      <trkpt lat="42.3520200" lon="-2.4962020">
        <ele>533.9</ele>
        <time>2020-02-01T13:15:31Z</time>
      </trkpt>
      <trkpt lat="42.3521210" lon="-2.4961710">
        <ele>533.6</ele>
        <time>2020-02-01T13:15:32Z</time>
      </trkpt>
      <trkpt lat="42.3522010" lon="-2.4961300">
        <ele>533.3</ele>
        <time>2020-02-01T13:15:33Z</time>
      </trkpt>
      <trkpt lat="42.3522880" lon="-2.4960940">
        <ele>533.0</ele>
        <time>2020-02-01T13:15:34Z</time>
      </trkpt>
      <trkpt lat="42.3523630" lon="-2.4960530">
        <ele>532.8</ele>
        <time>2020-02-01T13:15:35Z</time>
      </trkpt>
      <trkpt lat="42.3524290" lon="-2.4959990">
        <ele>532.6</ele>
        <time>2020-02-01T13:15:36Z</time>
      </trkpt>
      <trkpt lat="42.3525150" lon="-2.4959690">
        <ele>532.3</ele>
        <time>2020-02-01T13:15:37Z</time>
      </trkpt>
      <trkpt lat="42.3526040" lon="-2.4959400">
        <ele>532.1</ele>
        <time>2020-02-01T13:15:38Z</time>
      </trkpt>
      <trkpt lat="42.3527050" lon="-2.4959110">
        <ele>531.9</ele>
        <time>2020-02-01T13:15:39Z</time>
      </trkpt>
      <trkpt lat="42.3527800" lon="-2.4958760">
        <ele>531.7</ele>
        <time>2020-02-01T13:15:40Z</time>
      </trkpt>
      <trkpt lat="42.3528280" lon="-2.4958410">
        <ele>531.6</ele>
        <time>2020-02-01T13:15:41Z</time>
      </trkpt>
      <trkpt lat="42.3529120" lon="-2.4958060">
        <ele>531.4</ele>
        <time>2020-02-01T13:15:42Z</time>
      </trkpt>
      <trkpt lat="42.3529950" lon="-2.4957620">
        <ele>531.2</ele>
        <time>2020-02-01T13:15:43Z</time>
      </trkpt>
      <trkpt lat="42.3530670" lon="-2.4957170">
        <ele>531.2</ele>
        <time>2020-02-01T13:15:44Z</time>
      </trkpt>
      <trkpt lat="42.3531410" lon="-2.4956760">
        <ele>531.0</ele>
        <time>2020-02-01T13:15:45Z</time>
      </trkpt>
      <trkpt lat="42.3532170" lon="-2.4956410">
        <ele>530.9</ele>
        <time>2020-02-01T13:15:46Z</time>
      </trkpt>
      <trkpt lat="42.3532910" lon="-2.4956080">
        <ele>530.8</ele>
        <time>2020-02-01T13:15:47Z</time>
      </trkpt>
      <trkpt lat="42.3533650" lon="-2.4955720">
        <ele>530.6</ele>
        <time>2020-02-01T13:15:48Z</time>
      </trkpt>
      <trkpt lat="42.3533930" lon="-2.4955670">
        <ele>530.6</ele>
        <time>2020-02-01T13:15:49Z</time>
      </trkpt>
      <trkpt lat="42.3534670" lon="-2.4955000">
        <ele>530.4</ele>
        <time>2020-02-01T13:15:50Z</time>
      </trkpt>
      <trkpt lat="42.3535340" lon="-2.4954590">
        <ele>530.3</ele>
        <time>2020-02-01T13:15:51Z</time>
      </trkpt>
      <trkpt lat="42.3535840" lon="-2.4954120">
        <ele>530.3</ele>
        <time>2020-02-01T13:15:52Z</time>
      </trkpt>
      <trkpt lat="42.3536570" lon="-2.4953820">
        <ele>530.2</ele>
        <time>2020-02-01T13:15:53Z</time>
      </trkpt>
      <trkpt lat="42.3537390" lon="-2.4953370">
        <ele>530.2</ele>
        <time>2020-02-01T13:15:54Z</time>
      </trkpt>
      <trkpt lat="42.3538050" lon="-2.4952970">
        <ele>530.1</ele>
        <time>2020-02-01T13:15:55Z</time>
      </trkpt>
      <trkpt lat="42.3538740" lon="-2.4952590">
        <ele>530.1</ele>
        <time>2020-02-01T13:15:56Z</time>
      </trkpt>
      <trkpt lat="42.3539340" lon="-2.4952200">
        <ele>530.0</ele>
        <time>2020-02-01T13:15:57Z</time>
      </trkpt>
      <trkpt lat="42.3540210" lon="-2.4951790">
        <ele>529.8</ele>
        <time>2020-02-01T13:15:58Z</time>
      </trkpt>
      <trkpt lat="42.3540960" lon="-2.4951380">
        <ele>529.6</ele>
        <time>2020-02-01T13:15:59Z</time>
      </trkpt>
      <trkpt lat="42.3541680" lon="-2.4950990">
        <ele>529.5</ele>
        <time>2020-02-01T13:16:00Z</time>
      </trkpt>
      <trkpt lat="42.3542400" lon="-2.4950580">
        <ele>529.3</ele>
        <time>2020-02-01T13:16:01Z</time>
      </trkpt>
      <trkpt lat="42.3543230" lon="-2.4950220">
        <ele>529.2</ele>
        <time>2020-02-01T13:16:02Z</time>
      </trkpt>
      <trkpt lat="42.3543930" lon="-2.4949810">
        <ele>529.1</ele>
        <time>2020-02-01T13:16:03Z</time>
      </trkpt>
      <trkpt lat="42.3544660" lon="-2.4949440">
        <ele>528.9</ele>
        <time>2020-02-01T13:16:04Z</time>
      </trkpt>
      <trkpt lat="42.3545300" lon="-2.4948960">
        <ele>528.7</ele>
        <time>2020-02-01T13:16:05Z</time>
      </trkpt>
      <trkpt lat="42.3546150" lon="-2.4948730">
        <ele>528.5</ele>
        <time>2020-02-01T13:16:06Z</time>
      </trkpt>
      <trkpt lat="42.3546920" lon="-2.4948360">
        <ele>528.4</ele>
        <time>2020-02-01T13:16:07Z</time>
      </trkpt>
      <trkpt lat="42.3547560" lon="-2.4948010">
        <ele>528.2</ele>
        <time>2020-02-01T13:16:08Z</time>
      </trkpt>
      <trkpt lat="42.3548250" lon="-2.4947550">
        <ele>528.1</ele>
        <time>2020-02-01T13:16:09Z</time>
      </trkpt>
      <trkpt lat="42.3548940" lon="-2.4947190">
        <ele>528.0</ele>
        <time>2020-02-01T13:16:10Z</time>
      </trkpt>
      <trkpt lat="42.3549620" lon="-2.4946810">
        <ele>527.8</ele>
        <time>2020-02-01T13:16:11Z</time>
      </trkpt>
      <trkpt lat="42.3550530" lon="-2.4946530">
        <ele>527.6</ele>
        <time>2020-02-01T13:16:12Z</time>
      </trkpt>
      <trkpt lat="42.3551200" lon="-2.4946180">
        <ele>527.5</ele>
        <time>2020-02-01T13:16:13Z</time>
      </trkpt>
      <trkpt lat="42.3551810" lon="-2.4945780">
        <ele>527.4</ele>
        <time>2020-02-01T13:16:14Z</time>
      </trkpt>
      <trkpt lat="42.3552450" lon="-2.4945460">
        <ele>527.3</ele>
        <time>2020-02-01T13:16:15Z</time>
      </trkpt>
      <trkpt lat="42.3552930" lon="-2.4945060">
        <ele>527.3</ele>
        <time>2020-02-01T13:16:16Z</time>
      </trkpt>
      <trkpt lat="42.3553540" lon="-2.4944830">
        <ele>527.2</ele>
        <time>2020-02-01T13:16:17Z</time>
      </trkpt>
      <trkpt lat="42.3554090" lon="-2.4944420">
        <ele>527.1</ele>
        <time>2020-02-01T13:16:18Z</time>
      </trkpt>
      <trkpt lat="42.3554730" lon="-2.4944240">
        <ele>527.0</ele>
        <time>2020-02-01T13:16:19Z</time>
      </trkpt>
      <trkpt lat="42.3555200" lon="-2.4943960">
        <ele>526.9</ele>
        <time>2020-02-01T13:16:20Z</time>
      </trkpt>
      <trkpt lat="42.3555810" lon="-2.4943660">
        <ele>526.8</ele>
        <time>2020-02-01T13:16:21Z</time>
      </trkpt>
      <trkpt lat="42.3556630" lon="-2.4943460">
        <ele>526.6</ele>
        <time>2020-02-01T13:16:22Z</time>
      </trkpt>
      <trkpt lat="42.3557140" lon="-2.4943080">
        <ele>526.5</ele>
        <time>2020-02-01T13:16:23Z</time>
      </trkpt>
      <trkpt lat="42.3557710" lon="-2.4942740">
        <ele>526.4</ele>
        <time>2020-02-01T13:16:24Z</time>
      </trkpt>
      <trkpt lat="42.3558410" lon="-2.4942240">
        <ele>526.3</ele>
        <time>2020-02-01T13:16:25Z</time>
      </trkpt>
      <trkpt lat="42.3558890" lon="-2.4941860">
        <ele>526.3</ele>
        <time>2020-02-01T13:16:26Z</time>
      </trkpt>
      <trkpt lat="42.3559590" lon="-2.4941580">
        <ele>526.3</ele>
        <time>2020-02-01T13:16:27Z</time>
      </trkpt>
      <trkpt lat="42.3559980" lon="-2.4941270">
        <ele>526.2</ele>
        <time>2020-02-01T13:16:28Z</time>
      </trkpt>
      <trkpt lat="42.3560650" lon="-2.4940840">
        <ele>526.2</ele>
        <time>2020-02-01T13:16:29Z</time>
      </trkpt>
      <trkpt lat="42.3561290" lon="-2.4940490">
        <ele>526.1</ele>
        <time>2020-02-01T13:16:30Z</time>
      </trkpt>
      <trkpt lat="42.3561920" lon="-2.4940180">
        <ele>526.0</ele>
        <time>2020-02-01T13:16:31Z</time>
      </trkpt>
      <trkpt lat="42.3562570" lon="-2.4939870">
        <ele>525.9</ele>
        <time>2020-02-01T13:16:32Z</time>
      </trkpt>
      <trkpt lat="42.3563190" lon="-2.4939590">
        <ele>525.8</ele>
        <time>2020-02-01T13:16:33Z</time>
      </trkpt>
      <trkpt lat="42.3563840" lon="-2.4939220">
        <ele>525.6</ele>
        <time>2020-02-01T13:16:34Z</time>
      </trkpt>
      <trkpt lat="42.3564430" lon="-2.4938890">
        <ele>525.5</ele>
        <time>2020-02-01T13:16:35Z</time>
      </trkpt>
      <trkpt lat="42.3565150" lon="-2.4938480">
        <ele>525.4</ele>
        <time>2020-02-01T13:16:36Z</time>
      </trkpt>
      <trkpt lat="42.3565770" lon="-2.4938170">
        <ele>525.2</ele>
        <time>2020-02-01T13:16:37Z</time>
      </trkpt>
      <trkpt lat="42.3566400" lon="-2.4937840">
        <ele>525.1</ele>
        <time>2020-02-01T13:16:38Z</time>
      </trkpt>
      <trkpt lat="42.3567160" lon="-2.4937490">
        <ele>525.0</ele>
        <time>2020-02-01T13:16:39Z</time>
      </trkpt>
      <trkpt lat="42.3567890" lon="-2.4937090">
        <ele>524.8</ele>
        <time>2020-02-01T13:16:40Z</time>
      </trkpt>
      <trkpt lat="42.3568580" lon="-2.4936760">
        <ele>524.6</ele>
        <time>2020-02-01T13:16:41Z</time>
      </trkpt>
      <trkpt lat="42.3569260" lon="-2.4936390">
        <ele>524.5</ele>
        <time>2020-02-01T13:16:42Z</time>
      </trkpt>
      <trkpt lat="42.3569940" lon="-2.4936010">
        <ele>524.4</ele>
        <time>2020-02-01T13:16:43Z</time>
      </trkpt>
      <trkpt lat="42.3570840" lon="-2.4935450">
        <ele>524.3</ele>
        <time>2020-02-01T13:16:44Z</time>
      </trkpt>
      <trkpt lat="42.3571570" lon="-2.4934950">
        <ele>524.2</ele>
        <time>2020-02-01T13:16:45Z</time>
      </trkpt>
      <trkpt lat="42.3572270" lon="-2.4934570">
        <ele>524.2</ele>
        <time>2020-02-01T13:16:46Z</time>
      </trkpt>
      <trkpt lat="42.3572810" lon="-2.4934200">
        <ele>524.1</ele>
        <time>2020-02-01T13:16:47Z</time>
      </trkpt>
      <trkpt lat="42.3573570" lon="-2.4933890">
        <ele>524.0</ele>
        <time>2020-02-01T13:16:48Z</time>
      </trkpt>
      <trkpt lat="42.3574440" lon="-2.4933600">
        <ele>523.8</ele>
        <time>2020-02-01T13:16:49Z</time>
      </trkpt>
      <trkpt lat="42.3575180" lon="-2.4933130">
        <ele>523.7</ele>
        <time>2020-02-01T13:16:50Z</time>
      </trkpt>
      <trkpt lat="42.3575870" lon="-2.4932740">
        <ele>523.5</ele>
        <time>2020-02-01T13:16:51Z</time>
      </trkpt>
      <trkpt lat="42.3576650" lon="-2.4932470">
        <ele>523.4</ele>
        <time>2020-02-01T13:16:52Z</time>
      </trkpt>
      <trkpt lat="42.3577050" lon="-2.4931950">
        <ele>523.3</ele>
        <time>2020-02-01T13:16:53Z</time>
      </trkpt>
      <trkpt lat="42.3577720" lon="-2.4931580">
        <ele>523.2</ele>
        <time>2020-02-01T13:16:54Z</time>
      </trkpt>
      <trkpt lat="42.3578210" lon="-2.4931260">
        <ele>523.1</ele>
        <time>2020-02-01T13:16:55Z</time>
      </trkpt>
      <trkpt lat="42.3579050" lon="-2.4931020">
        <ele>522.8</ele>
        <time>2020-02-01T13:16:56Z</time>
      </trkpt>
      <trkpt lat="42.3579700" lon="-2.4930650">
        <ele>522.6</ele>
        <time>2020-02-01T13:16:57Z</time>
      </trkpt>
      <trkpt lat="42.3580400" lon="-2.4930380">
        <ele>522.4</ele>
        <time>2020-02-01T13:16:58Z</time>
      </trkpt>
      <trkpt lat="42.3581070" lon="-2.4929980">
        <ele>522.5</ele>
        <time>2020-02-01T13:16:59Z</time>
      </trkpt>
      <trkpt lat="42.3581670" lon="-2.4929820">
        <ele>522.7</ele>
        <time>2020-02-01T13:17:00Z</time>
      </trkpt>
      <trkpt lat="42.3582430" lon="-2.4929420">
        <ele>523.0</ele>
        <time>2020-02-01T13:17:01Z</time>
      </trkpt>
      <trkpt lat="42.3583140" lon="-2.4929070">
        <ele>523.2</ele>
        <time>2020-02-01T13:17:02Z</time>
      </trkpt>
      <trkpt lat="42.3583830" lon="-2.4928590">
        <ele>523.3</ele>
        <time>2020-02-01T13:17:03Z</time>
      </trkpt>
      <trkpt lat="42.3584530" lon="-2.4928230">
        <ele>523.3</ele>
        <time>2020-02-01T13:17:04Z</time>
      </trkpt>
      <trkpt lat="42.3585230" lon="-2.4927850">
        <ele>523.3</ele>
        <time>2020-02-01T13:17:05Z</time>
      </trkpt>
      <trkpt lat="42.3585860" lon="-2.4927430">
        <ele>523.1</ele>
        <time>2020-02-01T13:17:06Z</time>
      </trkpt>
      <trkpt lat="42.3586330" lon="-2.4926950">
        <ele>522.9</ele>
        <time>2020-02-01T13:17:07Z</time>
      </trkpt>
      <trkpt lat="42.3586980" lon="-2.4926570">
        <ele>522.6</ele>
        <time>2020-02-01T13:17:08Z</time>
      </trkpt>
      <trkpt lat="42.3587750" lon="-2.4926270">
        <ele>522.3</ele>
        <time>2020-02-01T13:17:09Z</time>
      </trkpt>
      <trkpt lat="42.3588500" lon="-2.4925810">
        <ele>521.9</ele>
        <time>2020-02-01T13:17:10Z</time>
      </trkpt>
      <trkpt lat="42.3589330" lon="-2.4925420">
        <ele>521.7</ele>
        <time>2020-02-01T13:17:11Z</time>
      </trkpt>
      <trkpt lat="42.3589930" lon="-2.4925060">
        <ele>521.6</ele>
        <time>2020-02-01T13:17:12Z</time>
      </trkpt>
      <trkpt lat="42.3590690" lon="-2.4924640">
        <ele>521.5</ele>
        <time>2020-02-01T13:17:13Z</time>
      </trkpt>
      <trkpt lat="42.3591400" lon="-2.4924270">
        <ele>521.4</ele>
        <time>2020-02-01T13:17:14Z</time>
      </trkpt>
      <trkpt lat="42.3592030" lon="-2.4923840">
        <ele>521.3</ele>
        <time>2020-02-01T13:17:15Z</time>
      </trkpt>
      <trkpt lat="42.3592800" lon="-2.4923530">
        <ele>521.1</ele>
        <time>2020-02-01T13:17:16Z</time>
      </trkpt>
      <trkpt lat="42.3593480" lon="-2.4923130">
        <ele>520.9</ele>
        <time>2020-02-01T13:17:17Z</time>
      </trkpt>
      <trkpt lat="42.3594130" lon="-2.4922870">
        <ele>520.8</ele>
        <time>2020-02-01T13:17:18Z</time>
      </trkpt>
      <trkpt lat="42.3594930" lon="-2.4922460">
        <ele>520.7</ele>
        <time>2020-02-01T13:17:19Z</time>
      </trkpt>
      <trkpt lat="42.3595640" lon="-2.4922070">
        <ele>520.6</ele>
        <time>2020-02-01T13:17:20Z</time>
      </trkpt>
      <trkpt lat="42.3596470" lon="-2.4921670">
        <ele>520.6</ele>
        <time>2020-02-01T13:17:21Z</time>
      </trkpt>
      <trkpt lat="42.3597420" lon="-2.4921360">
        <ele>520.5</ele>
        <time>2020-02-01T13:17:22Z</time>
      </trkpt>
      <trkpt lat="42.3598110" lon="-2.4920990">
        <ele>520.4</ele>
        <time>2020-02-01T13:17:23Z</time>
      </trkpt>
      <trkpt lat="42.3598740" lon="-2.4920580">
        <ele>520.2</ele>
        <time>2020-02-01T13:17:24Z</time>
      </trkpt>
      <trkpt lat="42.3599420" lon="-2.4920250">
        <ele>520.0</ele>
        <time>2020-02-01T13:17:25Z</time>
      </trkpt>
      <trkpt lat="42.3600110" lon="-2.4919880">
        <ele>519.9</ele>
        <time>2020-02-01T13:17:26Z</time>
      </trkpt>
      <trkpt lat="42.3600790" lon="-2.4919410">
        <ele>520.0</ele>
        <time>2020-02-01T13:17:27Z</time>
      </trkpt>
      <trkpt lat="42.3601370" lon="-2.4919040">
        <ele>520.1</ele>
        <time>2020-02-01T13:17:28Z</time>
      </trkpt>
      <trkpt lat="42.3602070" lon="-2.4918670">
        <ele>520.4</ele>
        <time>2020-02-01T13:17:29Z</time>
      </trkpt>
      <trkpt lat="42.3602860" lon="-2.4918230">
        <ele>520.7</ele>
        <time>2020-02-01T13:17:30Z</time>
      </trkpt>
      <trkpt lat="42.3603600" lon="-2.4917960">
        <ele>520.0</ele>
        <time>2020-02-01T13:17:31Z</time>
      </trkpt>
      <trkpt lat="42.3604310" lon="-2.4917590">
        <ele>519.4</ele>
        <time>2020-02-01T13:17:32Z</time>
      </trkpt>
      <trkpt lat="42.3605070" lon="-2.4917290">
        <ele>518.7</ele>
        <time>2020-02-01T13:17:33Z</time>
      </trkpt>
      <trkpt lat="42.3605770" lon="-2.4916850">
        <ele>518.1</ele>
        <time>2020-02-01T13:17:34Z</time>
      </trkpt>
      <trkpt lat="42.3606500" lon="-2.4916480">
        <ele>517.6</ele>
        <time>2020-02-01T13:17:35Z</time>
      </trkpt>
      <trkpt lat="42.3607160" lon="-2.4916200">
        <ele>517.2</ele>
        <time>2020-02-01T13:17:36Z</time>
      </trkpt>
      <trkpt lat="42.3607930" lon="-2.4915820">
        <ele>516.8</ele>
        <time>2020-02-01T13:17:37Z</time>
      </trkpt>
      <trkpt lat="42.3608830" lon="-2.4915450">
        <ele>516.5</ele>
        <time>2020-02-01T13:17:38Z</time>
      </trkpt>
      <trkpt lat="42.3609490" lon="-2.4915020">
        <ele>516.3</ele>
        <time>2020-02-01T13:17:39Z</time>
      </trkpt>
      <trkpt lat="42.3610220" lon="-2.4914630">
        <ele>516.1</ele>
        <time>2020-02-01T13:17:40Z</time>
      </trkpt>
      <trkpt lat="42.3610900" lon="-2.4914410">
        <ele>515.9</ele>
        <time>2020-02-01T13:17:41Z</time>
      </trkpt>
      <trkpt lat="42.3611430" lon="-2.4914060">
        <ele>515.8</ele>
        <time>2020-02-01T13:17:42Z</time>
      </trkpt>
      <trkpt lat="42.3612170" lon="-2.4913660">
        <ele>515.5</ele>
        <time>2020-02-01T13:17:43Z</time>
      </trkpt>
      <trkpt lat="42.3612830" lon="-2.4913270">
        <ele>515.3</ele>
        <time>2020-02-01T13:17:44Z</time>
      </trkpt>
      <trkpt lat="42.3613490" lon="-2.4912860">
        <ele>515.0</ele>
        <time>2020-02-01T13:17:45Z</time>
      </trkpt>
      <trkpt lat="42.3614160" lon="-2.4912440">
        <ele>514.6</ele>
        <time>2020-02-01T13:17:46Z</time>
      </trkpt>
      <trkpt lat="42.3614910" lon="-2.4912060">
        <ele>514.2</ele>
        <time>2020-02-01T13:17:47Z</time>
      </trkpt>
      <trkpt lat="42.3615600" lon="-2.4911580">
        <ele>513.8</ele>
        <time>2020-02-01T13:17:48Z</time>
      </trkpt>
      <trkpt lat="42.3616330" lon="-2.4911280">
        <ele>513.5</ele>
        <time>2020-02-01T13:17:49Z</time>
      </trkpt>
      <trkpt lat="42.3617050" lon="-2.4910930">
        <ele>513.3</ele>
        <time>2020-02-01T13:17:50Z</time>
      </trkpt>
      <trkpt lat="42.3617710" lon="-2.4910570">
        <ele>513.1</ele>
        <time>2020-02-01T13:17:51Z</time>
      </trkpt>
      <trkpt lat="42.3618450" lon="-2.4910200">
        <ele>512.9</ele>
        <time>2020-02-01T13:17:52Z</time>
      </trkpt>
      <trkpt lat="42.3619210" lon="-2.4909800">
        <ele>512.7</ele>
        <time>2020-02-01T13:17:53Z</time>
      </trkpt>
      <trkpt lat="42.3619880" lon="-2.4909430">
        <ele>512.5</ele>
        <time>2020-02-01T13:17:54Z</time>
      </trkpt>
      <trkpt lat="42.3620760" lon="-2.4908890">
        <ele>512.3</ele>
        <time>2020-02-01T13:17:55Z</time>
      </trkpt>
      <trkpt lat="42.3621220" lon="-2.4908580">
        <ele>512.2</ele>
        <time>2020-02-01T13:17:56Z</time>
      </trkpt>
      <trkpt lat="42.3621970" lon="-2.4908170">
        <ele>512.1</ele>
        <time>2020-02-01T13:17:57Z</time>
      </trkpt>
      <trkpt lat="42.3622630" lon="-2.4907810">
        <ele>512.1</ele>
        <time>2020-02-01T13:17:58Z</time>
      </trkpt>
      <trkpt lat="42.3621850" lon="-2.4907450">
        <ele>512.1</ele>
        <time>2020-02-01T13:17:59Z</time>
      </trkpt>
      <trkpt lat="42.3622490" lon="-2.4907190">
        <ele>512.1</ele>
        <time>2020-02-01T13:18:00Z</time>
      </trkpt>
      <trkpt lat="42.3623220" lon="-2.4906840">
        <ele>512.2</ele>
        <time>2020-02-01T13:18:01Z</time>
      </trkpt>
      <trkpt lat="42.3623900" lon="-2.4906490">
        <ele>512.3</ele>
        <time>2020-02-01T13:18:02Z</time>
      </trkpt>
      <trkpt lat="42.3624650" lon="-2.4906220">
        <ele>512.4</ele>
        <time>2020-02-01T13:18:03Z</time>
      </trkpt>
      <trkpt lat="42.3625410" lon="-2.4905890">
        <ele>512.6</ele>
        <time>2020-02-01T13:18:04Z</time>
      </trkpt>
      <trkpt lat="42.3626180" lon="-2.4905460">
        <ele>512.7</ele>
        <time>2020-02-01T13:18:05Z</time>
      </trkpt>
      <trkpt lat="42.3626910" lon="-2.4905080">
        <ele>512.8</ele>
        <time>2020-02-01T13:18:06Z</time>
      </trkpt>
      <trkpt lat="42.3627660" lon="-2.4904790">
        <ele>512.9</ele>
        <time>2020-02-01T13:18:07Z</time>
      </trkpt>
      <trkpt lat="42.3628450" lon="-2.4904420">
        <ele>512.9</ele>
        <time>2020-02-01T13:18:08Z</time>
      </trkpt>
      <trkpt lat="42.3629190" lon="-2.4904000">
        <ele>512.9</ele>
        <time>2020-02-01T13:18:09Z</time>
      </trkpt>
      <trkpt lat="42.3629860" lon="-2.4903620">
        <ele>513.0</ele>
        <time>2020-02-01T13:18:10Z</time>
      </trkpt>
      <trkpt lat="42.3630600" lon="-2.4903280">
        <ele>513.0</ele>
        <time>2020-02-01T13:18:11Z</time>
      </trkpt>
      <trkpt lat="42.3631280" lon="-2.4902920">
        <ele>513.0</ele>
        <time>2020-02-01T13:18:12Z</time>
      </trkpt>
      <trkpt lat="42.3631670" lon="-2.4902550">
        <ele>513.0</ele>
        <time>2020-02-01T13:18:13Z</time>
      </trkpt>
      <trkpt lat="42.3632300" lon="-2.4902130">
        <ele>513.0</ele>
        <time>2020-02-01T13:18:14Z</time>
      </trkpt>
      <trkpt lat="42.3633020" lon="-2.4901760">
        <ele>513.0</ele>
        <time>2020-02-01T13:18:15Z</time>
      </trkpt>
      <trkpt lat="42.3633620" lon="-2.4901520">
        <ele>513.0</ele>
        <time>2020-02-01T13:18:16Z</time>
      </trkpt>
      <trkpt lat="42.3634460" lon="-2.4901240">
        <ele>513.0</ele>
        <time>2020-02-01T13:18:17Z</time>
      </trkpt>
      <trkpt lat="42.3635390" lon="-2.4900850">
        <ele>513.0</ele>
        <time>2020-02-01T13:18:18Z</time>
      </trkpt>
      <trkpt lat="42.3636030" lon="-2.4900510">
        <ele>513.0</ele>
        <time>2020-02-01T13:18:19Z</time>
      </trkpt>
      <trkpt lat="42.3636760" lon="-2.4900110">
        <ele>513.0</ele>
        <time>2020-02-01T13:18:20Z</time>
      </trkpt>
      <trkpt lat="42.3637470" lon="-2.4899760">
        <ele>513.0</ele>
        <time>2020-02-01T13:18:21Z</time>
      </trkpt>
      <trkpt lat="42.3638200" lon="-2.4899350">
        <ele>513.0</ele>
        <time>2020-02-01T13:18:22Z</time>
      </trkpt>
      <trkpt lat="42.3638970" lon="-2.4898880">
        <ele>513.0</ele>
        <time>2020-02-01T13:18:23Z</time>
      </trkpt>
      <trkpt lat="42.3639620" lon="-2.4898580">
        <ele>513.0</ele>
        <time>2020-02-01T13:18:24Z</time>
      </trkpt>
      <trkpt lat="42.3640280" lon="-2.4898160">
        <ele>513.1</ele>
        <time>2020-02-01T13:18:25Z</time>
      </trkpt>
      <trkpt lat="42.3640960" lon="-2.4897780">
        <ele>513.1</ele>
        <time>2020-02-01T13:18:26Z</time>
      </trkpt>
      <trkpt lat="42.3641650" lon="-2.4897340">
        <ele>513.1</ele>
        <time>2020-02-01T13:18:27Z</time>
      </trkpt>
      <trkpt lat="42.3642290" lon="-2.4896870">
        <ele>513.0</ele>
        <time>2020-02-01T13:18:28Z</time>
      </trkpt>
      <trkpt lat="42.3642880" lon="-2.4896530">
        <ele>513.0</ele>
        <time>2020-02-01T13:18:29Z</time>
      </trkpt>
      <trkpt lat="42.3643460" lon="-2.4896100">
        <ele>513.0</ele>
        <time>2020-02-01T13:18:30Z</time>
      </trkpt>
      <trkpt lat="42.3644180" lon="-2.4895730">
        <ele>512.9</ele>
        <time>2020-02-01T13:18:31Z</time>
      </trkpt>
      <trkpt lat="42.3644810" lon="-2.4895340">
        <ele>512.8</ele>
        <time>2020-02-01T13:18:32Z</time>
      </trkpt>
      <trkpt lat="42.3645540" lon="-2.4895000">
        <ele>512.5</ele>
        <time>2020-02-01T13:18:33Z</time>
      </trkpt>
      <trkpt lat="42.3646210" lon="-2.4894630">
        <ele>512.3</ele>
        <time>2020-02-01T13:18:34Z</time>
      </trkpt>
      <trkpt lat="42.3646920" lon="-2.4894170">
        <ele>512.1</ele>
        <time>2020-02-01T13:18:35Z</time>
      </trkpt>
      <trkpt lat="42.3647620" lon="-2.4893770">
        <ele>512.1</ele>
        <time>2020-02-01T13:18:36Z</time>
      </trkpt>
      <trkpt lat="42.3648290" lon="-2.4893410">
        <ele>512.2</ele>
        <time>2020-02-01T13:18:37Z</time>
      </trkpt>
      <trkpt lat="42.3649030" lon="-2.4892970">
        <ele>512.2</ele>
        <time>2020-02-01T13:18:38Z</time>
      </trkpt>
      <trkpt lat="42.3649790" lon="-2.4892620">
        <ele>512.2</ele>
        <time>2020-02-01T13:18:39Z</time>
      </trkpt>
      <trkpt lat="42.3650580" lon="-2.4892260">
        <ele>512.2</ele>
        <time>2020-02-01T13:18:40Z</time>
      </trkpt>
      <trkpt lat="42.3651360" lon="-2.4891930">
        <ele>512.2</ele>
        <time>2020-02-01T13:18:41Z</time>
      </trkpt>
      <trkpt lat="42.3651870" lon="-2.4891310">
        <ele>512.1</ele>
        <time>2020-02-01T13:18:42Z</time>
      </trkpt>
      <trkpt lat="42.3652420" lon="-2.4890960">
        <ele>512.1</ele>
        <time>2020-02-01T13:18:43Z</time>
      </trkpt>
      <trkpt lat="42.3653300" lon="-2.4890750">
        <ele>512.0</ele>
        <time>2020-02-01T13:18:44Z</time>
      </trkpt>
      <trkpt lat="42.3654200" lon="-2.4890510">
        <ele>512.0</ele>
        <time>2020-02-01T13:18:45Z</time>
      </trkpt>
      <trkpt lat="42.3654660" lon="-2.4890140">
        <ele>511.9</ele>
        <time>2020-02-01T13:18:46Z</time>
      </trkpt>
      <trkpt lat="42.3655310" lon="-2.4889730">
        <ele>511.8</ele>
        <time>2020-02-01T13:18:47Z</time>
      </trkpt>
      <trkpt lat="42.3655930" lon="-2.4889400">
        <ele>511.7</ele>
        <time>2020-02-01T13:18:48Z</time>
      </trkpt>
      <trkpt lat="42.3656610" lon="-2.4888970">
        <ele>511.7</ele>
        <time>2020-02-01T13:18:49Z</time>
      </trkpt>
      <trkpt lat="42.3657300" lon="-2.4888650">
        <ele>511.6</ele>
        <time>2020-02-01T13:18:50Z</time>
      </trkpt>
      <trkpt lat="42.3657980" lon="-2.4888290">
        <ele>511.4</ele>
        <time>2020-02-01T13:18:51Z</time>
      </trkpt>
      <trkpt lat="42.3658750" lon="-2.4887900">
        <ele>511.3</ele>
        <time>2020-02-01T13:18:52Z</time>
      </trkpt>
      <trkpt lat="42.3659470" lon="-2.4887590">
        <ele>511.1</ele>
        <time>2020-02-01T13:18:53Z</time>
      </trkpt>
      <trkpt lat="42.3660250" lon="-2.4887210">
        <ele>511.0</ele>
        <time>2020-02-01T13:18:54Z</time>
      </trkpt>
      <trkpt lat="42.3661060" lon="-2.4886810">
        <ele>510.9</ele>
        <time>2020-02-01T13:18:55Z</time>
      </trkpt>
      <trkpt lat="42.3661730" lon="-2.4886330">
        <ele>510.7</ele>
        <time>2020-02-01T13:18:56Z</time>
      </trkpt>
      <trkpt lat="42.3662530" lon="-2.4885980">
        <ele>510.6</ele>
        <time>2020-02-01T13:18:57Z</time>
      </trkpt>
      <trkpt lat="42.3663340" lon="-2.4885580">
        <ele>510.4</ele>
        <time>2020-02-01T13:18:58Z</time>
      </trkpt>
      <trkpt lat="42.3664320" lon="-2.4885270">
        <ele>510.2</ele>
        <time>2020-02-01T13:18:59Z</time>
      </trkpt>
      <trkpt lat="42.3665130" lon="-2.4884880">
        <ele>510.1</ele>
        <time>2020-02-01T13:19:00Z</time>
      </trkpt>
      <trkpt lat="42.3665710" lon="-2.4884470">
        <ele>510.0</ele>
        <time>2020-02-01T13:19:01Z</time>
      </trkpt>
      <trkpt lat="42.3666440" lon="-2.4884060">
        <ele>509.8</ele>
        <time>2020-02-01T13:19:02Z</time>
      </trkpt>
      <trkpt lat="42.3667020" lon="-2.4883550">
        <ele>509.7</ele>
        <time>2020-02-01T13:19:03Z</time>
      </trkpt>
      <trkpt lat="42.3667840" lon="-2.4883140">
        <ele>509.5</ele>
        <time>2020-02-01T13:19:04Z</time>
      </trkpt>
      <trkpt lat="42.3668090" lon="-2.4882750">
        <ele>509.5</ele>
        <time>2020-02-01T13:19:05Z</time>
      </trkpt>
      <trkpt lat="42.3668780" lon="-2.4882500">
        <ele>509.3</ele>
        <time>2020-02-01T13:19:06Z</time>
      </trkpt>
      <trkpt lat="42.3669640" lon="-2.4882040">
        <ele>509.2</ele>
        <time>2020-02-01T13:19:07Z</time>
      </trkpt>
      <trkpt lat="42.3670370" lon="-2.4881660">
        <ele>509.0</ele>
        <time>2020-02-01T13:19:08Z</time>
      </trkpt>
      <trkpt lat="42.3671190" lon="-2.4881520">
        <ele>508.7</ele>
        <time>2020-02-01T13:19:09Z</time>
      </trkpt>
      <trkpt lat="42.3671810" lon="-2.4881070">
        <ele>508.4</ele>
        <time>2020-02-01T13:19:10Z</time>
      </trkpt>
      <trkpt lat="42.3672470" lon="-2.4880670">
        <ele>508.1</ele>
        <time>2020-02-01T13:19:11Z</time>
      </trkpt>
      <trkpt lat="42.3673000" lon="-2.4879960">
        <ele>507.7</ele>
        <time>2020-02-01T13:19:12Z</time>
      </trkpt>
      <trkpt lat="42.3673500" lon="-2.4879160">
        <ele>507.6</ele>
        <time>2020-02-01T13:19:13Z</time>
      </trkpt>
      <trkpt lat="42.3674070" lon="-2.4878570">
        <ele>507.4</ele>
        <time>2020-02-01T13:19:14Z</time>
      </trkpt>
      <trkpt lat="42.3674650" lon="-2.4877790">
        <ele>507.2</ele>
        <time>2020-02-01T13:19:15Z</time>
      </trkpt>
      <trkpt lat="42.3675240" lon="-2.4877650">
        <ele>507.0</ele>
        <time>2020-02-01T13:19:16Z</time>
      </trkpt>
      <trkpt lat="42.3675880" lon="-2.4877380">
        <ele>507.0</ele>
        <time>2020-02-01T13:19:17Z</time>
      </trkpt>
      <trkpt lat="42.3676480" lon="-2.4877390">
        <ele>507.1</ele>
        <time>2020-02-01T13:19:18Z</time>
      </trkpt>
      <trkpt lat="42.3677160" lon="-2.4877570">
        <ele>507.1</ele>
        <time>2020-02-01T13:19:19Z</time>
      </trkpt>
      <trkpt lat="42.3677810" lon="-2.4877540">
        <ele>507.1</ele>
        <time>2020-02-01T13:19:20Z</time>
      </trkpt>
      <trkpt lat="42.3678560" lon="-2.4877400">
        <ele>507.1</ele>
        <time>2020-02-01T13:19:21Z</time>
      </trkpt>
      <trkpt lat="42.3679250" lon="-2.4877340">
        <ele>507.0</ele>
        <time>2020-02-01T13:19:22Z</time>
      </trkpt>
      <trkpt lat="42.3679960" lon="-2.4876530">
        <ele>506.7</ele>
        <time>2020-02-01T13:19:23Z</time>
      </trkpt>
      <trkpt lat="42.3680620" lon="-2.4876330">
        <ele>506.4</ele>
        <time>2020-02-01T13:19:24Z</time>
      </trkpt>
      <trkpt lat="42.3681250" lon="-2.4876050">
        <ele>506.1</ele>
        <time>2020-02-01T13:19:25Z</time>
      </trkpt>
      <trkpt lat="42.3682070" lon="-2.4875700">
        <ele>505.8</ele>
        <time>2020-02-01T13:19:26Z</time>
      </trkpt>
      <trkpt lat="42.3682590" lon="-2.4875230">
        <ele>505.6</ele>
        <time>2020-02-01T13:19:27Z</time>
      </trkpt>
      <trkpt lat="42.3683270" lon="-2.4874850">
        <ele>505.3</ele>
        <time>2020-02-01T13:19:28Z</time>
      </trkpt>
      <trkpt lat="42.3683710" lon="-2.4874360">
        <ele>505.2</ele>
        <time>2020-02-01T13:19:29Z</time>
      </trkpt>
      <trkpt lat="42.3684470" lon="-2.4874060">
        <ele>504.8</ele>
        <time>2020-02-01T13:19:30Z</time>
      </trkpt>
      <trkpt lat="42.3685170" lon="-2.4873730">
        <ele>504.4</ele>
        <time>2020-02-01T13:19:31Z</time>
      </trkpt>
      <trkpt lat="42.3685900" lon="-2.4873520">
        <ele>504.0</ele>
        <time>2020-02-01T13:19:32Z</time>
      </trkpt>
      <trkpt lat="42.3686580" lon="-2.4873150">
        <ele>503.6</ele>
        <time>2020-02-01T13:19:33Z</time>
      </trkpt>
      <trkpt lat="42.3687530" lon="-2.4872710">
        <ele>503.1</ele>
        <time>2020-02-01T13:19:34Z</time>
      </trkpt>
      <trkpt lat="42.3688170" lon="-2.4872340">
        <ele>502.8</ele>
        <time>2020-02-01T13:19:35Z</time>
      </trkpt>
      <trkpt lat="42.3688880" lon="-2.4871950">
        <ele>502.6</ele>
        <time>2020-02-01T13:19:36Z</time>
      </trkpt>
      <trkpt lat="42.3689630" lon="-2.4871780">
        <ele>502.9</ele>
        <time>2020-02-01T13:19:37Z</time>
      </trkpt>
      <trkpt lat="42.3690260" lon="-2.4871510">
        <ele>503.1</ele>
        <time>2020-02-01T13:19:38Z</time>
      </trkpt>
      <trkpt lat="42.3691030" lon="-2.4870950">
        <ele>503.3</ele>
        <time>2020-02-01T13:19:39Z</time>
      </trkpt>
      <trkpt lat="42.3691800" lon="-2.4870620">
        <ele>503.4</ele>
        <time>2020-02-01T13:19:40Z</time>
      </trkpt>
      <trkpt lat="42.3692520" lon="-2.4870250">
        <ele>503.5</ele>
        <time>2020-02-01T13:19:41Z</time>
      </trkpt>
      <trkpt lat="42.3693180" lon="-2.4869820">
        <ele>503.5</ele>
        <time>2020-02-01T13:19:42Z</time>
      </trkpt>
      <trkpt lat="42.3693890" lon="-2.4869470">
        <ele>503.5</ele>
        <time>2020-02-01T13:19:43Z</time>
      </trkpt>
      <trkpt lat="42.3694540" lon="-2.4869080">
        <ele>503.5</ele>
        <time>2020-02-01T13:19:44Z</time>
      </trkpt>
      <trkpt lat="42.3694820" lon="-2.4868670">
        <ele>503.4</ele>
        <time>2020-02-01T13:19:45Z</time>
      </trkpt>
      <trkpt lat="42.3695680" lon="-2.4868320">
        <ele>503.4</ele>
        <time>2020-02-01T13:19:46Z</time>
      </trkpt>
      <trkpt lat="42.3696360" lon="-2.4867930">
        <ele>503.4</ele>
        <time>2020-02-01T13:19:47Z</time>
      </trkpt>
      <trkpt lat="42.3697060" lon="-2.4867410">
        <ele>503.4</ele>
        <time>2020-02-01T13:19:48Z</time>
      </trkpt>
      <trkpt lat="42.3697780" lon="-2.4867130">
        <ele>503.4</ele>
        <time>2020-02-01T13:19:49Z</time>
      </trkpt>
      <trkpt lat="42.3698740" lon="-2.4866880">
        <ele>503.4</ele>
        <time>2020-02-01T13:19:50Z</time>
      </trkpt>
      <trkpt lat="42.3699460" lon="-2.4866660">
        <ele>503.4</ele>
        <time>2020-02-01T13:19:51Z</time>
      </trkpt>
      <trkpt lat="42.3700090" lon="-2.4866230">
        <ele>503.4</ele>
        <time>2020-02-01T13:19:52Z</time>
      </trkpt>
      <trkpt lat="42.3700810" lon="-2.4865890">
        <ele>503.4</ele>
        <time>2020-02-01T13:19:53Z</time>
      </trkpt>
      <trkpt lat="42.3701760" lon="-2.4865310">
        <ele>503.3</ele>
        <time>2020-02-01T13:19:54Z</time>
      </trkpt>
      <trkpt lat="42.3702340" lon="-2.4864850">
        <ele>503.2</ele>
        <time>2020-02-01T13:19:55Z</time>
      </trkpt>
      <trkpt lat="42.3703070" lon="-2.4864490">
        <ele>503.1</ele>
        <time>2020-02-01T13:19:56Z</time>
      </trkpt>
      <trkpt lat="42.3703680" lon="-2.4864130">
        <ele>503.0</ele>
        <time>2020-02-01T13:19:57Z</time>
      </trkpt>
      <trkpt lat="42.3704360" lon="-2.4863790">
        <ele>502.9</ele>
        <time>2020-02-01T13:19:58Z</time>
      </trkpt>
      <trkpt lat="42.3705070" lon="-2.4863420">
        <ele>502.8</ele>
        <time>2020-02-01T13:19:59Z</time>
      </trkpt>
      <trkpt lat="42.3705710" lon="-2.4863060">
        <ele>502.7</ele>
        <time>2020-02-01T13:20:00Z</time>
      </trkpt>
      <trkpt lat="42.3706390" lon="-2.4862690">
        <ele>502.6</ele>
        <time>2020-02-01T13:20:01Z</time>
      </trkpt>
      <trkpt lat="42.3707140" lon="-2.4862270">
        <ele>502.5</ele>
        <time>2020-02-01T13:20:02Z</time>
      </trkpt>
      <trkpt lat="42.3707880" lon="-2.4861940">
        <ele>502.4</ele>
        <time>2020-02-01T13:20:03Z</time>
      </trkpt>
      <trkpt lat="42.3708590" lon="-2.4861570">
        <ele>502.3</ele>
        <time>2020-02-01T13:20:04Z</time>
      </trkpt>
      <trkpt lat="42.3709320" lon="-2.4861010">
        <ele>502.1</ele>
        <time>2020-02-01T13:20:05Z</time>
      </trkpt>
      <trkpt lat="42.3710210" lon="-2.4860570">
        <ele>502.0</ele>
        <time>2020-02-01T13:20:06Z</time>
      </trkpt>
      <trkpt lat="42.3711010" lon="-2.4860180">
        <ele>501.9</ele>
        <time>2020-02-01T13:20:07Z</time>
      </trkpt>
      <trkpt lat="42.3711750" lon="-2.4860030">
        <ele>501.8</ele>
        <time>2020-02-01T13:20:08Z</time>
      </trkpt>
      <trkpt lat="42.3712360" lon="-2.4859650">
        <ele>501.7</ele>
        <time>2020-02-01T13:20:09Z</time>
      </trkpt>
      <trkpt lat="42.3713080" lon="-2.4859300">
        <ele>501.6</ele>
        <time>2020-02-01T13:20:10Z</time>
      </trkpt>
      <trkpt lat="42.3713730" lon="-2.4858820">
        <ele>501.5</ele>
        <time>2020-02-01T13:20:11Z</time>
      </trkpt>
      <trkpt lat="42.3714520" lon="-2.4858390">
        <ele>501.4</ele>
        <time>2020-02-01T13:20:12Z</time>
      </trkpt>
      <trkpt lat="42.3715240" lon="-2.4858010">
        <ele>501.4</ele>
        <time>2020-02-01T13:20:13Z</time>
      </trkpt>
      <trkpt lat="42.3715920" lon="-2.4857730">
        <ele>501.4</ele>
        <time>2020-02-01T13:20:14Z</time>
      </trkpt>
      <trkpt lat="42.3716550" lon="-2.4857210">
        <ele>501.3</ele>
        <time>2020-02-01T13:20:15Z</time>
      </trkpt>
      <trkpt lat="42.3717240" lon="-2.4856910">
        <ele>501.3</ele>
        <time>2020-02-01T13:20:16Z</time>
      </trkpt>
      <trkpt lat="42.3717980" lon="-2.4856590">
        <ele>501.3</ele>
        <time>2020-02-01T13:20:17Z</time>
      </trkpt>
      <trkpt lat="42.3718500" lon="-2.4856200">
        <ele>501.3</ele>
        <time>2020-02-01T13:20:18Z</time>
      </trkpt>
      <trkpt lat="42.3719250" lon="-2.4855910">
        <ele>501.2</ele>
        <time>2020-02-01T13:20:19Z</time>
      </trkpt>
      <trkpt lat="42.3720030" lon="-2.4855650">
        <ele>501.2</ele>
        <time>2020-02-01T13:20:20Z</time>
      </trkpt>
      <trkpt lat="42.3720770" lon="-2.4855240">
        <ele>501.2</ele>
        <time>2020-02-01T13:20:21Z</time>
      </trkpt>
      <trkpt lat="42.3721490" lon="-2.4854900">
        <ele>501.2</ele>
        <time>2020-02-01T13:20:22Z</time>
      </trkpt>
      <trkpt lat="42.3722200" lon="-2.4854670">
        <ele>501.1</ele>
        <time>2020-02-01T13:20:23Z</time>
      </trkpt>
      <trkpt lat="42.3722920" lon="-2.4854260">
        <ele>501.1</ele>
        <time>2020-02-01T13:20:24Z</time>
      </trkpt>
      <trkpt lat="42.3723630" lon="-2.4853900">
        <ele>501.0</ele>
        <time>2020-02-01T13:20:25Z</time>
      </trkpt>
      <trkpt lat="42.3724270" lon="-2.4853350">
        <ele>500.9</ele>
        <time>2020-02-01T13:20:26Z</time>
      </trkpt>
      <trkpt lat="42.3725080" lon="-2.4853080">
        <ele>500.8</ele>
        <time>2020-02-01T13:20:27Z</time>
      </trkpt>
      <trkpt lat="42.3725740" lon="-2.4852710">
        <ele>500.7</ele>
        <time>2020-02-01T13:20:28Z</time>
      </trkpt>
      <trkpt lat="42.3726180" lon="-2.4852410">
        <ele>500.6</ele>
        <time>2020-02-01T13:20:29Z</time>
      </trkpt>
      <trkpt lat="42.3726900" lon="-2.4852070">
        <ele>500.5</ele>
        <time>2020-02-01T13:20:30Z</time>
      </trkpt>
      <trkpt lat="42.3727570" lon="-2.4851700">
        <ele>500.4</ele>
        <time>2020-02-01T13:20:31Z</time>
      </trkpt>
      <trkpt lat="42.3728420" lon="-2.4851070">
        <ele>500.2</ele>
        <time>2020-02-01T13:20:32Z</time>
      </trkpt>
      <trkpt lat="42.3729200" lon="-2.4850900">
        <ele>500.1</ele>
        <time>2020-02-01T13:20:33Z</time>
      </trkpt>
      <trkpt lat="42.3729910" lon="-2.4850550">
        <ele>499.9</ele>
        <time>2020-02-01T13:20:34Z</time>
      </trkpt>
      <trkpt lat="42.3730370" lon="-2.4850200">
        <ele>499.8</ele>
        <time>2020-02-01T13:20:35Z</time>
      </trkpt>
      <trkpt lat="42.3731160" lon="-2.4849890">
        <ele>499.6</ele>
        <time>2020-02-01T13:20:36Z</time>
      </trkpt>
      <trkpt lat="42.3732130" lon="-2.4849620">
        <ele>499.3</ele>
        <time>2020-02-01T13:20:37Z</time>
      </trkpt>
      <trkpt lat="42.3732890" lon="-2.4849240">
        <ele>499.1</ele>
        <time>2020-02-01T13:20:38Z</time>
      </trkpt>
      <trkpt lat="42.3733290" lon="-2.4848740">
        <ele>498.9</ele>
        <time>2020-02-01T13:20:39Z</time>
      </trkpt>
      <trkpt lat="42.3733950" lon="-2.4848340">
        <ele>498.8</ele>
        <time>2020-02-01T13:20:40Z</time>
      </trkpt>
      <trkpt lat="42.3734640" lon="-2.4847900">
        <ele>498.6</ele>
        <time>2020-02-01T13:20:41Z</time>
      </trkpt>
      <trkpt lat="42.3735390" lon="-2.4847650">
        <ele>498.5</ele>
        <time>2020-02-01T13:20:42Z</time>
      </trkpt>
      <trkpt lat="42.3736170" lon="-2.4847290">
        <ele>498.4</ele>
        <time>2020-02-01T13:20:43Z</time>
      </trkpt>
      <trkpt lat="42.3736850" lon="-2.4846900">
        <ele>498.3</ele>
        <time>2020-02-01T13:20:44Z</time>
      </trkpt>
      <trkpt lat="42.3737660" lon="-2.4846520">
        <ele>498.2</ele>
        <time>2020-02-01T13:20:45Z</time>
      </trkpt>
      <trkpt lat="42.3738130" lon="-2.4845990">
        <ele>498.2</ele>
        <time>2020-02-01T13:20:46Z</time>
      </trkpt>
      <trkpt lat="42.3738880" lon="-2.4845520">
        <ele>498.2</ele>
        <time>2020-02-01T13:20:47Z</time>
      </trkpt>
      <trkpt lat="42.3739680" lon="-2.4845190">
        <ele>498.1</ele>
        <time>2020-02-01T13:20:48Z</time>
      </trkpt>
      <trkpt lat="42.3740320" lon="-2.4844770">
        <ele>498.1</ele>
        <time>2020-02-01T13:20:49Z</time>
      </trkpt>
      <trkpt lat="42.3740920" lon="-2.4844510">
        <ele>498.0</ele>
        <time>2020-02-01T13:20:50Z</time>
      </trkpt>
      <trkpt lat="42.3741610" lon="-2.4844150">
        <ele>498.0</ele>
        <time>2020-02-01T13:20:51Z</time>
      </trkpt>
      <trkpt lat="42.3742260" lon="-2.4843790">
        <ele>497.9</ele>
        <time>2020-02-01T13:20:52Z</time>
      </trkpt>
      <trkpt lat="42.3742910" lon="-2.4843330">
        <ele>497.8</ele>
        <time>2020-02-01T13:20:53Z</time>
      </trkpt>
      <trkpt lat="42.3743600" lon="-2.4842960">
        <ele>497.7</ele>
        <time>2020-02-01T13:20:54Z</time>
      </trkpt>
      <trkpt lat="42.3744010" lon="-2.4842580">
        <ele>497.6</ele>
        <time>2020-02-01T13:20:55Z</time>
      </trkpt>
      <trkpt lat="42.3744750" lon="-2.4842260">
        <ele>497.5</ele>
        <time>2020-02-01T13:20:56Z</time>
      </trkpt>
      <trkpt lat="42.3745520" lon="-2.4841870">
        <ele>497.4</ele>
        <time>2020-02-01T13:20:57Z</time>
      </trkpt>
      <trkpt lat="42.3746280" lon="-2.4841480">
        <ele>497.3</ele>
        <time>2020-02-01T13:20:58Z</time>
      </trkpt>
      <trkpt lat="42.3746940" lon="-2.4841140">
        <ele>497.2</ele>
        <time>2020-02-01T13:20:59Z</time>
      </trkpt>
      <trkpt lat="42.3747610" lon="-2.4840760">
        <ele>497.1</ele>
        <time>2020-02-01T13:21:00Z</time>
      </trkpt>
      <trkpt lat="42.3748240" lon="-2.4840570">
        <ele>497.0</ele>
        <time>2020-02-01T13:21:01Z</time>
      </trkpt>
      <trkpt lat="42.3748950" lon="-2.4840270">
        <ele>496.9</ele>
        <time>2020-02-01T13:21:02Z</time>
      </trkpt>
      <trkpt lat="42.3749620" lon="-2.4839930">
        <ele>496.7</ele>
        <time>2020-02-01T13:21:03Z</time>
      </trkpt>
      <trkpt lat="42.3750320" lon="-2.4839640">
        <ele>496.6</ele>
        <time>2020-02-01T13:21:04Z</time>
      </trkpt>
      <trkpt lat="42.3751050" lon="-2.4839180">
        <ele>496.4</ele>
        <time>2020-02-01T13:21:05Z</time>
      </trkpt>
      <trkpt lat="42.3751740" lon="-2.4838820">
        <ele>496.2</ele>
        <time>2020-02-01T13:21:06Z</time>
      </trkpt>
      <trkpt lat="42.3752460" lon="-2.4838440">
        <ele>496.0</ele>
        <time>2020-02-01T13:21:07Z</time>
      </trkpt>
      <trkpt lat="42.3753280" lon="-2.4838060">
        <ele>495.9</ele>
        <time>2020-02-01T13:21:08Z</time>
      </trkpt>
      <trkpt lat="42.3754090" lon="-2.4837750">
        <ele>495.7</ele>
        <time>2020-02-01T13:21:09Z</time>
      </trkpt>
      <trkpt lat="42.3754680" lon="-2.4837380">
        <ele>495.6</ele>
        <time>2020-02-01T13:21:10Z</time>
      </trkpt>
      <trkpt lat="42.3755360" lon="-2.4836960">
        <ele>495.5</ele>
        <time>2020-02-01T13:21:11Z</time>
      </trkpt>
      <trkpt lat="42.3756000" lon="-2.4836560">
        <ele>495.4</ele>
        <time>2020-02-01T13:21:12Z</time>
      </trkpt>
      <trkpt lat="42.3756680" lon="-2.4836260">
        <ele>495.3</ele>
        <time>2020-02-01T13:21:13Z</time>
      </trkpt>
      <trkpt lat="42.3757360" lon="-2.4835910">
        <ele>495.2</ele>
        <time>2020-02-01T13:21:14Z</time>
      </trkpt>
      <trkpt lat="42.3758120" lon="-2.4835630">
        <ele>495.1</ele>
        <time>2020-02-01T13:21:15Z</time>
      </trkpt>
      <trkpt lat="42.3758900" lon="-2.4835210">
        <ele>495.0</ele>
        <time>2020-02-01T13:21:16Z</time>
      </trkpt>
      <trkpt lat="42.3759610" lon="-2.4834850">
        <ele>495.0</ele>
        <time>2020-02-01T13:21:17Z</time>
      </trkpt>
      <trkpt lat="42.3760530" lon="-2.4834200">
        <ele>494.9</ele>
        <time>2020-02-01T13:21:18Z</time>
      </trkpt>
      <trkpt lat="42.3761290" lon="-2.4833780">
        <ele>494.8</ele>
        <time>2020-02-01T13:21:19Z</time>
      </trkpt>
      <trkpt lat="42.3761950" lon="-2.4833650">
        <ele>494.6</ele>
        <time>2020-02-01T13:21:20Z</time>
      </trkpt>
      <trkpt lat="42.3762430" lon="-2.4833320">
        <ele>494.5</ele>
        <time>2020-02-01T13:21:21Z</time>
      </trkpt>
      <trkpt lat="42.3763280" lon="-2.4832970">
        <ele>494.3</ele>
        <time>2020-02-01T13:21:22Z</time>
      </trkpt>
      <trkpt lat="42.3763820" lon="-2.4832540">
        <ele>494.2</ele>
        <time>2020-02-01T13:21:23Z</time>
      </trkpt>
      <trkpt lat="42.3764460" lon="-2.4832130">
        <ele>494.1</ele>
        <time>2020-02-01T13:21:24Z</time>
      </trkpt>
      <trkpt lat="42.3765150" lon="-2.4831790">
        <ele>494.0</ele>
        <time>2020-02-01T13:21:25Z</time>
      </trkpt>
      <trkpt lat="42.3765730" lon="-2.4831360">
        <ele>494.0</ele>
        <time>2020-02-01T13:21:26Z</time>
      </trkpt>
      <trkpt lat="42.3766370" lon="-2.4831080">
        <ele>493.8</ele>
        <time>2020-02-01T13:21:27Z</time>
      </trkpt>
      <trkpt lat="42.3766330" lon="-2.4830660">
        <ele>493.8</ele>
        <time>2020-02-01T13:21:28Z</time>
      </trkpt>
      <trkpt lat="42.3766900" lon="-2.4830300">
        <ele>493.6</ele>
        <time>2020-02-01T13:21:29Z</time>
      </trkpt>
      <trkpt lat="42.3767520" lon="-2.4829960">
        <ele>493.5</ele>
        <time>2020-02-01T13:21:30Z</time>
      </trkpt>
      <trkpt lat="42.3768150" lon="-2.4829660">
        <ele>493.3</ele>
        <time>2020-02-01T13:21:31Z</time>
      </trkpt>
      <trkpt lat="42.3768830" lon="-2.4829370">
        <ele>493.2</ele>
        <time>2020-02-01T13:21:32Z</time>
      </trkpt>
      <trkpt lat="42.3769500" lon="-2.4829060">
        <ele>493.2</ele>
        <time>2020-02-01T13:21:33Z</time>
      </trkpt>
      <trkpt lat="42.3770250" lon="-2.4828780">
        <ele>493.2</ele>
        <time>2020-02-01T13:21:34Z</time>
      </trkpt>
      <trkpt lat="42.3771050" lon="-2.4828300">
        <ele>493.1</ele>
        <time>2020-02-01T13:21:35Z</time>
      </trkpt>
      <trkpt lat="42.3771790" lon="-2.4827880">
        <ele>493.1</ele>
        <time>2020-02-01T13:21:36Z</time>
      </trkpt>
      <trkpt lat="42.3772490" lon="-2.4827470">
        <ele>493.1</ele>
        <time>2020-02-01T13:21:37Z</time>
      </trkpt>
      <trkpt lat="42.3773210" lon="-2.4827090">
        <ele>493.1</ele>
        <time>2020-02-01T13:21:38Z</time>
      </trkpt>
      <trkpt lat="42.3773930" lon="-2.4826660">
        <ele>493.1</ele>
        <time>2020-02-01T13:21:39Z</time>
      </trkpt>
      <trkpt lat="42.3774720" lon="-2.4826290">
        <ele>493.1</ele>
        <time>2020-02-01T13:21:40Z</time>
      </trkpt>
      <trkpt lat="42.3775450" lon="-2.4825880">
        <ele>493.1</ele>
        <time>2020-02-01T13:21:41Z</time>
      </trkpt>
      <trkpt lat="42.3776190" lon="-2.4825490">
        <ele>493.0</ele>
        <time>2020-02-01T13:21:42Z</time>
      </trkpt>
      <trkpt lat="42.3777150" lon="-2.4825170">
        <ele>492.8</ele>
        <time>2020-02-01T13:21:43Z</time>
      </trkpt>
      <trkpt lat="42.3777880" lon="-2.4824790">
        <ele>492.6</ele>
        <time>2020-02-01T13:21:44Z</time>
      </trkpt>
      <trkpt lat="42.3778600" lon="-2.4824380">
        <ele>492.5</ele>
        <time>2020-02-01T13:21:45Z</time>
      </trkpt>
      <trkpt lat="42.3779310" lon="-2.4824070">
        <ele>492.3</ele>
        <time>2020-02-01T13:21:46Z</time>
      </trkpt>
      <trkpt lat="42.3779970" lon="-2.4823710">
        <ele>492.3</ele>
        <time>2020-02-01T13:21:47Z</time>
      </trkpt>
      <trkpt lat="42.3780780" lon="-2.4823140">
        <ele>492.2</ele>
        <time>2020-02-01T13:21:48Z</time>
      </trkpt>
      <trkpt lat="42.3781500" lon="-2.4822760">
        <ele>492.2</ele>
        <time>2020-02-01T13:21:49Z</time>
      </trkpt>
      <trkpt lat="42.3782350" lon="-2.4822450">
        <ele>492.2</ele>
        <time>2020-02-01T13:21:50Z</time>
      </trkpt>
      <trkpt lat="42.3782970" lon="-2.4822070">
        <ele>492.2</ele>
        <time>2020-02-01T13:21:51Z</time>
      </trkpt>
      <trkpt lat="42.3783670" lon="-2.4821680">
        <ele>492.2</ele>
        <time>2020-02-01T13:21:52Z</time>
      </trkpt>
      <trkpt lat="42.3784230" lon="-2.4821190">
        <ele>492.2</ele>
        <time>2020-02-01T13:21:53Z</time>
      </trkpt>
      <trkpt lat="42.3784980" lon="-2.4821010">
        <ele>492.2</ele>
        <time>2020-02-01T13:21:54Z</time>
      </trkpt>
      <trkpt lat="42.3785780" lon="-2.4820540">
        <ele>492.2</ele>
        <time>2020-02-01T13:21:55Z</time>
      </trkpt>
      <trkpt lat="42.3786570" lon="-2.4820150">
        <ele>492.2</ele>
        <time>2020-02-01T13:21:56Z</time>
      </trkpt>
      <trkpt lat="42.3787310" lon="-2.4819770">
        <ele>492.1</ele>
        <time>2020-02-01T13:21:57Z</time>
      </trkpt>
      <trkpt lat="42.3787990" lon="-2.4819440">
        <ele>492.1</ele>
        <time>2020-02-01T13:21:58Z</time>
      </trkpt>
      <trkpt lat="42.3788670" lon="-2.4819110">
        <ele>492.1</ele>
        <time>2020-02-01T13:21:59Z</time>
      </trkpt>
      <trkpt lat="42.3789380" lon="-2.4818730">
        <ele>492.0</ele>
        <time>2020-02-01T13:22:00Z</time>
      </trkpt>
      <trkpt lat="42.3790110" lon="-2.4818410">
        <ele>491.8</ele>
        <time>2020-02-01T13:22:01Z</time>
      </trkpt>
      <trkpt lat="42.3790840" lon="-2.4818020">
        <ele>491.6</ele>
        <time>2020-02-01T13:22:02Z</time>
      </trkpt>
      <trkpt lat="42.3791520" lon="-2.4817710">
        <ele>491.5</ele>
        <time>2020-02-01T13:22:03Z</time>
      </trkpt>
      <trkpt lat="42.3792180" lon="-2.4817370">
        <ele>491.3</ele>
        <time>2020-02-01T13:22:04Z</time>
      </trkpt>
      <trkpt lat="42.3792910" lon="-2.4816980">
        <ele>491.2</ele>
        <time>2020-02-01T13:22:05Z</time>
      </trkpt>
      <trkpt lat="42.3793560" lon="-2.4816580">
        <ele>491.0</ele>
        <time>2020-02-01T13:22:06Z</time>
      </trkpt>
      <trkpt lat="42.3794260" lon="-2.4816210">
        <ele>490.9</ele>
        <time>2020-02-01T13:22:07Z</time>
      </trkpt>
      <trkpt lat="42.3794930" lon="-2.4815840">
        <ele>490.7</ele>
        <time>2020-02-01T13:22:08Z</time>
      </trkpt>
      <trkpt lat="42.3795590" lon="-2.4815530">
        <ele>490.5</ele>
        <time>2020-02-01T13:22:09Z</time>
      </trkpt>
      <trkpt lat="42.3796250" lon="-2.4815180">
        <ele>490.3</ele>
        <time>2020-02-01T13:22:10Z</time>
      </trkpt>
      <trkpt lat="42.3796950" lon="-2.4814840">
        <ele>490.2</ele>
        <time>2020-02-01T13:22:11Z</time>
      </trkpt>
      <trkpt lat="42.3797600" lon="-2.4814520">
        <ele>490.0</ele>
        <time>2020-02-01T13:22:12Z</time>
      </trkpt>
      <trkpt lat="42.3798220" lon="-2.4814220">
        <ele>489.9</ele>
        <time>2020-02-01T13:22:13Z</time>
      </trkpt>
      <trkpt lat="42.3798770" lon="-2.4813840">
        <ele>489.8</ele>
        <time>2020-02-01T13:22:14Z</time>
      </trkpt>
      <trkpt lat="42.3799230" lon="-2.4813470">
        <ele>489.6</ele>
        <time>2020-02-01T13:22:15Z</time>
      </trkpt>
      <trkpt lat="42.3799840" lon="-2.4813120">
        <ele>489.5</ele>
        <time>2020-02-01T13:22:16Z</time>
      </trkpt>
      <trkpt lat="42.3800480" lon="-2.4812780">
        <ele>489.3</ele>
        <time>2020-02-01T13:22:17Z</time>
      </trkpt>
      <trkpt lat="42.3801080" lon="-2.4812440">
        <ele>489.2</ele>
        <time>2020-02-01T13:22:18Z</time>
      </trkpt>
      <trkpt lat="42.3801700" lon="-2.4812110">
        <ele>489.0</ele>
        <time>2020-02-01T13:22:19Z</time>
      </trkpt>
      <trkpt lat="42.3802290" lon="-2.4811800">
        <ele>488.9</ele>
        <time>2020-02-01T13:22:20Z</time>
      </trkpt>
      <trkpt lat="42.3802930" lon="-2.4811500">
        <ele>488.9</ele>
        <time>2020-02-01T13:22:21Z</time>
      </trkpt>
      <trkpt lat="42.3803580" lon="-2.4811230">
        <ele>488.9</ele>
        <time>2020-02-01T13:22:22Z</time>
      </trkpt>
      <trkpt lat="42.3804170" lon="-2.4810950">
        <ele>488.9</ele>
        <time>2020-02-01T13:22:23Z</time>
      </trkpt>
      <trkpt lat="42.3804770" lon="-2.4810680">
        <ele>488.8</ele>
        <time>2020-02-01T13:22:24Z</time>
      </trkpt>
      <trkpt lat="42.3805450" lon="-2.4810350">
        <ele>488.8</ele>
        <time>2020-02-01T13:22:25Z</time>
      </trkpt>
      <trkpt lat="42.3806110" lon="-2.4809980">
        <ele>488.8</ele>
        <time>2020-02-01T13:22:26Z</time>
      </trkpt>
      <trkpt lat="42.3806770" lon="-2.4809630">
        <ele>488.7</ele>
        <time>2020-02-01T13:22:27Z</time>
      </trkpt>
      <trkpt lat="42.3807350" lon="-2.4809260">
        <ele>488.6</ele>
        <time>2020-02-01T13:22:28Z</time>
      </trkpt>
      <trkpt lat="42.3808040" lon="-2.4808890">
        <ele>488.5</ele>
        <time>2020-02-01T13:22:29Z</time>
      </trkpt>
      <trkpt lat="42.3808790" lon="-2.4808550">
        <ele>488.4</ele>
        <time>2020-02-01T13:22:30Z</time>
      </trkpt>
      <trkpt lat="42.3809460" lon="-2.4808180">
        <ele>488.2</ele>
        <time>2020-02-01T13:22:31Z</time>
      </trkpt>
      <trkpt lat="42.3810210" lon="-2.4807760">
        <ele>488.1</ele>
        <time>2020-02-01T13:22:32Z</time>
      </trkpt>
      <trkpt lat="42.3810950" lon="-2.4807360">
        <ele>488.1</ele>
        <time>2020-02-01T13:22:33Z</time>
      </trkpt>
      <trkpt lat="42.3811690" lon="-2.4806960">
        <ele>488.1</ele>
        <time>2020-02-01T13:22:34Z</time>
      </trkpt>
      <trkpt lat="42.3812490" lon="-2.4806610">
        <ele>488.1</ele>
        <time>2020-02-01T13:22:35Z</time>
      </trkpt>
      <trkpt lat="42.3813180" lon="-2.4806230">
        <ele>488.1</ele>
        <time>2020-02-01T13:22:36Z</time>
      </trkpt>
      <trkpt lat="42.3813970" lon="-2.4805810">
        <ele>488.1</ele>
        <time>2020-02-01T13:22:37Z</time>
      </trkpt>
      <trkpt lat="42.3814830" lon="-2.4805390">
        <ele>488.0</ele>
        <time>2020-02-01T13:22:38Z</time>
      </trkpt>
      <trkpt lat="42.3815620" lon="-2.4805000">
        <ele>488.0</ele>
        <time>2020-02-01T13:22:39Z</time>
      </trkpt>
      <trkpt lat="42.3816410" lon="-2.4804560">
        <ele>487.8</ele>
        <time>2020-02-01T13:22:40Z</time>
      </trkpt>
      <trkpt lat="42.3817150" lon="-2.4804070">
        <ele>487.7</ele>
        <time>2020-02-01T13:22:41Z</time>
      </trkpt>
      <trkpt lat="42.3817810" lon="-2.4803620">
        <ele>487.6</ele>
        <time>2020-02-01T13:22:42Z</time>
      </trkpt>
      <trkpt lat="42.3818590" lon="-2.4803240">
        <ele>487.5</ele>
        <time>2020-02-01T13:22:43Z</time>
      </trkpt>
      <trkpt lat="42.3819490" lon="-2.4802820">
        <ele>487.4</ele>
        <time>2020-02-01T13:22:44Z</time>
      </trkpt>
      <trkpt lat="42.3820140" lon="-2.4802460">
        <ele>487.3</ele>
        <time>2020-02-01T13:22:45Z</time>
      </trkpt>
      <trkpt lat="42.3820840" lon="-2.4802070">
        <ele>487.2</ele>
        <time>2020-02-01T13:22:46Z</time>
      </trkpt>
      <trkpt lat="42.3821640" lon="-2.4801690">
        <ele>487.1</ele>
        <time>2020-02-01T13:22:47Z</time>
      </trkpt>
      <trkpt lat="42.3822380" lon="-2.4801270">
        <ele>487.0</ele>
        <time>2020-02-01T13:22:48Z</time>
      </trkpt>
      <trkpt lat="42.3823030" lon="-2.4800880">
        <ele>486.9</ele>
        <time>2020-02-01T13:22:49Z</time>
      </trkpt>
      <trkpt lat="42.3823790" lon="-2.4800510">
        <ele>486.9</ele>
        <time>2020-02-01T13:22:50Z</time>
      </trkpt>
      <trkpt lat="42.3824440" lon="-2.4800100">
        <ele>486.8</ele>
        <time>2020-02-01T13:22:51Z</time>
      </trkpt>
      <trkpt lat="42.3825170" lon="-2.4799710">
        <ele>486.7</ele>
        <time>2020-02-01T13:22:52Z</time>
      </trkpt>
      <trkpt lat="42.3825890" lon="-2.4799320">
        <ele>486.6</ele>
        <time>2020-02-01T13:22:53Z</time>
      </trkpt>
      <trkpt lat="42.3826680" lon="-2.4798900">
        <ele>486.4</ele>
        <time>2020-02-01T13:22:54Z</time>
      </trkpt>
      <trkpt lat="42.3827460" lon="-2.4798540">
        <ele>486.3</ele>
        <time>2020-02-01T13:22:55Z</time>
      </trkpt>
      <trkpt lat="42.3828220" lon="-2.4798170">
        <ele>486.2</ele>
        <time>2020-02-01T13:22:56Z</time>
      </trkpt>
      <trkpt lat="42.3828850" lon="-2.4797790">
        <ele>486.1</ele>
        <time>2020-02-01T13:22:57Z</time>
      </trkpt>
      <trkpt lat="42.3829510" lon="-2.4797450">
        <ele>486.0</ele>
        <time>2020-02-01T13:22:58Z</time>
      </trkpt>
      <trkpt lat="42.3830060" lon="-2.4797110">
        <ele>485.9</ele>
        <time>2020-02-01T13:22:59Z</time>
      </trkpt>
      <trkpt lat="42.3830790" lon="-2.4796860">
        <ele>485.7</ele>
        <time>2020-02-01T13:23:00Z</time>
      </trkpt>
      <trkpt lat="42.3831480" lon="-2.4796490">
        <ele>485.6</ele>
        <time>2020-02-01T13:23:01Z</time>
      </trkpt>
      <trkpt lat="42.3832190" lon="-2.4796070">
        <ele>485.5</ele>
        <time>2020-02-01T13:23:02Z</time>
      </trkpt>
      <trkpt lat="42.3832820" lon="-2.4795680">
        <ele>485.3</ele>
        <time>2020-02-01T13:23:03Z</time>
      </trkpt>
      <trkpt lat="42.3833530" lon="-2.4795310">
        <ele>485.2</ele>
        <time>2020-02-01T13:23:04Z</time>
      </trkpt>
      <trkpt lat="42.3834220" lon="-2.4794910">
        <ele>485.0</ele>
        <time>2020-02-01T13:23:05Z</time>
      </trkpt>
      <trkpt lat="42.3834920" lon="-2.4794560">
        <ele>484.9</ele>
        <time>2020-02-01T13:23:06Z</time>
      </trkpt>
      <trkpt lat="42.3835590" lon="-2.4794170">
        <ele>484.7</ele>
        <time>2020-02-01T13:23:07Z</time>
      </trkpt>
      <trkpt lat="42.3836310" lon="-2.4793830">
        <ele>484.6</ele>
        <time>2020-02-01T13:23:08Z</time>
      </trkpt>
      <trkpt lat="42.3836990" lon="-2.4793480">
        <ele>484.4</ele>
        <time>2020-02-01T13:23:09Z</time>
      </trkpt>
      <trkpt lat="42.3837670" lon="-2.4793050">
        <ele>484.3</ele>
        <time>2020-02-01T13:23:10Z</time>
      </trkpt>
      <trkpt lat="42.3838380" lon="-2.4792640">
        <ele>484.2</ele>
        <time>2020-02-01T13:23:11Z</time>
      </trkpt>
      <trkpt lat="42.3839100" lon="-2.4792260">
        <ele>484.1</ele>
        <time>2020-02-01T13:23:12Z</time>
      </trkpt>
      <trkpt lat="42.3839900" lon="-2.4791900">
        <ele>484.0</ele>
        <time>2020-02-01T13:23:13Z</time>
      </trkpt>
      <trkpt lat="42.3840630" lon="-2.4791540">
        <ele>483.9</ele>
        <time>2020-02-01T13:23:14Z</time>
      </trkpt>
      <trkpt lat="42.3841360" lon="-2.4791110">
        <ele>483.8</ele>
        <time>2020-02-01T13:23:15Z</time>
      </trkpt>
      <trkpt lat="42.3842020" lon="-2.4790740">
        <ele>483.7</ele>
        <time>2020-02-01T13:23:16Z</time>
      </trkpt>
      <trkpt lat="42.3842720" lon="-2.4790320">
        <ele>483.6</ele>
        <time>2020-02-01T13:23:17Z</time>
      </trkpt>
      <trkpt lat="42.3843530" lon="-2.4789850">
        <ele>483.5</ele>
        <time>2020-02-01T13:23:18Z</time>
      </trkpt>
      <trkpt lat="42.3844270" lon="-2.4789570">
        <ele>483.3</ele>
        <time>2020-02-01T13:23:19Z</time>
      </trkpt>
      <trkpt lat="42.3845000" lon="-2.4789120">
        <ele>483.2</ele>
        <time>2020-02-01T13:23:20Z</time>
      </trkpt>
      <trkpt lat="42.3845730" lon="-2.4788730">
        <ele>483.1</ele>
        <time>2020-02-01T13:23:21Z</time>
      </trkpt>
      <trkpt lat="42.3846350" lon="-2.4788370">
        <ele>483.0</ele>
        <time>2020-02-01T13:23:22Z</time>
      </trkpt>
      <trkpt lat="42.3847180" lon="-2.4788000">
        <ele>482.8</ele>
        <time>2020-02-01T13:23:23Z</time>
      </trkpt>
      <trkpt lat="42.3847930" lon="-2.4787600">
        <ele>482.6</ele>
        <time>2020-02-01T13:23:24Z</time>
      </trkpt>
      <trkpt lat="42.3848510" lon="-2.4787320">
        <ele>482.5</ele>
        <time>2020-02-01T13:23:25Z</time>
      </trkpt>
      <trkpt lat="42.3849210" lon="-2.4786810">
        <ele>482.4</ele>
        <time>2020-02-01T13:23:26Z</time>
      </trkpt>
      <trkpt lat="42.3849990" lon="-2.4786580">
        <ele>482.2</ele>
        <time>2020-02-01T13:23:27Z</time>
      </trkpt>
      <trkpt lat="42.3850700" lon="-2.4786260">
        <ele>482.1</ele>
        <time>2020-02-01T13:23:28Z</time>
      </trkpt>
      <trkpt lat="42.3851360" lon="-2.4786010">
        <ele>482.0</ele>
        <time>2020-02-01T13:23:29Z</time>
      </trkpt>
      <trkpt lat="42.3852050" lon="-2.4785630">
        <ele>482.0</ele>
        <time>2020-02-01T13:23:30Z</time>
      </trkpt>
      <trkpt lat="42.3852610" lon="-2.4785260">
        <ele>481.9</ele>
        <time>2020-02-01T13:23:31Z</time>
      </trkpt>
      <trkpt lat="42.3853400" lon="-2.4784850">
        <ele>481.7</ele>
        <time>2020-02-01T13:23:32Z</time>
      </trkpt>
      <trkpt lat="42.3854000" lon="-2.4784470">
        <ele>481.6</ele>
        <time>2020-02-01T13:23:33Z</time>
      </trkpt>
      <trkpt lat="42.3854660" lon="-2.4784210">
        <ele>481.5</ele>
        <time>2020-02-01T13:23:34Z</time>
      </trkpt>
      <trkpt lat="42.3855400" lon="-2.4783900">
        <ele>481.4</ele>
        <time>2020-02-01T13:23:35Z</time>
      </trkpt>
      <trkpt lat="42.3856130" lon="-2.4783510">
        <ele>481.2</ele>
        <time>2020-02-01T13:23:36Z</time>
      </trkpt>
      <trkpt lat="42.3856820" lon="-2.4783050">
        <ele>481.1</ele>
        <time>2020-02-01T13:23:37Z</time>
      </trkpt>
      <trkpt lat="42.3857500" lon="-2.4782650">
        <ele>481.0</ele>
        <time>2020-02-01T13:23:38Z</time>
      </trkpt>
      <trkpt lat="42.3858180" lon="-2.4782280">
        <ele>480.8</ele>
        <time>2020-02-01T13:23:39Z</time>
      </trkpt>
      <trkpt lat="42.3858850" lon="-2.4781880">
        <ele>480.7</ele>
        <time>2020-02-01T13:23:40Z</time>
      </trkpt>
      <trkpt lat="42.3859650" lon="-2.4781490">
        <ele>480.6</ele>
        <time>2020-02-01T13:23:41Z</time>
      </trkpt>
      <trkpt lat="42.3860320" lon="-2.4781120">
        <ele>480.5</ele>
        <time>2020-02-01T13:23:42Z</time>
      </trkpt>
      <trkpt lat="42.3860950" lon="-2.4780700">
        <ele>480.3</ele>
        <time>2020-02-01T13:23:43Z</time>
      </trkpt>
      <trkpt lat="42.3861650" lon="-2.4780290">
        <ele>480.2</ele>
        <time>2020-02-01T13:23:44Z</time>
      </trkpt>
      <trkpt lat="42.3862340" lon="-2.4779940">
        <ele>480.1</ele>
        <time>2020-02-01T13:23:45Z</time>
      </trkpt>
      <trkpt lat="42.3862990" lon="-2.4779550">
        <ele>480.0</ele>
        <time>2020-02-01T13:23:46Z</time>
      </trkpt>
      <trkpt lat="42.3863730" lon="-2.4779190">
        <ele>479.8</ele>
        <time>2020-02-01T13:23:47Z</time>
      </trkpt>
      <trkpt lat="42.3864360" lon="-2.4778870">
        <ele>479.7</ele>
        <time>2020-02-01T13:23:48Z</time>
      </trkpt>
      <trkpt lat="42.3865050" lon="-2.4778490">
        <ele>479.6</ele>
        <time>2020-02-01T13:23:49Z</time>
      </trkpt>
      <trkpt lat="42.3865780" lon="-2.4778140">
        <ele>479.5</ele>
        <time>2020-02-01T13:23:50Z</time>
      </trkpt>
      <trkpt lat="42.3866460" lon="-2.4777760">
        <ele>479.3</ele>
        <time>2020-02-01T13:23:51Z</time>
      </trkpt>
      <trkpt lat="42.3867130" lon="-2.4777370">
        <ele>479.2</ele>
        <time>2020-02-01T13:23:52Z</time>
      </trkpt>
      <trkpt lat="42.3867790" lon="-2.4776980">
        <ele>479.1</ele>
        <time>2020-02-01T13:23:53Z</time>
      </trkpt>
      <trkpt lat="42.3868500" lon="-2.4776600">
        <ele>478.9</ele>
        <time>2020-02-01T13:23:54Z</time>
      </trkpt>
      <trkpt lat="42.3869210" lon="-2.4776200">
        <ele>478.7</ele>
        <time>2020-02-01T13:23:55Z</time>
      </trkpt>
      <trkpt lat="42.3869810" lon="-2.4775850">
        <ele>478.6</ele>
        <time>2020-02-01T13:23:56Z</time>
      </trkpt>
      <trkpt lat="42.3870490" lon="-2.4775430">
        <ele>478.4</ele>
        <time>2020-02-01T13:23:57Z</time>
      </trkpt>
      <trkpt lat="42.3871220" lon="-2.4775080">
        <ele>478.3</ele>
        <time>2020-02-01T13:23:58Z</time>
      </trkpt>
      <trkpt lat="42.3871910" lon="-2.4774720">
        <ele>478.2</ele>
        <time>2020-02-01T13:23:59Z</time>
      </trkpt>
      <trkpt lat="42.3872550" lon="-2.4774380">
        <ele>478.1</ele>
        <time>2020-02-01T13:24:00Z</time>
      </trkpt>
      <trkpt lat="42.3873230" lon="-2.4774000">
        <ele>478.0</ele>
        <time>2020-02-01T13:24:01Z</time>
      </trkpt>
      <trkpt lat="42.3873900" lon="-2.4773630">
        <ele>477.9</ele>
        <time>2020-02-01T13:24:02Z</time>
      </trkpt>
      <trkpt lat="42.3874490" lon="-2.4773220">
        <ele>477.8</ele>
        <time>2020-02-01T13:24:03Z</time>
      </trkpt>
      <trkpt lat="42.3875120" lon="-2.4772820">
        <ele>477.7</ele>
        <time>2020-02-01T13:24:04Z</time>
      </trkpt>
      <trkpt lat="42.3875860" lon="-2.4772550">
        <ele>477.6</ele>
        <time>2020-02-01T13:24:05Z</time>
      </trkpt>
      <trkpt lat="42.3876470" lon="-2.4772210">
        <ele>477.5</ele>
        <time>2020-02-01T13:24:06Z</time>
      </trkpt>
      <trkpt lat="42.3877110" lon="-2.4771870">
        <ele>477.4</ele>
        <time>2020-02-01T13:24:07Z</time>
      </trkpt>
      <trkpt lat="42.3877710" lon="-2.4771550">
        <ele>477.3</ele>
        <time>2020-02-01T13:24:08Z</time>
      </trkpt>
      <trkpt lat="42.3878280" lon="-2.4771210">
        <ele>477.2</ele>
        <time>2020-02-01T13:24:09Z</time>
      </trkpt>
      <trkpt lat="42.3878900" lon="-2.4770880">
        <ele>477.1</ele>
        <time>2020-02-01T13:24:10Z</time>
      </trkpt>
      <trkpt lat="42.3879590" lon="-2.4770530">
        <ele>477.0</ele>
        <time>2020-02-01T13:24:11Z</time>
      </trkpt>
      <trkpt lat="42.3880230" lon="-2.4770220">
        <ele>476.9</ele>
        <time>2020-02-01T13:24:12Z</time>
      </trkpt>
      <trkpt lat="42.3880880" lon="-2.4769870">
        <ele>476.8</ele>
        <time>2020-02-01T13:24:13Z</time>
      </trkpt>
      <trkpt lat="42.3881540" lon="-2.4769540">
        <ele>476.7</ele>
        <time>2020-02-01T13:24:14Z</time>
      </trkpt>
      <trkpt lat="42.3882170" lon="-2.4769170">
        <ele>476.6</ele>
        <time>2020-02-01T13:24:15Z</time>
      </trkpt>
      <trkpt lat="42.3882760" lon="-2.4768870">
        <ele>476.5</ele>
        <time>2020-02-01T13:24:16Z</time>
      </trkpt>
      <trkpt lat="42.3883370" lon="-2.4768530">
        <ele>476.4</ele>
        <time>2020-02-01T13:24:17Z</time>
      </trkpt>
      <trkpt lat="42.3884000" lon="-2.4768250">
        <ele>476.3</ele>
        <time>2020-02-01T13:24:18Z</time>
      </trkpt>
      <trkpt lat="42.3884600" lon="-2.4767860">
        <ele>476.2</ele>
        <time>2020-02-01T13:24:19Z</time>
      </trkpt>
      <trkpt lat="42.3885230" lon="-2.4767610">
        <ele>476.1</ele>
        <time>2020-02-01T13:24:20Z</time>
      </trkpt>
      <trkpt lat="42.3885840" lon="-2.4767250">
        <ele>476.0</ele>
        <time>2020-02-01T13:24:21Z</time>
      </trkpt>
      <trkpt lat="42.3886440" lon="-2.4766930">
        <ele>475.9</ele>
        <time>2020-02-01T13:24:22Z</time>
      </trkpt>
      <trkpt lat="42.3887110" lon="-2.4766560">
        <ele>475.9</ele>
        <time>2020-02-01T13:24:23Z</time>
      </trkpt>
      <trkpt lat="42.3887760" lon="-2.4766130">
        <ele>475.8</ele>
        <time>2020-02-01T13:24:24Z</time>
      </trkpt>
      <trkpt lat="42.3888410" lon="-2.4765720">
        <ele>475.7</ele>
        <time>2020-02-01T13:24:25Z</time>
      </trkpt>
      <trkpt lat="42.3889230" lon="-2.4765370">
        <ele>475.5</ele>
        <time>2020-02-01T13:24:26Z</time>
      </trkpt>
      <trkpt lat="42.3890050" lon="-2.4765010">
        <ele>475.4</ele>
        <time>2020-02-01T13:24:27Z</time>
      </trkpt>
      <trkpt lat="42.3890790" lon="-2.4764570">
        <ele>475.2</ele>
        <time>2020-02-01T13:24:28Z</time>
      </trkpt>
      <trkpt lat="42.3891430" lon="-2.4764040">
        <ele>475.1</ele>
        <time>2020-02-01T13:24:29Z</time>
      </trkpt>
      <trkpt lat="42.3891990" lon="-2.4763620">
        <ele>474.9</ele>
        <time>2020-02-01T13:24:30Z</time>
      </trkpt>
      <trkpt lat="42.3892590" lon="-2.4763200">
        <ele>474.8</ele>
        <time>2020-02-01T13:24:31Z</time>
      </trkpt>
      <trkpt lat="42.3893240" lon="-2.4762800">
        <ele>474.6</ele>
        <time>2020-02-01T13:24:32Z</time>
      </trkpt>
      <trkpt lat="42.3893900" lon="-2.4762480">
        <ele>474.5</ele>
        <time>2020-02-01T13:24:33Z</time>
      </trkpt>
      <trkpt lat="42.3894550" lon="-2.4762200">
        <ele>474.3</ele>
        <time>2020-02-01T13:24:34Z</time>
      </trkpt>
      <trkpt lat="42.3895200" lon="-2.4761820">
        <ele>473.9</ele>
        <time>2020-02-01T13:24:35Z</time>
      </trkpt>
      <trkpt lat="42.3895820" lon="-2.4761500">
        <ele>473.8</ele>
        <time>2020-02-01T13:24:36Z</time>
      </trkpt>
      <trkpt lat="42.3896450" lon="-2.4761230">
        <ele>473.7</ele>
        <time>2020-02-01T13:24:37Z</time>
      </trkpt>
      <trkpt lat="42.3897040" lon="-2.4760860">
        <ele>473.6</ele>
        <time>2020-02-01T13:24:38Z</time>
      </trkpt>
      <trkpt lat="42.3897670" lon="-2.4760540">
        <ele>473.4</ele>
        <time>2020-02-01T13:24:39Z</time>
      </trkpt>
      <trkpt lat="42.3898290" lon="-2.4760180">
        <ele>473.3</ele>
        <time>2020-02-01T13:24:40Z</time>
      </trkpt>
      <trkpt lat="42.3898870" lon="-2.4759840">
        <ele>473.1</ele>
        <time>2020-02-01T13:24:41Z</time>
      </trkpt>
      <trkpt lat="42.3899510" lon="-2.4759550">
        <ele>473.0</ele>
        <time>2020-02-01T13:24:42Z</time>
      </trkpt>
      <trkpt lat="42.3900250" lon="-2.4759200">
        <ele>472.8</ele>
        <time>2020-02-01T13:24:43Z</time>
      </trkpt>
      <trkpt lat="42.3900950" lon="-2.4758820">
        <ele>472.6</ele>
        <time>2020-02-01T13:24:44Z</time>
      </trkpt>
      <trkpt lat="42.3901630" lon="-2.4758490">
        <ele>472.4</ele>
        <time>2020-02-01T13:24:45Z</time>
      </trkpt>
      <trkpt lat="42.3902320" lon="-2.4758080">
        <ele>472.2</ele>
        <time>2020-02-01T13:24:46Z</time>
      </trkpt>
      <trkpt lat="42.3903070" lon="-2.4757740">
        <ele>472.0</ele>
        <time>2020-02-01T13:24:47Z</time>
      </trkpt>
      <trkpt lat="42.3903690" lon="-2.4757330">
        <ele>471.8</ele>
        <time>2020-02-01T13:24:48Z</time>
      </trkpt>
      <trkpt lat="42.3904250" lon="-2.4757000">
        <ele>471.7</ele>
        <time>2020-02-01T13:24:49Z</time>
      </trkpt>
      <trkpt lat="42.3904820" lon="-2.4756690">
        <ele>471.5</ele>
        <time>2020-02-01T13:24:50Z</time>
      </trkpt>
      <trkpt lat="42.3905490" lon="-2.4756480">
        <ele>471.4</ele>
        <time>2020-02-01T13:24:51Z</time>
      </trkpt>
      <trkpt lat="42.3906140" lon="-2.4756080">
        <ele>471.3</ele>
        <time>2020-02-01T13:24:52Z</time>
      </trkpt>
      <trkpt lat="42.3906690" lon="-2.4755640">
        <ele>471.2</ele>
        <time>2020-02-01T13:24:53Z</time>
      </trkpt>
      <trkpt lat="42.3907380" lon="-2.4755250">
        <ele>471.2</ele>
        <time>2020-02-01T13:24:54Z</time>
      </trkpt>
      <trkpt lat="42.3908010" lon="-2.4754970">
        <ele>471.2</ele>
        <time>2020-02-01T13:24:55Z</time>
      </trkpt>
      <trkpt lat="42.3908710" lon="-2.4754640">
        <ele>471.2</ele>
        <time>2020-02-01T13:24:56Z</time>
      </trkpt>
      <trkpt lat="42.3909320" lon="-2.4754310">
        <ele>471.2</ele>
        <time>2020-02-01T13:24:57Z</time>
      </trkpt>
      <trkpt lat="42.3909830" lon="-2.4753990">
        <ele>471.2</ele>
        <time>2020-02-01T13:24:58Z</time>
      </trkpt>
      <trkpt lat="42.3910520" lon="-2.4753630">
        <ele>471.2</ele>
        <time>2020-02-01T13:24:59Z</time>
      </trkpt>
      <trkpt lat="42.3911190" lon="-2.4753250">
        <ele>471.3</ele>
        <time>2020-02-01T13:25:00Z</time>
      </trkpt>
      <trkpt lat="42.3911860" lon="-2.4752940">
        <ele>471.2</ele>
        <time>2020-02-01T13:25:01Z</time>
      </trkpt>
      <trkpt lat="42.3912510" lon="-2.4752660">
        <ele>471.2</ele>
        <time>2020-02-01T13:25:02Z</time>
      </trkpt>
      <trkpt lat="42.3913050" lon="-2.4752270">
        <ele>471.1</ele>
        <time>2020-02-01T13:25:03Z</time>
      </trkpt>
      <trkpt lat="42.3913740" lon="-2.4751920">
        <ele>471.0</ele>
        <time>2020-02-01T13:25:04Z</time>
      </trkpt>
      <trkpt lat="42.3914390" lon="-2.4751540">
        <ele>470.9</ele>
        <time>2020-02-01T13:25:05Z</time>
      </trkpt>
      <trkpt lat="42.3915040" lon="-2.4751240">
        <ele>470.7</ele>
        <time>2020-02-01T13:25:06Z</time>
      </trkpt>
      <trkpt lat="42.3915740" lon="-2.4750930">
        <ele>470.6</ele>
        <time>2020-02-01T13:25:07Z</time>
      </trkpt>
      <trkpt lat="42.3916420" lon="-2.4750590">
        <ele>470.5</ele>
        <time>2020-02-01T13:25:08Z</time>
      </trkpt>
      <trkpt lat="42.3917080" lon="-2.4750260">
        <ele>470.4</ele>
        <time>2020-02-01T13:25:09Z</time>
      </trkpt>
      <trkpt lat="42.3917710" lon="-2.4749960">
        <ele>470.4</ele>
        <time>2020-02-01T13:25:10Z</time>
      </trkpt>
      <trkpt lat="42.3918330" lon="-2.4749590">
        <ele>470.4</ele>
        <time>2020-02-01T13:25:11Z</time>
      </trkpt>
      <trkpt lat="42.3918940" lon="-2.4749220">
        <ele>470.4</ele>
        <time>2020-02-01T13:25:12Z</time>
      </trkpt>
      <trkpt lat="42.3919560" lon="-2.4748970">
        <ele>470.1</ele>
        <time>2020-02-01T13:25:13Z</time>
      </trkpt>
      <trkpt lat="42.3920240" lon="-2.4748700">
        <ele>469.9</ele>
        <time>2020-02-01T13:25:14Z</time>
      </trkpt>
      <trkpt lat="42.3920740" lon="-2.4748400">
        <ele>469.7</ele>
        <time>2020-02-01T13:25:15Z</time>
      </trkpt>
      <trkpt lat="42.3921400" lon="-2.4748010">
        <ele>469.5</ele>
        <time>2020-02-01T13:25:16Z</time>
      </trkpt>
      <trkpt lat="42.3921970" lon="-2.4747650">
        <ele>469.3</ele>
        <time>2020-02-01T13:25:17Z</time>
      </trkpt>
      <trkpt lat="42.3922640" lon="-2.4747350">
        <ele>469.1</ele>
        <time>2020-02-01T13:25:18Z</time>
      </trkpt>
      <trkpt lat="42.3923150" lon="-2.4747050">
        <ele>468.8</ele>
        <time>2020-02-01T13:25:19Z</time>
      </trkpt>
      <trkpt lat="42.3923500" lon="-2.4746690">
        <ele>468.6</ele>
        <time>2020-02-01T13:25:20Z</time>
      </trkpt>
      <trkpt lat="42.3923860" lon="-2.4746210">
        <ele>468.3</ele>
        <time>2020-02-01T13:25:21Z</time>
      </trkpt>
      <trkpt lat="42.3924190" lon="-2.4745670">
        <ele>468.2</ele>
        <time>2020-02-01T13:25:22Z</time>
      </trkpt>
      <trkpt lat="42.3924520" lon="-2.4745200">
        <ele>468.1</ele>
        <time>2020-02-01T13:25:23Z</time>
      </trkpt>
      <trkpt lat="42.3924990" lon="-2.4744590">
        <ele>467.9</ele>
        <time>2020-02-01T13:25:24Z</time>
      </trkpt>
      <trkpt lat="42.3925740" lon="-2.4744120">
        <ele>467.9</ele>
        <time>2020-02-01T13:25:25Z</time>
      </trkpt>
      <trkpt lat="42.3926320" lon="-2.4743910">
        <ele>467.9</ele>
        <time>2020-02-01T13:25:26Z</time>
      </trkpt>
      <trkpt lat="42.3926890" lon="-2.4743870">
        <ele>468.0</ele>
        <time>2020-02-01T13:25:27Z</time>
      </trkpt>
      <trkpt lat="42.3927460" lon="-2.4743930">
        <ele>468.1</ele>
        <time>2020-02-01T13:25:28Z</time>
      </trkpt>
      <trkpt lat="42.3928030" lon="-2.4743980">
        <ele>468.1</ele>
        <time>2020-02-01T13:25:29Z</time>
      </trkpt>
      <trkpt lat="42.3928700" lon="-2.4744000">
        <ele>468.3</ele>
        <time>2020-02-01T13:25:30Z</time>
      </trkpt>
      <trkpt lat="42.3929260" lon="-2.4743770">
        <ele>468.4</ele>
        <time>2020-02-01T13:25:31Z</time>
      </trkpt>
      <trkpt lat="42.3929860" lon="-2.4743500">
        <ele>468.6</ele>
        <time>2020-02-01T13:25:32Z</time>
      </trkpt>
      <trkpt lat="42.3930570" lon="-2.4743190">
        <ele>468.8</ele>
        <time>2020-02-01T13:25:33Z</time>
      </trkpt>
      <trkpt lat="42.3931230" lon="-2.4742860">
        <ele>468.9</ele>
        <time>2020-02-01T13:25:34Z</time>
      </trkpt>
      <trkpt lat="42.3931900" lon="-2.4742540">
        <ele>469.1</ele>
        <time>2020-02-01T13:25:35Z</time>
      </trkpt>
      <trkpt lat="42.3932620" lon="-2.4742160">
        <ele>469.2</ele>
        <time>2020-02-01T13:25:36Z</time>
      </trkpt>
      <trkpt lat="42.3933260" lon="-2.4741830">
        <ele>469.3</ele>
        <time>2020-02-01T13:25:37Z</time>
      </trkpt>
      <trkpt lat="42.3933830" lon="-2.4741440">
        <ele>469.4</ele>
        <time>2020-02-01T13:25:38Z</time>
      </trkpt>
      <trkpt lat="42.3934270" lon="-2.4741100">
        <ele>469.4</ele>
        <time>2020-02-01T13:25:39Z</time>
      </trkpt>
      <trkpt lat="42.3934840" lon="-2.4740740">
        <ele>469.6</ele>
        <time>2020-02-01T13:25:40Z</time>
      </trkpt>
      <trkpt lat="42.3935510" lon="-2.4740350">
        <ele>469.8</ele>
        <time>2020-02-01T13:25:41Z</time>
      </trkpt>
      <trkpt lat="42.3936180" lon="-2.4740020">
        <ele>469.9</ele>
        <time>2020-02-01T13:25:42Z</time>
      </trkpt>
      <trkpt lat="42.3936820" lon="-2.4739870">
        <ele>470.1</ele>
        <time>2020-02-01T13:25:43Z</time>
      </trkpt>
      <trkpt lat="42.3937470" lon="-2.4739560">
        <ele>470.2</ele>
        <time>2020-02-01T13:25:44Z</time>
      </trkpt>
      <trkpt lat="42.3938100" lon="-2.4739160">
        <ele>470.2</ele>
        <time>2020-02-01T13:25:45Z</time>
      </trkpt>
      <trkpt lat="42.3938750" lon="-2.4738930">
        <ele>470.2</ele>
        <time>2020-02-01T13:25:46Z</time>
      </trkpt>
      <trkpt lat="42.3939410" lon="-2.4738590">
        <ele>470.3</ele>
        <time>2020-02-01T13:25:47Z</time>
      </trkpt>
      <trkpt lat="42.3939940" lon="-2.4738200">
        <ele>470.3</ele>
        <time>2020-02-01T13:25:48Z</time>
      </trkpt>
      <trkpt lat="42.3940590" lon="-2.4737870">
        <ele>470.3</ele>
        <time>2020-02-01T13:25:49Z</time>
      </trkpt>
      <trkpt lat="42.3941260" lon="-2.4737520">
        <ele>470.3</ele>
        <time>2020-02-01T13:25:50Z</time>
      </trkpt>
      <trkpt lat="42.3941920" lon="-2.4737200">
        <ele>470.3</ele>
        <time>2020-02-01T13:25:51Z</time>
      </trkpt>
      <trkpt lat="42.3942590" lon="-2.4736850">
        <ele>470.3</ele>
        <time>2020-02-01T13:25:52Z</time>
      </trkpt>
      <trkpt lat="42.3943240" lon="-2.4736510">
        <ele>470.3</ele>
        <time>2020-02-01T13:25:53Z</time>
      </trkpt>
      <trkpt lat="42.3944010" lon="-2.4736060">
        <ele>470.3</ele>
        <time>2020-02-01T13:25:54Z</time>
      </trkpt>
      <trkpt lat="42.3944430" lon="-2.4736020">
        <ele>470.3</ele>
        <time>2020-02-01T13:25:55Z</time>
      </trkpt>
      <trkpt lat="42.3945240" lon="-2.4735880">
        <ele>470.3</ele>
        <time>2020-02-01T13:25:56Z</time>
      </trkpt>
      <trkpt lat="42.3945710" lon="-2.4735370">
        <ele>470.3</ele>
        <time>2020-02-01T13:25:57Z</time>
      </trkpt>
      <trkpt lat="42.3946300" lon="-2.4734980">
        <ele>470.4</ele>
        <time>2020-02-01T13:25:58Z</time>
      </trkpt>
      <trkpt lat="42.3947020" lon="-2.4734620">
        <ele>470.4</ele>
        <time>2020-02-01T13:25:59Z</time>
      </trkpt>
      <trkpt lat="42.3947590" lon="-2.4734270">
        <ele>470.4</ele>
        <time>2020-02-01T13:26:00Z</time>
      </trkpt>
      <trkpt lat="42.3948170" lon="-2.4733960">
        <ele>470.3</ele>
        <time>2020-02-01T13:26:01Z</time>
      </trkpt>
      <trkpt lat="42.3948460" lon="-2.4733540">
        <ele>470.3</ele>
        <time>2020-02-01T13:26:02Z</time>
      </trkpt>
      <trkpt lat="42.3949090" lon="-2.4733100">
        <ele>470.1</ele>
        <time>2020-02-01T13:26:03Z</time>
      </trkpt>
      <trkpt lat="42.3949670" lon="-2.4732790">
        <ele>470.0</ele>
        <time>2020-02-01T13:26:04Z</time>
      </trkpt>
      <trkpt lat="42.3950280" lon="-2.4732490">
        <ele>469.9</ele>
        <time>2020-02-01T13:26:05Z</time>
      </trkpt>
      <trkpt lat="42.3950870" lon="-2.4732110">
        <ele>469.7</ele>
        <time>2020-02-01T13:26:06Z</time>
      </trkpt>
      <trkpt lat="42.3951460" lon="-2.4731790">
        <ele>469.5</ele>
        <time>2020-02-01T13:26:07Z</time>
      </trkpt>
      <trkpt lat="42.3952090" lon="-2.4731440">
        <ele>469.3</ele>
        <time>2020-02-01T13:26:08Z</time>
      </trkpt>
      <trkpt lat="42.3952740" lon="-2.4731000">
        <ele>469.0</ele>
        <time>2020-02-01T13:26:09Z</time>
      </trkpt>
      <trkpt lat="42.3953370" lon="-2.4730700">
        <ele>468.8</ele>
        <time>2020-02-01T13:26:10Z</time>
      </trkpt>
      <trkpt lat="42.3954030" lon="-2.4730400">
        <ele>468.7</ele>
        <time>2020-02-01T13:26:11Z</time>
      </trkpt>
      <trkpt lat="42.3954630" lon="-2.4730080">
        <ele>468.5</ele>
        <time>2020-02-01T13:26:12Z</time>
      </trkpt>
      <trkpt lat="42.3955330" lon="-2.4729810">
        <ele>468.3</ele>
        <time>2020-02-01T13:26:13Z</time>
      </trkpt>
      <trkpt lat="42.3955950" lon="-2.4729500">
        <ele>468.2</ele>
        <time>2020-02-01T13:26:14Z</time>
      </trkpt>
      <trkpt lat="42.3956650" lon="-2.4729010">
        <ele>468.1</ele>
        <time>2020-02-01T13:26:15Z</time>
      </trkpt>
      <trkpt lat="42.3957360" lon="-2.4728650">
        <ele>468.1</ele>
        <time>2020-02-01T13:26:16Z</time>
      </trkpt>
      <trkpt lat="42.3957980" lon="-2.4728300">
        <ele>468.1</ele>
        <time>2020-02-01T13:26:17Z</time>
      </trkpt>
      <trkpt lat="42.3958580" lon="-2.4727940">
        <ele>468.0</ele>
        <time>2020-02-01T13:26:18Z</time>
      </trkpt>
      <trkpt lat="42.3959270" lon="-2.4727570">
        <ele>468.0</ele>
        <time>2020-02-01T13:26:19Z</time>
      </trkpt>
      <trkpt lat="42.3959880" lon="-2.4727230">
        <ele>468.0</ele>
        <time>2020-02-01T13:26:20Z</time>
      </trkpt>
      <trkpt lat="42.3960560" lon="-2.4726920">
        <ele>467.9</ele>
        <time>2020-02-01T13:26:21Z</time>
      </trkpt>
      <trkpt lat="42.3961340" lon="-2.4726600">
        <ele>467.8</ele>
        <time>2020-02-01T13:26:22Z</time>
      </trkpt>
      <trkpt lat="42.3962020" lon="-2.4726270">
        <ele>467.7</ele>
        <time>2020-02-01T13:26:23Z</time>
      </trkpt>
      <trkpt lat="42.3962630" lon="-2.4725860">
        <ele>467.6</ele>
        <time>2020-02-01T13:26:24Z</time>
      </trkpt>
      <trkpt lat="42.3963290" lon="-2.4725530">
        <ele>467.3</ele>
        <time>2020-02-01T13:26:25Z</time>
      </trkpt>
      <trkpt lat="42.3963970" lon="-2.4725160">
        <ele>467.1</ele>
        <time>2020-02-01T13:26:26Z</time>
      </trkpt>
      <trkpt lat="42.3964550" lon="-2.4724810">
        <ele>466.9</ele>
        <time>2020-02-01T13:26:27Z</time>
      </trkpt>
      <trkpt lat="42.3965170" lon="-2.4724510">
        <ele>466.7</ele>
        <time>2020-02-01T13:26:28Z</time>
      </trkpt>
      <trkpt lat="42.3965840" lon="-2.4724190">
        <ele>466.5</ele>
        <time>2020-02-01T13:26:29Z</time>
      </trkpt>
      <trkpt lat="42.3966560" lon="-2.4723840">
        <ele>466.3</ele>
        <time>2020-02-01T13:26:30Z</time>
      </trkpt>
      <trkpt lat="42.3967280" lon="-2.4723550">
        <ele>466.1</ele>
        <time>2020-02-01T13:26:31Z</time>
      </trkpt>
      <trkpt lat="42.3968000" lon="-2.4723230">
        <ele>465.9</ele>
        <time>2020-02-01T13:26:32Z</time>
      </trkpt>
      <trkpt lat="42.3968760" lon="-2.4722940">
        <ele>465.7</ele>
        <time>2020-02-01T13:26:33Z</time>
      </trkpt>
      <trkpt lat="42.3969430" lon="-2.4722600">
        <ele>465.5</ele>
        <time>2020-02-01T13:26:34Z</time>
      </trkpt>
      <trkpt lat="42.3970140" lon="-2.4722260">
        <ele>465.4</ele>
        <time>2020-02-01T13:26:35Z</time>
      </trkpt>
      <trkpt lat="42.3970820" lon="-2.4721930">
        <ele>465.3</ele>
        <time>2020-02-01T13:26:36Z</time>
      </trkpt>
      <trkpt lat="42.3971570" lon="-2.4721630">
        <ele>465.1</ele>
        <time>2020-02-01T13:26:37Z</time>
      </trkpt>
      <trkpt lat="42.3972260" lon="-2.4721260">
        <ele>465.1</ele>
        <time>2020-02-01T13:26:38Z</time>
      </trkpt>
      <trkpt lat="42.3972950" lon="-2.4720930">
        <ele>465.0</ele>
        <time>2020-02-01T13:26:39Z</time>
      </trkpt>
      <trkpt lat="42.3973650" lon="-2.4720520">
        <ele>465.0</ele>
        <time>2020-02-01T13:26:40Z</time>
      </trkpt>
      <trkpt lat="42.3974290" lon="-2.4720210">
        <ele>465.0</ele>
        <time>2020-02-01T13:26:41Z</time>
      </trkpt>
      <trkpt lat="42.3974930" lon="-2.4719840">
        <ele>464.9</ele>
        <time>2020-02-01T13:26:42Z</time>
      </trkpt>
      <trkpt lat="42.3975640" lon="-2.4719480">
        <ele>464.9</ele>
        <time>2020-02-01T13:26:43Z</time>
      </trkpt>
      <trkpt lat="42.3976330" lon="-2.4719170">
        <ele>464.9</ele>
        <time>2020-02-01T13:26:44Z</time>
      </trkpt>
      <trkpt lat="42.3976960" lon="-2.4718890">
        <ele>464.9</ele>
        <time>2020-02-01T13:26:45Z</time>
      </trkpt>
      <trkpt lat="42.3977530" lon="-2.4718540">
        <ele>464.9</ele>
        <time>2020-02-01T13:26:46Z</time>
      </trkpt>
      <trkpt lat="42.3978160" lon="-2.4718210">
        <ele>464.9</ele>
        <time>2020-02-01T13:26:47Z</time>
      </trkpt>
      <trkpt lat="42.3978760" lon="-2.4717880">
        <ele>464.9</ele>
        <time>2020-02-01T13:26:48Z</time>
      </trkpt>
      <trkpt lat="42.3979440" lon="-2.4717590">
        <ele>464.8</ele>
        <time>2020-02-01T13:26:49Z</time>
      </trkpt>
      <trkpt lat="42.3980030" lon="-2.4717240">
        <ele>464.8</ele>
        <time>2020-02-01T13:26:50Z</time>
      </trkpt>
      <trkpt lat="42.3980680" lon="-2.4716860">
        <ele>464.8</ele>
        <time>2020-02-01T13:26:51Z</time>
      </trkpt>
      <trkpt lat="42.3981300" lon="-2.4716520">
        <ele>464.8</ele>
        <time>2020-02-01T13:26:52Z</time>
      </trkpt>
      <trkpt lat="42.3981970" lon="-2.4716210">
        <ele>464.8</ele>
        <time>2020-02-01T13:26:53Z</time>
      </trkpt>
      <trkpt lat="42.3982600" lon="-2.4715850">
        <ele>464.8</ele>
        <time>2020-02-01T13:26:54Z</time>
      </trkpt>
      <trkpt lat="42.3983110" lon="-2.4715500">
        <ele>464.7</ele>
        <time>2020-02-01T13:26:55Z</time>
      </trkpt>
      <trkpt lat="42.3983650" lon="-2.4715180">
        <ele>464.7</ele>
        <time>2020-02-01T13:26:56Z</time>
      </trkpt>
      <trkpt lat="42.3984280" lon="-2.4714830">
        <ele>464.6</ele>
        <time>2020-02-01T13:26:57Z</time>
      </trkpt>
      <trkpt lat="42.3984910" lon="-2.4714460">
        <ele>464.5</ele>
        <time>2020-02-01T13:26:58Z</time>
      </trkpt>
      <trkpt lat="42.3985510" lon="-2.4714130">
        <ele>464.4</ele>
        <time>2020-02-01T13:26:59Z</time>
      </trkpt>
      <trkpt lat="42.3986100" lon="-2.4713830">
        <ele>464.3</ele>
        <time>2020-02-01T13:27:00Z</time>
      </trkpt>
      <trkpt lat="42.3986730" lon="-2.4713490">
        <ele>464.2</ele>
        <time>2020-02-01T13:27:01Z</time>
      </trkpt>
      <trkpt lat="42.3987340" lon="-2.4713190">
        <ele>464.1</ele>
        <time>2020-02-01T13:27:02Z</time>
      </trkpt>
      <trkpt lat="42.3987910" lon="-2.4712850">
        <ele>464.0</ele>
        <time>2020-02-01T13:27:03Z</time>
      </trkpt>
      <trkpt lat="42.3988480" lon="-2.4712530">
        <ele>463.9</ele>
        <time>2020-02-01T13:27:04Z</time>
      </trkpt>
      <trkpt lat="42.3989080" lon="-2.4712240">
        <ele>463.9</ele>
        <time>2020-02-01T13:27:05Z</time>
      </trkpt>
      <trkpt lat="42.3989710" lon="-2.4711950">
        <ele>463.8</ele>
        <time>2020-02-01T13:27:06Z</time>
      </trkpt>
      <trkpt lat="42.3990330" lon="-2.4711640">
        <ele>463.8</ele>
        <time>2020-02-01T13:27:07Z</time>
      </trkpt>
      <trkpt lat="42.3990920" lon="-2.4711340">
        <ele>463.7</ele>
        <time>2020-02-01T13:27:08Z</time>
      </trkpt>
      <trkpt lat="42.3991400" lon="-2.4711020">
        <ele>463.7</ele>
        <time>2020-02-01T13:27:09Z</time>
      </trkpt>
      <trkpt lat="42.3992010" lon="-2.4710650">
        <ele>463.7</ele>
        <time>2020-02-01T13:27:10Z</time>
      </trkpt>
      <trkpt lat="42.3992600" lon="-2.4710330">
        <ele>463.7</ele>
        <time>2020-02-01T13:27:11Z</time>
      </trkpt>
      <trkpt lat="42.3993250" lon="-2.4709990">
        <ele>463.7</ele>
        <time>2020-02-01T13:27:12Z</time>
      </trkpt>
      <trkpt lat="42.3993890" lon="-2.4709620">
        <ele>463.7</ele>
        <time>2020-02-01T13:27:13Z</time>
      </trkpt>
      <trkpt lat="42.3994600" lon="-2.4709330">
        <ele>463.7</ele>
        <time>2020-02-01T13:27:14Z</time>
      </trkpt>
      <trkpt lat="42.3995290" lon="-2.4708940">
        <ele>463.7</ele>
        <time>2020-02-01T13:27:15Z</time>
      </trkpt>
      <trkpt lat="42.3996020" lon="-2.4708600">
        <ele>463.7</ele>
        <time>2020-02-01T13:27:16Z</time>
      </trkpt>
      <trkpt lat="42.3996680" lon="-2.4708240">
        <ele>463.7</ele>
        <time>2020-02-01T13:27:17Z</time>
      </trkpt>
      <trkpt lat="42.3997350" lon="-2.4707870">
        <ele>463.6</ele>
        <time>2020-02-01T13:27:18Z</time>
      </trkpt>
      <trkpt lat="42.3998060" lon="-2.4707560">
        <ele>463.5</ele>
        <time>2020-02-01T13:27:19Z</time>
      </trkpt>
      <trkpt lat="42.3998630" lon="-2.4707150">
        <ele>463.3</ele>
        <time>2020-02-01T13:27:20Z</time>
      </trkpt>
      <trkpt lat="42.3999280" lon="-2.4706750">
        <ele>463.2</ele>
        <time>2020-02-01T13:27:21Z</time>
      </trkpt>
      <trkpt lat="42.3999960" lon="-2.4706350">
        <ele>463.0</ele>
        <time>2020-02-01T13:27:22Z</time>
      </trkpt>
      <trkpt lat="42.4000710" lon="-2.4705950">
        <ele>462.8</ele>
        <time>2020-02-01T13:27:23Z</time>
      </trkpt>
      <trkpt lat="42.4001390" lon="-2.4705620">
        <ele>462.6</ele>
        <time>2020-02-01T13:27:24Z</time>
      </trkpt>
      <trkpt lat="42.4002070" lon="-2.4705260">
        <ele>462.4</ele>
        <time>2020-02-01T13:27:25Z</time>
      </trkpt>
      <trkpt lat="42.4002830" lon="-2.4704940">
        <ele>462.2</ele>
        <time>2020-02-01T13:27:26Z</time>
      </trkpt>
      <trkpt lat="42.4003410" lon="-2.4704570">
        <ele>462.0</ele>
        <time>2020-02-01T13:27:27Z</time>
      </trkpt>
      <trkpt lat="42.4004100" lon="-2.4704220">
        <ele>461.9</ele>
        <time>2020-02-01T13:27:28Z</time>
      </trkpt>
      <trkpt lat="42.4004810" lon="-2.4703870">
        <ele>461.7</ele>
        <time>2020-02-01T13:27:29Z</time>
      </trkpt>
      <trkpt lat="42.4005520" lon="-2.4703480">
        <ele>461.6</ele>
        <time>2020-02-01T13:27:30Z</time>
      </trkpt>
      <trkpt lat="42.4006230" lon="-2.4703070">
        <ele>461.4</ele>
        <time>2020-02-01T13:27:31Z</time>
      </trkpt>
      <trkpt lat="42.4006930" lon="-2.4702700">
        <ele>461.2</ele>
        <time>2020-02-01T13:27:32Z</time>
      </trkpt>
      <trkpt lat="42.4007580" lon="-2.4702340">
        <ele>461.1</ele>
        <time>2020-02-01T13:27:33Z</time>
      </trkpt>
      <trkpt lat="42.4008240" lon="-2.4701940">
        <ele>460.9</ele>
        <time>2020-02-01T13:27:34Z</time>
      </trkpt>
      <trkpt lat="42.4008960" lon="-2.4701590">
        <ele>460.8</ele>
        <time>2020-02-01T13:27:35Z</time>
      </trkpt>
      <trkpt lat="42.4009670" lon="-2.4701270">
        <ele>460.6</ele>
        <time>2020-02-01T13:27:36Z</time>
      </trkpt>
      <trkpt lat="42.4010360" lon="-2.4700880">
        <ele>460.4</ele>
        <time>2020-02-01T13:27:37Z</time>
      </trkpt>
      <trkpt lat="42.4011160" lon="-2.4700550">
        <ele>460.2</ele>
        <time>2020-02-01T13:27:38Z</time>
      </trkpt>
      <trkpt lat="42.4011810" lon="-2.4700140">
        <ele>460.1</ele>
        <time>2020-02-01T13:27:39Z</time>
      </trkpt>
      <trkpt lat="42.4012520" lon="-2.4699710">
        <ele>460.0</ele>
        <time>2020-02-01T13:27:40Z</time>
      </trkpt>
      <trkpt lat="42.4013170" lon="-2.4699340">
        <ele>459.9</ele>
        <time>2020-02-01T13:27:41Z</time>
      </trkpt>
      <trkpt lat="42.4013790" lon="-2.4699000">
        <ele>459.9</ele>
        <time>2020-02-01T13:27:42Z</time>
      </trkpt>
      <trkpt lat="42.4014440" lon="-2.4698660">
        <ele>459.9</ele>
        <time>2020-02-01T13:27:43Z</time>
      </trkpt>
      <trkpt lat="42.4015100" lon="-2.4698300">
        <ele>459.9</ele>
        <time>2020-02-01T13:27:44Z</time>
      </trkpt>
      <trkpt lat="42.4015800" lon="-2.4697950">
        <ele>459.9</ele>
        <time>2020-02-01T13:27:45Z</time>
      </trkpt>
      <trkpt lat="42.4016470" lon="-2.4697580">
        <ele>459.9</ele>
        <time>2020-02-01T13:27:46Z</time>
      </trkpt>
      <trkpt lat="42.4017150" lon="-2.4697240">
        <ele>459.9</ele>
        <time>2020-02-01T13:27:47Z</time>
      </trkpt>
      <trkpt lat="42.4017790" lon="-2.4696930">
        <ele>459.9</ele>
        <time>2020-02-01T13:27:48Z</time>
      </trkpt>
      <trkpt lat="42.4018440" lon="-2.4696620">
        <ele>459.9</ele>
        <time>2020-02-01T13:27:49Z</time>
      </trkpt>
      <trkpt lat="42.4018910" lon="-2.4696250">
        <ele>459.8</ele>
        <time>2020-02-01T13:27:50Z</time>
      </trkpt>
      <trkpt lat="42.4019600" lon="-2.4695950">
        <ele>459.7</ele>
        <time>2020-02-01T13:27:51Z</time>
      </trkpt>
      <trkpt lat="42.4020200" lon="-2.4695600">
        <ele>459.6</ele>
        <time>2020-02-01T13:27:52Z</time>
      </trkpt>
      <trkpt lat="42.4020850" lon="-2.4695240">
        <ele>459.5</ele>
        <time>2020-02-01T13:27:53Z</time>
      </trkpt>
      <trkpt lat="42.4021470" lon="-2.4694850">
        <ele>459.4</ele>
        <time>2020-02-01T13:27:54Z</time>
      </trkpt>
      <trkpt lat="42.4022030" lon="-2.4694500">
        <ele>459.2</ele>
        <time>2020-02-01T13:27:55Z</time>
      </trkpt>
      <trkpt lat="42.4022660" lon="-2.4694170">
        <ele>459.1</ele>
        <time>2020-02-01T13:27:56Z</time>
      </trkpt>
      <trkpt lat="42.4023320" lon="-2.4693860">
        <ele>459.0</ele>
        <time>2020-02-01T13:27:57Z</time>
      </trkpt>
      <trkpt lat="42.4023930" lon="-2.4693490">
        <ele>459.0</ele>
        <time>2020-02-01T13:27:58Z</time>
      </trkpt>
      <trkpt lat="42.4024560" lon="-2.4693210">
        <ele>459.0</ele>
        <time>2020-02-01T13:27:59Z</time>
      </trkpt>
      <trkpt lat="42.4025160" lon="-2.4692850">
        <ele>458.9</ele>
        <time>2020-02-01T13:28:00Z</time>
      </trkpt>
      <trkpt lat="42.4025690" lon="-2.4692470">
        <ele>458.9</ele>
        <time>2020-02-01T13:28:01Z</time>
      </trkpt>
      <trkpt lat="42.4026270" lon="-2.4692180">
        <ele>458.9</ele>
        <time>2020-02-01T13:28:02Z</time>
      </trkpt>
      <trkpt lat="42.4026850" lon="-2.4691900">
        <ele>458.9</ele>
        <time>2020-02-01T13:28:03Z</time>
      </trkpt>
      <trkpt lat="42.4027480" lon="-2.4691620">
        <ele>458.9</ele>
        <time>2020-02-01T13:28:04Z</time>
      </trkpt>
      <trkpt lat="42.4028080" lon="-2.4691290">
        <ele>458.9</ele>
        <time>2020-02-01T13:28:05Z</time>
      </trkpt>
      <trkpt lat="42.4028620" lon="-2.4691020">
        <ele>459.0</ele>
        <time>2020-02-01T13:28:06Z</time>
      </trkpt>
      <trkpt lat="42.4029180" lon="-2.4690680">
        <ele>459.0</ele>
        <time>2020-02-01T13:28:07Z</time>
      </trkpt>
      <trkpt lat="42.4029720" lon="-2.4690390">
        <ele>459.0</ele>
        <time>2020-02-01T13:28:08Z</time>
      </trkpt>
      <trkpt lat="42.4030350" lon="-2.4690160">
        <ele>459.0</ele>
        <time>2020-02-01T13:28:09Z</time>
      </trkpt>
      <trkpt lat="42.4030840" lon="-2.4689850">
        <ele>459.0</ele>
        <time>2020-02-01T13:28:10Z</time>
      </trkpt>
      <trkpt lat="42.4031380" lon="-2.4689560">
        <ele>459.0</ele>
        <time>2020-02-01T13:28:11Z</time>
      </trkpt>
      <trkpt lat="42.4031920" lon="-2.4689260">
        <ele>459.0</ele>
        <time>2020-02-01T13:28:12Z</time>
      </trkpt>
      <trkpt lat="42.4032460" lon="-2.4688970">
        <ele>459.0</ele>
        <time>2020-02-01T13:28:13Z</time>
      </trkpt>
      <trkpt lat="42.4033010" lon="-2.4688700">
        <ele>459.0</ele>
        <time>2020-02-01T13:28:14Z</time>
      </trkpt>
      <trkpt lat="42.4033550" lon="-2.4688410">
        <ele>459.0</ele>
        <time>2020-02-01T13:28:15Z</time>
      </trkpt>
      <trkpt lat="42.4034160" lon="-2.4688140">
        <ele>459.0</ele>
        <time>2020-02-01T13:28:16Z</time>
      </trkpt>
      <trkpt lat="42.4034700" lon="-2.4687800">
        <ele>459.0</ele>
        <time>2020-02-01T13:28:17Z</time>
      </trkpt>
      <trkpt lat="42.4035270" lon="-2.4687500">
        <ele>459.0</ele>
        <time>2020-02-01T13:28:18Z</time>
      </trkpt>
      <trkpt lat="42.4035820" lon="-2.4687200">
        <ele>459.0</ele>
        <time>2020-02-01T13:28:19Z</time>
      </trkpt>
      <trkpt lat="42.4036370" lon="-2.4686900">
        <ele>459.0</ele>
        <time>2020-02-01T13:28:20Z</time>
      </trkpt>
      <trkpt lat="42.4036890" lon="-2.4686550">
        <ele>459.0</ele>
        <time>2020-02-01T13:28:21Z</time>
      </trkpt>
      <trkpt lat="42.4037500" lon="-2.4686310">
        <ele>459.0</ele>
        <time>2020-02-01T13:28:22Z</time>
      </trkpt>
      <trkpt lat="42.4038080" lon="-2.4686050">
        <ele>459.0</ele>
        <time>2020-02-01T13:28:23Z</time>
      </trkpt>
      <trkpt lat="42.4038630" lon="-2.4685760">
        <ele>459.0</ele>
        <time>2020-02-01T13:28:24Z</time>
      </trkpt>
      <trkpt lat="42.4039200" lon="-2.4685460">
        <ele>459.1</ele>
        <time>2020-02-01T13:28:25Z</time>
      </trkpt>
      <trkpt lat="42.4039780" lon="-2.4685170">
        <ele>459.1</ele>
        <time>2020-02-01T13:28:26Z</time>
      </trkpt>
      <trkpt lat="42.4040360" lon="-2.4684870">
        <ele>459.1</ele>
        <time>2020-02-01T13:28:27Z</time>
      </trkpt>
      <trkpt lat="42.4040870" lon="-2.4684570">
        <ele>459.1</ele>
        <time>2020-02-01T13:28:28Z</time>
      </trkpt>
      <trkpt lat="42.4041410" lon="-2.4684250">
        <ele>459.1</ele>
        <time>2020-02-01T13:28:29Z</time>
      </trkpt>
      <trkpt lat="42.4041940" lon="-2.4683990">
        <ele>459.1</ele>
        <time>2020-02-01T13:28:30Z</time>
      </trkpt>
      <trkpt lat="42.4042500" lon="-2.4683670">
        <ele>459.2</ele>
        <time>2020-02-01T13:28:31Z</time>
      </trkpt>
      <trkpt lat="42.4042950" lon="-2.4683420">
        <ele>459.2</ele>
        <time>2020-02-01T13:28:32Z</time>
      </trkpt>
      <trkpt lat="42.4043510" lon="-2.4683090">
        <ele>459.3</ele>
        <time>2020-02-01T13:28:33Z</time>
      </trkpt>
      <trkpt lat="42.4044070" lon="-2.4682750">
        <ele>459.3</ele>
        <time>2020-02-01T13:28:34Z</time>
      </trkpt>
      <trkpt lat="42.4044650" lon="-2.4682430">
        <ele>459.3</ele>
        <time>2020-02-01T13:28:35Z</time>
      </trkpt>
      <trkpt lat="42.4045220" lon="-2.4682170">
        <ele>459.3</ele>
        <time>2020-02-01T13:28:36Z</time>
      </trkpt>
      <trkpt lat="42.4045790" lon="-2.4681870">
        <ele>459.4</ele>
        <time>2020-02-01T13:28:37Z</time>
      </trkpt>
      <trkpt lat="42.4046430" lon="-2.4681570">
        <ele>459.4</ele>
        <time>2020-02-01T13:28:38Z</time>
      </trkpt>
      <trkpt lat="42.4047050" lon="-2.4681280">
        <ele>459.5</ele>
        <time>2020-02-01T13:28:39Z</time>
      </trkpt>
      <trkpt lat="42.4047570" lon="-2.4680940">
        <ele>459.5</ele>
        <time>2020-02-01T13:28:40Z</time>
      </trkpt>
      <trkpt lat="42.4048160" lon="-2.4680680">
        <ele>459.4</ele>
        <time>2020-02-01T13:28:41Z</time>
      </trkpt>
      <trkpt lat="42.4048700" lon="-2.4680420">
        <ele>459.3</ele>
        <time>2020-02-01T13:28:42Z</time>
      </trkpt>
      <trkpt lat="42.4049240" lon="-2.4680120">
        <ele>459.2</ele>
        <time>2020-02-01T13:28:43Z</time>
      </trkpt>
      <trkpt lat="42.4049790" lon="-2.4679790">
        <ele>459.0</ele>
        <time>2020-02-01T13:28:44Z</time>
      </trkpt>
      <trkpt lat="42.4050350" lon="-2.4679460">
        <ele>458.8</ele>
        <time>2020-02-01T13:28:45Z</time>
      </trkpt>
      <trkpt lat="42.4050950" lon="-2.4679140">
        <ele>458.7</ele>
        <time>2020-02-01T13:28:46Z</time>
      </trkpt>
      <trkpt lat="42.4051510" lon="-2.4678890">
        <ele>458.6</ele>
        <time>2020-02-01T13:28:47Z</time>
      </trkpt>
      <trkpt lat="42.4051970" lon="-2.4678620">
        <ele>458.5</ele>
        <time>2020-02-01T13:28:48Z</time>
      </trkpt>
      <trkpt lat="42.4052510" lon="-2.4678380">
        <ele>458.4</ele>
        <time>2020-02-01T13:28:49Z</time>
      </trkpt>
      <trkpt lat="42.4053070" lon="-2.4678100">
        <ele>458.4</ele>
        <time>2020-02-01T13:28:50Z</time>
      </trkpt>
      <trkpt lat="42.4053550" lon="-2.4677840">
        <ele>458.3</ele>
        <time>2020-02-01T13:28:51Z</time>
      </trkpt>
      <trkpt lat="42.4054100" lon="-2.4677480">
        <ele>458.3</ele>
        <time>2020-02-01T13:28:52Z</time>
      </trkpt>
      <trkpt lat="42.4054700" lon="-2.4677190">
        <ele>458.3</ele>
        <time>2020-02-01T13:28:53Z</time>
      </trkpt>
      <trkpt lat="42.4055270" lon="-2.4676890">
        <ele>458.4</ele>
        <time>2020-02-01T13:28:54Z</time>
      </trkpt>
      <trkpt lat="42.4055850" lon="-2.4676570">
        <ele>458.4</ele>
        <time>2020-02-01T13:28:55Z</time>
      </trkpt>
      <trkpt lat="42.4056440" lon="-2.4676300">
        <ele>458.5</ele>
        <time>2020-02-01T13:28:56Z</time>
      </trkpt>
      <trkpt lat="42.4056990" lon="-2.4675970">
        <ele>458.6</ele>
        <time>2020-02-01T13:28:57Z</time>
      </trkpt>
      <trkpt lat="42.4057570" lon="-2.4675570">
        <ele>458.8</ele>
        <time>2020-02-01T13:28:58Z</time>
      </trkpt>
      <trkpt lat="42.4058140" lon="-2.4675250">
        <ele>458.9</ele>
        <time>2020-02-01T13:28:59Z</time>
      </trkpt>
      <trkpt lat="42.4058730" lon="-2.4674980">
        <ele>459.0</ele>
        <time>2020-02-01T13:29:00Z</time>
      </trkpt>
      <trkpt lat="42.4059250" lon="-2.4674650">
        <ele>459.0</ele>
        <time>2020-02-01T13:29:01Z</time>
      </trkpt>
      <trkpt lat="42.4059860" lon="-2.4674320">
        <ele>459.0</ele>
        <time>2020-02-01T13:29:02Z</time>
      </trkpt>
      <trkpt lat="42.4060480" lon="-2.4674030">
        <ele>459.1</ele>
        <time>2020-02-01T13:29:03Z</time>
      </trkpt>
      <trkpt lat="42.4061060" lon="-2.4673730">
        <ele>459.1</ele>
        <time>2020-02-01T13:29:04Z</time>
      </trkpt>
      <trkpt lat="42.4061610" lon="-2.4673450">
        <ele>459.1</ele>
        <time>2020-02-01T13:29:05Z</time>
      </trkpt>
      <trkpt lat="42.4062120" lon="-2.4673170">
        <ele>459.1</ele>
        <time>2020-02-01T13:29:06Z</time>
      </trkpt>
      <trkpt lat="42.4062680" lon="-2.4672890">
        <ele>459.1</ele>
        <time>2020-02-01T13:29:07Z</time>
      </trkpt>
      <trkpt lat="42.4063260" lon="-2.4672620">
        <ele>459.1</ele>
        <time>2020-02-01T13:29:08Z</time>
      </trkpt>
      <trkpt lat="42.4063820" lon="-2.4672330">
        <ele>459.1</ele>
        <time>2020-02-01T13:29:09Z</time>
      </trkpt>
      <trkpt lat="42.4064500" lon="-2.4672010">
        <ele>459.1</ele>
        <time>2020-02-01T13:29:10Z</time>
      </trkpt>
      <trkpt lat="42.4065060" lon="-2.4671710">
        <ele>459.1</ele>
        <time>2020-02-01T13:29:11Z</time>
      </trkpt>
      <trkpt lat="42.4065650" lon="-2.4671410">
        <ele>459.1</ele>
        <time>2020-02-01T13:29:12Z</time>
      </trkpt>
      <trkpt lat="42.4066130" lon="-2.4671050">
        <ele>459.1</ele>
        <time>2020-02-01T13:29:13Z</time>
      </trkpt>
      <trkpt lat="42.4066610" lon="-2.4670710">
        <ele>459.1</ele>
        <time>2020-02-01T13:29:14Z</time>
      </trkpt>
      <trkpt lat="42.4067170" lon="-2.4670400">
        <ele>459.1</ele>
        <time>2020-02-01T13:29:15Z</time>
      </trkpt>
      <trkpt lat="42.4067750" lon="-2.4670080">
        <ele>459.1</ele>
        <time>2020-02-01T13:29:16Z</time>
      </trkpt>
      <trkpt lat="42.4068360" lon="-2.4669750">
        <ele>459.1</ele>
        <time>2020-02-01T13:29:17Z</time>
      </trkpt>
      <trkpt lat="42.4068970" lon="-2.4669300">
        <ele>459.1</ele>
        <time>2020-02-01T13:29:18Z</time>
      </trkpt>
      <trkpt lat="42.4069640" lon="-2.4668980">
        <ele>459.1</ele>
        <time>2020-02-01T13:29:19Z</time>
      </trkpt>
      <trkpt lat="42.4070230" lon="-2.4668640">
        <ele>459.1</ele>
        <time>2020-02-01T13:29:20Z</time>
      </trkpt>
      <trkpt lat="42.4070820" lon="-2.4668350">
        <ele>459.1</ele>
        <time>2020-02-01T13:29:21Z</time>
      </trkpt>
      <trkpt lat="42.4071440" lon="-2.4668020">
        <ele>459.2</ele>
        <time>2020-02-01T13:29:22Z</time>
      </trkpt>
      <trkpt lat="42.4072040" lon="-2.4667670">
        <ele>459.2</ele>
        <time>2020-02-01T13:29:23Z</time>
      </trkpt>
      <trkpt lat="42.4072690" lon="-2.4667290">
        <ele>459.2</ele>
        <time>2020-02-01T13:29:24Z</time>
      </trkpt>
      <trkpt lat="42.4073310" lon="-2.4666940">
        <ele>459.2</ele>
        <time>2020-02-01T13:29:25Z</time>
      </trkpt>
      <trkpt lat="42.4073930" lon="-2.4666580">
        <ele>459.2</ele>
        <time>2020-02-01T13:29:26Z</time>
      </trkpt>
      <trkpt lat="42.4074550" lon="-2.4666230">
        <ele>459.2</ele>
        <time>2020-02-01T13:29:27Z</time>
      </trkpt>
      <trkpt lat="42.4075190" lon="-2.4665820">
        <ele>459.1</ele>
        <time>2020-02-01T13:29:28Z</time>
      </trkpt>
      <trkpt lat="42.4075770" lon="-2.4665470">
        <ele>459.0</ele>
        <time>2020-02-01T13:29:29Z</time>
      </trkpt>
      <trkpt lat="42.4076340" lon="-2.4665110">
        <ele>458.9</ele>
        <time>2020-02-01T13:29:30Z</time>
      </trkpt>
      <trkpt lat="42.4076990" lon="-2.4664710">
        <ele>458.8</ele>
        <time>2020-02-01T13:29:31Z</time>
      </trkpt>
      <trkpt lat="42.4077600" lon="-2.4664310">
        <ele>458.6</ele>
        <time>2020-02-01T13:29:32Z</time>
      </trkpt>
      <trkpt lat="42.4078240" lon="-2.4663970">
        <ele>458.5</ele>
        <time>2020-02-01T13:29:33Z</time>
      </trkpt>
      <trkpt lat="42.4078820" lon="-2.4663630">
        <ele>458.4</ele>
        <time>2020-02-01T13:29:34Z</time>
      </trkpt>
      <trkpt lat="42.4079400" lon="-2.4663300">
        <ele>458.3</ele>
        <time>2020-02-01T13:29:35Z</time>
      </trkpt>
      <trkpt lat="42.4079980" lon="-2.4662950">
        <ele>458.3</ele>
        <time>2020-02-01T13:29:36Z</time>
      </trkpt>
      <trkpt lat="42.4080560" lon="-2.4662620">
        <ele>458.3</ele>
        <time>2020-02-01T13:29:37Z</time>
      </trkpt>
      <trkpt lat="42.4081080" lon="-2.4662300">
        <ele>458.3</ele>
        <time>2020-02-01T13:29:38Z</time>
      </trkpt>
      <trkpt lat="42.4081620" lon="-2.4661950">
        <ele>458.3</ele>
        <time>2020-02-01T13:29:39Z</time>
      </trkpt>
      <trkpt lat="42.4082250" lon="-2.4661610">
        <ele>458.4</ele>
        <time>2020-02-01T13:29:40Z</time>
      </trkpt>
      <trkpt lat="42.4082790" lon="-2.4661340">
        <ele>458.5</ele>
        <time>2020-02-01T13:29:41Z</time>
      </trkpt>
      <trkpt lat="42.4083350" lon="-2.4661060">
        <ele>458.6</ele>
        <time>2020-02-01T13:29:42Z</time>
      </trkpt>
      <trkpt lat="42.4083880" lon="-2.4660750">
        <ele>458.8</ele>
        <time>2020-02-01T13:29:43Z</time>
      </trkpt>
      <trkpt lat="42.4084420" lon="-2.4660410">
        <ele>458.9</ele>
        <time>2020-02-01T13:29:44Z</time>
      </trkpt>
      <trkpt lat="42.4084960" lon="-2.4660050">
        <ele>459.0</ele>
        <time>2020-02-01T13:29:45Z</time>
      </trkpt>
      <trkpt lat="42.4085450" lon="-2.4659760">
        <ele>459.1</ele>
        <time>2020-02-01T13:29:46Z</time>
      </trkpt>
      <trkpt lat="42.4086010" lon="-2.4659490">
        <ele>459.2</ele>
        <time>2020-02-01T13:29:47Z</time>
      </trkpt>
      <trkpt lat="42.4086550" lon="-2.4659210">
        <ele>459.3</ele>
        <time>2020-02-01T13:29:48Z</time>
      </trkpt>
      <trkpt lat="42.4087130" lon="-2.4658910">
        <ele>459.4</ele>
        <time>2020-02-01T13:29:49Z</time>
      </trkpt>
      <trkpt lat="42.4087680" lon="-2.4658640">
        <ele>459.4</ele>
        <time>2020-02-01T13:29:50Z</time>
      </trkpt>
      <trkpt lat="42.4088310" lon="-2.4658320">
        <ele>459.3</ele>
        <time>2020-02-01T13:29:51Z</time>
      </trkpt>
      <trkpt lat="42.4088890" lon="-2.4658080">
        <ele>459.3</ele>
        <time>2020-02-01T13:29:52Z</time>
      </trkpt>
      <trkpt lat="42.4089470" lon="-2.4657860">
        <ele>459.4</ele>
        <time>2020-02-01T13:29:53Z</time>
      </trkpt>
      <trkpt lat="42.4090070" lon="-2.4657610">
        <ele>459.3</ele>
        <time>2020-02-01T13:29:54Z</time>
      </trkpt>
      <trkpt lat="42.4090680" lon="-2.4657360">
        <ele>459.3</ele>
        <time>2020-02-01T13:29:55Z</time>
      </trkpt>
      <trkpt lat="42.4091270" lon="-2.4657150">
        <ele>459.3</ele>
        <time>2020-02-01T13:29:56Z</time>
      </trkpt>
      <trkpt lat="42.4091880" lon="-2.4656880">
        <ele>459.5</ele>
        <time>2020-02-01T13:29:57Z</time>
      </trkpt>
      <trkpt lat="42.4092500" lon="-2.4656660">
        <ele>459.5</ele>
        <time>2020-02-01T13:29:58Z</time>
      </trkpt>
      <trkpt lat="42.4093080" lon="-2.4656400">
        <ele>459.6</ele>
        <time>2020-02-01T13:29:59Z</time>
      </trkpt>
      <trkpt lat="42.4093700" lon="-2.4656240">
        <ele>459.6</ele>
        <time>2020-02-01T13:30:00Z</time>
      </trkpt>
      <trkpt lat="42.4094370" lon="-2.4656100">
        <ele>459.7</ele>
        <time>2020-02-01T13:30:01Z</time>
      </trkpt>
      <trkpt lat="42.4094930" lon="-2.4655870">
        <ele>459.7</ele>
        <time>2020-02-01T13:30:02Z</time>
      </trkpt>
      <trkpt lat="42.4095540" lon="-2.4655740">
        <ele>459.8</ele>
        <time>2020-02-01T13:30:03Z</time>
      </trkpt>
      <trkpt lat="42.4096110" lon="-2.4655550">
        <ele>459.8</ele>
        <time>2020-02-01T13:30:04Z</time>
      </trkpt>
      <trkpt lat="42.4096670" lon="-2.4655400">
        <ele>459.8</ele>
        <time>2020-02-01T13:30:05Z</time>
      </trkpt>
      <trkpt lat="42.4097240" lon="-2.4655240">
        <ele>459.8</ele>
        <time>2020-02-01T13:30:06Z</time>
      </trkpt>
      <trkpt lat="42.4097800" lon="-2.4655080">
        <ele>459.8</ele>
        <time>2020-02-01T13:30:07Z</time>
      </trkpt>
      <trkpt lat="42.4098360" lon="-2.4654860">
        <ele>459.9</ele>
        <time>2020-02-01T13:30:08Z</time>
      </trkpt>
      <trkpt lat="42.4099020" lon="-2.4654610">
        <ele>459.8</ele>
        <time>2020-02-01T13:30:09Z</time>
      </trkpt>
      <trkpt lat="42.4099640" lon="-2.4654350">
        <ele>459.6</ele>
        <time>2020-02-01T13:30:10Z</time>
      </trkpt>
      <trkpt lat="42.4100300" lon="-2.4654160">
        <ele>459.6</ele>
        <time>2020-02-01T13:30:11Z</time>
      </trkpt>
      <trkpt lat="42.4100930" lon="-2.4653830">
        <ele>459.6</ele>
        <time>2020-02-01T13:30:12Z</time>
      </trkpt>
      <trkpt lat="42.4101580" lon="-2.4653560">
        <ele>459.5</ele>
        <time>2020-02-01T13:30:13Z</time>
      </trkpt>
      <trkpt lat="42.4102310" lon="-2.4653340">
        <ele>459.4</ele>
        <time>2020-02-01T13:30:14Z</time>
      </trkpt>
      <trkpt lat="42.4103020" lon="-2.4653110">
        <ele>459.5</ele>
        <time>2020-02-01T13:30:15Z</time>
      </trkpt>
      <trkpt lat="42.4103770" lon="-2.4652860">
        <ele>459.5</ele>
        <time>2020-02-01T13:30:16Z</time>
      </trkpt>
      <trkpt lat="42.4104540" lon="-2.4652710">
        <ele>459.6</ele>
        <time>2020-02-01T13:30:17Z</time>
      </trkpt>
      <trkpt lat="42.4105290" lon="-2.4652480">
        <ele>459.7</ele>
        <time>2020-02-01T13:30:18Z</time>
      </trkpt>
      <trkpt lat="42.4106190" lon="-2.4652470">
        <ele>459.7</ele>
        <time>2020-02-01T13:30:19Z</time>
      </trkpt>
      <trkpt lat="42.4106920" lon="-2.4652460">
        <ele>459.7</ele>
        <time>2020-02-01T13:30:20Z</time>
      </trkpt>
      <trkpt lat="42.4107630" lon="-2.4652440">
        <ele>459.4</ele>
        <time>2020-02-01T13:30:21Z</time>
      </trkpt>
      <trkpt lat="42.4108290" lon="-2.4652440">
        <ele>459.1</ele>
        <time>2020-02-01T13:30:22Z</time>
      </trkpt>
      <trkpt lat="42.4108950" lon="-2.4652390">
        <ele>458.9</ele>
        <time>2020-02-01T13:30:23Z</time>
      </trkpt>
      <trkpt lat="42.4109660" lon="-2.4652250">
        <ele>458.5</ele>
        <time>2020-02-01T13:30:24Z</time>
      </trkpt>
      <trkpt lat="42.4110440" lon="-2.4651930">
        <ele>458.1</ele>
        <time>2020-02-01T13:30:25Z</time>
      </trkpt>
      <trkpt lat="42.4111100" lon="-2.4651390">
        <ele>457.7</ele>
        <time>2020-02-01T13:30:26Z</time>
      </trkpt>
      <trkpt lat="42.4111760" lon="-2.4650960">
        <ele>457.3</ele>
        <time>2020-02-01T13:30:27Z</time>
      </trkpt>
      <trkpt lat="42.4112410" lon="-2.4650380">
        <ele>456.9</ele>
        <time>2020-02-01T13:30:28Z</time>
      </trkpt>
      <trkpt lat="42.4112990" lon="-2.4649700">
        <ele>456.5</ele>
        <time>2020-02-01T13:30:29Z</time>
      </trkpt>
      <trkpt lat="42.4113540" lon="-2.4648950">
        <ele>456.1</ele>
        <time>2020-02-01T13:30:30Z</time>
      </trkpt>
      <trkpt lat="42.4114060" lon="-2.4648150">
        <ele>455.6</ele>
        <time>2020-02-01T13:30:31Z</time>
      </trkpt>
      <trkpt lat="42.4114580" lon="-2.4647300">
        <ele>454.9</ele>
        <time>2020-02-01T13:30:32Z</time>
      </trkpt>
      <trkpt lat="42.4115230" lon="-2.4646550">
        <ele>454.5</ele>
        <time>2020-02-01T13:30:33Z</time>
      </trkpt>
      <trkpt lat="42.4115850" lon="-2.4645840">
        <ele>454.2</ele>
        <time>2020-02-01T13:30:34Z</time>
      </trkpt>
      <trkpt lat="42.4116470" lon="-2.4645200">
        <ele>453.9</ele>
        <time>2020-02-01T13:30:35Z</time>
      </trkpt>
      <trkpt lat="42.4117220" lon="-2.4644660">
        <ele>453.4</ele>
        <time>2020-02-01T13:30:36Z</time>
      </trkpt>
      <trkpt lat="42.4117930" lon="-2.4644140">
        <ele>453.0</ele>
        <time>2020-02-01T13:30:37Z</time>
      </trkpt>
      <trkpt lat="42.4118770" lon="-2.4643620">
        <ele>452.6</ele>
        <time>2020-02-01T13:30:38Z</time>
      </trkpt>
      <trkpt lat="42.4119590" lon="-2.4643060">
        <ele>452.2</ele>
        <time>2020-02-01T13:30:39Z</time>
      </trkpt>
      <trkpt lat="42.4120370" lon="-2.4642510">
        <ele>451.8</ele>
        <time>2020-02-01T13:30:40Z</time>
      </trkpt>
      <trkpt lat="42.4121140" lon="-2.4641900">
        <ele>451.4</ele>
        <time>2020-02-01T13:30:41Z</time>
      </trkpt>
      <trkpt lat="42.4121890" lon="-2.4641380">
        <ele>451.0</ele>
        <time>2020-02-01T13:30:42Z</time>
      </trkpt>
      <trkpt lat="42.4122680" lon="-2.4640820">
        <ele>450.6</ele>
        <time>2020-02-01T13:30:43Z</time>
      </trkpt>
      <trkpt lat="42.4123510" lon="-2.4640260">
        <ele>450.4</ele>
        <time>2020-02-01T13:30:44Z</time>
      </trkpt>
      <trkpt lat="42.4124320" lon="-2.4639740">
        <ele>450.2</ele>
        <time>2020-02-01T13:30:45Z</time>
      </trkpt>
      <trkpt lat="42.4125140" lon="-2.4639160">
        <ele>450.0</ele>
        <time>2020-02-01T13:30:46Z</time>
      </trkpt>
      <trkpt lat="42.4125940" lon="-2.4638650">
        <ele>449.8</ele>
        <time>2020-02-01T13:30:47Z</time>
      </trkpt>
      <trkpt lat="42.4126750" lon="-2.4638160">
        <ele>449.5</ele>
        <time>2020-02-01T13:30:48Z</time>
      </trkpt>
      <trkpt lat="42.4127500" lon="-2.4637630">
        <ele>449.3</ele>
        <time>2020-02-01T13:30:49Z</time>
      </trkpt>
      <trkpt lat="42.4128370" lon="-2.4637140">
        <ele>449.1</ele>
        <time>2020-02-01T13:30:50Z</time>
      </trkpt>
      <trkpt lat="42.4129220" lon="-2.4636690">
        <ele>448.8</ele>
        <time>2020-02-01T13:30:51Z</time>
      </trkpt>
      <trkpt lat="42.4129950" lon="-2.4636230">
        <ele>448.6</ele>
        <time>2020-02-01T13:30:52Z</time>
      </trkpt>
      <trkpt lat="42.4130690" lon="-2.4635730">
        <ele>448.4</ele>
        <time>2020-02-01T13:30:53Z</time>
      </trkpt>
      <trkpt lat="42.4131480" lon="-2.4635230">
        <ele>448.2</ele>
        <time>2020-02-01T13:30:54Z</time>
      </trkpt>
      <trkpt lat="42.4132210" lon="-2.4634750">
        <ele>448.0</ele>
        <time>2020-02-01T13:30:55Z</time>
      </trkpt>
      <trkpt lat="42.4132900" lon="-2.4634240">
        <ele>447.8</ele>
        <time>2020-02-01T13:30:56Z</time>
      </trkpt>
      <trkpt lat="42.4133660" lon="-2.4633810">
        <ele>447.8</ele>
        <time>2020-02-01T13:30:57Z</time>
      </trkpt>
      <trkpt lat="42.4134360" lon="-2.4633310">
        <ele>447.7</ele>
        <time>2020-02-01T13:30:58Z</time>
      </trkpt>
      <trkpt lat="42.4135050" lon="-2.4632880">
        <ele>447.7</ele>
        <time>2020-02-01T13:30:59Z</time>
      </trkpt>
      <trkpt lat="42.4135710" lon="-2.4632460">
        <ele>447.7</ele>
        <time>2020-02-01T13:31:00Z</time>
      </trkpt>
      <trkpt lat="42.4136380" lon="-2.4632070">
        <ele>447.7</ele>
        <time>2020-02-01T13:31:01Z</time>
      </trkpt>
      <trkpt lat="42.4137210" lon="-2.4631640">
        <ele>447.6</ele>
        <time>2020-02-01T13:31:02Z</time>
      </trkpt>
      <trkpt lat="42.4137910" lon="-2.4631200">
        <ele>447.5</ele>
        <time>2020-02-01T13:31:03Z</time>
      </trkpt>
      <trkpt lat="42.4138630" lon="-2.4630720">
        <ele>447.4</ele>
        <time>2020-02-01T13:31:04Z</time>
      </trkpt>
      <trkpt lat="42.4139260" lon="-2.4630330">
        <ele>447.3</ele>
        <time>2020-02-01T13:31:05Z</time>
      </trkpt>
      <trkpt lat="42.4139900" lon="-2.4629920">
        <ele>447.3</ele>
        <time>2020-02-01T13:31:06Z</time>
      </trkpt>
      <trkpt lat="42.4140560" lon="-2.4629550">
        <ele>447.3</ele>
        <time>2020-02-01T13:31:07Z</time>
      </trkpt>
      <trkpt lat="42.4141200" lon="-2.4629160">
        <ele>447.2</ele>
        <time>2020-02-01T13:31:08Z</time>
      </trkpt>
      <trkpt lat="42.4141440" lon="-2.4628770">
        <ele>447.2</ele>
        <time>2020-02-01T13:31:09Z</time>
      </trkpt>
      <trkpt lat="42.4141970" lon="-2.4628340">
        <ele>447.2</ele>
        <time>2020-02-01T13:31:10Z</time>
      </trkpt>
      <trkpt lat="42.4142700" lon="-2.4627990">
        <ele>447.2</ele>
        <time>2020-02-01T13:31:11Z</time>
      </trkpt>
      <trkpt lat="42.4143340" lon="-2.4627670">
        <ele>447.2</ele>
        <time>2020-02-01T13:31:12Z</time>
      </trkpt>
      <trkpt lat="42.4143830" lon="-2.4627290">
        <ele>447.2</ele>
        <time>2020-02-01T13:31:13Z</time>
      </trkpt>
      <trkpt lat="42.4144470" lon="-2.4626920">
        <ele>447.1</ele>
        <time>2020-02-01T13:31:14Z</time>
      </trkpt>
      <trkpt lat="42.4145120" lon="-2.4626540">
        <ele>447.1</ele>
        <time>2020-02-01T13:31:15Z</time>
      </trkpt>
      <trkpt lat="42.4145720" lon="-2.4626200">
        <ele>447.0</ele>
        <time>2020-02-01T13:31:16Z</time>
      </trkpt>
      <trkpt lat="42.4146240" lon="-2.4625840">
        <ele>446.9</ele>
        <time>2020-02-01T13:31:17Z</time>
      </trkpt>
      <trkpt lat="42.4146840" lon="-2.4625420">
        <ele>446.8</ele>
        <time>2020-02-01T13:31:18Z</time>
      </trkpt>
      <trkpt lat="42.4147490" lon="-2.4625060">
        <ele>446.6</ele>
        <time>2020-02-01T13:31:19Z</time>
      </trkpt>
      <trkpt lat="42.4148050" lon="-2.4624800">
        <ele>446.5</ele>
        <time>2020-02-01T13:31:20Z</time>
      </trkpt>
      <trkpt lat="42.4148560" lon="-2.4624460">
        <ele>446.4</ele>
        <time>2020-02-01T13:31:21Z</time>
      </trkpt>
      <trkpt lat="42.4149180" lon="-2.4624130">
        <ele>446.3</ele>
        <time>2020-02-01T13:31:22Z</time>
      </trkpt>
      <trkpt lat="42.4149710" lon="-2.4623710">
        <ele>446.2</ele>
        <time>2020-02-01T13:31:23Z</time>
      </trkpt>
      <trkpt lat="42.4150270" lon="-2.4623380">
        <ele>446.2</ele>
        <time>2020-02-01T13:31:24Z</time>
      </trkpt>
      <trkpt lat="42.4150980" lon="-2.4623000">
        <ele>446.1</ele>
        <time>2020-02-01T13:31:25Z</time>
      </trkpt>
      <trkpt lat="42.4151380" lon="-2.4622590">
        <ele>446.0</ele>
        <time>2020-02-01T13:31:26Z</time>
      </trkpt>
      <trkpt lat="42.4151810" lon="-2.4622180">
        <ele>445.9</ele>
        <time>2020-02-01T13:31:27Z</time>
      </trkpt>
      <trkpt lat="42.4152380" lon="-2.4621800">
        <ele>445.8</ele>
        <time>2020-02-01T13:31:28Z</time>
      </trkpt>
      <trkpt lat="42.4152890" lon="-2.4621460">
        <ele>445.6</ele>
        <time>2020-02-01T13:31:29Z</time>
      </trkpt>
      <trkpt lat="42.4153500" lon="-2.4621110">
        <ele>445.5</ele>
        <time>2020-02-01T13:31:30Z</time>
      </trkpt>
      <trkpt lat="42.4154040" lon="-2.4620780">
        <ele>445.4</ele>
        <time>2020-02-01T13:31:31Z</time>
      </trkpt>
      <trkpt lat="42.4154620" lon="-2.4620450">
        <ele>445.3</ele>
        <time>2020-02-01T13:31:32Z</time>
      </trkpt>
      <trkpt lat="42.4155230" lon="-2.4620060">
        <ele>445.2</ele>
        <time>2020-02-01T13:31:33Z</time>
      </trkpt>
      <trkpt lat="42.4155790" lon="-2.4619710">
        <ele>445.2</ele>
        <time>2020-02-01T13:31:34Z</time>
      </trkpt>
      <trkpt lat="42.4156360" lon="-2.4619370">
        <ele>445.2</ele>
        <time>2020-02-01T13:31:35Z</time>
      </trkpt>
      <trkpt lat="42.4156880" lon="-2.4619040">
        <ele>445.2</ele>
        <time>2020-02-01T13:31:36Z</time>
      </trkpt>
      <trkpt lat="42.4157400" lon="-2.4618750">
        <ele>445.2</ele>
        <time>2020-02-01T13:31:37Z</time>
      </trkpt>
      <trkpt lat="42.4157950" lon="-2.4618430">
        <ele>445.2</ele>
        <time>2020-02-01T13:31:38Z</time>
      </trkpt>
      <trkpt lat="42.4158520" lon="-2.4618040">
        <ele>445.2</ele>
        <time>2020-02-01T13:31:39Z</time>
      </trkpt>
      <trkpt lat="42.4159040" lon="-2.4617700">
        <ele>445.2</ele>
        <time>2020-02-01T13:31:40Z</time>
      </trkpt>
      <trkpt lat="42.4159620" lon="-2.4617300">
        <ele>445.2</ele>
        <time>2020-02-01T13:31:41Z</time>
      </trkpt>
      <trkpt lat="42.4160040" lon="-2.4616970">
        <ele>445.2</ele>
        <time>2020-02-01T13:31:42Z</time>
      </trkpt>
      <trkpt lat="42.4160640" lon="-2.4616580">
        <ele>445.2</ele>
        <time>2020-02-01T13:31:43Z</time>
      </trkpt>
      <trkpt lat="42.4161230" lon="-2.4616200">
        <ele>445.2</ele>
        <time>2020-02-01T13:31:44Z</time>
      </trkpt>
      <trkpt lat="42.4161680" lon="-2.4615880">
        <ele>445.2</ele>
        <time>2020-02-01T13:31:45Z</time>
      </trkpt>
      <trkpt lat="42.4162330" lon="-2.4615560">
        <ele>445.2</ele>
        <time>2020-02-01T13:31:46Z</time>
      </trkpt>
      <trkpt lat="42.4163000" lon="-2.4615230">
        <ele>445.2</ele>
        <time>2020-02-01T13:31:47Z</time>
      </trkpt>
      <trkpt lat="42.4163560" lon="-2.4614930">
        <ele>445.2</ele>
        <time>2020-02-01T13:31:48Z</time>
      </trkpt>
      <trkpt lat="42.4164100" lon="-2.4614630">
        <ele>445.2</ele>
        <time>2020-02-01T13:31:49Z</time>
      </trkpt>
      <trkpt lat="42.4164740" lon="-2.4614230">
        <ele>445.2</ele>
        <time>2020-02-01T13:31:50Z</time>
      </trkpt>
      <trkpt lat="42.4165280" lon="-2.4613880">
        <ele>445.2</ele>
        <time>2020-02-01T13:31:51Z</time>
      </trkpt>
      <trkpt lat="42.4165670" lon="-2.4613550">
        <ele>445.2</ele>
        <time>2020-02-01T13:31:52Z</time>
      </trkpt>
      <trkpt lat="42.4166240" lon="-2.4613160">
        <ele>445.2</ele>
        <time>2020-02-01T13:31:53Z</time>
      </trkpt>
      <trkpt lat="42.4166890" lon="-2.4612830">
        <ele>445.2</ele>
        <time>2020-02-01T13:31:54Z</time>
      </trkpt>
      <trkpt lat="42.4167430" lon="-2.4612520">
        <ele>445.2</ele>
        <time>2020-02-01T13:31:55Z</time>
      </trkpt>
      <trkpt lat="42.4167970" lon="-2.4612160">
        <ele>445.2</ele>
        <time>2020-02-01T13:31:56Z</time>
      </trkpt>
      <trkpt lat="42.4168580" lon="-2.4611780">
        <ele>445.2</ele>
        <time>2020-02-01T13:31:57Z</time>
      </trkpt>
      <trkpt lat="42.4169190" lon="-2.4611400">
        <ele>445.2</ele>
        <time>2020-02-01T13:31:58Z</time>
      </trkpt>
      <trkpt lat="42.4169470" lon="-2.4611020">
        <ele>445.2</ele>
        <time>2020-02-01T13:31:59Z</time>
      </trkpt>
      <trkpt lat="42.4170110" lon="-2.4610630">
        <ele>445.2</ele>
        <time>2020-02-01T13:32:00Z</time>
      </trkpt>
      <trkpt lat="42.4170650" lon="-2.4610230">
        <ele>445.2</ele>
        <time>2020-02-01T13:32:01Z</time>
      </trkpt>
      <trkpt lat="42.4171080" lon="-2.4609930">
        <ele>445.2</ele>
        <time>2020-02-01T13:32:02Z</time>
      </trkpt>
      <trkpt lat="42.4171730" lon="-2.4609500">
        <ele>445.2</ele>
        <time>2020-02-01T13:32:03Z</time>
      </trkpt>
      <trkpt lat="42.4172350" lon="-2.4609030">
        <ele>445.2</ele>
        <time>2020-02-01T13:32:04Z</time>
      </trkpt>
      <trkpt lat="42.4173010" lon="-2.4608640">
        <ele>445.2</ele>
        <time>2020-02-01T13:32:05Z</time>
      </trkpt>
      <trkpt lat="42.4173650" lon="-2.4608240">
        <ele>445.1</ele>
        <time>2020-02-01T13:32:06Z</time>
      </trkpt>
      <trkpt lat="42.4174300" lon="-2.4607820">
        <ele>445.0</ele>
        <time>2020-02-01T13:32:07Z</time>
      </trkpt>
      <trkpt lat="42.4175000" lon="-2.4607410">
        <ele>444.8</ele>
        <time>2020-02-01T13:32:08Z</time>
      </trkpt>
      <trkpt lat="42.4175670" lon="-2.4607000">
        <ele>444.6</ele>
        <time>2020-02-01T13:32:09Z</time>
      </trkpt>
      <trkpt lat="42.4176450" lon="-2.4606550">
        <ele>444.3</ele>
        <time>2020-02-01T13:32:10Z</time>
      </trkpt>
      <trkpt lat="42.4177160" lon="-2.4606180">
        <ele>444.1</ele>
        <time>2020-02-01T13:32:11Z</time>
      </trkpt>
      <trkpt lat="42.4177880" lon="-2.4605790">
        <ele>443.9</ele>
        <time>2020-02-01T13:32:12Z</time>
      </trkpt>
      <trkpt lat="42.4178510" lon="-2.4605400">
        <ele>443.7</ele>
        <time>2020-02-01T13:32:13Z</time>
      </trkpt>
      <trkpt lat="42.4179230" lon="-2.4604920">
        <ele>443.5</ele>
        <time>2020-02-01T13:32:14Z</time>
      </trkpt>
      <trkpt lat="42.4179890" lon="-2.4604460">
        <ele>443.4</ele>
        <time>2020-02-01T13:32:15Z</time>
      </trkpt>
      <trkpt lat="42.4180580" lon="-2.4604040">
        <ele>443.3</ele>
        <time>2020-02-01T13:32:16Z</time>
      </trkpt>
      <trkpt lat="42.4181320" lon="-2.4603610">
        <ele>443.3</ele>
        <time>2020-02-01T13:32:17Z</time>
      </trkpt>
      <trkpt lat="42.4181960" lon="-2.4603220">
        <ele>443.2</ele>
        <time>2020-02-01T13:32:18Z</time>
      </trkpt>
      <trkpt lat="42.4182700" lon="-2.4602820">
        <ele>443.2</ele>
        <time>2020-02-01T13:32:19Z</time>
      </trkpt>
      <trkpt lat="42.4183440" lon="-2.4602450">
        <ele>443.2</ele>
        <time>2020-02-01T13:32:20Z</time>
      </trkpt>
      <trkpt lat="42.4184100" lon="-2.4602010">
        <ele>443.2</ele>
        <time>2020-02-01T13:32:21Z</time>
      </trkpt>
      <trkpt lat="42.4184600" lon="-2.4601580">
        <ele>443.2</ele>
        <time>2020-02-01T13:32:22Z</time>
      </trkpt>
      <trkpt lat="42.4185310" lon="-2.4601100">
        <ele>443.1</ele>
        <time>2020-02-01T13:32:23Z</time>
      </trkpt>
      <trkpt lat="42.4186080" lon="-2.4600670">
        <ele>443.0</ele>
        <time>2020-02-01T13:32:24Z</time>
      </trkpt>
      <trkpt lat="42.4186950" lon="-2.4600310">
        <ele>442.8</ele>
        <time>2020-02-01T13:32:25Z</time>
      </trkpt>
      <trkpt lat="42.4187610" lon="-2.4599880">
        <ele>442.6</ele>
        <time>2020-02-01T13:32:26Z</time>
      </trkpt>
      <trkpt lat="42.4188290" lon="-2.4599510">
        <ele>442.4</ele>
        <time>2020-02-01T13:32:27Z</time>
      </trkpt>
      <trkpt lat="42.4189000" lon="-2.4599080">
        <ele>442.1</ele>
        <time>2020-02-01T13:32:28Z</time>
      </trkpt>
      <trkpt lat="42.4189600" lon="-2.4598700">
        <ele>442.0</ele>
        <time>2020-02-01T13:32:29Z</time>
      </trkpt>
      <trkpt lat="42.4190210" lon="-2.4598300">
        <ele>441.8</ele>
        <time>2020-02-01T13:32:30Z</time>
      </trkpt>
      <trkpt lat="42.4190880" lon="-2.4597840">
        <ele>441.6</ele>
        <time>2020-02-01T13:32:31Z</time>
      </trkpt>
      <trkpt lat="42.4191120" lon="-2.4597550">
        <ele>441.5</ele>
        <time>2020-02-01T13:32:32Z</time>
      </trkpt>
      <trkpt lat="42.4191690" lon="-2.4597190">
        <ele>441.4</ele>
        <time>2020-02-01T13:32:33Z</time>
      </trkpt>
      <trkpt lat="42.4192300" lon="-2.4596870">
        <ele>441.3</ele>
        <time>2020-02-01T13:32:34Z</time>
      </trkpt>
      <trkpt lat="42.4192900" lon="-2.4596450">
        <ele>441.3</ele>
        <time>2020-02-01T13:32:35Z</time>
      </trkpt>
      <trkpt lat="42.4193510" lon="-2.4596060">
        <ele>441.3</ele>
        <time>2020-02-01T13:32:36Z</time>
      </trkpt>
      <trkpt lat="42.4194080" lon="-2.4595750">
        <ele>441.3</ele>
        <time>2020-02-01T13:32:37Z</time>
      </trkpt>
      <trkpt lat="42.4194840" lon="-2.4595340">
        <ele>441.3</ele>
        <time>2020-02-01T13:32:38Z</time>
      </trkpt>
      <trkpt lat="42.4195450" lon="-2.4594970">
        <ele>441.3</ele>
        <time>2020-02-01T13:32:39Z</time>
      </trkpt>
      <trkpt lat="42.4196020" lon="-2.4594570">
        <ele>441.3</ele>
        <time>2020-02-01T13:32:40Z</time>
      </trkpt>
      <trkpt lat="42.4196630" lon="-2.4594140">
        <ele>441.3</ele>
        <time>2020-02-01T13:32:41Z</time>
      </trkpt>
      <trkpt lat="42.4197030" lon="-2.4593920">
        <ele>441.2</ele>
        <time>2020-02-01T13:32:42Z</time>
      </trkpt>
      <trkpt lat="42.4197610" lon="-2.4593560">
        <ele>441.2</ele>
        <time>2020-02-01T13:32:43Z</time>
      </trkpt>
      <trkpt lat="42.4198180" lon="-2.4593190">
        <ele>441.2</ele>
        <time>2020-02-01T13:32:44Z</time>
      </trkpt>
      <trkpt lat="42.4198710" lon="-2.4592790">
        <ele>441.2</ele>
        <time>2020-02-01T13:32:45Z</time>
      </trkpt>
      <trkpt lat="42.4199250" lon="-2.4592420">
        <ele>441.2</ele>
        <time>2020-02-01T13:32:46Z</time>
      </trkpt>
      <trkpt lat="42.4199820" lon="-2.4592120">
        <ele>441.2</ele>
        <time>2020-02-01T13:32:47Z</time>
      </trkpt>
      <trkpt lat="42.4200280" lon="-2.4591800">
        <ele>441.2</ele>
        <time>2020-02-01T13:32:48Z</time>
      </trkpt>
      <trkpt lat="42.4200750" lon="-2.4591420">
        <ele>441.2</ele>
        <time>2020-02-01T13:32:49Z</time>
      </trkpt>
      <trkpt lat="42.4201230" lon="-2.4591100">
        <ele>441.2</ele>
        <time>2020-02-01T13:32:50Z</time>
      </trkpt>
      <trkpt lat="42.4201790" lon="-2.4590800">
        <ele>441.2</ele>
        <time>2020-02-01T13:32:51Z</time>
      </trkpt>
      <trkpt lat="42.4202390" lon="-2.4590470">
        <ele>441.2</ele>
        <time>2020-02-01T13:32:52Z</time>
      </trkpt>
      <trkpt lat="42.4202970" lon="-2.4590160">
        <ele>441.2</ele>
        <time>2020-02-01T13:32:53Z</time>
      </trkpt>
      <trkpt lat="42.4203100" lon="-2.4589830">
        <ele>441.2</ele>
        <time>2020-02-01T13:32:54Z</time>
      </trkpt>
      <trkpt lat="42.4203640" lon="-2.4589450">
        <ele>441.2</ele>
        <time>2020-02-01T13:32:55Z</time>
      </trkpt>
      <trkpt lat="42.4204230" lon="-2.4589100">
        <ele>441.2</ele>
        <time>2020-02-01T13:32:56Z</time>
      </trkpt>
      <trkpt lat="42.4204800" lon="-2.4588790">
        <ele>441.2</ele>
        <time>2020-02-01T13:32:57Z</time>
      </trkpt>
      <trkpt lat="42.4205410" lon="-2.4588460">
        <ele>441.1</ele>
        <time>2020-02-01T13:32:58Z</time>
      </trkpt>
      <trkpt lat="42.4205960" lon="-2.4588130">
        <ele>441.1</ele>
        <time>2020-02-01T13:32:59Z</time>
      </trkpt>
      <trkpt lat="42.4206430" lon="-2.4587820">
        <ele>441.1</ele>
        <time>2020-02-01T13:33:00Z</time>
      </trkpt>
      <trkpt lat="42.4207080" lon="-2.4587450">
        <ele>441.1</ele>
        <time>2020-02-01T13:33:01Z</time>
      </trkpt>
      <trkpt lat="42.4207650" lon="-2.4587130">
        <ele>441.1</ele>
        <time>2020-02-01T13:33:02Z</time>
      </trkpt>
      <trkpt lat="42.4208200" lon="-2.4586770">
        <ele>441.1</ele>
        <time>2020-02-01T13:33:03Z</time>
      </trkpt>
      <trkpt lat="42.4208600" lon="-2.4586400">
        <ele>441.1</ele>
        <time>2020-02-01T13:33:04Z</time>
      </trkpt>
      <trkpt lat="42.4209130" lon="-2.4586040">
        <ele>441.1</ele>
        <time>2020-02-01T13:33:05Z</time>
      </trkpt>
      <trkpt lat="42.4209740" lon="-2.4585700">
        <ele>441.1</ele>
        <time>2020-02-01T13:33:06Z</time>
      </trkpt>
      <trkpt lat="42.4210320" lon="-2.4585340">
        <ele>441.1</ele>
        <time>2020-02-01T13:33:07Z</time>
      </trkpt>
      <trkpt lat="42.4210930" lon="-2.4584970">
        <ele>441.1</ele>
        <time>2020-02-01T13:33:08Z</time>
      </trkpt>
      <trkpt lat="42.4211560" lon="-2.4584650">
        <ele>441.1</ele>
        <time>2020-02-01T13:33:09Z</time>
      </trkpt>
      <trkpt lat="42.4212210" lon="-2.4584250">
        <ele>441.0</ele>
        <time>2020-02-01T13:33:10Z</time>
      </trkpt>
      <trkpt lat="42.4212860" lon="-2.4583890">
        <ele>441.0</ele>
        <time>2020-02-01T13:33:11Z</time>
      </trkpt>
      <trkpt lat="42.4213660" lon="-2.4583440">
        <ele>440.9</ele>
        <time>2020-02-01T13:33:12Z</time>
      </trkpt>
      <trkpt lat="42.4214390" lon="-2.4583100">
        <ele>440.8</ele>
        <time>2020-02-01T13:33:13Z</time>
      </trkpt>
      <trkpt lat="42.4214890" lon="-2.4582720">
        <ele>440.6</ele>
        <time>2020-02-01T13:33:14Z</time>
      </trkpt>
      <trkpt lat="42.4215540" lon="-2.4582390">
        <ele>440.4</ele>
        <time>2020-02-01T13:33:15Z</time>
      </trkpt>
      <trkpt lat="42.4216170" lon="-2.4582030">
        <ele>440.2</ele>
        <time>2020-02-01T13:33:16Z</time>
      </trkpt>
      <trkpt lat="42.4216870" lon="-2.4581660">
        <ele>440.0</ele>
        <time>2020-02-01T13:33:17Z</time>
      </trkpt>
      <trkpt lat="42.4217390" lon="-2.4581290">
        <ele>439.8</ele>
        <time>2020-02-01T13:33:18Z</time>
      </trkpt>
      <trkpt lat="42.4217970" lon="-2.4580920">
        <ele>439.6</ele>
        <time>2020-02-01T13:33:19Z</time>
      </trkpt>
      <trkpt lat="42.4218640" lon="-2.4580550">
        <ele>439.4</ele>
        <time>2020-02-01T13:33:20Z</time>
      </trkpt>
      <trkpt lat="42.4219370" lon="-2.4580230">
        <ele>439.2</ele>
        <time>2020-02-01T13:33:21Z</time>
      </trkpt>
      <trkpt lat="42.4220000" lon="-2.4579870">
        <ele>439.0</ele>
        <time>2020-02-01T13:33:22Z</time>
      </trkpt>
      <trkpt lat="42.4220660" lon="-2.4579550">
        <ele>438.7</ele>
        <time>2020-02-01T13:33:23Z</time>
      </trkpt>
      <trkpt lat="42.4221210" lon="-2.4579260">
        <ele>438.6</ele>
        <time>2020-02-01T13:33:24Z</time>
      </trkpt>
      <trkpt lat="42.4221670" lon="-2.4579040">
        <ele>438.5</ele>
        <time>2020-02-01T13:33:25Z</time>
      </trkpt>
      <trkpt lat="42.4222020" lon="-2.4578840">
        <ele>438.3</ele>
        <time>2020-02-01T13:33:26Z</time>
      </trkpt>
      <trkpt lat="42.4222360" lon="-2.4578580">
        <ele>438.2</ele>
        <time>2020-02-01T13:33:28Z</time>
      </trkpt>
      <trkpt lat="42.4222660" lon="-2.4578240">
        <ele>438.0</ele>
        <time>2020-02-01T13:33:30Z</time>
      </trkpt>
      <trkpt lat="42.4222950" lon="-2.4578040">
        <ele>437.9</ele>
        <time>2020-02-01T13:33:31Z</time>
      </trkpt>
      <trkpt lat="42.4223200" lon="-2.4577720">
        <ele>437.8</ele>
        <time>2020-02-01T13:33:32Z</time>
      </trkpt>
      <trkpt lat="42.4223550" lon="-2.4577400">
        <ele>437.7</ele>
        <time>2020-02-01T13:33:33Z</time>
      </trkpt>
      <trkpt lat="42.4224000" lon="-2.4577240">
        <ele>437.5</ele>
        <time>2020-02-01T13:33:34Z</time>
      </trkpt>
      <trkpt lat="42.4224460" lon="-2.4577130">
        <ele>437.4</ele>
        <time>2020-02-01T13:33:35Z</time>
      </trkpt>
      <trkpt lat="42.4225100" lon="-2.4577140">
        <ele>437.1</ele>
        <time>2020-02-01T13:33:36Z</time>
      </trkpt>
      <trkpt lat="42.4225690" lon="-2.4577310">
        <ele>436.8</ele>
        <time>2020-02-01T13:33:37Z</time>
      </trkpt>
      <trkpt lat="42.4226260" lon="-2.4577410">
        <ele>436.6</ele>
        <time>2020-02-01T13:33:38Z</time>
      </trkpt>
      <trkpt lat="42.4226870" lon="-2.4577400">
        <ele>436.4</ele>
        <time>2020-02-01T13:33:39Z</time>
      </trkpt>
      <trkpt lat="42.4227460" lon="-2.4577040">
        <ele>436.2</ele>
        <time>2020-02-01T13:33:40Z</time>
      </trkpt>
      <trkpt lat="42.4228180" lon="-2.4576810">
        <ele>435.5</ele>
        <time>2020-02-01T13:33:41Z</time>
      </trkpt>
      <trkpt lat="42.4228740" lon="-2.4576540">
        <ele>435.5</ele>
        <time>2020-02-01T13:33:42Z</time>
      </trkpt>
      <trkpt lat="42.4229420" lon="-2.4576510">
        <ele>435.4</ele>
        <time>2020-02-01T13:33:43Z</time>
      </trkpt>
      <trkpt lat="42.4230080" lon="-2.4576480">
        <ele>435.2</ele>
        <time>2020-02-01T13:33:44Z</time>
      </trkpt>
      <trkpt lat="42.4230680" lon="-2.4575980">
        <ele>434.9</ele>
        <time>2020-02-01T13:33:45Z</time>
      </trkpt>
      <trkpt lat="42.4231400" lon="-2.4575740">
        <ele>434.6</ele>
        <time>2020-02-01T13:33:46Z</time>
      </trkpt>
      <trkpt lat="42.4232150" lon="-2.4575430">
        <ele>434.3</ele>
        <time>2020-02-01T13:33:47Z</time>
      </trkpt>
      <trkpt lat="42.4232950" lon="-2.4575200">
        <ele>434.1</ele>
        <time>2020-02-01T13:33:48Z</time>
      </trkpt>
      <trkpt lat="42.4233870" lon="-2.4575000">
        <ele>433.7</ele>
        <time>2020-02-01T13:33:49Z</time>
      </trkpt>
      <trkpt lat="42.4234730" lon="-2.4574760">
        <ele>433.4</ele>
        <time>2020-02-01T13:33:50Z</time>
      </trkpt>
      <trkpt lat="42.4235610" lon="-2.4574530">
        <ele>433.1</ele>
        <time>2020-02-01T13:33:51Z</time>
      </trkpt>
      <trkpt lat="42.4236370" lon="-2.4574300">
        <ele>432.9</ele>
        <time>2020-02-01T13:33:52Z</time>
      </trkpt>
      <trkpt lat="42.4237080" lon="-2.4574020">
        <ele>432.7</ele>
        <time>2020-02-01T13:33:53Z</time>
      </trkpt>
      <trkpt lat="42.4237960" lon="-2.4573810">
        <ele>432.5</ele>
        <time>2020-02-01T13:33:54Z</time>
      </trkpt>
      <trkpt lat="42.4238800" lon="-2.4573540">
        <ele>432.3</ele>
        <time>2020-02-01T13:33:55Z</time>
      </trkpt>
      <trkpt lat="42.4239480" lon="-2.4573280">
        <ele>432.1</ele>
        <time>2020-02-01T13:33:56Z</time>
      </trkpt>
      <trkpt lat="42.4240310" lon="-2.4572950">
        <ele>431.9</ele>
        <time>2020-02-01T13:33:57Z</time>
      </trkpt>
      <trkpt lat="42.4240560" lon="-2.4572740">
        <ele>431.8</ele>
        <time>2020-02-01T13:33:58Z</time>
      </trkpt>
      <trkpt lat="42.4241410" lon="-2.4572490">
        <ele>431.6</ele>
        <time>2020-02-01T13:33:59Z</time>
      </trkpt>
      <trkpt lat="42.4242220" lon="-2.4572190">
        <ele>431.4</ele>
        <time>2020-02-01T13:34:00Z</time>
      </trkpt>
      <trkpt lat="42.4242970" lon="-2.4571950">
        <ele>431.2</ele>
        <time>2020-02-01T13:34:01Z</time>
      </trkpt>
      <trkpt lat="42.4243750" lon="-2.4571820">
        <ele>431.0</ele>
        <time>2020-02-01T13:34:02Z</time>
      </trkpt>
      <trkpt lat="42.4244490" lon="-2.4571520">
        <ele>430.9</ele>
        <time>2020-02-01T13:34:03Z</time>
      </trkpt>
      <trkpt lat="42.4245170" lon="-2.4571450">
        <ele>430.7</ele>
        <time>2020-02-01T13:34:04Z</time>
      </trkpt>
      <trkpt lat="42.4245840" lon="-2.4571270">
        <ele>430.6</ele>
        <time>2020-02-01T13:34:05Z</time>
      </trkpt>
      <trkpt lat="42.4246560" lon="-2.4571030">
        <ele>430.5</ele>
        <time>2020-02-01T13:34:06Z</time>
      </trkpt>
      <trkpt lat="42.4247290" lon="-2.4570850">
        <ele>430.3</ele>
        <time>2020-02-01T13:34:07Z</time>
      </trkpt>
      <trkpt lat="42.4248060" lon="-2.4570700">
        <ele>430.0</ele>
        <time>2020-02-01T13:34:08Z</time>
      </trkpt>
      <trkpt lat="42.4248830" lon="-2.4570380">
        <ele>429.7</ele>
        <time>2020-02-01T13:34:09Z</time>
      </trkpt>
      <trkpt lat="42.4249590" lon="-2.4570150">
        <ele>429.4</ele>
        <time>2020-02-01T13:34:10Z</time>
      </trkpt>
      <trkpt lat="42.4250360" lon="-2.4569900">
        <ele>429.1</ele>
        <time>2020-02-01T13:34:11Z</time>
      </trkpt>
      <trkpt lat="42.4251160" lon="-2.4569650">
        <ele>428.9</ele>
        <time>2020-02-01T13:34:12Z</time>
      </trkpt>
      <trkpt lat="42.4251970" lon="-2.4569460">
        <ele>428.8</ele>
        <time>2020-02-01T13:34:13Z</time>
      </trkpt>
      <trkpt lat="42.4252690" lon="-2.4569260">
        <ele>428.7</ele>
        <time>2020-02-01T13:34:14Z</time>
      </trkpt>
      <trkpt lat="42.4253510" lon="-2.4568990">
        <ele>428.5</ele>
        <time>2020-02-01T13:34:15Z</time>
      </trkpt>
      <trkpt lat="42.4254350" lon="-2.4568750">
        <ele>428.3</ele>
        <time>2020-02-01T13:34:16Z</time>
      </trkpt>
      <trkpt lat="42.4255120" lon="-2.4568540">
        <ele>428.1</ele>
        <time>2020-02-01T13:34:17Z</time>
      </trkpt>
      <trkpt lat="42.4255970" lon="-2.4568230">
        <ele>427.9</ele>
        <time>2020-02-01T13:34:18Z</time>
      </trkpt>
      <trkpt lat="42.4256740" lon="-2.4567920">
        <ele>427.8</ele>
        <time>2020-02-01T13:34:19Z</time>
      </trkpt>
      <trkpt lat="42.4257510" lon="-2.4567660">
        <ele>427.7</ele>
        <time>2020-02-01T13:34:20Z</time>
      </trkpt>
      <trkpt lat="42.4258260" lon="-2.4567410">
        <ele>427.6</ele>
        <time>2020-02-01T13:34:21Z</time>
      </trkpt>
      <trkpt lat="42.4259030" lon="-2.4567200">
        <ele>427.4</ele>
        <time>2020-02-01T13:34:22Z</time>
      </trkpt>
      <trkpt lat="42.4259830" lon="-2.4566940">
        <ele>427.1</ele>
        <time>2020-02-01T13:34:23Z</time>
      </trkpt>
      <trkpt lat="42.4260590" lon="-2.4566620">
        <ele>426.7</ele>
        <time>2020-02-01T13:34:24Z</time>
      </trkpt>
      <trkpt lat="42.4261370" lon="-2.4566300">
        <ele>426.4</ele>
        <time>2020-02-01T13:34:25Z</time>
      </trkpt>
      <trkpt lat="42.4262070" lon="-2.4566050">
        <ele>426.1</ele>
        <time>2020-02-01T13:34:26Z</time>
      </trkpt>
      <trkpt lat="42.4262890" lon="-2.4565770">
        <ele>425.9</ele>
        <time>2020-02-01T13:34:27Z</time>
      </trkpt>
      <trkpt lat="42.4263550" lon="-2.4565570">
        <ele>425.7</ele>
        <time>2020-02-01T13:34:28Z</time>
      </trkpt>
      <trkpt lat="42.4264310" lon="-2.4565390">
        <ele>425.6</ele>
        <time>2020-02-01T13:34:29Z</time>
      </trkpt>
      <trkpt lat="42.4264940" lon="-2.4565170">
        <ele>425.4</ele>
        <time>2020-02-01T13:34:30Z</time>
      </trkpt>
      <trkpt lat="42.4265340" lon="-2.4564850">
        <ele>425.3</ele>
        <time>2020-02-01T13:34:31Z</time>
      </trkpt>
      <trkpt lat="42.4266140" lon="-2.4564670">
        <ele>425.1</ele>
        <time>2020-02-01T13:34:32Z</time>
      </trkpt>
      <trkpt lat="42.4267060" lon="-2.4564500">
        <ele>425.0</ele>
        <time>2020-02-01T13:34:33Z</time>
      </trkpt>
      <trkpt lat="42.4267860" lon="-2.4564240">
        <ele>424.9</ele>
        <time>2020-02-01T13:34:34Z</time>
      </trkpt>
      <trkpt lat="42.4268540" lon="-2.4563970">
        <ele>424.9</ele>
        <time>2020-02-01T13:34:35Z</time>
      </trkpt>
      <trkpt lat="42.4269320" lon="-2.4563710">
        <ele>424.9</ele>
        <time>2020-02-01T13:34:36Z</time>
      </trkpt>
      <trkpt lat="42.4270080" lon="-2.4563500">
        <ele>424.7</ele>
        <time>2020-02-01T13:34:37Z</time>
      </trkpt>
      <trkpt lat="42.4270590" lon="-2.4563350">
        <ele>424.5</ele>
        <time>2020-02-01T13:34:38Z</time>
      </trkpt>
      <trkpt lat="42.4271410" lon="-2.4563160">
        <ele>424.3</ele>
        <time>2020-02-01T13:34:39Z</time>
      </trkpt>
      <trkpt lat="42.4272230" lon="-2.4562920">
        <ele>424.2</ele>
        <time>2020-02-01T13:34:40Z</time>
      </trkpt>
      <trkpt lat="42.4273040" lon="-2.4562690">
        <ele>424.1</ele>
        <time>2020-02-01T13:34:41Z</time>
      </trkpt>
      <trkpt lat="42.4273730" lon="-2.4562390">
        <ele>424.0</ele>
        <time>2020-02-01T13:34:42Z</time>
      </trkpt>
      <trkpt lat="42.4274470" lon="-2.4562320">
        <ele>423.9</ele>
        <time>2020-02-01T13:34:43Z</time>
      </trkpt>
      <trkpt lat="42.4275170" lon="-2.4562140">
        <ele>423.9</ele>
        <time>2020-02-01T13:34:44Z</time>
      </trkpt>
      <trkpt lat="42.4275920" lon="-2.4561940">
        <ele>423.9</ele>
        <time>2020-02-01T13:34:45Z</time>
      </trkpt>
      <trkpt lat="42.4276470" lon="-2.4561750">
        <ele>423.9</ele>
        <time>2020-02-01T13:34:46Z</time>
      </trkpt>
      <trkpt lat="42.4277150" lon="-2.4561530">
        <ele>423.8</ele>
        <time>2020-02-01T13:34:47Z</time>
      </trkpt>
      <trkpt lat="42.4277780" lon="-2.4561390">
        <ele>423.8</ele>
        <time>2020-02-01T13:34:48Z</time>
      </trkpt>
      <trkpt lat="42.4278410" lon="-2.4561210">
        <ele>423.8</ele>
        <time>2020-02-01T13:34:49Z</time>
      </trkpt>
      <trkpt lat="42.4279060" lon="-2.4561050">
        <ele>423.8</ele>
        <time>2020-02-01T13:34:50Z</time>
      </trkpt>
      <trkpt lat="42.4279650" lon="-2.4560900">
        <ele>423.8</ele>
        <time>2020-02-01T13:34:51Z</time>
      </trkpt>
      <trkpt lat="42.4280290" lon="-2.4560710">
        <ele>423.8</ele>
        <time>2020-02-01T13:34:52Z</time>
      </trkpt>
      <trkpt lat="42.4280890" lon="-2.4560470">
        <ele>423.6</ele>
        <time>2020-02-01T13:34:53Z</time>
      </trkpt>
      <trkpt lat="42.4281520" lon="-2.4560210">
        <ele>423.4</ele>
        <time>2020-02-01T13:34:54Z</time>
      </trkpt>
      <trkpt lat="42.4282160" lon="-2.4560050">
        <ele>423.3</ele>
        <time>2020-02-01T13:34:55Z</time>
      </trkpt>
      <trkpt lat="42.4282760" lon="-2.4559840">
        <ele>423.2</ele>
        <time>2020-02-01T13:34:56Z</time>
      </trkpt>
      <trkpt lat="42.4283460" lon="-2.4559540">
        <ele>423.1</ele>
        <time>2020-02-01T13:34:57Z</time>
      </trkpt>
      <trkpt lat="42.4284120" lon="-2.4559290">
        <ele>423.0</ele>
        <time>2020-02-01T13:34:58Z</time>
      </trkpt>
      <trkpt lat="42.4284810" lon="-2.4559090">
        <ele>422.9</ele>
        <time>2020-02-01T13:34:59Z</time>
      </trkpt>
      <trkpt lat="42.4285570" lon="-2.4558930">
        <ele>422.8</ele>
        <time>2020-02-01T13:35:00Z</time>
      </trkpt>
      <trkpt lat="42.4286340" lon="-2.4558800">
        <ele>422.8</ele>
        <time>2020-02-01T13:35:01Z</time>
      </trkpt>
      <trkpt lat="42.4287150" lon="-2.4558550">
        <ele>422.7</ele>
        <time>2020-02-01T13:35:02Z</time>
      </trkpt>
      <trkpt lat="42.4287830" lon="-2.4558260">
        <ele>422.7</ele>
        <time>2020-02-01T13:35:03Z</time>
      </trkpt>
      <trkpt lat="42.4288630" lon="-2.4558030">
        <ele>422.6</ele>
        <time>2020-02-01T13:35:04Z</time>
      </trkpt>
      <trkpt lat="42.4289210" lon="-2.4557820">
        <ele>422.6</ele>
        <time>2020-02-01T13:35:05Z</time>
      </trkpt>
      <trkpt lat="42.4289940" lon="-2.4557610">
        <ele>422.6</ele>
        <time>2020-02-01T13:35:06Z</time>
      </trkpt>
      <trkpt lat="42.4290390" lon="-2.4557490">
        <ele>422.6</ele>
        <time>2020-02-01T13:35:07Z</time>
      </trkpt>
      <trkpt lat="42.4291240" lon="-2.4557390">
        <ele>422.6</ele>
        <time>2020-02-01T13:35:08Z</time>
      </trkpt>
      <trkpt lat="42.4292050" lon="-2.4557200">
        <ele>422.5</ele>
        <time>2020-02-01T13:35:09Z</time>
      </trkpt>
      <trkpt lat="42.4292800" lon="-2.4557040">
        <ele>422.5</ele>
        <time>2020-02-01T13:35:10Z</time>
      </trkpt>
      <trkpt lat="42.4293600" lon="-2.4556810">
        <ele>422.3</ele>
        <time>2020-02-01T13:35:11Z</time>
      </trkpt>
      <trkpt lat="42.4294400" lon="-2.4556690">
        <ele>422.2</ele>
        <time>2020-02-01T13:35:12Z</time>
      </trkpt>
      <trkpt lat="42.4295110" lon="-2.4556630">
        <ele>422.0</ele>
        <time>2020-02-01T13:35:13Z</time>
      </trkpt>
      <trkpt lat="42.4295830" lon="-2.4556300">
        <ele>421.8</ele>
        <time>2020-02-01T13:35:14Z</time>
      </trkpt>
      <trkpt lat="42.4296540" lon="-2.4556010">
        <ele>421.7</ele>
        <time>2020-02-01T13:35:15Z</time>
      </trkpt>
      <trkpt lat="42.4297320" lon="-2.4555700">
        <ele>421.6</ele>
        <time>2020-02-01T13:35:16Z</time>
      </trkpt>
      <trkpt lat="42.4298050" lon="-2.4555470">
        <ele>421.5</ele>
        <time>2020-02-01T13:35:17Z</time>
      </trkpt>
      <trkpt lat="42.4298760" lon="-2.4555240">
        <ele>421.5</ele>
        <time>2020-02-01T13:35:18Z</time>
      </trkpt>
      <trkpt lat="42.4299550" lon="-2.4554960">
        <ele>421.5</ele>
        <time>2020-02-01T13:35:19Z</time>
      </trkpt>
      <trkpt lat="42.4300340" lon="-2.4554720">
        <ele>421.5</ele>
        <time>2020-02-01T13:35:20Z</time>
      </trkpt>
      <trkpt lat="42.4301000" lon="-2.4554540">
        <ele>421.5</ele>
        <time>2020-02-01T13:35:21Z</time>
      </trkpt>
      <trkpt lat="42.4301720" lon="-2.4554400">
        <ele>421.5</ele>
        <time>2020-02-01T13:35:22Z</time>
      </trkpt>
      <trkpt lat="42.4302510" lon="-2.4554160">
        <ele>421.4</ele>
        <time>2020-02-01T13:35:23Z</time>
      </trkpt>
      <trkpt lat="42.4303190" lon="-2.4553930">
        <ele>421.4</ele>
        <time>2020-02-01T13:35:24Z</time>
      </trkpt>
      <trkpt lat="42.4303740" lon="-2.4553720">
        <ele>421.4</ele>
        <time>2020-02-01T13:35:25Z</time>
      </trkpt>
      <trkpt lat="42.4304230" lon="-2.4553420">
        <ele>421.3</ele>
        <time>2020-02-01T13:35:26Z</time>
      </trkpt>
      <trkpt lat="42.4304920" lon="-2.4553240">
        <ele>421.2</ele>
        <time>2020-02-01T13:35:27Z</time>
      </trkpt>
      <trkpt lat="42.4305700" lon="-2.4553040">
        <ele>421.1</ele>
        <time>2020-02-01T13:35:28Z</time>
      </trkpt>
      <trkpt lat="42.4306680" lon="-2.4552650">
        <ele>420.8</ele>
        <time>2020-02-01T13:35:29Z</time>
      </trkpt>
      <trkpt lat="42.4307390" lon="-2.4552510">
        <ele>420.7</ele>
        <time>2020-02-01T13:35:30Z</time>
      </trkpt>
      <trkpt lat="42.4308150" lon="-2.4552310">
        <ele>420.5</ele>
        <time>2020-02-01T13:35:31Z</time>
      </trkpt>
      <trkpt lat="42.4308990" lon="-2.4552060">
        <ele>420.4</ele>
        <time>2020-02-01T13:35:32Z</time>
      </trkpt>
      <trkpt lat="42.4309700" lon="-2.4551770">
        <ele>420.3</ele>
        <time>2020-02-01T13:35:33Z</time>
      </trkpt>
      <trkpt lat="42.4310060" lon="-2.4551780">
        <ele>420.2</ele>
        <time>2020-02-01T13:35:34Z</time>
      </trkpt>
      <trkpt lat="42.4310830" lon="-2.4551500">
        <ele>420.1</ele>
        <time>2020-02-01T13:35:35Z</time>
      </trkpt>
      <trkpt lat="42.4311580" lon="-2.4551280">
        <ele>419.9</ele>
        <time>2020-02-01T13:35:36Z</time>
      </trkpt>
      <trkpt lat="42.4312420" lon="-2.4550860">
        <ele>419.7</ele>
        <time>2020-02-01T13:35:37Z</time>
      </trkpt>
      <trkpt lat="42.4313230" lon="-2.4550660">
        <ele>419.5</ele>
        <time>2020-02-01T13:35:38Z</time>
      </trkpt>
      <trkpt lat="42.4313830" lon="-2.4550520">
        <ele>419.4</ele>
        <time>2020-02-01T13:35:39Z</time>
      </trkpt>
      <trkpt lat="42.4314340" lon="-2.4550350">
        <ele>419.4</ele>
        <time>2020-02-01T13:35:40Z</time>
      </trkpt>
      <trkpt lat="42.4315030" lon="-2.4550270">
        <ele>419.3</ele>
        <time>2020-02-01T13:35:41Z</time>
      </trkpt>
      <trkpt lat="42.4315950" lon="-2.4549530">
        <ele>419.3</ele>
        <time>2020-02-01T13:35:42Z</time>
      </trkpt>
      <trkpt lat="42.4316700" lon="-2.4549170">
        <ele>419.3</ele>
        <time>2020-02-01T13:35:43Z</time>
      </trkpt>
      <trkpt lat="42.4317280" lon="-2.4549150">
        <ele>419.2</ele>
        <time>2020-02-01T13:35:44Z</time>
      </trkpt>
      <trkpt lat="42.4318020" lon="-2.4549080">
        <ele>419.2</ele>
        <time>2020-02-01T13:35:45Z</time>
      </trkpt>
      <trkpt lat="42.4318690" lon="-2.4548790">
        <ele>419.1</ele>
        <time>2020-02-01T13:35:46Z</time>
      </trkpt>
      <trkpt lat="42.4319350" lon="-2.4548460">
        <ele>419.0</ele>
        <time>2020-02-01T13:35:47Z</time>
      </trkpt>
      <trkpt lat="42.4319990" lon="-2.4548090">
        <ele>418.9</ele>
        <time>2020-02-01T13:35:48Z</time>
      </trkpt>
      <trkpt lat="42.4320590" lon="-2.4547890">
        <ele>418.7</ele>
        <time>2020-02-01T13:35:49Z</time>
      </trkpt>
      <trkpt lat="42.4321220" lon="-2.4547630">
        <ele>418.6</ele>
        <time>2020-02-01T13:35:50Z</time>
      </trkpt>
      <trkpt lat="42.4321700" lon="-2.4547270">
        <ele>418.5</ele>
        <time>2020-02-01T13:35:51Z</time>
      </trkpt>
      <trkpt lat="42.4322360" lon="-2.4547010">
        <ele>418.3</ele>
        <time>2020-02-01T13:35:52Z</time>
      </trkpt>
      <trkpt lat="42.4322890" lon="-2.4546780">
        <ele>418.3</ele>
        <time>2020-02-01T13:35:53Z</time>
      </trkpt>
      <trkpt lat="42.4323440" lon="-2.4546510">
        <ele>418.2</ele>
        <time>2020-02-01T13:35:54Z</time>
      </trkpt>
      <trkpt lat="42.4324090" lon="-2.4546330">
        <ele>418.2</ele>
        <time>2020-02-01T13:35:55Z</time>
      </trkpt>
      <trkpt lat="42.4324680" lon="-2.4546090">
        <ele>418.2</ele>
        <time>2020-02-01T13:35:56Z</time>
      </trkpt>
      <trkpt lat="42.4325310" lon="-2.4545870">
        <ele>418.2</ele>
        <time>2020-02-01T13:35:57Z</time>
      </trkpt>
      <trkpt lat="42.4325850" lon="-2.4545600">
        <ele>418.2</ele>
        <time>2020-02-01T13:35:58Z</time>
      </trkpt>
      <trkpt lat="42.4326390" lon="-2.4545390">
        <ele>418.2</ele>
        <time>2020-02-01T13:35:59Z</time>
      </trkpt>
      <trkpt lat="42.4326980" lon="-2.4545150">
        <ele>417.9</ele>
        <time>2020-02-01T13:36:00Z</time>
      </trkpt>
      <trkpt lat="42.4327490" lon="-2.4544910">
        <ele>417.8</ele>
        <time>2020-02-01T13:36:01Z</time>
      </trkpt>
      <trkpt lat="42.4328080" lon="-2.4544690">
        <ele>417.7</ele>
        <time>2020-02-01T13:36:02Z</time>
      </trkpt>
      <trkpt lat="42.4328620" lon="-2.4544430">
        <ele>417.6</ele>
        <time>2020-02-01T13:36:03Z</time>
      </trkpt>
      <trkpt lat="42.4329250" lon="-2.4544270">
        <ele>417.5</ele>
        <time>2020-02-01T13:36:04Z</time>
      </trkpt>
      <trkpt lat="42.4329880" lon="-2.4544130">
        <ele>417.3</ele>
        <time>2020-02-01T13:36:05Z</time>
      </trkpt>
      <trkpt lat="42.4330500" lon="-2.4543990">
        <ele>417.2</ele>
        <time>2020-02-01T13:36:06Z</time>
      </trkpt>
      <trkpt lat="42.4331120" lon="-2.4543910">
        <ele>417.1</ele>
        <time>2020-02-01T13:36:07Z</time>
      </trkpt>
      <trkpt lat="42.4331700" lon="-2.4543750">
        <ele>417.0</ele>
        <time>2020-02-01T13:36:08Z</time>
      </trkpt>
      <trkpt lat="42.4332350" lon="-2.4543720">
        <ele>417.0</ele>
        <time>2020-02-01T13:36:09Z</time>
      </trkpt>
      <trkpt lat="42.4333000" lon="-2.4543630">
        <ele>417.0</ele>
        <time>2020-02-01T13:36:10Z</time>
      </trkpt>
      <trkpt lat="42.4333580" lon="-2.4543530">
        <ele>417.0</ele>
        <time>2020-02-01T13:36:11Z</time>
      </trkpt>
      <trkpt lat="42.4334200" lon="-2.4543530">
        <ele>416.9</ele>
        <time>2020-02-01T13:36:12Z</time>
      </trkpt>
      <trkpt lat="42.4334860" lon="-2.4543470">
        <ele>417.0</ele>
        <time>2020-02-01T13:36:13Z</time>
      </trkpt>
      <trkpt lat="42.4335530" lon="-2.4543360">
        <ele>417.0</ele>
        <time>2020-02-01T13:36:14Z</time>
      </trkpt>
      <trkpt lat="42.4336270" lon="-2.4543260">
        <ele>417.0</ele>
        <time>2020-02-01T13:36:15Z</time>
      </trkpt>
      <trkpt lat="42.4336800" lon="-2.4543260">
        <ele>417.0</ele>
        <time>2020-02-01T13:36:16Z</time>
      </trkpt>
      <trkpt lat="42.4337470" lon="-2.4543210">
        <ele>417.0</ele>
        <time>2020-02-01T13:36:17Z</time>
      </trkpt>
      <trkpt lat="42.4338060" lon="-2.4543100">
        <ele>417.0</ele>
        <time>2020-02-01T13:36:18Z</time>
      </trkpt>
      <trkpt lat="42.4338790" lon="-2.4542920">
        <ele>417.0</ele>
        <time>2020-02-01T13:36:19Z</time>
      </trkpt>
      <trkpt lat="42.4339440" lon="-2.4542810">
        <ele>417.1</ele>
        <time>2020-02-01T13:36:20Z</time>
      </trkpt>
      <trkpt lat="42.4340150" lon="-2.4542680">
        <ele>417.1</ele>
        <time>2020-02-01T13:36:21Z</time>
      </trkpt>
      <trkpt lat="42.4340980" lon="-2.4542500">
        <ele>417.0</ele>
        <time>2020-02-01T13:36:22Z</time>
      </trkpt>
      <trkpt lat="42.4341710" lon="-2.4542420">
        <ele>417.0</ele>
        <time>2020-02-01T13:36:23Z</time>
      </trkpt>
      <trkpt lat="42.4342600" lon="-2.4542290">
        <ele>416.9</ele>
        <time>2020-02-01T13:36:24Z</time>
      </trkpt>
      <trkpt lat="42.4343310" lon="-2.4541970">
        <ele>416.8</ele>
        <time>2020-02-01T13:36:25Z</time>
      </trkpt>
      <trkpt lat="42.4343960" lon="-2.4541590">
        <ele>416.6</ele>
        <time>2020-02-01T13:36:26Z</time>
      </trkpt>
      <trkpt lat="42.4344700" lon="-2.4541350">
        <ele>416.5</ele>
        <time>2020-02-01T13:36:27Z</time>
      </trkpt>
      <trkpt lat="42.4345450" lon="-2.4541060">
        <ele>416.4</ele>
        <time>2020-02-01T13:36:28Z</time>
      </trkpt>
      <trkpt lat="42.4346280" lon="-2.4540770">
        <ele>416.3</ele>
        <time>2020-02-01T13:36:29Z</time>
      </trkpt>
      <trkpt lat="42.4347050" lon="-2.4540450">
        <ele>416.2</ele>
        <time>2020-02-01T13:36:30Z</time>
      </trkpt>
      <trkpt lat="42.4347670" lon="-2.4540230">
        <ele>416.2</ele>
        <time>2020-02-01T13:36:31Z</time>
      </trkpt>
      <trkpt lat="42.4348300" lon="-2.4540060">
        <ele>416.2</ele>
        <time>2020-02-01T13:36:32Z</time>
      </trkpt>
      <trkpt lat="42.4349160" lon="-2.4539680">
        <ele>416.2</ele>
        <time>2020-02-01T13:36:33Z</time>
      </trkpt>
      <trkpt lat="42.4349880" lon="-2.4539390">
        <ele>416.2</ele>
        <time>2020-02-01T13:36:34Z</time>
      </trkpt>
      <trkpt lat="42.4350700" lon="-2.4539060">
        <ele>416.2</ele>
        <time>2020-02-01T13:36:35Z</time>
      </trkpt>
      <trkpt lat="42.4351330" lon="-2.4538840">
        <ele>416.2</ele>
        <time>2020-02-01T13:36:36Z</time>
      </trkpt>
      <trkpt lat="42.4352000" lon="-2.4538640">
        <ele>415.9</ele>
        <time>2020-02-01T13:36:37Z</time>
      </trkpt>
      <trkpt lat="42.4352870" lon="-2.4538320">
        <ele>415.7</ele>
        <time>2020-02-01T13:36:38Z</time>
      </trkpt>
      <trkpt lat="42.4353720" lon="-2.4538020">
        <ele>415.3</ele>
        <time>2020-02-01T13:36:39Z</time>
      </trkpt>
      <trkpt lat="42.4354530" lon="-2.4537790">
        <ele>415.3</ele>
        <time>2020-02-01T13:36:40Z</time>
      </trkpt>
      <trkpt lat="42.4355390" lon="-2.4537490">
        <ele>415.3</ele>
        <time>2020-02-01T13:36:41Z</time>
      </trkpt>
      <trkpt lat="42.4356290" lon="-2.4537250">
        <ele>415.2</ele>
        <time>2020-02-01T13:36:42Z</time>
      </trkpt>
      <trkpt lat="42.4357220" lon="-2.4536780">
        <ele>415.2</ele>
        <time>2020-02-01T13:36:43Z</time>
      </trkpt>
      <trkpt lat="42.4358000" lon="-2.4536510">
        <ele>415.2</ele>
        <time>2020-02-01T13:36:44Z</time>
      </trkpt>
      <trkpt lat="42.4359040" lon="-2.4536280">
        <ele>415.1</ele>
        <time>2020-02-01T13:36:45Z</time>
      </trkpt>
      <trkpt lat="42.4359660" lon="-2.4536160">
        <ele>415.1</ele>
        <time>2020-02-01T13:36:46Z</time>
      </trkpt>
      <trkpt lat="42.4360410" lon="-2.4535940">
        <ele>415.0</ele>
        <time>2020-02-01T13:36:47Z</time>
      </trkpt>
      <trkpt lat="42.4361030" lon="-2.4535780">
        <ele>414.9</ele>
        <time>2020-02-01T13:36:48Z</time>
      </trkpt>
      <trkpt lat="42.4361690" lon="-2.4535650">
        <ele>414.7</ele>
        <time>2020-02-01T13:36:49Z</time>
      </trkpt>
      <trkpt lat="42.4362410" lon="-2.4535430">
        <ele>414.5</ele>
        <time>2020-02-01T13:36:50Z</time>
      </trkpt>
      <trkpt lat="42.4363230" lon="-2.4535230">
        <ele>414.3</ele>
        <time>2020-02-01T13:36:51Z</time>
      </trkpt>
      <trkpt lat="42.4363950" lon="-2.4534960">
        <ele>414.2</ele>
        <time>2020-02-01T13:36:52Z</time>
      </trkpt>
      <trkpt lat="42.4364700" lon="-2.4534680">
        <ele>414.1</ele>
        <time>2020-02-01T13:36:53Z</time>
      </trkpt>
      <trkpt lat="42.4365610" lon="-2.4534440">
        <ele>414.0</ele>
        <time>2020-02-01T13:36:54Z</time>
      </trkpt>
      <trkpt lat="42.4366360" lon="-2.4534210">
        <ele>414.0</ele>
        <time>2020-02-01T13:36:55Z</time>
      </trkpt>
      <trkpt lat="42.4367050" lon="-2.4533970">
        <ele>413.9</ele>
        <time>2020-02-01T13:36:56Z</time>
      </trkpt>
      <trkpt lat="42.4367720" lon="-2.4533750">
        <ele>413.8</ele>
        <time>2020-02-01T13:36:57Z</time>
      </trkpt>
      <trkpt lat="42.4368470" lon="-2.4533580">
        <ele>413.7</ele>
        <time>2020-02-01T13:36:58Z</time>
      </trkpt>
      <trkpt lat="42.4369120" lon="-2.4533370">
        <ele>413.5</ele>
        <time>2020-02-01T13:36:59Z</time>
      </trkpt>
      <trkpt lat="42.4369830" lon="-2.4533180">
        <ele>413.3</ele>
        <time>2020-02-01T13:37:00Z</time>
      </trkpt>
      <trkpt lat="42.4370480" lon="-2.4532980">
        <ele>413.1</ele>
        <time>2020-02-01T13:37:01Z</time>
      </trkpt>
      <trkpt lat="42.4371120" lon="-2.4532710">
        <ele>413.0</ele>
        <time>2020-02-01T13:37:02Z</time>
      </trkpt>
      <trkpt lat="42.4371650" lon="-2.4532500">
        <ele>412.9</ele>
        <time>2020-02-01T13:37:03Z</time>
      </trkpt>
      <trkpt lat="42.4372280" lon="-2.4532280">
        <ele>412.9</ele>
        <time>2020-02-01T13:37:04Z</time>
      </trkpt>
      <trkpt lat="42.4373130" lon="-2.4532080">
        <ele>412.8</ele>
        <time>2020-02-01T13:37:05Z</time>
      </trkpt>
      <trkpt lat="42.4373930" lon="-2.4531860">
        <ele>412.8</ele>
        <time>2020-02-01T13:37:06Z</time>
      </trkpt>
      <trkpt lat="42.4374440" lon="-2.4531590">
        <ele>412.9</ele>
        <time>2020-02-01T13:37:07Z</time>
      </trkpt>
      <trkpt lat="42.4374960" lon="-2.4531140">
        <ele>412.9</ele>
        <time>2020-02-01T13:37:08Z</time>
      </trkpt>
      <trkpt lat="42.4375670" lon="-2.4530730">
        <ele>412.9</ele>
        <time>2020-02-01T13:37:09Z</time>
      </trkpt>
      <trkpt lat="42.4376230" lon="-2.4530340">
        <ele>412.9</ele>
        <time>2020-02-01T13:37:10Z</time>
      </trkpt>
      <trkpt lat="42.4376630" lon="-2.4530160">
        <ele>412.8</ele>
        <time>2020-02-01T13:37:11Z</time>
      </trkpt>
      <trkpt lat="42.4377260" lon="-2.4530060">
        <ele>412.8</ele>
        <time>2020-02-01T13:37:12Z</time>
      </trkpt>
      <trkpt lat="42.4377940" lon="-2.4530080">
        <ele>412.8</ele>
        <time>2020-02-01T13:37:13Z</time>
      </trkpt>
      <trkpt lat="42.4378530" lon="-2.4530180">
        <ele>412.8</ele>
        <time>2020-02-01T13:37:14Z</time>
      </trkpt>
      <trkpt lat="42.4379180" lon="-2.4530160">
        <ele>412.8</ele>
        <time>2020-02-01T13:37:15Z</time>
      </trkpt>
      <trkpt lat="42.4379800" lon="-2.4530070">
        <ele>412.7</ele>
        <time>2020-02-01T13:37:16Z</time>
      </trkpt>
      <trkpt lat="42.4380240" lon="-2.4529820">
        <ele>412.7</ele>
        <time>2020-02-01T13:37:17Z</time>
      </trkpt>
      <trkpt lat="42.4380740" lon="-2.4529550">
        <ele>412.7</ele>
        <time>2020-02-01T13:37:18Z</time>
      </trkpt>
      <trkpt lat="42.4381200" lon="-2.4529350">
        <ele>412.7</ele>
        <time>2020-02-01T13:37:19Z</time>
      </trkpt>
      <trkpt lat="42.4381880" lon="-2.4529380">
        <ele>412.6</ele>
        <time>2020-02-01T13:37:20Z</time>
      </trkpt>
      <trkpt lat="42.4382470" lon="-2.4529010">
        <ele>412.5</ele>
        <time>2020-02-01T13:37:21Z</time>
      </trkpt>
      <trkpt lat="42.4382960" lon="-2.4528900">
        <ele>412.5</ele>
        <time>2020-02-01T13:37:22Z</time>
      </trkpt>
      <trkpt lat="42.4383450" lon="-2.4528770">
        <ele>412.4</ele>
        <time>2020-02-01T13:37:23Z</time>
      </trkpt>
      <trkpt lat="42.4384090" lon="-2.4528720">
        <ele>412.2</ele>
        <time>2020-02-01T13:37:24Z</time>
      </trkpt>
      <trkpt lat="42.4384600" lon="-2.4528610">
        <ele>412.1</ele>
        <time>2020-02-01T13:37:25Z</time>
      </trkpt>
      <trkpt lat="42.4385160" lon="-2.4528430">
        <ele>412.0</ele>
        <time>2020-02-01T13:37:26Z</time>
      </trkpt>
      <trkpt lat="42.4385840" lon="-2.4528250">
        <ele>411.9</ele>
        <time>2020-02-01T13:37:27Z</time>
      </trkpt>
      <trkpt lat="42.4386430" lon="-2.4528000">
        <ele>411.8</ele>
        <time>2020-02-01T13:37:28Z</time>
      </trkpt>
      <trkpt lat="42.4387090" lon="-2.4527820">
        <ele>411.7</ele>
        <time>2020-02-01T13:37:29Z</time>
      </trkpt>
      <trkpt lat="42.4387690" lon="-2.4527620">
        <ele>411.6</ele>
        <time>2020-02-01T13:37:30Z</time>
      </trkpt>
      <trkpt lat="42.4388250" lon="-2.4527510">
        <ele>411.5</ele>
        <time>2020-02-01T13:37:31Z</time>
      </trkpt>
      <trkpt lat="42.4388930" lon="-2.4527290">
        <ele>411.4</ele>
        <time>2020-02-01T13:37:32Z</time>
      </trkpt>
      <trkpt lat="42.4389500" lon="-2.4527060">
        <ele>411.2</ele>
        <time>2020-02-01T13:37:33Z</time>
      </trkpt>
      <trkpt lat="42.4390200" lon="-2.4526820">
        <ele>410.9</ele>
        <time>2020-02-01T13:37:34Z</time>
      </trkpt>
      <trkpt lat="42.4390810" lon="-2.4526630">
        <ele>410.7</ele>
        <time>2020-02-01T13:37:35Z</time>
      </trkpt>
      <trkpt lat="42.4391390" lon="-2.4526470">
        <ele>410.7</ele>
        <time>2020-02-01T13:37:36Z</time>
      </trkpt>
      <trkpt lat="42.4391990" lon="-2.4526250">
        <ele>410.7</ele>
        <time>2020-02-01T13:37:37Z</time>
      </trkpt>
      <trkpt lat="42.4392840" lon="-2.4526040">
        <ele>410.8</ele>
        <time>2020-02-01T13:37:38Z</time>
      </trkpt>
      <trkpt lat="42.4393420" lon="-2.4525780">
        <ele>410.8</ele>
        <time>2020-02-01T13:37:39Z</time>
      </trkpt>
      <trkpt lat="42.4394170" lon="-2.4525560">
        <ele>410.8</ele>
        <time>2020-02-01T13:37:40Z</time>
      </trkpt>
      <trkpt lat="42.4394750" lon="-2.4525370">
        <ele>410.8</ele>
        <time>2020-02-01T13:37:41Z</time>
      </trkpt>
      <trkpt lat="42.4395340" lon="-2.4525170">
        <ele>410.8</ele>
        <time>2020-02-01T13:37:42Z</time>
      </trkpt>
      <trkpt lat="42.4395900" lon="-2.4525030">
        <ele>410.8</ele>
        <time>2020-02-01T13:37:43Z</time>
      </trkpt>
      <trkpt lat="42.4396210" lon="-2.4524750">
        <ele>410.8</ele>
        <time>2020-02-01T13:37:44Z</time>
      </trkpt>
      <trkpt lat="42.4396780" lon="-2.4524570">
        <ele>410.8</ele>
        <time>2020-02-01T13:37:45Z</time>
      </trkpt>
      <trkpt lat="42.4397450" lon="-2.4524330">
        <ele>410.8</ele>
        <time>2020-02-01T13:37:46Z</time>
      </trkpt>
      <trkpt lat="42.4397950" lon="-2.4524110">
        <ele>410.8</ele>
        <time>2020-02-01T13:37:47Z</time>
      </trkpt>
      <trkpt lat="42.4398530" lon="-2.4523870">
        <ele>410.8</ele>
        <time>2020-02-01T13:37:48Z</time>
      </trkpt>
      <trkpt lat="42.4399250" lon="-2.4523450">
        <ele>410.8</ele>
        <time>2020-02-01T13:37:49Z</time>
      </trkpt>
      <trkpt lat="42.4399640" lon="-2.4523400">
        <ele>410.8</ele>
        <time>2020-02-01T13:37:50Z</time>
      </trkpt>
      <trkpt lat="42.4400270" lon="-2.4523160">
        <ele>410.7</ele>
        <time>2020-02-01T13:37:51Z</time>
      </trkpt>
      <trkpt lat="42.4400870" lon="-2.4523070">
        <ele>410.7</ele>
        <time>2020-02-01T13:37:52Z</time>
      </trkpt>
      <trkpt lat="42.4401460" lon="-2.4522910">
        <ele>410.6</ele>
        <time>2020-02-01T13:37:53Z</time>
      </trkpt>
      <trkpt lat="42.4402010" lon="-2.4522710">
        <ele>410.5</ele>
        <time>2020-02-01T13:37:54Z</time>
      </trkpt>
      <trkpt lat="42.4402750" lon="-2.4522590">
        <ele>410.5</ele>
        <time>2020-02-01T13:37:55Z</time>
      </trkpt>
      <trkpt lat="42.4403310" lon="-2.4522520">
        <ele>410.4</ele>
        <time>2020-02-01T13:37:56Z</time>
      </trkpt>
      <trkpt lat="42.4403810" lon="-2.4522270">
        <ele>410.3</ele>
        <time>2020-02-01T13:37:57Z</time>
      </trkpt>
      <trkpt lat="42.4404350" lon="-2.4522150">
        <ele>410.3</ele>
        <time>2020-02-01T13:37:58Z</time>
      </trkpt>
      <trkpt lat="42.4405050" lon="-2.4522040">
        <ele>410.3</ele>
        <time>2020-02-01T13:37:59Z</time>
      </trkpt>
      <trkpt lat="42.4405660" lon="-2.4521820">
        <ele>410.2</ele>
        <time>2020-02-01T13:38:00Z</time>
      </trkpt>
      <trkpt lat="42.4406340" lon="-2.4521580">
        <ele>410.2</ele>
        <time>2020-02-01T13:38:01Z</time>
      </trkpt>
      <trkpt lat="42.4407110" lon="-2.4521350">
        <ele>410.2</ele>
        <time>2020-02-01T13:38:02Z</time>
      </trkpt>
      <trkpt lat="42.4407780" lon="-2.4521370">
        <ele>410.2</ele>
        <time>2020-02-01T13:38:03Z</time>
      </trkpt>
      <trkpt lat="42.4408630" lon="-2.4521120">
        <ele>409.8</ele>
        <time>2020-02-01T13:38:04Z</time>
      </trkpt>
      <trkpt lat="42.4409330" lon="-2.4520910">
        <ele>409.6</ele>
        <time>2020-02-01T13:38:05Z</time>
      </trkpt>
      <trkpt lat="42.4409950" lon="-2.4520680">
        <ele>409.5</ele>
        <time>2020-02-01T13:38:06Z</time>
      </trkpt>
      <trkpt lat="42.4410610" lon="-2.4520400">
        <ele>409.3</ele>
        <time>2020-02-01T13:38:07Z</time>
      </trkpt>
      <trkpt lat="42.4411100" lon="-2.4520260">
        <ele>409.3</ele>
        <time>2020-02-01T13:38:08Z</time>
      </trkpt>
      <trkpt lat="42.4411830" lon="-2.4520130">
        <ele>409.2</ele>
        <time>2020-02-01T13:38:09Z</time>
      </trkpt>
      <trkpt lat="42.4412600" lon="-2.4520010">
        <ele>409.0</ele>
        <time>2020-02-01T13:38:10Z</time>
      </trkpt>
      <trkpt lat="42.4413180" lon="-2.4519940">
        <ele>408.9</ele>
        <time>2020-02-01T13:38:11Z</time>
      </trkpt>
      <trkpt lat="42.4414000" lon="-2.4519630">
        <ele>408.8</ele>
        <time>2020-02-01T13:38:12Z</time>
      </trkpt>
      <trkpt lat="42.4414710" lon="-2.4519210">
        <ele>408.7</ele>
        <time>2020-02-01T13:38:13Z</time>
      </trkpt>
      <trkpt lat="42.4415510" lon="-2.4518900">
        <ele>408.5</ele>
        <time>2020-02-01T13:38:14Z</time>
      </trkpt>
      <trkpt lat="42.4416180" lon="-2.4518770">
        <ele>408.4</ele>
        <time>2020-02-01T13:38:15Z</time>
      </trkpt>
      <trkpt lat="42.4416620" lon="-2.4518600">
        <ele>408.4</ele>
        <time>2020-02-01T13:38:16Z</time>
      </trkpt>
      <trkpt lat="42.4417170" lon="-2.4518550">
        <ele>408.3</ele>
        <time>2020-02-01T13:38:17Z</time>
      </trkpt>
      <trkpt lat="42.4417910" lon="-2.4518200">
        <ele>408.2</ele>
        <time>2020-02-01T13:38:18Z</time>
      </trkpt>
      <trkpt lat="42.4418650" lon="-2.4518040">
        <ele>408.2</ele>
        <time>2020-02-01T13:38:19Z</time>
      </trkpt>
      <trkpt lat="42.4419540" lon="-2.4517770">
        <ele>408.1</ele>
        <time>2020-02-01T13:38:20Z</time>
      </trkpt>
      <trkpt lat="42.4420440" lon="-2.4517480">
        <ele>408.0</ele>
        <time>2020-02-01T13:38:21Z</time>
      </trkpt>
      <trkpt lat="42.4421450" lon="-2.4517040">
        <ele>407.9</ele>
        <time>2020-02-01T13:38:22Z</time>
      </trkpt>
      <trkpt lat="42.4422260" lon="-2.4516750">
        <ele>407.9</ele>
        <time>2020-02-01T13:38:23Z</time>
      </trkpt>
      <trkpt lat="42.4422730" lon="-2.4516260">
        <ele>407.8</ele>
        <time>2020-02-01T13:38:24Z</time>
      </trkpt>
      <trkpt lat="42.4423600" lon="-2.4515890">
        <ele>407.7</ele>
        <time>2020-02-01T13:38:25Z</time>
      </trkpt>
      <trkpt lat="42.4424310" lon="-2.4515800">
        <ele>407.5</ele>
        <time>2020-02-01T13:38:26Z</time>
      </trkpt>
      <trkpt lat="42.4424950" lon="-2.4515730">
        <ele>407.4</ele>
        <time>2020-02-01T13:38:27Z</time>
      </trkpt>
      <trkpt lat="42.4425680" lon="-2.4515570">
        <ele>407.3</ele>
        <time>2020-02-01T13:38:28Z</time>
      </trkpt>
      <trkpt lat="42.4426300" lon="-2.4515340">
        <ele>407.1</ele>
        <time>2020-02-01T13:38:29Z</time>
      </trkpt>
      <trkpt lat="42.4427030" lon="-2.4515300">
        <ele>406.9</ele>
        <time>2020-02-01T13:38:30Z</time>
      </trkpt>
      <trkpt lat="42.4427730" lon="-2.4515080">
        <ele>406.9</ele>
        <time>2020-02-01T13:38:31Z</time>
      </trkpt>
      <trkpt lat="42.4428460" lon="-2.4514840">
        <ele>407.0</ele>
        <time>2020-02-01T13:38:32Z</time>
      </trkpt>
      <trkpt lat="42.4429110" lon="-2.4514770">
        <ele>407.0</ele>
        <time>2020-02-01T13:38:33Z</time>
      </trkpt>
      <trkpt lat="42.4429960" lon="-2.4514600">
        <ele>407.1</ele>
        <time>2020-02-01T13:38:34Z</time>
      </trkpt>
      <trkpt lat="42.4430500" lon="-2.4514260">
        <ele>407.1</ele>
        <time>2020-02-01T13:38:35Z</time>
      </trkpt>
      <trkpt lat="42.4431080" lon="-2.4514090">
        <ele>407.1</ele>
        <time>2020-02-01T13:38:36Z</time>
      </trkpt>
      <trkpt lat="42.4431830" lon="-2.4513920">
        <ele>407.0</ele>
        <time>2020-02-01T13:38:37Z</time>
      </trkpt>
      <trkpt lat="42.4432630" lon="-2.4513680">
        <ele>407.0</ele>
        <time>2020-02-01T13:38:38Z</time>
      </trkpt>
      <trkpt lat="42.4433410" lon="-2.4513490">
        <ele>406.9</ele>
        <time>2020-02-01T13:38:39Z</time>
      </trkpt>
      <trkpt lat="42.4434110" lon="-2.4513150">
        <ele>406.8</ele>
        <time>2020-02-01T13:38:40Z</time>
      </trkpt>
      <trkpt lat="42.4435000" lon="-2.4513100">
        <ele>406.7</ele>
        <time>2020-02-01T13:38:41Z</time>
      </trkpt>
      <trkpt lat="42.4435770" lon="-2.4512470">
        <ele>406.5</ele>
        <time>2020-02-01T13:38:42Z</time>
      </trkpt>
      <trkpt lat="42.4436380" lon="-2.4512290">
        <ele>406.4</ele>
        <time>2020-02-01T13:38:43Z</time>
      </trkpt>
      <trkpt lat="42.4437110" lon="-2.4512110">
        <ele>406.4</ele>
        <time>2020-02-01T13:38:44Z</time>
      </trkpt>
      <trkpt lat="42.4437580" lon="-2.4511860">
        <ele>406.4</ele>
        <time>2020-02-01T13:38:45Z</time>
      </trkpt>
      <trkpt lat="42.4438310" lon="-2.4511720">
        <ele>406.3</ele>
        <time>2020-02-01T13:38:46Z</time>
      </trkpt>
      <trkpt lat="42.4439090" lon="-2.4511610">
        <ele>406.2</ele>
        <time>2020-02-01T13:38:47Z</time>
      </trkpt>
      <trkpt lat="42.4439520" lon="-2.4511470">
        <ele>406.2</ele>
        <time>2020-02-01T13:38:48Z</time>
      </trkpt>
      <trkpt lat="42.4440070" lon="-2.4511380">
        <ele>406.1</ele>
        <time>2020-02-01T13:38:49Z</time>
      </trkpt>
      <trkpt lat="42.4440700" lon="-2.4511170">
        <ele>406.0</ele>
        <time>2020-02-01T13:38:50Z</time>
      </trkpt>
      <trkpt lat="42.4441090" lon="-2.4510990">
        <ele>406.0</ele>
        <time>2020-02-01T13:38:51Z</time>
      </trkpt>
      <trkpt lat="42.4441870" lon="-2.4510790">
        <ele>405.9</ele>
        <time>2020-02-01T13:38:52Z</time>
      </trkpt>
      <trkpt lat="42.4442160" lon="-2.4510640">
        <ele>405.8</ele>
        <time>2020-02-01T13:38:53Z</time>
      </trkpt>
      <trkpt lat="42.4443000" lon="-2.4510590">
        <ele>405.6</ele>
        <time>2020-02-01T13:38:54Z</time>
      </trkpt>
      <trkpt lat="42.4443900" lon="-2.4510370">
        <ele>405.4</ele>
        <time>2020-02-01T13:38:55Z</time>
      </trkpt>
      <trkpt lat="42.4444460" lon="-2.4510030">
        <ele>405.2</ele>
        <time>2020-02-01T13:38:56Z</time>
      </trkpt>
      <trkpt lat="42.4444950" lon="-2.4509830">
        <ele>405.0</ele>
        <time>2020-02-01T13:38:57Z</time>
      </trkpt>
      <trkpt lat="42.4445550" lon="-2.4509580">
        <ele>404.7</ele>
        <time>2020-02-01T13:38:58Z</time>
      </trkpt>
      <trkpt lat="42.4445920" lon="-2.4509350">
        <ele>404.7</ele>
        <time>2020-02-01T13:38:59Z</time>
      </trkpt>
      <trkpt lat="42.4446390" lon="-2.4509100">
        <ele>404.6</ele>
        <time>2020-02-01T13:39:00Z</time>
      </trkpt>
      <trkpt lat="42.4446860" lon="-2.4508930">
        <ele>404.4</ele>
        <time>2020-02-01T13:39:01Z</time>
      </trkpt>
      <trkpt lat="42.4447270" lon="-2.4508960">
        <ele>404.3</ele>
        <time>2020-02-01T13:39:02Z</time>
      </trkpt>
      <trkpt lat="42.4448180" lon="-2.4508940">
        <ele>404.1</ele>
        <time>2020-02-01T13:39:03Z</time>
      </trkpt>
      <trkpt lat="42.4448700" lon="-2.4508740">
        <ele>404.1</ele>
        <time>2020-02-01T13:39:04Z</time>
      </trkpt>
      <trkpt lat="42.4449350" lon="-2.4508630">
        <ele>403.9</ele>
        <time>2020-02-01T13:39:05Z</time>
      </trkpt>
      <trkpt lat="42.4450010" lon="-2.4508360">
        <ele>403.7</ele>
        <time>2020-02-01T13:39:06Z</time>
      </trkpt>
      <trkpt lat="42.4450870" lon="-2.4508120">
        <ele>403.5</ele>
        <time>2020-02-01T13:39:07Z</time>
      </trkpt>
      <trkpt lat="42.4451300" lon="-2.4507980">
        <ele>403.4</ele>
        <time>2020-02-01T13:39:08Z</time>
      </trkpt>
      <trkpt lat="42.4451900" lon="-2.4507890">
        <ele>403.2</ele>
        <time>2020-02-01T13:39:09Z</time>
      </trkpt>
      <trkpt lat="42.4452440" lon="-2.4507660">
        <ele>403.1</ele>
        <time>2020-02-01T13:39:10Z</time>
      </trkpt>
      <trkpt lat="42.4453010" lon="-2.4507470">
        <ele>403.0</ele>
        <time>2020-02-01T13:39:11Z</time>
      </trkpt>
      <trkpt lat="42.4453670" lon="-2.4507220">
        <ele>402.9</ele>
        <time>2020-02-01T13:39:12Z</time>
      </trkpt>
      <trkpt lat="42.4454400" lon="-2.4507060">
        <ele>402.9</ele>
        <time>2020-02-01T13:39:13Z</time>
      </trkpt>
      <trkpt lat="42.4454990" lon="-2.4506880">
        <ele>402.9</ele>
        <time>2020-02-01T13:39:14Z</time>
      </trkpt>
      <trkpt lat="42.4455550" lon="-2.4506730">
        <ele>402.9</ele>
        <time>2020-02-01T13:39:15Z</time>
      </trkpt>
      <trkpt lat="42.4456250" lon="-2.4506480">
        <ele>403.0</ele>
        <time>2020-02-01T13:39:16Z</time>
      </trkpt>
      <trkpt lat="42.4456800" lon="-2.4506340">
        <ele>403.1</ele>
        <time>2020-02-01T13:39:17Z</time>
      </trkpt>
      <trkpt lat="42.4457630" lon="-2.4506120">
        <ele>403.4</ele>
        <time>2020-02-01T13:39:18Z</time>
      </trkpt>
      <trkpt lat="42.4458180" lon="-2.4505970">
        <ele>403.5</ele>
        <time>2020-02-01T13:39:19Z</time>
      </trkpt>
      <trkpt lat="42.4458710" lon="-2.4505830">
        <ele>403.6</ele>
        <time>2020-02-01T13:39:20Z</time>
      </trkpt>
      <trkpt lat="42.4459400" lon="-2.4505740">
        <ele>403.7</ele>
        <time>2020-02-01T13:39:21Z</time>
      </trkpt>
      <trkpt lat="42.4460030" lon="-2.4505370">
        <ele>403.6</ele>
        <time>2020-02-01T13:39:22Z</time>
      </trkpt>
      <trkpt lat="42.4460530" lon="-2.4505190">
        <ele>403.6</ele>
        <time>2020-02-01T13:39:23Z</time>
      </trkpt>
      <trkpt lat="42.4461150" lon="-2.4505020">
        <ele>403.5</ele>
        <time>2020-02-01T13:39:24Z</time>
      </trkpt>
      <trkpt lat="42.4461730" lon="-2.4504930">
        <ele>403.5</ele>
        <time>2020-02-01T13:39:25Z</time>
      </trkpt>
      <trkpt lat="42.4462250" lon="-2.4504850">
        <ele>403.4</ele>
        <time>2020-02-01T13:39:26Z</time>
      </trkpt>
      <trkpt lat="42.4462940" lon="-2.4504490">
        <ele>403.4</ele>
        <time>2020-02-01T13:39:27Z</time>
      </trkpt>
      <trkpt lat="42.4463440" lon="-2.4504390">
        <ele>403.4</ele>
        <time>2020-02-01T13:39:28Z</time>
      </trkpt>
      <trkpt lat="42.4463920" lon="-2.4504200">
        <ele>403.4</ele>
        <time>2020-02-01T13:39:29Z</time>
      </trkpt>
      <trkpt lat="42.4464530" lon="-2.4503920">
        <ele>403.4</ele>
        <time>2020-02-01T13:39:30Z</time>
      </trkpt>
      <trkpt lat="42.4465120" lon="-2.4503610">
        <ele>403.4</ele>
        <time>2020-02-01T13:39:31Z</time>
      </trkpt>
      <trkpt lat="42.4465690" lon="-2.4503570">
        <ele>403.3</ele>
        <time>2020-02-01T13:39:32Z</time>
      </trkpt>
      <trkpt lat="42.4466240" lon="-2.4503280">
        <ele>403.3</ele>
        <time>2020-02-01T13:39:33Z</time>
      </trkpt>
      <trkpt lat="42.4466900" lon="-2.4503210">
        <ele>403.3</ele>
        <time>2020-02-01T13:39:34Z</time>
      </trkpt>
      <trkpt lat="42.4467670" lon="-2.4503120">
        <ele>403.1</ele>
        <time>2020-02-01T13:39:35Z</time>
      </trkpt>
      <trkpt lat="42.4468270" lon="-2.4502940">
        <ele>403.1</ele>
        <time>2020-02-01T13:39:36Z</time>
      </trkpt>
      <trkpt lat="42.4468930" lon="-2.4502720">
        <ele>403.1</ele>
        <time>2020-02-01T13:39:37Z</time>
      </trkpt>
      <trkpt lat="42.4469550" lon="-2.4502470">
        <ele>403.0</ele>
        <time>2020-02-01T13:39:38Z</time>
      </trkpt>
      <trkpt lat="42.4470090" lon="-2.4502250">
        <ele>403.0</ele>
        <time>2020-02-01T13:39:39Z</time>
      </trkpt>
      <trkpt lat="42.4470650" lon="-2.4502010">
        <ele>402.9</ele>
        <time>2020-02-01T13:39:40Z</time>
      </trkpt>
      <trkpt lat="42.4471310" lon="-2.4501850">
        <ele>402.8</ele>
        <time>2020-02-01T13:39:41Z</time>
      </trkpt>
      <trkpt lat="42.4472040" lon="-2.4501620">
        <ele>402.7</ele>
        <time>2020-02-01T13:39:42Z</time>
      </trkpt>
      <trkpt lat="42.4472590" lon="-2.4501500">
        <ele>402.7</ele>
        <time>2020-02-01T13:39:43Z</time>
      </trkpt>
      <trkpt lat="42.4473080" lon="-2.4501340">
        <ele>402.6</ele>
        <time>2020-02-01T13:39:44Z</time>
      </trkpt>
      <trkpt lat="42.4473650" lon="-2.4501230">
        <ele>402.5</ele>
        <time>2020-02-01T13:39:45Z</time>
      </trkpt>
      <trkpt lat="42.4474310" lon="-2.4501050">
        <ele>402.5</ele>
        <time>2020-02-01T13:39:46Z</time>
      </trkpt>
      <trkpt lat="42.4474710" lon="-2.4500920">
        <ele>402.5</ele>
        <time>2020-02-01T13:39:47Z</time>
      </trkpt>
      <trkpt lat="42.4475270" lon="-2.4500750">
        <ele>402.4</ele>
        <time>2020-02-01T13:39:48Z</time>
      </trkpt>
      <trkpt lat="42.4475900" lon="-2.4500600">
        <ele>402.3</ele>
        <time>2020-02-01T13:39:49Z</time>
      </trkpt>
      <trkpt lat="42.4476460" lon="-2.4500390">
        <ele>402.3</ele>
        <time>2020-02-01T13:39:50Z</time>
      </trkpt>
      <trkpt lat="42.4477030" lon="-2.4500190">
        <ele>402.2</ele>
        <time>2020-02-01T13:39:51Z</time>
      </trkpt>
      <trkpt lat="42.4477600" lon="-2.4500020">
        <ele>402.1</ele>
        <time>2020-02-01T13:39:52Z</time>
      </trkpt>
      <trkpt lat="42.4477920" lon="-2.4499820">
        <ele>402.1</ele>
        <time>2020-02-01T13:39:53Z</time>
      </trkpt>
      <trkpt lat="42.4478520" lon="-2.4499600">
        <ele>402.0</ele>
        <time>2020-02-01T13:39:54Z</time>
      </trkpt>
      <trkpt lat="42.4479200" lon="-2.4499350">
        <ele>401.8</ele>
        <time>2020-02-01T13:39:55Z</time>
      </trkpt>
      <trkpt lat="42.4479840" lon="-2.4499050">
        <ele>401.7</ele>
        <time>2020-02-01T13:39:56Z</time>
      </trkpt>
      <trkpt lat="42.4480530" lon="-2.4498900">
        <ele>401.6</ele>
        <time>2020-02-01T13:39:57Z</time>
      </trkpt>
      <trkpt lat="42.4481250" lon="-2.4498780">
        <ele>401.3</ele>
        <time>2020-02-01T13:39:58Z</time>
      </trkpt>
      <trkpt lat="42.4481950" lon="-2.4498620">
        <ele>401.1</ele>
        <time>2020-02-01T13:39:59Z</time>
      </trkpt>
      <trkpt lat="42.4482650" lon="-2.4498350">
        <ele>400.9</ele>
        <time>2020-02-01T13:40:00Z</time>
      </trkpt>
      <trkpt lat="42.4483410" lon="-2.4498160">
        <ele>400.7</ele>
        <time>2020-02-01T13:40:01Z</time>
      </trkpt>
      <trkpt lat="42.4484160" lon="-2.4497930">
        <ele>400.5</ele>
        <time>2020-02-01T13:40:02Z</time>
      </trkpt>
      <trkpt lat="42.4484840" lon="-2.4497770">
        <ele>400.4</ele>
        <time>2020-02-01T13:40:03Z</time>
      </trkpt>
      <trkpt lat="42.4485510" lon="-2.4497310">
        <ele>400.1</ele>
        <time>2020-02-01T13:40:04Z</time>
      </trkpt>
      <trkpt lat="42.4486130" lon="-2.4497140">
        <ele>400.0</ele>
        <time>2020-02-01T13:40:05Z</time>
      </trkpt>
      <trkpt lat="42.4486790" lon="-2.4496930">
        <ele>399.9</ele>
        <time>2020-02-01T13:40:06Z</time>
      </trkpt>
      <trkpt lat="42.4487440" lon="-2.4496730">
        <ele>399.7</ele>
        <time>2020-02-01T13:40:07Z</time>
      </trkpt>
      <trkpt lat="42.4488310" lon="-2.4496610">
        <ele>399.5</ele>
        <time>2020-02-01T13:40:08Z</time>
      </trkpt>
      <trkpt lat="42.4489030" lon="-2.4496330">
        <ele>399.3</ele>
        <time>2020-02-01T13:40:09Z</time>
      </trkpt>
      <trkpt lat="42.4489760" lon="-2.4496110">
        <ele>399.1</ele>
        <time>2020-02-01T13:40:10Z</time>
      </trkpt>
      <trkpt lat="42.4490340" lon="-2.4495900">
        <ele>399.0</ele>
        <time>2020-02-01T13:40:11Z</time>
      </trkpt>
      <trkpt lat="42.4491100" lon="-2.4495670">
        <ele>398.9</ele>
        <time>2020-02-01T13:40:12Z</time>
      </trkpt>
      <trkpt lat="42.4491850" lon="-2.4495520">
        <ele>398.9</ele>
        <time>2020-02-01T13:40:13Z</time>
      </trkpt>
      <trkpt lat="42.4492460" lon="-2.4495370">
        <ele>398.9</ele>
        <time>2020-02-01T13:40:14Z</time>
      </trkpt>
      <trkpt lat="42.4493190" lon="-2.4495280">
        <ele>398.9</ele>
        <time>2020-02-01T13:40:15Z</time>
      </trkpt>
      <trkpt lat="42.4493930" lon="-2.4495160">
        <ele>398.9</ele>
        <time>2020-02-01T13:40:16Z</time>
      </trkpt>
      <trkpt lat="42.4494580" lon="-2.4494930">
        <ele>399.0</ele>
        <time>2020-02-01T13:40:17Z</time>
      </trkpt>
      <trkpt lat="42.4495290" lon="-2.4494630">
        <ele>398.9</ele>
        <time>2020-02-01T13:40:18Z</time>
      </trkpt>
      <trkpt lat="42.4496000" lon="-2.4494450">
        <ele>398.9</ele>
        <time>2020-02-01T13:40:19Z</time>
      </trkpt>
      <trkpt lat="42.4496700" lon="-2.4494260">
        <ele>398.8</ele>
        <time>2020-02-01T13:40:20Z</time>
      </trkpt>
      <trkpt lat="42.4497500" lon="-2.4494100">
        <ele>398.6</ele>
        <time>2020-02-01T13:40:21Z</time>
      </trkpt>
      <trkpt lat="42.4498220" lon="-2.4493860">
        <ele>398.5</ele>
        <time>2020-02-01T13:40:22Z</time>
      </trkpt>
      <trkpt lat="42.4499010" lon="-2.4493720">
        <ele>398.4</ele>
        <time>2020-02-01T13:40:23Z</time>
      </trkpt>
      <trkpt lat="42.4499770" lon="-2.4493590">
        <ele>398.4</ele>
        <time>2020-02-01T13:40:24Z</time>
      </trkpt>
      <trkpt lat="42.4500380" lon="-2.4493430">
        <ele>398.3</ele>
        <time>2020-02-01T13:40:25Z</time>
      </trkpt>
      <trkpt lat="42.4501170" lon="-2.4493170">
        <ele>398.3</ele>
        <time>2020-02-01T13:40:26Z</time>
      </trkpt>
      <trkpt lat="42.4501830" lon="-2.4493000">
        <ele>398.3</ele>
        <time>2020-02-01T13:40:27Z</time>
      </trkpt>
      <trkpt lat="42.4502380" lon="-2.4492750">
        <ele>398.3</ele>
        <time>2020-02-01T13:40:28Z</time>
      </trkpt>
      <trkpt lat="42.4503110" lon="-2.4492620">
        <ele>398.3</ele>
        <time>2020-02-01T13:40:29Z</time>
      </trkpt>
      <trkpt lat="42.4503830" lon="-2.4492450">
        <ele>398.3</ele>
        <time>2020-02-01T13:40:30Z</time>
      </trkpt>
      <trkpt lat="42.4504640" lon="-2.4492260">
        <ele>398.3</ele>
        <time>2020-02-01T13:40:31Z</time>
      </trkpt>
      <trkpt lat="42.4505290" lon="-2.4492170">
        <ele>398.3</ele>
        <time>2020-02-01T13:40:32Z</time>
      </trkpt>
      <trkpt lat="42.4505920" lon="-2.4491920">
        <ele>398.2</ele>
        <time>2020-02-01T13:40:33Z</time>
      </trkpt>
      <trkpt lat="42.4506540" lon="-2.4491740">
        <ele>398.2</ele>
        <time>2020-02-01T13:40:34Z</time>
      </trkpt>
      <trkpt lat="42.4507210" lon="-2.4491470">
        <ele>398.2</ele>
        <time>2020-02-01T13:40:35Z</time>
      </trkpt>
      <trkpt lat="42.4507840" lon="-2.4491250">
        <ele>398.2</ele>
        <time>2020-02-01T13:40:36Z</time>
      </trkpt>
      <trkpt lat="42.4508410" lon="-2.4491070">
        <ele>398.2</ele>
        <time>2020-02-01T13:40:37Z</time>
      </trkpt>
      <trkpt lat="42.4509020" lon="-2.4490920">
        <ele>398.2</ele>
        <time>2020-02-01T13:40:38Z</time>
      </trkpt>
      <trkpt lat="42.4509700" lon="-2.4490770">
        <ele>398.2</ele>
        <time>2020-02-01T13:40:39Z</time>
      </trkpt>
      <trkpt lat="42.4510390" lon="-2.4490600">
        <ele>398.2</ele>
        <time>2020-02-01T13:40:40Z</time>
      </trkpt>
      <trkpt lat="42.4511050" lon="-2.4490400">
        <ele>398.2</ele>
        <time>2020-02-01T13:40:41Z</time>
      </trkpt>
      <trkpt lat="42.4511730" lon="-2.4490250">
        <ele>398.2</ele>
        <time>2020-02-01T13:40:42Z</time>
      </trkpt>
      <trkpt lat="42.4512370" lon="-2.4490050">
        <ele>398.2</ele>
        <time>2020-02-01T13:40:43Z</time>
      </trkpt>
      <trkpt lat="42.4513000" lon="-2.4489740">
        <ele>398.2</ele>
        <time>2020-02-01T13:40:44Z</time>
      </trkpt>
      <trkpt lat="42.4513640" lon="-2.4489590">
        <ele>398.2</ele>
        <time>2020-02-01T13:40:45Z</time>
      </trkpt>
      <trkpt lat="42.4514310" lon="-2.4489340">
        <ele>398.2</ele>
        <time>2020-02-01T13:40:46Z</time>
      </trkpt>
      <trkpt lat="42.4515030" lon="-2.4489060">
        <ele>398.2</ele>
        <time>2020-02-01T13:40:47Z</time>
      </trkpt>
      <trkpt lat="42.4515580" lon="-2.4488890">
        <ele>398.2</ele>
        <time>2020-02-01T13:40:48Z</time>
      </trkpt>
      <trkpt lat="42.4516190" lon="-2.4488700">
        <ele>398.1</ele>
        <time>2020-02-01T13:40:49Z</time>
      </trkpt>
      <trkpt lat="42.4516830" lon="-2.4488470">
        <ele>398.0</ele>
        <time>2020-02-01T13:40:50Z</time>
      </trkpt>
      <trkpt lat="42.4517620" lon="-2.4488320">
        <ele>397.8</ele>
        <time>2020-02-01T13:40:51Z</time>
      </trkpt>
      <trkpt lat="42.4518350" lon="-2.4488040">
        <ele>397.6</ele>
        <time>2020-02-01T13:40:52Z</time>
      </trkpt>
      <trkpt lat="42.4519020" lon="-2.4487820">
        <ele>397.4</ele>
        <time>2020-02-01T13:40:53Z</time>
      </trkpt>
      <trkpt lat="42.4519650" lon="-2.4487570">
        <ele>397.2</ele>
        <time>2020-02-01T13:40:54Z</time>
      </trkpt>
      <trkpt lat="42.4520400" lon="-2.4487310">
        <ele>397.0</ele>
        <time>2020-02-01T13:40:55Z</time>
      </trkpt>
      <trkpt lat="42.4521060" lon="-2.4487150">
        <ele>396.9</ele>
        <time>2020-02-01T13:40:56Z</time>
      </trkpt>
      <trkpt lat="42.4521670" lon="-2.4487010">
        <ele>396.9</ele>
        <time>2020-02-01T13:40:57Z</time>
      </trkpt>
      <trkpt lat="42.4522370" lon="-2.4486910">
        <ele>396.8</ele>
        <time>2020-02-01T13:40:58Z</time>
      </trkpt>
      <trkpt lat="42.4523080" lon="-2.4486740">
        <ele>396.7</ele>
        <time>2020-02-01T13:40:59Z</time>
      </trkpt>
      <trkpt lat="42.4523690" lon="-2.4486580">
        <ele>396.7</ele>
        <time>2020-02-01T13:41:00Z</time>
      </trkpt>
      <trkpt lat="42.4524370" lon="-2.4486450">
        <ele>396.5</ele>
        <time>2020-02-01T13:41:01Z</time>
      </trkpt>
      <trkpt lat="42.4525010" lon="-2.4486260">
        <ele>396.3</ele>
        <time>2020-02-01T13:41:02Z</time>
      </trkpt>
      <trkpt lat="42.4525700" lon="-2.4486090">
        <ele>396.1</ele>
        <time>2020-02-01T13:41:03Z</time>
      </trkpt>
      <trkpt lat="42.4526370" lon="-2.4485890">
        <ele>395.7</ele>
        <time>2020-02-01T13:41:04Z</time>
      </trkpt>
      <trkpt lat="42.4527010" lon="-2.4485750">
        <ele>395.5</ele>
        <time>2020-02-01T13:41:05Z</time>
      </trkpt>
      <trkpt lat="42.4527690" lon="-2.4485470">
        <ele>395.4</ele>
        <time>2020-02-01T13:41:06Z</time>
      </trkpt>
      <trkpt lat="42.4528350" lon="-2.4485210">
        <ele>395.2</ele>
        <time>2020-02-01T13:41:07Z</time>
      </trkpt>
      <trkpt lat="42.4529030" lon="-2.4485050">
        <ele>395.1</ele>
        <time>2020-02-01T13:41:08Z</time>
      </trkpt>
      <trkpt lat="42.4529640" lon="-2.4484840">
        <ele>394.9</ele>
        <time>2020-02-01T13:41:09Z</time>
      </trkpt>
      <trkpt lat="42.4530120" lon="-2.4484680">
        <ele>394.8</ele>
        <time>2020-02-01T13:41:10Z</time>
      </trkpt>
      <trkpt lat="42.4530710" lon="-2.4484590">
        <ele>394.9</ele>
        <time>2020-02-01T13:41:11Z</time>
      </trkpt>
      <trkpt lat="42.4531120" lon="-2.4484460">
        <ele>394.9</ele>
        <time>2020-02-01T13:41:12Z</time>
      </trkpt>
      <trkpt lat="42.4531520" lon="-2.4484270">
        <ele>394.9</ele>
        <time>2020-02-01T13:41:13Z</time>
      </trkpt>
      <trkpt lat="42.4531950" lon="-2.4483950">
        <ele>394.9</ele>
        <time>2020-02-01T13:41:15Z</time>
      </trkpt>
      <trkpt lat="42.4532180" lon="-2.4483710">
        <ele>394.9</ele>
        <time>2020-02-01T13:41:16Z</time>
      </trkpt>
      <trkpt lat="42.4532560" lon="-2.4483250">
        <ele>395.0</ele>
        <time>2020-02-01T13:41:18Z</time>
      </trkpt>
      <trkpt lat="42.4532840" lon="-2.4482750">
        <ele>395.0</ele>
        <time>2020-02-01T13:41:20Z</time>
      </trkpt>
      <trkpt lat="42.4532910" lon="-2.4482370">
        <ele>395.0</ele>
        <time>2020-02-01T13:41:21Z</time>
      </trkpt>
      <trkpt lat="42.4533040" lon="-2.4481930">
        <ele>395.0</ele>
        <time>2020-02-01T13:41:22Z</time>
      </trkpt>
      <trkpt lat="42.4533130" lon="-2.4481560">
        <ele>395.0</ele>
        <time>2020-02-01T13:41:23Z</time>
      </trkpt>
      <trkpt lat="42.4533260" lon="-2.4481210">
        <ele>395.0</ele>
        <time>2020-02-01T13:41:24Z</time>
      </trkpt>
      <trkpt lat="42.4533360" lon="-2.4480830">
        <ele>395.1</ele>
        <time>2020-02-01T13:41:25Z</time>
      </trkpt>
      <trkpt lat="42.4533450" lon="-2.4480450">
        <ele>395.1</ele>
        <time>2020-02-01T13:41:26Z</time>
      </trkpt>
      <trkpt lat="42.4533520" lon="-2.4480010">
        <ele>395.1</ele>
        <time>2020-02-01T13:41:27Z</time>
      </trkpt>
      <trkpt lat="42.4533580" lon="-2.4479570">
        <ele>395.1</ele>
        <time>2020-02-01T13:41:28Z</time>
      </trkpt>
      <trkpt lat="42.4533600" lon="-2.4479100">
        <ele>395.1</ele>
        <time>2020-02-01T13:41:29Z</time>
      </trkpt>
      <trkpt lat="42.4533530" lon="-2.4478480">
        <ele>395.2</ele>
        <time>2020-02-01T13:41:30Z</time>
      </trkpt>
      <trkpt lat="42.4533460" lon="-2.4477880">
        <ele>395.2</ele>
        <time>2020-02-01T13:41:31Z</time>
      </trkpt>
      <trkpt lat="42.4533280" lon="-2.4477250">
        <ele>395.2</ele>
        <time>2020-02-01T13:41:32Z</time>
      </trkpt>
      <trkpt lat="42.4533220" lon="-2.4476660">
        <ele>395.2</ele>
        <time>2020-02-01T13:41:33Z</time>
      </trkpt>
      <trkpt lat="42.4533080" lon="-2.4475910">
        <ele>395.2</ele>
        <time>2020-02-01T13:41:34Z</time>
      </trkpt>
      <trkpt lat="42.4532950" lon="-2.4475240">
        <ele>395.2</ele>
        <time>2020-02-01T13:41:35Z</time>
      </trkpt>
      <trkpt lat="42.4532880" lon="-2.4474520">
        <ele>395.2</ele>
        <time>2020-02-01T13:41:36Z</time>
      </trkpt>
      <trkpt lat="42.4532820" lon="-2.4473680">
        <ele>395.3</ele>
        <time>2020-02-01T13:41:37Z</time>
      </trkpt>
      <trkpt lat="42.4532700" lon="-2.4472830">
        <ele>395.3</ele>
        <time>2020-02-01T13:41:38Z</time>
      </trkpt>
      <trkpt lat="42.4532610" lon="-2.4472000">
        <ele>395.2</ele>
        <time>2020-02-01T13:41:39Z</time>
      </trkpt>
      <trkpt lat="42.4532450" lon="-2.4471150">
        <ele>395.2</ele>
        <time>2020-02-01T13:41:40Z</time>
      </trkpt>
      <trkpt lat="42.4532330" lon="-2.4470280">
        <ele>395.1</ele>
        <time>2020-02-01T13:41:41Z</time>
      </trkpt>
      <trkpt lat="42.4532320" lon="-2.4469390">
        <ele>395.0</ele>
        <time>2020-02-01T13:41:42Z</time>
      </trkpt>
      <trkpt lat="42.4532270" lon="-2.4468610">
        <ele>394.9</ele>
        <time>2020-02-01T13:41:43Z</time>
      </trkpt>
      <trkpt lat="42.4532140" lon="-2.4467690">
        <ele>394.7</ele>
        <time>2020-02-01T13:41:44Z</time>
      </trkpt>
      <trkpt lat="42.4532030" lon="-2.4466670">
        <ele>394.4</ele>
        <time>2020-02-01T13:41:45Z</time>
      </trkpt>
      <trkpt lat="42.4531930" lon="-2.4465790">
        <ele>394.4</ele>
        <time>2020-02-01T13:41:46Z</time>
      </trkpt>
      <trkpt lat="42.4531790" lon="-2.4464930">
        <ele>394.4</ele>
        <time>2020-02-01T13:41:47Z</time>
      </trkpt>
      <trkpt lat="42.4531630" lon="-2.4464010">
        <ele>394.4</ele>
        <time>2020-02-01T13:41:48Z</time>
      </trkpt>
      <trkpt lat="42.4531490" lon="-2.4463140">
        <ele>394.3</ele>
        <time>2020-02-01T13:41:49Z</time>
      </trkpt>
      <trkpt lat="42.4531340" lon="-2.4462280">
        <ele>394.3</ele>
        <time>2020-02-01T13:41:50Z</time>
      </trkpt>
      <trkpt lat="42.4531240" lon="-2.4461460">
        <ele>394.3</ele>
        <time>2020-02-01T13:41:51Z</time>
      </trkpt>
      <trkpt lat="42.4531170" lon="-2.4460550">
        <ele>394.3</ele>
        <time>2020-02-01T13:41:52Z</time>
      </trkpt>
      <trkpt lat="42.4531080" lon="-2.4459710">
        <ele>394.2</ele>
        <time>2020-02-01T13:41:53Z</time>
      </trkpt>
      <trkpt lat="42.4531070" lon="-2.4458820">
        <ele>394.2</ele>
        <time>2020-02-01T13:41:54Z</time>
      </trkpt>
      <trkpt lat="42.4531020" lon="-2.4457900">
        <ele>394.1</ele>
        <time>2020-02-01T13:41:55Z</time>
      </trkpt>
      <trkpt lat="42.4531110" lon="-2.4457060">
        <ele>394.0</ele>
        <time>2020-02-01T13:41:56Z</time>
      </trkpt>
      <trkpt lat="42.4531110" lon="-2.4456030">
        <ele>393.8</ele>
        <time>2020-02-01T13:41:57Z</time>
      </trkpt>
      <trkpt lat="42.4531140" lon="-2.4455220">
        <ele>393.7</ele>
        <time>2020-02-01T13:41:58Z</time>
      </trkpt>
      <trkpt lat="42.4531140" lon="-2.4454340">
        <ele>393.6</ele>
        <time>2020-02-01T13:41:59Z</time>
      </trkpt>
      <trkpt lat="42.4531170" lon="-2.4453560">
        <ele>393.5</ele>
        <time>2020-02-01T13:42:00Z</time>
      </trkpt>
      <trkpt lat="42.4531170" lon="-2.4452680">
        <ele>393.4</ele>
        <time>2020-02-01T13:42:01Z</time>
      </trkpt>
      <trkpt lat="42.4531230" lon="-2.4451740">
        <ele>393.3</ele>
        <time>2020-02-01T13:42:02Z</time>
      </trkpt>
      <trkpt lat="42.4531240" lon="-2.4450810">
        <ele>393.3</ele>
        <time>2020-02-01T13:42:03Z</time>
      </trkpt>
      <trkpt lat="42.4531300" lon="-2.4449920">
        <ele>393.2</ele>
        <time>2020-02-01T13:42:04Z</time>
      </trkpt>
      <trkpt lat="42.4531340" lon="-2.4448900">
        <ele>393.2</ele>
        <time>2020-02-01T13:42:05Z</time>
      </trkpt>
      <trkpt lat="42.4531390" lon="-2.4448000">
        <ele>393.2</ele>
        <time>2020-02-01T13:42:06Z</time>
      </trkpt>
      <trkpt lat="42.4531490" lon="-2.4447200">
        <ele>393.2</ele>
        <time>2020-02-01T13:42:07Z</time>
      </trkpt>
      <trkpt lat="42.4531490" lon="-2.4446340">
        <ele>393.2</ele>
        <time>2020-02-01T13:42:08Z</time>
      </trkpt>
      <trkpt lat="42.4531570" lon="-2.4445440">
        <ele>393.2</ele>
        <time>2020-02-01T13:42:09Z</time>
      </trkpt>
      <trkpt lat="42.4531640" lon="-2.4444490">
        <ele>393.2</ele>
        <time>2020-02-01T13:42:10Z</time>
      </trkpt>
      <trkpt lat="42.4531770" lon="-2.4443570">
        <ele>393.2</ele>
        <time>2020-02-01T13:42:11Z</time>
      </trkpt>
      <trkpt lat="42.4531870" lon="-2.4442780">
        <ele>393.2</ele>
        <time>2020-02-01T13:42:12Z</time>
      </trkpt>
      <trkpt lat="42.4531890" lon="-2.4441800">
        <ele>393.2</ele>
        <time>2020-02-01T13:42:13Z</time>
      </trkpt>
      <trkpt lat="42.4531990" lon="-2.4441000">
        <ele>393.2</ele>
        <time>2020-02-01T13:42:14Z</time>
      </trkpt>
      <trkpt lat="42.4532230" lon="-2.4440160">
        <ele>393.2</ele>
        <time>2020-02-01T13:42:15Z</time>
      </trkpt>
      <trkpt lat="42.4532400" lon="-2.4439250">
        <ele>393.2</ele>
        <time>2020-02-01T13:42:16Z</time>
      </trkpt>
      <trkpt lat="42.4532520" lon="-2.4438410">
        <ele>393.2</ele>
        <time>2020-02-01T13:42:17Z</time>
      </trkpt>
      <trkpt lat="42.4532790" lon="-2.4437380">
        <ele>393.2</ele>
        <time>2020-02-01T13:42:18Z</time>
      </trkpt>
      <trkpt lat="42.4532840" lon="-2.4436550">
        <ele>393.2</ele>
        <time>2020-02-01T13:42:19Z</time>
      </trkpt>
      <trkpt lat="42.4532900" lon="-2.4435640">
        <ele>393.2</ele>
        <time>2020-02-01T13:42:20Z</time>
      </trkpt>
      <trkpt lat="42.4533070" lon="-2.4434610">
        <ele>393.2</ele>
        <time>2020-02-01T13:42:21Z</time>
      </trkpt>
      <trkpt lat="42.4533130" lon="-2.4433610">
        <ele>393.2</ele>
        <time>2020-02-01T13:42:22Z</time>
      </trkpt>
      <trkpt lat="42.4533210" lon="-2.4432580">
        <ele>393.2</ele>
        <time>2020-02-01T13:42:23Z</time>
      </trkpt>
      <trkpt lat="42.4533360" lon="-2.4431580">
        <ele>393.2</ele>
        <time>2020-02-01T13:42:24Z</time>
      </trkpt>
      <trkpt lat="42.4533420" lon="-2.4430550">
        <ele>393.2</ele>
        <time>2020-02-01T13:42:25Z</time>
      </trkpt>
      <trkpt lat="42.4533520" lon="-2.4429690">
        <ele>393.2</ele>
        <time>2020-02-01T13:42:26Z</time>
      </trkpt>
      <trkpt lat="42.4533600" lon="-2.4428710">
        <ele>393.2</ele>
        <time>2020-02-01T13:42:27Z</time>
      </trkpt>
      <trkpt lat="42.4533660" lon="-2.4427730">
        <ele>393.2</ele>
        <time>2020-02-01T13:42:28Z</time>
      </trkpt>
      <trkpt lat="42.4533730" lon="-2.4426930">
        <ele>393.1</ele>
        <time>2020-02-01T13:42:29Z</time>
      </trkpt>
      <trkpt lat="42.4533730" lon="-2.4425790">
        <ele>393.1</ele>
        <time>2020-02-01T13:42:30Z</time>
      </trkpt>
      <trkpt lat="42.4533790" lon="-2.4424870">
        <ele>393.1</ele>
        <time>2020-02-01T13:42:31Z</time>
      </trkpt>
      <trkpt lat="42.4533870" lon="-2.4423940">
        <ele>393.1</ele>
        <time>2020-02-01T13:42:32Z</time>
      </trkpt>
      <trkpt lat="42.4533790" lon="-2.4423210">
        <ele>393.1</ele>
        <time>2020-02-01T13:42:33Z</time>
      </trkpt>
      <trkpt lat="42.4534180" lon="-2.4422390">
        <ele>393.1</ele>
        <time>2020-02-01T13:42:34Z</time>
      </trkpt>
      <trkpt lat="42.4534220" lon="-2.4421500">
        <ele>393.1</ele>
        <time>2020-02-01T13:42:35Z</time>
      </trkpt>
      <trkpt lat="42.4533950" lon="-2.4420620">
        <ele>393.1</ele>
        <time>2020-02-01T13:42:36Z</time>
      </trkpt>
      <trkpt lat="42.4534070" lon="-2.4419780">
        <ele>393.1</ele>
        <time>2020-02-01T13:42:37Z</time>
      </trkpt>
      <trkpt lat="42.4533950" lon="-2.4417950">
        <ele>393.1</ele>
        <time>2020-02-01T13:42:38Z</time>
      </trkpt>
      <trkpt lat="42.4533850" lon="-2.4417250">
        <ele>393.1</ele>
        <time>2020-02-01T13:42:39Z</time>
      </trkpt>
      <trkpt lat="42.4533780" lon="-2.4416380">
        <ele>393.1</ele>
        <time>2020-02-01T13:42:40Z</time>
      </trkpt>
      <trkpt lat="42.4533600" lon="-2.4415270">
        <ele>393.1</ele>
        <time>2020-02-01T13:42:41Z</time>
      </trkpt>
      <trkpt lat="42.4533060" lon="-2.4414840">
        <ele>393.0</ele>
        <time>2020-02-01T13:42:42Z</time>
      </trkpt>
      <trkpt lat="42.4532810" lon="-2.4414130">
        <ele>393.0</ele>
        <time>2020-02-01T13:42:43Z</time>
      </trkpt>
      <trkpt lat="42.4532570" lon="-2.4413420">
        <ele>392.9</ele>
        <time>2020-02-01T13:42:44Z</time>
      </trkpt>
      <trkpt lat="42.4532320" lon="-2.4412720">
        <ele>392.8</ele>
        <time>2020-02-01T13:42:45Z</time>
      </trkpt>
      <trkpt lat="42.4532100" lon="-2.4412020">
        <ele>392.8</ele>
        <time>2020-02-01T13:42:46Z</time>
      </trkpt>
      <trkpt lat="42.4531840" lon="-2.4411270">
        <ele>392.7</ele>
        <time>2020-02-01T13:42:47Z</time>
      </trkpt>
      <trkpt lat="42.4531620" lon="-2.4410570">
        <ele>392.6</ele>
        <time>2020-02-01T13:42:48Z</time>
      </trkpt>
      <trkpt lat="42.4530270" lon="-2.4412370">
        <ele>392.3</ele>
        <time>2020-02-01T13:42:50Z</time>
      </trkpt>
      <trkpt lat="42.4531000" lon="-2.4412560">
        <ele>392.1</ele>
        <time>2020-02-01T13:42:51Z</time>
      </trkpt>
      <trkpt lat="42.4530240" lon="-2.4415780">
        <ele>392.1</ele>
        <time>2020-02-01T13:42:54Z</time>
      </trkpt>
      <trkpt lat="42.4530080" lon="-2.4416930">
        <ele>392.1</ele>
        <time>2020-02-01T13:42:55Z</time>
      </trkpt>
      <trkpt lat="42.4530420" lon="-2.4415400">
        <ele>392.2</ele>
        <time>2020-02-01T13:42:57Z</time>
      </trkpt>
      <trkpt lat="42.4531030" lon="-2.4413710">
        <ele>392.2</ele>
        <time>2020-02-01T13:42:59Z</time>
      </trkpt>
      <trkpt lat="42.4531240" lon="-2.4412840">
        <ele>392.2</ele>
        <time>2020-02-01T13:43:00Z</time>
      </trkpt>
      <trkpt lat="42.4531490" lon="-2.4412450">
        <ele>392.3</ele>
        <time>2020-02-01T13:43:01Z</time>
      </trkpt>
      <trkpt lat="42.4531560" lon="-2.4411300">
        <ele>392.3</ele>
        <time>2020-02-01T13:43:02Z</time>
      </trkpt>
      <trkpt lat="42.4531890" lon="-2.4411130">
        <ele>392.3</ele>
        <time>2020-02-01T13:43:03Z</time>
      </trkpt>
      <trkpt lat="42.4532230" lon="-2.4410950">
        <ele>392.3</ele>
        <time>2020-02-01T13:43:04Z</time>
      </trkpt>
      <trkpt lat="42.4532530" lon="-2.4410460">
        <ele>392.3</ele>
        <time>2020-02-01T13:43:05Z</time>
      </trkpt>
      <trkpt lat="42.4532910" lon="-2.4410300">
        <ele>392.4</ele>
        <time>2020-02-01T13:43:06Z</time>
      </trkpt>
      <trkpt lat="42.4533230" lon="-2.4410140">
        <ele>392.4</ele>
        <time>2020-02-01T13:43:07Z</time>
      </trkpt>
      <trkpt lat="42.4533550" lon="-2.4409930">
        <ele>392.4</ele>
        <time>2020-02-01T13:43:08Z</time>
      </trkpt>
      <trkpt lat="42.4534520" lon="-2.4407730">
        <ele>392.4</ele>
        <time>2020-02-01T13:43:10Z</time>
      </trkpt>
      <trkpt lat="42.4534880" lon="-2.4407450">
        <ele>392.4</ele>
        <time>2020-02-01T13:43:11Z</time>
      </trkpt>
      <trkpt lat="42.4535210" lon="-2.4407190">
        <ele>392.4</ele>
        <time>2020-02-01T13:43:12Z</time>
      </trkpt>
      <trkpt lat="42.4535590" lon="-2.4406920">
        <ele>392.4</ele>
        <time>2020-02-01T13:43:13Z</time>
      </trkpt>
      <trkpt lat="42.4535910" lon="-2.4406650">
        <ele>393.0</ele>
        <time>2020-02-01T13:43:14Z</time>
      </trkpt>
      <trkpt lat="42.4536290" lon="-2.4406390">
        <ele>392.9</ele>
        <time>2020-02-01T13:43:15Z</time>
      </trkpt>
      <trkpt lat="42.4534680" lon="-2.4409770">
        <ele>392.9</ele>
        <time>2020-02-01T13:43:17Z</time>
      </trkpt>
      <trkpt lat="42.4536620" lon="-2.4409620">
        <ele>393.4</ele>
        <time>2020-02-01T13:43:20Z</time>
      </trkpt>
      <trkpt lat="42.4537150" lon="-2.4409170">
        <ele>393.5</ele>
        <time>2020-02-01T13:43:22Z</time>
      </trkpt>
      <trkpt lat="42.4538030" lon="-2.4408970">
        <ele>393.9</ele>
        <time>2020-02-01T13:43:23Z</time>
      </trkpt>
      <trkpt lat="42.4538540" lon="-2.4408370">
        <ele>393.9</ele>
        <time>2020-02-01T13:43:24Z</time>
      </trkpt>
      <trkpt lat="42.4542340" lon="-2.4410260">
        <ele>393.5</ele>
        <time>2020-02-01T13:43:26Z</time>
      </trkpt>
      <trkpt lat="42.4543020" lon="-2.4410510">
        <ele>393.3</ele>
        <time>2020-02-01T13:43:27Z</time>
      </trkpt>
      <trkpt lat="42.4543580" lon="-2.4410780">
        <ele>393.2</ele>
        <time>2020-02-01T13:43:28Z</time>
      </trkpt>
      <trkpt lat="42.4544170" lon="-2.4411000">
        <ele>393.0</ele>
        <time>2020-02-01T13:43:29Z</time>
      </trkpt>
      <trkpt lat="42.4544710" lon="-2.4411270">
        <ele>392.8</ele>
        <time>2020-02-01T13:43:30Z</time>
      </trkpt>
      <trkpt lat="42.4545940" lon="-2.4410780">
        <ele>392.4</ele>
        <time>2020-02-01T13:43:31Z</time>
      </trkpt>
      <trkpt lat="42.4546440" lon="-2.4410910">
        <ele>392.2</ele>
        <time>2020-02-01T13:43:32Z</time>
      </trkpt>
      <trkpt lat="42.4547050" lon="-2.4411110">
        <ele>392.0</ele>
        <time>2020-02-01T13:43:33Z</time>
      </trkpt>
      <trkpt lat="42.4547660" lon="-2.4411110">
        <ele>391.8</ele>
        <time>2020-02-01T13:43:34Z</time>
      </trkpt>
      <trkpt lat="42.4548300" lon="-2.4411210">
        <ele>391.7</ele>
        <time>2020-02-01T13:43:35Z</time>
      </trkpt>
      <trkpt lat="42.4548890" lon="-2.4411320">
        <ele>391.6</ele>
        <time>2020-02-01T13:43:36Z</time>
      </trkpt>
      <trkpt lat="42.4549540" lon="-2.4411430">
        <ele>391.5</ele>
        <time>2020-02-01T13:43:37Z</time>
      </trkpt>
      <trkpt lat="42.4550180" lon="-2.4411590">
        <ele>391.5</ele>
        <time>2020-02-01T13:43:38Z</time>
      </trkpt>
      <trkpt lat="42.4550770" lon="-2.4411700">
        <ele>391.5</ele>
        <time>2020-02-01T13:43:39Z</time>
      </trkpt>
      <trkpt lat="42.4551420" lon="-2.4411800">
        <ele>391.6</ele>
        <time>2020-02-01T13:43:40Z</time>
      </trkpt>
      <trkpt lat="42.4552010" lon="-2.4411910">
        <ele>391.6</ele>
        <time>2020-02-01T13:43:41Z</time>
      </trkpt>
      <trkpt lat="42.4552600" lon="-2.4412070">
        <ele>391.7</ele>
        <time>2020-02-01T13:43:42Z</time>
      </trkpt>
      <trkpt lat="42.4557640" lon="-2.4410460">
        <ele>392.0</ele>
        <time>2020-02-01T13:43:47Z</time>
      </trkpt>
      <trkpt lat="42.4559080" lon="-2.4409720">
        <ele>391.9</ele>
        <time>2020-02-01T13:43:48Z</time>
      </trkpt>
      <trkpt lat="42.4559500" lon="-2.4409510">
        <ele>391.9</ele>
        <time>2020-02-01T13:43:49Z</time>
      </trkpt>
      <trkpt lat="42.4560030" lon="-2.4409270">
        <ele>392.0</ele>
        <time>2020-02-01T13:43:50Z</time>
      </trkpt>
      <trkpt lat="42.4557580" lon="-2.4410460">
        <ele>392.1</ele>
        <time>2020-02-01T13:43:52Z</time>
      </trkpt>
      <trkpt lat="42.4557690" lon="-2.4410840">
        <ele>392.0</ele>
        <time>2020-02-01T13:43:54Z</time>
      </trkpt>
      <trkpt lat="42.4558910" lon="-2.4407200">
        <ele>392.4</ele>
        <time>2020-02-01T13:43:57Z</time>
      </trkpt>
      <trkpt lat="42.4559410" lon="-2.4406840">
        <ele>392.4</ele>
        <time>2020-02-01T13:43:58Z</time>
      </trkpt>
      <trkpt lat="42.4559890" lon="-2.4406450">
        <ele>392.5</ele>
        <time>2020-02-01T13:43:59Z</time>
      </trkpt>
      <trkpt lat="42.4560810" lon="-2.4407300">
        <ele>392.3</ele>
        <time>2020-02-01T13:44:00Z</time>
      </trkpt>
      <trkpt lat="42.4561460" lon="-2.4407320">
        <ele>392.3</ele>
        <time>2020-02-01T13:44:01Z</time>
      </trkpt>
      <trkpt lat="42.4562110" lon="-2.4407350">
        <ele>392.3</ele>
        <time>2020-02-01T13:44:02Z</time>
      </trkpt>
      <trkpt lat="42.4562640" lon="-2.4407330">
        <ele>392.3</ele>
        <time>2020-02-01T13:44:03Z</time>
      </trkpt>
      <trkpt lat="42.4563560" lon="-2.4407440">
        <ele>392.4</ele>
        <time>2020-02-01T13:44:04Z</time>
      </trkpt>
      <trkpt lat="42.4564220" lon="-2.4407470">
        <ele>392.4</ele>
        <time>2020-02-01T13:44:05Z</time>
      </trkpt>
      <trkpt lat="42.4564660" lon="-2.4407320">
        <ele>392.5</ele>
        <time>2020-02-01T13:44:06Z</time>
      </trkpt>
      <trkpt lat="42.4564580" lon="-2.4415260">
        <ele>390.5</ele>
        <time>2020-02-01T13:44:09Z</time>
      </trkpt>
      <trkpt lat="42.4567500" lon="-2.4414960">
        <ele>389.6</ele>
        <time>2020-02-01T13:44:11Z</time>
      </trkpt>
      <trkpt lat="42.4568580" lon="-2.4415290">
        <ele>389.2</ele>
        <time>2020-02-01T13:44:12Z</time>
      </trkpt>
      <trkpt lat="42.4569160" lon="-2.4416020">
        <ele>389.0</ele>
        <time>2020-02-01T13:44:13Z</time>
      </trkpt>
      <trkpt lat="42.4570220" lon="-2.4414340">
        <ele>388.8</ele>
        <time>2020-02-01T13:44:14Z</time>
      </trkpt>
      <trkpt lat="42.4570770" lon="-2.4414150">
        <ele>388.7</ele>
        <time>2020-02-01T13:44:15Z</time>
      </trkpt>
      <trkpt lat="42.4571340" lon="-2.4414340">
        <ele>388.7</ele>
        <time>2020-02-01T13:44:16Z</time>
      </trkpt>
      <trkpt lat="42.4571660" lon="-2.4414110">
        <ele>388.6</ele>
        <time>2020-02-01T13:44:17Z</time>
      </trkpt>
      <trkpt lat="42.4572420" lon="-2.4413980">
        <ele>388.7</ele>
        <time>2020-02-01T13:44:19Z</time>
      </trkpt>
      <trkpt lat="42.4573110" lon="-2.4414130">
        <ele>388.8</ele>
        <time>2020-02-01T13:44:20Z</time>
      </trkpt>
      <trkpt lat="42.4573490" lon="-2.4414400">
        <ele>388.9</ele>
        <time>2020-02-01T13:44:21Z</time>
      </trkpt>
      <trkpt lat="42.4573990" lon="-2.4414560">
        <ele>389.0</ele>
        <time>2020-02-01T13:44:22Z</time>
      </trkpt>
      <trkpt lat="42.4574940" lon="-2.4413570">
        <ele>389.3</ele>
        <time>2020-02-01T13:44:23Z</time>
      </trkpt>
      <trkpt lat="42.4575610" lon="-2.4413850">
        <ele>389.3</ele>
        <time>2020-02-01T13:44:24Z</time>
      </trkpt>
      <trkpt lat="42.4576370" lon="-2.4413470">
        <ele>389.7</ele>
        <time>2020-02-01T13:44:25Z</time>
      </trkpt>
      <trkpt lat="42.4576890" lon="-2.4413650">
        <ele>389.8</ele>
        <time>2020-02-01T13:44:26Z</time>
      </trkpt>
      <trkpt lat="42.4577400" lon="-2.4413810">
        <ele>390.0</ele>
        <time>2020-02-01T13:44:27Z</time>
      </trkpt>
      <trkpt lat="42.4577940" lon="-2.4414330">
        <ele>390.1</ele>
        <time>2020-02-01T13:44:28Z</time>
      </trkpt>
      <trkpt lat="42.4578460" lon="-2.4414560">
        <ele>390.3</ele>
        <time>2020-02-01T13:44:29Z</time>
      </trkpt>
      <trkpt lat="42.4579030" lon="-2.4414890">
        <ele>390.5</ele>
        <time>2020-02-01T13:44:30Z</time>
      </trkpt>
      <trkpt lat="42.4579710" lon="-2.4414800">
        <ele>390.7</ele>
        <time>2020-02-01T13:44:31Z</time>
      </trkpt>
      <trkpt lat="42.4580280" lon="-2.4414640">
        <ele>391.0</ele>
        <time>2020-02-01T13:44:32Z</time>
      </trkpt>
      <trkpt lat="42.4580860" lon="-2.4415300">
        <ele>391.4</ele>
        <time>2020-02-01T13:44:33Z</time>
      </trkpt>
      <trkpt lat="42.4581180" lon="-2.4415040">
        <ele>391.6</ele>
        <time>2020-02-01T13:44:34Z</time>
      </trkpt>
      <trkpt lat="42.4581670" lon="-2.4415100">
        <ele>391.8</ele>
        <time>2020-02-01T13:44:35Z</time>
      </trkpt>
      <trkpt lat="42.4582270" lon="-2.4415140">
        <ele>392.1</ele>
        <time>2020-02-01T13:44:36Z</time>
      </trkpt>
      <trkpt lat="42.4582770" lon="-2.4415080">
        <ele>392.6</ele>
        <time>2020-02-01T13:44:37Z</time>
      </trkpt>
      <trkpt lat="42.4583280" lon="-2.4415060">
        <ele>392.8</ele>
        <time>2020-02-01T13:44:38Z</time>
      </trkpt>
      <trkpt lat="42.4584070" lon="-2.4414770">
        <ele>393.1</ele>
        <time>2020-02-01T13:44:40Z</time>
      </trkpt>
      <trkpt lat="42.4584680" lon="-2.4414670">
        <ele>393.6</ele>
        <time>2020-02-01T13:44:41Z</time>
      </trkpt>
      <trkpt lat="42.4585390" lon="-2.4414590">
        <ele>393.9</ele>
        <time>2020-02-01T13:44:42Z</time>
      </trkpt>
      <trkpt lat="42.4586010" lon="-2.4414420">
        <ele>396.8</ele>
        <time>2020-02-01T13:44:43Z</time>
      </trkpt>
      <trkpt lat="42.4586350" lon="-2.4413700">
        <ele>396.8</ele>
        <time>2020-02-01T13:44:44Z</time>
      </trkpt>
      <trkpt lat="42.4586920" lon="-2.4413390">
        <ele>396.8</ele>
        <time>2020-02-01T13:44:45Z</time>
      </trkpt>
      <trkpt lat="42.4587460" lon="-2.4413180">
        <ele>396.8</ele>
        <time>2020-02-01T13:44:46Z</time>
      </trkpt>
      <trkpt lat="42.4588000" lon="-2.4412810">
        <ele>396.8</ele>
        <time>2020-02-01T13:44:47Z</time>
      </trkpt>
      <trkpt lat="42.4588440" lon="-2.4412360">
        <ele>396.8</ele>
        <time>2020-02-01T13:44:49Z</time>
      </trkpt>
      <trkpt lat="42.4590240" lon="-2.4412830">
        <ele>396.8</ele>
        <time>2020-02-01T13:44:51Z</time>
      </trkpt>
      <trkpt lat="42.4591490" lon="-2.4413310">
        <ele>396.6</ele>
        <time>2020-02-01T13:44:52Z</time>
      </trkpt>
      <trkpt lat="42.4592030" lon="-2.4413110">
        <ele>396.4</ele>
        <time>2020-02-01T13:44:53Z</time>
      </trkpt>
      <trkpt lat="42.4592670" lon="-2.4413090">
        <ele>396.3</ele>
        <time>2020-02-01T13:44:54Z</time>
      </trkpt>
      <trkpt lat="42.4593200" lon="-2.4412930">
        <ele>396.2</ele>
        <time>2020-02-01T13:44:55Z</time>
      </trkpt>
      <trkpt lat="42.4593740" lon="-2.4412770">
        <ele>396.1</ele>
        <time>2020-02-01T13:44:56Z</time>
      </trkpt>
      <trkpt lat="42.4594280" lon="-2.4412550">
        <ele>396.1</ele>
        <time>2020-02-01T13:44:57Z</time>
      </trkpt>
      <trkpt lat="42.4594870" lon="-2.4412390">
        <ele>396.1</ele>
        <time>2020-02-01T13:44:58Z</time>
      </trkpt>
      <trkpt lat="42.4595400" lon="-2.4412180">
        <ele>396.3</ele>
        <time>2020-02-01T13:44:59Z</time>
      </trkpt>
      <trkpt lat="42.4601840" lon="-2.4410460">
        <ele>396.7</ele>
        <time>2020-02-01T13:45:08Z</time>
      </trkpt>
      <trkpt lat="42.4601570" lon="-2.4411210">
        <ele>396.7</ele>
        <time>2020-02-01T13:45:09Z</time>
      </trkpt>
      <trkpt lat="42.4602080" lon="-2.4410990">
        <ele>396.7</ele>
        <time>2020-02-01T13:45:10Z</time>
      </trkpt>
      <trkpt lat="42.4602450" lon="-2.4411100">
        <ele>396.7</ele>
        <time>2020-02-01T13:45:11Z</time>
      </trkpt>
      <trkpt lat="42.4602820" lon="-2.4410900">
        <ele>396.6</ele>
        <time>2020-02-01T13:45:12Z</time>
      </trkpt>
      <trkpt lat="42.4603180" lon="-2.4410660">
        <ele>396.6</ele>
        <time>2020-02-01T13:45:13Z</time>
      </trkpt>
      <trkpt lat="42.4603610" lon="-2.4410620">
        <ele>396.6</ele>
        <time>2020-02-01T13:45:14Z</time>
      </trkpt>
      <trkpt lat="42.4603990" lon="-2.4410410">
        <ele>396.6</ele>
        <time>2020-02-01T13:45:15Z</time>
      </trkpt>
      <trkpt lat="42.4604310" lon="-2.4410190">
        <ele>396.6</ele>
        <time>2020-02-01T13:45:16Z</time>
      </trkpt>
      <trkpt lat="42.4604790" lon="-2.4409980">
        <ele>396.5</ele>
        <time>2020-02-01T13:45:17Z</time>
      </trkpt>
      <trkpt lat="42.4605220" lon="-2.4409070">
        <ele>396.4</ele>
        <time>2020-02-01T13:45:18Z</time>
      </trkpt>
      <trkpt lat="42.4605440" lon="-2.4408800">
        <ele>396.4</ele>
        <time>2020-02-01T13:45:19Z</time>
      </trkpt>
      <trkpt lat="42.4607800" lon="-2.4408640">
        <ele>396.2</ele>
        <time>2020-02-01T13:45:21Z</time>
      </trkpt>
      <trkpt lat="42.4608170" lon="-2.4408420">
        <ele>396.1</ele>
        <time>2020-02-01T13:45:22Z</time>
      </trkpt>
      <trkpt lat="42.4608600" lon="-2.4408210">
        <ele>396.1</ele>
        <time>2020-02-01T13:45:23Z</time>
      </trkpt>
      <trkpt lat="42.4609030" lon="-2.4407990">
        <ele>396.0</ele>
        <time>2020-02-01T13:45:24Z</time>
      </trkpt>
      <trkpt lat="42.4609460" lon="-2.4407780">
        <ele>395.9</ele>
        <time>2020-02-01T13:45:25Z</time>
      </trkpt>
      <trkpt lat="42.4609890" lon="-2.4407570">
        <ele>395.9</ele>
        <time>2020-02-01T13:45:26Z</time>
      </trkpt>
      <trkpt lat="42.4607970" lon="-2.4410610">
        <ele>395.7</ele>
        <time>2020-02-01T13:45:28Z</time>
      </trkpt>
      <trkpt lat="42.4609190" lon="-2.4412720">
        <ele>395.5</ele>
        <time>2020-02-01T13:45:32Z</time>
      </trkpt>
      <trkpt lat="42.4609350" lon="-2.4413090">
        <ele>395.5</ele>
        <time>2020-02-01T13:45:35Z</time>
      </trkpt>
      <trkpt lat="42.4617550" lon="-2.4411740">
        <ele>395.0</ele>
        <time>2020-02-01T13:51:20Z</time>
      </trkpt>
      <trkpt lat="42.4617920" lon="-2.4412090">
        <ele>394.9</ele>
        <time>2020-02-01T13:51:21Z</time>
      </trkpt>
      <trkpt lat="42.4617680" lon="-2.4411560">
        <ele>394.9</ele>
        <time>2020-02-01T13:51:25Z</time>
      </trkpt>
      <trkpt lat="42.4617470" lon="-2.4411930">
        <ele>394.9</ele>
        <time>2020-02-01T13:51:26Z</time>
      </trkpt>
      <trkpt lat="42.4617670" lon="-2.4411120">
        <ele>394.9</ele>
        <time>2020-02-01T13:51:29Z</time>
      </trkpt>
      <trkpt lat="42.4617720" lon="-2.4410680">
        <ele>394.9</ele>
        <time>2020-02-01T13:51:31Z</time>
      </trkpt>
      <trkpt lat="42.4617770" lon="-2.4410250">
        <ele>394.9</ele>
        <time>2020-02-01T13:51:32Z</time>
      </trkpt>
      <trkpt lat="42.4617420" lon="-2.4409890">
        <ele>394.8</ele>
        <time>2020-02-01T13:51:34Z</time>
      </trkpt>
      <trkpt lat="42.4617420" lon="-2.4410510">
        <ele>394.8</ele>
        <time>2020-02-01T13:51:43Z</time>
      </trkpt>
      <trkpt lat="42.4617380" lon="-2.4409760">
        <ele>394.8</ele>
        <time>2020-02-01T13:51:46Z</time>
      </trkpt>
      <trkpt lat="42.4618810" lon="-2.4406780">
        <ele>393.7</ele>
        <time>2020-02-01T13:51:48Z</time>
      </trkpt>
      <trkpt lat="42.4620160" lon="-2.4404170">
        <ele>393.1</ele>
        <time>2020-02-01T13:51:51Z</time>
      </trkpt>
      <trkpt lat="42.4621500" lon="-2.4401550">
        <ele>392.7</ele>
        <time>2020-02-01T13:52:47Z</time>
      </trkpt>
      <trkpt lat="42.4622840" lon="-2.4398930">
        <ele>392.2</ele>
        <time>2020-02-01T13:52:50Z</time>
      </trkpt>
      <trkpt lat="42.4633180" lon="-2.4396990">
        <ele>390.7</ele>
        <time>2020-02-01T13:52:58Z</time>
      </trkpt>
      <trkpt lat="42.4633830" lon="-2.4396560">
        <ele>390.6</ele>
        <time>2020-02-01T13:52:59Z</time>
      </trkpt>
      <trkpt lat="42.4639290" lon="-2.4388870">
        <ele>390.8</ele>
        <time>2020-02-01T13:53:02Z</time>
      </trkpt>
      <trkpt lat="42.4641520" lon="-2.4388090">
        <ele>390.8</ele>
        <time>2020-02-01T13:53:03Z</time>
      </trkpt>
      <trkpt lat="42.4643530" lon="-2.4392810">
        <ele>390.5</ele>
        <time>2020-02-01T13:53:05Z</time>
      </trkpt>
      <trkpt lat="42.4643400" lon="-2.4391670">
        <ele>390.5</ele>
        <time>2020-02-01T13:53:06Z</time>
      </trkpt>
      <trkpt lat="42.4643940" lon="-2.4391390">
        <ele>390.5</ele>
        <time>2020-02-01T13:53:07Z</time>
      </trkpt>
      <trkpt lat="42.4644790" lon="-2.4390830">
        <ele>390.4</ele>
        <time>2020-02-01T13:53:09Z</time>
      </trkpt>
      <trkpt lat="42.4653790" lon="-2.4388390">
        <ele>388.1</ele>
        <time>2020-02-01T13:53:14Z</time>
      </trkpt>
      <trkpt lat="42.4654920" lon="-2.4388010">
        <ele>387.8</ele>
        <time>2020-02-01T13:53:15Z</time>
      </trkpt>
      <trkpt lat="42.4658920" lon="-2.4385750">
        <ele>387.6</ele>
        <time>2020-02-01T13:53:17Z</time>
      </trkpt>
      <trkpt lat="42.4660200" lon="-2.4385560">
        <ele>387.6</ele>
        <time>2020-02-01T13:53:18Z</time>
      </trkpt>
      <trkpt lat="42.4661010" lon="-2.4385140">
        <ele>387.7</ele>
        <time>2020-02-01T13:53:19Z</time>
      </trkpt>
      <trkpt lat="42.4661820" lon="-2.4384810">
        <ele>387.7</ele>
        <time>2020-02-01T13:53:20Z</time>
      </trkpt>
      <trkpt lat="42.4662620" lon="-2.4384470">
        <ele>387.8</ele>
        <time>2020-02-01T13:53:21Z</time>
      </trkpt>
      <trkpt lat="42.4662320" lon="-2.4383930">
        <ele>387.9</ele>
        <time>2020-02-01T13:53:22Z</time>
      </trkpt>
      <trkpt lat="42.4662670" lon="-2.4383630">
        <ele>388.0</ele>
        <time>2020-02-01T13:53:23Z</time>
      </trkpt>
      <trkpt lat="42.4663310" lon="-2.4383360">
        <ele>388.1</ele>
        <time>2020-02-01T13:53:24Z</time>
      </trkpt>
      <trkpt lat="42.4663770" lon="-2.4383060">
        <ele>388.2</ele>
        <time>2020-02-01T13:53:25Z</time>
      </trkpt>
      <trkpt lat="42.4664260" lon="-2.4382860">
        <ele>388.3</ele>
        <time>2020-02-01T13:53:26Z</time>
      </trkpt>
      <trkpt lat="42.4664820" lon="-2.4382890">
        <ele>388.4</ele>
        <time>2020-02-01T13:53:27Z</time>
      </trkpt>
      <trkpt lat="42.4665250" lon="-2.4382670">
        <ele>388.4</ele>
        <time>2020-02-01T13:53:28Z</time>
      </trkpt>
      <trkpt lat="42.4665730" lon="-2.4382460">
        <ele>388.5</ele>
        <time>2020-02-01T13:53:29Z</time>
      </trkpt>
      <trkpt lat="42.4666270" lon="-2.4382300">
        <ele>388.6</ele>
        <time>2020-02-01T13:53:30Z</time>
      </trkpt>
      <trkpt lat="42.4666700" lon="-2.4382080">
        <ele>388.6</ele>
        <time>2020-02-01T13:53:31Z</time>
      </trkpt>
      <trkpt lat="42.4667230" lon="-2.4381920">
        <ele>388.6</ele>
        <time>2020-02-01T13:53:32Z</time>
      </trkpt>
      <trkpt lat="42.4667660" lon="-2.4381710">
        <ele>388.7</ele>
        <time>2020-02-01T13:53:33Z</time>
      </trkpt>
      <trkpt lat="42.4668150" lon="-2.4381490">
        <ele>388.7</ele>
        <time>2020-02-01T13:53:34Z</time>
      </trkpt>
      <trkpt lat="42.4668680" lon="-2.4381330">
        <ele>388.8</ele>
        <time>2020-02-01T13:53:35Z</time>
      </trkpt>
      <trkpt lat="42.4676570" lon="-2.4378170">
        <ele>388.6</ele>
        <time>2020-02-01T13:53:41Z</time>
      </trkpt>
      <trkpt lat="42.4680430" lon="-2.4375160">
        <ele>388.1</ele>
        <time>2020-02-01T13:53:43Z</time>
      </trkpt>
      <trkpt lat="42.4678500" lon="-2.4375270">
        <ele>387.8</ele>
        <time>2020-02-01T13:53:44Z</time>
      </trkpt>
      <trkpt lat="42.4677450" lon="-2.4374460">
        <ele>387.7</ele>
        <time>2020-02-01T13:53:45Z</time>
      </trkpt>
      <trkpt lat="42.4677750" lon="-2.4373790">
        <ele>387.6</ele>
        <time>2020-02-01T13:53:46Z</time>
      </trkpt>
      <trkpt lat="42.4679200" lon="-2.4370660">
        <ele>387.3</ele>
        <time>2020-02-01T13:53:48Z</time>
      </trkpt>
      <trkpt lat="42.4679410" lon="-2.4369910">
        <ele>387.3</ele>
        <time>2020-02-01T13:53:49Z</time>
      </trkpt>
      <trkpt lat="42.4679680" lon="-2.4369050">
        <ele>387.2</ele>
        <time>2020-02-01T13:53:50Z</time>
      </trkpt>
      <trkpt lat="42.4683310" lon="-2.4374620">
        <ele>386.0</ele>
        <time>2020-02-01T13:53:54Z</time>
      </trkpt>
      <trkpt lat="42.4684220" lon="-2.4375020">
        <ele>385.8</ele>
        <time>2020-02-01T13:53:55Z</time>
      </trkpt>
      <trkpt lat="42.4684650" lon="-2.4374620">
        <ele>385.6</ele>
        <time>2020-02-01T13:53:56Z</time>
      </trkpt>
      <trkpt lat="42.4685060" lon="-2.4374900">
        <ele>385.4</ele>
        <time>2020-02-01T13:53:58Z</time>
      </trkpt>
      <trkpt lat="42.4685390" lon="-2.4374760">
        <ele>385.4</ele>
        <time>2020-02-01T13:54:02Z</time>
      </trkpt>
      <trkpt lat="42.4685740" lon="-2.4374360">
        <ele>385.3</ele>
        <time>2020-02-01T13:54:04Z</time>
      </trkpt>
      <trkpt lat="42.4686120" lon="-2.4373980">
        <ele>385.3</ele>
        <time>2020-02-01T13:54:06Z</time>
      </trkpt>
      <trkpt lat="42.4686440" lon="-2.4373610">
        <ele>385.3</ele>
        <time>2020-02-01T13:54:08Z</time>
      </trkpt>
      <trkpt lat="42.4686810" lon="-2.4373230">
        <ele>385.3</ele>
        <time>2020-02-01T13:54:10Z</time>
      </trkpt>
      <trkpt lat="42.4687190" lon="-2.4372860">
        <ele>385.3</ele>
        <time>2020-02-01T13:54:12Z</time>
      </trkpt>
      <trkpt lat="42.4689280" lon="-2.4372910">
        <ele>385.5</ele>
        <time>2020-02-09T10:37:24Z</time>
      </trkpt>
      <trkpt lat="42.4688540" lon="-2.4372970">
        <ele>385.4</ele>
        <time>2020-02-09T10:37:32Z</time>
      </trkpt>
      <trkpt lat="42.4688060" lon="-2.4373090">
        <ele>385.4</ele>
        <time>2020-02-09T10:43:26Z</time>
      </trkpt>
      <trkpt lat="42.4687590" lon="-2.4373220">
        <ele>385.3</ele>
        <time>2020-02-09T10:43:27Z</time>
      </trkpt>
      <trkpt lat="42.4687170" lon="-2.4373320">
        <ele>385.3</ele>
        <time>2020-02-09T10:43:28Z</time>
      </trkpt>
      <trkpt lat="42.4686760" lon="-2.4373650">
        <ele>385.3</ele>
        <time>2020-02-09T10:43:29Z</time>
      </trkpt>
      <trkpt lat="42.4686380" lon="-2.4373770">
        <ele>385.3</ele>
        <time>2020-02-09T10:43:30Z</time>
      </trkpt>
      <trkpt lat="42.4686010" lon="-2.4373880">
        <ele>385.3</ele>
        <time>2020-02-09T10:43:31Z</time>
      </trkpt>
      <trkpt lat="42.4685630" lon="-2.4373980">
        <ele>385.3</ele>
        <time>2020-02-09T10:43:32Z</time>
      </trkpt>
      <trkpt lat="42.4685260" lon="-2.4374090">
        <ele>385.4</ele>
        <time>2020-02-09T10:43:33Z</time>
      </trkpt>
      <trkpt lat="42.4684880" lon="-2.4374200">
        <ele>385.6</ele>
        <time>2020-02-09T10:43:34Z</time>
      </trkpt>
      <trkpt lat="42.4684510" lon="-2.4374310">
        <ele>385.8</ele>
        <time>2020-02-09T10:43:35Z</time>
      </trkpt>
      <trkpt lat="42.4683860" lon="-2.4375220">
        <ele>386.3</ele>
        <time>2020-02-09T10:43:36Z</time>
      </trkpt>
      <trkpt lat="42.4683640" lon="-2.4376050">
        <ele>386.6</ele>
        <time>2020-02-09T10:43:37Z</time>
      </trkpt>
      <trkpt lat="42.4683600" lon="-2.4375220">
        <ele>386.8</ele>
        <time>2020-02-09T10:43:38Z</time>
      </trkpt>
      <trkpt lat="42.4682950" lon="-2.4375390">
        <ele>387.1</ele>
        <time>2020-02-09T10:43:39Z</time>
      </trkpt>
      <trkpt lat="42.4682430" lon="-2.4375520">
        <ele>387.2</ele>
        <time>2020-02-09T10:43:40Z</time>
      </trkpt>
      <trkpt lat="42.4681650" lon="-2.4375950">
        <ele>387.4</ele>
        <time>2020-02-09T10:43:41Z</time>
      </trkpt>
      <trkpt lat="42.4681160" lon="-2.4376160">
        <ele>387.5</ele>
        <time>2020-02-09T10:43:42Z</time>
      </trkpt>
      <trkpt lat="42.4680670" lon="-2.4376370">
        <ele>387.6</ele>
        <time>2020-02-09T10:43:43Z</time>
      </trkpt>
      <trkpt lat="42.4680110" lon="-2.4376510">
        <ele>387.8</ele>
        <time>2020-02-09T10:43:44Z</time>
      </trkpt>
      <trkpt lat="42.4679630" lon="-2.4376720">
        <ele>387.9</ele>
        <time>2020-02-09T10:43:45Z</time>
      </trkpt>
      <trkpt lat="42.4678870" lon="-2.4376930">
        <ele>388.1</ele>
        <time>2020-02-09T10:43:46Z</time>
      </trkpt>
      <trkpt lat="42.4678340" lon="-2.4377100">
        <ele>388.2</ele>
        <time>2020-02-09T10:43:47Z</time>
      </trkpt>
      <trkpt lat="42.4677660" lon="-2.4377300">
        <ele>388.4</ele>
        <time>2020-02-09T10:43:48Z</time>
      </trkpt>
      <trkpt lat="42.4677100" lon="-2.4377480">
        <ele>388.5</ele>
        <time>2020-02-09T10:43:49Z</time>
      </trkpt>
      <trkpt lat="42.4676540" lon="-2.4377660">
        <ele>388.6</ele>
        <time>2020-02-09T10:43:50Z</time>
      </trkpt>
      <trkpt lat="42.4675860" lon="-2.4378180">
        <ele>388.8</ele>
        <time>2020-02-09T10:43:51Z</time>
      </trkpt>
      <trkpt lat="42.4675290" lon="-2.4378410">
        <ele>388.9</ele>
        <time>2020-02-09T10:43:52Z</time>
      </trkpt>
      <trkpt lat="42.4674650" lon="-2.4378600">
        <ele>389.1</ele>
        <time>2020-02-09T10:43:53Z</time>
      </trkpt>
      <trkpt lat="42.4674240" lon="-2.4378330">
        <ele>389.2</ele>
        <time>2020-02-09T10:43:54Z</time>
      </trkpt>
      <trkpt lat="42.4673700" lon="-2.4378540">
        <ele>389.2</ele>
        <time>2020-02-09T10:43:55Z</time>
      </trkpt>
      <trkpt lat="42.4673170" lon="-2.4378750">
        <ele>389.3</ele>
        <time>2020-02-09T10:43:56Z</time>
      </trkpt>
      <trkpt lat="42.4672690" lon="-2.4378970">
        <ele>389.3</ele>
        <time>2020-02-09T10:43:57Z</time>
      </trkpt>
      <trkpt lat="42.4672100" lon="-2.4379190">
        <ele>389.2</ele>
        <time>2020-02-09T10:43:58Z</time>
      </trkpt>
      <trkpt lat="42.4671570" lon="-2.4379530">
        <ele>389.1</ele>
        <time>2020-02-09T10:43:59Z</time>
      </trkpt>
      <trkpt lat="42.4671010" lon="-2.4380590">
        <ele>389.0</ele>
        <time>2020-02-09T10:44:00Z</time>
      </trkpt>
      <trkpt lat="42.4670340" lon="-2.4380650">
        <ele>389.0</ele>
        <time>2020-02-09T10:44:01Z</time>
      </trkpt>
      <trkpt lat="42.4669730" lon="-2.4380720">
        <ele>388.9</ele>
        <time>2020-02-09T10:44:02Z</time>
      </trkpt>
      <trkpt lat="42.4669150" lon="-2.4380970">
        <ele>388.8</ele>
        <time>2020-02-09T10:44:03Z</time>
      </trkpt>
      <trkpt lat="42.4668650" lon="-2.4380880">
        <ele>388.8</ele>
        <time>2020-02-09T10:44:04Z</time>
      </trkpt>
      <trkpt lat="42.4668090" lon="-2.4381070">
        <ele>388.7</ele>
        <time>2020-02-09T10:44:05Z</time>
      </trkpt>
      <trkpt lat="42.4667740" lon="-2.4381110">
        <ele>388.7</ele>
        <time>2020-02-09T10:44:06Z</time>
      </trkpt>
      <trkpt lat="42.4667210" lon="-2.4381340">
        <ele>388.7</ele>
        <time>2020-02-09T10:44:07Z</time>
      </trkpt>
      <trkpt lat="42.4666640" lon="-2.4381140">
        <ele>388.6</ele>
        <time>2020-02-09T10:44:08Z</time>
      </trkpt>
      <trkpt lat="42.4666220" lon="-2.4381370">
        <ele>388.6</ele>
        <time>2020-02-09T10:44:09Z</time>
      </trkpt>
      <trkpt lat="42.4665600" lon="-2.4381720">
        <ele>388.5</ele>
        <time>2020-02-09T10:44:10Z</time>
      </trkpt>
      <trkpt lat="42.4665090" lon="-2.4381980">
        <ele>388.4</ele>
        <time>2020-02-09T10:44:11Z</time>
      </trkpt>
      <trkpt lat="42.4665060" lon="-2.4383190">
        <ele>388.3</ele>
        <time>2020-02-09T10:44:12Z</time>
      </trkpt>
      <trkpt lat="42.4664650" lon="-2.4383320">
        <ele>388.3</ele>
        <time>2020-02-09T10:44:13Z</time>
      </trkpt>
      <trkpt lat="42.4663970" lon="-2.4383540">
        <ele>388.1</ele>
        <time>2020-02-09T10:44:14Z</time>
      </trkpt>
      <trkpt lat="42.4663430" lon="-2.4383760">
        <ele>388.0</ele>
        <time>2020-02-09T10:44:15Z</time>
      </trkpt>
      <trkpt lat="42.4662860" lon="-2.4383980">
        <ele>387.9</ele>
        <time>2020-02-09T10:44:16Z</time>
      </trkpt>
      <trkpt lat="42.4662300" lon="-2.4384180">
        <ele>387.8</ele>
        <time>2020-02-09T10:44:17Z</time>
      </trkpt>
      <trkpt lat="42.4661760" lon="-2.4384390">
        <ele>387.7</ele>
        <time>2020-02-09T10:44:18Z</time>
      </trkpt>
      <trkpt lat="42.4661230" lon="-2.4384610">
        <ele>387.7</ele>
        <time>2020-02-09T10:44:19Z</time>
      </trkpt>
      <trkpt lat="42.4660690" lon="-2.4384820">
        <ele>387.6</ele>
        <time>2020-02-09T10:44:20Z</time>
      </trkpt>
      <trkpt lat="42.4660100" lon="-2.4385040">
        <ele>387.6</ele>
        <time>2020-02-09T10:44:21Z</time>
      </trkpt>
      <trkpt lat="42.4659560" lon="-2.4385250">
        <ele>387.6</ele>
        <time>2020-02-09T10:44:22Z</time>
      </trkpt>
      <trkpt lat="42.4659030" lon="-2.4385460">
        <ele>387.6</ele>
        <time>2020-02-09T10:44:23Z</time>
      </trkpt>
      <trkpt lat="42.4658490" lon="-2.4385680">
        <ele>387.6</ele>
        <time>2020-02-09T10:44:24Z</time>
      </trkpt>
      <trkpt lat="42.4658150" lon="-2.4385670">
        <ele>387.6</ele>
        <time>2020-02-09T10:44:26Z</time>
      </trkpt>
      <trkpt lat="42.4657820" lon="-2.4385890">
        <ele>387.6</ele>
        <time>2020-02-09T10:44:27Z</time>
      </trkpt>
      <trkpt lat="42.4657690" lon="-2.4386580">
        <ele>387.5</ele>
        <time>2020-02-09T10:44:28Z</time>
      </trkpt>
      <trkpt lat="42.4657250" lon="-2.4386480">
        <ele>387.5</ele>
        <time>2020-02-09T10:44:29Z</time>
      </trkpt>
      <trkpt lat="42.4656910" lon="-2.4386450">
        <ele>387.5</ele>
        <time>2020-02-09T10:44:30Z</time>
      </trkpt>
      <trkpt lat="42.4656590" lon="-2.4386620">
        <ele>387.4</ele>
        <time>2020-02-09T10:44:31Z</time>
      </trkpt>
      <trkpt lat="42.4656330" lon="-2.4386800">
        <ele>387.4</ele>
        <time>2020-02-09T10:44:32Z</time>
      </trkpt>
      <trkpt lat="42.4655980" lon="-2.4386960">
        <ele>387.4</ele>
        <time>2020-02-09T10:44:34Z</time>
      </trkpt>
      <trkpt lat="42.4655710" lon="-2.4386810">
        <ele>387.4</ele>
        <time>2020-02-09T10:44:36Z</time>
      </trkpt>
      <trkpt lat="42.4655320" lon="-2.4386810">
        <ele>387.4</ele>
        <time>2020-02-09T10:44:39Z</time>
      </trkpt>
      <trkpt lat="42.4655060" lon="-2.4386750">
        <ele>387.4</ele>
        <time>2020-02-09T10:44:41Z</time>
      </trkpt>
      <trkpt lat="42.4654790" lon="-2.4386700">
        <ele>387.3</ele>
        <time>2020-02-09T10:44:43Z</time>
      </trkpt>
      <trkpt lat="42.4654410" lon="-2.4386640">
        <ele>387.3</ele>
        <time>2020-02-09T10:44:46Z</time>
      </trkpt>
      <trkpt lat="42.4654140" lon="-2.4386590">
        <ele>387.3</ele>
        <time>2020-02-09T10:44:48Z</time>
      </trkpt>
      <trkpt lat="42.4656610" lon="-2.4383960">
        <ele>387.4</ele>
        <time>2020-02-09T10:44:57Z</time>
      </trkpt>
      <trkpt lat="42.4656620" lon="-2.4386280">
        <ele>387.6</ele>
        <time>2020-02-09T10:45:27Z</time>
      </trkpt>
      <trkpt lat="42.4656480" lon="-2.4386620">
        <ele>387.6</ele>
        <time>2020-02-09T10:45:28Z</time>
      </trkpt>
      <trkpt lat="42.4655870" lon="-2.4386840">
        <ele>387.7</ele>
        <time>2020-02-09T10:45:29Z</time>
      </trkpt>
      <trkpt lat="42.4655440" lon="-2.4387260">
        <ele>387.7</ele>
        <time>2020-02-09T10:45:30Z</time>
      </trkpt>
      <trkpt lat="42.4655000" lon="-2.4387400">
        <ele>387.8</ele>
        <time>2020-02-09T10:45:31Z</time>
      </trkpt>
      <trkpt lat="42.4654700" lon="-2.4387600">
        <ele>387.8</ele>
        <time>2020-02-09T10:45:32Z</time>
      </trkpt>
      <trkpt lat="42.4654470" lon="-2.4387800">
        <ele>387.8</ele>
        <time>2020-02-09T10:45:33Z</time>
      </trkpt>
      <trkpt lat="42.4654160" lon="-2.4388010">
        <ele>387.9</ele>
        <time>2020-02-09T10:45:34Z</time>
      </trkpt>
      <trkpt lat="42.4653190" lon="-2.4388180">
        <ele>388.3</ele>
        <time>2020-02-09T10:45:35Z</time>
      </trkpt>
      <trkpt lat="42.4652700" lon="-2.4388310">
        <ele>388.4</ele>
        <time>2020-02-09T10:45:36Z</time>
      </trkpt>
      <trkpt lat="42.4652320" lon="-2.4388470">
        <ele>388.4</ele>
        <time>2020-02-09T10:45:37Z</time>
      </trkpt>
      <trkpt lat="42.4651520" lon="-2.4389060">
        <ele>388.9</ele>
        <time>2020-02-09T10:45:38Z</time>
      </trkpt>
      <trkpt lat="42.4651090" lon="-2.4389170">
        <ele>389.0</ele>
        <time>2020-02-09T10:45:39Z</time>
      </trkpt>
      <trkpt lat="42.4650660" lon="-2.4389270">
        <ele>389.1</ele>
        <time>2020-02-09T10:45:40Z</time>
      </trkpt>
      <trkpt lat="42.4650170" lon="-2.4389430">
        <ele>389.2</ele>
        <time>2020-02-09T10:45:41Z</time>
      </trkpt>
      <trkpt lat="42.4649750" lon="-2.4389540">
        <ele>389.3</ele>
        <time>2020-02-09T10:45:42Z</time>
      </trkpt>
      <trkpt lat="42.4649320" lon="-2.4389700">
        <ele>389.4</ele>
        <time>2020-02-09T10:45:43Z</time>
      </trkpt>
      <trkpt lat="42.4648890" lon="-2.4389810">
        <ele>389.5</ele>
        <time>2020-02-09T10:45:44Z</time>
      </trkpt>
      <trkpt lat="42.4648400" lon="-2.4389920">
        <ele>389.6</ele>
        <time>2020-02-09T10:45:45Z</time>
      </trkpt>
      <trkpt lat="42.4645830" lon="-2.4390940">
        <ele>390.3</ele>
        <time>2020-02-09T10:45:47Z</time>
      </trkpt>
      <trkpt lat="42.4645320" lon="-2.4391120">
        <ele>390.3</ele>
        <time>2020-02-09T10:45:48Z</time>
      </trkpt>
      <trkpt lat="42.4644740" lon="-2.4391390">
        <ele>390.4</ele>
        <time>2020-02-09T10:45:49Z</time>
      </trkpt>
      <trkpt lat="42.4644210" lon="-2.4391600">
        <ele>390.5</ele>
        <time>2020-02-09T10:45:50Z</time>
      </trkpt>
      <trkpt lat="42.4643640" lon="-2.4391870">
        <ele>390.5</ele>
        <time>2020-02-09T10:45:51Z</time>
      </trkpt>
      <trkpt lat="42.4643150" lon="-2.4392010">
        <ele>390.6</ele>
        <time>2020-02-09T10:45:52Z</time>
      </trkpt>
      <trkpt lat="42.4642150" lon="-2.4391660">
        <ele>390.7</ele>
        <time>2020-02-09T10:45:53Z</time>
      </trkpt>
      <trkpt lat="42.4641640" lon="-2.4392500">
        <ele>390.8</ele>
        <time>2020-02-09T10:45:54Z</time>
      </trkpt>
      <trkpt lat="42.4641090" lon="-2.4392790">
        <ele>390.8</ele>
        <time>2020-02-09T10:45:55Z</time>
      </trkpt>
      <trkpt lat="42.4640550" lon="-2.4393070">
        <ele>390.8</ele>
        <time>2020-02-09T10:45:56Z</time>
      </trkpt>
      <trkpt lat="42.4639980" lon="-2.4393350">
        <ele>390.8</ele>
        <time>2020-02-09T10:45:57Z</time>
      </trkpt>
      <trkpt lat="42.4639450" lon="-2.4393670">
        <ele>390.8</ele>
        <time>2020-02-09T10:45:58Z</time>
      </trkpt>
      <trkpt lat="42.4638910" lon="-2.4393940">
        <ele>390.9</ele>
        <time>2020-02-09T10:45:59Z</time>
      </trkpt>
      <trkpt lat="42.4638370" lon="-2.4394210">
        <ele>390.9</ele>
        <time>2020-02-09T10:46:00Z</time>
      </trkpt>
      <trkpt lat="42.4637840" lon="-2.4394530">
        <ele>390.7</ele>
        <time>2020-02-09T10:46:01Z</time>
      </trkpt>
      <trkpt lat="42.4634780" lon="-2.4395440">
        <ele>390.5</ele>
        <time>2020-02-09T10:46:06Z</time>
      </trkpt>
      <trkpt lat="42.4634190" lon="-2.4395600">
        <ele>390.6</ele>
        <time>2020-02-09T10:46:07Z</time>
      </trkpt>
      <trkpt lat="42.4633580" lon="-2.4395840">
        <ele>390.6</ele>
        <time>2020-02-09T10:46:08Z</time>
      </trkpt>
      <trkpt lat="42.4633130" lon="-2.4396030">
        <ele>390.7</ele>
        <time>2020-02-09T10:46:09Z</time>
      </trkpt>
      <trkpt lat="42.4632270" lon="-2.4395850">
        <ele>390.8</ele>
        <time>2020-02-09T10:46:10Z</time>
      </trkpt>
      <trkpt lat="42.4631710" lon="-2.4396030">
        <ele>390.8</ele>
        <time>2020-02-09T10:46:11Z</time>
      </trkpt>
      <trkpt lat="42.4631360" lon="-2.4396630">
        <ele>390.8</ele>
        <time>2020-02-09T10:46:12Z</time>
      </trkpt>
      <trkpt lat="42.4630770" lon="-2.4396820">
        <ele>390.8</ele>
        <time>2020-02-09T10:46:13Z</time>
      </trkpt>
      <trkpt lat="42.4630170" lon="-2.4397040">
        <ele>390.8</ele>
        <time>2020-02-09T10:46:14Z</time>
      </trkpt>
      <trkpt lat="42.4629730" lon="-2.4397880">
        <ele>390.9</ele>
        <time>2020-02-09T10:46:15Z</time>
      </trkpt>
      <trkpt lat="42.4629310" lon="-2.4398550">
        <ele>390.9</ele>
        <time>2020-02-09T10:46:16Z</time>
      </trkpt>
      <trkpt lat="42.4628890" lon="-2.4398640">
        <ele>390.9</ele>
        <time>2020-02-09T10:46:17Z</time>
      </trkpt>
      <trkpt lat="42.4628370" lon="-2.4398990">
        <ele>391.1</ele>
        <time>2020-02-09T10:46:18Z</time>
      </trkpt>
      <trkpt lat="42.4627820" lon="-2.4399000">
        <ele>391.1</ele>
        <time>2020-02-09T10:46:19Z</time>
      </trkpt>
      <trkpt lat="42.4627270" lon="-2.4399300">
        <ele>391.2</ele>
        <time>2020-02-09T10:46:20Z</time>
      </trkpt>
      <trkpt lat="42.4626720" lon="-2.4399600">
        <ele>391.3</ele>
        <time>2020-02-09T10:46:21Z</time>
      </trkpt>
      <trkpt lat="42.4626370" lon="-2.4399990">
        <ele>391.4</ele>
        <time>2020-02-09T10:46:22Z</time>
      </trkpt>
      <trkpt lat="42.4625820" lon="-2.4400310">
        <ele>391.5</ele>
        <time>2020-02-09T10:46:23Z</time>
      </trkpt>
      <trkpt lat="42.4625260" lon="-2.4400670">
        <ele>391.7</ele>
        <time>2020-02-09T10:46:24Z</time>
      </trkpt>
      <trkpt lat="42.4624260" lon="-2.4400570">
        <ele>391.9</ele>
        <time>2020-02-09T10:46:25Z</time>
      </trkpt>
      <trkpt lat="42.4623660" lon="-2.4400940">
        <ele>392.1</ele>
        <time>2020-02-09T10:46:26Z</time>
      </trkpt>
      <trkpt lat="42.4622930" lon="-2.4401330">
        <ele>392.3</ele>
        <time>2020-02-09T10:46:27Z</time>
      </trkpt>
      <trkpt lat="42.4622350" lon="-2.4401360">
        <ele>392.5</ele>
        <time>2020-02-09T10:46:28Z</time>
      </trkpt>
      <trkpt lat="42.4621740" lon="-2.4401300">
        <ele>392.7</ele>
        <time>2020-02-09T10:46:29Z</time>
      </trkpt>
      <trkpt lat="42.4621090" lon="-2.4401350">
        <ele>392.8</ele>
        <time>2020-02-09T10:46:30Z</time>
      </trkpt>
      <trkpt lat="42.4620380" lon="-2.4401390">
        <ele>392.9</ele>
        <time>2020-02-09T10:46:31Z</time>
      </trkpt>
      <trkpt lat="42.4619760" lon="-2.4401760">
        <ele>393.0</ele>
        <time>2020-02-09T10:46:32Z</time>
      </trkpt>
      <trkpt lat="42.4619100" lon="-2.4402530">
        <ele>393.2</ele>
        <time>2020-02-09T10:46:33Z</time>
      </trkpt>
      <trkpt lat="42.4618340" lon="-2.4402700">
        <ele>393.3</ele>
        <time>2020-02-09T10:46:34Z</time>
      </trkpt>
      <trkpt lat="42.4617690" lon="-2.4402740">
        <ele>393.6</ele>
        <time>2020-02-09T10:46:35Z</time>
      </trkpt>
      <trkpt lat="42.4617100" lon="-2.4403410">
        <ele>393.9</ele>
        <time>2020-02-09T10:46:36Z</time>
      </trkpt>
      <trkpt lat="42.4616430" lon="-2.4403800">
        <ele>394.2</ele>
        <time>2020-02-09T10:46:37Z</time>
      </trkpt>
      <trkpt lat="42.4615880" lon="-2.4403790">
        <ele>394.4</ele>
        <time>2020-02-09T10:46:38Z</time>
      </trkpt>
      <trkpt lat="42.4615360" lon="-2.4404240">
        <ele>395.0</ele>
        <time>2020-02-09T10:46:39Z</time>
      </trkpt>
      <trkpt lat="42.4614670" lon="-2.4404590">
        <ele>395.0</ele>
        <time>2020-02-09T10:46:40Z</time>
      </trkpt>
      <trkpt lat="42.4613920" lon="-2.4404840">
        <ele>395.1</ele>
        <time>2020-02-09T10:46:41Z</time>
      </trkpt>
      <trkpt lat="42.4613960" lon="-2.4405690">
        <ele>395.2</ele>
        <time>2020-02-09T10:46:42Z</time>
      </trkpt>
      <trkpt lat="42.4613510" lon="-2.4405000">
        <ele>395.2</ele>
        <time>2020-02-09T10:46:43Z</time>
      </trkpt>
      <trkpt lat="42.4613020" lon="-2.4405160">
        <ele>395.2</ele>
        <time>2020-02-09T10:46:44Z</time>
      </trkpt>
      <trkpt lat="42.4612540" lon="-2.4405350">
        <ele>395.3</ele>
        <time>2020-02-09T10:46:45Z</time>
      </trkpt>
      <trkpt lat="42.4612030" lon="-2.4405540">
        <ele>395.3</ele>
        <time>2020-02-09T10:46:46Z</time>
      </trkpt>
      <trkpt lat="42.4611530" lon="-2.4405730">
        <ele>395.3</ele>
        <time>2020-02-09T10:46:47Z</time>
      </trkpt>
      <trkpt lat="42.4610980" lon="-2.4406040">
        <ele>395.3</ele>
        <time>2020-02-09T10:46:49Z</time>
      </trkpt>
      <trkpt lat="42.4610590" lon="-2.4406210">
        <ele>395.3</ele>
        <time>2020-02-09T10:46:50Z</time>
      </trkpt>
      <trkpt lat="42.4610210" lon="-2.4406390">
        <ele>395.3</ele>
        <time>2020-02-09T10:46:51Z</time>
      </trkpt>
      <trkpt lat="42.4609830" lon="-2.4406550">
        <ele>395.3</ele>
        <time>2020-02-09T10:46:52Z</time>
      </trkpt>
      <trkpt lat="42.4609400" lon="-2.4406710">
        <ele>395.3</ele>
        <time>2020-02-09T10:46:53Z</time>
      </trkpt>
      <trkpt lat="42.4610750" lon="-2.4406870">
        <ele>395.3</ele>
        <time>2020-02-09T10:46:59Z</time>
      </trkpt>
      <trkpt lat="42.4609760" lon="-2.4407780">
        <ele>395.3</ele>
        <time>2020-02-09T10:47:08Z</time>
      </trkpt>
      <trkpt lat="42.4608970" lon="-2.4408410">
        <ele>395.4</ele>
        <time>2020-02-09T10:47:35Z</time>
      </trkpt>
      <trkpt lat="42.4608170" lon="-2.4409040">
        <ele>395.5</ele>
        <time>2020-02-09T10:47:36Z</time>
      </trkpt>
      <trkpt lat="42.4607650" lon="-2.4409150">
        <ele>395.5</ele>
        <time>2020-02-09T10:47:37Z</time>
      </trkpt>
      <trkpt lat="42.4607170" lon="-2.4409260">
        <ele>395.6</ele>
        <time>2020-02-09T10:47:38Z</time>
      </trkpt>
      <trkpt lat="42.4606320" lon="-2.4407800">
        <ele>395.8</ele>
        <time>2020-02-09T10:47:41Z</time>
      </trkpt>
      <trkpt lat="42.4605490" lon="-2.4408400">
        <ele>396.0</ele>
        <time>2020-02-09T10:47:42Z</time>
      </trkpt>
      <trkpt lat="42.4605090" lon="-2.4408520">
        <ele>396.1</ele>
        <time>2020-02-09T10:47:43Z</time>
      </trkpt>
      <trkpt lat="42.4604450" lon="-2.4407630">
        <ele>396.3</ele>
        <time>2020-02-09T10:47:44Z</time>
      </trkpt>
      <trkpt lat="42.4603930" lon="-2.4407510">
        <ele>396.4</ele>
        <time>2020-02-09T10:47:45Z</time>
      </trkpt>
      <trkpt lat="42.4603440" lon="-2.4407340">
        <ele>396.5</ele>
        <time>2020-02-09T10:47:46Z</time>
      </trkpt>
      <trkpt lat="42.4602960" lon="-2.4407220">
        <ele>396.6</ele>
        <time>2020-02-09T10:47:47Z</time>
      </trkpt>
      <trkpt lat="42.4602330" lon="-2.4408870">
        <ele>396.7</ele>
        <time>2020-02-09T10:47:48Z</time>
      </trkpt>
      <trkpt lat="42.4601850" lon="-2.4409060">
        <ele>396.7</ele>
        <time>2020-02-09T10:47:49Z</time>
      </trkpt>
      <trkpt lat="42.4601360" lon="-2.4409230">
        <ele>396.8</ele>
        <time>2020-02-09T10:47:50Z</time>
      </trkpt>
      <trkpt lat="42.4601140" lon="-2.4409870">
        <ele>396.8</ele>
        <time>2020-02-09T10:47:51Z</time>
      </trkpt>
      <trkpt lat="42.4600660" lon="-2.4410030">
        <ele>396.8</ele>
        <time>2020-02-09T10:47:52Z</time>
      </trkpt>
      <trkpt lat="42.4600180" lon="-2.4410190">
        <ele>396.8</ele>
        <time>2020-02-09T10:47:53Z</time>
      </trkpt>
      <trkpt lat="42.4599700" lon="-2.4410410">
        <ele>396.9</ele>
        <time>2020-02-09T10:47:54Z</time>
      </trkpt>
      <trkpt lat="42.4599210" lon="-2.4410570">
        <ele>396.9</ele>
        <time>2020-02-09T10:47:55Z</time>
      </trkpt>
      <trkpt lat="42.4598730" lon="-2.4410730">
        <ele>396.9</ele>
        <time>2020-02-09T10:47:56Z</time>
      </trkpt>
      <trkpt lat="42.4598250" lon="-2.4410890">
        <ele>396.9</ele>
        <time>2020-02-09T10:47:57Z</time>
      </trkpt>
      <trkpt lat="42.4595350" lon="-2.4412070">
        <ele>396.3</ele>
        <time>2020-02-09T10:47:59Z</time>
      </trkpt>
      <trkpt lat="42.4594650" lon="-2.4412340">
        <ele>396.1</ele>
        <time>2020-02-09T10:48:00Z</time>
      </trkpt>
      <trkpt lat="42.4593960" lon="-2.4412660">
        <ele>396.1</ele>
        <time>2020-02-09T10:48:01Z</time>
      </trkpt>
      <trkpt lat="42.4593260" lon="-2.4412980">
        <ele>396.2</ele>
        <time>2020-02-09T10:48:02Z</time>
      </trkpt>
      <trkpt lat="42.4592560" lon="-2.4413310">
        <ele>396.3</ele>
        <time>2020-02-09T10:48:03Z</time>
      </trkpt>
      <trkpt lat="42.4591920" lon="-2.4413570">
        <ele>396.5</ele>
        <time>2020-02-09T10:48:04Z</time>
      </trkpt>
      <trkpt lat="42.4591580" lon="-2.4414330">
        <ele>396.7</ele>
        <time>2020-02-09T10:48:05Z</time>
      </trkpt>
      <trkpt lat="42.4591000" lon="-2.4414700">
        <ele>396.8</ele>
        <time>2020-02-09T10:48:06Z</time>
      </trkpt>
      <trkpt lat="42.4590410" lon="-2.4415080">
        <ele>396.8</ele>
        <time>2020-02-09T10:48:07Z</time>
      </trkpt>
      <trkpt lat="42.4589820" lon="-2.4415450">
        <ele>396.8</ele>
        <time>2020-02-09T10:48:08Z</time>
      </trkpt>
      <trkpt lat="42.4589290" lon="-2.4415830">
        <ele>396.8</ele>
        <time>2020-02-09T10:48:09Z</time>
      </trkpt>
      <trkpt lat="42.4588700" lon="-2.4416150">
        <ele>396.8</ele>
        <time>2020-02-09T10:48:10Z</time>
      </trkpt>
      <trkpt lat="42.4588110" lon="-2.4416520">
        <ele>396.8</ele>
        <time>2020-02-09T10:48:11Z</time>
      </trkpt>
      <trkpt lat="42.4587520" lon="-2.4416900">
        <ele>396.8</ele>
        <time>2020-02-09T10:48:12Z</time>
      </trkpt>
      <trkpt lat="42.4585690" lon="-2.4419900">
        <ele>395.1</ele>
        <time>2020-02-09T10:48:21Z</time>
      </trkpt>
      <trkpt lat="42.4586340" lon="-2.4420080">
        <ele>394.9</ele>
        <time>2020-02-09T10:48:22Z</time>
      </trkpt>
      <trkpt lat="42.4585800" lon="-2.4420870">
        <ele>394.7</ele>
        <time>2020-02-09T10:48:24Z</time>
      </trkpt>
      <trkpt lat="42.4585280" lon="-2.4420660">
        <ele>394.6</ele>
        <time>2020-02-09T10:48:25Z</time>
      </trkpt>
      <trkpt lat="42.4584510" lon="-2.4421370">
        <ele>395.2</ele>
        <time>2020-02-09T10:48:26Z</time>
      </trkpt>
      <trkpt lat="42.4581630" lon="-2.4418150">
        <ele>391.3</ele>
        <time>2020-02-09T10:48:29Z</time>
      </trkpt>
      <trkpt lat="42.4581080" lon="-2.4417740">
        <ele>391.3</ele>
        <time>2020-02-09T10:48:30Z</time>
      </trkpt>
      <trkpt lat="42.4580710" lon="-2.4417060">
        <ele>391.2</ele>
        <time>2020-02-09T10:48:31Z</time>
      </trkpt>
      <trkpt lat="42.4580170" lon="-2.4416630">
        <ele>390.9</ele>
        <time>2020-02-09T10:48:32Z</time>
      </trkpt>
      <trkpt lat="42.4579690" lon="-2.4416200">
        <ele>390.7</ele>
        <time>2020-02-09T10:48:33Z</time>
      </trkpt>
      <trkpt lat="42.4579150" lon="-2.4415720">
        <ele>390.5</ele>
        <time>2020-02-09T10:48:34Z</time>
      </trkpt>
      <trkpt lat="42.4578670" lon="-2.4415290">
        <ele>390.3</ele>
        <time>2020-02-09T10:48:35Z</time>
      </trkpt>
      <trkpt lat="42.4578130" lon="-2.4414860">
        <ele>390.2</ele>
        <time>2020-02-09T10:48:36Z</time>
      </trkpt>
      <trkpt lat="42.4577590" lon="-2.4414430">
        <ele>390.0</ele>
        <time>2020-02-09T10:48:37Z</time>
      </trkpt>
      <trkpt lat="42.4573250" lon="-2.4414700">
        <ele>388.9</ele>
        <time>2020-02-09T10:48:48Z</time>
      </trkpt>
      <trkpt lat="42.4570620" lon="-2.4415080">
        <ele>388.7</ele>
        <time>2020-02-09T10:48:51Z</time>
      </trkpt>
      <trkpt lat="42.4570140" lon="-2.4415020">
        <ele>388.8</ele>
        <time>2020-02-09T10:48:52Z</time>
      </trkpt>
      <trkpt lat="42.4567100" lon="-2.4415610">
        <ele>389.7</ele>
        <time>2020-02-09T10:48:54Z</time>
      </trkpt>
      <trkpt lat="42.4566380" lon="-2.4415600">
        <ele>390.1</ele>
        <time>2020-02-09T10:48:55Z</time>
      </trkpt>
      <trkpt lat="42.4566190" lon="-2.4415180">
        <ele>390.2</ele>
        <time>2020-02-09T10:48:56Z</time>
      </trkpt>
      <trkpt lat="42.4565730" lon="-2.4415100">
        <ele>390.3</ele>
        <time>2020-02-09T10:48:57Z</time>
      </trkpt>
      <trkpt lat="42.4565130" lon="-2.4415030">
        <ele>390.4</ele>
        <time>2020-02-09T10:48:58Z</time>
      </trkpt>
      <trkpt lat="42.4564560" lon="-2.4414930">
        <ele>390.5</ele>
        <time>2020-02-09T10:48:59Z</time>
      </trkpt>
      <trkpt lat="42.4563970" lon="-2.4414910">
        <ele>390.6</ele>
        <time>2020-02-09T10:49:00Z</time>
      </trkpt>
      <trkpt lat="42.4563450" lon="-2.4414770">
        <ele>390.7</ele>
        <time>2020-02-09T10:49:01Z</time>
      </trkpt>
      <trkpt lat="42.4563050" lon="-2.4414420">
        <ele>390.8</ele>
        <time>2020-02-09T10:49:02Z</time>
      </trkpt>
      <trkpt lat="42.4562440" lon="-2.4414280">
        <ele>390.9</ele>
        <time>2020-02-09T10:49:03Z</time>
      </trkpt>
      <trkpt lat="42.4561980" lon="-2.4414110">
        <ele>391.0</ele>
        <time>2020-02-09T10:49:04Z</time>
      </trkpt>
      <trkpt lat="42.4561450" lon="-2.4413950">
        <ele>391.1</ele>
        <time>2020-02-09T10:49:05Z</time>
      </trkpt>
      <trkpt lat="42.4560910" lon="-2.4413730">
        <ele>391.3</ele>
        <time>2020-02-09T10:49:06Z</time>
      </trkpt>
      <trkpt lat="42.4560370" lon="-2.4413570">
        <ele>391.5</ele>
        <time>2020-02-09T10:49:07Z</time>
      </trkpt>
      <trkpt lat="42.4559840" lon="-2.4413410">
        <ele>391.7</ele>
        <time>2020-02-09T10:49:08Z</time>
      </trkpt>
      <trkpt lat="42.4557910" lon="-2.4411540">
        <ele>392.0</ele>
        <time>2020-02-09T10:49:10Z</time>
      </trkpt>
      <trkpt lat="42.4557320" lon="-2.4411270">
        <ele>392.0</ele>
        <time>2020-02-09T10:49:11Z</time>
      </trkpt>
      <trkpt lat="42.4557370" lon="-2.4409390">
        <ele>392.0</ele>
        <time>2020-02-09T10:49:12Z</time>
      </trkpt>
      <trkpt lat="42.4556890" lon="-2.4409070">
        <ele>392.1</ele>
        <time>2020-02-09T10:49:13Z</time>
      </trkpt>
      <trkpt lat="42.4556400" lon="-2.4408690">
        <ele>392.1</ele>
        <time>2020-02-09T10:49:14Z</time>
      </trkpt>
      <trkpt lat="42.4551930" lon="-2.4413530">
        <ele>391.6</ele>
        <time>2020-02-09T10:49:23Z</time>
      </trkpt>
      <trkpt lat="42.4551400" lon="-2.4413380">
        <ele>391.7</ele>
        <time>2020-02-09T10:49:24Z</time>
      </trkpt>
      <trkpt lat="42.4550880" lon="-2.4413230">
        <ele>391.9</ele>
        <time>2020-02-09T10:49:25Z</time>
      </trkpt>
      <trkpt lat="42.4550450" lon="-2.4413200">
        <ele>392.0</ele>
        <time>2020-02-09T10:49:26Z</time>
      </trkpt>
      <trkpt lat="42.4549910" lon="-2.4413040">
        <ele>392.1</ele>
        <time>2020-02-09T10:49:27Z</time>
      </trkpt>
      <trkpt lat="42.4549380" lon="-2.4412930">
        <ele>392.2</ele>
        <time>2020-02-09T10:49:28Z</time>
      </trkpt>
      <trkpt lat="42.4548790" lon="-2.4412770">
        <ele>392.3</ele>
        <time>2020-02-09T10:49:29Z</time>
      </trkpt>
      <trkpt lat="42.4548250" lon="-2.4412610">
        <ele>392.4</ele>
        <time>2020-02-09T10:49:30Z</time>
      </trkpt>
      <trkpt lat="42.4547230" lon="-2.4413360">
        <ele>392.5</ele>
        <time>2020-02-09T10:49:31Z</time>
      </trkpt>
      <trkpt lat="42.4546460" lon="-2.4413130">
        <ele>392.6</ele>
        <time>2020-02-09T10:49:32Z</time>
      </trkpt>
      <trkpt lat="42.4546190" lon="-2.4413160">
        <ele>392.6</ele>
        <time>2020-02-09T10:49:33Z</time>
      </trkpt>
      <trkpt lat="42.4545480" lon="-2.4412800">
        <ele>392.7</ele>
        <time>2020-02-09T10:49:34Z</time>
      </trkpt>
      <trkpt lat="42.4544920" lon="-2.4412700">
        <ele>392.8</ele>
        <time>2020-02-09T10:49:35Z</time>
      </trkpt>
      <trkpt lat="42.4544360" lon="-2.4412610">
        <ele>392.9</ele>
        <time>2020-02-09T10:49:36Z</time>
      </trkpt>
      <trkpt lat="42.4543800" lon="-2.4412500">
        <ele>392.9</ele>
        <time>2020-02-09T10:49:37Z</time>
      </trkpt>
      <trkpt lat="42.4543260" lon="-2.4412450">
        <ele>393.1</ele>
        <time>2020-02-09T10:49:38Z</time>
      </trkpt>
      <trkpt lat="42.4542620" lon="-2.4412610">
        <ele>393.3</ele>
        <time>2020-02-09T10:49:39Z</time>
      </trkpt>
      <trkpt lat="42.4542030" lon="-2.4412630">
        <ele>393.4</ele>
        <time>2020-02-09T10:49:40Z</time>
      </trkpt>
      <trkpt lat="42.4541470" lon="-2.4412640">
        <ele>393.5</ele>
        <time>2020-02-09T10:49:41Z</time>
      </trkpt>
      <trkpt lat="42.4540900" lon="-2.4412660">
        <ele>393.4</ele>
        <time>2020-02-09T10:49:42Z</time>
      </trkpt>
      <trkpt lat="42.4540360" lon="-2.4412660">
        <ele>393.4</ele>
        <time>2020-02-09T10:49:43Z</time>
      </trkpt>
      <trkpt lat="42.4539770" lon="-2.4412660">
        <ele>393.4</ele>
        <time>2020-02-09T10:49:44Z</time>
      </trkpt>
      <trkpt lat="42.4539240" lon="-2.4412660">
        <ele>393.4</ele>
        <time>2020-02-09T10:49:45Z</time>
      </trkpt>
      <trkpt lat="42.4538400" lon="-2.4413810">
        <ele>393.4</ele>
        <time>2020-02-09T10:49:46Z</time>
      </trkpt>
      <trkpt lat="42.4537830" lon="-2.4413760">
        <ele>393.4</ele>
        <time>2020-02-09T10:49:47Z</time>
      </trkpt>
      <trkpt lat="42.4537830" lon="-2.4412840">
        <ele>393.5</ele>
        <time>2020-02-09T10:49:48Z</time>
      </trkpt>
      <trkpt lat="42.4537410" lon="-2.4412450">
        <ele>393.5</ele>
        <time>2020-02-09T10:49:49Z</time>
      </trkpt>
      <trkpt lat="42.4537080" lon="-2.4412190">
        <ele>393.4</ele>
        <time>2020-02-09T10:49:50Z</time>
      </trkpt>
      <trkpt lat="42.4536670" lon="-2.4411930">
        <ele>393.3</ele>
        <time>2020-02-09T10:49:51Z</time>
      </trkpt>
      <trkpt lat="42.4536030" lon="-2.4411870">
        <ele>393.1</ele>
        <time>2020-02-09T10:49:52Z</time>
      </trkpt>
      <trkpt lat="42.4535520" lon="-2.4411690">
        <ele>393.0</ele>
        <time>2020-02-09T10:49:53Z</time>
      </trkpt>
      <trkpt lat="42.4535030" lon="-2.4411720">
        <ele>392.8</ele>
        <time>2020-02-09T10:49:54Z</time>
      </trkpt>
      <trkpt lat="42.4534540" lon="-2.4411650">
        <ele>392.7</ele>
        <time>2020-02-09T10:49:55Z</time>
      </trkpt>
      <trkpt lat="42.4534070" lon="-2.4412030">
        <ele>392.6</ele>
        <time>2020-02-09T10:49:56Z</time>
      </trkpt>
      <trkpt lat="42.4533610" lon="-2.4412290">
        <ele>392.5</ele>
        <time>2020-02-09T10:49:57Z</time>
      </trkpt>
      <trkpt lat="42.4533120" lon="-2.4412500">
        <ele>392.3</ele>
        <time>2020-02-09T10:49:58Z</time>
      </trkpt>
      <trkpt lat="42.4532690" lon="-2.4412770">
        <ele>392.3</ele>
        <time>2020-02-09T10:49:59Z</time>
      </trkpt>
      <trkpt lat="42.4532210" lon="-2.4413040">
        <ele>392.2</ele>
        <time>2020-02-09T10:50:00Z</time>
      </trkpt>
      <trkpt lat="42.4531730" lon="-2.4413250">
        <ele>392.2</ele>
        <time>2020-02-09T10:50:01Z</time>
      </trkpt>
      <trkpt lat="42.4531300" lon="-2.4413520">
        <ele>392.2</ele>
        <time>2020-02-09T10:50:02Z</time>
      </trkpt>
      <trkpt lat="42.4530820" lon="-2.4413730">
        <ele>392.1</ele>
        <time>2020-02-09T10:50:03Z</time>
      </trkpt>
      <trkpt lat="42.4530330" lon="-2.4414000">
        <ele>392.1</ele>
        <time>2020-02-09T10:50:04Z</time>
      </trkpt>
      <trkpt lat="42.4529600" lon="-2.4412240">
        <ele>392.0</ele>
        <time>2020-02-09T10:50:05Z</time>
      </trkpt>
      <trkpt lat="42.4529220" lon="-2.4411230">
        <ele>392.0</ele>
        <time>2020-02-09T10:50:06Z</time>
      </trkpt>
      <trkpt lat="42.4528780" lon="-2.4410490">
        <ele>392.0</ele>
        <time>2020-02-09T10:50:07Z</time>
      </trkpt>
      <trkpt lat="42.4528320" lon="-2.4409720">
        <ele>392.0</ele>
        <time>2020-02-09T10:50:08Z</time>
      </trkpt>
      <trkpt lat="42.4527870" lon="-2.4409010">
        <ele>392.0</ele>
        <time>2020-02-09T10:50:09Z</time>
      </trkpt>
      <trkpt lat="42.4527440" lon="-2.4408320">
        <ele>392.0</ele>
        <time>2020-02-09T10:50:10Z</time>
      </trkpt>
      <trkpt lat="42.4527010" lon="-2.4407570">
        <ele>392.0</ele>
        <time>2020-02-09T10:50:11Z</time>
      </trkpt>
      <trkpt lat="42.4531600" lon="-2.4406340">
        <ele>392.2</ele>
        <time>2020-02-09T10:50:13Z</time>
      </trkpt>
      <trkpt lat="42.4532000" lon="-2.4405710">
        <ele>392.2</ele>
        <time>2020-02-09T10:50:14Z</time>
      </trkpt>
      <trkpt lat="42.4532430" lon="-2.4405100">
        <ele>392.2</ele>
        <time>2020-02-09T10:50:15Z</time>
      </trkpt>
      <trkpt lat="42.4532800" lon="-2.4404450">
        <ele>392.2</ele>
        <time>2020-02-09T10:50:16Z</time>
      </trkpt>
      <trkpt lat="42.4533230" lon="-2.4403810">
        <ele>392.2</ele>
        <time>2020-02-09T10:50:17Z</time>
      </trkpt>
      <trkpt lat="42.4533610" lon="-2.4403220">
        <ele>392.2</ele>
        <time>2020-02-09T10:50:18Z</time>
      </trkpt>
      <trkpt lat="42.4533870" lon="-2.4403300">
        <ele>392.2</ele>
        <time>2020-02-09T10:50:19Z</time>
      </trkpt>
      <trkpt lat="42.4534250" lon="-2.4402760">
        <ele>392.2</ele>
        <time>2020-02-09T10:50:20Z</time>
      </trkpt>
      <trkpt lat="42.4534620" lon="-2.4402220">
        <ele>392.2</ele>
        <time>2020-02-09T10:50:21Z</time>
      </trkpt>
      <trkpt lat="42.4535210" lon="-2.4400550">
        <ele>392.2</ele>
        <time>2020-02-09T10:50:22Z</time>
      </trkpt>
      <trkpt lat="42.4535500" lon="-2.4399750">
        <ele>392.2</ele>
        <time>2020-02-09T10:50:23Z</time>
      </trkpt>
      <trkpt lat="42.4535740" lon="-2.4398570">
        <ele>392.1</ele>
        <time>2020-02-09T10:50:24Z</time>
      </trkpt>
      <trkpt lat="42.4535920" lon="-2.4397680">
        <ele>392.0</ele>
        <time>2020-02-09T10:50:25Z</time>
      </trkpt>
      <trkpt lat="42.4536100" lon="-2.4396800">
        <ele>391.8</ele>
        <time>2020-02-09T10:50:26Z</time>
      </trkpt>
      <trkpt lat="42.4535770" lon="-2.4395880">
        <ele>391.7</ele>
        <time>2020-02-09T10:50:27Z</time>
      </trkpt>
      <trkpt lat="42.4535840" lon="-2.4395010">
        <ele>391.6</ele>
        <time>2020-02-09T10:50:28Z</time>
      </trkpt>
      <trkpt lat="42.4536290" lon="-2.4394050">
        <ele>391.5</ele>
        <time>2020-02-09T10:50:29Z</time>
      </trkpt>
      <trkpt lat="42.4536030" lon="-2.4393250">
        <ele>391.4</ele>
        <time>2020-02-09T10:50:30Z</time>
      </trkpt>
      <trkpt lat="42.4536110" lon="-2.4392390">
        <ele>391.4</ele>
        <time>2020-02-09T10:50:31Z</time>
      </trkpt>
      <trkpt lat="42.4536180" lon="-2.4391530">
        <ele>391.4</ele>
        <time>2020-02-09T10:50:32Z</time>
      </trkpt>
      <trkpt lat="42.4536330" lon="-2.4390450">
        <ele>391.4</ele>
        <time>2020-02-09T10:50:33Z</time>
      </trkpt>
      <trkpt lat="42.4536370" lon="-2.4389600">
        <ele>391.3</ele>
        <time>2020-02-09T10:50:34Z</time>
      </trkpt>
      <trkpt lat="42.4536450" lon="-2.4389170">
        <ele>391.3</ele>
        <time>2020-02-09T10:50:35Z</time>
      </trkpt>
      <trkpt lat="42.4536500" lon="-2.4388360">
        <ele>391.2</ele>
        <time>2020-02-09T10:50:36Z</time>
      </trkpt>
      <trkpt lat="42.4536450" lon="-2.4387600">
        <ele>391.0</ele>
        <time>2020-02-09T10:50:37Z</time>
      </trkpt>
      <trkpt lat="42.4536470" lon="-2.4386830">
        <ele>390.9</ele>
        <time>2020-02-09T10:50:38Z</time>
      </trkpt>
      <trkpt lat="42.4536140" lon="-2.4386380">
        <ele>390.8</ele>
        <time>2020-02-09T10:50:39Z</time>
      </trkpt>
      <trkpt lat="42.4536080" lon="-2.4385580">
        <ele>390.6</ele>
        <time>2020-02-09T10:50:40Z</time>
      </trkpt>
      <trkpt lat="42.4536010" lon="-2.4384670">
        <ele>390.5</ele>
        <time>2020-02-09T10:50:42Z</time>
      </trkpt>
      <trkpt lat="42.4535860" lon="-2.4384120">
        <ele>390.5</ele>
        <time>2020-02-09T10:50:43Z</time>
      </trkpt>
      <trkpt lat="42.4535750" lon="-2.4383590">
        <ele>390.5</ele>
        <time>2020-02-09T10:50:44Z</time>
      </trkpt>
      <trkpt lat="42.4535640" lon="-2.4383050">
        <ele>390.5</ele>
        <time>2020-02-09T10:50:45Z</time>
      </trkpt>
      <trkpt lat="42.4535590" lon="-2.4382460">
        <ele>390.5</ele>
        <time>2020-02-09T10:50:46Z</time>
      </trkpt>
      <trkpt lat="42.4535480" lon="-2.4381920">
        <ele>390.5</ele>
        <time>2020-02-09T10:50:47Z</time>
      </trkpt>
      <trkpt lat="42.4535380" lon="-2.4381330">
        <ele>390.4</ele>
        <time>2020-02-09T10:50:48Z</time>
      </trkpt>
      <trkpt lat="42.4535270" lon="-2.4380800">
        <ele>390.4</ele>
        <time>2020-02-09T10:50:49Z</time>
      </trkpt>
      <trkpt lat="42.4535160" lon="-2.4380260">
        <ele>390.4</ele>
        <time>2020-02-09T10:50:50Z</time>
      </trkpt>
      <trkpt lat="42.4535050" lon="-2.4379670">
        <ele>390.4</ele>
        <time>2020-02-09T10:50:51Z</time>
      </trkpt>
      <trkpt lat="42.4534950" lon="-2.4379130">
        <ele>390.4</ele>
        <time>2020-02-09T10:50:52Z</time>
      </trkpt>
      <trkpt lat="42.4529300" lon="-2.4382890">
        <ele>390.5</ele>
        <time>2020-02-09T10:50:55Z</time>
      </trkpt>
      <trkpt lat="42.4528780" lon="-2.4382820">
        <ele>390.6</ele>
        <time>2020-02-09T10:50:56Z</time>
      </trkpt>
      <trkpt lat="42.4528190" lon="-2.4382670">
        <ele>390.7</ele>
        <time>2020-02-09T10:50:57Z</time>
      </trkpt>
      <trkpt lat="42.4527650" lon="-2.4382620">
        <ele>390.7</ele>
        <time>2020-02-09T10:50:58Z</time>
      </trkpt>
      <trkpt lat="42.4527170" lon="-2.4382510">
        <ele>390.8</ele>
        <time>2020-02-09T10:50:59Z</time>
      </trkpt>
      <trkpt lat="42.4526630" lon="-2.4382460">
        <ele>390.9</ele>
        <time>2020-02-09T10:51:00Z</time>
      </trkpt>
      <trkpt lat="42.4526100" lon="-2.4382350">
        <ele>391.0</ele>
        <time>2020-02-09T10:51:01Z</time>
      </trkpt>
      <trkpt lat="42.4525560" lon="-2.4382300">
        <ele>391.1</ele>
        <time>2020-02-09T10:51:02Z</time>
      </trkpt>
      <trkpt lat="42.4525020" lon="-2.4382250">
        <ele>391.2</ele>
        <time>2020-02-09T10:51:03Z</time>
      </trkpt>
      <trkpt lat="42.4521960" lon="-2.4378920">
        <ele>391.6</ele>
        <time>2020-02-09T10:51:09Z</time>
      </trkpt>
      <trkpt lat="42.4521510" lon="-2.4378670">
        <ele>391.7</ele>
        <time>2020-02-09T10:51:10Z</time>
      </trkpt>
      <trkpt lat="42.4521080" lon="-2.4378410">
        <ele>391.7</ele>
        <time>2020-02-09T10:51:11Z</time>
      </trkpt>
      <trkpt lat="42.4520680" lon="-2.4378220">
        <ele>391.8</ele>
        <time>2020-02-09T10:51:12Z</time>
      </trkpt>
      <trkpt lat="42.4520250" lon="-2.4377950">
        <ele>391.8</ele>
        <time>2020-02-09T10:51:13Z</time>
      </trkpt>
      <trkpt lat="42.4519770" lon="-2.4377690">
        <ele>391.8</ele>
        <time>2020-02-09T10:51:14Z</time>
      </trkpt>
      <trkpt lat="42.4519340" lon="-2.4377470">
        <ele>391.9</ele>
        <time>2020-02-09T10:51:15Z</time>
      </trkpt>
      <trkpt lat="42.4518910" lon="-2.4377200">
        <ele>391.9</ele>
        <time>2020-02-09T10:51:16Z</time>
      </trkpt>
      <trkpt lat="42.4518480" lon="-2.4376930">
        <ele>391.9</ele>
        <time>2020-02-09T10:51:17Z</time>
      </trkpt>
      <trkpt lat="42.4518050" lon="-2.4376720">
        <ele>392.0</ele>
        <time>2020-02-09T10:51:18Z</time>
      </trkpt>
      <trkpt lat="42.4517620" lon="-2.4376450">
        <ele>392.0</ele>
        <time>2020-02-09T10:51:19Z</time>
      </trkpt>
      <trkpt lat="42.4516920" lon="-2.4376770">
        <ele>392.0</ele>
        <time>2020-02-09T10:51:23Z</time>
      </trkpt>
      <trkpt lat="42.4516580" lon="-2.4376790">
        <ele>392.1</ele>
        <time>2020-02-09T10:51:24Z</time>
      </trkpt>
      <trkpt lat="42.4515930" lon="-2.4377160">
        <ele>392.1</ele>
        <time>2020-02-09T10:51:25Z</time>
      </trkpt>
      <trkpt lat="42.4515490" lon="-2.4377190">
        <ele>392.2</ele>
        <time>2020-02-09T10:51:27Z</time>
      </trkpt>
      <trkpt lat="42.4515620" lon="-2.4377600">
        <ele>392.3</ele>
        <time>2020-02-09T10:51:35Z</time>
      </trkpt>
      <trkpt lat="42.4515620" lon="-2.4378030">
        <ele>392.4</ele>
        <time>2020-02-09T10:52:13Z</time>
      </trkpt>
      <trkpt lat="42.4515330" lon="-2.4377850">
        <ele>392.5</ele>
        <time>2020-02-09T10:52:15Z</time>
      </trkpt>
      <trkpt lat="42.4514780" lon="-2.4378010">
        <ele>392.6</ele>
        <time>2020-02-09T10:52:17Z</time>
      </trkpt>
      <trkpt lat="42.4514320" lon="-2.4378280">
        <ele>392.7</ele>
        <time>2020-02-09T10:52:19Z</time>
      </trkpt>
      <trkpt lat="42.4514130" lon="-2.4378650">
        <ele>392.7</ele>
        <time>2020-02-09T10:52:20Z</time>
      </trkpt>
      <trkpt lat="42.4512960" lon="-2.4378980">
        <ele>392.9</ele>
        <time>2020-02-09T10:52:22Z</time>
      </trkpt>
      <trkpt lat="42.4512600" lon="-2.4379090">
        <ele>393.0</ele>
        <time>2020-02-09T10:52:23Z</time>
      </trkpt>
      <trkpt lat="42.4512300" lon="-2.4378000">
        <ele>393.2</ele>
        <time>2020-02-09T10:52:24Z</time>
      </trkpt>
      <trkpt lat="42.4511950" lon="-2.4377810">
        <ele>393.2</ele>
        <time>2020-02-09T10:52:25Z</time>
      </trkpt>
      <trkpt lat="42.4511110" lon="-2.4377600">
        <ele>393.5</ele>
        <time>2020-02-09T10:52:26Z</time>
      </trkpt>
      <trkpt lat="42.4510590" lon="-2.4377630">
        <ele>393.7</ele>
        <time>2020-02-09T10:52:28Z</time>
      </trkpt>
      <trkpt lat="42.4510160" lon="-2.4377520">
        <ele>393.7</ele>
        <time>2020-02-09T10:52:29Z</time>
      </trkpt>
      <trkpt lat="42.4509790" lon="-2.4377360">
        <ele>393.8</ele>
        <time>2020-02-09T10:52:30Z</time>
      </trkpt>
      <trkpt lat="42.4509410" lon="-2.4377260">
        <ele>393.9</ele>
        <time>2020-02-09T10:52:31Z</time>
      </trkpt>
      <trkpt lat="42.4509040" lon="-2.4377100">
        <ele>393.9</ele>
        <time>2020-02-09T10:52:32Z</time>
      </trkpt>
      <trkpt lat="42.4508660" lon="-2.4376990">
        <ele>394.0</ele>
        <time>2020-02-09T10:52:33Z</time>
      </trkpt>
      <trkpt lat="42.4508390" lon="-2.4378650">
        <ele>394.2</ele>
        <time>2020-02-09T10:52:34Z</time>
      </trkpt>
      <trkpt lat="42.4507920" lon="-2.4378950">
        <ele>394.3</ele>
        <time>2020-02-09T10:52:35Z</time>
      </trkpt>
      <trkpt lat="42.4507460" lon="-2.4379250">
        <ele>394.3</ele>
        <time>2020-02-09T10:52:36Z</time>
      </trkpt>
      <trkpt lat="42.4507000" lon="-2.4379780">
        <ele>394.3</ele>
        <time>2020-02-09T10:52:37Z</time>
      </trkpt>
      <trkpt lat="42.4506520" lon="-2.4380100">
        <ele>394.3</ele>
        <time>2020-02-09T10:52:38Z</time>
      </trkpt>
      <trkpt lat="42.4506090" lon="-2.4380420">
        <ele>394.3</ele>
        <time>2020-02-09T10:52:39Z</time>
      </trkpt>
      <trkpt lat="42.4505600" lon="-2.4380690">
        <ele>394.2</ele>
        <time>2020-02-09T10:52:40Z</time>
      </trkpt>
      <trkpt lat="42.4505120" lon="-2.4381010">
        <ele>394.2</ele>
        <time>2020-02-09T10:52:41Z</time>
      </trkpt>
      <trkpt lat="42.4504690" lon="-2.4381330">
        <ele>394.2</ele>
        <time>2020-02-09T10:52:42Z</time>
      </trkpt>
      <trkpt lat="42.4504210" lon="-2.4381600">
        <ele>394.2</ele>
        <time>2020-02-09T10:52:43Z</time>
      </trkpt>
      <trkpt lat="42.4503730" lon="-2.4381920">
        <ele>394.1</ele>
        <time>2020-02-09T10:52:44Z</time>
      </trkpt>
      <trkpt lat="42.4503300" lon="-2.4382250">
        <ele>394.1</ele>
        <time>2020-02-09T10:52:45Z</time>
      </trkpt>
      <trkpt lat="42.4502120" lon="-2.4387660">
        <ele>393.1</ele>
        <time>2020-02-09T10:52:51Z</time>
      </trkpt>
      <trkpt lat="42.4501750" lon="-2.4388610">
        <ele>393.0</ele>
        <time>2020-02-09T10:52:53Z</time>
      </trkpt>
      <trkpt lat="42.4501440" lon="-2.4389320">
        <ele>393.0</ele>
        <time>2020-02-09T10:52:54Z</time>
      </trkpt>
      <trkpt lat="42.4501150" lon="-2.4390020">
        <ele>393.0</ele>
        <time>2020-02-09T10:52:55Z</time>
      </trkpt>
      <trkpt lat="42.4500830" lon="-2.4390720">
        <ele>393.2</ele>
        <time>2020-02-09T10:52:56Z</time>
      </trkpt>
      <trkpt lat="42.4500510" lon="-2.4391420">
        <ele>393.2</ele>
        <time>2020-02-09T10:52:57Z</time>
      </trkpt>
      <trkpt lat="42.4500190" lon="-2.4392120">
        <ele>393.3</ele>
        <time>2020-02-09T10:52:58Z</time>
      </trkpt>
      <trkpt lat="42.4499700" lon="-2.4393350">
        <ele>393.5</ele>
        <time>2020-02-09T10:52:59Z</time>
      </trkpt>
      <trkpt lat="42.4499180" lon="-2.4394160">
        <ele>393.5</ele>
        <time>2020-02-09T10:53:00Z</time>
      </trkpt>
      <trkpt lat="42.4498910" lon="-2.4394870">
        <ele>393.6</ele>
        <time>2020-02-09T10:53:01Z</time>
      </trkpt>
      <trkpt lat="42.4498650" lon="-2.4395590">
        <ele>393.6</ele>
        <time>2020-02-09T10:53:02Z</time>
      </trkpt>
      <trkpt lat="42.4498360" lon="-2.4396300">
        <ele>393.7</ele>
        <time>2020-02-09T10:53:03Z</time>
      </trkpt>
      <trkpt lat="42.4498090" lon="-2.4397000">
        <ele>393.7</ele>
        <time>2020-02-09T10:53:04Z</time>
      </trkpt>
      <trkpt lat="42.4497820" lon="-2.4397750">
        <ele>393.7</ele>
        <time>2020-02-09T10:53:05Z</time>
      </trkpt>
      <trkpt lat="42.4497560" lon="-2.4398450">
        <ele>393.7</ele>
        <time>2020-02-09T10:53:06Z</time>
      </trkpt>
      <trkpt lat="42.4497290" lon="-2.4399140">
        <ele>393.7</ele>
        <time>2020-02-09T10:53:07Z</time>
      </trkpt>
      <trkpt lat="42.4497020" lon="-2.4399890">
        <ele>393.7</ele>
        <time>2020-02-09T10:53:08Z</time>
      </trkpt>
      <trkpt lat="42.4496750" lon="-2.4400590">
        <ele>393.6</ele>
        <time>2020-02-09T10:53:09Z</time>
      </trkpt>
      <trkpt lat="42.4496480" lon="-2.4401290">
        <ele>393.6</ele>
        <time>2020-02-09T10:53:10Z</time>
      </trkpt>
      <trkpt lat="42.4496220" lon="-2.4402040">
        <ele>393.6</ele>
        <time>2020-02-09T10:53:11Z</time>
      </trkpt>
      <trkpt lat="42.4495950" lon="-2.4402740">
        <ele>393.6</ele>
        <time>2020-02-09T10:53:12Z</time>
      </trkpt>
      <trkpt lat="42.4494340" lon="-2.4405260">
        <ele>393.7</ele>
        <time>2020-02-09T10:53:17Z</time>
      </trkpt>
      <trkpt lat="42.4494070" lon="-2.4405900">
        <ele>393.8</ele>
        <time>2020-02-09T10:53:18Z</time>
      </trkpt>
      <trkpt lat="42.4493380" lon="-2.4407430">
        <ele>394.0</ele>
        <time>2020-02-09T10:53:19Z</time>
      </trkpt>
      <trkpt lat="42.4493080" lon="-2.4408160">
        <ele>394.1</ele>
        <time>2020-02-09T10:53:20Z</time>
      </trkpt>
      <trkpt lat="42.4492840" lon="-2.4409120">
        <ele>394.2</ele>
        <time>2020-02-09T10:53:21Z</time>
      </trkpt>
      <trkpt lat="42.4492590" lon="-2.4409850">
        <ele>394.3</ele>
        <time>2020-02-09T10:53:22Z</time>
      </trkpt>
      <trkpt lat="42.4492340" lon="-2.4410570">
        <ele>394.3</ele>
        <time>2020-02-09T10:53:23Z</time>
      </trkpt>
      <trkpt lat="42.4492080" lon="-2.4411210">
        <ele>394.4</ele>
        <time>2020-02-09T10:53:24Z</time>
      </trkpt>
      <trkpt lat="42.4491870" lon="-2.4411960">
        <ele>394.4</ele>
        <time>2020-02-09T10:53:25Z</time>
      </trkpt>
      <trkpt lat="42.4491600" lon="-2.4412660">
        <ele>394.4</ele>
        <time>2020-02-09T10:53:26Z</time>
      </trkpt>
      <trkpt lat="42.4490750" lon="-2.4412840">
        <ele>394.5</ele>
        <time>2020-02-09T10:53:27Z</time>
      </trkpt>
      <trkpt lat="42.4490600" lon="-2.4413390">
        <ele>394.5</ele>
        <time>2020-02-09T10:53:28Z</time>
      </trkpt>
      <trkpt lat="42.4490370" lon="-2.4414400">
        <ele>394.6</ele>
        <time>2020-02-09T10:53:29Z</time>
      </trkpt>
      <trkpt lat="42.4490050" lon="-2.4414910">
        <ele>394.6</ele>
        <time>2020-02-09T10:53:30Z</time>
      </trkpt>
      <trkpt lat="42.4489300" lon="-2.4415590">
        <ele>394.7</ele>
        <time>2020-02-09T10:53:31Z</time>
      </trkpt>
      <trkpt lat="42.4488850" lon="-2.4416130">
        <ele>394.7</ele>
        <time>2020-02-09T10:53:32Z</time>
      </trkpt>
      <trkpt lat="42.4488390" lon="-2.4416660">
        <ele>394.8</ele>
        <time>2020-02-09T10:53:33Z</time>
      </trkpt>
      <trkpt lat="42.4487950" lon="-2.4417170">
        <ele>394.8</ele>
        <time>2020-02-09T10:53:34Z</time>
      </trkpt>
      <trkpt lat="42.4487470" lon="-2.4417700">
        <ele>394.8</ele>
        <time>2020-02-09T10:53:35Z</time>
      </trkpt>
      <trkpt lat="42.4487040" lon="-2.4418240">
        <ele>394.8</ele>
        <time>2020-02-09T10:53:36Z</time>
      </trkpt>
      <trkpt lat="42.4486560" lon="-2.4418780">
        <ele>394.8</ele>
        <time>2020-02-09T10:53:37Z</time>
      </trkpt>
      <trkpt lat="42.4486130" lon="-2.4419310">
        <ele>394.8</ele>
        <time>2020-02-09T10:53:38Z</time>
      </trkpt>
      <trkpt lat="42.4485650" lon="-2.4419850">
        <ele>394.7</ele>
        <time>2020-02-09T10:53:39Z</time>
      </trkpt>
      <trkpt lat="42.4485220" lon="-2.4420390">
        <ele>394.7</ele>
        <time>2020-02-09T10:53:40Z</time>
      </trkpt>
      <trkpt lat="42.4484740" lon="-2.4420920">
        <ele>394.7</ele>
        <time>2020-02-09T10:53:41Z</time>
      </trkpt>
      <trkpt lat="42.4484310" lon="-2.4421460">
        <ele>394.7</ele>
        <time>2020-02-09T10:53:42Z</time>
      </trkpt>
      <trkpt lat="42.4484360" lon="-2.4424410">
        <ele>394.8</ele>
        <time>2020-02-09T10:53:45Z</time>
      </trkpt>
      <trkpt lat="42.4484150" lon="-2.4425480">
        <ele>394.9</ele>
        <time>2020-02-09T10:53:46Z</time>
      </trkpt>
      <trkpt lat="42.4483880" lon="-2.4426180">
        <ele>395.0</ele>
        <time>2020-02-09T10:53:47Z</time>
      </trkpt>
      <trkpt lat="42.4483660" lon="-2.4427200">
        <ele>395.1</ele>
        <time>2020-02-09T10:53:48Z</time>
      </trkpt>
      <trkpt lat="42.4483430" lon="-2.4427880">
        <ele>395.1</ele>
        <time>2020-02-09T10:53:49Z</time>
      </trkpt>
      <trkpt lat="42.4483180" lon="-2.4428450">
        <ele>395.2</ele>
        <time>2020-02-09T10:53:50Z</time>
      </trkpt>
      <trkpt lat="42.4482860" lon="-2.4429120">
        <ele>395.2</ele>
        <time>2020-02-09T10:53:51Z</time>
      </trkpt>
      <trkpt lat="42.4482740" lon="-2.4429980">
        <ele>395.2</ele>
        <time>2020-02-09T10:53:52Z</time>
      </trkpt>
      <trkpt lat="42.4482560" lon="-2.4430630">
        <ele>395.3</ele>
        <time>2020-02-09T10:53:53Z</time>
      </trkpt>
      <trkpt lat="42.4482260" lon="-2.4431310">
        <ele>395.3</ele>
        <time>2020-02-09T10:53:54Z</time>
      </trkpt>
      <trkpt lat="42.4481820" lon="-2.4431800">
        <ele>395.4</ele>
        <time>2020-02-09T10:53:55Z</time>
      </trkpt>
      <trkpt lat="42.4481490" lon="-2.4432460">
        <ele>395.4</ele>
        <time>2020-02-09T10:53:56Z</time>
      </trkpt>
      <trkpt lat="42.4481270" lon="-2.4433120">
        <ele>395.5</ele>
        <time>2020-02-09T10:53:57Z</time>
      </trkpt>
      <trkpt lat="42.4480970" lon="-2.4433790">
        <ele>395.6</ele>
        <time>2020-02-09T10:53:58Z</time>
      </trkpt>
      <trkpt lat="42.4480670" lon="-2.4434460">
        <ele>395.6</ele>
        <time>2020-02-09T10:53:59Z</time>
      </trkpt>
      <trkpt lat="42.4480390" lon="-2.4435140">
        <ele>395.7</ele>
        <time>2020-02-09T10:54:00Z</time>
      </trkpt>
      <trkpt lat="42.4480070" lon="-2.4435780">
        <ele>395.8</ele>
        <time>2020-02-09T10:54:01Z</time>
      </trkpt>
      <trkpt lat="42.4479800" lon="-2.4436480">
        <ele>395.8</ele>
        <time>2020-02-09T10:54:02Z</time>
      </trkpt>
      <trkpt lat="42.4479480" lon="-2.4437120">
        <ele>395.9</ele>
        <time>2020-02-09T10:54:03Z</time>
      </trkpt>
      <trkpt lat="42.4478630" lon="-2.4437210">
        <ele>396.0</ele>
        <time>2020-02-09T10:54:04Z</time>
      </trkpt>
      <trkpt lat="42.4478240" lon="-2.4437770">
        <ele>396.0</ele>
        <time>2020-02-09T10:54:05Z</time>
      </trkpt>
      <trkpt lat="42.4477840" lon="-2.4438330">
        <ele>396.1</ele>
        <time>2020-02-09T10:54:06Z</time>
      </trkpt>
      <trkpt lat="42.4477440" lon="-2.4439000">
        <ele>396.1</ele>
        <time>2020-02-09T10:54:07Z</time>
      </trkpt>
      <trkpt lat="42.4477010" lon="-2.4439590">
        <ele>396.2</ele>
        <time>2020-02-09T10:54:08Z</time>
      </trkpt>
      <trkpt lat="42.4476640" lon="-2.4440130">
        <ele>396.2</ele>
        <time>2020-02-09T10:54:09Z</time>
      </trkpt>
      <trkpt lat="42.4476210" lon="-2.4440720">
        <ele>396.3</ele>
        <time>2020-02-09T10:54:10Z</time>
      </trkpt>
      <trkpt lat="42.4475830" lon="-2.4441310">
        <ele>396.4</ele>
        <time>2020-02-09T10:54:11Z</time>
      </trkpt>
      <trkpt lat="42.4475400" lon="-2.4441900">
        <ele>396.5</ele>
        <time>2020-02-09T10:54:12Z</time>
      </trkpt>
      <trkpt lat="42.4475030" lon="-2.4442430">
        <ele>396.6</ele>
        <time>2020-02-09T10:54:13Z</time>
      </trkpt>
      <trkpt lat="42.4474600" lon="-2.4443020">
        <ele>396.7</ele>
        <time>2020-02-09T10:54:14Z</time>
      </trkpt>
      <trkpt lat="42.4472720" lon="-2.4450160">
        <ele>398.0</ele>
        <time>2020-02-09T10:54:22Z</time>
      </trkpt>
      <trkpt lat="42.4472400" lon="-2.4450910">
        <ele>398.1</ele>
        <time>2020-02-09T10:54:23Z</time>
      </trkpt>
      <trkpt lat="42.4472050" lon="-2.4451580">
        <ele>398.2</ele>
        <time>2020-02-09T10:54:24Z</time>
      </trkpt>
      <trkpt lat="42.4471700" lon="-2.4451980">
        <ele>398.3</ele>
        <time>2020-02-09T10:54:25Z</time>
      </trkpt>
      <trkpt lat="42.4471530" lon="-2.4452510">
        <ele>398.4</ele>
        <time>2020-02-09T10:54:26Z</time>
      </trkpt>
      <trkpt lat="42.4471230" lon="-2.4453140">
        <ele>398.5</ele>
        <time>2020-02-09T10:54:27Z</time>
      </trkpt>
      <trkpt lat="42.4470940" lon="-2.4453780">
        <ele>398.6</ele>
        <time>2020-02-09T10:54:28Z</time>
      </trkpt>
      <trkpt lat="42.4471020" lon="-2.4454560">
        <ele>398.7</ele>
        <time>2020-02-09T10:54:29Z</time>
      </trkpt>
      <trkpt lat="42.4470730" lon="-2.4455300">
        <ele>398.8</ele>
        <time>2020-02-09T10:54:30Z</time>
      </trkpt>
      <trkpt lat="42.4470430" lon="-2.4456000">
        <ele>398.9</ele>
        <time>2020-02-09T10:54:31Z</time>
      </trkpt>
      <trkpt lat="42.4470130" lon="-2.4456700">
        <ele>399.0</ele>
        <time>2020-02-09T10:54:32Z</time>
      </trkpt>
      <trkpt lat="42.4469820" lon="-2.4457400">
        <ele>399.0</ele>
        <time>2020-02-09T10:54:33Z</time>
      </trkpt>
      <trkpt lat="42.4469500" lon="-2.4458100">
        <ele>399.1</ele>
        <time>2020-02-09T10:54:34Z</time>
      </trkpt>
      <trkpt lat="42.4469290" lon="-2.4458770">
        <ele>399.1</ele>
        <time>2020-02-09T10:54:35Z</time>
      </trkpt>
      <trkpt lat="42.4469050" lon="-2.4459450">
        <ele>399.2</ele>
        <time>2020-02-09T10:54:36Z</time>
      </trkpt>
      <trkpt lat="42.4468810" lon="-2.4460140">
        <ele>399.2</ele>
        <time>2020-02-09T10:54:37Z</time>
      </trkpt>
      <trkpt lat="42.4468590" lon="-2.4460830">
        <ele>399.3</ele>
        <time>2020-02-09T10:54:38Z</time>
      </trkpt>
      <trkpt lat="42.4468320" lon="-2.4461530">
        <ele>399.4</ele>
        <time>2020-02-09T10:54:39Z</time>
      </trkpt>
      <trkpt lat="42.4468110" lon="-2.4462230">
        <ele>399.5</ele>
        <time>2020-02-09T10:54:40Z</time>
      </trkpt>
      <trkpt lat="42.4467840" lon="-2.4462870">
        <ele>399.6</ele>
        <time>2020-02-09T10:54:41Z</time>
      </trkpt>
      <trkpt lat="42.4466840" lon="-2.4463260">
        <ele>399.8</ele>
        <time>2020-02-09T10:54:42Z</time>
      </trkpt>
      <trkpt lat="42.4466530" lon="-2.4463970">
        <ele>399.9</ele>
        <time>2020-02-09T10:54:43Z</time>
      </trkpt>
      <trkpt lat="42.4466220" lon="-2.4464680">
        <ele>400.0</ele>
        <time>2020-02-09T10:54:44Z</time>
      </trkpt>
      <trkpt lat="42.4465910" lon="-2.4465230">
        <ele>400.0</ele>
        <time>2020-02-09T10:54:45Z</time>
      </trkpt>
      <trkpt lat="42.4465580" lon="-2.4465980">
        <ele>400.1</ele>
        <time>2020-02-09T10:54:46Z</time>
      </trkpt>
      <trkpt lat="42.4465260" lon="-2.4466680">
        <ele>400.1</ele>
        <time>2020-02-09T10:54:47Z</time>
      </trkpt>
      <trkpt lat="42.4464990" lon="-2.4467380">
        <ele>400.2</ele>
        <time>2020-02-09T10:54:48Z</time>
      </trkpt>
      <trkpt lat="42.4464660" lon="-2.4468410">
        <ele>400.3</ele>
        <time>2020-02-09T10:54:49Z</time>
      </trkpt>
      <trkpt lat="42.4464310" lon="-2.4469050">
        <ele>400.3</ele>
        <time>2020-02-09T10:54:50Z</time>
      </trkpt>
      <trkpt lat="42.4464190" lon="-2.4469730">
        <ele>400.4</ele>
        <time>2020-02-09T10:54:51Z</time>
      </trkpt>
      <trkpt lat="42.4464120" lon="-2.4470510">
        <ele>400.5</ele>
        <time>2020-02-09T10:54:52Z</time>
      </trkpt>
      <trkpt lat="42.4463820" lon="-2.4471200">
        <ele>400.6</ele>
        <time>2020-02-09T10:54:53Z</time>
      </trkpt>
      <trkpt lat="42.4463710" lon="-2.4471910">
        <ele>400.7</ele>
        <time>2020-02-09T10:54:54Z</time>
      </trkpt>
      <trkpt lat="42.4463510" lon="-2.4472430">
        <ele>400.8</ele>
        <time>2020-02-09T10:54:55Z</time>
      </trkpt>
      <trkpt lat="42.4463280" lon="-2.4473150">
        <ele>400.9</ele>
        <time>2020-02-09T10:54:56Z</time>
      </trkpt>
      <trkpt lat="42.4462780" lon="-2.4473640">
        <ele>401.0</ele>
        <time>2020-02-09T10:54:57Z</time>
      </trkpt>
      <trkpt lat="42.4462410" lon="-2.4474470">
        <ele>401.1</ele>
        <time>2020-02-09T10:54:58Z</time>
      </trkpt>
      <trkpt lat="42.4462110" lon="-2.4475140">
        <ele>401.1</ele>
        <time>2020-02-09T10:54:59Z</time>
      </trkpt>
      <trkpt lat="42.4461820" lon="-2.4475830">
        <ele>401.2</ele>
        <time>2020-02-09T10:55:00Z</time>
      </trkpt>
      <trkpt lat="42.4461410" lon="-2.4476980">
        <ele>401.3</ele>
        <time>2020-02-09T10:55:01Z</time>
      </trkpt>
      <trkpt lat="42.4461100" lon="-2.4477730">
        <ele>401.3</ele>
        <time>2020-02-09T10:55:02Z</time>
      </trkpt>
      <trkpt lat="42.4460780" lon="-2.4478490">
        <ele>401.4</ele>
        <time>2020-02-09T10:55:03Z</time>
      </trkpt>
      <trkpt lat="42.4460430" lon="-2.4479070">
        <ele>401.5</ele>
        <time>2020-02-09T10:55:05Z</time>
      </trkpt>
      <trkpt lat="42.4460130" lon="-2.4479750">
        <ele>401.7</ele>
        <time>2020-02-09T10:55:06Z</time>
      </trkpt>
      <trkpt lat="42.4459760" lon="-2.4480460">
        <ele>401.8</ele>
        <time>2020-02-09T10:55:07Z</time>
      </trkpt>
      <trkpt lat="42.4459390" lon="-2.4481210">
        <ele>402.0</ele>
        <time>2020-02-09T10:55:08Z</time>
      </trkpt>
      <trkpt lat="42.4459440" lon="-2.4482270">
        <ele>402.1</ele>
        <time>2020-02-09T10:55:09Z</time>
      </trkpt>
      <trkpt lat="42.4459180" lon="-2.4483060">
        <ele>402.3</ele>
        <time>2020-02-09T10:55:10Z</time>
      </trkpt>
      <trkpt lat="42.4458930" lon="-2.4483860">
        <ele>402.4</ele>
        <time>2020-02-09T10:55:11Z</time>
      </trkpt>
      <trkpt lat="42.4458660" lon="-2.4484650">
        <ele>402.5</ele>
        <time>2020-02-09T10:55:12Z</time>
      </trkpt>
      <trkpt lat="42.4458400" lon="-2.4485460">
        <ele>402.6</ele>
        <time>2020-02-09T10:55:13Z</time>
      </trkpt>
      <trkpt lat="42.4458180" lon="-2.4486260">
        <ele>402.8</ele>
        <time>2020-02-09T10:55:14Z</time>
      </trkpt>
      <trkpt lat="42.4457270" lon="-2.4485560">
        <ele>402.9</ele>
        <time>2020-02-09T10:55:15Z</time>
      </trkpt>
      <trkpt lat="42.4456950" lon="-2.4486160">
        <ele>403.0</ele>
        <time>2020-02-09T10:55:16Z</time>
      </trkpt>
      <trkpt lat="42.4456620" lon="-2.4486760">
        <ele>403.1</ele>
        <time>2020-02-09T10:55:17Z</time>
      </trkpt>
      <trkpt lat="42.4456470" lon="-2.4487710">
        <ele>403.1</ele>
        <time>2020-02-09T10:55:18Z</time>
      </trkpt>
      <trkpt lat="42.4456160" lon="-2.4488410">
        <ele>403.1</ele>
        <time>2020-02-09T10:55:19Z</time>
      </trkpt>
      <trkpt lat="42.4455850" lon="-2.4489110">
        <ele>403.2</ele>
        <time>2020-02-09T10:55:20Z</time>
      </trkpt>
      <trkpt lat="42.4455610" lon="-2.4489690">
        <ele>403.2</ele>
        <time>2020-02-09T10:55:21Z</time>
      </trkpt>
      <trkpt lat="42.4455250" lon="-2.4490930">
        <ele>403.2</ele>
        <time>2020-02-09T10:55:22Z</time>
      </trkpt>
      <trkpt lat="42.4454980" lon="-2.4491710">
        <ele>403.3</ele>
        <time>2020-02-09T10:55:23Z</time>
      </trkpt>
      <trkpt lat="42.4454680" lon="-2.4492400">
        <ele>403.3</ele>
        <time>2020-02-09T10:55:24Z</time>
      </trkpt>
      <trkpt lat="42.4454340" lon="-2.4492940">
        <ele>403.4</ele>
        <time>2020-02-09T10:55:25Z</time>
      </trkpt>
      <trkpt lat="42.4454020" lon="-2.4493630">
        <ele>403.5</ele>
        <time>2020-02-09T10:55:26Z</time>
      </trkpt>
      <trkpt lat="42.4453670" lon="-2.4494320">
        <ele>403.6</ele>
        <time>2020-02-09T10:55:27Z</time>
      </trkpt>
      <trkpt lat="42.4453360" lon="-2.4495000">
        <ele>403.7</ele>
        <time>2020-02-09T10:55:28Z</time>
      </trkpt>
      <trkpt lat="42.4452980" lon="-2.4495650">
        <ele>403.8</ele>
        <time>2020-02-09T10:55:29Z</time>
      </trkpt>
      <trkpt lat="42.4452660" lon="-2.4496320">
        <ele>403.9</ele>
        <time>2020-02-09T10:55:30Z</time>
      </trkpt>
      <trkpt lat="42.4452360" lon="-2.4496900">
        <ele>404.0</ele>
        <time>2020-02-09T10:55:31Z</time>
      </trkpt>
      <trkpt lat="42.4452040" lon="-2.4497550">
        <ele>404.0</ele>
        <time>2020-02-09T10:55:32Z</time>
      </trkpt>
      <trkpt lat="42.4451760" lon="-2.4498150">
        <ele>404.1</ele>
        <time>2020-02-09T10:55:33Z</time>
      </trkpt>
      <trkpt lat="42.4451560" lon="-2.4498450">
        <ele>404.1</ele>
        <time>2020-02-09T10:55:34Z</time>
      </trkpt>
      <trkpt lat="42.4451110" lon="-2.4499030">
        <ele>404.1</ele>
        <time>2020-02-09T10:55:35Z</time>
      </trkpt>
      <trkpt lat="42.4450720" lon="-2.4499650">
        <ele>404.2</ele>
        <time>2020-02-09T10:55:36Z</time>
      </trkpt>
      <trkpt lat="42.4450400" lon="-2.4500230">
        <ele>404.2</ele>
        <time>2020-02-09T10:55:37Z</time>
      </trkpt>
      <trkpt lat="42.4450140" lon="-2.4501170">
        <ele>404.2</ele>
        <time>2020-02-09T10:55:39Z</time>
      </trkpt>
      <trkpt lat="42.4449920" lon="-2.4501710">
        <ele>404.2</ele>
        <time>2020-02-09T10:55:40Z</time>
      </trkpt>
      <trkpt lat="42.4449650" lon="-2.4502300">
        <ele>404.1</ele>
        <time>2020-02-09T10:55:41Z</time>
      </trkpt>
      <trkpt lat="42.4449380" lon="-2.4502890">
        <ele>404.1</ele>
        <time>2020-02-09T10:55:42Z</time>
      </trkpt>
      <trkpt lat="42.4449170" lon="-2.4503430">
        <ele>404.0</ele>
        <time>2020-02-09T10:55:43Z</time>
      </trkpt>
      <trkpt lat="42.4448900" lon="-2.4504020">
        <ele>404.0</ele>
        <time>2020-02-09T10:55:44Z</time>
      </trkpt>
      <trkpt lat="42.4448630" lon="-2.4504610">
        <ele>404.0</ele>
        <time>2020-02-09T10:55:45Z</time>
      </trkpt>
      <trkpt lat="42.4448360" lon="-2.4505200">
        <ele>404.0</ele>
        <time>2020-02-09T10:55:46Z</time>
      </trkpt>
      <trkpt lat="42.4448150" lon="-2.4505790">
        <ele>404.0</ele>
        <time>2020-02-09T10:55:47Z</time>
      </trkpt>
      <trkpt lat="42.4447560" lon="-2.4506910">
        <ele>404.1</ele>
        <time>2020-02-09T10:55:48Z</time>
      </trkpt>
      <trkpt lat="42.4447310" lon="-2.4507420">
        <ele>404.1</ele>
        <time>2020-02-09T10:55:49Z</time>
      </trkpt>
      <trkpt lat="42.4447450" lon="-2.4508060">
        <ele>404.2</ele>
        <time>2020-02-09T10:55:50Z</time>
      </trkpt>
      <trkpt lat="42.4447630" lon="-2.4508510">
        <ele>404.2</ele>
        <time>2020-02-09T10:55:51Z</time>
      </trkpt>
      <trkpt lat="42.4447760" lon="-2.4508980">
        <ele>404.3</ele>
        <time>2020-02-09T10:55:52Z</time>
      </trkpt>
      <trkpt lat="42.4447890" lon="-2.4509450">
        <ele>404.2</ele>
        <time>2020-02-09T10:55:53Z</time>
      </trkpt>
      <trkpt lat="42.4448280" lon="-2.4510110">
        <ele>404.3</ele>
        <time>2020-02-09T10:55:55Z</time>
      </trkpt>
      <trkpt lat="42.4448160" lon="-2.4510440">
        <ele>404.3</ele>
        <time>2020-02-09T10:55:56Z</time>
      </trkpt>
      <trkpt lat="42.4448250" lon="-2.4511070">
        <ele>404.4</ele>
        <time>2020-02-09T10:55:57Z</time>
      </trkpt>
      <trkpt lat="42.4448310" lon="-2.4512030">
        <ele>404.6</ele>
        <time>2020-02-09T10:55:58Z</time>
      </trkpt>
      <trkpt lat="42.4447390" lon="-2.4512530">
        <ele>404.8</ele>
        <time>2020-02-09T10:55:59Z</time>
      </trkpt>
      <trkpt lat="42.4446960" lon="-2.4512910">
        <ele>404.9</ele>
        <time>2020-02-09T10:56:00Z</time>
      </trkpt>
      <trkpt lat="42.4446420" lon="-2.4513290">
        <ele>405.0</ele>
        <time>2020-02-09T10:56:01Z</time>
      </trkpt>
      <trkpt lat="42.4445990" lon="-2.4513010">
        <ele>405.0</ele>
        <time>2020-02-09T10:56:02Z</time>
      </trkpt>
      <trkpt lat="42.4445640" lon="-2.4512500">
        <ele>405.1</ele>
        <time>2020-02-09T10:56:03Z</time>
      </trkpt>
      <trkpt lat="42.4445170" lon="-2.4512270">
        <ele>405.2</ele>
        <time>2020-02-09T10:56:04Z</time>
      </trkpt>
      <trkpt lat="42.4444700" lon="-2.4512120">
        <ele>405.3</ele>
        <time>2020-02-09T10:56:05Z</time>
      </trkpt>
      <trkpt lat="42.4444100" lon="-2.4512220">
        <ele>405.5</ele>
        <time>2020-02-09T10:56:06Z</time>
      </trkpt>
      <trkpt lat="42.4443490" lon="-2.4512190">
        <ele>405.6</ele>
        <time>2020-02-09T10:56:07Z</time>
      </trkpt>
      <trkpt lat="42.4442970" lon="-2.4512280">
        <ele>405.6</ele>
        <time>2020-02-09T10:56:08Z</time>
      </trkpt>
      <trkpt lat="42.4442420" lon="-2.4512360">
        <ele>405.6</ele>
        <time>2020-02-09T10:56:09Z</time>
      </trkpt>
      <trkpt lat="42.4441870" lon="-2.4512500">
        <ele>405.6</ele>
        <time>2020-02-09T10:56:10Z</time>
      </trkpt>
      <trkpt lat="42.4441270" lon="-2.4512660">
        <ele>405.7</ele>
        <time>2020-02-09T10:56:11Z</time>
      </trkpt>
      <trkpt lat="42.4440700" lon="-2.4512580">
        <ele>405.7</ele>
        <time>2020-02-09T10:56:12Z</time>
      </trkpt>
      <trkpt lat="42.4440180" lon="-2.4512830">
        <ele>405.7</ele>
        <time>2020-02-09T10:56:13Z</time>
      </trkpt>
      <trkpt lat="42.4439580" lon="-2.4513020">
        <ele>405.9</ele>
        <time>2020-02-09T10:56:14Z</time>
      </trkpt>
      <trkpt lat="42.4439030" lon="-2.4513220">
        <ele>406.0</ele>
        <time>2020-02-09T10:56:15Z</time>
      </trkpt>
      <trkpt lat="42.4438530" lon="-2.4513500">
        <ele>406.1</ele>
        <time>2020-02-09T10:56:16Z</time>
      </trkpt>
      <trkpt lat="42.4437970" lon="-2.4513710">
        <ele>406.1</ele>
        <time>2020-02-09T10:56:17Z</time>
      </trkpt>
      <trkpt lat="42.4437410" lon="-2.4513760">
        <ele>406.2</ele>
        <time>2020-02-09T10:56:18Z</time>
      </trkpt>
      <trkpt lat="42.4436930" lon="-2.4513920">
        <ele>406.3</ele>
        <time>2020-02-09T10:56:19Z</time>
      </trkpt>
      <trkpt lat="42.4436360" lon="-2.4514110">
        <ele>406.3</ele>
        <time>2020-02-09T10:56:20Z</time>
      </trkpt>
      <trkpt lat="42.4435610" lon="-2.4514220">
        <ele>406.4</ele>
        <time>2020-02-09T10:56:21Z</time>
      </trkpt>
      <trkpt lat="42.4435190" lon="-2.4514220">
        <ele>406.4</ele>
        <time>2020-02-09T10:56:22Z</time>
      </trkpt>
      <trkpt lat="42.4434640" lon="-2.4514360">
        <ele>406.4</ele>
        <time>2020-02-09T10:56:23Z</time>
      </trkpt>
      <trkpt lat="42.4434170" lon="-2.4514300">
        <ele>406.4</ele>
        <time>2020-02-09T10:56:24Z</time>
      </trkpt>
      <trkpt lat="42.4433690" lon="-2.4514400">
        <ele>406.4</ele>
        <time>2020-02-09T10:56:25Z</time>
      </trkpt>
      <trkpt lat="42.4433170" lon="-2.4514360">
        <ele>406.4</ele>
        <time>2020-02-09T10:56:26Z</time>
      </trkpt>
      <trkpt lat="42.4432760" lon="-2.4514630">
        <ele>406.4</ele>
        <time>2020-02-09T10:56:27Z</time>
      </trkpt>
      <trkpt lat="42.4432290" lon="-2.4514760">
        <ele>406.4</ele>
        <time>2020-02-09T10:56:28Z</time>
      </trkpt>
      <trkpt lat="42.4431840" lon="-2.4514910">
        <ele>406.5</ele>
        <time>2020-02-09T10:56:29Z</time>
      </trkpt>
      <trkpt lat="42.4431180" lon="-2.4515800">
        <ele>406.5</ele>
        <time>2020-02-09T10:56:30Z</time>
      </trkpt>
      <trkpt lat="42.4430740" lon="-2.4515730">
        <ele>406.5</ele>
        <time>2020-02-09T10:56:31Z</time>
      </trkpt>
      <trkpt lat="42.4430200" lon="-2.4515900">
        <ele>406.6</ele>
        <time>2020-02-09T10:56:32Z</time>
      </trkpt>
      <trkpt lat="42.4429670" lon="-2.4516070">
        <ele>406.7</ele>
        <time>2020-02-09T10:56:33Z</time>
      </trkpt>
      <trkpt lat="42.4428840" lon="-2.4516120">
        <ele>406.8</ele>
        <time>2020-02-09T10:56:34Z</time>
      </trkpt>
      <trkpt lat="42.4428380" lon="-2.4516250">
        <ele>406.8</ele>
        <time>2020-02-09T10:56:35Z</time>
      </trkpt>
      <trkpt lat="42.4427860" lon="-2.4516400">
        <ele>406.9</ele>
        <time>2020-02-09T10:56:36Z</time>
      </trkpt>
      <trkpt lat="42.4427190" lon="-2.4516790">
        <ele>407.0</ele>
        <time>2020-02-09T10:56:37Z</time>
      </trkpt>
      <trkpt lat="42.4426790" lon="-2.4516830">
        <ele>407.1</ele>
        <time>2020-02-09T10:56:38Z</time>
      </trkpt>
      <trkpt lat="42.4426280" lon="-2.4517020">
        <ele>407.1</ele>
        <time>2020-02-09T10:56:39Z</time>
      </trkpt>
      <trkpt lat="42.4425670" lon="-2.4517230">
        <ele>407.2</ele>
        <time>2020-02-09T10:56:40Z</time>
      </trkpt>
      <trkpt lat="42.4425070" lon="-2.4517410">
        <ele>407.2</ele>
        <time>2020-02-09T10:56:41Z</time>
      </trkpt>
      <trkpt lat="42.4424520" lon="-2.4517670">
        <ele>407.2</ele>
        <time>2020-02-09T10:56:42Z</time>
      </trkpt>
      <trkpt lat="42.4423890" lon="-2.4517830">
        <ele>407.2</ele>
        <time>2020-02-09T10:56:43Z</time>
      </trkpt>
      <trkpt lat="42.4423310" lon="-2.4518010">
        <ele>407.2</ele>
        <time>2020-02-09T10:56:44Z</time>
      </trkpt>
      <trkpt lat="42.4422700" lon="-2.4518010">
        <ele>407.2</ele>
        <time>2020-02-09T10:56:45Z</time>
      </trkpt>
      <trkpt lat="42.4422070" lon="-2.4518240">
        <ele>407.2</ele>
        <time>2020-02-09T10:56:46Z</time>
      </trkpt>
      <trkpt lat="42.4421490" lon="-2.4518410">
        <ele>407.2</ele>
        <time>2020-02-09T10:56:47Z</time>
      </trkpt>
      <trkpt lat="42.4421040" lon="-2.4518720">
        <ele>407.4</ele>
        <time>2020-02-09T10:56:48Z</time>
      </trkpt>
      <trkpt lat="42.4420490" lon="-2.4518930">
        <ele>407.5</ele>
        <time>2020-02-09T10:56:49Z</time>
      </trkpt>
      <trkpt lat="42.4419920" lon="-2.4519100">
        <ele>407.7</ele>
        <time>2020-02-09T10:56:50Z</time>
      </trkpt>
      <trkpt lat="42.4419280" lon="-2.4519270">
        <ele>407.9</ele>
        <time>2020-02-09T10:56:51Z</time>
      </trkpt>
      <trkpt lat="42.4418810" lon="-2.4519540">
        <ele>408.0</ele>
        <time>2020-02-09T10:56:52Z</time>
      </trkpt>
      <trkpt lat="42.4418250" lon="-2.4519740">
        <ele>408.1</ele>
        <time>2020-02-09T10:56:53Z</time>
      </trkpt>
      <trkpt lat="42.4417680" lon="-2.4520120">
        <ele>408.1</ele>
        <time>2020-02-09T10:56:54Z</time>
      </trkpt>
      <trkpt lat="42.4417120" lon="-2.4520350">
        <ele>408.1</ele>
        <time>2020-02-09T10:56:55Z</time>
      </trkpt>
      <trkpt lat="42.4416620" lon="-2.4520110">
        <ele>408.1</ele>
        <time>2020-02-09T10:56:56Z</time>
      </trkpt>
      <trkpt lat="42.4416060" lon="-2.4520230">
        <ele>408.2</ele>
        <time>2020-02-09T10:56:57Z</time>
      </trkpt>
      <trkpt lat="42.4415630" lon="-2.4520490">
        <ele>408.2</ele>
        <time>2020-02-09T10:56:58Z</time>
      </trkpt>
      <trkpt lat="42.4414850" lon="-2.4520500">
        <ele>408.3</ele>
        <time>2020-02-09T10:56:59Z</time>
      </trkpt>
      <trkpt lat="42.4414270" lon="-2.4520660">
        <ele>408.4</ele>
        <time>2020-02-09T10:57:00Z</time>
      </trkpt>
      <trkpt lat="42.4413690" lon="-2.4520820">
        <ele>408.5</ele>
        <time>2020-02-09T10:57:01Z</time>
      </trkpt>
      <trkpt lat="42.4413120" lon="-2.4520970">
        <ele>408.7</ele>
        <time>2020-02-09T10:57:02Z</time>
      </trkpt>
      <trkpt lat="42.4412530" lon="-2.4521130">
        <ele>408.8</ele>
        <time>2020-02-09T10:57:03Z</time>
      </trkpt>
      <trkpt lat="42.4411800" lon="-2.4521130">
        <ele>409.0</ele>
        <time>2020-02-09T10:57:04Z</time>
      </trkpt>
      <trkpt lat="42.4411180" lon="-2.4521220">
        <ele>409.1</ele>
        <time>2020-02-09T10:57:05Z</time>
      </trkpt>
      <trkpt lat="42.4410590" lon="-2.4521390">
        <ele>409.2</ele>
        <time>2020-02-09T10:57:06Z</time>
      </trkpt>
      <trkpt lat="42.4410010" lon="-2.4521470">
        <ele>409.3</ele>
        <time>2020-02-09T10:57:07Z</time>
      </trkpt>
      <trkpt lat="42.4409420" lon="-2.4521610">
        <ele>409.5</ele>
        <time>2020-02-09T10:57:08Z</time>
      </trkpt>
      <trkpt lat="42.4408860" lon="-2.4521800">
        <ele>409.7</ele>
        <time>2020-02-09T10:57:09Z</time>
      </trkpt>
      <trkpt lat="42.4408290" lon="-2.4521930">
        <ele>409.8</ele>
        <time>2020-02-09T10:57:10Z</time>
      </trkpt>
      <trkpt lat="42.4407700" lon="-2.4522100">
        <ele>410.0</ele>
        <time>2020-02-09T10:57:11Z</time>
      </trkpt>
      <trkpt lat="42.4407170" lon="-2.4522260">
        <ele>410.0</ele>
        <time>2020-02-09T10:57:12Z</time>
      </trkpt>
      <trkpt lat="42.4406710" lon="-2.4522730">
        <ele>410.1</ele>
        <time>2020-02-09T10:57:13Z</time>
      </trkpt>
      <trkpt lat="42.4406020" lon="-2.4522970">
        <ele>410.2</ele>
        <time>2020-02-09T10:57:14Z</time>
      </trkpt>
      <trkpt lat="42.4405350" lon="-2.4523150">
        <ele>410.2</ele>
        <time>2020-02-09T10:57:15Z</time>
      </trkpt>
      <trkpt lat="42.4404800" lon="-2.4523270">
        <ele>410.2</ele>
        <time>2020-02-09T10:57:16Z</time>
      </trkpt>
      <trkpt lat="42.4404150" lon="-2.4523610">
        <ele>410.2</ele>
        <time>2020-02-09T10:57:17Z</time>
      </trkpt>
      <trkpt lat="42.4403580" lon="-2.4523770">
        <ele>410.1</ele>
        <time>2020-02-09T10:57:18Z</time>
      </trkpt>
      <trkpt lat="42.4403080" lon="-2.4523840">
        <ele>410.1</ele>
        <time>2020-02-09T10:57:19Z</time>
      </trkpt>
      <trkpt lat="42.4402490" lon="-2.4524050">
        <ele>410.1</ele>
        <time>2020-02-09T10:57:20Z</time>
      </trkpt>
      <trkpt lat="42.4401890" lon="-2.4524340">
        <ele>410.2</ele>
        <time>2020-02-09T10:57:21Z</time>
      </trkpt>
      <trkpt lat="42.4401380" lon="-2.4524560">
        <ele>410.2</ele>
        <time>2020-02-09T10:57:22Z</time>
      </trkpt>
      <trkpt lat="42.4400810" lon="-2.4524780">
        <ele>410.2</ele>
        <time>2020-02-09T10:57:23Z</time>
      </trkpt>
      <trkpt lat="42.4400270" lon="-2.4524980">
        <ele>410.3</ele>
        <time>2020-02-09T10:57:24Z</time>
      </trkpt>
      <trkpt lat="42.4399630" lon="-2.4525200">
        <ele>410.4</ele>
        <time>2020-02-09T10:57:25Z</time>
      </trkpt>
      <trkpt lat="42.4399070" lon="-2.4525420">
        <ele>410.5</ele>
        <time>2020-02-09T10:57:26Z</time>
      </trkpt>
      <trkpt lat="42.4398420" lon="-2.4525530">
        <ele>410.7</ele>
        <time>2020-02-09T10:57:27Z</time>
      </trkpt>
      <trkpt lat="42.4397880" lon="-2.4525700">
        <ele>410.9</ele>
        <time>2020-02-09T10:57:28Z</time>
      </trkpt>
      <trkpt lat="42.4397290" lon="-2.4525820">
        <ele>411.0</ele>
        <time>2020-02-09T10:57:29Z</time>
      </trkpt>
      <trkpt lat="42.4396720" lon="-2.4526020">
        <ele>411.2</ele>
        <time>2020-02-09T10:57:30Z</time>
      </trkpt>
      <trkpt lat="42.4396120" lon="-2.4526240">
        <ele>411.2</ele>
        <time>2020-02-09T10:57:31Z</time>
      </trkpt>
      <trkpt lat="42.4395550" lon="-2.4526420">
        <ele>411.3</ele>
        <time>2020-02-09T10:57:32Z</time>
      </trkpt>
      <trkpt lat="42.4394990" lon="-2.4526580">
        <ele>411.3</ele>
        <time>2020-02-09T10:57:33Z</time>
      </trkpt>
      <trkpt lat="42.4394460" lon="-2.4526770">
        <ele>411.3</ele>
        <time>2020-02-09T10:57:34Z</time>
      </trkpt>
      <trkpt lat="42.4393860" lon="-2.4526990">
        <ele>411.4</ele>
        <time>2020-02-09T10:57:35Z</time>
      </trkpt>
      <trkpt lat="42.4393280" lon="-2.4527180">
        <ele>411.4</ele>
        <time>2020-02-09T10:57:36Z</time>
      </trkpt>
      <trkpt lat="42.4392650" lon="-2.4527270">
        <ele>411.4</ele>
        <time>2020-02-09T10:57:37Z</time>
      </trkpt>
      <trkpt lat="42.4392100" lon="-2.4527400">
        <ele>411.4</ele>
        <time>2020-02-09T10:57:38Z</time>
      </trkpt>
      <trkpt lat="42.4391560" lon="-2.4527570">
        <ele>411.4</ele>
        <time>2020-02-09T10:57:39Z</time>
      </trkpt>
      <trkpt lat="42.4390920" lon="-2.4527720">
        <ele>411.4</ele>
        <time>2020-02-09T10:57:40Z</time>
      </trkpt>
      <trkpt lat="42.4390300" lon="-2.4527860">
        <ele>411.4</ele>
        <time>2020-02-09T10:57:41Z</time>
      </trkpt>
      <trkpt lat="42.4389760" lon="-2.4528130">
        <ele>411.5</ele>
        <time>2020-02-09T10:57:42Z</time>
      </trkpt>
      <trkpt lat="42.4389160" lon="-2.4528270">
        <ele>411.5</ele>
        <time>2020-02-09T10:57:43Z</time>
      </trkpt>
      <trkpt lat="42.4388550" lon="-2.4528480">
        <ele>411.5</ele>
        <time>2020-02-09T10:57:44Z</time>
      </trkpt>
      <trkpt lat="42.4388010" lon="-2.4528670">
        <ele>411.5</ele>
        <time>2020-02-09T10:57:45Z</time>
      </trkpt>
      <trkpt lat="42.4387430" lon="-2.4528770">
        <ele>411.5</ele>
        <time>2020-02-09T10:57:46Z</time>
      </trkpt>
      <trkpt lat="42.4386900" lon="-2.4528890">
        <ele>411.5</ele>
        <time>2020-02-09T10:57:47Z</time>
      </trkpt>
      <trkpt lat="42.4386330" lon="-2.4529030">
        <ele>411.5</ele>
        <time>2020-02-09T10:57:48Z</time>
      </trkpt>
      <trkpt lat="42.4385760" lon="-2.4529180">
        <ele>411.5</ele>
        <time>2020-02-09T10:57:49Z</time>
      </trkpt>
      <trkpt lat="42.4385160" lon="-2.4529280">
        <ele>411.5</ele>
        <time>2020-02-09T10:57:50Z</time>
      </trkpt>
      <trkpt lat="42.4384720" lon="-2.4529520">
        <ele>411.5</ele>
        <time>2020-02-09T10:57:51Z</time>
      </trkpt>
      <trkpt lat="42.4384140" lon="-2.4529670">
        <ele>411.5</ele>
        <time>2020-02-09T10:57:52Z</time>
      </trkpt>
      <trkpt lat="42.4383560" lon="-2.4529820">
        <ele>411.6</ele>
        <time>2020-02-09T10:57:53Z</time>
      </trkpt>
      <trkpt lat="42.4383900" lon="-2.4529620">
        <ele>411.6</ele>
        <time>2020-02-09T10:57:54Z</time>
      </trkpt>
      <trkpt lat="42.4383360" lon="-2.4529870">
        <ele>411.7</ele>
        <time>2020-02-09T10:57:56Z</time>
      </trkpt>
      <trkpt lat="42.4382810" lon="-2.4530090">
        <ele>411.7</ele>
        <time>2020-02-09T10:57:57Z</time>
      </trkpt>
      <trkpt lat="42.4381480" lon="-2.4530640">
        <ele>412.0</ele>
        <time>2020-02-09T10:57:58Z</time>
      </trkpt>
      <trkpt lat="42.4380700" lon="-2.4531010">
        <ele>412.2</ele>
        <time>2020-02-09T10:57:59Z</time>
      </trkpt>
      <trkpt lat="42.4380010" lon="-2.4531190">
        <ele>412.3</ele>
        <time>2020-02-09T10:58:00Z</time>
      </trkpt>
      <trkpt lat="42.4379310" lon="-2.4531860">
        <ele>412.5</ele>
        <time>2020-02-09T10:58:01Z</time>
      </trkpt>
      <trkpt lat="42.4378970" lon="-2.4532180">
        <ele>412.6</ele>
        <time>2020-02-09T10:58:02Z</time>
      </trkpt>
      <trkpt lat="42.4378710" lon="-2.4532740">
        <ele>412.6</ele>
        <time>2020-02-09T10:58:03Z</time>
      </trkpt>
      <trkpt lat="42.4378400" lon="-2.4533110">
        <ele>412.6</ele>
        <time>2020-02-09T10:58:04Z</time>
      </trkpt>
      <trkpt lat="42.4378020" lon="-2.4533620">
        <ele>412.6</ele>
        <time>2020-02-09T10:58:05Z</time>
      </trkpt>
      <trkpt lat="42.4377660" lon="-2.4533900">
        <ele>412.5</ele>
        <time>2020-02-09T10:58:06Z</time>
      </trkpt>
      <trkpt lat="42.4377280" lon="-2.4534090">
        <ele>412.5</ele>
        <time>2020-02-09T10:58:07Z</time>
      </trkpt>
      <trkpt lat="42.4376890" lon="-2.4534080">
        <ele>412.5</ele>
        <time>2020-02-09T10:58:08Z</time>
      </trkpt>
      <trkpt lat="42.4376480" lon="-2.4534190">
        <ele>412.5</ele>
        <time>2020-02-09T10:58:09Z</time>
      </trkpt>
      <trkpt lat="42.4376110" lon="-2.4534220">
        <ele>412.6</ele>
        <time>2020-02-09T10:58:10Z</time>
      </trkpt>
      <trkpt lat="42.4375620" lon="-2.4533900">
        <ele>412.7</ele>
        <time>2020-02-09T10:58:11Z</time>
      </trkpt>
      <trkpt lat="42.4375130" lon="-2.4533520">
        <ele>412.8</ele>
        <time>2020-02-09T10:58:12Z</time>
      </trkpt>
      <trkpt lat="42.4374730" lon="-2.4533310">
        <ele>412.8</ele>
        <time>2020-02-09T10:58:13Z</time>
      </trkpt>
      <trkpt lat="42.4374240" lon="-2.4533260">
        <ele>412.8</ele>
        <time>2020-02-09T10:58:14Z</time>
      </trkpt>
      <trkpt lat="42.4373820" lon="-2.4533440">
        <ele>412.8</ele>
        <time>2020-02-09T10:58:15Z</time>
      </trkpt>
      <trkpt lat="42.4373380" lon="-2.4533490">
        <ele>412.8</ele>
        <time>2020-02-09T10:58:16Z</time>
      </trkpt>
      <trkpt lat="42.4372890" lon="-2.4533470">
        <ele>412.8</ele>
        <time>2020-02-09T10:58:17Z</time>
      </trkpt>
      <trkpt lat="42.4372310" lon="-2.4533660">
        <ele>412.9</ele>
        <time>2020-02-09T10:58:18Z</time>
      </trkpt>
      <trkpt lat="42.4371840" lon="-2.4533740">
        <ele>412.9</ele>
        <time>2020-02-09T10:58:19Z</time>
      </trkpt>
      <trkpt lat="42.4371330" lon="-2.4533900">
        <ele>413.0</ele>
        <time>2020-02-09T10:58:20Z</time>
      </trkpt>
      <trkpt lat="42.4370830" lon="-2.4534060">
        <ele>413.1</ele>
        <time>2020-02-09T10:58:21Z</time>
      </trkpt>
      <trkpt lat="42.4370310" lon="-2.4534220">
        <ele>413.2</ele>
        <time>2020-02-09T10:58:22Z</time>
      </trkpt>
      <trkpt lat="42.4369830" lon="-2.4534380">
        <ele>413.4</ele>
        <time>2020-02-09T10:58:23Z</time>
      </trkpt>
      <trkpt lat="42.4369290" lon="-2.4534540">
        <ele>413.5</ele>
        <time>2020-02-09T10:58:24Z</time>
      </trkpt>
      <trkpt lat="42.4368810" lon="-2.4534700">
        <ele>413.6</ele>
        <time>2020-02-09T10:58:25Z</time>
      </trkpt>
      <trkpt lat="42.4368320" lon="-2.4533950">
        <ele>413.8</ele>
        <time>2020-02-09T10:58:26Z</time>
      </trkpt>
      <trkpt lat="42.4367800" lon="-2.4533950">
        <ele>413.9</ele>
        <time>2020-02-09T10:58:27Z</time>
      </trkpt>
      <trkpt lat="42.4367200" lon="-2.4534970">
        <ele>414.0</ele>
        <time>2020-02-09T10:58:28Z</time>
      </trkpt>
      <trkpt lat="42.4366640" lon="-2.4535190">
        <ele>414.0</ele>
        <time>2020-02-09T10:58:29Z</time>
      </trkpt>
      <trkpt lat="42.4366210" lon="-2.4535270">
        <ele>414.0</ele>
        <time>2020-02-09T10:58:30Z</time>
      </trkpt>
      <trkpt lat="42.4365650" lon="-2.4535460">
        <ele>414.1</ele>
        <time>2020-02-09T10:58:31Z</time>
      </trkpt>
      <trkpt lat="42.4365160" lon="-2.4535620">
        <ele>414.1</ele>
        <time>2020-02-09T10:58:32Z</time>
      </trkpt>
      <trkpt lat="42.4364620" lon="-2.4535500">
        <ele>414.2</ele>
        <time>2020-02-09T10:58:33Z</time>
      </trkpt>
      <trkpt lat="42.4364090" lon="-2.4535610">
        <ele>414.3</ele>
        <time>2020-02-09T10:58:34Z</time>
      </trkpt>
      <trkpt lat="42.4363610" lon="-2.4535720">
        <ele>414.3</ele>
        <time>2020-02-09T10:58:35Z</time>
      </trkpt>
      <trkpt lat="42.4363030" lon="-2.4536100">
        <ele>414.5</ele>
        <time>2020-02-09T10:58:36Z</time>
      </trkpt>
      <trkpt lat="42.4362720" lon="-2.4536340">
        <ele>414.6</ele>
        <time>2020-02-09T10:58:37Z</time>
      </trkpt>
      <trkpt lat="42.4362070" lon="-2.4536680">
        <ele>414.7</ele>
        <time>2020-02-09T10:58:38Z</time>
      </trkpt>
      <trkpt lat="42.4361380" lon="-2.4537190">
        <ele>414.9</ele>
        <time>2020-02-09T10:58:39Z</time>
      </trkpt>
      <trkpt lat="42.4360820" lon="-2.4537330">
        <ele>415.0</ele>
        <time>2020-02-09T10:58:40Z</time>
      </trkpt>
      <trkpt lat="42.4360300" lon="-2.4537590">
        <ele>415.1</ele>
        <time>2020-02-09T10:58:41Z</time>
      </trkpt>
      <trkpt lat="42.4359740" lon="-2.4537810">
        <ele>415.1</ele>
        <time>2020-02-09T10:58:42Z</time>
      </trkpt>
      <trkpt lat="42.4359210" lon="-2.4538030">
        <ele>415.2</ele>
        <time>2020-02-09T10:58:43Z</time>
      </trkpt>
      <trkpt lat="42.4358670" lon="-2.4538190">
        <ele>415.2</ele>
        <time>2020-02-09T10:58:44Z</time>
      </trkpt>
      <trkpt lat="42.4358080" lon="-2.4538400">
        <ele>415.2</ele>
        <time>2020-02-09T10:58:45Z</time>
      </trkpt>
      <trkpt lat="42.4357550" lon="-2.4538620">
        <ele>415.2</ele>
        <time>2020-02-09T10:58:46Z</time>
      </trkpt>
      <trkpt lat="42.4357010" lon="-2.4538780">
        <ele>415.2</ele>
        <time>2020-02-09T10:58:47Z</time>
      </trkpt>
      <trkpt lat="42.4356240" lon="-2.4538390">
        <ele>415.3</ele>
        <time>2020-02-09T10:58:48Z</time>
      </trkpt>
      <trkpt lat="42.4355620" lon="-2.4538820">
        <ele>415.3</ele>
        <time>2020-02-09T10:58:49Z</time>
      </trkpt>
      <trkpt lat="42.4355050" lon="-2.4539130">
        <ele>415.3</ele>
        <time>2020-02-09T10:58:50Z</time>
      </trkpt>
      <trkpt lat="42.4354480" lon="-2.4539320">
        <ele>415.3</ele>
        <time>2020-02-09T10:58:51Z</time>
      </trkpt>
      <trkpt lat="42.4353900" lon="-2.4539530">
        <ele>415.5</ele>
        <time>2020-02-09T10:58:52Z</time>
      </trkpt>
      <trkpt lat="42.4353290" lon="-2.4539520">
        <ele>415.6</ele>
        <time>2020-02-09T10:58:53Z</time>
      </trkpt>
      <trkpt lat="42.4352760" lon="-2.4539770">
        <ele>415.8</ele>
        <time>2020-02-09T10:58:54Z</time>
      </trkpt>
      <trkpt lat="42.4352210" lon="-2.4539950">
        <ele>415.9</ele>
        <time>2020-02-09T10:58:55Z</time>
      </trkpt>
      <trkpt lat="42.4351720" lon="-2.4540360">
        <ele>416.1</ele>
        <time>2020-02-09T10:58:56Z</time>
      </trkpt>
      <trkpt lat="42.4351190" lon="-2.4540580">
        <ele>416.2</ele>
        <time>2020-02-09T10:58:57Z</time>
      </trkpt>
      <trkpt lat="42.4350510" lon="-2.4540640">
        <ele>416.2</ele>
        <time>2020-02-09T10:58:58Z</time>
      </trkpt>
      <trkpt lat="42.4350200" lon="-2.4540630">
        <ele>416.2</ele>
        <time>2020-02-09T10:58:59Z</time>
      </trkpt>
      <trkpt lat="42.4349680" lon="-2.4540850">
        <ele>416.2</ele>
        <time>2020-02-09T10:59:00Z</time>
      </trkpt>
      <trkpt lat="42.4349160" lon="-2.4540880">
        <ele>416.2</ele>
        <time>2020-02-09T10:59:01Z</time>
      </trkpt>
      <trkpt lat="42.4348640" lon="-2.4541050">
        <ele>416.2</ele>
        <time>2020-02-09T10:59:02Z</time>
      </trkpt>
      <trkpt lat="42.4348160" lon="-2.4541190">
        <ele>416.2</ele>
        <time>2020-02-09T10:59:03Z</time>
      </trkpt>
      <trkpt lat="42.4347770" lon="-2.4541310">
        <ele>416.2</ele>
        <time>2020-02-09T10:59:04Z</time>
      </trkpt>
      <trkpt lat="42.4347300" lon="-2.4541460">
        <ele>416.2</ele>
        <time>2020-02-09T10:59:05Z</time>
      </trkpt>
      <trkpt lat="42.4346820" lon="-2.4541770">
        <ele>416.2</ele>
        <time>2020-02-09T10:59:06Z</time>
      </trkpt>
      <trkpt lat="42.4346300" lon="-2.4542000">
        <ele>416.3</ele>
        <time>2020-02-09T10:59:07Z</time>
      </trkpt>
      <trkpt lat="42.4345820" lon="-2.4542160">
        <ele>416.3</ele>
        <time>2020-02-09T10:59:08Z</time>
      </trkpt>
      <trkpt lat="42.4345350" lon="-2.4542320">
        <ele>416.4</ele>
        <time>2020-02-09T10:59:09Z</time>
      </trkpt>
      <trkpt lat="42.4344960" lon="-2.4542290">
        <ele>416.5</ele>
        <time>2020-02-09T10:59:10Z</time>
      </trkpt>
      <trkpt lat="42.4344480" lon="-2.4542210">
        <ele>416.6</ele>
        <time>2020-02-09T10:59:11Z</time>
      </trkpt>
      <trkpt lat="42.4344020" lon="-2.4542360">
        <ele>416.7</ele>
        <time>2020-02-09T10:59:12Z</time>
      </trkpt>
      <trkpt lat="42.4343610" lon="-2.4542640">
        <ele>416.7</ele>
        <time>2020-02-09T10:59:13Z</time>
      </trkpt>
      <trkpt lat="42.4343150" lon="-2.4542810">
        <ele>416.8</ele>
        <time>2020-02-09T10:59:14Z</time>
      </trkpt>
      <trkpt lat="42.4342710" lon="-2.4543130">
        <ele>416.9</ele>
        <time>2020-02-09T10:59:15Z</time>
      </trkpt>
      <trkpt lat="42.4342250" lon="-2.4543310">
        <ele>416.9</ele>
        <time>2020-02-09T10:59:16Z</time>
      </trkpt>
      <trkpt lat="42.4341780" lon="-2.4543480">
        <ele>417.0</ele>
        <time>2020-02-09T10:59:17Z</time>
      </trkpt>
      <trkpt lat="42.4341140" lon="-2.4543860">
        <ele>417.0</ele>
        <time>2020-02-09T10:59:18Z</time>
      </trkpt>
      <trkpt lat="42.4340660" lon="-2.4544030">
        <ele>417.0</ele>
        <time>2020-02-09T10:59:19Z</time>
      </trkpt>
      <trkpt lat="42.4340180" lon="-2.4544190">
        <ele>417.1</ele>
        <time>2020-02-09T10:59:20Z</time>
      </trkpt>
      <trkpt lat="42.4339680" lon="-2.4544410">
        <ele>417.1</ele>
        <time>2020-02-09T10:59:21Z</time>
      </trkpt>
      <trkpt lat="42.4339200" lon="-2.4544570">
        <ele>417.1</ele>
        <time>2020-02-09T10:59:22Z</time>
      </trkpt>
      <trkpt lat="42.4338770" lon="-2.4544730">
        <ele>417.1</ele>
        <time>2020-02-09T10:59:23Z</time>
      </trkpt>
      <trkpt lat="42.4338290" lon="-2.4544890">
        <ele>417.0</ele>
        <time>2020-02-09T10:59:24Z</time>
      </trkpt>
      <trkpt lat="42.4337800" lon="-2.4545060">
        <ele>417.0</ele>
        <time>2020-02-09T10:59:25Z</time>
      </trkpt>
      <trkpt lat="42.4337320" lon="-2.4545220">
        <ele>417.0</ele>
        <time>2020-02-09T10:59:26Z</time>
      </trkpt>
      <trkpt lat="42.4336840" lon="-2.4545380">
        <ele>417.0</ele>
        <time>2020-02-09T10:59:27Z</time>
      </trkpt>
      <trkpt lat="42.4336360" lon="-2.4545540">
        <ele>417.0</ele>
        <time>2020-02-09T10:59:28Z</time>
      </trkpt>
      <trkpt lat="42.4335300" lon="-2.4544040">
        <ele>417.0</ele>
        <time>2020-02-09T10:59:30Z</time>
      </trkpt>
      <trkpt lat="42.4334810" lon="-2.4544380">
        <ele>417.0</ele>
        <time>2020-02-09T10:59:31Z</time>
      </trkpt>
      <trkpt lat="42.4334290" lon="-2.4544360">
        <ele>416.9</ele>
        <time>2020-02-09T10:59:32Z</time>
      </trkpt>
      <trkpt lat="42.4333780" lon="-2.4544360">
        <ele>416.9</ele>
        <time>2020-02-09T10:59:33Z</time>
      </trkpt>
      <trkpt lat="42.4333240" lon="-2.4544370">
        <ele>417.0</ele>
        <time>2020-02-09T10:59:34Z</time>
      </trkpt>
      <trkpt lat="42.4332690" lon="-2.4544480">
        <ele>417.0</ele>
        <time>2020-02-09T10:59:35Z</time>
      </trkpt>
      <trkpt lat="42.4332090" lon="-2.4544610">
        <ele>417.0</ele>
        <time>2020-02-09T10:59:36Z</time>
      </trkpt>
      <trkpt lat="42.4331530" lon="-2.4544770">
        <ele>417.0</ele>
        <time>2020-02-09T10:59:37Z</time>
      </trkpt>
      <trkpt lat="42.4331020" lon="-2.4544790">
        <ele>417.1</ele>
        <time>2020-02-09T10:59:38Z</time>
      </trkpt>
      <trkpt lat="42.4330440" lon="-2.4544720">
        <ele>417.1</ele>
        <time>2020-02-09T10:59:39Z</time>
      </trkpt>
      <trkpt lat="42.4329840" lon="-2.4544850">
        <ele>417.3</ele>
        <time>2020-02-09T10:59:40Z</time>
      </trkpt>
      <trkpt lat="42.4329250" lon="-2.4545150">
        <ele>417.4</ele>
        <time>2020-02-09T10:59:41Z</time>
      </trkpt>
      <trkpt lat="42.4328660" lon="-2.4545340">
        <ele>417.5</ele>
        <time>2020-02-09T10:59:42Z</time>
      </trkpt>
      <trkpt lat="42.4328070" lon="-2.4545460">
        <ele>417.7</ele>
        <time>2020-02-09T10:59:43Z</time>
      </trkpt>
      <trkpt lat="42.4327500" lon="-2.4545750">
        <ele>417.8</ele>
        <time>2020-02-09T10:59:44Z</time>
      </trkpt>
      <trkpt lat="42.4326860" lon="-2.4546040">
        <ele>418.0</ele>
        <time>2020-02-09T10:59:45Z</time>
      </trkpt>
      <trkpt lat="42.4326300" lon="-2.4546270">
        <ele>418.2</ele>
        <time>2020-02-09T10:59:46Z</time>
      </trkpt>
      <trkpt lat="42.4325660" lon="-2.4546440">
        <ele>418.2</ele>
        <time>2020-02-09T10:59:47Z</time>
      </trkpt>
      <trkpt lat="42.4325080" lon="-2.4546640">
        <ele>418.2</ele>
        <time>2020-02-09T10:59:48Z</time>
      </trkpt>
      <trkpt lat="42.4324500" lon="-2.4546880">
        <ele>418.2</ele>
        <time>2020-02-09T10:59:49Z</time>
      </trkpt>
      <trkpt lat="42.4323910" lon="-2.4547080">
        <ele>418.2</ele>
        <time>2020-02-09T10:59:50Z</time>
      </trkpt>
      <trkpt lat="42.4323320" lon="-2.4547310">
        <ele>418.2</ele>
        <time>2020-02-09T10:59:51Z</time>
      </trkpt>
      <trkpt lat="42.4322730" lon="-2.4547520">
        <ele>418.3</ele>
        <time>2020-02-09T10:59:52Z</time>
      </trkpt>
      <trkpt lat="42.4322300" lon="-2.4548340">
        <ele>418.4</ele>
        <time>2020-02-09T10:59:53Z</time>
      </trkpt>
      <trkpt lat="42.4321690" lon="-2.4548610">
        <ele>418.5</ele>
        <time>2020-02-09T10:59:54Z</time>
      </trkpt>
      <trkpt lat="42.4321090" lon="-2.4548890">
        <ele>418.6</ele>
        <time>2020-02-09T10:59:55Z</time>
      </trkpt>
      <trkpt lat="42.4320480" lon="-2.4549190">
        <ele>418.7</ele>
        <time>2020-02-09T10:59:56Z</time>
      </trkpt>
      <trkpt lat="42.4319890" lon="-2.4549450">
        <ele>418.9</ele>
        <time>2020-02-09T10:59:57Z</time>
      </trkpt>
      <trkpt lat="42.4319300" lon="-2.4549720">
        <ele>419.0</ele>
        <time>2020-02-09T10:59:58Z</time>
      </trkpt>
      <trkpt lat="42.4318650" lon="-2.4549990">
        <ele>419.1</ele>
        <time>2020-02-09T10:59:59Z</time>
      </trkpt>
      <trkpt lat="42.4317730" lon="-2.4549530">
        <ele>419.2</ele>
        <time>2020-02-09T11:00:00Z</time>
      </trkpt>
      <trkpt lat="42.4317250" lon="-2.4549660">
        <ele>419.2</ele>
        <time>2020-02-09T11:00:01Z</time>
      </trkpt>
      <trkpt lat="42.4316550" lon="-2.4549850">
        <ele>419.3</ele>
        <time>2020-02-09T11:00:02Z</time>
      </trkpt>
      <trkpt lat="42.4315810" lon="-2.4550100">
        <ele>419.3</ele>
        <time>2020-02-09T11:00:03Z</time>
      </trkpt>
      <trkpt lat="42.4315110" lon="-2.4550310">
        <ele>419.3</ele>
        <time>2020-02-09T11:00:04Z</time>
      </trkpt>
      <trkpt lat="42.4314420" lon="-2.4550470">
        <ele>419.3</ele>
        <time>2020-02-09T11:00:05Z</time>
      </trkpt>
      <trkpt lat="42.4313960" lon="-2.4551200">
        <ele>419.4</ele>
        <time>2020-02-09T11:00:06Z</time>
      </trkpt>
      <trkpt lat="42.4313320" lon="-2.4551460">
        <ele>419.5</ele>
        <time>2020-02-09T11:00:07Z</time>
      </trkpt>
      <trkpt lat="42.4312690" lon="-2.4551710">
        <ele>419.6</ele>
        <time>2020-02-09T11:00:08Z</time>
      </trkpt>
      <trkpt lat="42.4312060" lon="-2.4552080">
        <ele>419.8</ele>
        <time>2020-02-09T11:00:09Z</time>
      </trkpt>
      <trkpt lat="42.4311410" lon="-2.4552300">
        <ele>419.9</ele>
        <time>2020-02-09T11:00:10Z</time>
      </trkpt>
      <trkpt lat="42.4310770" lon="-2.4552570">
        <ele>420.0</ele>
        <time>2020-02-09T11:00:11Z</time>
      </trkpt>
      <trkpt lat="42.4310120" lon="-2.4552830">
        <ele>420.2</ele>
        <time>2020-02-09T11:00:12Z</time>
      </trkpt>
      <trkpt lat="42.4309300" lon="-2.4552050">
        <ele>420.3</ele>
        <time>2020-02-09T11:00:13Z</time>
      </trkpt>
      <trkpt lat="42.4308980" lon="-2.4551740">
        <ele>420.4</ele>
        <time>2020-02-09T11:00:14Z</time>
      </trkpt>
      <trkpt lat="42.4308670" lon="-2.4552350">
        <ele>420.5</ele>
        <time>2020-02-09T11:00:15Z</time>
      </trkpt>
      <trkpt lat="42.4308090" lon="-2.4552240">
        <ele>420.6</ele>
        <time>2020-02-09T11:00:16Z</time>
      </trkpt>
      <trkpt lat="42.4307580" lon="-2.4552620">
        <ele>420.7</ele>
        <time>2020-02-09T11:00:17Z</time>
      </trkpt>
      <trkpt lat="42.4307060" lon="-2.4552880">
        <ele>420.8</ele>
        <time>2020-02-09T11:00:18Z</time>
      </trkpt>
      <trkpt lat="42.4306580" lon="-2.4553130">
        <ele>420.9</ele>
        <time>2020-02-09T11:00:19Z</time>
      </trkpt>
      <trkpt lat="42.4306070" lon="-2.4553280">
        <ele>421.0</ele>
        <time>2020-02-09T11:00:20Z</time>
      </trkpt>
      <trkpt lat="42.4305560" lon="-2.4553480">
        <ele>421.1</ele>
        <time>2020-02-09T11:00:21Z</time>
      </trkpt>
      <trkpt lat="42.4305090" lon="-2.4553590">
        <ele>421.2</ele>
        <time>2020-02-09T11:00:22Z</time>
      </trkpt>
      <trkpt lat="42.4304540" lon="-2.4553790">
        <ele>421.3</ele>
        <time>2020-02-09T11:00:23Z</time>
      </trkpt>
      <trkpt lat="42.4304020" lon="-2.4553950">
        <ele>421.3</ele>
        <time>2020-02-09T11:00:24Z</time>
      </trkpt>
      <trkpt lat="42.4303440" lon="-2.4554080">
        <ele>421.4</ele>
        <time>2020-02-09T11:00:25Z</time>
      </trkpt>
      <trkpt lat="42.4302890" lon="-2.4554170">
        <ele>421.4</ele>
        <time>2020-02-09T11:00:26Z</time>
      </trkpt>
      <trkpt lat="42.4302340" lon="-2.4554280">
        <ele>421.4</ele>
        <time>2020-02-09T11:00:27Z</time>
      </trkpt>
      <trkpt lat="42.4301760" lon="-2.4554340">
        <ele>421.5</ele>
        <time>2020-02-09T11:00:28Z</time>
      </trkpt>
      <trkpt lat="42.4301220" lon="-2.4554390">
        <ele>421.5</ele>
        <time>2020-02-09T11:00:29Z</time>
      </trkpt>
      <trkpt lat="42.4300630" lon="-2.4554500">
        <ele>421.5</ele>
        <time>2020-02-09T11:00:30Z</time>
      </trkpt>
      <trkpt lat="42.4300090" lon="-2.4554600">
        <ele>421.5</ele>
        <time>2020-02-09T11:00:31Z</time>
      </trkpt>
      <trkpt lat="42.4299560" lon="-2.4554660">
        <ele>421.5</ele>
        <time>2020-02-09T11:00:32Z</time>
      </trkpt>
      <trkpt lat="42.4298970" lon="-2.4554770">
        <ele>421.5</ele>
        <time>2020-02-09T11:00:33Z</time>
      </trkpt>
      <trkpt lat="42.4298430" lon="-2.4554870">
        <ele>421.5</ele>
        <time>2020-02-09T11:00:34Z</time>
      </trkpt>
      <trkpt lat="42.4297840" lon="-2.4554930">
        <ele>421.5</ele>
        <time>2020-02-09T11:00:35Z</time>
      </trkpt>
      <trkpt lat="42.4297300" lon="-2.4555030">
        <ele>421.6</ele>
        <time>2020-02-09T11:00:36Z</time>
      </trkpt>
      <trkpt lat="42.4296770" lon="-2.4555140">
        <ele>421.6</ele>
        <time>2020-02-09T11:00:37Z</time>
      </trkpt>
      <trkpt lat="42.4294780" lon="-2.4557230">
        <ele>422.2</ele>
        <time>2020-02-09T11:00:40Z</time>
      </trkpt>
      <trkpt lat="42.4294130" lon="-2.4557600">
        <ele>422.3</ele>
        <time>2020-02-09T11:00:42Z</time>
      </trkpt>
      <trkpt lat="42.4293600" lon="-2.4557770">
        <ele>422.4</ele>
        <time>2020-02-09T11:00:43Z</time>
      </trkpt>
      <trkpt lat="42.4293070" lon="-2.4557930">
        <ele>422.5</ele>
        <time>2020-02-09T11:00:44Z</time>
      </trkpt>
      <trkpt lat="42.4292530" lon="-2.4558090">
        <ele>422.5</ele>
        <time>2020-02-09T11:00:45Z</time>
      </trkpt>
      <trkpt lat="42.4291990" lon="-2.4558250">
        <ele>422.5</ele>
        <time>2020-02-09T11:00:46Z</time>
      </trkpt>
      <trkpt lat="42.4291460" lon="-2.4558410">
        <ele>422.6</ele>
        <time>2020-02-09T11:00:47Z</time>
      </trkpt>
      <trkpt lat="42.4290920" lon="-2.4558570">
        <ele>422.6</ele>
        <time>2020-02-09T11:00:48Z</time>
      </trkpt>
      <trkpt lat="42.4290330" lon="-2.4558790">
        <ele>422.6</ele>
        <time>2020-02-09T11:00:49Z</time>
      </trkpt>
      <trkpt lat="42.4289310" lon="-2.4558720">
        <ele>422.6</ele>
        <time>2020-02-09T11:00:50Z</time>
      </trkpt>
      <trkpt lat="42.4288700" lon="-2.4558840">
        <ele>422.6</ele>
        <time>2020-02-09T11:00:51Z</time>
      </trkpt>
      <trkpt lat="42.4288150" lon="-2.4558960">
        <ele>422.7</ele>
        <time>2020-02-09T11:00:52Z</time>
      </trkpt>
      <trkpt lat="42.4287590" lon="-2.4559160">
        <ele>422.7</ele>
        <time>2020-02-09T11:00:53Z</time>
      </trkpt>
      <trkpt lat="42.4287110" lon="-2.4559420">
        <ele>422.7</ele>
        <time>2020-02-09T11:00:54Z</time>
      </trkpt>
      <trkpt lat="42.4286560" lon="-2.4559590">
        <ele>422.8</ele>
        <time>2020-02-09T11:00:55Z</time>
      </trkpt>
      <trkpt lat="42.4286010" lon="-2.4559760">
        <ele>422.8</ele>
        <time>2020-02-09T11:00:56Z</time>
      </trkpt>
      <trkpt lat="42.4285450" lon="-2.4559920">
        <ele>422.9</ele>
        <time>2020-02-09T11:00:57Z</time>
      </trkpt>
      <trkpt lat="42.4284910" lon="-2.4560080">
        <ele>423.0</ele>
        <time>2020-02-09T11:00:58Z</time>
      </trkpt>
      <trkpt lat="42.4284320" lon="-2.4560290">
        <ele>423.0</ele>
        <time>2020-02-09T11:00:59Z</time>
      </trkpt>
      <trkpt lat="42.4283780" lon="-2.4560450">
        <ele>423.1</ele>
        <time>2020-02-09T11:01:00Z</time>
      </trkpt>
      <trkpt lat="42.4283110" lon="-2.4560580">
        <ele>423.2</ele>
        <time>2020-02-09T11:01:01Z</time>
      </trkpt>
      <trkpt lat="42.4282560" lon="-2.4560880">
        <ele>423.3</ele>
        <time>2020-02-09T11:01:02Z</time>
      </trkpt>
      <trkpt lat="42.4282090" lon="-2.4561180">
        <ele>423.5</ele>
        <time>2020-02-09T11:01:03Z</time>
      </trkpt>
      <trkpt lat="42.4281290" lon="-2.4561460">
        <ele>423.7</ele>
        <time>2020-02-09T11:01:04Z</time>
      </trkpt>
      <trkpt lat="42.4280670" lon="-2.4561590">
        <ele>423.8</ele>
        <time>2020-02-09T11:01:05Z</time>
      </trkpt>
      <trkpt lat="42.4280250" lon="-2.4561860">
        <ele>423.8</ele>
        <time>2020-02-09T11:01:06Z</time>
      </trkpt>
      <trkpt lat="42.4279670" lon="-2.4562060">
        <ele>423.8</ele>
        <time>2020-02-09T11:01:07Z</time>
      </trkpt>
      <trkpt lat="42.4279180" lon="-2.4562170">
        <ele>423.8</ele>
        <time>2020-02-09T11:01:08Z</time>
      </trkpt>
      <trkpt lat="42.4278530" lon="-2.4562370">
        <ele>423.8</ele>
        <time>2020-02-09T11:01:09Z</time>
      </trkpt>
      <trkpt lat="42.4277960" lon="-2.4562480">
        <ele>423.8</ele>
        <time>2020-02-09T11:01:10Z</time>
      </trkpt>
      <trkpt lat="42.4277400" lon="-2.4562700">
        <ele>423.8</ele>
        <time>2020-02-09T11:01:11Z</time>
      </trkpt>
      <trkpt lat="42.4276730" lon="-2.4562910">
        <ele>423.9</ele>
        <time>2020-02-09T11:01:12Z</time>
      </trkpt>
      <trkpt lat="42.4276130" lon="-2.4563070">
        <ele>423.9</ele>
        <time>2020-02-09T11:01:13Z</time>
      </trkpt>
      <trkpt lat="42.4275480" lon="-2.4563240">
        <ele>423.9</ele>
        <time>2020-02-09T11:01:14Z</time>
      </trkpt>
      <trkpt lat="42.4274890" lon="-2.4563480">
        <ele>423.9</ele>
        <time>2020-02-09T11:01:15Z</time>
      </trkpt>
      <trkpt lat="42.4274340" lon="-2.4563510">
        <ele>424.0</ele>
        <time>2020-02-09T11:01:16Z</time>
      </trkpt>
      <trkpt lat="42.4273820" lon="-2.4563810">
        <ele>424.0</ele>
        <time>2020-02-09T11:01:17Z</time>
      </trkpt>
      <trkpt lat="42.4273350" lon="-2.4563990">
        <ele>424.1</ele>
        <time>2020-02-09T11:01:18Z</time>
      </trkpt>
      <trkpt lat="42.4272810" lon="-2.4564190">
        <ele>424.2</ele>
        <time>2020-02-09T11:01:19Z</time>
      </trkpt>
      <trkpt lat="42.4272270" lon="-2.4564370">
        <ele>424.3</ele>
        <time>2020-02-09T11:01:20Z</time>
      </trkpt>
      <trkpt lat="42.4270910" lon="-2.4564960">
        <ele>424.6</ele>
        <time>2020-02-09T11:01:21Z</time>
      </trkpt>
      <trkpt lat="42.4270200" lon="-2.4565290">
        <ele>424.9</ele>
        <time>2020-02-09T11:01:22Z</time>
      </trkpt>
      <trkpt lat="42.4269570" lon="-2.4565450">
        <ele>424.9</ele>
        <time>2020-02-09T11:01:24Z</time>
      </trkpt>
      <trkpt lat="42.4269000" lon="-2.4565610">
        <ele>424.9</ele>
        <time>2020-02-09T11:01:25Z</time>
      </trkpt>
      <trkpt lat="42.4268440" lon="-2.4565770">
        <ele>424.9</ele>
        <time>2020-02-09T11:01:26Z</time>
      </trkpt>
      <trkpt lat="42.4267880" lon="-2.4565920">
        <ele>425.0</ele>
        <time>2020-02-09T11:01:27Z</time>
      </trkpt>
      <trkpt lat="42.4267410" lon="-2.4566090">
        <ele>425.0</ele>
        <time>2020-02-09T11:01:28Z</time>
      </trkpt>
      <trkpt lat="42.4266870" lon="-2.4566250">
        <ele>425.0</ele>
        <time>2020-02-09T11:01:29Z</time>
      </trkpt>
      <trkpt lat="42.4266340" lon="-2.4566400">
        <ele>425.1</ele>
        <time>2020-02-09T11:01:30Z</time>
      </trkpt>
      <trkpt lat="42.4265810" lon="-2.4566570">
        <ele>425.3</ele>
        <time>2020-02-09T11:01:31Z</time>
      </trkpt>
      <trkpt lat="42.4265280" lon="-2.4566730">
        <ele>425.4</ele>
        <time>2020-02-09T11:01:32Z</time>
      </trkpt>
      <trkpt lat="42.4264230" lon="-2.4566610">
        <ele>425.7</ele>
        <time>2020-02-09T11:01:33Z</time>
      </trkpt>
      <trkpt lat="42.4263930" lon="-2.4566590">
        <ele>425.7</ele>
        <time>2020-02-09T11:01:34Z</time>
      </trkpt>
      <trkpt lat="42.4263570" lon="-2.4566910">
        <ele>425.8</ele>
        <time>2020-02-09T11:01:35Z</time>
      </trkpt>
      <trkpt lat="42.4263020" lon="-2.4567000">
        <ele>425.9</ele>
        <time>2020-02-09T11:01:36Z</time>
      </trkpt>
      <trkpt lat="42.4262490" lon="-2.4567160">
        <ele>426.1</ele>
        <time>2020-02-09T11:01:37Z</time>
      </trkpt>
      <trkpt lat="42.4261940" lon="-2.4567310">
        <ele>426.3</ele>
        <time>2020-02-09T11:01:38Z</time>
      </trkpt>
      <trkpt lat="42.4261440" lon="-2.4567410">
        <ele>426.5</ele>
        <time>2020-02-09T11:01:39Z</time>
      </trkpt>
      <trkpt lat="42.4260770" lon="-2.4567660">
        <ele>426.8</ele>
        <time>2020-02-09T11:01:40Z</time>
      </trkpt>
      <trkpt lat="42.4260220" lon="-2.4567830">
        <ele>427.0</ele>
        <time>2020-02-09T11:01:41Z</time>
      </trkpt>
      <trkpt lat="42.4259830" lon="-2.4568110">
        <ele>427.2</ele>
        <time>2020-02-09T11:01:42Z</time>
      </trkpt>
      <trkpt lat="42.4259290" lon="-2.4568270">
        <ele>427.4</ele>
        <time>2020-02-09T11:01:43Z</time>
      </trkpt>
      <trkpt lat="42.4258780" lon="-2.4568440">
        <ele>427.6</ele>
        <time>2020-02-09T11:01:44Z</time>
      </trkpt>
      <trkpt lat="42.4258540" lon="-2.4568660">
        <ele>427.6</ele>
        <time>2020-02-09T11:01:45Z</time>
      </trkpt>
      <trkpt lat="42.4258070" lon="-2.4568820">
        <ele>427.7</ele>
        <time>2020-02-09T11:01:46Z</time>
      </trkpt>
      <trkpt lat="42.4257440" lon="-2.4569080">
        <ele>427.8</ele>
        <time>2020-02-09T11:01:47Z</time>
      </trkpt>
      <trkpt lat="42.4257000" lon="-2.4569400">
        <ele>427.9</ele>
        <time>2020-02-09T11:01:48Z</time>
      </trkpt>
      <trkpt lat="42.4256490" lon="-2.4569600">
        <ele>427.9</ele>
        <time>2020-02-09T11:01:49Z</time>
      </trkpt>
      <trkpt lat="42.4256000" lon="-2.4569790">
        <ele>428.0</ele>
        <time>2020-02-09T11:01:50Z</time>
      </trkpt>
      <trkpt lat="42.4255350" lon="-2.4569650">
        <ele>428.1</ele>
        <time>2020-02-09T11:01:51Z</time>
      </trkpt>
      <trkpt lat="42.4254680" lon="-2.4569910">
        <ele>428.3</ele>
        <time>2020-02-09T11:01:52Z</time>
      </trkpt>
      <trkpt lat="42.4254120" lon="-2.4570110">
        <ele>428.4</ele>
        <time>2020-02-09T11:01:53Z</time>
      </trkpt>
      <trkpt lat="42.4253530" lon="-2.4570270">
        <ele>428.6</ele>
        <time>2020-02-09T11:01:54Z</time>
      </trkpt>
      <trkpt lat="42.4252680" lon="-2.4570350">
        <ele>428.7</ele>
        <time>2020-02-09T11:01:55Z</time>
      </trkpt>
      <trkpt lat="42.4252060" lon="-2.4570520">
        <ele>428.8</ele>
        <time>2020-02-09T11:01:56Z</time>
      </trkpt>
      <trkpt lat="42.4251440" lon="-2.4570690">
        <ele>428.9</ele>
        <time>2020-02-09T11:01:57Z</time>
      </trkpt>
      <trkpt lat="42.4250930" lon="-2.4570740">
        <ele>429.0</ele>
        <time>2020-02-09T11:01:58Z</time>
      </trkpt>
      <trkpt lat="42.4250350" lon="-2.4570890">
        <ele>429.2</ele>
        <time>2020-02-09T11:01:59Z</time>
      </trkpt>
      <trkpt lat="42.4249700" lon="-2.4571060">
        <ele>429.4</ele>
        <time>2020-02-09T11:02:00Z</time>
      </trkpt>
      <trkpt lat="42.4249130" lon="-2.4571230">
        <ele>429.7</ele>
        <time>2020-02-09T11:02:01Z</time>
      </trkpt>
      <trkpt lat="42.4248800" lon="-2.4571450">
        <ele>429.8</ele>
        <time>2020-02-09T11:02:02Z</time>
      </trkpt>
      <trkpt lat="42.4248320" lon="-2.4571690">
        <ele>430.0</ele>
        <time>2020-02-09T11:02:03Z</time>
      </trkpt>
      <trkpt lat="42.4247770" lon="-2.4571860">
        <ele>430.2</ele>
        <time>2020-02-09T11:02:04Z</time>
      </trkpt>
      <trkpt lat="42.4247230" lon="-2.4572030">
        <ele>430.4</ele>
        <time>2020-02-09T11:02:05Z</time>
      </trkpt>
      <trkpt lat="42.4246660" lon="-2.4572200">
        <ele>430.5</ele>
        <time>2020-02-09T11:02:06Z</time>
      </trkpt>
      <trkpt lat="42.4246130" lon="-2.4572360">
        <ele>430.6</ele>
        <time>2020-02-09T11:02:07Z</time>
      </trkpt>
      <trkpt lat="42.4245500" lon="-2.4572320">
        <ele>430.7</ele>
        <time>2020-02-09T11:02:08Z</time>
      </trkpt>
      <trkpt lat="42.4244960" lon="-2.4572480">
        <ele>430.8</ele>
        <time>2020-02-09T11:02:09Z</time>
      </trkpt>
      <trkpt lat="42.4244420" lon="-2.4572630">
        <ele>430.9</ele>
        <time>2020-02-09T11:02:10Z</time>
      </trkpt>
      <trkpt lat="42.4243870" lon="-2.4572790">
        <ele>431.1</ele>
        <time>2020-02-09T11:02:11Z</time>
      </trkpt>
      <trkpt lat="42.4243340" lon="-2.4572950">
        <ele>431.2</ele>
        <time>2020-02-09T11:02:12Z</time>
      </trkpt>
      <trkpt lat="42.4242960" lon="-2.4573440">
        <ele>431.3</ele>
        <time>2020-02-09T11:02:13Z</time>
      </trkpt>
      <trkpt lat="42.4242460" lon="-2.4573660">
        <ele>431.5</ele>
        <time>2020-02-09T11:02:14Z</time>
      </trkpt>
      <trkpt lat="42.4241940" lon="-2.4573750">
        <ele>431.6</ele>
        <time>2020-02-09T11:02:16Z</time>
      </trkpt>
      <trkpt lat="42.4241170" lon="-2.4573940">
        <ele>431.7</ele>
        <time>2020-02-09T11:02:17Z</time>
      </trkpt>
      <trkpt lat="42.4240640" lon="-2.4574100">
        <ele>431.9</ele>
        <time>2020-02-09T11:02:18Z</time>
      </trkpt>
      <trkpt lat="42.4240140" lon="-2.4574130">
        <ele>432.0</ele>
        <time>2020-02-09T11:02:19Z</time>
      </trkpt>
      <trkpt lat="42.4239590" lon="-2.4574270">
        <ele>432.2</ele>
        <time>2020-02-09T11:02:20Z</time>
      </trkpt>
      <trkpt lat="42.4239070" lon="-2.4574440">
        <ele>432.3</ele>
        <time>2020-02-09T11:02:21Z</time>
      </trkpt>
      <trkpt lat="42.4238580" lon="-2.4574630">
        <ele>432.5</ele>
        <time>2020-02-09T11:02:22Z</time>
      </trkpt>
      <trkpt lat="42.4238070" lon="-2.4574790">
        <ele>432.6</ele>
        <time>2020-02-09T11:02:23Z</time>
      </trkpt>
      <trkpt lat="42.4237560" lon="-2.4574950">
        <ele>432.7</ele>
        <time>2020-02-09T11:02:24Z</time>
      </trkpt>
      <trkpt lat="42.4237060" lon="-2.4575100">
        <ele>432.8</ele>
        <time>2020-02-09T11:02:25Z</time>
      </trkpt>
      <trkpt lat="42.4236520" lon="-2.4575260">
        <ele>432.9</ele>
        <time>2020-02-09T11:02:26Z</time>
      </trkpt>
      <trkpt lat="42.4236040" lon="-2.4575420">
        <ele>433.1</ele>
        <time>2020-02-09T11:02:27Z</time>
      </trkpt>
      <trkpt lat="42.4235500" lon="-2.4575580">
        <ele>433.2</ele>
        <time>2020-02-09T11:02:28Z</time>
      </trkpt>
      <trkpt lat="42.4234790" lon="-2.4575840">
        <ele>433.5</ele>
        <time>2020-02-09T11:02:29Z</time>
      </trkpt>
      <trkpt lat="42.4234450" lon="-2.4575810">
        <ele>433.6</ele>
        <time>2020-02-09T11:02:30Z</time>
      </trkpt>
      <trkpt lat="42.4234080" lon="-2.4575750">
        <ele>433.8</ele>
        <time>2020-02-09T11:02:31Z</time>
      </trkpt>
      <trkpt lat="42.4233620" lon="-2.4575920">
        <ele>433.9</ele>
        <time>2020-02-09T11:02:32Z</time>
      </trkpt>
      <trkpt lat="42.4233180" lon="-2.4576040">
        <ele>434.1</ele>
        <time>2020-02-09T11:02:33Z</time>
      </trkpt>
      <trkpt lat="42.4232720" lon="-2.4576280">
        <ele>434.2</ele>
        <time>2020-02-09T11:02:34Z</time>
      </trkpt>
      <trkpt lat="42.4232200" lon="-2.4576500">
        <ele>434.4</ele>
        <time>2020-02-09T11:02:35Z</time>
      </trkpt>
      <trkpt lat="42.4231720" lon="-2.4576690">
        <ele>434.6</ele>
        <time>2020-02-09T11:02:36Z</time>
      </trkpt>
      <trkpt lat="42.4231250" lon="-2.4576830">
        <ele>434.8</ele>
        <time>2020-02-09T11:02:37Z</time>
      </trkpt>
      <trkpt lat="42.4230770" lon="-2.4577010">
        <ele>435.0</ele>
        <time>2020-02-09T11:02:38Z</time>
      </trkpt>
      <trkpt lat="42.4230260" lon="-2.4577160">
        <ele>435.2</ele>
        <time>2020-02-09T11:02:39Z</time>
      </trkpt>
      <trkpt lat="42.4229790" lon="-2.4577320">
        <ele>435.3</ele>
        <time>2020-02-09T11:02:40Z</time>
      </trkpt>
      <trkpt lat="42.4229340" lon="-2.4577510">
        <ele>435.4</ele>
        <time>2020-02-09T11:02:41Z</time>
      </trkpt>
      <trkpt lat="42.4228850" lon="-2.4577670">
        <ele>435.5</ele>
        <time>2020-02-09T11:02:42Z</time>
      </trkpt>
      <trkpt lat="42.4228370" lon="-2.4577830">
        <ele>435.6</ele>
        <time>2020-02-09T11:02:43Z</time>
      </trkpt>
      <trkpt lat="42.4227890" lon="-2.4577990">
        <ele>435.8</ele>
        <time>2020-02-09T11:02:44Z</time>
      </trkpt>
      <trkpt lat="42.4227400" lon="-2.4578150">
        <ele>436.0</ele>
        <time>2020-02-09T11:02:45Z</time>
      </trkpt>
      <trkpt lat="42.4226980" lon="-2.4578110">
        <ele>436.2</ele>
        <time>2020-02-09T11:02:46Z</time>
      </trkpt>
      <trkpt lat="42.4226520" lon="-2.4578250">
        <ele>436.4</ele>
        <time>2020-02-09T11:02:47Z</time>
      </trkpt>
      <trkpt lat="42.4226060" lon="-2.4578400">
        <ele>436.7</ele>
        <time>2020-02-09T11:02:48Z</time>
      </trkpt>
      <trkpt lat="42.4225580" lon="-2.4578530">
        <ele>436.9</ele>
        <time>2020-02-09T11:02:49Z</time>
      </trkpt>
      <trkpt lat="42.4225100" lon="-2.4578690">
        <ele>437.1</ele>
        <time>2020-02-09T11:02:50Z</time>
      </trkpt>
      <trkpt lat="42.4224620" lon="-2.4578850">
        <ele>437.2</ele>
        <time>2020-02-09T11:02:51Z</time>
      </trkpt>
      <trkpt lat="42.4224190" lon="-2.4579010">
        <ele>437.4</ele>
        <time>2020-02-09T11:02:52Z</time>
      </trkpt>
      <trkpt lat="42.4223700" lon="-2.4579120">
        <ele>437.6</ele>
        <time>2020-02-09T11:02:53Z</time>
      </trkpt>
      <trkpt lat="42.4223220" lon="-2.4579280">
        <ele>437.8</ele>
        <time>2020-02-09T11:02:54Z</time>
      </trkpt>
      <trkpt lat="42.4222790" lon="-2.4579440">
        <ele>438.1</ele>
        <time>2020-02-09T11:02:55Z</time>
      </trkpt>
      <trkpt lat="42.4222310" lon="-2.4579600">
        <ele>438.3</ele>
        <time>2020-02-09T11:02:56Z</time>
      </trkpt>
      <trkpt lat="42.4221830" lon="-2.4579760">
        <ele>438.5</ele>
        <time>2020-02-09T11:02:57Z</time>
      </trkpt>
      <trkpt lat="42.4219950" lon="-2.4581000">
        <ele>439.1</ele>
        <time>2020-02-09T11:03:01Z</time>
      </trkpt>
      <trkpt lat="42.4219500" lon="-2.4581200">
        <ele>439.2</ele>
        <time>2020-02-09T11:03:02Z</time>
      </trkpt>
      <trkpt lat="42.4219030" lon="-2.4581400">
        <ele>439.3</ele>
        <time>2020-02-09T11:03:03Z</time>
      </trkpt>
      <trkpt lat="42.4218500" lon="-2.4581530">
        <ele>439.5</ele>
        <time>2020-02-09T11:03:04Z</time>
      </trkpt>
      <trkpt lat="42.4218020" lon="-2.4581750">
        <ele>439.6</ele>
        <time>2020-02-09T11:03:05Z</time>
      </trkpt>
      <trkpt lat="42.4217530" lon="-2.4581960">
        <ele>439.8</ele>
        <time>2020-02-09T11:03:06Z</time>
      </trkpt>
      <trkpt lat="42.4217050" lon="-2.4582180">
        <ele>440.0</ele>
        <time>2020-02-09T11:03:07Z</time>
      </trkpt>
      <trkpt lat="42.4216570" lon="-2.4582340">
        <ele>440.1</ele>
        <time>2020-02-09T11:03:08Z</time>
      </trkpt>
      <trkpt lat="42.4216140" lon="-2.4582550">
        <ele>440.3</ele>
        <time>2020-02-09T11:03:09Z</time>
      </trkpt>
      <trkpt lat="42.4215660" lon="-2.4582770">
        <ele>440.4</ele>
        <time>2020-02-09T11:03:10Z</time>
      </trkpt>
      <trkpt lat="42.4215170" lon="-2.4582980">
        <ele>440.6</ele>
        <time>2020-02-09T11:03:11Z</time>
      </trkpt>
      <trkpt lat="42.4214690" lon="-2.4583200">
        <ele>440.7</ele>
        <time>2020-02-09T11:03:12Z</time>
      </trkpt>
      <trkpt lat="42.4211470" lon="-2.4585880">
        <ele>441.1</ele>
        <time>2020-02-09T11:03:17Z</time>
      </trkpt>
      <trkpt lat="42.4210970" lon="-2.4586170">
        <ele>441.1</ele>
        <time>2020-02-09T11:03:18Z</time>
      </trkpt>
      <trkpt lat="42.4210440" lon="-2.4586260">
        <ele>441.1</ele>
        <time>2020-02-09T11:03:19Z</time>
      </trkpt>
      <trkpt lat="42.4209860" lon="-2.4586420">
        <ele>441.1</ele>
        <time>2020-02-09T11:03:20Z</time>
      </trkpt>
      <trkpt lat="42.4209380" lon="-2.4586680">
        <ele>441.1</ele>
        <time>2020-02-09T11:03:21Z</time>
      </trkpt>
      <trkpt lat="42.4208900" lon="-2.4587010">
        <ele>441.1</ele>
        <time>2020-02-09T11:03:22Z</time>
      </trkpt>
      <trkpt lat="42.4208360" lon="-2.4587330">
        <ele>441.1</ele>
        <time>2020-02-09T11:03:23Z</time>
      </trkpt>
      <trkpt lat="42.4207880" lon="-2.4587600">
        <ele>441.1</ele>
        <time>2020-02-09T11:03:24Z</time>
      </trkpt>
      <trkpt lat="42.4207450" lon="-2.4587810">
        <ele>441.1</ele>
        <time>2020-02-09T11:03:25Z</time>
      </trkpt>
      <trkpt lat="42.4207020" lon="-2.4588290">
        <ele>441.1</ele>
        <time>2020-02-09T11:03:26Z</time>
      </trkpt>
      <trkpt lat="42.4206670" lon="-2.4588650">
        <ele>441.1</ele>
        <time>2020-02-09T11:03:27Z</time>
      </trkpt>
      <trkpt lat="42.4206110" lon="-2.4589030">
        <ele>441.1</ele>
        <time>2020-02-09T11:03:28Z</time>
      </trkpt>
      <trkpt lat="42.4205460" lon="-2.4589530">
        <ele>441.1</ele>
        <time>2020-02-09T11:03:29Z</time>
      </trkpt>
      <trkpt lat="42.4204960" lon="-2.4589880">
        <ele>441.2</ele>
        <time>2020-02-09T11:03:30Z</time>
      </trkpt>
      <trkpt lat="42.4204440" lon="-2.4590180">
        <ele>441.2</ele>
        <time>2020-02-09T11:03:31Z</time>
      </trkpt>
      <trkpt lat="42.4203890" lon="-2.4590570">
        <ele>441.2</ele>
        <time>2020-02-09T11:03:32Z</time>
      </trkpt>
      <trkpt lat="42.4203290" lon="-2.4590870">
        <ele>441.2</ele>
        <time>2020-02-09T11:03:33Z</time>
      </trkpt>
      <trkpt lat="42.4202880" lon="-2.4591260">
        <ele>441.2</ele>
        <time>2020-02-09T11:03:34Z</time>
      </trkpt>
      <trkpt lat="42.4202350" lon="-2.4591670">
        <ele>441.2</ele>
        <time>2020-02-09T11:03:35Z</time>
      </trkpt>
      <trkpt lat="42.4201840" lon="-2.4591930">
        <ele>441.2</ele>
        <time>2020-02-09T11:03:36Z</time>
      </trkpt>
      <trkpt lat="42.4201290" lon="-2.4592250">
        <ele>441.2</ele>
        <time>2020-02-09T11:03:37Z</time>
      </trkpt>
      <trkpt lat="42.4200750" lon="-2.4592570">
        <ele>441.2</ele>
        <time>2020-02-09T11:03:38Z</time>
      </trkpt>
      <trkpt lat="42.4200150" lon="-2.4592850">
        <ele>441.2</ele>
        <time>2020-02-09T11:03:39Z</time>
      </trkpt>
      <trkpt lat="42.4199620" lon="-2.4593170">
        <ele>441.2</ele>
        <time>2020-02-09T11:03:40Z</time>
      </trkpt>
      <trkpt lat="42.4199080" lon="-2.4593500">
        <ele>441.2</ele>
        <time>2020-02-09T11:03:41Z</time>
      </trkpt>
      <trkpt lat="42.4198780" lon="-2.4593770">
        <ele>441.2</ele>
        <time>2020-02-09T11:03:42Z</time>
      </trkpt>
      <trkpt lat="42.4198360" lon="-2.4594140">
        <ele>441.2</ele>
        <time>2020-02-09T11:03:43Z</time>
      </trkpt>
      <trkpt lat="42.4197850" lon="-2.4594520">
        <ele>441.2</ele>
        <time>2020-02-09T11:03:44Z</time>
      </trkpt>
      <trkpt lat="42.4197330" lon="-2.4594960">
        <ele>441.2</ele>
        <time>2020-02-09T11:03:45Z</time>
      </trkpt>
      <trkpt lat="42.4196830" lon="-2.4595320">
        <ele>441.3</ele>
        <time>2020-02-09T11:03:46Z</time>
      </trkpt>
      <trkpt lat="42.4196340" lon="-2.4595640">
        <ele>441.3</ele>
        <time>2020-02-09T11:03:47Z</time>
      </trkpt>
      <trkpt lat="42.4195860" lon="-2.4596020">
        <ele>441.3</ele>
        <time>2020-02-09T11:03:48Z</time>
      </trkpt>
      <trkpt lat="42.4195330" lon="-2.4596390">
        <ele>441.3</ele>
        <time>2020-02-09T11:03:49Z</time>
      </trkpt>
      <trkpt lat="42.4194840" lon="-2.4596770">
        <ele>441.3</ele>
        <time>2020-02-09T11:03:50Z</time>
      </trkpt>
      <trkpt lat="42.4194360" lon="-2.4597090">
        <ele>441.3</ele>
        <time>2020-02-09T11:03:51Z</time>
      </trkpt>
      <trkpt lat="42.4192920" lon="-2.4596570">
        <ele>441.3</ele>
        <time>2020-02-09T11:03:52Z</time>
      </trkpt>
      <trkpt lat="42.4192390" lon="-2.4596900">
        <ele>441.3</ele>
        <time>2020-02-09T11:03:53Z</time>
      </trkpt>
      <trkpt lat="42.4191640" lon="-2.4597210">
        <ele>441.4</ele>
        <time>2020-02-09T11:03:54Z</time>
      </trkpt>
      <trkpt lat="42.4191080" lon="-2.4597820">
        <ele>441.6</ele>
        <time>2020-02-09T11:03:55Z</time>
      </trkpt>
      <trkpt lat="42.4190730" lon="-2.4598350">
        <ele>441.7</ele>
        <time>2020-02-09T11:03:56Z</time>
      </trkpt>
      <trkpt lat="42.4190210" lon="-2.4598720">
        <ele>441.9</ele>
        <time>2020-02-09T11:03:57Z</time>
      </trkpt>
      <trkpt lat="42.4189700" lon="-2.4599080">
        <ele>442.0</ele>
        <time>2020-02-09T11:03:58Z</time>
      </trkpt>
      <trkpt lat="42.4189250" lon="-2.4599540">
        <ele>442.2</ele>
        <time>2020-02-09T11:03:59Z</time>
      </trkpt>
      <trkpt lat="42.4188730" lon="-2.4599880">
        <ele>442.4</ele>
        <time>2020-02-09T11:04:00Z</time>
      </trkpt>
      <trkpt lat="42.4188190" lon="-2.4600210">
        <ele>442.5</ele>
        <time>2020-02-09T11:04:01Z</time>
      </trkpt>
      <trkpt lat="42.4187490" lon="-2.4600600">
        <ele>442.7</ele>
        <time>2020-02-09T11:04:02Z</time>
      </trkpt>
      <trkpt lat="42.4186950" lon="-2.4600960">
        <ele>442.9</ele>
        <time>2020-02-09T11:04:03Z</time>
      </trkpt>
      <trkpt lat="42.4186450" lon="-2.4601320">
        <ele>443.0</ele>
        <time>2020-02-09T11:04:04Z</time>
      </trkpt>
      <trkpt lat="42.4185930" lon="-2.4601650">
        <ele>443.1</ele>
        <time>2020-02-09T11:04:05Z</time>
      </trkpt>
      <trkpt lat="42.4185400" lon="-2.4601970">
        <ele>443.2</ele>
        <time>2020-02-09T11:04:06Z</time>
      </trkpt>
      <trkpt lat="42.4184900" lon="-2.4602380">
        <ele>443.2</ele>
        <time>2020-02-09T11:04:07Z</time>
      </trkpt>
      <trkpt lat="42.4184360" lon="-2.4602730">
        <ele>443.2</ele>
        <time>2020-02-09T11:04:08Z</time>
      </trkpt>
      <trkpt lat="42.4183820" lon="-2.4603070">
        <ele>443.2</ele>
        <time>2020-02-09T11:04:09Z</time>
      </trkpt>
      <trkpt lat="42.4183310" lon="-2.4603420">
        <ele>443.2</ele>
        <time>2020-02-09T11:04:10Z</time>
      </trkpt>
      <trkpt lat="42.4182780" lon="-2.4604030">
        <ele>443.2</ele>
        <time>2020-02-09T11:04:11Z</time>
      </trkpt>
      <trkpt lat="42.4182300" lon="-2.4604370">
        <ele>443.2</ele>
        <time>2020-02-09T11:04:12Z</time>
      </trkpt>
      <trkpt lat="42.4181800" lon="-2.4604710">
        <ele>443.3</ele>
        <time>2020-02-09T11:04:13Z</time>
      </trkpt>
      <trkpt lat="42.4181320" lon="-2.4605030">
        <ele>443.3</ele>
        <time>2020-02-09T11:04:14Z</time>
      </trkpt>
      <trkpt lat="42.4180710" lon="-2.4604760">
        <ele>443.3</ele>
        <time>2020-02-09T11:04:15Z</time>
      </trkpt>
      <trkpt lat="42.4180320" lon="-2.4605250">
        <ele>443.4</ele>
        <time>2020-02-09T11:04:16Z</time>
      </trkpt>
      <trkpt lat="42.4179810" lon="-2.4605580">
        <ele>443.5</ele>
        <time>2020-02-09T11:04:17Z</time>
      </trkpt>
      <trkpt lat="42.4179280" lon="-2.4606060">
        <ele>443.6</ele>
        <time>2020-02-09T11:04:18Z</time>
      </trkpt>
      <trkpt lat="42.4178750" lon="-2.4606170">
        <ele>443.8</ele>
        <time>2020-02-09T11:04:19Z</time>
      </trkpt>
      <trkpt lat="42.4178280" lon="-2.4606520">
        <ele>443.9</ele>
        <time>2020-02-09T11:04:20Z</time>
      </trkpt>
      <trkpt lat="42.4177800" lon="-2.4606880">
        <ele>444.1</ele>
        <time>2020-02-09T11:04:21Z</time>
      </trkpt>
      <trkpt lat="42.4177300" lon="-2.4607230">
        <ele>444.2</ele>
        <time>2020-02-09T11:04:22Z</time>
      </trkpt>
      <trkpt lat="42.4176820" lon="-2.4607600">
        <ele>444.4</ele>
        <time>2020-02-09T11:04:23Z</time>
      </trkpt>
      <trkpt lat="42.4176380" lon="-2.4607840">
        <ele>444.6</ele>
        <time>2020-02-09T11:04:24Z</time>
      </trkpt>
      <trkpt lat="42.4176000" lon="-2.4608320">
        <ele>444.7</ele>
        <time>2020-02-09T11:04:25Z</time>
      </trkpt>
      <trkpt lat="42.4175500" lon="-2.4608640">
        <ele>444.8</ele>
        <time>2020-02-09T11:04:26Z</time>
      </trkpt>
      <trkpt lat="42.4174990" lon="-2.4608950">
        <ele>445.0</ele>
        <time>2020-02-09T11:04:27Z</time>
      </trkpt>
      <trkpt lat="42.4174510" lon="-2.4609270">
        <ele>445.1</ele>
        <time>2020-02-09T11:04:28Z</time>
      </trkpt>
      <trkpt lat="42.4173970" lon="-2.4609590">
        <ele>445.1</ele>
        <time>2020-02-09T11:04:29Z</time>
      </trkpt>
      <trkpt lat="42.4173490" lon="-2.4609910">
        <ele>445.2</ele>
        <time>2020-02-09T11:04:30Z</time>
      </trkpt>
      <trkpt lat="42.4173010" lon="-2.4610230">
        <ele>445.2</ele>
        <time>2020-02-09T11:04:31Z</time>
      </trkpt>
      <trkpt lat="42.4172050" lon="-2.4610220">
        <ele>445.2</ele>
        <time>2020-02-09T11:04:32Z</time>
      </trkpt>
      <trkpt lat="42.4171400" lon="-2.4610610">
        <ele>445.2</ele>
        <time>2020-02-09T11:04:33Z</time>
      </trkpt>
      <trkpt lat="42.4171010" lon="-2.4611090">
        <ele>445.2</ele>
        <time>2020-02-09T11:04:34Z</time>
      </trkpt>
      <trkpt lat="42.4170540" lon="-2.4611480">
        <ele>445.2</ele>
        <time>2020-02-09T11:04:35Z</time>
      </trkpt>
      <trkpt lat="42.4169860" lon="-2.4611800">
        <ele>445.2</ele>
        <time>2020-02-09T11:04:36Z</time>
      </trkpt>
      <trkpt lat="42.4169340" lon="-2.4612190">
        <ele>445.2</ele>
        <time>2020-02-09T11:04:37Z</time>
      </trkpt>
      <trkpt lat="42.4168890" lon="-2.4612540">
        <ele>445.2</ele>
        <time>2020-02-09T11:04:38Z</time>
      </trkpt>
      <trkpt lat="42.4168340" lon="-2.4612970">
        <ele>445.2</ele>
        <time>2020-02-09T11:04:39Z</time>
      </trkpt>
      <trkpt lat="42.4167870" lon="-2.4613300">
        <ele>445.2</ele>
        <time>2020-02-09T11:04:40Z</time>
      </trkpt>
      <trkpt lat="42.4167360" lon="-2.4613650">
        <ele>445.2</ele>
        <time>2020-02-09T11:04:41Z</time>
      </trkpt>
      <trkpt lat="42.4166870" lon="-2.4613900">
        <ele>445.2</ele>
        <time>2020-02-09T11:04:42Z</time>
      </trkpt>
      <trkpt lat="42.4166330" lon="-2.4614300">
        <ele>445.2</ele>
        <time>2020-02-09T11:04:43Z</time>
      </trkpt>
      <trkpt lat="42.4165780" lon="-2.4614640">
        <ele>445.2</ele>
        <time>2020-02-09T11:04:44Z</time>
      </trkpt>
      <trkpt lat="42.4165230" lon="-2.4615010">
        <ele>445.2</ele>
        <time>2020-02-09T11:04:45Z</time>
      </trkpt>
      <trkpt lat="42.4164670" lon="-2.4615330">
        <ele>445.2</ele>
        <time>2020-02-09T11:04:46Z</time>
      </trkpt>
      <trkpt lat="42.4164090" lon="-2.4615600">
        <ele>445.2</ele>
        <time>2020-02-09T11:04:47Z</time>
      </trkpt>
      <trkpt lat="42.4163530" lon="-2.4615950">
        <ele>445.2</ele>
        <time>2020-02-09T11:04:48Z</time>
      </trkpt>
      <trkpt lat="42.4163040" lon="-2.4616300">
        <ele>445.2</ele>
        <time>2020-02-09T11:04:49Z</time>
      </trkpt>
      <trkpt lat="42.4162520" lon="-2.4616730">
        <ele>445.2</ele>
        <time>2020-02-09T11:04:50Z</time>
      </trkpt>
      <trkpt lat="42.4162030" lon="-2.4617160">
        <ele>445.2</ele>
        <time>2020-02-09T11:04:51Z</time>
      </trkpt>
      <trkpt lat="42.4161500" lon="-2.4617480">
        <ele>445.2</ele>
        <time>2020-02-09T11:04:52Z</time>
      </trkpt>
      <trkpt lat="42.4160930" lon="-2.4617790">
        <ele>445.2</ele>
        <time>2020-02-09T11:04:53Z</time>
      </trkpt>
      <trkpt lat="42.4160370" lon="-2.4618070">
        <ele>445.2</ele>
        <time>2020-02-09T11:04:54Z</time>
      </trkpt>
      <trkpt lat="42.4159820" lon="-2.4618360">
        <ele>445.2</ele>
        <time>2020-02-09T11:04:55Z</time>
      </trkpt>
      <trkpt lat="42.4159280" lon="-2.4618600">
        <ele>445.2</ele>
        <time>2020-02-09T11:04:56Z</time>
      </trkpt>
      <trkpt lat="42.4158720" lon="-2.4618960">
        <ele>445.2</ele>
        <time>2020-02-09T11:04:57Z</time>
      </trkpt>
      <trkpt lat="42.4158110" lon="-2.4619370">
        <ele>445.2</ele>
        <time>2020-02-09T11:04:58Z</time>
      </trkpt>
      <trkpt lat="42.4157490" lon="-2.4619750">
        <ele>445.2</ele>
        <time>2020-02-09T11:04:59Z</time>
      </trkpt>
      <trkpt lat="42.4156870" lon="-2.4620130">
        <ele>445.2</ele>
        <time>2020-02-09T11:05:00Z</time>
      </trkpt>
      <trkpt lat="42.4156380" lon="-2.4620530">
        <ele>445.2</ele>
        <time>2020-02-09T11:05:01Z</time>
      </trkpt>
      <trkpt lat="42.4155770" lon="-2.4620820">
        <ele>445.2</ele>
        <time>2020-02-09T11:05:02Z</time>
      </trkpt>
      <trkpt lat="42.4155340" lon="-2.4621130">
        <ele>445.2</ele>
        <time>2020-02-09T11:05:03Z</time>
      </trkpt>
      <trkpt lat="42.4154870" lon="-2.4621400">
        <ele>445.3</ele>
        <time>2020-02-09T11:05:04Z</time>
      </trkpt>
      <trkpt lat="42.4154400" lon="-2.4621670">
        <ele>445.3</ele>
        <time>2020-02-09T11:05:05Z</time>
      </trkpt>
      <trkpt lat="42.4153910" lon="-2.4621930">
        <ele>445.4</ele>
        <time>2020-02-09T11:05:06Z</time>
      </trkpt>
      <trkpt lat="42.4153170" lon="-2.4622480">
        <ele>445.6</ele>
        <time>2020-02-09T11:05:07Z</time>
      </trkpt>
      <trkpt lat="42.4152580" lon="-2.4622460">
        <ele>445.7</ele>
        <time>2020-02-09T11:05:08Z</time>
      </trkpt>
      <trkpt lat="42.4151910" lon="-2.4622860">
        <ele>445.9</ele>
        <time>2020-02-09T11:05:09Z</time>
      </trkpt>
      <trkpt lat="42.4151370" lon="-2.4623200">
        <ele>446.0</ele>
        <time>2020-02-09T11:05:10Z</time>
      </trkpt>
      <trkpt lat="42.4150830" lon="-2.4623540">
        <ele>446.1</ele>
        <time>2020-02-09T11:05:11Z</time>
      </trkpt>
      <trkpt lat="42.4150390" lon="-2.4624310">
        <ele>446.2</ele>
        <time>2020-02-09T11:05:12Z</time>
      </trkpt>
      <trkpt lat="42.4149880" lon="-2.4624690">
        <ele>446.2</ele>
        <time>2020-02-09T11:05:13Z</time>
      </trkpt>
      <trkpt lat="42.4149380" lon="-2.4625080">
        <ele>446.3</ele>
        <time>2020-02-09T11:05:14Z</time>
      </trkpt>
      <trkpt lat="42.4148870" lon="-2.4625470">
        <ele>446.3</ele>
        <time>2020-02-09T11:05:15Z</time>
      </trkpt>
      <trkpt lat="42.4148390" lon="-2.4625840">
        <ele>446.4</ele>
        <time>2020-02-09T11:05:16Z</time>
      </trkpt>
      <trkpt lat="42.4147720" lon="-2.4626310">
        <ele>446.6</ele>
        <time>2020-02-09T11:05:17Z</time>
      </trkpt>
      <trkpt lat="42.4147190" lon="-2.4626640">
        <ele>446.7</ele>
        <time>2020-02-09T11:05:18Z</time>
      </trkpt>
      <trkpt lat="42.4146660" lon="-2.4626980">
        <ele>446.9</ele>
        <time>2020-02-09T11:05:19Z</time>
      </trkpt>
      <trkpt lat="42.4146130" lon="-2.4627290">
        <ele>447.0</ele>
        <time>2020-02-09T11:05:20Z</time>
      </trkpt>
      <trkpt lat="42.4145580" lon="-2.4627280">
        <ele>447.0</ele>
        <time>2020-02-09T11:05:21Z</time>
      </trkpt>
      <trkpt lat="42.4144880" lon="-2.4627490">
        <ele>447.1</ele>
        <time>2020-02-09T11:05:22Z</time>
      </trkpt>
      <trkpt lat="42.4144360" lon="-2.4627790">
        <ele>447.1</ele>
        <time>2020-02-09T11:05:23Z</time>
      </trkpt>
      <trkpt lat="42.4143840" lon="-2.4628100">
        <ele>447.2</ele>
        <time>2020-02-09T11:05:24Z</time>
      </trkpt>
      <trkpt lat="42.4143340" lon="-2.4628420">
        <ele>447.2</ele>
        <time>2020-02-09T11:05:25Z</time>
      </trkpt>
      <trkpt lat="42.4142810" lon="-2.4628740">
        <ele>447.2</ele>
        <time>2020-02-09T11:05:26Z</time>
      </trkpt>
      <trkpt lat="42.4142270" lon="-2.4629010">
        <ele>447.2</ele>
        <time>2020-02-09T11:05:27Z</time>
      </trkpt>
      <trkpt lat="42.4141790" lon="-2.4629330">
        <ele>447.2</ele>
        <time>2020-02-09T11:05:28Z</time>
      </trkpt>
      <trkpt lat="42.4141390" lon="-2.4630020">
        <ele>447.2</ele>
        <time>2020-02-09T11:05:29Z</time>
      </trkpt>
      <trkpt lat="42.4140810" lon="-2.4630410">
        <ele>447.3</ele>
        <time>2020-02-09T11:05:30Z</time>
      </trkpt>
      <trkpt lat="42.4140240" lon="-2.4630790">
        <ele>447.3</ele>
        <time>2020-02-09T11:05:31Z</time>
      </trkpt>
      <trkpt lat="42.4139700" lon="-2.4631050">
        <ele>447.3</ele>
        <time>2020-02-09T11:05:32Z</time>
      </trkpt>
      <trkpt lat="42.4139110" lon="-2.4631480">
        <ele>447.4</ele>
        <time>2020-02-09T11:05:33Z</time>
      </trkpt>
      <trkpt lat="42.4138520" lon="-2.4631850">
        <ele>447.5</ele>
        <time>2020-02-09T11:05:34Z</time>
      </trkpt>
      <trkpt lat="42.4137980" lon="-2.4632230">
        <ele>447.6</ele>
        <time>2020-02-09T11:05:35Z</time>
      </trkpt>
      <trkpt lat="42.4137390" lon="-2.4632600">
        <ele>447.6</ele>
        <time>2020-02-09T11:05:36Z</time>
      </trkpt>
      <trkpt lat="42.4136950" lon="-2.4632700">
        <ele>447.7</ele>
        <time>2020-02-09T11:05:37Z</time>
      </trkpt>
      <trkpt lat="42.4136410" lon="-2.4633050">
        <ele>447.7</ele>
        <time>2020-02-09T11:05:38Z</time>
      </trkpt>
      <trkpt lat="42.4135870" lon="-2.4633400">
        <ele>447.7</ele>
        <time>2020-02-09T11:05:39Z</time>
      </trkpt>
      <trkpt lat="42.4135400" lon="-2.4633890">
        <ele>447.7</ele>
        <time>2020-02-09T11:05:40Z</time>
      </trkpt>
      <trkpt lat="42.4134870" lon="-2.4634210">
        <ele>447.7</ele>
        <time>2020-02-09T11:05:41Z</time>
      </trkpt>
      <trkpt lat="42.4134350" lon="-2.4634400">
        <ele>447.7</ele>
        <time>2020-02-09T11:05:42Z</time>
      </trkpt>
      <trkpt lat="42.4133820" lon="-2.4634730">
        <ele>447.8</ele>
        <time>2020-02-09T11:05:43Z</time>
      </trkpt>
      <trkpt lat="42.4133290" lon="-2.4635060">
        <ele>447.8</ele>
        <time>2020-02-09T11:05:44Z</time>
      </trkpt>
      <trkpt lat="42.4132720" lon="-2.4635390">
        <ele>447.9</ele>
        <time>2020-02-09T11:05:45Z</time>
      </trkpt>
      <trkpt lat="42.4132190" lon="-2.4635710">
        <ele>448.0</ele>
        <time>2020-02-09T11:05:46Z</time>
      </trkpt>
      <trkpt lat="42.4131850" lon="-2.4635520">
        <ele>448.1</ele>
        <time>2020-02-09T11:05:47Z</time>
      </trkpt>
      <trkpt lat="42.4131320" lon="-2.4635790">
        <ele>448.2</ele>
        <time>2020-02-09T11:05:48Z</time>
      </trkpt>
      <trkpt lat="42.4130800" lon="-2.4636050">
        <ele>448.4</ele>
        <time>2020-02-09T11:05:49Z</time>
      </trkpt>
      <trkpt lat="42.4130310" lon="-2.4636360">
        <ele>448.5</ele>
        <time>2020-02-09T11:05:50Z</time>
      </trkpt>
      <trkpt lat="42.4129770" lon="-2.4636630">
        <ele>448.7</ele>
        <time>2020-02-09T11:05:51Z</time>
      </trkpt>
      <trkpt lat="42.4129240" lon="-2.4636890">
        <ele>448.8</ele>
        <time>2020-02-09T11:05:52Z</time>
      </trkpt>
      <trkpt lat="42.4128700" lon="-2.4637160">
        <ele>449.0</ele>
        <time>2020-02-09T11:05:53Z</time>
      </trkpt>
      <trkpt lat="42.4128220" lon="-2.4637480">
        <ele>449.1</ele>
        <time>2020-02-09T11:05:54Z</time>
      </trkpt>
      <trkpt lat="42.4127680" lon="-2.4637750">
        <ele>449.3</ele>
        <time>2020-02-09T11:05:55Z</time>
      </trkpt>
      <trkpt lat="42.4127140" lon="-2.4638020">
        <ele>449.4</ele>
        <time>2020-02-09T11:05:56Z</time>
      </trkpt>
      <trkpt lat="42.4126610" lon="-2.4638290">
        <ele>449.5</ele>
        <time>2020-02-09T11:05:57Z</time>
      </trkpt>
      <trkpt lat="42.4126390" lon="-2.4639090">
        <ele>449.7</ele>
        <time>2020-02-09T11:05:58Z</time>
      </trkpt>
      <trkpt lat="42.4125860" lon="-2.4639420">
        <ele>449.9</ele>
        <time>2020-02-09T11:05:59Z</time>
      </trkpt>
      <trkpt lat="42.4125370" lon="-2.4639740">
        <ele>450.0</ele>
        <time>2020-02-09T11:06:00Z</time>
      </trkpt>
      <trkpt lat="42.4124940" lon="-2.4640060">
        <ele>450.1</ele>
        <time>2020-02-09T11:06:01Z</time>
      </trkpt>
      <trkpt lat="42.4124460" lon="-2.4640380">
        <ele>450.2</ele>
        <time>2020-02-09T11:06:02Z</time>
      </trkpt>
      <trkpt lat="42.4123980" lon="-2.4640700">
        <ele>450.4</ele>
        <time>2020-02-09T11:06:03Z</time>
      </trkpt>
      <trkpt lat="42.4123500" lon="-2.4641030">
        <ele>450.5</ele>
        <time>2020-02-09T11:06:04Z</time>
      </trkpt>
      <trkpt lat="42.4122880" lon="-2.4641680">
        <ele>450.6</ele>
        <time>2020-02-09T11:06:05Z</time>
      </trkpt>
      <trkpt lat="42.4122360" lon="-2.4642030">
        <ele>450.8</ele>
        <time>2020-02-09T11:06:06Z</time>
      </trkpt>
      <trkpt lat="42.4121700" lon="-2.4642260">
        <ele>451.1</ele>
        <time>2020-02-09T11:06:07Z</time>
      </trkpt>
      <trkpt lat="42.4121150" lon="-2.4642600">
        <ele>451.4</ele>
        <time>2020-02-09T11:06:08Z</time>
      </trkpt>
      <trkpt lat="42.4120650" lon="-2.4642940">
        <ele>451.7</ele>
        <time>2020-02-09T11:06:09Z</time>
      </trkpt>
      <trkpt lat="42.4120350" lon="-2.4643430">
        <ele>451.9</ele>
        <time>2020-02-09T11:06:10Z</time>
      </trkpt>
      <trkpt lat="42.4119890" lon="-2.4643750">
        <ele>452.2</ele>
        <time>2020-02-09T11:06:11Z</time>
      </trkpt>
      <trkpt lat="42.4119430" lon="-2.4644060">
        <ele>452.4</ele>
        <time>2020-02-09T11:06:12Z</time>
      </trkpt>
      <trkpt lat="42.4118990" lon="-2.4644400">
        <ele>452.5</ele>
        <time>2020-02-09T11:06:13Z</time>
      </trkpt>
      <trkpt lat="42.4118370" lon="-2.4644660">
        <ele>452.8</ele>
        <time>2020-02-09T11:06:14Z</time>
      </trkpt>
      <trkpt lat="42.4117900" lon="-2.4644950">
        <ele>453.0</ele>
        <time>2020-02-09T11:06:15Z</time>
      </trkpt>
      <trkpt lat="42.4117450" lon="-2.4645300">
        <ele>453.3</ele>
        <time>2020-02-09T11:06:16Z</time>
      </trkpt>
      <trkpt lat="42.4116960" lon="-2.4645670">
        <ele>453.6</ele>
        <time>2020-02-09T11:06:17Z</time>
      </trkpt>
      <trkpt lat="42.4116510" lon="-2.4645950">
        <ele>453.9</ele>
        <time>2020-02-09T11:06:18Z</time>
      </trkpt>
      <trkpt lat="42.4116130" lon="-2.4646300">
        <ele>454.1</ele>
        <time>2020-02-09T11:06:19Z</time>
      </trkpt>
      <trkpt lat="42.4115760" lon="-2.4646570">
        <ele>454.3</ele>
        <time>2020-02-09T11:06:20Z</time>
      </trkpt>
      <trkpt lat="42.4115350" lon="-2.4646860">
        <ele>454.4</ele>
        <time>2020-02-09T11:06:21Z</time>
      </trkpt>
      <trkpt lat="42.4115110" lon="-2.4647340">
        <ele>454.6</ele>
        <time>2020-02-09T11:06:22Z</time>
      </trkpt>
      <trkpt lat="42.4114860" lon="-2.4647820">
        <ele>454.7</ele>
        <time>2020-02-09T11:06:23Z</time>
      </trkpt>
      <trkpt lat="42.4114540" lon="-2.4648230">
        <ele>455.7</ele>
        <time>2020-02-09T11:06:24Z</time>
      </trkpt>
      <trkpt lat="42.4114580" lon="-2.4648990">
        <ele>456.1</ele>
        <time>2020-02-09T11:06:25Z</time>
      </trkpt>
      <trkpt lat="42.4114350" lon="-2.4649590">
        <ele>456.4</ele>
        <time>2020-02-09T11:06:26Z</time>
      </trkpt>
      <trkpt lat="42.4114180" lon="-2.4650200">
        <ele>457.1</ele>
        <time>2020-02-09T11:06:27Z</time>
      </trkpt>
      <trkpt lat="42.4114010" lon="-2.4650810">
        <ele>457.5</ele>
        <time>2020-02-09T11:06:28Z</time>
      </trkpt>
      <trkpt lat="42.4113840" lon="-2.4651430">
        <ele>457.9</ele>
        <time>2020-02-09T11:06:29Z</time>
      </trkpt>
      <trkpt lat="42.4114160" lon="-2.4652060">
        <ele>458.3</ele>
        <time>2020-02-09T11:06:30Z</time>
      </trkpt>
      <trkpt lat="42.4114170" lon="-2.4652720">
        <ele>458.7</ele>
        <time>2020-02-09T11:06:31Z</time>
      </trkpt>
      <trkpt lat="42.4114220" lon="-2.4653250">
        <ele>459.0</ele>
        <time>2020-02-09T11:06:32Z</time>
      </trkpt>
      <trkpt lat="42.4114430" lon="-2.4653950">
        <ele>459.1</ele>
        <time>2020-02-09T11:06:33Z</time>
      </trkpt>
      <trkpt lat="42.4114480" lon="-2.4654540">
        <ele>459.3</ele>
        <time>2020-02-09T11:06:34Z</time>
      </trkpt>
      <trkpt lat="42.4114590" lon="-2.4655080">
        <ele>459.5</ele>
        <time>2020-02-09T11:06:35Z</time>
      </trkpt>
      <trkpt lat="42.4114640" lon="-2.4655670">
        <ele>459.7</ele>
        <time>2020-02-09T11:06:36Z</time>
      </trkpt>
      <trkpt lat="42.4114750" lon="-2.4656260">
        <ele>460.0</ele>
        <time>2020-02-09T11:06:37Z</time>
      </trkpt>
      <trkpt lat="42.4114810" lon="-2.4656850">
        <ele>460.2</ele>
        <time>2020-02-09T11:06:38Z</time>
      </trkpt>
      <trkpt lat="42.4114910" lon="-2.4657390">
        <ele>460.4</ele>
        <time>2020-02-09T11:06:39Z</time>
      </trkpt>
      <trkpt lat="42.4114970" lon="-2.4657980">
        <ele>460.7</ele>
        <time>2020-02-09T11:06:40Z</time>
      </trkpt>
      <trkpt lat="42.4115070" lon="-2.4658570">
        <ele>460.8</ele>
        <time>2020-02-09T11:06:41Z</time>
      </trkpt>
      <trkpt lat="42.4115130" lon="-2.4659160">
        <ele>461.0</ele>
        <time>2020-02-09T11:06:42Z</time>
      </trkpt>
      <trkpt lat="42.4114020" lon="-2.4659450">
        <ele>461.4</ele>
        <time>2020-02-09T11:06:43Z</time>
      </trkpt>
      <trkpt lat="42.4113520" lon="-2.4659590">
        <ele>461.7</ele>
        <time>2020-02-09T11:06:44Z</time>
      </trkpt>
      <trkpt lat="42.4113030" lon="-2.4659740">
        <ele>461.7</ele>
        <time>2020-02-09T11:06:45Z</time>
      </trkpt>
      <trkpt lat="42.4112540" lon="-2.4659890">
        <ele>461.8</ele>
        <time>2020-02-09T11:06:46Z</time>
      </trkpt>
      <trkpt lat="42.4112070" lon="-2.4659960">
        <ele>461.9</ele>
        <time>2020-02-09T11:06:47Z</time>
      </trkpt>
      <trkpt lat="42.4111590" lon="-2.4660120">
        <ele>461.9</ele>
        <time>2020-02-09T11:06:48Z</time>
      </trkpt>
      <trkpt lat="42.4111100" lon="-2.4660230">
        <ele>461.9</ele>
        <time>2020-02-09T11:06:49Z</time>
      </trkpt>
      <trkpt lat="42.4110620" lon="-2.4660390">
        <ele>461.8</ele>
        <time>2020-02-09T11:06:50Z</time>
      </trkpt>
      <trkpt lat="42.4110140" lon="-2.4660500">
        <ele>461.8</ele>
        <time>2020-02-09T11:06:51Z</time>
      </trkpt>
      <trkpt lat="42.4109060" lon="-2.4659390">
        <ele>461.6</ele>
        <time>2020-02-09T11:06:52Z</time>
      </trkpt>
      <trkpt lat="42.4108520" lon="-2.4659380">
        <ele>461.4</ele>
        <time>2020-02-09T11:06:53Z</time>
      </trkpt>
      <trkpt lat="42.4107940" lon="-2.4659440">
        <ele>461.3</ele>
        <time>2020-02-09T11:06:54Z</time>
      </trkpt>
      <trkpt lat="42.4107390" lon="-2.4659340">
        <ele>461.3</ele>
        <time>2020-02-09T11:06:55Z</time>
      </trkpt>
      <trkpt lat="42.4106840" lon="-2.4659230">
        <ele>461.2</ele>
        <time>2020-02-09T11:06:56Z</time>
      </trkpt>
      <trkpt lat="42.4106280" lon="-2.4658890">
        <ele>461.2</ele>
        <time>2020-02-09T11:06:57Z</time>
      </trkpt>
      <trkpt lat="42.4105740" lon="-2.4658780">
        <ele>461.2</ele>
        <time>2020-02-09T11:06:58Z</time>
      </trkpt>
      <trkpt lat="42.4105200" lon="-2.4658670">
        <ele>461.2</ele>
        <time>2020-02-09T11:06:59Z</time>
      </trkpt>
      <trkpt lat="42.4105020" lon="-2.4659260">
        <ele>461.2</ele>
        <time>2020-02-09T11:07:00Z</time>
      </trkpt>
      <trkpt lat="42.4104160" lon="-2.4659210">
        <ele>461.2</ele>
        <time>2020-02-09T11:07:01Z</time>
      </trkpt>
      <trkpt lat="42.4103670" lon="-2.4658860">
        <ele>461.2</ele>
        <time>2020-02-09T11:07:02Z</time>
      </trkpt>
      <trkpt lat="42.4103130" lon="-2.4658840">
        <ele>461.2</ele>
        <time>2020-02-09T11:07:03Z</time>
      </trkpt>
      <trkpt lat="42.4102590" lon="-2.4658830">
        <ele>461.3</ele>
        <time>2020-02-09T11:07:04Z</time>
      </trkpt>
      <trkpt lat="42.4102040" lon="-2.4658780">
        <ele>461.3</ele>
        <time>2020-02-09T11:07:05Z</time>
      </trkpt>
      <trkpt lat="42.4101370" lon="-2.4658120">
        <ele>461.3</ele>
        <time>2020-02-09T11:07:06Z</time>
      </trkpt>
      <trkpt lat="42.4100790" lon="-2.4657950">
        <ele>461.3</ele>
        <time>2020-02-09T11:07:07Z</time>
      </trkpt>
      <trkpt lat="42.4100210" lon="-2.4657780">
        <ele>461.3</ele>
        <time>2020-02-09T11:07:08Z</time>
      </trkpt>
      <trkpt lat="42.4100090" lon="-2.4658840">
        <ele>461.4</ele>
        <time>2020-02-09T11:07:09Z</time>
      </trkpt>
      <trkpt lat="42.4099580" lon="-2.4658930">
        <ele>461.4</ele>
        <time>2020-02-09T11:07:10Z</time>
      </trkpt>
      <trkpt lat="42.4099070" lon="-2.4659020">
        <ele>461.4</ele>
        <time>2020-02-09T11:07:11Z</time>
      </trkpt>
      <trkpt lat="42.4098550" lon="-2.4659100">
        <ele>461.4</ele>
        <time>2020-02-09T11:07:12Z</time>
      </trkpt>
      <trkpt lat="42.4098020" lon="-2.4659160">
        <ele>461.4</ele>
        <time>2020-02-09T11:07:13Z</time>
      </trkpt>
      <trkpt lat="42.4097350" lon="-2.4659310">
        <ele>461.3</ele>
        <time>2020-02-09T11:07:14Z</time>
      </trkpt>
      <trkpt lat="42.4096860" lon="-2.4659400">
        <ele>461.3</ele>
        <time>2020-02-09T11:07:15Z</time>
      </trkpt>
      <trkpt lat="42.4096370" lon="-2.4659500">
        <ele>461.2</ele>
        <time>2020-02-09T11:07:16Z</time>
      </trkpt>
      <trkpt lat="42.4095570" lon="-2.4659600">
        <ele>461.0</ele>
        <time>2020-02-09T11:07:17Z</time>
      </trkpt>
      <trkpt lat="42.4095000" lon="-2.4659720">
        <ele>460.9</ele>
        <time>2020-02-09T11:07:18Z</time>
      </trkpt>
      <trkpt lat="42.4094440" lon="-2.4659840">
        <ele>460.8</ele>
        <time>2020-02-09T11:07:19Z</time>
      </trkpt>
      <trkpt lat="42.4094020" lon="-2.4659150">
        <ele>460.7</ele>
        <time>2020-02-09T11:07:20Z</time>
      </trkpt>
      <trkpt lat="42.4093470" lon="-2.4659120">
        <ele>460.7</ele>
        <time>2020-02-09T11:07:21Z</time>
      </trkpt>
      <trkpt lat="42.4092770" lon="-2.4659150">
        <ele>460.7</ele>
        <time>2020-02-09T11:07:22Z</time>
      </trkpt>
      <trkpt lat="42.4092170" lon="-2.4659100">
        <ele>460.7</ele>
        <time>2020-02-09T11:07:23Z</time>
      </trkpt>
      <trkpt lat="42.4091630" lon="-2.4659100">
        <ele>460.7</ele>
        <time>2020-02-09T11:07:24Z</time>
      </trkpt>
      <trkpt lat="42.4090150" lon="-2.4661510">
        <ele>460.7</ele>
        <time>2020-02-09T11:07:26Z</time>
      </trkpt>
      <trkpt lat="42.4089540" lon="-2.4661790">
        <ele>460.7</ele>
        <time>2020-02-09T11:07:27Z</time>
      </trkpt>
      <trkpt lat="42.4088900" lon="-2.4662110">
        <ele>460.7</ele>
        <time>2020-02-09T11:07:28Z</time>
      </trkpt>
      <trkpt lat="42.4088480" lon="-2.4662470">
        <ele>460.6</ele>
        <time>2020-02-09T11:07:29Z</time>
      </trkpt>
      <trkpt lat="42.4087890" lon="-2.4662780">
        <ele>460.6</ele>
        <time>2020-02-09T11:07:30Z</time>
      </trkpt>
      <trkpt lat="42.4087310" lon="-2.4663080">
        <ele>460.4</ele>
        <time>2020-02-09T11:07:31Z</time>
      </trkpt>
      <trkpt lat="42.4086680" lon="-2.4663780">
        <ele>460.2</ele>
        <time>2020-02-09T11:07:32Z</time>
      </trkpt>
      <trkpt lat="42.4086110" lon="-2.4664110">
        <ele>460.0</ele>
        <time>2020-02-09T11:07:33Z</time>
      </trkpt>
      <trkpt lat="42.4085680" lon="-2.4664430">
        <ele>459.9</ele>
        <time>2020-02-09T11:07:34Z</time>
      </trkpt>
      <trkpt lat="42.4085140" lon="-2.4664790">
        <ele>459.9</ele>
        <time>2020-02-09T11:07:35Z</time>
      </trkpt>
      <trkpt lat="42.4084260" lon="-2.4664620">
        <ele>459.9</ele>
        <time>2020-02-09T11:07:36Z</time>
      </trkpt>
      <trkpt lat="42.4083680" lon="-2.4664860">
        <ele>460.1</ele>
        <time>2020-02-09T11:07:37Z</time>
      </trkpt>
      <trkpt lat="42.4083100" lon="-2.4665100">
        <ele>460.3</ele>
        <time>2020-02-09T11:07:38Z</time>
      </trkpt>
      <trkpt lat="42.4082510" lon="-2.4665330">
        <ele>460.7</ele>
        <time>2020-02-09T11:07:39Z</time>
      </trkpt>
      <trkpt lat="42.4081980" lon="-2.4665590">
        <ele>460.6</ele>
        <time>2020-02-09T11:07:40Z</time>
      </trkpt>
      <trkpt lat="42.4081770" lon="-2.4666240">
        <ele>460.6</ele>
        <time>2020-02-09T11:07:41Z</time>
      </trkpt>
      <trkpt lat="42.4081240" lon="-2.4666530">
        <ele>460.5</ele>
        <time>2020-02-09T11:07:42Z</time>
      </trkpt>
      <trkpt lat="42.4080710" lon="-2.4666810">
        <ele>460.5</ele>
        <time>2020-02-09T11:07:43Z</time>
      </trkpt>
      <trkpt lat="42.4080200" lon="-2.4667100">
        <ele>460.5</ele>
        <time>2020-02-09T11:07:44Z</time>
      </trkpt>
      <trkpt lat="42.4079670" lon="-2.4667360">
        <ele>460.5</ele>
        <time>2020-02-09T11:07:45Z</time>
      </trkpt>
      <trkpt lat="42.4079130" lon="-2.4667690">
        <ele>460.5</ele>
        <time>2020-02-09T11:07:46Z</time>
      </trkpt>
      <trkpt lat="42.4078420" lon="-2.4668010">
        <ele>460.5</ele>
        <time>2020-02-09T11:07:47Z</time>
      </trkpt>
      <trkpt lat="42.4077850" lon="-2.4668320">
        <ele>460.5</ele>
        <time>2020-02-09T11:07:48Z</time>
      </trkpt>
      <trkpt lat="42.4077290" lon="-2.4668640">
        <ele>460.5</ele>
        <time>2020-02-09T11:07:49Z</time>
      </trkpt>
      <trkpt lat="42.4076720" lon="-2.4668970">
        <ele>460.4</ele>
        <time>2020-02-09T11:07:50Z</time>
      </trkpt>
      <trkpt lat="42.4076180" lon="-2.4669240">
        <ele>460.4</ele>
        <time>2020-02-09T11:07:51Z</time>
      </trkpt>
      <trkpt lat="42.4075590" lon="-2.4669560">
        <ele>460.4</ele>
        <time>2020-02-09T11:07:52Z</time>
      </trkpt>
      <trkpt lat="42.4075000" lon="-2.4669890">
        <ele>460.5</ele>
        <time>2020-02-09T11:07:53Z</time>
      </trkpt>
      <trkpt lat="42.4074810" lon="-2.4670620">
        <ele>460.5</ele>
        <time>2020-02-09T11:07:54Z</time>
      </trkpt>
      <trkpt lat="42.4074260" lon="-2.4670960">
        <ele>460.5</ele>
        <time>2020-02-09T11:07:55Z</time>
      </trkpt>
      <trkpt lat="42.4073720" lon="-2.4671290">
        <ele>460.5</ele>
        <time>2020-02-09T11:07:56Z</time>
      </trkpt>
      <trkpt lat="42.4073340" lon="-2.4671440">
        <ele>460.6</ele>
        <time>2020-02-09T11:07:57Z</time>
      </trkpt>
      <trkpt lat="42.4072800" lon="-2.4671760">
        <ele>460.6</ele>
        <time>2020-02-09T11:07:58Z</time>
      </trkpt>
      <trkpt lat="42.4072060" lon="-2.4671770">
        <ele>460.7</ele>
        <time>2020-02-09T11:07:59Z</time>
      </trkpt>
      <trkpt lat="42.4071510" lon="-2.4672030">
        <ele>460.8</ele>
        <time>2020-02-09T11:08:00Z</time>
      </trkpt>
      <trkpt lat="42.4070960" lon="-2.4672330">
        <ele>460.8</ele>
        <time>2020-02-09T11:08:01Z</time>
      </trkpt>
      <trkpt lat="42.4070210" lon="-2.4672630">
        <ele>460.9</ele>
        <time>2020-02-09T11:08:02Z</time>
      </trkpt>
      <trkpt lat="42.4069680" lon="-2.4673010">
        <ele>461.0</ele>
        <time>2020-02-09T11:08:03Z</time>
      </trkpt>
      <trkpt lat="42.4069140" lon="-2.4673490">
        <ele>461.1</ele>
        <time>2020-02-09T11:08:04Z</time>
      </trkpt>
      <trkpt lat="42.4068620" lon="-2.4673750">
        <ele>461.1</ele>
        <time>2020-02-09T11:08:05Z</time>
      </trkpt>
      <trkpt lat="42.4068030" lon="-2.4674020">
        <ele>461.2</ele>
        <time>2020-02-09T11:08:06Z</time>
      </trkpt>
      <trkpt lat="42.4067490" lon="-2.4674280">
        <ele>461.3</ele>
        <time>2020-02-09T11:08:07Z</time>
      </trkpt>
      <trkpt lat="42.4066870" lon="-2.4674320">
        <ele>461.3</ele>
        <time>2020-02-09T11:08:08Z</time>
      </trkpt>
      <trkpt lat="42.4066360" lon="-2.4674670">
        <ele>461.4</ele>
        <time>2020-02-09T11:08:09Z</time>
      </trkpt>
      <trkpt lat="42.4065820" lon="-2.4674970">
        <ele>461.4</ele>
        <time>2020-02-09T11:08:10Z</time>
      </trkpt>
      <trkpt lat="42.4065290" lon="-2.4675250">
        <ele>461.4</ele>
        <time>2020-02-09T11:08:11Z</time>
      </trkpt>
      <trkpt lat="42.4064650" lon="-2.4675270">
        <ele>461.3</ele>
        <time>2020-02-09T11:08:12Z</time>
      </trkpt>
      <trkpt lat="42.4064080" lon="-2.4675520">
        <ele>461.3</ele>
        <time>2020-02-09T11:08:13Z</time>
      </trkpt>
      <trkpt lat="42.4063520" lon="-2.4675780">
        <ele>461.2</ele>
        <time>2020-02-09T11:08:14Z</time>
      </trkpt>
      <trkpt lat="42.4062990" lon="-2.4676000">
        <ele>461.2</ele>
        <time>2020-02-09T11:08:15Z</time>
      </trkpt>
      <trkpt lat="42.4062400" lon="-2.4676270">
        <ele>461.1</ele>
        <time>2020-02-09T11:08:16Z</time>
      </trkpt>
      <trkpt lat="42.4062130" lon="-2.4676660">
        <ele>461.1</ele>
        <time>2020-02-09T11:08:17Z</time>
      </trkpt>
      <trkpt lat="42.4061520" lon="-2.4676750">
        <ele>461.0</ele>
        <time>2020-02-09T11:08:18Z</time>
      </trkpt>
      <trkpt lat="42.4060870" lon="-2.4677300">
        <ele>461.0</ele>
        <time>2020-02-09T11:08:19Z</time>
      </trkpt>
      <trkpt lat="42.4060340" lon="-2.4677540">
        <ele>460.9</ele>
        <time>2020-02-09T11:08:20Z</time>
      </trkpt>
      <trkpt lat="42.4059810" lon="-2.4677790">
        <ele>460.9</ele>
        <time>2020-02-09T11:08:21Z</time>
      </trkpt>
      <trkpt lat="42.4059280" lon="-2.4678040">
        <ele>460.9</ele>
        <time>2020-02-09T11:08:22Z</time>
      </trkpt>
      <trkpt lat="42.4058750" lon="-2.4678250">
        <ele>460.9</ele>
        <time>2020-02-09T11:08:23Z</time>
      </trkpt>
      <trkpt lat="42.4058210" lon="-2.4678520">
        <ele>460.9</ele>
        <time>2020-02-09T11:08:24Z</time>
      </trkpt>
      <trkpt lat="42.4057730" lon="-2.4678790">
        <ele>460.9</ele>
        <time>2020-02-09T11:08:25Z</time>
      </trkpt>
      <trkpt lat="42.4057040" lon="-2.4679490">
        <ele>460.9</ele>
        <time>2020-02-09T11:08:26Z</time>
      </trkpt>
      <trkpt lat="42.4056480" lon="-2.4679790">
        <ele>460.9</ele>
        <time>2020-02-09T11:08:27Z</time>
      </trkpt>
      <trkpt lat="42.4055680" lon="-2.4680460">
        <ele>460.9</ele>
        <time>2020-02-09T11:08:28Z</time>
      </trkpt>
      <trkpt lat="42.4055110" lon="-2.4680640">
        <ele>460.8</ele>
        <time>2020-02-09T11:08:29Z</time>
      </trkpt>
      <trkpt lat="42.4054520" lon="-2.4680950">
        <ele>460.7</ele>
        <time>2020-02-09T11:08:30Z</time>
      </trkpt>
      <trkpt lat="42.4053940" lon="-2.4681260">
        <ele>460.5</ele>
        <time>2020-02-09T11:08:31Z</time>
      </trkpt>
      <trkpt lat="42.4053330" lon="-2.4681580">
        <ele>460.4</ele>
        <time>2020-02-09T11:08:32Z</time>
      </trkpt>
      <trkpt lat="42.4052650" lon="-2.4682170">
        <ele>460.3</ele>
        <time>2020-02-09T11:08:33Z</time>
      </trkpt>
      <trkpt lat="42.4052050" lon="-2.4682510">
        <ele>460.2</ele>
        <time>2020-02-09T11:08:34Z</time>
      </trkpt>
      <trkpt lat="42.4051410" lon="-2.4682660">
        <ele>460.1</ele>
        <time>2020-02-09T11:08:35Z</time>
      </trkpt>
      <trkpt lat="42.4050840" lon="-2.4682750">
        <ele>460.0</ele>
        <time>2020-02-09T11:08:36Z</time>
      </trkpt>
      <trkpt lat="42.4050350" lon="-2.4682950">
        <ele>460.0</ele>
        <time>2020-02-09T11:08:37Z</time>
      </trkpt>
      <trkpt lat="42.4049950" lon="-2.4683080">
        <ele>460.0</ele>
        <time>2020-02-09T11:08:38Z</time>
      </trkpt>
      <trkpt lat="42.4049360" lon="-2.4683290">
        <ele>460.0</ele>
        <time>2020-02-09T11:08:39Z</time>
      </trkpt>
      <trkpt lat="42.4048830" lon="-2.4683560">
        <ele>460.0</ele>
        <time>2020-02-09T11:08:40Z</time>
      </trkpt>
      <trkpt lat="42.4048300" lon="-2.4683940">
        <ele>460.0</ele>
        <time>2020-02-09T11:08:41Z</time>
      </trkpt>
      <trkpt lat="42.4047750" lon="-2.4684170">
        <ele>460.0</ele>
        <time>2020-02-09T11:08:42Z</time>
      </trkpt>
      <trkpt lat="42.4047210" lon="-2.4684320">
        <ele>460.0</ele>
        <time>2020-02-09T11:08:43Z</time>
      </trkpt>
      <trkpt lat="42.4046620" lon="-2.4684740">
        <ele>460.0</ele>
        <time>2020-02-09T11:08:44Z</time>
      </trkpt>
      <trkpt lat="42.4046120" lon="-2.4684890">
        <ele>460.0</ele>
        <time>2020-02-09T11:08:45Z</time>
      </trkpt>
      <trkpt lat="42.4045530" lon="-2.4685120">
        <ele>460.0</ele>
        <time>2020-02-09T11:08:46Z</time>
      </trkpt>
      <trkpt lat="42.4044970" lon="-2.4685450">
        <ele>460.0</ele>
        <time>2020-02-09T11:08:47Z</time>
      </trkpt>
      <trkpt lat="42.4044420" lon="-2.4685530">
        <ele>460.0</ele>
        <time>2020-02-09T11:08:48Z</time>
      </trkpt>
      <trkpt lat="42.4043730" lon="-2.4685980">
        <ele>460.0</ele>
        <time>2020-02-09T11:08:49Z</time>
      </trkpt>
      <trkpt lat="42.4043150" lon="-2.4686300">
        <ele>460.1</ele>
        <time>2020-02-09T11:08:50Z</time>
      </trkpt>
      <trkpt lat="42.4042640" lon="-2.4686650">
        <ele>460.1</ele>
        <time>2020-02-09T11:08:51Z</time>
      </trkpt>
      <trkpt lat="42.4042100" lon="-2.4687010">
        <ele>460.1</ele>
        <time>2020-02-09T11:08:52Z</time>
      </trkpt>
      <trkpt lat="42.4041450" lon="-2.4687500">
        <ele>460.1</ele>
        <time>2020-02-09T11:08:53Z</time>
      </trkpt>
      <trkpt lat="42.4041030" lon="-2.4687800">
        <ele>460.1</ele>
        <time>2020-02-09T11:08:54Z</time>
      </trkpt>
      <trkpt lat="42.4040490" lon="-2.4688090">
        <ele>460.1</ele>
        <time>2020-02-09T11:08:55Z</time>
      </trkpt>
      <trkpt lat="42.4039920" lon="-2.4688300">
        <ele>460.1</ele>
        <time>2020-02-09T11:08:56Z</time>
      </trkpt>
      <trkpt lat="42.4039340" lon="-2.4688680">
        <ele>460.1</ele>
        <time>2020-02-09T11:08:57Z</time>
      </trkpt>
      <trkpt lat="42.4038760" lon="-2.4689000">
        <ele>460.1</ele>
        <time>2020-02-09T11:08:58Z</time>
      </trkpt>
      <trkpt lat="42.4038150" lon="-2.4689310">
        <ele>460.1</ele>
        <time>2020-02-09T11:08:59Z</time>
      </trkpt>
      <trkpt lat="42.4037620" lon="-2.4689640">
        <ele>460.1</ele>
        <time>2020-02-09T11:09:00Z</time>
      </trkpt>
      <trkpt lat="42.4037010" lon="-2.4689950">
        <ele>460.1</ele>
        <time>2020-02-09T11:09:01Z</time>
      </trkpt>
      <trkpt lat="42.4036470" lon="-2.4690290">
        <ele>460.1</ele>
        <time>2020-02-09T11:09:02Z</time>
      </trkpt>
      <trkpt lat="42.4035890" lon="-2.4690590">
        <ele>460.1</ele>
        <time>2020-02-09T11:09:03Z</time>
      </trkpt>
      <trkpt lat="42.4035360" lon="-2.4690970">
        <ele>460.1</ele>
        <time>2020-02-09T11:09:04Z</time>
      </trkpt>
      <trkpt lat="42.4034770" lon="-2.4691290">
        <ele>460.2</ele>
        <time>2020-02-09T11:09:05Z</time>
      </trkpt>
      <trkpt lat="42.4034230" lon="-2.4691610">
        <ele>460.2</ele>
        <time>2020-02-09T11:09:06Z</time>
      </trkpt>
      <trkpt lat="42.4033920" lon="-2.4691870">
        <ele>460.2</ele>
        <time>2020-02-09T11:09:07Z</time>
      </trkpt>
      <trkpt lat="42.4033370" lon="-2.4692180">
        <ele>460.2</ele>
        <time>2020-02-09T11:09:08Z</time>
      </trkpt>
      <trkpt lat="42.4032830" lon="-2.4692490">
        <ele>460.2</ele>
        <time>2020-02-09T11:09:09Z</time>
      </trkpt>
      <trkpt lat="42.4032300" lon="-2.4692850">
        <ele>460.2</ele>
        <time>2020-02-09T11:09:10Z</time>
      </trkpt>
      <trkpt lat="42.4031710" lon="-2.4693110">
        <ele>460.2</ele>
        <time>2020-02-09T11:09:11Z</time>
      </trkpt>
      <trkpt lat="42.4031170" lon="-2.4693440">
        <ele>460.2</ele>
        <time>2020-02-09T11:09:12Z</time>
      </trkpt>
      <trkpt lat="42.4030640" lon="-2.4693760">
        <ele>460.2</ele>
        <time>2020-02-09T11:09:13Z</time>
      </trkpt>
      <trkpt lat="42.4030100" lon="-2.4694080">
        <ele>460.3</ele>
        <time>2020-02-09T11:09:14Z</time>
      </trkpt>
      <trkpt lat="42.4029510" lon="-2.4694400">
        <ele>460.3</ele>
        <time>2020-02-09T11:09:15Z</time>
      </trkpt>
      <trkpt lat="42.4028970" lon="-2.4694670">
        <ele>460.4</ele>
        <time>2020-02-09T11:09:16Z</time>
      </trkpt>
      <trkpt lat="42.4028440" lon="-2.4694990">
        <ele>460.5</ele>
        <time>2020-02-09T11:09:17Z</time>
      </trkpt>
      <trkpt lat="42.4027900" lon="-2.4695310">
        <ele>460.7</ele>
        <time>2020-02-09T11:09:18Z</time>
      </trkpt>
      <trkpt lat="42.4027310" lon="-2.4695630">
        <ele>460.9</ele>
        <time>2020-02-09T11:09:19Z</time>
      </trkpt>
      <trkpt lat="42.4026080" lon="-2.4695900">
        <ele>461.1</ele>
        <time>2020-02-09T11:09:21Z</time>
      </trkpt>
      <trkpt lat="42.4025410" lon="-2.4696210">
        <ele>461.2</ele>
        <time>2020-02-09T11:09:22Z</time>
      </trkpt>
      <trkpt lat="42.4024900" lon="-2.4696480">
        <ele>461.2</ele>
        <time>2020-02-09T11:09:23Z</time>
      </trkpt>
      <trkpt lat="42.4024360" lon="-2.4696600">
        <ele>461.3</ele>
        <time>2020-02-09T11:09:24Z</time>
      </trkpt>
      <trkpt lat="42.4023770" lon="-2.4696870">
        <ele>461.3</ele>
        <time>2020-02-09T11:09:25Z</time>
      </trkpt>
      <trkpt lat="42.4023130" lon="-2.4697060">
        <ele>461.3</ele>
        <time>2020-02-09T11:09:26Z</time>
      </trkpt>
      <trkpt lat="42.4022660" lon="-2.4697540">
        <ele>461.3</ele>
        <time>2020-02-09T11:09:27Z</time>
      </trkpt>
      <trkpt lat="42.4022050" lon="-2.4697760">
        <ele>461.3</ele>
        <time>2020-02-09T11:09:28Z</time>
      </trkpt>
      <trkpt lat="42.4021530" lon="-2.4697970">
        <ele>461.3</ele>
        <time>2020-02-09T11:09:29Z</time>
      </trkpt>
      <trkpt lat="42.4021050" lon="-2.4698380">
        <ele>461.3</ele>
        <time>2020-02-09T11:09:30Z</time>
      </trkpt>
      <trkpt lat="42.4020450" lon="-2.4698690">
        <ele>461.3</ele>
        <time>2020-02-09T11:09:31Z</time>
      </trkpt>
      <trkpt lat="42.4019900" lon="-2.4698880">
        <ele>461.3</ele>
        <time>2020-02-09T11:09:32Z</time>
      </trkpt>
      <trkpt lat="42.4019300" lon="-2.4699250">
        <ele>461.3</ele>
        <time>2020-02-09T11:09:33Z</time>
      </trkpt>
      <trkpt lat="42.4018780" lon="-2.4699520">
        <ele>461.3</ele>
        <time>2020-02-09T11:09:34Z</time>
      </trkpt>
      <trkpt lat="42.4018120" lon="-2.4700030">
        <ele>461.3</ele>
        <time>2020-02-09T11:09:35Z</time>
      </trkpt>
      <trkpt lat="42.4017550" lon="-2.4700360">
        <ele>461.4</ele>
        <time>2020-02-09T11:09:36Z</time>
      </trkpt>
      <trkpt lat="42.4017120" lon="-2.4700570">
        <ele>461.4</ele>
        <time>2020-02-09T11:09:37Z</time>
      </trkpt>
      <trkpt lat="42.4016590" lon="-2.4700890">
        <ele>461.4</ele>
        <time>2020-02-09T11:09:38Z</time>
      </trkpt>
      <trkpt lat="42.4016060" lon="-2.4701210">
        <ele>461.4</ele>
        <time>2020-02-09T11:09:39Z</time>
      </trkpt>
      <trkpt lat="42.4015510" lon="-2.4701540">
        <ele>461.4</ele>
        <time>2020-02-09T11:09:40Z</time>
      </trkpt>
      <trkpt lat="42.4014970" lon="-2.4701860">
        <ele>461.5</ele>
        <time>2020-02-09T11:09:41Z</time>
      </trkpt>
      <trkpt lat="42.4014440" lon="-2.4702180">
        <ele>461.5</ele>
        <time>2020-02-09T11:09:42Z</time>
      </trkpt>
      <trkpt lat="42.4013950" lon="-2.4702500">
        <ele>461.6</ele>
        <time>2020-02-09T11:09:43Z</time>
      </trkpt>
      <trkpt lat="42.4013320" lon="-2.4701980">
        <ele>461.7</ele>
        <time>2020-02-09T11:09:44Z</time>
      </trkpt>
      <trkpt lat="42.4012740" lon="-2.4702230">
        <ele>461.7</ele>
        <time>2020-02-09T11:09:45Z</time>
      </trkpt>
      <trkpt lat="42.4012150" lon="-2.4702450">
        <ele>461.8</ele>
        <time>2020-02-09T11:09:46Z</time>
      </trkpt>
      <trkpt lat="42.4011490" lon="-2.4702720">
        <ele>461.9</ele>
        <time>2020-02-09T11:09:47Z</time>
      </trkpt>
      <trkpt lat="42.4010900" lon="-2.4702930">
        <ele>462.0</ele>
        <time>2020-02-09T11:09:48Z</time>
      </trkpt>
      <trkpt lat="42.4010250" lon="-2.4703200">
        <ele>462.0</ele>
        <time>2020-02-09T11:09:49Z</time>
      </trkpt>
      <trkpt lat="42.4009660" lon="-2.4703410">
        <ele>462.0</ele>
        <time>2020-02-09T11:09:50Z</time>
      </trkpt>
      <trkpt lat="42.4009070" lon="-2.4703680">
        <ele>462.0</ele>
        <time>2020-02-09T11:09:51Z</time>
      </trkpt>
      <trkpt lat="42.4008430" lon="-2.4703900">
        <ele>462.1</ele>
        <time>2020-02-09T11:09:52Z</time>
      </trkpt>
      <trkpt lat="42.4008380" lon="-2.4704860">
        <ele>462.1</ele>
        <time>2020-02-09T11:09:53Z</time>
      </trkpt>
      <trkpt lat="42.4007830" lon="-2.4705170">
        <ele>462.2</ele>
        <time>2020-02-09T11:09:54Z</time>
      </trkpt>
      <trkpt lat="42.4007280" lon="-2.4705470">
        <ele>462.3</ele>
        <time>2020-02-09T11:09:55Z</time>
      </trkpt>
      <trkpt lat="42.4006620" lon="-2.4705880">
        <ele>462.4</ele>
        <time>2020-02-09T11:09:56Z</time>
      </trkpt>
      <trkpt lat="42.4006240" lon="-2.4706290">
        <ele>462.5</ele>
        <time>2020-02-09T11:09:57Z</time>
      </trkpt>
      <trkpt lat="42.4005690" lon="-2.4706450">
        <ele>462.6</ele>
        <time>2020-02-09T11:09:58Z</time>
      </trkpt>
      <trkpt lat="42.4005210" lon="-2.4706730">
        <ele>462.7</ele>
        <time>2020-02-09T11:09:59Z</time>
      </trkpt>
      <trkpt lat="42.4004720" lon="-2.4707040">
        <ele>462.8</ele>
        <time>2020-02-09T11:10:00Z</time>
      </trkpt>
      <trkpt lat="42.4004210" lon="-2.4707330">
        <ele>462.8</ele>
        <time>2020-02-09T11:10:01Z</time>
      </trkpt>
      <trkpt lat="42.4003710" lon="-2.4707630">
        <ele>462.8</ele>
        <time>2020-02-09T11:10:02Z</time>
      </trkpt>
      <trkpt lat="42.4003230" lon="-2.4707920">
        <ele>462.9</ele>
        <time>2020-02-09T11:10:03Z</time>
      </trkpt>
      <trkpt lat="42.4002820" lon="-2.4708220">
        <ele>462.9</ele>
        <time>2020-02-09T11:10:04Z</time>
      </trkpt>
      <trkpt lat="42.4002240" lon="-2.4708550">
        <ele>462.9</ele>
        <time>2020-02-09T11:10:05Z</time>
      </trkpt>
      <trkpt lat="42.4001770" lon="-2.4708850">
        <ele>462.9</ele>
        <time>2020-02-09T11:10:06Z</time>
      </trkpt>
      <trkpt lat="42.4001290" lon="-2.4709150">
        <ele>462.9</ele>
        <time>2020-02-09T11:10:07Z</time>
      </trkpt>
      <trkpt lat="42.4000760" lon="-2.4709480">
        <ele>462.9</ele>
        <time>2020-02-09T11:10:08Z</time>
      </trkpt>
      <trkpt lat="42.4000280" lon="-2.4709740">
        <ele>462.9</ele>
        <time>2020-02-09T11:10:09Z</time>
      </trkpt>
      <trkpt lat="42.3999200" lon="-2.4709420">
        <ele>463.0</ele>
        <time>2020-02-09T11:10:10Z</time>
      </trkpt>
      <trkpt lat="42.3998620" lon="-2.4709640">
        <ele>463.0</ele>
        <time>2020-02-09T11:10:11Z</time>
      </trkpt>
      <trkpt lat="42.3998040" lon="-2.4709850">
        <ele>463.1</ele>
        <time>2020-02-09T11:10:12Z</time>
      </trkpt>
      <trkpt lat="42.3997380" lon="-2.4710220">
        <ele>463.2</ele>
        <time>2020-02-09T11:10:13Z</time>
      </trkpt>
      <trkpt lat="42.3996830" lon="-2.4710430">
        <ele>463.2</ele>
        <time>2020-02-09T11:10:14Z</time>
      </trkpt>
      <trkpt lat="42.3996270" lon="-2.4710640">
        <ele>463.3</ele>
        <time>2020-02-09T11:10:15Z</time>
      </trkpt>
      <trkpt lat="42.3995720" lon="-2.4710870">
        <ele>463.4</ele>
        <time>2020-02-09T11:10:16Z</time>
      </trkpt>
      <trkpt lat="42.3995180" lon="-2.4711080">
        <ele>463.5</ele>
        <time>2020-02-09T11:10:17Z</time>
      </trkpt>
      <trkpt lat="42.3994590" lon="-2.4711300">
        <ele>463.5</ele>
        <time>2020-02-09T11:10:18Z</time>
      </trkpt>
      <trkpt lat="42.3994810" lon="-2.4712030">
        <ele>463.6</ele>
        <time>2020-02-09T11:10:19Z</time>
      </trkpt>
      <trkpt lat="42.3994330" lon="-2.4712350">
        <ele>463.7</ele>
        <time>2020-02-09T11:10:20Z</time>
      </trkpt>
      <trkpt lat="42.3993600" lon="-2.4712710">
        <ele>463.7</ele>
        <time>2020-02-09T11:10:21Z</time>
      </trkpt>
      <trkpt lat="42.3992940" lon="-2.4713140">
        <ele>463.8</ele>
        <time>2020-02-09T11:10:22Z</time>
      </trkpt>
      <trkpt lat="42.3992550" lon="-2.4713350">
        <ele>463.8</ele>
        <time>2020-02-09T11:10:23Z</time>
      </trkpt>
      <trkpt lat="42.3992060" lon="-2.4713780">
        <ele>463.9</ele>
        <time>2020-02-09T11:10:24Z</time>
      </trkpt>
      <trkpt lat="42.3991570" lon="-2.4714110">
        <ele>464.0</ele>
        <time>2020-02-09T11:10:25Z</time>
      </trkpt>
      <trkpt lat="42.3991050" lon="-2.4714410">
        <ele>464.1</ele>
        <time>2020-02-09T11:10:26Z</time>
      </trkpt>
      <trkpt lat="42.3990570" lon="-2.4714620">
        <ele>464.3</ele>
        <time>2020-02-09T11:10:27Z</time>
      </trkpt>
      <trkpt lat="42.3989730" lon="-2.4715140">
        <ele>464.8</ele>
        <time>2020-02-09T11:10:28Z</time>
      </trkpt>
      <trkpt lat="42.3989110" lon="-2.4715470">
        <ele>465.1</ele>
        <time>2020-02-09T11:10:29Z</time>
      </trkpt>
      <trkpt lat="42.3988590" lon="-2.4715760">
        <ele>465.3</ele>
        <time>2020-02-09T11:10:30Z</time>
      </trkpt>
      <trkpt lat="42.3987990" lon="-2.4715970">
        <ele>465.5</ele>
        <time>2020-02-09T11:10:31Z</time>
      </trkpt>
      <trkpt lat="42.3987470" lon="-2.4716350">
        <ele>465.7</ele>
        <time>2020-02-09T11:10:32Z</time>
      </trkpt>
      <trkpt lat="42.3986800" lon="-2.4716680">
        <ele>465.8</ele>
        <time>2020-02-09T11:10:33Z</time>
      </trkpt>
      <trkpt lat="42.3986240" lon="-2.4716990">
        <ele>465.8</ele>
        <time>2020-02-09T11:10:34Z</time>
      </trkpt>
      <trkpt lat="42.3985680" lon="-2.4717310">
        <ele>465.7</ele>
        <time>2020-02-09T11:10:35Z</time>
      </trkpt>
      <trkpt lat="42.3985150" lon="-2.4717630">
        <ele>465.6</ele>
        <time>2020-02-09T11:10:36Z</time>
      </trkpt>
      <trkpt lat="42.3984560" lon="-2.4717950">
        <ele>465.5</ele>
        <time>2020-02-09T11:10:37Z</time>
      </trkpt>
      <trkpt lat="42.3984020" lon="-2.4718220">
        <ele>465.4</ele>
        <time>2020-02-09T11:10:38Z</time>
      </trkpt>
      <trkpt lat="42.3983480" lon="-2.4718540">
        <ele>465.3</ele>
        <time>2020-02-09T11:10:39Z</time>
      </trkpt>
      <trkpt lat="42.3982890" lon="-2.4718860">
        <ele>465.2</ele>
        <time>2020-02-09T11:10:40Z</time>
      </trkpt>
      <trkpt lat="42.3982360" lon="-2.4719180">
        <ele>465.2</ele>
        <time>2020-02-09T11:10:41Z</time>
      </trkpt>
      <trkpt lat="42.3981820" lon="-2.4719450">
        <ele>465.2</ele>
        <time>2020-02-09T11:10:42Z</time>
      </trkpt>
      <trkpt lat="42.3981230" lon="-2.4719770">
        <ele>465.2</ele>
        <time>2020-02-09T11:10:43Z</time>
      </trkpt>
      <trkpt lat="42.3980700" lon="-2.4720100">
        <ele>465.2</ele>
        <time>2020-02-09T11:10:44Z</time>
      </trkpt>
      <trkpt lat="42.3980750" lon="-2.4718700">
        <ele>465.2</ele>
        <time>2020-02-09T11:10:45Z</time>
      </trkpt>
      <trkpt lat="42.3980270" lon="-2.4718850">
        <ele>465.2</ele>
        <time>2020-02-09T11:10:46Z</time>
      </trkpt>
      <trkpt lat="42.3979800" lon="-2.4719000">
        <ele>465.2</ele>
        <time>2020-02-09T11:10:47Z</time>
      </trkpt>
      <trkpt lat="42.3979140" lon="-2.4718920">
        <ele>465.2</ele>
        <time>2020-02-09T11:10:48Z</time>
      </trkpt>
      <trkpt lat="42.3978750" lon="-2.4720760">
        <ele>465.2</ele>
        <time>2020-02-09T11:10:49Z</time>
      </trkpt>
      <trkpt lat="42.3978160" lon="-2.4721390">
        <ele>465.2</ele>
        <time>2020-02-09T11:10:50Z</time>
      </trkpt>
      <trkpt lat="42.3977530" lon="-2.4721960">
        <ele>465.2</ele>
        <time>2020-02-09T11:10:51Z</time>
      </trkpt>
      <trkpt lat="42.3976930" lon="-2.4722180">
        <ele>465.3</ele>
        <time>2020-02-09T11:10:52Z</time>
      </trkpt>
      <trkpt lat="42.3976400" lon="-2.4722500">
        <ele>465.3</ele>
        <time>2020-02-09T11:10:53Z</time>
      </trkpt>
      <trkpt lat="42.3975930" lon="-2.4722810">
        <ele>465.3</ele>
        <time>2020-02-09T11:10:54Z</time>
      </trkpt>
      <trkpt lat="42.3975330" lon="-2.4723260">
        <ele>465.3</ele>
        <time>2020-02-09T11:10:55Z</time>
      </trkpt>
      <trkpt lat="42.3974680" lon="-2.4723050">
        <ele>465.3</ele>
        <time>2020-02-09T11:10:56Z</time>
      </trkpt>
      <trkpt lat="42.3974200" lon="-2.4723290">
        <ele>465.3</ele>
        <time>2020-02-09T11:10:57Z</time>
      </trkpt>
      <trkpt lat="42.3973530" lon="-2.4723740">
        <ele>465.3</ele>
        <time>2020-02-09T11:10:58Z</time>
      </trkpt>
      <trkpt lat="42.3972890" lon="-2.4724060">
        <ele>465.3</ele>
        <time>2020-02-09T11:10:59Z</time>
      </trkpt>
      <trkpt lat="42.3972320" lon="-2.4724410">
        <ele>465.4</ele>
        <time>2020-02-09T11:11:00Z</time>
      </trkpt>
      <trkpt lat="42.3971680" lon="-2.4724740">
        <ele>465.5</ele>
        <time>2020-02-09T11:11:01Z</time>
      </trkpt>
      <trkpt lat="42.3971090" lon="-2.4725060">
        <ele>465.7</ele>
        <time>2020-02-09T11:11:02Z</time>
      </trkpt>
      <trkpt lat="42.3970570" lon="-2.4725250">
        <ele>465.8</ele>
        <time>2020-02-09T11:11:03Z</time>
      </trkpt>
      <trkpt lat="42.3970060" lon="-2.4725540">
        <ele>466.0</ele>
        <time>2020-02-09T11:11:04Z</time>
      </trkpt>
      <trkpt lat="42.3969580" lon="-2.4725820">
        <ele>466.1</ele>
        <time>2020-02-09T11:11:05Z</time>
      </trkpt>
      <trkpt lat="42.3969010" lon="-2.4726130">
        <ele>466.2</ele>
        <time>2020-02-09T11:11:06Z</time>
      </trkpt>
      <trkpt lat="42.3968390" lon="-2.4726360">
        <ele>466.2</ele>
        <time>2020-02-09T11:11:07Z</time>
      </trkpt>
      <trkpt lat="42.3967850" lon="-2.4726810">
        <ele>466.3</ele>
        <time>2020-02-09T11:11:08Z</time>
      </trkpt>
      <trkpt lat="42.3967220" lon="-2.4727290">
        <ele>466.3</ele>
        <time>2020-02-09T11:11:09Z</time>
      </trkpt>
      <trkpt lat="42.3966670" lon="-2.4727560">
        <ele>466.3</ele>
        <time>2020-02-09T11:11:10Z</time>
      </trkpt>
      <trkpt lat="42.3966130" lon="-2.4727840">
        <ele>466.3</ele>
        <time>2020-02-09T11:11:11Z</time>
      </trkpt>
      <trkpt lat="42.3965710" lon="-2.4728340">
        <ele>466.3</ele>
        <time>2020-02-09T11:11:12Z</time>
      </trkpt>
      <trkpt lat="42.3965270" lon="-2.4728550">
        <ele>466.3</ele>
        <time>2020-02-09T11:11:13Z</time>
      </trkpt>
      <trkpt lat="42.3964660" lon="-2.4728810">
        <ele>466.4</ele>
        <time>2020-02-09T11:11:14Z</time>
      </trkpt>
      <trkpt lat="42.3964160" lon="-2.4729210">
        <ele>466.4</ele>
        <time>2020-02-09T11:11:15Z</time>
      </trkpt>
      <trkpt lat="42.3963630" lon="-2.4729510">
        <ele>466.5</ele>
        <time>2020-02-09T11:11:16Z</time>
      </trkpt>
      <trkpt lat="42.3963060" lon="-2.4729830">
        <ele>466.6</ele>
        <time>2020-02-09T11:11:17Z</time>
      </trkpt>
      <trkpt lat="42.3962500" lon="-2.4730150">
        <ele>466.7</ele>
        <time>2020-02-09T11:11:18Z</time>
      </trkpt>
      <trkpt lat="42.3961920" lon="-2.4730580">
        <ele>466.9</ele>
        <time>2020-02-09T11:11:19Z</time>
      </trkpt>
      <trkpt lat="42.3961400" lon="-2.4730820">
        <ele>467.0</ele>
        <time>2020-02-09T11:11:20Z</time>
      </trkpt>
      <trkpt lat="42.3960810" lon="-2.4730810">
        <ele>467.2</ele>
        <time>2020-02-09T11:11:21Z</time>
      </trkpt>
      <trkpt lat="42.3960170" lon="-2.4731330">
        <ele>467.3</ele>
        <time>2020-02-09T11:11:22Z</time>
      </trkpt>
      <trkpt lat="42.3959570" lon="-2.4731520">
        <ele>467.3</ele>
        <time>2020-02-09T11:11:23Z</time>
      </trkpt>
      <trkpt lat="42.3959120" lon="-2.4731860">
        <ele>467.4</ele>
        <time>2020-02-09T11:11:24Z</time>
      </trkpt>
      <trkpt lat="42.3958590" lon="-2.4732170">
        <ele>467.4</ele>
        <time>2020-02-09T11:11:25Z</time>
      </trkpt>
      <trkpt lat="42.3958060" lon="-2.4732460">
        <ele>467.4</ele>
        <time>2020-02-09T11:11:26Z</time>
      </trkpt>
      <trkpt lat="42.3957520" lon="-2.4732760">
        <ele>467.5</ele>
        <time>2020-02-09T11:11:27Z</time>
      </trkpt>
      <trkpt lat="42.3957130" lon="-2.4733220">
        <ele>467.6</ele>
        <time>2020-02-09T11:11:28Z</time>
      </trkpt>
      <trkpt lat="42.3956640" lon="-2.4733610">
        <ele>467.7</ele>
        <time>2020-02-09T11:11:29Z</time>
      </trkpt>
      <trkpt lat="42.3956130" lon="-2.4733960">
        <ele>467.9</ele>
        <time>2020-02-09T11:11:30Z</time>
      </trkpt>
      <trkpt lat="42.3955490" lon="-2.4734330">
        <ele>468.1</ele>
        <time>2020-02-09T11:11:31Z</time>
      </trkpt>
      <trkpt lat="42.3954950" lon="-2.4734690">
        <ele>468.4</ele>
        <time>2020-02-09T11:11:32Z</time>
      </trkpt>
      <trkpt lat="42.3954410" lon="-2.4735060">
        <ele>468.6</ele>
        <time>2020-02-09T11:11:33Z</time>
      </trkpt>
      <trkpt lat="42.3953870" lon="-2.4735390">
        <ele>468.8</ele>
        <time>2020-02-09T11:11:34Z</time>
      </trkpt>
      <trkpt lat="42.3953210" lon="-2.4735630">
        <ele>469.0</ele>
        <time>2020-02-09T11:11:35Z</time>
      </trkpt>
      <trkpt lat="42.3952540" lon="-2.4735930">
        <ele>469.2</ele>
        <time>2020-02-09T11:11:36Z</time>
      </trkpt>
      <trkpt lat="42.3951930" lon="-2.4735700">
        <ele>469.3</ele>
        <time>2020-02-09T11:11:37Z</time>
      </trkpt>
      <trkpt lat="42.3951360" lon="-2.4735940">
        <ele>469.4</ele>
        <time>2020-02-09T11:11:38Z</time>
      </trkpt>
      <trkpt lat="42.3950930" lon="-2.4736310">
        <ele>469.4</ele>
        <time>2020-02-09T11:11:39Z</time>
      </trkpt>
      <trkpt lat="42.3950250" lon="-2.4736480">
        <ele>469.4</ele>
        <time>2020-02-09T11:11:40Z</time>
      </trkpt>
      <trkpt lat="42.3949660" lon="-2.4736700">
        <ele>469.5</ele>
        <time>2020-02-09T11:11:41Z</time>
      </trkpt>
      <trkpt lat="42.3949050" lon="-2.4736920">
        <ele>469.5</ele>
        <time>2020-02-09T11:11:42Z</time>
      </trkpt>
      <trkpt lat="42.3948560" lon="-2.4737040">
        <ele>469.6</ele>
        <time>2020-02-09T11:11:43Z</time>
      </trkpt>
      <trkpt lat="42.3948090" lon="-2.4737490">
        <ele>469.7</ele>
        <time>2020-02-09T11:11:44Z</time>
      </trkpt>
      <trkpt lat="42.3947490" lon="-2.4737770">
        <ele>469.8</ele>
        <time>2020-02-09T11:11:45Z</time>
      </trkpt>
      <trkpt lat="42.3946960" lon="-2.4738000">
        <ele>470.0</ele>
        <time>2020-02-09T11:11:46Z</time>
      </trkpt>
      <trkpt lat="42.3946470" lon="-2.4738280">
        <ele>470.1</ele>
        <time>2020-02-09T11:11:47Z</time>
      </trkpt>
      <trkpt lat="42.3945910" lon="-2.4738550">
        <ele>470.2</ele>
        <time>2020-02-09T11:11:48Z</time>
      </trkpt>
      <trkpt lat="42.3945360" lon="-2.4738830">
        <ele>470.3</ele>
        <time>2020-02-09T11:11:49Z</time>
      </trkpt>
      <trkpt lat="42.3944810" lon="-2.4739090">
        <ele>470.4</ele>
        <time>2020-02-09T11:11:50Z</time>
      </trkpt>
      <trkpt lat="42.3944380" lon="-2.4739610">
        <ele>470.4</ele>
        <time>2020-02-09T11:11:51Z</time>
      </trkpt>
      <trkpt lat="42.3943850" lon="-2.4739940">
        <ele>470.5</ele>
        <time>2020-02-09T11:11:52Z</time>
      </trkpt>
      <trkpt lat="42.3943320" lon="-2.4740270">
        <ele>470.5</ele>
        <time>2020-02-09T11:11:53Z</time>
      </trkpt>
      <trkpt lat="42.3942770" lon="-2.4740590">
        <ele>470.5</ele>
        <time>2020-02-09T11:11:54Z</time>
      </trkpt>
      <trkpt lat="42.3942160" lon="-2.4741220">
        <ele>470.5</ele>
        <time>2020-02-09T11:11:55Z</time>
      </trkpt>
      <trkpt lat="42.3941610" lon="-2.4741600">
        <ele>470.5</ele>
        <time>2020-02-09T11:11:56Z</time>
      </trkpt>
      <trkpt lat="42.3940820" lon="-2.4741520">
        <ele>470.5</ele>
        <time>2020-02-09T11:11:57Z</time>
      </trkpt>
      <trkpt lat="42.3940140" lon="-2.4742100">
        <ele>470.5</ele>
        <time>2020-02-09T11:11:58Z</time>
      </trkpt>
      <trkpt lat="42.3939600" lon="-2.4742400">
        <ele>470.4</ele>
        <time>2020-02-09T11:11:59Z</time>
      </trkpt>
      <trkpt lat="42.3939010" lon="-2.4742680">
        <ele>470.4</ele>
        <time>2020-02-09T11:12:00Z</time>
      </trkpt>
      <trkpt lat="42.3938500" lon="-2.4742750">
        <ele>470.4</ele>
        <time>2020-02-09T11:12:01Z</time>
      </trkpt>
      <trkpt lat="42.3937990" lon="-2.4743340">
        <ele>470.4</ele>
        <time>2020-02-09T11:12:02Z</time>
      </trkpt>
      <trkpt lat="42.3937700" lon="-2.4743780">
        <ele>470.4</ele>
        <time>2020-02-09T11:12:03Z</time>
      </trkpt>
      <trkpt lat="42.3937240" lon="-2.4744160">
        <ele>470.4</ele>
        <time>2020-02-09T11:12:04Z</time>
      </trkpt>
      <trkpt lat="42.3936600" lon="-2.4743960">
        <ele>470.3</ele>
        <time>2020-02-09T11:12:05Z</time>
      </trkpt>
      <trkpt lat="42.3935960" lon="-2.4744020">
        <ele>470.3</ele>
        <time>2020-02-09T11:12:06Z</time>
      </trkpt>
      <trkpt lat="42.3935390" lon="-2.4744420">
        <ele>470.3</ele>
        <time>2020-02-09T11:12:07Z</time>
      </trkpt>
      <trkpt lat="42.3934850" lon="-2.4744710">
        <ele>470.2</ele>
        <time>2020-02-09T11:12:08Z</time>
      </trkpt>
      <trkpt lat="42.3934240" lon="-2.4744980">
        <ele>470.2</ele>
        <time>2020-02-09T11:12:09Z</time>
      </trkpt>
      <trkpt lat="42.3933650" lon="-2.4745270">
        <ele>470.1</ele>
        <time>2020-02-09T11:12:10Z</time>
      </trkpt>
      <trkpt lat="42.3933090" lon="-2.4745560">
        <ele>470.0</ele>
        <time>2020-02-09T11:12:11Z</time>
      </trkpt>
      <trkpt lat="42.3932530" lon="-2.4745860">
        <ele>470.0</ele>
        <time>2020-02-09T11:12:12Z</time>
      </trkpt>
      <trkpt lat="42.3931970" lon="-2.4746160">
        <ele>469.9</ele>
        <time>2020-02-09T11:12:13Z</time>
      </trkpt>
      <trkpt lat="42.3931450" lon="-2.4746440">
        <ele>469.8</ele>
        <time>2020-02-09T11:12:14Z</time>
      </trkpt>
      <trkpt lat="42.3930910" lon="-2.4746760">
        <ele>469.7</ele>
        <time>2020-02-09T11:12:15Z</time>
      </trkpt>
      <trkpt lat="42.3930320" lon="-2.4747030">
        <ele>469.6</ele>
        <time>2020-02-09T11:12:16Z</time>
      </trkpt>
      <trkpt lat="42.3929920" lon="-2.4747420">
        <ele>469.5</ele>
        <time>2020-02-09T11:12:17Z</time>
      </trkpt>
      <trkpt lat="42.3929420" lon="-2.4747730">
        <ele>469.4</ele>
        <time>2020-02-09T11:12:18Z</time>
      </trkpt>
      <trkpt lat="42.3929000" lon="-2.4748100">
        <ele>469.3</ele>
        <time>2020-02-09T11:12:19Z</time>
      </trkpt>
      <trkpt lat="42.3928730" lon="-2.4749030">
        <ele>469.3</ele>
        <time>2020-02-09T11:12:20Z</time>
      </trkpt>
      <trkpt lat="42.3928370" lon="-2.4749600">
        <ele>469.4</ele>
        <time>2020-02-09T11:12:21Z</time>
      </trkpt>
      <trkpt lat="42.3927980" lon="-2.4750150">
        <ele>469.5</ele>
        <time>2020-02-09T11:12:22Z</time>
      </trkpt>
      <trkpt lat="42.3927530" lon="-2.4750730">
        <ele>469.6</ele>
        <time>2020-02-09T11:12:23Z</time>
      </trkpt>
      <trkpt lat="42.3927100" lon="-2.4751260">
        <ele>469.6</ele>
        <time>2020-02-09T11:12:24Z</time>
      </trkpt>
      <trkpt lat="42.3926730" lon="-2.4751800">
        <ele>469.7</ele>
        <time>2020-02-09T11:12:25Z</time>
      </trkpt>
      <trkpt lat="42.3926300" lon="-2.4752340">
        <ele>469.7</ele>
        <time>2020-02-09T11:12:26Z</time>
      </trkpt>
      <trkpt lat="42.3925870" lon="-2.4752870">
        <ele>469.7</ele>
        <time>2020-02-09T11:12:27Z</time>
      </trkpt>
      <trkpt lat="42.3925440" lon="-2.4753410">
        <ele>469.6</ele>
        <time>2020-02-09T11:12:28Z</time>
      </trkpt>
      <trkpt lat="42.3923480" lon="-2.4750860">
        <ele>469.8</ele>
        <time>2020-02-09T11:12:30Z</time>
      </trkpt>
      <trkpt lat="42.3922860" lon="-2.4750940">
        <ele>469.9</ele>
        <time>2020-02-09T11:12:31Z</time>
      </trkpt>
      <trkpt lat="42.3922220" lon="-2.4750730">
        <ele>470.1</ele>
        <time>2020-02-09T11:12:32Z</time>
      </trkpt>
      <trkpt lat="42.3921630" lon="-2.4750780">
        <ele>470.2</ele>
        <time>2020-02-09T11:12:33Z</time>
      </trkpt>
      <trkpt lat="42.3920990" lon="-2.4750830">
        <ele>470.4</ele>
        <time>2020-02-09T11:12:34Z</time>
      </trkpt>
      <trkpt lat="42.3920350" lon="-2.4750890">
        <ele>470.6</ele>
        <time>2020-02-09T11:12:35Z</time>
      </trkpt>
      <trkpt lat="42.3920150" lon="-2.4752580">
        <ele>470.9</ele>
        <time>2020-02-09T11:12:36Z</time>
      </trkpt>
      <trkpt lat="42.3919610" lon="-2.4752900">
        <ele>471.1</ele>
        <time>2020-02-09T11:12:37Z</time>
      </trkpt>
      <trkpt lat="42.3919070" lon="-2.4753230">
        <ele>471.3</ele>
        <time>2020-02-09T11:12:38Z</time>
      </trkpt>
      <trkpt lat="42.3918250" lon="-2.4752640">
        <ele>471.5</ele>
        <time>2020-02-09T11:12:39Z</time>
      </trkpt>
      <trkpt lat="42.3917630" lon="-2.4752770">
        <ele>471.5</ele>
        <time>2020-02-09T11:12:40Z</time>
      </trkpt>
      <trkpt lat="42.3917250" lon="-2.4752870">
        <ele>471.6</ele>
        <time>2020-02-09T11:12:41Z</time>
      </trkpt>
      <trkpt lat="42.3916640" lon="-2.4752870">
        <ele>471.6</ele>
        <time>2020-02-09T11:12:42Z</time>
      </trkpt>
      <trkpt lat="42.3916000" lon="-2.4752980">
        <ele>471.7</ele>
        <time>2020-02-09T11:12:43Z</time>
      </trkpt>
      <trkpt lat="42.3915410" lon="-2.4753140">
        <ele>471.8</ele>
        <time>2020-02-09T11:12:44Z</time>
      </trkpt>
      <trkpt lat="42.3914820" lon="-2.4753250">
        <ele>471.9</ele>
        <time>2020-02-09T11:12:45Z</time>
      </trkpt>
      <trkpt lat="42.3914180" lon="-2.4753360">
        <ele>472.1</ele>
        <time>2020-02-09T11:12:46Z</time>
      </trkpt>
      <trkpt lat="42.3913590" lon="-2.4753460">
        <ele>472.2</ele>
        <time>2020-02-09T11:12:47Z</time>
      </trkpt>
      <trkpt lat="42.3912840" lon="-2.4756630">
        <ele>472.5</ele>
        <time>2020-02-09T11:12:49Z</time>
      </trkpt>
      <trkpt lat="42.3912290" lon="-2.4757050">
        <ele>472.5</ele>
        <time>2020-02-09T11:12:50Z</time>
      </trkpt>
      <trkpt lat="42.3911760" lon="-2.4757540">
        <ele>472.5</ele>
        <time>2020-02-09T11:12:51Z</time>
      </trkpt>
      <trkpt lat="42.3911230" lon="-2.4757970">
        <ele>472.5</ele>
        <time>2020-02-09T11:12:52Z</time>
      </trkpt>
      <trkpt lat="42.3910690" lon="-2.4758400">
        <ele>472.5</ele>
        <time>2020-02-09T11:12:53Z</time>
      </trkpt>
      <trkpt lat="42.3910150" lon="-2.4758830">
        <ele>472.5</ele>
        <time>2020-02-09T11:12:54Z</time>
      </trkpt>
      <trkpt lat="42.3909530" lon="-2.4758130">
        <ele>472.5</ele>
        <time>2020-02-09T11:12:55Z</time>
      </trkpt>
      <trkpt lat="42.3908980" lon="-2.4758440">
        <ele>472.5</ele>
        <time>2020-02-09T11:12:56Z</time>
      </trkpt>
      <trkpt lat="42.3908440" lon="-2.4758720">
        <ele>472.5</ele>
        <time>2020-02-09T11:12:57Z</time>
      </trkpt>
      <trkpt lat="42.3907910" lon="-2.4759000">
        <ele>472.4</ele>
        <time>2020-02-09T11:12:58Z</time>
      </trkpt>
      <trkpt lat="42.3907500" lon="-2.4759380">
        <ele>472.4</ele>
        <time>2020-02-09T11:12:59Z</time>
      </trkpt>
      <trkpt lat="42.3907010" lon="-2.4759730">
        <ele>472.4</ele>
        <time>2020-02-09T11:13:00Z</time>
      </trkpt>
      <trkpt lat="42.3906560" lon="-2.4760060">
        <ele>472.4</ele>
        <time>2020-02-09T11:13:01Z</time>
      </trkpt>
      <trkpt lat="42.3906080" lon="-2.4760490">
        <ele>472.4</ele>
        <time>2020-02-09T11:13:02Z</time>
      </trkpt>
      <trkpt lat="42.3905540" lon="-2.4760870">
        <ele>472.4</ele>
        <time>2020-02-09T11:13:03Z</time>
      </trkpt>
      <trkpt lat="42.3905060" lon="-2.4761300">
        <ele>472.4</ele>
        <time>2020-02-09T11:13:04Z</time>
      </trkpt>
      <trkpt lat="42.3904520" lon="-2.4761670">
        <ele>472.4</ele>
        <time>2020-02-09T11:13:05Z</time>
      </trkpt>
      <trkpt lat="42.3904040" lon="-2.4762050">
        <ele>472.4</ele>
        <time>2020-02-09T11:13:06Z</time>
      </trkpt>
      <trkpt lat="42.3903500" lon="-2.4762480">
        <ele>472.4</ele>
        <time>2020-02-09T11:13:07Z</time>
      </trkpt>
      <trkpt lat="42.3903020" lon="-2.4762850">
        <ele>472.5</ele>
        <time>2020-02-09T11:13:08Z</time>
      </trkpt>
      <trkpt lat="42.3901950" lon="-2.4763010">
        <ele>472.7</ele>
        <time>2020-02-09T11:13:09Z</time>
      </trkpt>
      <trkpt lat="42.3901410" lon="-2.4763390">
        <ele>472.9</ele>
        <time>2020-02-09T11:13:10Z</time>
      </trkpt>
      <trkpt lat="42.3900690" lon="-2.4763710">
        <ele>473.1</ele>
        <time>2020-02-09T11:13:11Z</time>
      </trkpt>
      <trkpt lat="42.3899690" lon="-2.4764300">
        <ele>473.4</ele>
        <time>2020-02-09T11:13:12Z</time>
      </trkpt>
      <trkpt lat="42.3899100" lon="-2.4764670">
        <ele>473.5</ele>
        <time>2020-02-09T11:13:13Z</time>
      </trkpt>
      <trkpt lat="42.3898460" lon="-2.4765100">
        <ele>473.6</ele>
        <time>2020-02-09T11:13:14Z</time>
      </trkpt>
      <trkpt lat="42.3897870" lon="-2.4765480">
        <ele>473.7</ele>
        <time>2020-02-09T11:13:15Z</time>
      </trkpt>
      <trkpt lat="42.3897280" lon="-2.4765860">
        <ele>473.8</ele>
        <time>2020-02-09T11:13:16Z</time>
      </trkpt>
      <trkpt lat="42.3896630" lon="-2.4766280">
        <ele>474.0</ele>
        <time>2020-02-09T11:13:17Z</time>
      </trkpt>
      <trkpt lat="42.3896040" lon="-2.4766660">
        <ele>474.1</ele>
        <time>2020-02-09T11:13:18Z</time>
      </trkpt>
      <trkpt lat="42.3895940" lon="-2.4765860">
        <ele>474.3</ele>
        <time>2020-02-09T11:13:20Z</time>
      </trkpt>
      <trkpt lat="42.3895420" lon="-2.4766120">
        <ele>474.5</ele>
        <time>2020-02-09T11:13:21Z</time>
      </trkpt>
      <trkpt lat="42.3894810" lon="-2.4766410">
        <ele>474.7</ele>
        <time>2020-02-09T11:13:22Z</time>
      </trkpt>
      <trkpt lat="42.3894220" lon="-2.4766610">
        <ele>474.9</ele>
        <time>2020-02-09T11:13:23Z</time>
      </trkpt>
      <trkpt lat="42.3893680" lon="-2.4766870">
        <ele>475.0</ele>
        <time>2020-02-09T11:13:24Z</time>
      </trkpt>
      <trkpt lat="42.3893150" lon="-2.4767140">
        <ele>475.2</ele>
        <time>2020-02-09T11:13:25Z</time>
      </trkpt>
      <trkpt lat="42.3892560" lon="-2.4767410">
        <ele>475.5</ele>
        <time>2020-02-09T11:13:26Z</time>
      </trkpt>
      <trkpt lat="42.3892020" lon="-2.4767680">
        <ele>475.7</ele>
        <time>2020-02-09T11:13:27Z</time>
      </trkpt>
      <trkpt lat="42.3891430" lon="-2.4767950">
        <ele>476.0</ele>
        <time>2020-02-09T11:13:28Z</time>
      </trkpt>
      <trkpt lat="42.3890470" lon="-2.4768270">
        <ele>476.2</ele>
        <time>2020-02-09T11:13:29Z</time>
      </trkpt>
      <trkpt lat="42.3890260" lon="-2.4769070">
        <ele>476.2</ele>
        <time>2020-02-09T11:13:30Z</time>
      </trkpt>
      <trkpt lat="42.3889690" lon="-2.4769030">
        <ele>476.3</ele>
        <time>2020-02-09T11:13:31Z</time>
      </trkpt>
      <trkpt lat="42.3889220" lon="-2.4769440">
        <ele>476.3</ele>
        <time>2020-02-09T11:13:32Z</time>
      </trkpt>
      <trkpt lat="42.3888550" lon="-2.4769660">
        <ele>476.4</ele>
        <time>2020-02-09T11:13:33Z</time>
      </trkpt>
      <trkpt lat="42.3888050" lon="-2.4769820">
        <ele>476.6</ele>
        <time>2020-02-09T11:13:34Z</time>
      </trkpt>
      <trkpt lat="42.3887410" lon="-2.4770090">
        <ele>476.8</ele>
        <time>2020-02-09T11:13:35Z</time>
      </trkpt>
      <trkpt lat="42.3886930" lon="-2.4770450">
        <ele>476.9</ele>
        <time>2020-02-09T11:13:36Z</time>
      </trkpt>
      <trkpt lat="42.3886370" lon="-2.4770520">
        <ele>477.1</ele>
        <time>2020-02-09T11:13:37Z</time>
      </trkpt>
      <trkpt lat="42.3885860" lon="-2.4770600">
        <ele>477.3</ele>
        <time>2020-02-09T11:13:38Z</time>
      </trkpt>
      <trkpt lat="42.3885260" lon="-2.4770790">
        <ele>477.5</ele>
        <time>2020-02-09T11:13:39Z</time>
      </trkpt>
      <trkpt lat="42.3884680" lon="-2.4771150">
        <ele>477.6</ele>
        <time>2020-02-09T11:13:40Z</time>
      </trkpt>
      <trkpt lat="42.3884120" lon="-2.4771440">
        <ele>477.8</ele>
        <time>2020-02-09T11:13:41Z</time>
      </trkpt>
      <trkpt lat="42.3883550" lon="-2.4771700">
        <ele>477.9</ele>
        <time>2020-02-09T11:13:42Z</time>
      </trkpt>
      <trkpt lat="42.3882960" lon="-2.4772020">
        <ele>477.9</ele>
        <time>2020-02-09T11:13:43Z</time>
      </trkpt>
      <trkpt lat="42.3882420" lon="-2.4772290">
        <ele>478.0</ele>
        <time>2020-02-09T11:13:44Z</time>
      </trkpt>
      <trkpt lat="42.3881830" lon="-2.4772560">
        <ele>478.0</ele>
        <time>2020-02-09T11:13:45Z</time>
      </trkpt>
      <trkpt lat="42.3881240" lon="-2.4773310">
        <ele>478.1</ele>
        <time>2020-02-09T11:13:46Z</time>
      </trkpt>
      <trkpt lat="42.3880790" lon="-2.4773550">
        <ele>478.1</ele>
        <time>2020-02-09T11:13:47Z</time>
      </trkpt>
      <trkpt lat="42.3880230" lon="-2.4773580">
        <ele>478.1</ele>
        <time>2020-02-09T11:13:48Z</time>
      </trkpt>
      <trkpt lat="42.3879820" lon="-2.4773710">
        <ele>478.1</ele>
        <time>2020-02-09T11:13:49Z</time>
      </trkpt>
      <trkpt lat="42.3879250" lon="-2.4774010">
        <ele>478.2</ele>
        <time>2020-02-09T11:13:50Z</time>
      </trkpt>
      <trkpt lat="42.3878670" lon="-2.4774390">
        <ele>478.3</ele>
        <time>2020-02-09T11:13:51Z</time>
      </trkpt>
      <trkpt lat="42.3878280" lon="-2.4774460">
        <ele>478.3</ele>
        <time>2020-02-09T11:13:52Z</time>
      </trkpt>
      <trkpt lat="42.3877790" lon="-2.4774690">
        <ele>478.4</ele>
        <time>2020-02-09T11:13:53Z</time>
      </trkpt>
      <trkpt lat="42.3877190" lon="-2.4775050">
        <ele>478.5</ele>
        <time>2020-02-09T11:13:54Z</time>
      </trkpt>
      <trkpt lat="42.3876570" lon="-2.4775400">
        <ele>478.6</ele>
        <time>2020-02-09T11:13:55Z</time>
      </trkpt>
      <trkpt lat="42.3876100" lon="-2.4775590">
        <ele>478.7</ele>
        <time>2020-02-09T11:13:56Z</time>
      </trkpt>
      <trkpt lat="42.3875600" lon="-2.4776030">
        <ele>478.8</ele>
        <time>2020-02-09T11:13:57Z</time>
      </trkpt>
      <trkpt lat="42.3875080" lon="-2.4776330">
        <ele>478.9</ele>
        <time>2020-02-09T11:13:58Z</time>
      </trkpt>
      <trkpt lat="42.3874530" lon="-2.4776640">
        <ele>479.0</ele>
        <time>2020-02-09T11:13:59Z</time>
      </trkpt>
      <trkpt lat="42.3874050" lon="-2.4776910">
        <ele>479.0</ele>
        <time>2020-02-09T11:14:00Z</time>
      </trkpt>
      <trkpt lat="42.3873350" lon="-2.4777330">
        <ele>479.1</ele>
        <time>2020-02-09T11:14:01Z</time>
      </trkpt>
      <trkpt lat="42.3872960" lon="-2.4777480">
        <ele>479.2</ele>
        <time>2020-02-09T11:14:02Z</time>
      </trkpt>
      <trkpt lat="42.3872690" lon="-2.4778700">
        <ele>479.4</ele>
        <time>2020-02-09T11:14:03Z</time>
      </trkpt>
      <trkpt lat="42.3871950" lon="-2.4778280">
        <ele>479.6</ele>
        <time>2020-02-09T11:14:04Z</time>
      </trkpt>
      <trkpt lat="42.3871240" lon="-2.4778480">
        <ele>479.7</ele>
        <time>2020-02-09T11:14:05Z</time>
      </trkpt>
      <trkpt lat="42.3870560" lon="-2.4778680">
        <ele>479.9</ele>
        <time>2020-02-09T11:14:06Z</time>
      </trkpt>
      <trkpt lat="42.3870090" lon="-2.4778970">
        <ele>480.1</ele>
        <time>2020-02-09T11:14:07Z</time>
      </trkpt>
      <trkpt lat="42.3869510" lon="-2.4779560">
        <ele>480.2</ele>
        <time>2020-02-09T11:14:08Z</time>
      </trkpt>
      <trkpt lat="42.3868970" lon="-2.4779880">
        <ele>480.3</ele>
        <time>2020-02-09T11:14:09Z</time>
      </trkpt>
      <trkpt lat="42.3868410" lon="-2.4780040">
        <ele>480.5</ele>
        <time>2020-02-09T11:14:10Z</time>
      </trkpt>
      <trkpt lat="42.3867930" lon="-2.4780390">
        <ele>480.6</ele>
        <time>2020-02-09T11:14:11Z</time>
      </trkpt>
      <trkpt lat="42.3867390" lon="-2.4780740">
        <ele>480.7</ele>
        <time>2020-02-09T11:14:12Z</time>
      </trkpt>
      <trkpt lat="42.3866850" lon="-2.4781060">
        <ele>480.8</ele>
        <time>2020-02-09T11:14:13Z</time>
      </trkpt>
      <trkpt lat="42.3866220" lon="-2.4781070">
        <ele>480.8</ele>
        <time>2020-02-09T11:14:14Z</time>
      </trkpt>
      <trkpt lat="42.3865660" lon="-2.4781320">
        <ele>480.9</ele>
        <time>2020-02-09T11:14:15Z</time>
      </trkpt>
      <trkpt lat="42.3865250" lon="-2.4781680">
        <ele>480.9</ele>
        <time>2020-02-09T11:14:16Z</time>
      </trkpt>
      <trkpt lat="42.3864720" lon="-2.4781980">
        <ele>481.0</ele>
        <time>2020-02-09T11:14:17Z</time>
      </trkpt>
      <trkpt lat="42.3864180" lon="-2.4782270">
        <ele>481.0</ele>
        <time>2020-02-09T11:14:18Z</time>
      </trkpt>
      <trkpt lat="42.3863970" lon="-2.4782750">
        <ele>481.0</ele>
        <time>2020-02-09T11:14:19Z</time>
      </trkpt>
      <trkpt lat="42.3863450" lon="-2.4783060">
        <ele>481.1</ele>
        <time>2020-02-09T11:14:20Z</time>
      </trkpt>
      <trkpt lat="42.3862740" lon="-2.4783370">
        <ele>481.1</ele>
        <time>2020-02-09T11:14:21Z</time>
      </trkpt>
      <trkpt lat="42.3862200" lon="-2.4783670">
        <ele>481.2</ele>
        <time>2020-02-09T11:14:22Z</time>
      </trkpt>
      <trkpt lat="42.3861660" lon="-2.4783970">
        <ele>481.3</ele>
        <time>2020-02-09T11:14:23Z</time>
      </trkpt>
      <trkpt lat="42.3861120" lon="-2.4784260">
        <ele>481.4</ele>
        <time>2020-02-09T11:14:24Z</time>
      </trkpt>
      <trkpt lat="42.3860590" lon="-2.4784580">
        <ele>481.5</ele>
        <time>2020-02-09T11:14:25Z</time>
      </trkpt>
      <trkpt lat="42.3860060" lon="-2.4784920">
        <ele>481.6</ele>
        <time>2020-02-09T11:14:26Z</time>
      </trkpt>
      <trkpt lat="42.3859520" lon="-2.4785230">
        <ele>481.6</ele>
        <time>2020-02-09T11:14:27Z</time>
      </trkpt>
      <trkpt lat="42.3858990" lon="-2.4785530">
        <ele>481.7</ele>
        <time>2020-02-09T11:14:28Z</time>
      </trkpt>
      <trkpt lat="42.3858280" lon="-2.4785710">
        <ele>481.8</ele>
        <time>2020-02-09T11:14:29Z</time>
      </trkpt>
      <trkpt lat="42.3857710" lon="-2.4785970">
        <ele>481.8</ele>
        <time>2020-02-09T11:14:30Z</time>
      </trkpt>
      <trkpt lat="42.3857140" lon="-2.4786240">
        <ele>481.9</ele>
        <time>2020-02-09T11:14:31Z</time>
      </trkpt>
      <trkpt lat="42.3856620" lon="-2.4786620">
        <ele>481.9</ele>
        <time>2020-02-09T11:14:32Z</time>
      </trkpt>
      <trkpt lat="42.3856080" lon="-2.4786880">
        <ele>481.9</ele>
        <time>2020-02-09T11:14:33Z</time>
      </trkpt>
      <trkpt lat="42.3855490" lon="-2.4787150">
        <ele>481.9</ele>
        <time>2020-02-09T11:14:34Z</time>
      </trkpt>
      <trkpt lat="42.3854950" lon="-2.4787420">
        <ele>482.0</ele>
        <time>2020-02-09T11:14:35Z</time>
      </trkpt>
      <trkpt lat="42.3854360" lon="-2.4787690">
        <ele>482.0</ele>
        <time>2020-02-09T11:14:36Z</time>
      </trkpt>
      <trkpt lat="42.3853830" lon="-2.4787960">
        <ele>482.1</ele>
        <time>2020-02-09T11:14:37Z</time>
      </trkpt>
      <trkpt lat="42.3853240" lon="-2.4788220">
        <ele>482.2</ele>
        <time>2020-02-09T11:14:38Z</time>
      </trkpt>
      <trkpt lat="42.3852700" lon="-2.4788490">
        <ele>482.3</ele>
        <time>2020-02-09T11:14:39Z</time>
      </trkpt>
      <trkpt lat="42.3851360" lon="-2.4789140">
        <ele>482.5</ele>
        <time>2020-02-09T11:14:42Z</time>
      </trkpt>
      <trkpt lat="42.3850820" lon="-2.4789430">
        <ele>482.6</ele>
        <time>2020-02-09T11:14:43Z</time>
      </trkpt>
      <trkpt lat="42.3850280" lon="-2.4789720">
        <ele>482.7</ele>
        <time>2020-02-09T11:14:44Z</time>
      </trkpt>
      <trkpt lat="42.3849700" lon="-2.4789940">
        <ele>482.7</ele>
        <time>2020-02-09T11:14:45Z</time>
      </trkpt>
      <trkpt lat="42.3849160" lon="-2.4790260">
        <ele>482.8</ele>
        <time>2020-02-09T11:14:46Z</time>
      </trkpt>
      <trkpt lat="42.3848360" lon="-2.4791030">
        <ele>482.8</ele>
        <time>2020-02-09T11:14:47Z</time>
      </trkpt>
      <trkpt lat="42.3847780" lon="-2.4791340">
        <ele>482.9</ele>
        <time>2020-02-09T11:14:48Z</time>
      </trkpt>
      <trkpt lat="42.3847210" lon="-2.4791660">
        <ele>482.9</ele>
        <time>2020-02-09T11:14:49Z</time>
      </trkpt>
      <trkpt lat="42.3846580" lon="-2.4791930">
        <ele>482.9</ele>
        <time>2020-02-09T11:14:50Z</time>
      </trkpt>
      <trkpt lat="42.3845990" lon="-2.4792250">
        <ele>483.0</ele>
        <time>2020-02-09T11:14:51Z</time>
      </trkpt>
      <trkpt lat="42.3845440" lon="-2.4792080">
        <ele>483.0</ele>
        <time>2020-02-09T11:14:52Z</time>
      </trkpt>
      <trkpt lat="42.3844870" lon="-2.4792300">
        <ele>483.0</ele>
        <time>2020-02-09T11:14:53Z</time>
      </trkpt>
      <trkpt lat="42.3844310" lon="-2.4792550">
        <ele>483.1</ele>
        <time>2020-02-09T11:14:54Z</time>
      </trkpt>
      <trkpt lat="42.3843740" lon="-2.4792780">
        <ele>483.2</ele>
        <time>2020-02-09T11:14:55Z</time>
      </trkpt>
      <trkpt lat="42.3843200" lon="-2.4793000">
        <ele>483.3</ele>
        <time>2020-02-09T11:14:56Z</time>
      </trkpt>
      <trkpt lat="42.3842610" lon="-2.4793270">
        <ele>483.4</ele>
        <time>2020-02-09T11:14:57Z</time>
      </trkpt>
      <trkpt lat="42.3842010" lon="-2.4793460">
        <ele>483.4</ele>
        <time>2020-02-09T11:14:58Z</time>
      </trkpt>
      <trkpt lat="42.3841440" lon="-2.4793710">
        <ele>483.5</ele>
        <time>2020-02-09T11:14:59Z</time>
      </trkpt>
      <trkpt lat="42.3840910" lon="-2.4794340">
        <ele>483.6</ele>
        <time>2020-02-09T11:15:00Z</time>
      </trkpt>
      <trkpt lat="42.3840350" lon="-2.4794660">
        <ele>483.7</ele>
        <time>2020-02-09T11:15:01Z</time>
      </trkpt>
      <trkpt lat="42.3839790" lon="-2.4794990">
        <ele>483.7</ele>
        <time>2020-02-09T11:15:02Z</time>
      </trkpt>
      <trkpt lat="42.3839240" lon="-2.4795230">
        <ele>483.8</ele>
        <time>2020-02-09T11:15:03Z</time>
      </trkpt>
      <trkpt lat="42.3838900" lon="-2.4795500">
        <ele>483.8</ele>
        <time>2020-02-09T11:15:04Z</time>
      </trkpt>
      <trkpt lat="42.3838360" lon="-2.4795800">
        <ele>483.8</ele>
        <time>2020-02-09T11:15:05Z</time>
      </trkpt>
      <trkpt lat="42.3837830" lon="-2.4796100">
        <ele>483.8</ele>
        <time>2020-02-09T11:15:06Z</time>
      </trkpt>
      <trkpt lat="42.3837320" lon="-2.4796340">
        <ele>483.8</ele>
        <time>2020-02-09T11:15:07Z</time>
      </trkpt>
      <trkpt lat="42.3836770" lon="-2.4796650">
        <ele>483.8</ele>
        <time>2020-02-09T11:15:08Z</time>
      </trkpt>
      <trkpt lat="42.3836240" lon="-2.4796930">
        <ele>483.8</ele>
        <time>2020-02-09T11:15:09Z</time>
      </trkpt>
      <trkpt lat="42.3835640" lon="-2.4797200">
        <ele>483.9</ele>
        <time>2020-02-09T11:15:10Z</time>
      </trkpt>
      <trkpt lat="42.3835190" lon="-2.4797270">
        <ele>483.9</ele>
        <time>2020-02-09T11:15:11Z</time>
      </trkpt>
      <trkpt lat="42.3834650" lon="-2.4797430">
        <ele>483.9</ele>
        <time>2020-02-09T11:15:12Z</time>
      </trkpt>
      <trkpt lat="42.3834060" lon="-2.4797720">
        <ele>484.0</ele>
        <time>2020-02-09T11:15:13Z</time>
      </trkpt>
      <trkpt lat="42.3833330" lon="-2.4798160">
        <ele>484.1</ele>
        <time>2020-02-09T11:15:14Z</time>
      </trkpt>
      <trkpt lat="42.3832850" lon="-2.4798500">
        <ele>484.3</ele>
        <time>2020-02-09T11:15:15Z</time>
      </trkpt>
      <trkpt lat="42.3832260" lon="-2.4798970">
        <ele>484.4</ele>
        <time>2020-02-09T11:15:16Z</time>
      </trkpt>
      <trkpt lat="42.3831760" lon="-2.4799280">
        <ele>484.6</ele>
        <time>2020-02-09T11:15:17Z</time>
      </trkpt>
      <trkpt lat="42.3831230" lon="-2.4799510">
        <ele>484.7</ele>
        <time>2020-02-09T11:15:18Z</time>
      </trkpt>
      <trkpt lat="42.3830610" lon="-2.4799700">
        <ele>484.8</ele>
        <time>2020-02-09T11:15:19Z</time>
      </trkpt>
      <trkpt lat="42.3830000" lon="-2.4800020">
        <ele>484.8</ele>
        <time>2020-02-09T11:15:20Z</time>
      </trkpt>
      <trkpt lat="42.3829250" lon="-2.4800470">
        <ele>484.9</ele>
        <time>2020-02-09T11:15:21Z</time>
      </trkpt>
      <trkpt lat="42.3828830" lon="-2.4800850">
        <ele>484.9</ele>
        <time>2020-02-09T11:15:22Z</time>
      </trkpt>
      <trkpt lat="42.3828110" lon="-2.4801030">
        <ele>485.0</ele>
        <time>2020-02-09T11:15:23Z</time>
      </trkpt>
      <trkpt lat="42.3827570" lon="-2.4801340">
        <ele>485.1</ele>
        <time>2020-02-09T11:15:24Z</time>
      </trkpt>
      <trkpt lat="42.3826950" lon="-2.4801640">
        <ele>485.2</ele>
        <time>2020-02-09T11:15:25Z</time>
      </trkpt>
      <trkpt lat="42.3826390" lon="-2.4801970">
        <ele>485.4</ele>
        <time>2020-02-09T11:15:26Z</time>
      </trkpt>
      <trkpt lat="42.3825800" lon="-2.4802480">
        <ele>485.6</ele>
        <time>2020-02-09T11:15:27Z</time>
      </trkpt>
      <trkpt lat="42.3825240" lon="-2.4802820">
        <ele>485.7</ele>
        <time>2020-02-09T11:15:28Z</time>
      </trkpt>
      <trkpt lat="42.3824670" lon="-2.4803170">
        <ele>485.8</ele>
        <time>2020-02-09T11:15:29Z</time>
      </trkpt>
      <trkpt lat="42.3824110" lon="-2.4803510">
        <ele>485.9</ele>
        <time>2020-02-09T11:15:30Z</time>
      </trkpt>
      <trkpt lat="42.3823520" lon="-2.4803840">
        <ele>486.0</ele>
        <time>2020-02-09T11:15:31Z</time>
      </trkpt>
      <trkpt lat="42.3822980" lon="-2.4804160">
        <ele>486.0</ele>
        <time>2020-02-09T11:15:32Z</time>
      </trkpt>
      <trkpt lat="42.3822390" lon="-2.4804530">
        <ele>486.2</ele>
        <time>2020-02-09T11:15:33Z</time>
      </trkpt>
      <trkpt lat="42.3821850" lon="-2.4804850">
        <ele>486.3</ele>
        <time>2020-02-09T11:15:34Z</time>
      </trkpt>
      <trkpt lat="42.3821260" lon="-2.4805180">
        <ele>486.5</ele>
        <time>2020-02-09T11:15:35Z</time>
      </trkpt>
      <trkpt lat="42.3820730" lon="-2.4805550">
        <ele>486.6</ele>
        <time>2020-02-09T11:15:36Z</time>
      </trkpt>
      <trkpt lat="42.3820140" lon="-2.4805870">
        <ele>486.8</ele>
        <time>2020-02-09T11:15:37Z</time>
      </trkpt>
      <trkpt lat="42.3819550" lon="-2.4806200">
        <ele>486.9</ele>
        <time>2020-02-09T11:15:38Z</time>
      </trkpt>
      <trkpt lat="42.3819010" lon="-2.4806520">
        <ele>487.0</ele>
        <time>2020-02-09T11:15:39Z</time>
      </trkpt>
      <trkpt lat="42.3818500" lon="-2.4806040">
        <ele>487.1</ele>
        <time>2020-02-09T11:15:40Z</time>
      </trkpt>
      <trkpt lat="42.3817980" lon="-2.4806320">
        <ele>487.1</ele>
        <time>2020-02-09T11:15:41Z</time>
      </trkpt>
      <trkpt lat="42.3817460" lon="-2.4806570">
        <ele>487.3</ele>
        <time>2020-02-09T11:15:42Z</time>
      </trkpt>
      <trkpt lat="42.3816920" lon="-2.4806840">
        <ele>487.6</ele>
        <time>2020-02-09T11:15:43Z</time>
      </trkpt>
      <trkpt lat="42.3816380" lon="-2.4807060">
        <ele>487.8</ele>
        <time>2020-02-09T11:15:44Z</time>
      </trkpt>
      <trkpt lat="42.3815850" lon="-2.4807330">
        <ele>488.0</ele>
        <time>2020-02-09T11:15:45Z</time>
      </trkpt>
      <trkpt lat="42.3815450" lon="-2.4808030">
        <ele>488.0</ele>
        <time>2020-02-09T11:15:46Z</time>
      </trkpt>
      <trkpt lat="42.3814990" lon="-2.4808490">
        <ele>488.1</ele>
        <time>2020-02-09T11:15:47Z</time>
      </trkpt>
      <trkpt lat="42.3814440" lon="-2.4808790">
        <ele>488.1</ele>
        <time>2020-02-09T11:15:48Z</time>
      </trkpt>
      <trkpt lat="42.3813890" lon="-2.4809100">
        <ele>488.1</ele>
        <time>2020-02-09T11:15:49Z</time>
      </trkpt>
      <trkpt lat="42.3813330" lon="-2.4809410">
        <ele>488.2</ele>
        <time>2020-02-09T11:15:50Z</time>
      </trkpt>
      <trkpt lat="42.3812790" lon="-2.4809680">
        <ele>488.3</ele>
        <time>2020-02-09T11:15:51Z</time>
      </trkpt>
      <trkpt lat="42.3812250" lon="-2.4810000">
        <ele>488.4</ele>
        <time>2020-02-09T11:15:52Z</time>
      </trkpt>
      <trkpt lat="42.3811610" lon="-2.4810540">
        <ele>488.6</ele>
        <time>2020-02-09T11:15:53Z</time>
      </trkpt>
      <trkpt lat="42.3811200" lon="-2.4810590">
        <ele>488.7</ele>
        <time>2020-02-09T11:15:54Z</time>
      </trkpt>
      <trkpt lat="42.3810660" lon="-2.4810860">
        <ele>488.8</ele>
        <time>2020-02-09T11:15:55Z</time>
      </trkpt>
      <trkpt lat="42.3810120" lon="-2.4811120">
        <ele>488.9</ele>
        <time>2020-02-09T11:15:56Z</time>
      </trkpt>
      <trkpt lat="42.3809360" lon="-2.4811290">
        <ele>489.0</ele>
        <time>2020-02-09T11:15:57Z</time>
      </trkpt>
      <trkpt lat="42.3808790" lon="-2.4811560">
        <ele>489.1</ele>
        <time>2020-02-09T11:15:58Z</time>
      </trkpt>
      <trkpt lat="42.3808210" lon="-2.4811840">
        <ele>489.2</ele>
        <time>2020-02-09T11:15:59Z</time>
      </trkpt>
      <trkpt lat="42.3807640" lon="-2.4812100">
        <ele>489.2</ele>
        <time>2020-02-09T11:16:00Z</time>
      </trkpt>
      <trkpt lat="42.3807050" lon="-2.4812360">
        <ele>489.3</ele>
        <time>2020-02-09T11:16:01Z</time>
      </trkpt>
      <trkpt lat="42.3806460" lon="-2.4812630">
        <ele>489.4</ele>
        <time>2020-02-09T11:16:02Z</time>
      </trkpt>
      <trkpt lat="42.3805740" lon="-2.4812830">
        <ele>489.5</ele>
        <time>2020-02-09T11:16:04Z</time>
      </trkpt>
      <trkpt lat="42.3805210" lon="-2.4813100">
        <ele>489.6</ele>
        <time>2020-02-09T11:16:05Z</time>
      </trkpt>
      <trkpt lat="42.3804690" lon="-2.4813380">
        <ele>489.7</ele>
        <time>2020-02-09T11:16:06Z</time>
      </trkpt>
      <trkpt lat="42.3804210" lon="-2.4813650">
        <ele>489.8</ele>
        <time>2020-02-09T11:16:07Z</time>
      </trkpt>
      <trkpt lat="42.3803670" lon="-2.4813970">
        <ele>490.0</ele>
        <time>2020-02-09T11:16:08Z</time>
      </trkpt>
      <trkpt lat="42.3803130" lon="-2.4814240">
        <ele>490.1</ele>
        <time>2020-02-09T11:16:09Z</time>
      </trkpt>
      <trkpt lat="42.3802600" lon="-2.4814510">
        <ele>490.1</ele>
        <time>2020-02-09T11:16:10Z</time>
      </trkpt>
      <trkpt lat="42.3801420" lon="-2.4815750">
        <ele>490.3</ele>
        <time>2020-02-09T11:16:11Z</time>
      </trkpt>
      <trkpt lat="42.3800870" lon="-2.4816060">
        <ele>490.3</ele>
        <time>2020-02-09T11:16:12Z</time>
      </trkpt>
      <trkpt lat="42.3800340" lon="-2.4816320">
        <ele>490.4</ele>
        <time>2020-02-09T11:16:13Z</time>
      </trkpt>
      <trkpt lat="42.3799780" lon="-2.4816620">
        <ele>490.4</ele>
        <time>2020-02-09T11:16:14Z</time>
      </trkpt>
      <trkpt lat="42.3799220" lon="-2.4816920">
        <ele>490.6</ele>
        <time>2020-02-09T11:16:15Z</time>
      </trkpt>
      <trkpt lat="42.3798630" lon="-2.4817190">
        <ele>490.6</ele>
        <time>2020-02-09T11:16:16Z</time>
      </trkpt>
      <trkpt lat="42.3798090" lon="-2.4817510">
        <ele>490.6</ele>
        <time>2020-02-09T11:16:17Z</time>
      </trkpt>
      <trkpt lat="42.3797550" lon="-2.4817780">
        <ele>490.6</ele>
        <time>2020-02-09T11:16:18Z</time>
      </trkpt>
      <trkpt lat="42.3796960" lon="-2.4818100">
        <ele>490.6</ele>
        <time>2020-02-09T11:16:19Z</time>
      </trkpt>
      <trkpt lat="42.3796430" lon="-2.4818370">
        <ele>490.6</ele>
        <time>2020-02-09T11:16:20Z</time>
      </trkpt>
      <trkpt lat="42.3796370" lon="-2.4818910">
        <ele>490.6</ele>
        <time>2020-02-09T11:16:21Z</time>
      </trkpt>
      <trkpt lat="42.3795830" lon="-2.4819230">
        <ele>490.6</ele>
        <time>2020-02-09T11:16:22Z</time>
      </trkpt>
      <trkpt lat="42.3795090" lon="-2.4819230">
        <ele>490.6</ele>
        <time>2020-02-09T11:16:23Z</time>
      </trkpt>
      <trkpt lat="42.3794590" lon="-2.4819510">
        <ele>490.6</ele>
        <time>2020-02-09T11:16:24Z</time>
      </trkpt>
      <trkpt lat="42.3794060" lon="-2.4819800">
        <ele>490.6</ele>
        <time>2020-02-09T11:16:25Z</time>
      </trkpt>
      <trkpt lat="42.3793530" lon="-2.4820080">
        <ele>490.6</ele>
        <time>2020-02-09T11:16:26Z</time>
      </trkpt>
      <trkpt lat="42.3793050" lon="-2.4820410">
        <ele>490.6</ele>
        <time>2020-02-09T11:16:27Z</time>
      </trkpt>
      <trkpt lat="42.3792510" lon="-2.4820680">
        <ele>490.6</ele>
        <time>2020-02-09T11:16:28Z</time>
      </trkpt>
      <trkpt lat="42.3791970" lon="-2.4820950">
        <ele>490.7</ele>
        <time>2020-02-09T11:16:29Z</time>
      </trkpt>
      <trkpt lat="42.3791210" lon="-2.4820610">
        <ele>490.7</ele>
        <time>2020-02-09T11:16:30Z</time>
      </trkpt>
      <trkpt lat="42.3790790" lon="-2.4821250">
        <ele>490.7</ele>
        <time>2020-02-09T11:16:31Z</time>
      </trkpt>
      <trkpt lat="42.3790290" lon="-2.4821520">
        <ele>490.7</ele>
        <time>2020-02-09T11:16:32Z</time>
      </trkpt>
      <trkpt lat="42.3789780" lon="-2.4821780">
        <ele>490.7</ele>
        <time>2020-02-09T11:16:33Z</time>
      </trkpt>
      <trkpt lat="42.3788880" lon="-2.4822110">
        <ele>490.7</ele>
        <time>2020-02-09T11:16:34Z</time>
      </trkpt>
      <trkpt lat="42.3788230" lon="-2.4822690">
        <ele>490.7</ele>
        <time>2020-02-09T11:16:35Z</time>
      </trkpt>
      <trkpt lat="42.3787690" lon="-2.4822980">
        <ele>490.8</ele>
        <time>2020-02-09T11:16:36Z</time>
      </trkpt>
      <trkpt lat="42.3787090" lon="-2.4823250">
        <ele>490.8</ele>
        <time>2020-02-09T11:16:37Z</time>
      </trkpt>
      <trkpt lat="42.3786560" lon="-2.4823580">
        <ele>490.9</ele>
        <time>2020-02-09T11:16:38Z</time>
      </trkpt>
      <trkpt lat="42.3785780" lon="-2.4823410">
        <ele>491.0</ele>
        <time>2020-02-09T11:16:39Z</time>
      </trkpt>
      <trkpt lat="42.3785190" lon="-2.4823620">
        <ele>491.1</ele>
        <time>2020-02-09T11:16:40Z</time>
      </trkpt>
      <trkpt lat="42.3784600" lon="-2.4823840">
        <ele>491.2</ele>
        <time>2020-02-09T11:16:41Z</time>
      </trkpt>
      <trkpt lat="42.3784040" lon="-2.4824060">
        <ele>491.3</ele>
        <time>2020-02-09T11:16:42Z</time>
      </trkpt>
      <trkpt lat="42.3783390" lon="-2.4824270">
        <ele>491.4</ele>
        <time>2020-02-09T11:16:43Z</time>
      </trkpt>
      <trkpt lat="42.3783620" lon="-2.4825450">
        <ele>491.5</ele>
        <time>2020-02-09T11:16:44Z</time>
      </trkpt>
      <trkpt lat="42.3783140" lon="-2.4825840">
        <ele>491.5</ele>
        <time>2020-02-09T11:16:45Z</time>
      </trkpt>
      <trkpt lat="42.3782030" lon="-2.4825170">
        <ele>491.6</ele>
        <time>2020-02-09T11:16:46Z</time>
      </trkpt>
      <trkpt lat="42.3781450" lon="-2.4825380">
        <ele>491.6</ele>
        <time>2020-02-09T11:16:47Z</time>
      </trkpt>
      <trkpt lat="42.3781190" lon="-2.4825860">
        <ele>491.7</ele>
        <time>2020-02-09T11:16:48Z</time>
      </trkpt>
      <trkpt lat="42.3780620" lon="-2.4826540">
        <ele>491.7</ele>
        <time>2020-02-09T11:16:49Z</time>
      </trkpt>
      <trkpt lat="42.3780060" lon="-2.4826820">
        <ele>491.8</ele>
        <time>2020-02-09T11:16:50Z</time>
      </trkpt>
      <trkpt lat="42.3779620" lon="-2.4827220">
        <ele>491.8</ele>
        <time>2020-02-09T11:16:51Z</time>
      </trkpt>
      <trkpt lat="42.3779050" lon="-2.4827360">
        <ele>491.9</ele>
        <time>2020-02-09T11:16:52Z</time>
      </trkpt>
      <trkpt lat="42.3778480" lon="-2.4827520">
        <ele>492.0</ele>
        <time>2020-02-09T11:16:53Z</time>
      </trkpt>
      <trkpt lat="42.3778000" lon="-2.4827960">
        <ele>492.1</ele>
        <time>2020-02-09T11:16:54Z</time>
      </trkpt>
      <trkpt lat="42.3777460" lon="-2.4828180">
        <ele>492.2</ele>
        <time>2020-02-09T11:16:55Z</time>
      </trkpt>
      <trkpt lat="42.3776930" lon="-2.4828390">
        <ele>492.3</ele>
        <time>2020-02-09T11:16:56Z</time>
      </trkpt>
      <trkpt lat="42.3776360" lon="-2.4828620">
        <ele>492.4</ele>
        <time>2020-02-09T11:16:57Z</time>
      </trkpt>
      <trkpt lat="42.3775830" lon="-2.4828830">
        <ele>492.5</ele>
        <time>2020-02-09T11:16:58Z</time>
      </trkpt>
      <trkpt lat="42.3775520" lon="-2.4829820">
        <ele>492.6</ele>
        <time>2020-02-09T11:16:59Z</time>
      </trkpt>
      <trkpt lat="42.3775010" lon="-2.4830150">
        <ele>492.7</ele>
        <time>2020-02-09T11:17:00Z</time>
      </trkpt>
      <trkpt lat="42.3774380" lon="-2.4830060">
        <ele>492.8</ele>
        <time>2020-02-09T11:17:01Z</time>
      </trkpt>
      <trkpt lat="42.3773870" lon="-2.4830510">
        <ele>492.9</ele>
        <time>2020-02-09T11:17:02Z</time>
      </trkpt>
      <trkpt lat="42.3773360" lon="-2.4830780">
        <ele>493.0</ele>
        <time>2020-02-09T11:17:03Z</time>
      </trkpt>
      <trkpt lat="42.3772850" lon="-2.4831040">
        <ele>493.1</ele>
        <time>2020-02-09T11:17:04Z</time>
      </trkpt>
      <trkpt lat="42.3772360" lon="-2.4831340">
        <ele>493.2</ele>
        <time>2020-02-09T11:17:05Z</time>
      </trkpt>
      <trkpt lat="42.3771850" lon="-2.4831610">
        <ele>493.3</ele>
        <time>2020-02-09T11:17:06Z</time>
      </trkpt>
      <trkpt lat="42.3771350" lon="-2.4831880">
        <ele>493.7</ele>
        <time>2020-02-09T11:17:07Z</time>
      </trkpt>
      <trkpt lat="42.3770840" lon="-2.4831920">
        <ele>493.7</ele>
        <time>2020-02-09T11:17:08Z</time>
      </trkpt>
      <trkpt lat="42.3770320" lon="-2.4832210">
        <ele>493.7</ele>
        <time>2020-02-09T11:17:09Z</time>
      </trkpt>
      <trkpt lat="42.3769810" lon="-2.4832500">
        <ele>493.7</ele>
        <time>2020-02-09T11:17:10Z</time>
      </trkpt>
      <trkpt lat="42.3769280" lon="-2.4832800">
        <ele>493.8</ele>
        <time>2020-02-09T11:17:11Z</time>
      </trkpt>
      <trkpt lat="42.3768800" lon="-2.4833070">
        <ele>493.8</ele>
        <time>2020-02-09T11:17:12Z</time>
      </trkpt>
      <trkpt lat="42.3768260" lon="-2.4833340">
        <ele>493.9</ele>
        <time>2020-02-09T11:17:13Z</time>
      </trkpt>
      <trkpt lat="42.3767780" lon="-2.4833660">
        <ele>493.9</ele>
        <time>2020-02-09T11:17:14Z</time>
      </trkpt>
      <trkpt lat="42.3767090" lon="-2.4833930">
        <ele>494.0</ele>
        <time>2020-02-09T11:17:15Z</time>
      </trkpt>
      <trkpt lat="42.3766570" lon="-2.4834200">
        <ele>494.0</ele>
        <time>2020-02-09T11:17:16Z</time>
      </trkpt>
      <trkpt lat="42.3766250" lon="-2.4834630">
        <ele>494.1</ele>
        <time>2020-02-09T11:17:17Z</time>
      </trkpt>
      <trkpt lat="42.3765880" lon="-2.4835260">
        <ele>494.1</ele>
        <time>2020-02-09T11:17:18Z</time>
      </trkpt>
      <trkpt lat="42.3765410" lon="-2.4835650">
        <ele>494.2</ele>
        <time>2020-02-09T11:17:19Z</time>
      </trkpt>
      <trkpt lat="42.3764940" lon="-2.4836020">
        <ele>494.3</ele>
        <time>2020-02-09T11:17:20Z</time>
      </trkpt>
      <trkpt lat="42.3764240" lon="-2.4835750">
        <ele>494.4</ele>
        <time>2020-02-09T11:17:21Z</time>
      </trkpt>
      <trkpt lat="42.3763720" lon="-2.4836010">
        <ele>494.4</ele>
        <time>2020-02-09T11:17:22Z</time>
      </trkpt>
      <trkpt lat="42.3763200" lon="-2.4836260">
        <ele>494.5</ele>
        <time>2020-02-09T11:17:23Z</time>
      </trkpt>
      <trkpt lat="42.3762540" lon="-2.4836310">
        <ele>494.6</ele>
        <time>2020-02-09T11:17:24Z</time>
      </trkpt>
      <trkpt lat="42.3761800" lon="-2.4836620">
        <ele>494.6</ele>
        <time>2020-02-09T11:17:25Z</time>
      </trkpt>
      <trkpt lat="42.3761260" lon="-2.4836920">
        <ele>494.7</ele>
        <time>2020-02-09T11:17:26Z</time>
      </trkpt>
      <trkpt lat="42.3760710" lon="-2.4837210">
        <ele>494.7</ele>
        <time>2020-02-09T11:17:27Z</time>
      </trkpt>
      <trkpt lat="42.3759940" lon="-2.4837840">
        <ele>494.9</ele>
        <time>2020-02-09T11:17:28Z</time>
      </trkpt>
      <trkpt lat="42.3759350" lon="-2.4838170">
        <ele>494.9</ele>
        <time>2020-02-09T11:17:29Z</time>
      </trkpt>
      <trkpt lat="42.3758770" lon="-2.4838500">
        <ele>495.0</ele>
        <time>2020-02-09T11:17:30Z</time>
      </trkpt>
      <trkpt lat="42.3758350" lon="-2.4838520">
        <ele>495.0</ele>
        <time>2020-02-09T11:17:31Z</time>
      </trkpt>
      <trkpt lat="42.3757770" lon="-2.4838680">
        <ele>495.1</ele>
        <time>2020-02-09T11:17:32Z</time>
      </trkpt>
      <trkpt lat="42.3757220" lon="-2.4838940">
        <ele>495.1</ele>
        <time>2020-02-09T11:17:33Z</time>
      </trkpt>
      <trkpt lat="42.3756680" lon="-2.4839200">
        <ele>495.2</ele>
        <time>2020-02-09T11:17:34Z</time>
      </trkpt>
      <trkpt lat="42.3756140" lon="-2.4839450">
        <ele>495.3</ele>
        <time>2020-02-09T11:17:35Z</time>
      </trkpt>
      <trkpt lat="42.3755600" lon="-2.4839720">
        <ele>495.4</ele>
        <time>2020-02-09T11:17:36Z</time>
      </trkpt>
      <trkpt lat="42.3755070" lon="-2.4839990">
        <ele>495.5</ele>
        <time>2020-02-09T11:17:37Z</time>
      </trkpt>
      <trkpt lat="42.3754530" lon="-2.4840260">
        <ele>495.7</ele>
        <time>2020-02-09T11:17:38Z</time>
      </trkpt>
      <trkpt lat="42.3753950" lon="-2.4840440">
        <ele>495.7</ele>
        <time>2020-02-09T11:17:39Z</time>
      </trkpt>
      <trkpt lat="42.3753410" lon="-2.4840710">
        <ele>495.7</ele>
        <time>2020-02-09T11:17:40Z</time>
      </trkpt>
      <trkpt lat="42.3752870" lon="-2.4840990">
        <ele>495.7</ele>
        <time>2020-02-09T11:17:41Z</time>
      </trkpt>
      <trkpt lat="42.3752330" lon="-2.4841280">
        <ele>495.7</ele>
        <time>2020-02-09T11:17:42Z</time>
      </trkpt>
      <trkpt lat="42.3751800" lon="-2.4841550">
        <ele>495.7</ele>
        <time>2020-02-09T11:17:43Z</time>
      </trkpt>
      <trkpt lat="42.3751260" lon="-2.4841820">
        <ele>495.7</ele>
        <time>2020-02-09T11:17:44Z</time>
      </trkpt>
      <trkpt lat="42.3750720" lon="-2.4842080">
        <ele>495.7</ele>
        <time>2020-02-09T11:17:45Z</time>
      </trkpt>
      <trkpt lat="42.3750190" lon="-2.4842410">
        <ele>495.7</ele>
        <time>2020-02-09T11:17:46Z</time>
      </trkpt>
      <trkpt lat="42.3749650" lon="-2.4842670">
        <ele>495.7</ele>
        <time>2020-02-09T11:17:47Z</time>
      </trkpt>
      <trkpt lat="42.3748870" lon="-2.4844160">
        <ele>495.7</ele>
        <time>2020-02-09T11:17:48Z</time>
      </trkpt>
      <trkpt lat="42.3748440" lon="-2.4843860">
        <ele>495.7</ele>
        <time>2020-02-09T11:17:49Z</time>
      </trkpt>
      <trkpt lat="42.3747720" lon="-2.4844180">
        <ele>495.8</ele>
        <time>2020-02-09T11:17:50Z</time>
      </trkpt>
      <trkpt lat="42.3747220" lon="-2.4844210">
        <ele>495.8</ele>
        <time>2020-02-09T11:17:51Z</time>
      </trkpt>
      <trkpt lat="42.3746730" lon="-2.4844590">
        <ele>495.9</ele>
        <time>2020-02-09T11:17:52Z</time>
      </trkpt>
      <trkpt lat="42.3746140" lon="-2.4845010">
        <ele>496.1</ele>
        <time>2020-02-09T11:17:53Z</time>
      </trkpt>
      <trkpt lat="42.3745520" lon="-2.4845520">
        <ele>496.3</ele>
        <time>2020-02-09T11:17:54Z</time>
      </trkpt>
      <trkpt lat="42.3744900" lon="-2.4845970">
        <ele>496.5</ele>
        <time>2020-02-09T11:17:55Z</time>
      </trkpt>
      <trkpt lat="42.3744330" lon="-2.4846400">
        <ele>496.6</ele>
        <time>2020-02-09T11:17:56Z</time>
      </trkpt>
      <trkpt lat="42.3743860" lon="-2.4846680">
        <ele>496.6</ele>
        <time>2020-02-09T11:17:57Z</time>
      </trkpt>
      <trkpt lat="42.3743330" lon="-2.4846880">
        <ele>496.7</ele>
        <time>2020-02-09T11:17:58Z</time>
      </trkpt>
      <trkpt lat="42.3742750" lon="-2.4847210">
        <ele>496.8</ele>
        <time>2020-02-09T11:17:59Z</time>
      </trkpt>
      <trkpt lat="42.3742090" lon="-2.4847720">
        <ele>496.9</ele>
        <time>2020-02-09T11:18:00Z</time>
      </trkpt>
      <trkpt lat="42.3741580" lon="-2.4848160">
        <ele>497.0</ele>
        <time>2020-02-09T11:18:01Z</time>
      </trkpt>
      <trkpt lat="42.3741040" lon="-2.4848560">
        <ele>497.2</ele>
        <time>2020-02-09T11:18:02Z</time>
      </trkpt>
      <trkpt lat="42.3740620" lon="-2.4848670">
        <ele>497.3</ele>
        <time>2020-02-09T11:18:03Z</time>
      </trkpt>
      <trkpt lat="42.3740340" lon="-2.4848140">
        <ele>497.4</ele>
        <time>2020-02-09T11:18:04Z</time>
      </trkpt>
      <trkpt lat="42.3739300" lon="-2.4848680">
        <ele>497.5</ele>
        <time>2020-02-09T11:18:06Z</time>
      </trkpt>
      <trkpt lat="42.3738120" lon="-2.4849270">
        <ele>497.6</ele>
        <time>2020-02-09T11:18:08Z</time>
      </trkpt>
      <trkpt lat="42.3737680" lon="-2.4849510">
        <ele>497.7</ele>
        <time>2020-02-09T11:18:09Z</time>
      </trkpt>
      <trkpt lat="42.3737170" lon="-2.4849650">
        <ele>497.7</ele>
        <time>2020-02-09T11:18:10Z</time>
      </trkpt>
      <trkpt lat="42.3736540" lon="-2.4850100">
        <ele>497.7</ele>
        <time>2020-02-09T11:18:11Z</time>
      </trkpt>
      <trkpt lat="42.3736000" lon="-2.4850390">
        <ele>497.7</ele>
        <time>2020-02-09T11:18:12Z</time>
      </trkpt>
      <trkpt lat="42.3735530" lon="-2.4850640">
        <ele>497.7</ele>
        <time>2020-02-09T11:18:13Z</time>
      </trkpt>
      <trkpt lat="42.3735020" lon="-2.4850760">
        <ele>497.7</ele>
        <time>2020-02-09T11:18:14Z</time>
      </trkpt>
      <trkpt lat="42.3734340" lon="-2.4851290">
        <ele>497.8</ele>
        <time>2020-02-09T11:18:15Z</time>
      </trkpt>
      <trkpt lat="42.3733770" lon="-2.4851580">
        <ele>497.9</ele>
        <time>2020-02-09T11:18:16Z</time>
      </trkpt>
      <trkpt lat="42.3733230" lon="-2.4851880">
        <ele>498.0</ele>
        <time>2020-02-09T11:18:17Z</time>
      </trkpt>
      <trkpt lat="42.3732710" lon="-2.4852220">
        <ele>498.2</ele>
        <time>2020-02-09T11:18:18Z</time>
      </trkpt>
      <trkpt lat="42.3732240" lon="-2.4852450">
        <ele>498.3</ele>
        <time>2020-02-09T11:18:19Z</time>
      </trkpt>
      <trkpt lat="42.3731700" lon="-2.4852870">
        <ele>498.4</ele>
        <time>2020-02-09T11:18:20Z</time>
      </trkpt>
      <trkpt lat="42.3731140" lon="-2.4852970">
        <ele>498.5</ele>
        <time>2020-02-09T11:18:21Z</time>
      </trkpt>
      <trkpt lat="42.3730660" lon="-2.4853460">
        <ele>498.6</ele>
        <time>2020-02-09T11:18:22Z</time>
      </trkpt>
      <trkpt lat="42.3730200" lon="-2.4853650">
        <ele>498.6</ele>
        <time>2020-02-09T11:18:23Z</time>
      </trkpt>
      <trkpt lat="42.3729690" lon="-2.4853960">
        <ele>498.6</ele>
        <time>2020-02-09T11:18:24Z</time>
      </trkpt>
      <trkpt lat="42.3729120" lon="-2.4854310">
        <ele>498.7</ele>
        <time>2020-02-09T11:18:25Z</time>
      </trkpt>
      <trkpt lat="42.3728650" lon="-2.4854450">
        <ele>498.7</ele>
        <time>2020-02-09T11:18:26Z</time>
      </trkpt>
      <trkpt lat="42.3728080" lon="-2.4854710">
        <ele>498.7</ele>
        <time>2020-02-09T11:18:27Z</time>
      </trkpt>
      <trkpt lat="42.3727580" lon="-2.4854870">
        <ele>498.7</ele>
        <time>2020-02-09T11:18:28Z</time>
      </trkpt>
      <trkpt lat="42.3727070" lon="-2.4855230">
        <ele>498.7</ele>
        <time>2020-02-09T11:18:29Z</time>
      </trkpt>
      <trkpt lat="42.3726530" lon="-2.4855530">
        <ele>498.7</ele>
        <time>2020-02-09T11:18:30Z</time>
      </trkpt>
      <trkpt lat="42.3725990" lon="-2.4855830">
        <ele>498.7</ele>
        <time>2020-02-09T11:18:31Z</time>
      </trkpt>
      <trkpt lat="42.3725330" lon="-2.4856240">
        <ele>498.9</ele>
        <time>2020-02-09T11:18:32Z</time>
      </trkpt>
      <trkpt lat="42.3724780" lon="-2.4856550">
        <ele>499.1</ele>
        <time>2020-02-09T11:18:33Z</time>
      </trkpt>
      <trkpt lat="42.3724240" lon="-2.4856860">
        <ele>499.3</ele>
        <time>2020-02-09T11:18:34Z</time>
      </trkpt>
      <trkpt lat="42.3723740" lon="-2.4857160">
        <ele>499.4</ele>
        <time>2020-02-09T11:18:35Z</time>
      </trkpt>
      <trkpt lat="42.3723200" lon="-2.4857480">
        <ele>499.5</ele>
        <time>2020-02-09T11:18:36Z</time>
      </trkpt>
      <trkpt lat="42.3722670" lon="-2.4857800">
        <ele>499.5</ele>
        <time>2020-02-09T11:18:37Z</time>
      </trkpt>
      <trkpt lat="42.3722390" lon="-2.4857970">
        <ele>499.6</ele>
        <time>2020-02-09T11:18:38Z</time>
      </trkpt>
      <trkpt lat="42.3721890" lon="-2.4858280">
        <ele>499.6</ele>
        <time>2020-02-09T11:18:39Z</time>
      </trkpt>
      <trkpt lat="42.3721380" lon="-2.4858590">
        <ele>499.6</ele>
        <time>2020-02-09T11:18:40Z</time>
      </trkpt>
      <trkpt lat="42.3720840" lon="-2.4858870">
        <ele>499.6</ele>
        <time>2020-02-09T11:18:41Z</time>
      </trkpt>
      <trkpt lat="42.3720310" lon="-2.4859140">
        <ele>499.7</ele>
        <time>2020-02-09T11:18:42Z</time>
      </trkpt>
      <trkpt lat="42.3719820" lon="-2.4859460">
        <ele>499.7</ele>
        <time>2020-02-09T11:18:43Z</time>
      </trkpt>
      <trkpt lat="42.3719590" lon="-2.4860180">
        <ele>499.9</ele>
        <time>2020-02-09T11:18:44Z</time>
      </trkpt>
      <trkpt lat="42.3718860" lon="-2.4860050">
        <ele>500.0</ele>
        <time>2020-02-09T11:18:45Z</time>
      </trkpt>
      <trkpt lat="42.3718140" lon="-2.4860280">
        <ele>500.2</ele>
        <time>2020-02-09T11:18:46Z</time>
      </trkpt>
      <trkpt lat="42.3717510" lon="-2.4860600">
        <ele>500.3</ele>
        <time>2020-02-09T11:18:47Z</time>
      </trkpt>
      <trkpt lat="42.3716990" lon="-2.4860880">
        <ele>500.4</ele>
        <time>2020-02-09T11:18:48Z</time>
      </trkpt>
      <trkpt lat="42.3716480" lon="-2.4861100">
        <ele>500.5</ele>
        <time>2020-02-09T11:18:49Z</time>
      </trkpt>
      <trkpt lat="42.3715920" lon="-2.4861300">
        <ele>500.5</ele>
        <time>2020-02-09T11:18:50Z</time>
      </trkpt>
      <trkpt lat="42.3715430" lon="-2.4861630">
        <ele>500.6</ele>
        <time>2020-02-09T11:18:51Z</time>
      </trkpt>
      <trkpt lat="42.3714870" lon="-2.4861910">
        <ele>500.7</ele>
        <time>2020-02-09T11:18:52Z</time>
      </trkpt>
      <trkpt lat="42.3714350" lon="-2.4862140">
        <ele>500.8</ele>
        <time>2020-02-09T11:18:53Z</time>
      </trkpt>
      <trkpt lat="42.3713870" lon="-2.4862520">
        <ele>500.9</ele>
        <time>2020-02-09T11:18:54Z</time>
      </trkpt>
      <trkpt lat="42.3713370" lon="-2.4862870">
        <ele>501.0</ele>
        <time>2020-02-09T11:18:55Z</time>
      </trkpt>
      <trkpt lat="42.3712800" lon="-2.4863090">
        <ele>501.2</ele>
        <time>2020-02-09T11:18:56Z</time>
      </trkpt>
      <trkpt lat="42.3712240" lon="-2.4863360">
        <ele>501.3</ele>
        <time>2020-02-09T11:18:57Z</time>
      </trkpt>
      <trkpt lat="42.3711680" lon="-2.4863710">
        <ele>501.4</ele>
        <time>2020-02-09T11:18:58Z</time>
      </trkpt>
      <trkpt lat="42.3711110" lon="-2.4864010">
        <ele>501.4</ele>
        <time>2020-02-09T11:18:59Z</time>
      </trkpt>
      <trkpt lat="42.3710530" lon="-2.4864310">
        <ele>501.4</ele>
        <time>2020-02-09T11:19:00Z</time>
      </trkpt>
      <trkpt lat="42.3710020" lon="-2.4864670">
        <ele>501.4</ele>
        <time>2020-02-09T11:19:01Z</time>
      </trkpt>
      <trkpt lat="42.3709520" lon="-2.4865060">
        <ele>501.4</ele>
        <time>2020-02-09T11:19:02Z</time>
      </trkpt>
      <trkpt lat="42.3709000" lon="-2.4865340">
        <ele>501.4</ele>
        <time>2020-02-09T11:19:03Z</time>
      </trkpt>
      <trkpt lat="42.3708480" lon="-2.4865670">
        <ele>501.4</ele>
        <time>2020-02-09T11:19:04Z</time>
      </trkpt>
      <trkpt lat="42.3707860" lon="-2.4865900">
        <ele>501.4</ele>
        <time>2020-02-09T11:19:05Z</time>
      </trkpt>
      <trkpt lat="42.3707260" lon="-2.4866130">
        <ele>501.4</ele>
        <time>2020-02-09T11:19:06Z</time>
      </trkpt>
      <trkpt lat="42.3706700" lon="-2.4866440">
        <ele>501.4</ele>
        <time>2020-02-09T11:19:07Z</time>
      </trkpt>
      <trkpt lat="42.3706250" lon="-2.4866870">
        <ele>501.4</ele>
        <time>2020-02-09T11:19:08Z</time>
      </trkpt>
      <trkpt lat="42.3705800" lon="-2.4867180">
        <ele>501.4</ele>
        <time>2020-02-09T11:19:09Z</time>
      </trkpt>
      <trkpt lat="42.3705300" lon="-2.4867430">
        <ele>501.4</ele>
        <time>2020-02-09T11:19:10Z</time>
      </trkpt>
      <trkpt lat="42.3704730" lon="-2.4867720">
        <ele>501.5</ele>
        <time>2020-02-09T11:19:11Z</time>
      </trkpt>
      <trkpt lat="42.3704170" lon="-2.4868020">
        <ele>501.6</ele>
        <time>2020-02-09T11:19:12Z</time>
      </trkpt>
      <trkpt lat="42.3703660" lon="-2.4868270">
        <ele>501.8</ele>
        <time>2020-02-09T11:19:13Z</time>
      </trkpt>
      <trkpt lat="42.3703080" lon="-2.4868440">
        <ele>502.1</ele>
        <time>2020-02-09T11:19:14Z</time>
      </trkpt>
      <trkpt lat="42.3702450" lon="-2.4868700">
        <ele>502.6</ele>
        <time>2020-02-09T11:19:15Z</time>
      </trkpt>
      <trkpt lat="42.3701910" lon="-2.4869120">
        <ele>503.3</ele>
        <time>2020-02-09T11:19:16Z</time>
      </trkpt>
      <trkpt lat="42.3701320" lon="-2.4869380">
        <ele>503.3</ele>
        <time>2020-02-09T11:19:17Z</time>
      </trkpt>
      <trkpt lat="42.3700750" lon="-2.4869700">
        <ele>503.2</ele>
        <time>2020-02-09T11:19:18Z</time>
      </trkpt>
      <trkpt lat="42.3700210" lon="-2.4869980">
        <ele>503.2</ele>
        <time>2020-02-09T11:19:19Z</time>
      </trkpt>
      <trkpt lat="42.3699640" lon="-2.4870280">
        <ele>503.1</ele>
        <time>2020-02-09T11:19:20Z</time>
      </trkpt>
      <trkpt lat="42.3699150" lon="-2.4870580">
        <ele>503.1</ele>
        <time>2020-02-09T11:19:21Z</time>
      </trkpt>
      <trkpt lat="42.3698580" lon="-2.4870890">
        <ele>503.0</ele>
        <time>2020-02-09T11:19:22Z</time>
      </trkpt>
      <trkpt lat="42.3698040" lon="-2.4871230">
        <ele>503.0</ele>
        <time>2020-02-09T11:19:23Z</time>
      </trkpt>
      <trkpt lat="42.3697530" lon="-2.4871490">
        <ele>503.0</ele>
        <time>2020-02-09T11:19:24Z</time>
      </trkpt>
      <trkpt lat="42.3697000" lon="-2.4871770">
        <ele>502.9</ele>
        <time>2020-02-09T11:19:25Z</time>
      </trkpt>
      <trkpt lat="42.3696440" lon="-2.4872060">
        <ele>502.9</ele>
        <time>2020-02-09T11:19:26Z</time>
      </trkpt>
      <trkpt lat="42.3695890" lon="-2.4872340">
        <ele>502.8</ele>
        <time>2020-02-09T11:19:27Z</time>
      </trkpt>
      <trkpt lat="42.3695260" lon="-2.4872680">
        <ele>502.8</ele>
        <time>2020-02-09T11:19:28Z</time>
      </trkpt>
      <trkpt lat="42.3694690" lon="-2.4873070">
        <ele>502.7</ele>
        <time>2020-02-09T11:19:29Z</time>
      </trkpt>
      <trkpt lat="42.3694150" lon="-2.4873430">
        <ele>502.7</ele>
        <time>2020-02-09T11:19:30Z</time>
      </trkpt>
      <trkpt lat="42.3693530" lon="-2.4873740">
        <ele>502.6</ele>
        <time>2020-02-09T11:19:31Z</time>
      </trkpt>
      <trkpt lat="42.3692990" lon="-2.4874030">
        <ele>502.7</ele>
        <time>2020-02-09T11:19:32Z</time>
      </trkpt>
      <trkpt lat="42.3692430" lon="-2.4874210">
        <ele>502.7</ele>
        <time>2020-02-09T11:19:33Z</time>
      </trkpt>
      <trkpt lat="42.3691870" lon="-2.4874520">
        <ele>502.7</ele>
        <time>2020-02-09T11:19:34Z</time>
      </trkpt>
      <trkpt lat="42.3691420" lon="-2.4874810">
        <ele>502.7</ele>
        <time>2020-02-09T11:19:35Z</time>
      </trkpt>
      <trkpt lat="42.3690810" lon="-2.4875130">
        <ele>502.7</ele>
        <time>2020-02-09T11:19:36Z</time>
      </trkpt>
      <trkpt lat="42.3690260" lon="-2.4875390">
        <ele>502.9</ele>
        <time>2020-02-09T11:19:37Z</time>
      </trkpt>
      <trkpt lat="42.3689760" lon="-2.4875670">
        <ele>503.2</ele>
        <time>2020-02-09T11:19:38Z</time>
      </trkpt>
      <trkpt lat="42.3689260" lon="-2.4876020">
        <ele>503.5</ele>
        <time>2020-02-09T11:19:39Z</time>
      </trkpt>
      <trkpt lat="42.3688680" lon="-2.4876350">
        <ele>503.8</ele>
        <time>2020-02-09T11:19:40Z</time>
      </trkpt>
      <trkpt lat="42.3688130" lon="-2.4876610">
        <ele>504.1</ele>
        <time>2020-02-09T11:19:41Z</time>
      </trkpt>
      <trkpt lat="42.3687580" lon="-2.4876880">
        <ele>504.5</ele>
        <time>2020-02-09T11:19:42Z</time>
      </trkpt>
      <trkpt lat="42.3687050" lon="-2.4877170">
        <ele>504.9</ele>
        <time>2020-02-09T11:19:43Z</time>
      </trkpt>
      <trkpt lat="42.3686580" lon="-2.4877580">
        <ele>505.2</ele>
        <time>2020-02-09T11:19:44Z</time>
      </trkpt>
      <trkpt lat="42.3686040" lon="-2.4877890">
        <ele>505.6</ele>
        <time>2020-02-09T11:19:45Z</time>
      </trkpt>
      <trkpt lat="42.3685540" lon="-2.4877950">
        <ele>505.8</ele>
        <time>2020-02-09T11:19:46Z</time>
      </trkpt>
      <trkpt lat="42.3684930" lon="-2.4878200">
        <ele>506.1</ele>
        <time>2020-02-09T11:19:47Z</time>
      </trkpt>
      <trkpt lat="42.3684440" lon="-2.4878760">
        <ele>506.4</ele>
        <time>2020-02-09T11:19:48Z</time>
      </trkpt>
      <trkpt lat="42.3683890" lon="-2.4879070">
        <ele>506.6</ele>
        <time>2020-02-09T11:19:49Z</time>
      </trkpt>
      <trkpt lat="42.3683410" lon="-2.4879450">
        <ele>506.8</ele>
        <time>2020-02-09T11:19:50Z</time>
      </trkpt>
      <trkpt lat="42.3682860" lon="-2.4879740">
        <ele>506.9</ele>
        <time>2020-02-09T11:19:51Z</time>
      </trkpt>
      <trkpt lat="42.3682380" lon="-2.4880060">
        <ele>507.1</ele>
        <time>2020-02-09T11:19:52Z</time>
      </trkpt>
      <trkpt lat="42.3681660" lon="-2.4880070">
        <ele>507.3</ele>
        <time>2020-02-09T11:19:53Z</time>
      </trkpt>
      <trkpt lat="42.3681130" lon="-2.4880340">
        <ele>507.5</ele>
        <time>2020-02-09T11:19:54Z</time>
      </trkpt>
      <trkpt lat="42.3680710" lon="-2.4880390">
        <ele>507.6</ele>
        <time>2020-02-09T11:19:55Z</time>
      </trkpt>
      <trkpt lat="42.3680150" lon="-2.4880780">
        <ele>507.8</ele>
        <time>2020-02-09T11:19:56Z</time>
      </trkpt>
      <trkpt lat="42.3679670" lon="-2.4881070">
        <ele>507.9</ele>
        <time>2020-02-09T11:19:57Z</time>
      </trkpt>
      <trkpt lat="42.3679190" lon="-2.4881380">
        <ele>507.9</ele>
        <time>2020-02-09T11:19:58Z</time>
      </trkpt>
      <trkpt lat="42.3678800" lon="-2.4881690">
        <ele>507.9</ele>
        <time>2020-02-09T11:19:59Z</time>
      </trkpt>
      <trkpt lat="42.3678410" lon="-2.4882100">
        <ele>508.0</ele>
        <time>2020-02-09T11:20:00Z</time>
      </trkpt>
      <trkpt lat="42.3678270" lon="-2.4882500">
        <ele>508.0</ele>
        <time>2020-02-09T11:20:01Z</time>
      </trkpt>
      <trkpt lat="42.3677960" lon="-2.4883130">
        <ele>508.0</ele>
        <time>2020-02-09T11:20:02Z</time>
      </trkpt>
      <trkpt lat="42.3677660" lon="-2.4883650">
        <ele>508.0</ele>
        <time>2020-02-09T11:20:03Z</time>
      </trkpt>
      <trkpt lat="42.3677170" lon="-2.4884080">
        <ele>508.0</ele>
        <time>2020-02-09T11:20:04Z</time>
      </trkpt>
      <trkpt lat="42.3676590" lon="-2.4884380">
        <ele>508.0</ele>
        <time>2020-02-09T11:20:05Z</time>
      </trkpt>
      <trkpt lat="42.3676120" lon="-2.4884750">
        <ele>508.0</ele>
        <time>2020-02-09T11:20:06Z</time>
      </trkpt>
      <trkpt lat="42.3675440" lon="-2.4884540">
        <ele>507.9</ele>
        <time>2020-02-09T11:20:07Z</time>
      </trkpt>
      <trkpt lat="42.3674900" lon="-2.4884630">
        <ele>508.1</ele>
        <time>2020-02-09T11:20:08Z</time>
      </trkpt>
      <trkpt lat="42.3674360" lon="-2.4884730">
        <ele>508.3</ele>
        <time>2020-02-09T11:20:09Z</time>
      </trkpt>
      <trkpt lat="42.3673850" lon="-2.4884840">
        <ele>508.4</ele>
        <time>2020-02-09T11:20:10Z</time>
      </trkpt>
      <trkpt lat="42.3673100" lon="-2.4884910">
        <ele>508.5</ele>
        <time>2020-02-09T11:20:11Z</time>
      </trkpt>
      <trkpt lat="42.3672510" lon="-2.4885060">
        <ele>508.5</ele>
        <time>2020-02-09T11:20:12Z</time>
      </trkpt>
      <trkpt lat="42.3671940" lon="-2.4885200">
        <ele>508.5</ele>
        <time>2020-02-09T11:20:13Z</time>
      </trkpt>
      <trkpt lat="42.3671450" lon="-2.4885560">
        <ele>508.4</ele>
        <time>2020-02-09T11:20:14Z</time>
      </trkpt>
      <trkpt lat="42.3670990" lon="-2.4885800">
        <ele>508.4</ele>
        <time>2020-02-09T11:20:15Z</time>
      </trkpt>
      <trkpt lat="42.3670400" lon="-2.4886060">
        <ele>508.3</ele>
        <time>2020-02-09T11:20:16Z</time>
      </trkpt>
      <trkpt lat="42.3669900" lon="-2.4886400">
        <ele>508.4</ele>
        <time>2020-02-09T11:20:17Z</time>
      </trkpt>
      <trkpt lat="42.3669410" lon="-2.4886430">
        <ele>508.4</ele>
        <time>2020-02-09T11:20:18Z</time>
      </trkpt>
      <trkpt lat="42.3668880" lon="-2.4886700">
        <ele>508.6</ele>
        <time>2020-02-09T11:20:19Z</time>
      </trkpt>
      <trkpt lat="42.3668330" lon="-2.4887220">
        <ele>508.8</ele>
        <time>2020-02-09T11:20:20Z</time>
      </trkpt>
      <trkpt lat="42.3667690" lon="-2.4887560">
        <ele>509.1</ele>
        <time>2020-02-09T11:20:21Z</time>
      </trkpt>
      <trkpt lat="42.3667130" lon="-2.4887860">
        <ele>509.4</ele>
        <time>2020-02-09T11:20:22Z</time>
      </trkpt>
      <trkpt lat="42.3666460" lon="-2.4888130">
        <ele>509.7</ele>
        <time>2020-02-09T11:20:23Z</time>
      </trkpt>
      <trkpt lat="42.3665900" lon="-2.4888410">
        <ele>509.9</ele>
        <time>2020-02-09T11:20:24Z</time>
      </trkpt>
      <trkpt lat="42.3665390" lon="-2.4888680">
        <ele>510.1</ele>
        <time>2020-02-09T11:20:25Z</time>
      </trkpt>
      <trkpt lat="42.3664840" lon="-2.4888910">
        <ele>510.2</ele>
        <time>2020-02-09T11:20:26Z</time>
      </trkpt>
      <trkpt lat="42.3664330" lon="-2.4889260">
        <ele>510.2</ele>
        <time>2020-02-09T11:20:27Z</time>
      </trkpt>
      <trkpt lat="42.3663800" lon="-2.4889540">
        <ele>510.3</ele>
        <time>2020-02-09T11:20:28Z</time>
      </trkpt>
      <trkpt lat="42.3663270" lon="-2.4889810">
        <ele>510.4</ele>
        <time>2020-02-09T11:20:29Z</time>
      </trkpt>
      <trkpt lat="42.3662750" lon="-2.4890150">
        <ele>510.5</ele>
        <time>2020-02-09T11:20:30Z</time>
      </trkpt>
      <trkpt lat="42.3662220" lon="-2.4890430">
        <ele>510.6</ele>
        <time>2020-02-09T11:20:31Z</time>
      </trkpt>
      <trkpt lat="42.3661860" lon="-2.4890920">
        <ele>510.8</ele>
        <time>2020-02-09T11:20:32Z</time>
      </trkpt>
      <trkpt lat="42.3661350" lon="-2.4891020">
        <ele>510.9</ele>
        <time>2020-02-09T11:20:33Z</time>
      </trkpt>
      <trkpt lat="42.3660770" lon="-2.4891300">
        <ele>511.1</ele>
        <time>2020-02-09T11:20:34Z</time>
      </trkpt>
      <trkpt lat="42.3660270" lon="-2.4891580">
        <ele>511.2</ele>
        <time>2020-02-09T11:20:35Z</time>
      </trkpt>
      <trkpt lat="42.3659730" lon="-2.4891860">
        <ele>511.3</ele>
        <time>2020-02-09T11:20:36Z</time>
      </trkpt>
      <trkpt lat="42.3659220" lon="-2.4892140">
        <ele>511.4</ele>
        <time>2020-02-09T11:20:37Z</time>
      </trkpt>
      <trkpt lat="42.3658670" lon="-2.4892210">
        <ele>511.5</ele>
        <time>2020-02-09T11:20:38Z</time>
      </trkpt>
      <trkpt lat="42.3658190" lon="-2.4892390">
        <ele>511.6</ele>
        <time>2020-02-09T11:20:39Z</time>
      </trkpt>
      <trkpt lat="42.3657660" lon="-2.4892620">
        <ele>511.6</ele>
        <time>2020-02-09T11:20:40Z</time>
      </trkpt>
      <trkpt lat="42.3657140" lon="-2.4892840">
        <ele>511.5</ele>
        <time>2020-02-09T11:20:41Z</time>
      </trkpt>
      <trkpt lat="42.3656580" lon="-2.4893100">
        <ele>511.5</ele>
        <time>2020-02-09T11:20:42Z</time>
      </trkpt>
      <trkpt lat="42.3655990" lon="-2.4893750">
        <ele>511.5</ele>
        <time>2020-02-09T11:20:43Z</time>
      </trkpt>
      <trkpt lat="42.3655340" lon="-2.4893980">
        <ele>511.5</ele>
        <time>2020-02-09T11:20:44Z</time>
      </trkpt>
      <trkpt lat="42.3654770" lon="-2.4894270">
        <ele>511.6</ele>
        <time>2020-02-09T11:20:45Z</time>
      </trkpt>
      <trkpt lat="42.3654240" lon="-2.4894830">
        <ele>511.7</ele>
        <time>2020-02-09T11:20:46Z</time>
      </trkpt>
      <trkpt lat="42.3653680" lon="-2.4895160">
        <ele>511.8</ele>
        <time>2020-02-09T11:20:47Z</time>
      </trkpt>
      <trkpt lat="42.3653120" lon="-2.4895490">
        <ele>512.0</ele>
        <time>2020-02-09T11:20:48Z</time>
      </trkpt>
      <trkpt lat="42.3652580" lon="-2.4895760">
        <ele>512.1</ele>
        <time>2020-02-09T11:20:49Z</time>
      </trkpt>
      <trkpt lat="42.3651990" lon="-2.4896060">
        <ele>512.2</ele>
        <time>2020-02-09T11:20:50Z</time>
      </trkpt>
      <trkpt lat="42.3651510" lon="-2.4896360">
        <ele>512.2</ele>
        <time>2020-02-09T11:20:51Z</time>
      </trkpt>
      <trkpt lat="42.3650940" lon="-2.4896660">
        <ele>512.2</ele>
        <time>2020-02-09T11:20:52Z</time>
      </trkpt>
      <trkpt lat="42.3650370" lon="-2.4896960">
        <ele>512.2</ele>
        <time>2020-02-09T11:20:53Z</time>
      </trkpt>
      <trkpt lat="42.3649850" lon="-2.4896900">
        <ele>512.2</ele>
        <time>2020-02-09T11:20:54Z</time>
      </trkpt>
      <trkpt lat="42.3649340" lon="-2.4897290">
        <ele>512.2</ele>
        <time>2020-02-09T11:20:55Z</time>
      </trkpt>
      <trkpt lat="42.3648800" lon="-2.4897590">
        <ele>512.2</ele>
        <time>2020-02-09T11:20:56Z</time>
      </trkpt>
      <trkpt lat="42.3648270" lon="-2.4897900">
        <ele>512.2</ele>
        <time>2020-02-09T11:20:57Z</time>
      </trkpt>
      <trkpt lat="42.3647730" lon="-2.4898200">
        <ele>512.2</ele>
        <time>2020-02-09T11:20:58Z</time>
      </trkpt>
      <trkpt lat="42.3647140" lon="-2.4898330">
        <ele>512.3</ele>
        <time>2020-02-09T11:20:59Z</time>
      </trkpt>
      <trkpt lat="42.3646620" lon="-2.4898600">
        <ele>512.4</ele>
        <time>2020-02-09T11:21:00Z</time>
      </trkpt>
      <trkpt lat="42.3646070" lon="-2.4899030">
        <ele>512.5</ele>
        <time>2020-02-09T11:21:01Z</time>
      </trkpt>
      <trkpt lat="42.3645510" lon="-2.4899320">
        <ele>512.7</ele>
        <time>2020-02-09T11:21:02Z</time>
      </trkpt>
      <trkpt lat="42.3644920" lon="-2.4899410">
        <ele>512.8</ele>
        <time>2020-02-09T11:21:03Z</time>
      </trkpt>
      <trkpt lat="42.3644490" lon="-2.4899800">
        <ele>512.9</ele>
        <time>2020-02-09T11:21:04Z</time>
      </trkpt>
      <trkpt lat="42.3643930" lon="-2.4900090">
        <ele>512.9</ele>
        <time>2020-02-09T11:21:05Z</time>
      </trkpt>
      <trkpt lat="42.3643390" lon="-2.4900370">
        <ele>512.9</ele>
        <time>2020-02-09T11:21:06Z</time>
      </trkpt>
      <trkpt lat="42.3642840" lon="-2.4900660">
        <ele>512.9</ele>
        <time>2020-02-09T11:21:07Z</time>
      </trkpt>
      <trkpt lat="42.3642310" lon="-2.4900930">
        <ele>512.9</ele>
        <time>2020-02-09T11:21:08Z</time>
      </trkpt>
      <trkpt lat="42.3641770" lon="-2.4901200">
        <ele>512.9</ele>
        <time>2020-02-09T11:21:09Z</time>
      </trkpt>
      <trkpt lat="42.3641020" lon="-2.4901210">
        <ele>512.8</ele>
        <time>2020-02-09T11:21:10Z</time>
      </trkpt>
      <trkpt lat="42.3640510" lon="-2.4901660">
        <ele>512.8</ele>
        <time>2020-02-09T11:21:11Z</time>
      </trkpt>
      <trkpt lat="42.3639990" lon="-2.4901820">
        <ele>512.8</ele>
        <time>2020-02-09T11:21:12Z</time>
      </trkpt>
      <trkpt lat="42.3639460" lon="-2.4902150">
        <ele>512.8</ele>
        <time>2020-02-09T11:21:13Z</time>
      </trkpt>
      <trkpt lat="42.3638900" lon="-2.4902440">
        <ele>512.8</ele>
        <time>2020-02-09T11:21:14Z</time>
      </trkpt>
      <trkpt lat="42.3638320" lon="-2.4902770">
        <ele>512.7</ele>
        <time>2020-02-09T11:21:15Z</time>
      </trkpt>
      <trkpt lat="42.3637790" lon="-2.4903100">
        <ele>512.7</ele>
        <time>2020-02-09T11:21:16Z</time>
      </trkpt>
      <trkpt lat="42.3637240" lon="-2.4903380">
        <ele>512.7</ele>
        <time>2020-02-09T11:21:17Z</time>
      </trkpt>
      <trkpt lat="42.3636750" lon="-2.4903630">
        <ele>512.7</ele>
        <time>2020-02-09T11:21:18Z</time>
      </trkpt>
      <trkpt lat="42.3636180" lon="-2.4903980">
        <ele>512.7</ele>
        <time>2020-02-09T11:21:19Z</time>
      </trkpt>
      <trkpt lat="42.3635630" lon="-2.4904260">
        <ele>512.7</ele>
        <time>2020-02-09T11:21:20Z</time>
      </trkpt>
      <trkpt lat="42.3635100" lon="-2.4904590">
        <ele>512.7</ele>
        <time>2020-02-09T11:21:21Z</time>
      </trkpt>
      <trkpt lat="42.3634590" lon="-2.4904950">
        <ele>512.7</ele>
        <time>2020-02-09T11:21:22Z</time>
      </trkpt>
      <trkpt lat="42.3634110" lon="-2.4905210">
        <ele>512.8</ele>
        <time>2020-02-09T11:21:23Z</time>
      </trkpt>
      <trkpt lat="42.3633500" lon="-2.4905520">
        <ele>512.8</ele>
        <time>2020-02-09T11:21:24Z</time>
      </trkpt>
      <trkpt lat="42.3632930" lon="-2.4905820">
        <ele>512.8</ele>
        <time>2020-02-09T11:21:25Z</time>
      </trkpt>
      <trkpt lat="42.3632380" lon="-2.4906130">
        <ele>512.9</ele>
        <time>2020-02-09T11:21:26Z</time>
      </trkpt>
      <trkpt lat="42.3631790" lon="-2.4906400">
        <ele>513.0</ele>
        <time>2020-02-09T11:21:27Z</time>
      </trkpt>
      <trkpt lat="42.3631200" lon="-2.4906720">
        <ele>513.2</ele>
        <time>2020-02-09T11:21:28Z</time>
      </trkpt>
      <trkpt lat="42.3630670" lon="-2.4907050">
        <ele>513.4</ele>
        <time>2020-02-09T11:21:29Z</time>
      </trkpt>
      <trkpt lat="42.3630320" lon="-2.4906810">
        <ele>513.5</ele>
        <time>2020-02-09T11:21:30Z</time>
      </trkpt>
      <trkpt lat="42.3629860" lon="-2.4906800">
        <ele>513.7</ele>
        <time>2020-02-09T11:21:31Z</time>
      </trkpt>
      <trkpt lat="42.3629280" lon="-2.4907440">
        <ele>514.1</ele>
        <time>2020-02-09T11:21:32Z</time>
      </trkpt>
      <trkpt lat="42.3628770" lon="-2.4907760">
        <ele>514.4</ele>
        <time>2020-02-09T11:21:33Z</time>
      </trkpt>
      <trkpt lat="42.3628240" lon="-2.4908250">
        <ele>514.8</ele>
        <time>2020-02-09T11:21:34Z</time>
      </trkpt>
      <trkpt lat="42.3627710" lon="-2.4908480">
        <ele>515.1</ele>
        <time>2020-02-09T11:21:35Z</time>
      </trkpt>
      <trkpt lat="42.3627230" lon="-2.4908710">
        <ele>515.3</ele>
        <time>2020-02-09T11:21:36Z</time>
      </trkpt>
      <trkpt lat="42.3626630" lon="-2.4908850">
        <ele>515.5</ele>
        <time>2020-02-09T11:21:37Z</time>
      </trkpt>
      <trkpt lat="42.3626070" lon="-2.4909110">
        <ele>515.7</ele>
        <time>2020-02-09T11:21:38Z</time>
      </trkpt>
      <trkpt lat="42.3625530" lon="-2.4909380">
        <ele>515.8</ele>
        <time>2020-02-09T11:21:39Z</time>
      </trkpt>
      <trkpt lat="42.3625010" lon="-2.4909680">
        <ele>515.9</ele>
        <time>2020-02-09T11:21:40Z</time>
      </trkpt>
      <trkpt lat="42.3624480" lon="-2.4909970">
        <ele>515.9</ele>
        <time>2020-02-09T11:21:41Z</time>
      </trkpt>
      <trkpt lat="42.3623980" lon="-2.4910270">
        <ele>516.0</ele>
        <time>2020-02-09T11:21:42Z</time>
      </trkpt>
      <trkpt lat="42.3623450" lon="-2.4910550">
        <ele>516.2</ele>
        <time>2020-02-09T11:21:43Z</time>
      </trkpt>
      <trkpt lat="42.3622930" lon="-2.4910820">
        <ele>516.3</ele>
        <time>2020-02-09T11:21:44Z</time>
      </trkpt>
      <trkpt lat="42.3622410" lon="-2.4911120">
        <ele>516.4</ele>
        <time>2020-02-09T11:21:45Z</time>
      </trkpt>
      <trkpt lat="42.3621870" lon="-2.4911390">
        <ele>516.6</ele>
        <time>2020-02-09T11:21:46Z</time>
      </trkpt>
      <trkpt lat="42.3621330" lon="-2.4911660">
        <ele>516.8</ele>
        <time>2020-02-09T11:21:47Z</time>
      </trkpt>
      <trkpt lat="42.3620590" lon="-2.4912350">
        <ele>517.0</ele>
        <time>2020-02-09T11:21:48Z</time>
      </trkpt>
      <trkpt lat="42.3620040" lon="-2.4912670">
        <ele>517.1</ele>
        <time>2020-02-09T11:21:49Z</time>
      </trkpt>
      <trkpt lat="42.3619490" lon="-2.4912990">
        <ele>517.3</ele>
        <time>2020-02-09T11:21:50Z</time>
      </trkpt>
      <trkpt lat="42.3618920" lon="-2.4913320">
        <ele>517.5</ele>
        <time>2020-02-09T11:21:51Z</time>
      </trkpt>
      <trkpt lat="42.3618380" lon="-2.4913640">
        <ele>517.6</ele>
        <time>2020-02-09T11:21:52Z</time>
      </trkpt>
      <trkpt lat="42.3617850" lon="-2.4913970">
        <ele>517.8</ele>
        <time>2020-02-09T11:21:53Z</time>
      </trkpt>
      <trkpt lat="42.3617460" lon="-2.4913990">
        <ele>517.8</ele>
        <time>2020-02-09T11:21:54Z</time>
      </trkpt>
      <trkpt lat="42.3616880" lon="-2.4914260">
        <ele>517.9</ele>
        <time>2020-02-09T11:21:55Z</time>
      </trkpt>
      <trkpt lat="42.3616350" lon="-2.4914530">
        <ele>518.0</ele>
        <time>2020-02-09T11:21:56Z</time>
      </trkpt>
      <trkpt lat="42.3615810" lon="-2.4914820">
        <ele>518.0</ele>
        <time>2020-02-09T11:21:57Z</time>
      </trkpt>
      <trkpt lat="42.3615270" lon="-2.4915090">
        <ele>518.1</ele>
        <time>2020-02-09T11:21:58Z</time>
      </trkpt>
      <trkpt lat="42.3614730" lon="-2.4915360">
        <ele>518.2</ele>
        <time>2020-02-09T11:21:59Z</time>
      </trkpt>
      <trkpt lat="42.3614280" lon="-2.4916520">
        <ele>518.4</ele>
        <time>2020-02-09T11:22:00Z</time>
      </trkpt>
      <trkpt lat="42.3613650" lon="-2.4916950">
        <ele>518.6</ele>
        <time>2020-02-09T11:22:01Z</time>
      </trkpt>
      <trkpt lat="42.3613130" lon="-2.4916400">
        <ele>518.9</ele>
        <time>2020-02-09T11:22:02Z</time>
      </trkpt>
      <trkpt lat="42.3612570" lon="-2.4916730">
        <ele>519.1</ele>
        <time>2020-02-09T11:22:03Z</time>
      </trkpt>
      <trkpt lat="42.3612040" lon="-2.4916890">
        <ele>519.3</ele>
        <time>2020-02-09T11:22:04Z</time>
      </trkpt>
      <trkpt lat="42.3611430" lon="-2.4917180">
        <ele>519.6</ele>
        <time>2020-02-09T11:22:05Z</time>
      </trkpt>
      <trkpt lat="42.3610750" lon="-2.4917270">
        <ele>519.8</ele>
        <time>2020-02-09T11:22:06Z</time>
      </trkpt>
      <trkpt lat="42.3610230" lon="-2.4917560">
        <ele>519.9</ele>
        <time>2020-02-09T11:22:07Z</time>
      </trkpt>
      <trkpt lat="42.3609780" lon="-2.4917950">
        <ele>520.0</ele>
        <time>2020-02-09T11:22:08Z</time>
      </trkpt>
      <trkpt lat="42.3609230" lon="-2.4918210">
        <ele>520.1</ele>
        <time>2020-02-09T11:22:09Z</time>
      </trkpt>
      <trkpt lat="42.3608730" lon="-2.4918550">
        <ele>520.2</ele>
        <time>2020-02-09T11:22:10Z</time>
      </trkpt>
      <trkpt lat="42.3608170" lon="-2.4918840">
        <ele>520.2</ele>
        <time>2020-02-09T11:22:11Z</time>
      </trkpt>
      <trkpt lat="42.3607670" lon="-2.4919230">
        <ele>520.3</ele>
        <time>2020-02-09T11:22:12Z</time>
      </trkpt>
      <trkpt lat="42.3607100" lon="-2.4919500">
        <ele>520.4</ele>
        <time>2020-02-09T11:22:13Z</time>
      </trkpt>
      <trkpt lat="42.3606510" lon="-2.4919840">
        <ele>520.6</ele>
        <time>2020-02-09T11:22:14Z</time>
      </trkpt>
      <trkpt lat="42.3606000" lon="-2.4920140">
        <ele>520.7</ele>
        <time>2020-02-09T11:22:15Z</time>
      </trkpt>
      <trkpt lat="42.3605510" lon="-2.4920460">
        <ele>520.9</ele>
        <time>2020-02-09T11:22:16Z</time>
      </trkpt>
      <trkpt lat="42.3604970" lon="-2.4920730">
        <ele>521.0</ele>
        <time>2020-02-09T11:22:17Z</time>
      </trkpt>
      <trkpt lat="42.3604430" lon="-2.4921050">
        <ele>521.1</ele>
        <time>2020-02-09T11:22:18Z</time>
      </trkpt>
      <trkpt lat="42.3603950" lon="-2.4921320">
        <ele>521.2</ele>
        <time>2020-02-09T11:22:19Z</time>
      </trkpt>
      <trkpt lat="42.3603610" lon="-2.4921350">
        <ele>521.2</ele>
        <time>2020-02-09T11:22:20Z</time>
      </trkpt>
      <trkpt lat="42.3602920" lon="-2.4921630">
        <ele>521.3</ele>
        <time>2020-02-09T11:22:21Z</time>
      </trkpt>
      <trkpt lat="42.3602330" lon="-2.4922030">
        <ele>521.4</ele>
        <time>2020-02-09T11:22:22Z</time>
      </trkpt>
      <trkpt lat="42.3601800" lon="-2.4922300">
        <ele>521.5</ele>
        <time>2020-02-09T11:22:23Z</time>
      </trkpt>
      <trkpt lat="42.3601270" lon="-2.4922580">
        <ele>521.6</ele>
        <time>2020-02-09T11:22:24Z</time>
      </trkpt>
      <trkpt lat="42.3600800" lon="-2.4922870">
        <ele>521.8</ele>
        <time>2020-02-09T11:22:25Z</time>
      </trkpt>
      <trkpt lat="42.3600200" lon="-2.4923340">
        <ele>521.9</ele>
        <time>2020-02-09T11:22:26Z</time>
      </trkpt>
      <trkpt lat="42.3599620" lon="-2.4923810">
        <ele>522.0</ele>
        <time>2020-02-09T11:22:27Z</time>
      </trkpt>
      <trkpt lat="42.3599100" lon="-2.4924090">
        <ele>522.1</ele>
        <time>2020-02-09T11:22:28Z</time>
      </trkpt>
      <trkpt lat="42.3598580" lon="-2.4924380">
        <ele>522.2</ele>
        <time>2020-02-09T11:22:29Z</time>
      </trkpt>
      <trkpt lat="42.3598030" lon="-2.4924540">
        <ele>522.2</ele>
        <time>2020-02-09T11:22:30Z</time>
      </trkpt>
      <trkpt lat="42.3597510" lon="-2.4924800">
        <ele>522.3</ele>
        <time>2020-02-09T11:22:31Z</time>
      </trkpt>
      <trkpt lat="42.3596950" lon="-2.4925050">
        <ele>522.3</ele>
        <time>2020-02-09T11:22:32Z</time>
      </trkpt>
      <trkpt lat="42.3596390" lon="-2.4925290">
        <ele>522.4</ele>
        <time>2020-02-09T11:22:33Z</time>
      </trkpt>
      <trkpt lat="42.3595850" lon="-2.4925550">
        <ele>522.5</ele>
        <time>2020-02-09T11:22:34Z</time>
      </trkpt>
      <trkpt lat="42.3595520" lon="-2.4925500">
        <ele>522.6</ele>
        <time>2020-02-09T11:22:35Z</time>
      </trkpt>
      <trkpt lat="42.3594990" lon="-2.4925710">
        <ele>522.7</ele>
        <time>2020-02-09T11:22:36Z</time>
      </trkpt>
      <trkpt lat="42.3594500" lon="-2.4925950">
        <ele>522.8</ele>
        <time>2020-02-09T11:22:37Z</time>
      </trkpt>
      <trkpt lat="42.3593970" lon="-2.4926200">
        <ele>522.9</ele>
        <time>2020-02-09T11:22:38Z</time>
      </trkpt>
      <trkpt lat="42.3593490" lon="-2.4926410">
        <ele>523.0</ele>
        <time>2020-02-09T11:22:39Z</time>
      </trkpt>
      <trkpt lat="42.3593060" lon="-2.4927330">
        <ele>523.1</ele>
        <time>2020-02-09T11:22:40Z</time>
      </trkpt>
      <trkpt lat="42.3592530" lon="-2.4927690">
        <ele>523.1</ele>
        <time>2020-02-09T11:22:41Z</time>
      </trkpt>
      <trkpt lat="42.3591940" lon="-2.4928020">
        <ele>523.2</ele>
        <time>2020-02-09T11:22:42Z</time>
      </trkpt>
      <trkpt lat="42.3591400" lon="-2.4928340">
        <ele>523.2</ele>
        <time>2020-02-09T11:22:43Z</time>
      </trkpt>
      <trkpt lat="42.3590580" lon="-2.4928170">
        <ele>523.2</ele>
        <time>2020-02-09T11:22:44Z</time>
      </trkpt>
      <trkpt lat="42.3590170" lon="-2.4928180">
        <ele>523.2</ele>
        <time>2020-02-09T11:22:45Z</time>
      </trkpt>
      <trkpt lat="42.3589670" lon="-2.4928510">
        <ele>523.3</ele>
        <time>2020-02-09T11:22:46Z</time>
      </trkpt>
      <trkpt lat="42.3589250" lon="-2.4928770">
        <ele>523.4</ele>
        <time>2020-02-09T11:22:47Z</time>
      </trkpt>
      <trkpt lat="42.3588760" lon="-2.4929010">
        <ele>523.4</ele>
        <time>2020-02-09T11:22:48Z</time>
      </trkpt>
      <trkpt lat="42.3588190" lon="-2.4929270">
        <ele>523.6</ele>
        <time>2020-02-09T11:22:49Z</time>
      </trkpt>
      <trkpt lat="42.3587640" lon="-2.4929520">
        <ele>523.7</ele>
        <time>2020-02-09T11:22:50Z</time>
      </trkpt>
      <trkpt lat="42.3587160" lon="-2.4929740">
        <ele>523.9</ele>
        <time>2020-02-09T11:22:51Z</time>
      </trkpt>
      <trkpt lat="42.3586620" lon="-2.4930010">
        <ele>524.0</ele>
        <time>2020-02-09T11:22:52Z</time>
      </trkpt>
      <trkpt lat="42.3586090" lon="-2.4930270">
        <ele>524.0</ele>
        <time>2020-02-09T11:22:53Z</time>
      </trkpt>
      <trkpt lat="42.3585350" lon="-2.4931000">
        <ele>524.1</ele>
        <time>2020-02-09T11:22:54Z</time>
      </trkpt>
      <trkpt lat="42.3584820" lon="-2.4931310">
        <ele>524.2</ele>
        <time>2020-02-09T11:22:55Z</time>
      </trkpt>
      <trkpt lat="42.3584230" lon="-2.4931540">
        <ele>524.2</ele>
        <time>2020-02-09T11:22:56Z</time>
      </trkpt>
      <trkpt lat="42.3583790" lon="-2.4931850">
        <ele>524.3</ele>
        <time>2020-02-09T11:22:57Z</time>
      </trkpt>
      <trkpt lat="42.3583300" lon="-2.4932140">
        <ele>524.3</ele>
        <time>2020-02-09T11:22:58Z</time>
      </trkpt>
      <trkpt lat="42.3582820" lon="-2.4932420">
        <ele>524.5</ele>
        <time>2020-02-09T11:22:59Z</time>
      </trkpt>
      <trkpt lat="42.3582010" lon="-2.4933020">
        <ele>524.7</ele>
        <time>2020-02-09T11:23:00Z</time>
      </trkpt>
      <trkpt lat="42.3581380" lon="-2.4933360">
        <ele>524.8</ele>
        <time>2020-02-09T11:23:01Z</time>
      </trkpt>
      <trkpt lat="42.3580910" lon="-2.4933630">
        <ele>524.9</ele>
        <time>2020-02-09T11:23:02Z</time>
      </trkpt>
      <trkpt lat="42.3580300" lon="-2.4933930">
        <ele>525.0</ele>
        <time>2020-02-09T11:23:03Z</time>
      </trkpt>
      <trkpt lat="42.3579820" lon="-2.4934260">
        <ele>525.1</ele>
        <time>2020-02-09T11:23:04Z</time>
      </trkpt>
      <trkpt lat="42.3579280" lon="-2.4934570">
        <ele>525.1</ele>
        <time>2020-02-09T11:23:05Z</time>
      </trkpt>
      <trkpt lat="42.3578850" lon="-2.4934510">
        <ele>525.1</ele>
        <time>2020-02-09T11:23:06Z</time>
      </trkpt>
      <trkpt lat="42.3578370" lon="-2.4934770">
        <ele>525.1</ele>
        <time>2020-02-09T11:23:07Z</time>
      </trkpt>
      <trkpt lat="42.3577920" lon="-2.4934890">
        <ele>525.2</ele>
        <time>2020-02-09T11:23:08Z</time>
      </trkpt>
      <trkpt lat="42.3577400" lon="-2.4935160">
        <ele>525.2</ele>
        <time>2020-02-09T11:23:09Z</time>
      </trkpt>
      <trkpt lat="42.3576910" lon="-2.4935440">
        <ele>525.2</ele>
        <time>2020-02-09T11:23:10Z</time>
      </trkpt>
      <trkpt lat="42.3576340" lon="-2.4935850">
        <ele>525.3</ele>
        <time>2020-02-09T11:23:11Z</time>
      </trkpt>
      <trkpt lat="42.3575810" lon="-2.4936150">
        <ele>525.5</ele>
        <time>2020-02-09T11:23:12Z</time>
      </trkpt>
      <trkpt lat="42.3575480" lon="-2.4935880">
        <ele>525.6</ele>
        <time>2020-02-09T11:23:13Z</time>
      </trkpt>
      <trkpt lat="42.3574940" lon="-2.4936130">
        <ele>525.8</ele>
        <time>2020-02-09T11:23:14Z</time>
      </trkpt>
      <trkpt lat="42.3574460" lon="-2.4936460">
        <ele>525.9</ele>
        <time>2020-02-09T11:23:15Z</time>
      </trkpt>
      <trkpt lat="42.3573920" lon="-2.4936820">
        <ele>526.0</ele>
        <time>2020-02-09T11:23:16Z</time>
      </trkpt>
      <trkpt lat="42.3573340" lon="-2.4937230">
        <ele>526.1</ele>
        <time>2020-02-09T11:23:17Z</time>
      </trkpt>
      <trkpt lat="42.3572810" lon="-2.4937590">
        <ele>526.1</ele>
        <time>2020-02-09T11:23:18Z</time>
      </trkpt>
      <trkpt lat="42.3572290" lon="-2.4937970">
        <ele>526.2</ele>
        <time>2020-02-09T11:23:19Z</time>
      </trkpt>
      <trkpt lat="42.3571770" lon="-2.4938270">
        <ele>526.2</ele>
        <time>2020-02-09T11:23:20Z</time>
      </trkpt>
      <trkpt lat="42.3571160" lon="-2.4938650">
        <ele>526.3</ele>
        <time>2020-02-09T11:23:21Z</time>
      </trkpt>
      <trkpt lat="42.3570580" lon="-2.4939010">
        <ele>526.4</ele>
        <time>2020-02-09T11:23:22Z</time>
      </trkpt>
      <trkpt lat="42.3570020" lon="-2.4939320">
        <ele>526.6</ele>
        <time>2020-02-09T11:23:23Z</time>
      </trkpt>
      <trkpt lat="42.3569450" lon="-2.4939610">
        <ele>526.8</ele>
        <time>2020-02-09T11:23:24Z</time>
      </trkpt>
      <trkpt lat="42.3568980" lon="-2.4939930">
        <ele>526.9</ele>
        <time>2020-02-09T11:23:25Z</time>
      </trkpt>
      <trkpt lat="42.3568400" lon="-2.4940210">
        <ele>527.0</ele>
        <time>2020-02-09T11:23:26Z</time>
      </trkpt>
      <trkpt lat="42.3567870" lon="-2.4940480">
        <ele>527.0</ele>
        <time>2020-02-09T11:23:27Z</time>
      </trkpt>
      <trkpt lat="42.3567310" lon="-2.4940800">
        <ele>527.1</ele>
        <time>2020-02-09T11:23:28Z</time>
      </trkpt>
      <trkpt lat="42.3566830" lon="-2.4941070">
        <ele>527.2</ele>
        <time>2020-02-09T11:23:29Z</time>
      </trkpt>
      <trkpt lat="42.3566290" lon="-2.4941330">
        <ele>527.3</ele>
        <time>2020-02-09T11:23:30Z</time>
      </trkpt>
      <trkpt lat="42.3565810" lon="-2.4941650">
        <ele>527.4</ele>
        <time>2020-02-09T11:23:31Z</time>
      </trkpt>
      <trkpt lat="42.3565270" lon="-2.4941920">
        <ele>527.5</ele>
        <time>2020-02-09T11:23:32Z</time>
      </trkpt>
      <trkpt lat="42.3564790" lon="-2.4942180">
        <ele>527.7</ele>
        <time>2020-02-09T11:23:33Z</time>
      </trkpt>
      <trkpt lat="42.3564260" lon="-2.4942450">
        <ele>527.8</ele>
        <time>2020-02-09T11:23:34Z</time>
      </trkpt>
      <trkpt lat="42.3563490" lon="-2.4942920">
        <ele>527.9</ele>
        <time>2020-02-09T11:23:35Z</time>
      </trkpt>
      <trkpt lat="42.3562890" lon="-2.4943200">
        <ele>528.0</ele>
        <time>2020-02-09T11:23:36Z</time>
      </trkpt>
      <trkpt lat="42.3562370" lon="-2.4943500">
        <ele>528.1</ele>
        <time>2020-02-09T11:23:37Z</time>
      </trkpt>
      <trkpt lat="42.3561840" lon="-2.4943690">
        <ele>528.1</ele>
        <time>2020-02-09T11:23:38Z</time>
      </trkpt>
      <trkpt lat="42.3561530" lon="-2.4943830">
        <ele>528.1</ele>
        <time>2020-02-09T11:23:39Z</time>
      </trkpt>
      <trkpt lat="42.3561020" lon="-2.4944110">
        <ele>528.2</ele>
        <time>2020-02-09T11:23:40Z</time>
      </trkpt>
      <trkpt lat="42.3560450" lon="-2.4944390">
        <ele>528.3</ele>
        <time>2020-02-09T11:23:41Z</time>
      </trkpt>
      <trkpt lat="42.3559960" lon="-2.4944650">
        <ele>528.4</ele>
        <time>2020-02-09T11:23:42Z</time>
      </trkpt>
      <trkpt lat="42.3559430" lon="-2.4944920">
        <ele>528.6</ele>
        <time>2020-02-09T11:23:43Z</time>
      </trkpt>
      <trkpt lat="42.3558890" lon="-2.4945190">
        <ele>528.7</ele>
        <time>2020-02-09T11:23:44Z</time>
      </trkpt>
      <trkpt lat="42.3558410" lon="-2.4945510">
        <ele>528.8</ele>
        <time>2020-02-09T11:23:45Z</time>
      </trkpt>
      <trkpt lat="42.3557870" lon="-2.4945780">
        <ele>528.9</ele>
        <time>2020-02-09T11:23:46Z</time>
      </trkpt>
      <trkpt lat="42.3557390" lon="-2.4946050">
        <ele>529.0</ele>
        <time>2020-02-09T11:23:47Z</time>
      </trkpt>
      <trkpt lat="42.3556640" lon="-2.4946490">
        <ele>529.0</ele>
        <time>2020-02-09T11:23:48Z</time>
      </trkpt>
      <trkpt lat="42.3556110" lon="-2.4946790">
        <ele>529.1</ele>
        <time>2020-02-09T11:23:49Z</time>
      </trkpt>
      <trkpt lat="42.3555590" lon="-2.4947080">
        <ele>529.1</ele>
        <time>2020-02-09T11:23:50Z</time>
      </trkpt>
      <trkpt lat="42.3555080" lon="-2.4947330">
        <ele>529.1</ele>
        <time>2020-02-09T11:23:51Z</time>
      </trkpt>
      <trkpt lat="42.3554740" lon="-2.4947900">
        <ele>529.2</ele>
        <time>2020-02-09T11:23:52Z</time>
      </trkpt>
      <trkpt lat="42.3554210" lon="-2.4948190">
        <ele>529.3</ele>
        <time>2020-02-09T11:23:53Z</time>
      </trkpt>
      <trkpt lat="42.3553750" lon="-2.4948510">
        <ele>529.4</ele>
        <time>2020-02-09T11:23:54Z</time>
      </trkpt>
      <trkpt lat="42.3553240" lon="-2.4948330">
        <ele>529.5</ele>
        <time>2020-02-09T11:23:55Z</time>
      </trkpt>
      <trkpt lat="42.3552910" lon="-2.4948270">
        <ele>529.6</ele>
        <time>2020-02-09T11:23:56Z</time>
      </trkpt>
      <trkpt lat="42.3552410" lon="-2.4948580">
        <ele>529.7</ele>
        <time>2020-02-09T11:23:57Z</time>
      </trkpt>
      <trkpt lat="42.3551900" lon="-2.4948890">
        <ele>529.8</ele>
        <time>2020-02-09T11:23:58Z</time>
      </trkpt>
      <trkpt lat="42.3551380" lon="-2.4949210">
        <ele>529.9</ele>
        <time>2020-02-09T11:23:59Z</time>
      </trkpt>
      <trkpt lat="42.3550850" lon="-2.4949640">
        <ele>529.9</ele>
        <time>2020-02-09T11:24:00Z</time>
      </trkpt>
      <trkpt lat="42.3550440" lon="-2.4949980">
        <ele>530.0</ele>
        <time>2020-02-09T11:24:01Z</time>
      </trkpt>
      <trkpt lat="42.3549930" lon="-2.4950300">
        <ele>530.0</ele>
        <time>2020-02-09T11:24:02Z</time>
      </trkpt>
      <trkpt lat="42.3549400" lon="-2.4950610">
        <ele>530.1</ele>
        <time>2020-02-09T11:24:03Z</time>
      </trkpt>
      <trkpt lat="42.3548910" lon="-2.4950980">
        <ele>530.1</ele>
        <time>2020-02-09T11:24:04Z</time>
      </trkpt>
      <trkpt lat="42.3548080" lon="-2.4950800">
        <ele>530.2</ele>
        <time>2020-02-09T11:24:05Z</time>
      </trkpt>
      <trkpt lat="42.3547530" lon="-2.4951040">
        <ele>530.4</ele>
        <time>2020-02-09T11:24:06Z</time>
      </trkpt>
      <trkpt lat="42.3546980" lon="-2.4951280">
        <ele>530.6</ele>
        <time>2020-02-09T11:24:07Z</time>
      </trkpt>
      <trkpt lat="42.3546450" lon="-2.4951570">
        <ele>530.7</ele>
        <time>2020-02-09T11:24:08Z</time>
      </trkpt>
      <trkpt lat="42.3545860" lon="-2.4951790">
        <ele>530.8</ele>
        <time>2020-02-09T11:24:09Z</time>
      </trkpt>
      <trkpt lat="42.3545320" lon="-2.4952050">
        <ele>530.9</ele>
        <time>2020-02-09T11:24:10Z</time>
      </trkpt>
      <trkpt lat="42.3544780" lon="-2.4952270">
        <ele>531.0</ele>
        <time>2020-02-09T11:24:11Z</time>
      </trkpt>
      <trkpt lat="42.3544190" lon="-2.4952540">
        <ele>531.1</ele>
        <time>2020-02-09T11:24:12Z</time>
      </trkpt>
      <trkpt lat="42.3543660" lon="-2.4952750">
        <ele>531.2</ele>
        <time>2020-02-09T11:24:13Z</time>
      </trkpt>
      <trkpt lat="42.3543120" lon="-2.4953020">
        <ele>531.4</ele>
        <time>2020-02-09T11:24:14Z</time>
      </trkpt>
      <trkpt lat="42.3542530" lon="-2.4953290">
        <ele>531.5</ele>
        <time>2020-02-09T11:24:15Z</time>
      </trkpt>
      <trkpt lat="42.3541990" lon="-2.4953500">
        <ele>531.7</ele>
        <time>2020-02-09T11:24:16Z</time>
      </trkpt>
      <trkpt lat="42.3539420" lon="-2.4956670">
        <ele>532.4</ele>
        <time>2020-02-09T11:24:20Z</time>
      </trkpt>
      <trkpt lat="42.3538830" lon="-2.4957040">
        <ele>532.6</ele>
        <time>2020-02-09T11:24:21Z</time>
      </trkpt>
      <trkpt lat="42.3538200" lon="-2.4957490">
        <ele>532.9</ele>
        <time>2020-02-09T11:24:22Z</time>
      </trkpt>
      <trkpt lat="42.3537650" lon="-2.4957530">
        <ele>533.1</ele>
        <time>2020-02-09T11:24:23Z</time>
      </trkpt>
      <trkpt lat="42.3537060" lon="-2.4957900">
        <ele>533.3</ele>
        <time>2020-02-09T11:24:24Z</time>
      </trkpt>
      <trkpt lat="42.3537110" lon="-2.4957140">
        <ele>533.5</ele>
        <time>2020-02-09T11:24:25Z</time>
      </trkpt>
      <trkpt lat="42.3536590" lon="-2.4957390">
        <ele>533.6</ele>
        <time>2020-02-09T11:24:26Z</time>
      </trkpt>
      <trkpt lat="42.3536080" lon="-2.4957650">
        <ele>533.8</ele>
        <time>2020-02-09T11:24:27Z</time>
      </trkpt>
      <trkpt lat="42.3535770" lon="-2.4957950">
        <ele>533.8</ele>
        <time>2020-02-09T11:24:28Z</time>
      </trkpt>
      <trkpt lat="42.3535230" lon="-2.4958220">
        <ele>533.9</ele>
        <time>2020-02-09T11:24:29Z</time>
      </trkpt>
      <trkpt lat="42.3534750" lon="-2.4958440">
        <ele>534.0</ele>
        <time>2020-02-09T11:24:30Z</time>
      </trkpt>
      <trkpt lat="42.3534210" lon="-2.4958710">
        <ele>534.0</ele>
        <time>2020-02-09T11:24:31Z</time>
      </trkpt>
      <trkpt lat="42.3533730" lon="-2.4958970">
        <ele>534.0</ele>
        <time>2020-02-09T11:24:32Z</time>
      </trkpt>
      <trkpt lat="42.3533200" lon="-2.4959240">
        <ele>534.0</ele>
        <time>2020-02-09T11:24:33Z</time>
      </trkpt>
      <trkpt lat="42.3532640" lon="-2.4959650">
        <ele>534.0</ele>
        <time>2020-02-09T11:24:34Z</time>
      </trkpt>
      <trkpt lat="42.3532160" lon="-2.4959930">
        <ele>534.0</ele>
        <time>2020-02-09T11:24:35Z</time>
      </trkpt>
      <trkpt lat="42.3531680" lon="-2.4960220">
        <ele>534.0</ele>
        <time>2020-02-09T11:24:36Z</time>
      </trkpt>
      <trkpt lat="42.3531390" lon="-2.4960310">
        <ele>534.0</ele>
        <time>2020-02-09T11:24:37Z</time>
      </trkpt>
      <trkpt lat="42.3530920" lon="-2.4960570">
        <ele>534.0</ele>
        <time>2020-02-09T11:24:38Z</time>
      </trkpt>
      <trkpt lat="42.3530210" lon="-2.4960830">
        <ele>534.1</ele>
        <time>2020-02-09T11:24:39Z</time>
      </trkpt>
      <trkpt lat="42.3529700" lon="-2.4961100">
        <ele>534.1</ele>
        <time>2020-02-09T11:24:40Z</time>
      </trkpt>
      <trkpt lat="42.3529040" lon="-2.4961500">
        <ele>534.2</ele>
        <time>2020-02-09T11:24:41Z</time>
      </trkpt>
      <trkpt lat="42.3528510" lon="-2.4961790">
        <ele>534.3</ele>
        <time>2020-02-09T11:24:42Z</time>
      </trkpt>
      <trkpt lat="42.3527830" lon="-2.4962080">
        <ele>534.4</ele>
        <time>2020-02-09T11:24:43Z</time>
      </trkpt>
      <trkpt lat="42.3527290" lon="-2.4962360">
        <ele>534.6</ele>
        <time>2020-02-09T11:24:44Z</time>
      </trkpt>
      <trkpt lat="42.3526670" lon="-2.4962900">
        <ele>534.8</ele>
        <time>2020-02-09T11:24:45Z</time>
      </trkpt>
      <trkpt lat="42.3526450" lon="-2.4962580">
        <ele>534.9</ele>
        <time>2020-02-09T11:24:46Z</time>
      </trkpt>
      <trkpt lat="42.3526010" lon="-2.4962820">
        <ele>534.9</ele>
        <time>2020-02-09T11:24:47Z</time>
      </trkpt>
      <trkpt lat="42.3525470" lon="-2.4963160">
        <ele>535.0</ele>
        <time>2020-02-09T11:24:48Z</time>
      </trkpt>
      <trkpt lat="42.3524940" lon="-2.4963320">
        <ele>535.0</ele>
        <time>2020-02-09T11:24:49Z</time>
      </trkpt>
      <trkpt lat="42.3524380" lon="-2.4963570">
        <ele>535.0</ele>
        <time>2020-02-09T11:24:50Z</time>
      </trkpt>
      <trkpt lat="42.3523840" lon="-2.4963850">
        <ele>535.0</ele>
        <time>2020-02-09T11:24:51Z</time>
      </trkpt>
      <trkpt lat="42.3523260" lon="-2.4964220">
        <ele>535.1</ele>
        <time>2020-02-09T11:24:52Z</time>
      </trkpt>
      <trkpt lat="42.3522720" lon="-2.4964510">
        <ele>535.1</ele>
        <time>2020-02-09T11:24:53Z</time>
      </trkpt>
      <trkpt lat="42.3522210" lon="-2.4964780">
        <ele>535.1</ele>
        <time>2020-02-09T11:24:54Z</time>
      </trkpt>
      <trkpt lat="42.3521630" lon="-2.4965100">
        <ele>535.2</ele>
        <time>2020-02-09T11:24:55Z</time>
      </trkpt>
      <trkpt lat="42.3521120" lon="-2.4965440">
        <ele>535.3</ele>
        <time>2020-02-09T11:24:56Z</time>
      </trkpt>
      <trkpt lat="42.3520790" lon="-2.4965480">
        <ele>535.4</ele>
        <time>2020-02-09T11:24:57Z</time>
      </trkpt>
      <trkpt lat="42.3520310" lon="-2.4965720">
        <ele>535.5</ele>
        <time>2020-02-09T11:24:58Z</time>
      </trkpt>
      <trkpt lat="42.3519980" lon="-2.4965590">
        <ele>535.6</ele>
        <time>2020-02-09T11:24:59Z</time>
      </trkpt>
      <trkpt lat="42.3519520" lon="-2.4965820">
        <ele>535.8</ele>
        <time>2020-02-09T11:25:00Z</time>
      </trkpt>
      <trkpt lat="42.3519060" lon="-2.4966040">
        <ele>535.9</ele>
        <time>2020-02-09T11:25:01Z</time>
      </trkpt>
      <trkpt lat="42.3518600" lon="-2.4966270">
        <ele>536.1</ele>
        <time>2020-02-09T11:25:02Z</time>
      </trkpt>
      <trkpt lat="42.3518170" lon="-2.4966480">
        <ele>536.3</ele>
        <time>2020-02-09T11:25:03Z</time>
      </trkpt>
      <trkpt lat="42.3517430" lon="-2.4967100">
        <ele>537.1</ele>
        <time>2020-02-09T11:25:04Z</time>
      </trkpt>
      <trkpt lat="42.3516930" lon="-2.4967350">
        <ele>537.4</ele>
        <time>2020-02-09T11:25:05Z</time>
      </trkpt>
      <trkpt lat="42.3516770" lon="-2.4967900">
        <ele>537.7</ele>
        <time>2020-02-09T11:25:07Z</time>
      </trkpt>
      <trkpt lat="42.3517400" lon="-2.4968450">
        <ele>538.3</ele>
        <time>2020-02-09T11:25:08Z</time>
      </trkpt>
      <trkpt lat="42.3517430" lon="-2.4969160">
        <ele>538.7</ele>
        <time>2020-02-09T11:25:10Z</time>
      </trkpt>
      <trkpt lat="42.3517420" lon="-2.4969570">
        <ele>538.9</ele>
        <time>2020-02-09T11:25:11Z</time>
      </trkpt>
      <trkpt lat="42.3517720" lon="-2.4970010">
        <ele>539.2</ele>
        <time>2020-02-09T11:25:13Z</time>
      </trkpt>
      <trkpt lat="42.3518400" lon="-2.4970180">
        <ele>539.2</ele>
        <time>2020-02-09T11:25:15Z</time>
      </trkpt>
      <trkpt lat="42.3518870" lon="-2.4970290">
        <ele>538.9</ele>
        <time>2020-02-09T11:25:17Z</time>
      </trkpt>
      <trkpt lat="42.3519470" lon="-2.4969660">
        <ele>538.5</ele>
        <time>2020-02-09T11:25:18Z</time>
      </trkpt>
      <trkpt lat="42.3519820" lon="-2.4969400">
        <ele>538.3</ele>
        <time>2020-02-09T11:25:19Z</time>
      </trkpt>
      <trkpt lat="42.3520330" lon="-2.4968900">
        <ele>538.1</ele>
        <time>2020-02-09T11:25:20Z</time>
      </trkpt>
      <trkpt lat="42.3520780" lon="-2.4968750">
        <ele>537.9</ele>
        <time>2020-02-09T11:25:21Z</time>
      </trkpt>
      <trkpt lat="42.3521200" lon="-2.4968510">
        <ele>537.8</ele>
        <time>2020-02-09T11:25:22Z</time>
      </trkpt>
      <trkpt lat="42.3521760" lon="-2.4968290">
        <ele>537.6</ele>
        <time>2020-02-09T11:25:23Z</time>
      </trkpt>
      <trkpt lat="42.3522060" lon="-2.4968100">
        <ele>537.5</ele>
        <time>2020-02-09T11:25:24Z</time>
      </trkpt>
      <trkpt lat="42.3522610" lon="-2.4967780">
        <ele>537.3</ele>
        <time>2020-02-09T11:25:25Z</time>
      </trkpt>
      <trkpt lat="42.3523030" lon="-2.4967540">
        <ele>537.2</ele>
        <time>2020-02-09T11:25:26Z</time>
      </trkpt>
      <trkpt lat="42.3523520" lon="-2.4967230">
        <ele>537.1</ele>
        <time>2020-02-09T11:25:27Z</time>
      </trkpt>
      <trkpt lat="42.3523960" lon="-2.4966960">
        <ele>537.0</ele>
        <time>2020-02-09T11:25:28Z</time>
      </trkpt>
      <trkpt lat="42.3524400" lon="-2.4966690">
        <ele>536.9</ele>
        <time>2020-02-09T11:25:29Z</time>
      </trkpt>
      <trkpt lat="42.3524620" lon="-2.4966330">
        <ele>536.8</ele>
        <time>2020-02-09T11:25:30Z</time>
      </trkpt>
      <trkpt lat="42.3525050" lon="-2.4966050">
        <ele>536.7</ele>
        <time>2020-02-09T11:25:31Z</time>
      </trkpt>
      <trkpt lat="42.3524930" lon="-2.4965370">
        <ele>536.6</ele>
        <time>2020-02-09T11:25:32Z</time>
      </trkpt>
      <trkpt lat="42.3525040" lon="-2.4964750">
        <ele>536.4</ele>
        <time>2020-02-09T11:25:33Z</time>
      </trkpt>
      <trkpt lat="42.3525010" lon="-2.4964370">
        <ele>536.3</ele>
        <time>2020-02-09T11:25:34Z</time>
      </trkpt>
      <trkpt lat="42.3524920" lon="-2.4963780">
        <ele>536.1</ele>
        <time>2020-02-09T11:25:35Z</time>
      </trkpt>
      <trkpt lat="42.3524890" lon="-2.4963100">
        <ele>535.9</ele>
        <time>2020-02-09T11:25:37Z</time>
      </trkpt>
      <trkpt lat="42.3524750" lon="-2.4962450">
        <ele>535.7</ele>
        <time>2020-02-09T11:25:38Z</time>
      </trkpt>
      <trkpt lat="42.3524720" lon="-2.4962050">
        <ele>535.5</ele>
        <time>2020-02-09T11:25:39Z</time>
      </trkpt>
      <trkpt lat="42.3524680" lon="-2.4961580">
        <ele>535.4</ele>
        <time>2020-02-09T11:25:40Z</time>
      </trkpt>
      <trkpt lat="42.3524630" lon="-2.4961110">
        <ele>535.2</ele>
        <time>2020-02-09T11:25:41Z</time>
      </trkpt>
      <trkpt lat="42.3525060" lon="-2.4961070">
        <ele>535.0</ele>
        <time>2020-02-09T11:25:42Z</time>
      </trkpt>
      <trkpt lat="42.3523640" lon="-2.4958890">
        <ele>534.1</ele>
        <time>2020-02-09T11:25:45Z</time>
      </trkpt>
      <trkpt lat="42.3523280" lon="-2.4959160">
        <ele>534.0</ele>
        <time>2020-02-09T11:25:46Z</time>
      </trkpt>
      <trkpt lat="42.3522930" lon="-2.4958910">
        <ele>533.8</ele>
        <time>2020-02-09T11:25:47Z</time>
      </trkpt>
      <trkpt lat="42.3522310" lon="-2.4959140">
        <ele>533.7</ele>
        <time>2020-02-09T11:25:48Z</time>
      </trkpt>
      <trkpt lat="42.3521780" lon="-2.4959200">
        <ele>533.6</ele>
        <time>2020-02-09T11:25:49Z</time>
      </trkpt>
      <trkpt lat="42.3521290" lon="-2.4959200">
        <ele>533.5</ele>
        <time>2020-02-09T11:25:50Z</time>
      </trkpt>
      <trkpt lat="42.3520800" lon="-2.4959330">
        <ele>533.5</ele>
        <time>2020-02-09T11:25:51Z</time>
      </trkpt>
      <trkpt lat="42.3520410" lon="-2.4959680">
        <ele>533.4</ele>
        <time>2020-02-09T11:25:52Z</time>
      </trkpt>
      <trkpt lat="42.3520000" lon="-2.4959930">
        <ele>533.4</ele>
        <time>2020-02-09T11:25:53Z</time>
      </trkpt>
      <trkpt lat="42.3519590" lon="-2.4960190">
        <ele>533.3</ele>
        <time>2020-02-09T11:25:54Z</time>
      </trkpt>
      <trkpt lat="42.3519190" lon="-2.4960420">
        <ele>533.3</ele>
        <time>2020-02-09T11:25:55Z</time>
      </trkpt>
      <trkpt lat="42.3518570" lon="-2.4960740">
        <ele>533.3</ele>
        <time>2020-02-09T11:25:57Z</time>
      </trkpt>
      <trkpt lat="42.3518130" lon="-2.4960970">
        <ele>533.3</ele>
        <time>2020-02-09T11:25:58Z</time>
      </trkpt>
      <trkpt lat="42.3517620" lon="-2.4961460">
        <ele>533.3</ele>
        <time>2020-02-09T11:25:59Z</time>
      </trkpt>
      <trkpt lat="42.3517150" lon="-2.4961920">
        <ele>533.3</ele>
        <time>2020-02-09T11:26:00Z</time>
      </trkpt>
      <trkpt lat="42.3516860" lon="-2.4961980">
        <ele>533.3</ele>
        <time>2020-02-09T11:26:01Z</time>
      </trkpt>
      <trkpt lat="42.3516520" lon="-2.4962030">
        <ele>533.3</ele>
        <time>2020-02-09T11:26:02Z</time>
      </trkpt>
      <trkpt lat="42.3516080" lon="-2.4962030">
        <ele>533.2</ele>
        <time>2020-02-09T11:26:03Z</time>
      </trkpt>
      <trkpt lat="42.3515610" lon="-2.4961900">
        <ele>533.2</ele>
        <time>2020-02-09T11:26:04Z</time>
      </trkpt>
      <trkpt lat="42.3515270" lon="-2.4961380">
        <ele>533.3</ele>
        <time>2020-02-09T11:26:05Z</time>
      </trkpt>
      <trkpt lat="42.3514980" lon="-2.4960900">
        <ele>533.3</ele>
        <time>2020-02-09T11:26:06Z</time>
      </trkpt>
      <trkpt lat="42.3514780" lon="-2.4960530">
        <ele>533.3</ele>
        <time>2020-02-09T11:26:07Z</time>
      </trkpt>
      <trkpt lat="42.3514610" lon="-2.4960130">
        <ele>533.3</ele>
        <time>2020-02-09T11:26:08Z</time>
      </trkpt>
      <trkpt lat="42.3514380" lon="-2.4959480">
        <ele>533.3</ele>
        <time>2020-02-09T11:26:09Z</time>
      </trkpt>
      <trkpt lat="42.3514150" lon="-2.4958780">
        <ele>533.3</ele>
        <time>2020-02-09T11:26:10Z</time>
      </trkpt>
      <trkpt lat="42.3513890" lon="-2.4958130">
        <ele>533.3</ele>
        <time>2020-02-09T11:26:11Z</time>
      </trkpt>
      <trkpt lat="42.3513680" lon="-2.4957500">
        <ele>533.3</ele>
        <time>2020-02-09T11:26:12Z</time>
      </trkpt>
      <trkpt lat="42.3513450" lon="-2.4956860">
        <ele>533.3</ele>
        <time>2020-02-09T11:26:13Z</time>
      </trkpt>
      <trkpt lat="42.3513210" lon="-2.4956300">
        <ele>533.3</ele>
        <time>2020-02-09T11:26:14Z</time>
      </trkpt>
      <trkpt lat="42.3512980" lon="-2.4955690">
        <ele>533.3</ele>
        <time>2020-02-09T11:26:15Z</time>
      </trkpt>
      <trkpt lat="42.3512670" lon="-2.4954980">
        <ele>533.3</ele>
        <time>2020-02-09T11:26:16Z</time>
      </trkpt>
      <trkpt lat="42.3512430" lon="-2.4954360">
        <ele>533.3</ele>
        <time>2020-02-09T11:26:17Z</time>
      </trkpt>
      <trkpt lat="42.3512170" lon="-2.4953720">
        <ele>533.3</ele>
        <time>2020-02-09T11:26:18Z</time>
      </trkpt>
      <trkpt lat="42.3511900" lon="-2.4953070">
        <ele>533.3</ele>
        <time>2020-02-09T11:26:19Z</time>
      </trkpt>
      <trkpt lat="42.3511630" lon="-2.4952430">
        <ele>533.3</ele>
        <time>2020-02-09T11:26:20Z</time>
      </trkpt>
      <trkpt lat="42.3511040" lon="-2.4951280">
        <ele>533.2</ele>
        <time>2020-02-09T11:26:21Z</time>
      </trkpt>
      <trkpt lat="42.3510730" lon="-2.4950560">
        <ele>533.1</ele>
        <time>2020-02-09T11:26:22Z</time>
      </trkpt>
      <trkpt lat="42.3510420" lon="-2.4949850">
        <ele>533.1</ele>
        <time>2020-02-09T11:26:23Z</time>
      </trkpt>
      <trkpt lat="42.3509970" lon="-2.4949100">
        <ele>533.0</ele>
        <time>2020-02-09T11:26:24Z</time>
      </trkpt>
      <trkpt lat="42.3509650" lon="-2.4948410">
        <ele>533.0</ele>
        <time>2020-02-09T11:26:25Z</time>
      </trkpt>
      <trkpt lat="42.3509320" lon="-2.4947660">
        <ele>532.9</ele>
        <time>2020-02-09T11:26:26Z</time>
      </trkpt>
      <trkpt lat="42.3509000" lon="-2.4946960">
        <ele>532.7</ele>
        <time>2020-02-09T11:26:27Z</time>
      </trkpt>
      <trkpt lat="42.3510220" lon="-2.4946630">
        <ele>532.7</ele>
        <time>2020-02-09T11:26:28Z</time>
      </trkpt>
      <trkpt lat="42.3510090" lon="-2.4946040">
        <ele>532.8</ele>
        <time>2020-02-09T11:26:29Z</time>
      </trkpt>
      <trkpt lat="42.3509800" lon="-2.4945620">
        <ele>532.9</ele>
        <time>2020-02-09T11:26:31Z</time>
      </trkpt>
      <trkpt lat="42.3509640" lon="-2.4945150">
        <ele>533.0</ele>
        <time>2020-02-09T11:26:32Z</time>
      </trkpt>
      <trkpt lat="42.3509480" lon="-2.4944700">
        <ele>533.2</ele>
        <time>2020-02-09T11:26:33Z</time>
      </trkpt>
      <trkpt lat="42.3509320" lon="-2.4944220">
        <ele>533.3</ele>
        <time>2020-02-09T11:26:34Z</time>
      </trkpt>
      <trkpt lat="42.3509110" lon="-2.4943740">
        <ele>533.5</ele>
        <time>2020-02-09T11:26:35Z</time>
      </trkpt>
      <trkpt lat="42.3508950" lon="-2.4943260">
        <ele>533.6</ele>
        <time>2020-02-09T11:26:36Z</time>
      </trkpt>
      <trkpt lat="42.3507470" lon="-2.4946880">
        <ele>534.3</ele>
        <time>2020-02-09T11:26:38Z</time>
      </trkpt>
      <trkpt lat="42.3507180" lon="-2.4947090">
        <ele>534.4</ele>
        <time>2020-02-09T11:26:39Z</time>
      </trkpt>
      <trkpt lat="42.3506860" lon="-2.4947280">
        <ele>534.4</ele>
        <time>2020-02-09T11:26:40Z</time>
      </trkpt>
      <trkpt lat="42.3506590" lon="-2.4947490">
        <ele>534.5</ele>
        <time>2020-02-09T11:26:41Z</time>
      </trkpt>
      <trkpt lat="42.3506270" lon="-2.4947710">
        <ele>534.5</ele>
        <time>2020-02-09T11:26:42Z</time>
      </trkpt>
      <trkpt lat="42.3506000" lon="-2.4947920">
        <ele>534.5</ele>
        <time>2020-02-09T11:26:43Z</time>
      </trkpt>
      <trkpt lat="42.3505680" lon="-2.4948140">
        <ele>534.5</ele>
        <time>2020-02-09T11:26:44Z</time>
      </trkpt>
      <trkpt lat="42.3505410" lon="-2.4948350">
        <ele>534.6</ele>
        <time>2020-02-09T11:26:45Z</time>
      </trkpt>
      <trkpt lat="42.3505090" lon="-2.4948570">
        <ele>534.6</ele>
        <time>2020-02-09T11:26:46Z</time>
      </trkpt>
      <trkpt lat="42.3504820" lon="-2.4948780">
        <ele>534.6</ele>
        <time>2020-02-09T11:26:47Z</time>
      </trkpt>
      <trkpt lat="42.3504500" lon="-2.4948940">
        <ele>534.6</ele>
        <time>2020-02-09T11:26:48Z</time>
      </trkpt>
      <trkpt lat="42.3504230" lon="-2.4949160">
        <ele>534.6</ele>
        <time>2020-02-09T11:26:49Z</time>
      </trkpt>
      <trkpt lat="42.3502190" lon="-2.4952430">
        <ele>534.8</ele>
        <time>2020-02-09T11:26:53Z</time>
      </trkpt>
      <trkpt lat="42.3501430" lon="-2.4953840">
        <ele>534.9</ele>
        <time>2020-02-09T11:26:54Z</time>
      </trkpt>
      <trkpt lat="42.3501000" lon="-2.4954110">
        <ele>534.9</ele>
        <time>2020-02-09T11:26:55Z</time>
      </trkpt>
      <trkpt lat="42.3500570" lon="-2.4954380">
        <ele>534.9</ele>
        <time>2020-02-09T11:26:56Z</time>
      </trkpt>
      <trkpt lat="42.3500040" lon="-2.4954660">
        <ele>535.0</ele>
        <time>2020-02-09T11:26:57Z</time>
      </trkpt>
      <trkpt lat="42.3499590" lon="-2.4954970">
        <ele>535.0</ele>
        <time>2020-02-09T11:26:58Z</time>
      </trkpt>
      <trkpt lat="42.3499140" lon="-2.4955280">
        <ele>535.0</ele>
        <time>2020-02-09T11:26:59Z</time>
      </trkpt>
      <trkpt lat="42.3498700" lon="-2.4955590">
        <ele>535.0</ele>
        <time>2020-02-09T11:27:00Z</time>
      </trkpt>
      <trkpt lat="42.3498270" lon="-2.4955860">
        <ele>535.1</ele>
        <time>2020-02-09T11:27:01Z</time>
      </trkpt>
      <trkpt lat="42.3497820" lon="-2.4955800">
        <ele>535.1</ele>
        <time>2020-02-09T11:27:02Z</time>
      </trkpt>
      <trkpt lat="42.3497330" lon="-2.4956040">
        <ele>535.2</ele>
        <time>2020-02-09T11:27:03Z</time>
      </trkpt>
      <trkpt lat="42.3496840" lon="-2.4956230">
        <ele>535.2</ele>
        <time>2020-02-09T11:27:04Z</time>
      </trkpt>
      <trkpt lat="42.3496410" lon="-2.4956530">
        <ele>535.3</ele>
        <time>2020-02-09T11:27:05Z</time>
      </trkpt>
      <trkpt lat="42.3495980" lon="-2.4956840">
        <ele>535.3</ele>
        <time>2020-02-09T11:27:06Z</time>
      </trkpt>
      <trkpt lat="42.3495360" lon="-2.4957510">
        <ele>535.4</ele>
        <time>2020-02-09T11:27:07Z</time>
      </trkpt>
      <trkpt lat="42.3494880" lon="-2.4957860">
        <ele>535.4</ele>
        <time>2020-02-09T11:27:08Z</time>
      </trkpt>
      <trkpt lat="42.3494410" lon="-2.4958220">
        <ele>535.4</ele>
        <time>2020-02-09T11:27:09Z</time>
      </trkpt>
      <trkpt lat="42.3494030" lon="-2.4958450">
        <ele>535.5</ele>
        <time>2020-02-09T11:27:10Z</time>
      </trkpt>
      <trkpt lat="42.3493570" lon="-2.4958780">
        <ele>535.5</ele>
        <time>2020-02-09T11:27:11Z</time>
      </trkpt>
      <trkpt lat="42.3493100" lon="-2.4959120">
        <ele>535.5</ele>
        <time>2020-02-09T11:27:12Z</time>
      </trkpt>
      <trkpt lat="42.3492640" lon="-2.4959460">
        <ele>535.6</ele>
        <time>2020-02-09T11:27:13Z</time>
      </trkpt>
      <trkpt lat="42.3492160" lon="-2.4959780">
        <ele>535.6</ele>
        <time>2020-02-09T11:27:14Z</time>
      </trkpt>
      <trkpt lat="42.3491730" lon="-2.4960100">
        <ele>535.7</ele>
        <time>2020-02-09T11:27:15Z</time>
      </trkpt>
      <trkpt lat="42.3491920" lon="-2.4960920">
        <ele>535.7</ele>
        <time>2020-02-09T11:27:16Z</time>
      </trkpt>
      <trkpt lat="42.3491500" lon="-2.4960840">
        <ele>535.8</ele>
        <time>2020-02-09T11:27:17Z</time>
      </trkpt>
      <trkpt lat="42.3490900" lon="-2.4961300">
        <ele>535.9</ele>
        <time>2020-02-09T11:27:18Z</time>
      </trkpt>
      <trkpt lat="42.3490430" lon="-2.4961650">
        <ele>535.9</ele>
        <time>2020-02-09T11:27:19Z</time>
      </trkpt>
      <trkpt lat="42.3490030" lon="-2.4962060">
        <ele>536.0</ele>
        <time>2020-02-09T11:27:20Z</time>
      </trkpt>
      <trkpt lat="42.3489600" lon="-2.4962210">
        <ele>536.0</ele>
        <time>2020-02-09T11:27:21Z</time>
      </trkpt>
      <trkpt lat="42.3489290" lon="-2.4962420">
        <ele>536.0</ele>
        <time>2020-02-09T11:27:22Z</time>
      </trkpt>
      <trkpt lat="42.3488720" lon="-2.4962710">
        <ele>536.2</ele>
        <time>2020-02-09T11:27:24Z</time>
      </trkpt>
      <trkpt lat="42.3488480" lon="-2.4962470">
        <ele>536.2</ele>
        <time>2020-02-09T11:27:25Z</time>
      </trkpt>
      <trkpt lat="42.3488210" lon="-2.4961920">
        <ele>536.2</ele>
        <time>2020-02-09T11:27:26Z</time>
      </trkpt>
      <trkpt lat="42.3487970" lon="-2.4961580">
        <ele>536.2</ele>
        <time>2020-02-09T11:27:27Z</time>
      </trkpt>
      <trkpt lat="42.3487730" lon="-2.4961230">
        <ele>536.2</ele>
        <time>2020-02-09T11:27:28Z</time>
      </trkpt>
      <trkpt lat="42.3487490" lon="-2.4960580">
        <ele>536.2</ele>
        <time>2020-02-09T11:27:29Z</time>
      </trkpt>
      <trkpt lat="42.3487170" lon="-2.4960210">
        <ele>536.2</ele>
        <time>2020-02-09T11:27:30Z</time>
      </trkpt>
      <trkpt lat="42.3486990" lon="-2.4959680">
        <ele>536.1</ele>
        <time>2020-02-09T11:27:31Z</time>
      </trkpt>
      <trkpt lat="42.3486790" lon="-2.4959070">
        <ele>536.1</ele>
        <time>2020-02-09T11:27:32Z</time>
      </trkpt>
      <trkpt lat="42.3486460" lon="-2.4958550">
        <ele>536.0</ele>
        <time>2020-02-09T11:27:33Z</time>
      </trkpt>
      <trkpt lat="42.3486180" lon="-2.4958130">
        <ele>535.9</ele>
        <time>2020-02-09T11:27:34Z</time>
      </trkpt>
      <trkpt lat="42.3485800" lon="-2.4957560">
        <ele>535.7</ele>
        <time>2020-02-09T11:27:35Z</time>
      </trkpt>
      <trkpt lat="42.3485560" lon="-2.4957100">
        <ele>535.6</ele>
        <time>2020-02-09T11:27:36Z</time>
      </trkpt>
      <trkpt lat="42.3485220" lon="-2.4956660">
        <ele>535.5</ele>
        <time>2020-02-09T11:27:37Z</time>
      </trkpt>
      <trkpt lat="42.3484950" lon="-2.4956130">
        <ele>535.4</ele>
        <time>2020-02-09T11:27:38Z</time>
      </trkpt>
      <trkpt lat="42.3484660" lon="-2.4955650">
        <ele>535.3</ele>
        <time>2020-02-09T11:27:39Z</time>
      </trkpt>
      <trkpt lat="42.3484370" lon="-2.4955160">
        <ele>535.3</ele>
        <time>2020-02-09T11:27:40Z</time>
      </trkpt>
      <trkpt lat="42.3484060" lon="-2.4954680">
        <ele>535.2</ele>
        <time>2020-02-09T11:27:41Z</time>
      </trkpt>
      <trkpt lat="42.3483790" lon="-2.4954200">
        <ele>535.2</ele>
        <time>2020-02-09T11:27:42Z</time>
      </trkpt>
      <trkpt lat="42.3483520" lon="-2.4953720">
        <ele>535.2</ele>
        <time>2020-02-09T11:27:43Z</time>
      </trkpt>
      <trkpt lat="42.3483200" lon="-2.4953230">
        <ele>535.2</ele>
        <time>2020-02-09T11:27:44Z</time>
      </trkpt>
      <trkpt lat="42.3482960" lon="-2.4952840">
        <ele>535.2</ele>
        <time>2020-02-09T11:27:45Z</time>
      </trkpt>
      <trkpt lat="42.3482750" lon="-2.4952430">
        <ele>535.2</ele>
        <time>2020-02-09T11:27:46Z</time>
      </trkpt>
      <trkpt lat="42.3482550" lon="-2.4952010">
        <ele>535.2</ele>
        <time>2020-02-09T11:27:47Z</time>
      </trkpt>
      <trkpt lat="42.3482290" lon="-2.4951570">
        <ele>535.2</ele>
        <time>2020-02-09T11:27:48Z</time>
      </trkpt>
      <trkpt lat="42.3482070" lon="-2.4951140">
        <ele>535.2</ele>
        <time>2020-02-09T11:27:49Z</time>
      </trkpt>
      <trkpt lat="42.3481910" lon="-2.4950710">
        <ele>535.2</ele>
        <time>2020-02-09T11:27:50Z</time>
      </trkpt>
      <trkpt lat="42.3481700" lon="-2.4950340">
        <ele>535.2</ele>
        <time>2020-02-09T11:27:51Z</time>
      </trkpt>
      <trkpt lat="42.3481520" lon="-2.4949570">
        <ele>535.2</ele>
        <time>2020-02-09T11:27:52Z</time>
      </trkpt>
      <trkpt lat="42.3481150" lon="-2.4948930">
        <ele>535.2</ele>
        <time>2020-02-09T11:27:54Z</time>
      </trkpt>
      <trkpt lat="42.3480930" lon="-2.4948560">
        <ele>535.2</ele>
        <time>2020-02-09T11:27:55Z</time>
      </trkpt>
      <trkpt lat="42.3480780" lon="-2.4948190">
        <ele>535.2</ele>
        <time>2020-02-09T11:27:56Z</time>
      </trkpt>
      <trkpt lat="42.3480520" lon="-2.4947820">
        <ele>535.2</ele>
        <time>2020-02-09T11:27:57Z</time>
      </trkpt>
      <trkpt lat="42.3480300" lon="-2.4947440">
        <ele>535.2</ele>
        <time>2020-02-09T11:27:58Z</time>
      </trkpt>
      <trkpt lat="42.3480090" lon="-2.4947070">
        <ele>535.2</ele>
        <time>2020-02-09T11:27:59Z</time>
      </trkpt>
      <trkpt lat="42.3480400" lon="-2.4947030">
        <ele>535.1</ele>
        <time>2020-02-09T11:28:00Z</time>
      </trkpt>
      <trkpt lat="42.3480220" lon="-2.4946730">
        <ele>535.1</ele>
        <time>2020-02-09T11:28:01Z</time>
      </trkpt>
      <trkpt lat="42.3480050" lon="-2.4946430">
        <ele>535.1</ele>
        <time>2020-02-09T11:28:02Z</time>
      </trkpt>
      <trkpt lat="42.3479660" lon="-2.4945830">
        <ele>535.1</ele>
        <time>2020-02-09T11:28:04Z</time>
      </trkpt>
      <trkpt lat="42.3479500" lon="-2.4945510">
        <ele>535.1</ele>
        <time>2020-02-09T11:28:05Z</time>
      </trkpt>
      <trkpt lat="42.3479080" lon="-2.4944420">
        <ele>535.1</ele>
        <time>2020-02-09T11:28:07Z</time>
      </trkpt>
      <trkpt lat="42.3478870" lon="-2.4943990">
        <ele>535.1</ele>
        <time>2020-02-09T11:28:08Z</time>
      </trkpt>
      <trkpt lat="42.3478480" lon="-2.4943420">
        <ele>535.1</ele>
        <time>2020-02-09T11:28:10Z</time>
      </trkpt>
      <trkpt lat="42.3478210" lon="-2.4943100">
        <ele>535.1</ele>
        <time>2020-02-09T11:28:11Z</time>
      </trkpt>
      <trkpt lat="42.3478000" lon="-2.4942720">
        <ele>535.1</ele>
        <time>2020-02-09T11:28:12Z</time>
      </trkpt>
      <trkpt lat="42.3477780" lon="-2.4942340">
        <ele>535.1</ele>
        <time>2020-02-09T11:28:13Z</time>
      </trkpt>
      <trkpt lat="42.3477570" lon="-2.4941970">
        <ele>535.1</ele>
        <time>2020-02-09T11:28:14Z</time>
      </trkpt>
      <trkpt lat="42.3477300" lon="-2.4941590">
        <ele>535.1</ele>
        <time>2020-02-09T11:28:15Z</time>
      </trkpt>
      <trkpt lat="42.3476890" lon="-2.4941400">
        <ele>535.1</ele>
        <time>2020-02-09T11:28:16Z</time>
      </trkpt>
      <trkpt lat="42.3476670" lon="-2.4941130">
        <ele>535.1</ele>
        <time>2020-02-09T11:28:17Z</time>
      </trkpt>
      <trkpt lat="42.3476450" lon="-2.4940850">
        <ele>535.1</ele>
        <time>2020-02-09T11:28:18Z</time>
      </trkpt>
      <trkpt lat="42.3476230" lon="-2.4940570">
        <ele>535.1</ele>
        <time>2020-02-09T11:28:19Z</time>
      </trkpt>
      <trkpt lat="42.3476070" lon="-2.4940220">
        <ele>535.1</ele>
        <time>2020-02-09T11:28:25Z</time>
      </trkpt>
      <trkpt lat="42.3476000" lon="-2.4939820">
        <ele>535.1</ele>
        <time>2020-02-09T11:28:28Z</time>
      </trkpt>
      <trkpt lat="42.3476060" lon="-2.4939450">
        <ele>535.1</ele>
        <time>2020-02-09T11:28:33Z</time>
      </trkpt>
      <trkpt lat="42.3476280" lon="-2.4939190">
        <ele>535.1</ele>
        <time>2020-02-09T11:28:51Z</time>
      </trkpt>
      <trkpt lat="42.3476550" lon="-2.4938780">
        <ele>535.0</ele>
        <time>2020-02-09T11:28:53Z</time>
      </trkpt>
      <trkpt lat="42.3476740" lon="-2.4938480">
        <ele>535.0</ele>
        <time>2020-02-09T11:28:54Z</time>
      </trkpt>
      <trkpt lat="42.3476980" lon="-2.4938270">
        <ele>535.0</ele>
        <time>2020-02-09T11:28:55Z</time>
      </trkpt>
      <trkpt lat="42.3477260" lon="-2.4937840">
        <ele>535.0</ele>
        <time>2020-02-09T11:28:56Z</time>
      </trkpt>
      <trkpt lat="42.3477520" lon="-2.4937590">
        <ele>535.0</ele>
        <time>2020-02-09T11:28:57Z</time>
      </trkpt>
      <trkpt lat="42.3477760" lon="-2.4937410">
        <ele>535.0</ele>
        <time>2020-02-09T11:28:58Z</time>
      </trkpt>
      <trkpt lat="42.3478020" lon="-2.4937100">
        <ele>535.0</ele>
        <time>2020-02-09T11:28:59Z</time>
      </trkpt>
      <trkpt lat="42.3478260" lon="-2.4936870">
        <ele>535.0</ele>
        <time>2020-02-09T11:29:00Z</time>
      </trkpt>
      <trkpt lat="42.3478490" lon="-2.4936590">
        <ele>535.0</ele>
        <time>2020-02-09T11:29:01Z</time>
      </trkpt>
      <trkpt lat="42.3478730" lon="-2.4936340">
        <ele>535.0</ele>
        <time>2020-02-09T11:29:02Z</time>
      </trkpt>
      <trkpt lat="42.3478960" lon="-2.4936070">
        <ele>535.0</ele>
        <time>2020-02-09T11:29:03Z</time>
      </trkpt>
      <trkpt lat="42.3479190" lon="-2.4935800">
        <ele>535.0</ele>
        <time>2020-02-09T11:29:04Z</time>
      </trkpt>
      <trkpt lat="42.3479390" lon="-2.4935530">
        <ele>535.0</ele>
        <time>2020-02-09T11:29:05Z</time>
      </trkpt>
      <trkpt lat="42.3479630" lon="-2.4935300">
        <ele>535.0</ele>
        <time>2020-02-09T11:29:06Z</time>
      </trkpt>
      <trkpt lat="42.3479910" lon="-2.4935050">
        <ele>535.0</ele>
        <time>2020-02-09T11:29:07Z</time>
      </trkpt>
      <trkpt lat="42.3480150" lon="-2.4934770">
        <ele>535.0</ele>
        <time>2020-02-09T11:29:08Z</time>
      </trkpt>
      <trkpt lat="42.3480380" lon="-2.4934500">
        <ele>535.0</ele>
        <time>2020-02-09T11:29:09Z</time>
      </trkpt>
      <trkpt lat="42.3480620" lon="-2.4934240">
        <ele>535.0</ele>
        <time>2020-02-09T11:29:10Z</time>
      </trkpt>
      <trkpt lat="42.3480840" lon="-2.4933980">
        <ele>535.0</ele>
        <time>2020-02-09T11:29:11Z</time>
      </trkpt>
      <trkpt lat="42.3481050" lon="-2.4933710">
        <ele>535.0</ele>
        <time>2020-02-09T11:29:12Z</time>
      </trkpt>
      <trkpt lat="42.3481320" lon="-2.4933390">
        <ele>535.0</ele>
        <time>2020-02-09T11:29:13Z</time>
      </trkpt>
      <trkpt lat="42.3481540" lon="-2.4933120">
        <ele>534.9</ele>
        <time>2020-02-09T11:29:14Z</time>
      </trkpt>
      <trkpt lat="42.3481750" lon="-2.4932850">
        <ele>534.9</ele>
        <time>2020-02-09T11:29:15Z</time>
      </trkpt>
      <trkpt lat="42.3482020" lon="-2.4932580">
        <ele>534.9</ele>
        <time>2020-02-09T11:29:16Z</time>
      </trkpt>
      <trkpt lat="42.3482230" lon="-2.4932310">
        <ele>534.9</ele>
        <time>2020-02-09T11:29:17Z</time>
      </trkpt>
      <trkpt lat="42.3482500" lon="-2.4932040">
        <ele>534.9</ele>
        <time>2020-02-09T11:29:18Z</time>
      </trkpt>
      <trkpt lat="42.3482720" lon="-2.4931780">
        <ele>534.9</ele>
        <time>2020-02-09T11:29:19Z</time>
      </trkpt>
      <trkpt lat="42.3482930" lon="-2.4931510">
        <ele>534.9</ele>
        <time>2020-02-09T11:29:20Z</time>
      </trkpt>
      <trkpt lat="42.3481910" lon="-2.4929180">
        <ele>534.7</ele>
        <time>2020-02-09T11:29:22Z</time>
      </trkpt>
      <trkpt lat="42.3481930" lon="-2.4928630">
        <ele>534.6</ele>
        <time>2020-02-09T11:29:24Z</time>
      </trkpt>
      <trkpt lat="42.3482430" lon="-2.4928860">
        <ele>534.6</ele>
        <time>2020-02-09T11:29:25Z</time>
      </trkpt>
      <trkpt lat="42.3482650" lon="-2.4928620">
        <ele>534.6</ele>
        <time>2020-02-09T11:29:26Z</time>
      </trkpt>
      <trkpt lat="42.3482980" lon="-2.4928140">
        <ele>534.5</ele>
        <time>2020-02-09T11:29:27Z</time>
      </trkpt>
      <trkpt lat="42.3483400" lon="-2.4927700">
        <ele>534.5</ele>
        <time>2020-02-09T11:29:29Z</time>
      </trkpt>
      <trkpt lat="42.3483790" lon="-2.4927270">
        <ele>534.4</ele>
        <time>2020-02-09T11:29:31Z</time>
      </trkpt>
      <trkpt lat="42.3484000" lon="-2.4927000">
        <ele>534.4</ele>
        <time>2020-02-09T11:29:32Z</time>
      </trkpt>
      <trkpt lat="42.3484380" lon="-2.4926570">
        <ele>534.4</ele>
        <time>2020-02-09T11:29:34Z</time>
      </trkpt>
      <trkpt lat="42.3484810" lon="-2.4926140">
        <ele>534.3</ele>
        <time>2020-02-09T11:29:36Z</time>
      </trkpt>
      <trkpt lat="42.3485240" lon="-2.4925660">
        <ele>534.2</ele>
        <time>2020-02-09T11:29:38Z</time>
      </trkpt>
      <trkpt lat="42.3485610" lon="-2.4925230">
        <ele>534.1</ele>
        <time>2020-02-09T11:29:40Z</time>
      </trkpt>
      <trkpt lat="42.3485290" lon="-2.4925880">
        <ele>534.2</ele>
        <time>2020-02-09T11:29:45Z</time>
      </trkpt>
      <trkpt lat="42.3485030" lon="-2.4926360">
        <ele>534.3</ele>
        <time>2020-02-09T11:29:55Z</time>
      </trkpt>
      <trkpt lat="42.3484550" lon="-2.4925910">
        <ele>534.2</ele>
        <time>2020-02-09T11:29:57Z</time>
      </trkpt>
      <trkpt lat="42.3484140" lon="-2.4925500">
        <ele>534.2</ele>
        <time>2020-02-09T11:29:58Z</time>
      </trkpt>
      <trkpt lat="42.3483870" lon="-2.4925130">
        <ele>534.1</ele>
        <time>2020-02-09T11:29:59Z</time>
      </trkpt>
      <trkpt lat="42.3483610" lon="-2.4924820">
        <ele>534.1</ele>
        <time>2020-02-09T11:30:00Z</time>
      </trkpt>
      <trkpt lat="42.3483250" lon="-2.4924430">
        <ele>534.1</ele>
        <time>2020-02-09T11:30:01Z</time>
      </trkpt>
      <trkpt lat="42.3483000" lon="-2.4924070">
        <ele>534.0</ele>
        <time>2020-02-09T11:30:02Z</time>
      </trkpt>
      <trkpt lat="42.3482720" lon="-2.4923720">
        <ele>533.9</ele>
        <time>2020-02-09T11:30:03Z</time>
      </trkpt>
      <trkpt lat="42.3482340" lon="-2.4923120">
        <ele>533.9</ele>
        <time>2020-02-09T11:30:05Z</time>
      </trkpt>
      <trkpt lat="42.3482130" lon="-2.4922870">
        <ele>533.8</ele>
        <time>2020-02-09T11:30:06Z</time>
      </trkpt>
      <trkpt lat="42.3481940" lon="-2.4922500">
        <ele>533.8</ele>
        <time>2020-02-09T11:30:07Z</time>
      </trkpt>
      <trkpt lat="42.3481740" lon="-2.4922170">
        <ele>533.7</ele>
        <time>2020-02-09T11:30:08Z</time>
      </trkpt>
      <trkpt lat="42.3481560" lon="-2.4921830">
        <ele>533.7</ele>
        <time>2020-02-09T11:30:09Z</time>
      </trkpt>
      <trkpt lat="42.3481380" lon="-2.4921500">
        <ele>533.6</ele>
        <time>2020-02-09T11:30:10Z</time>
      </trkpt>
      <trkpt lat="42.3481200" lon="-2.4921180">
        <ele>533.5</ele>
        <time>2020-02-09T11:30:11Z</time>
      </trkpt>
      <trkpt lat="42.3480840" lon="-2.4920560">
        <ele>533.5</ele>
        <time>2020-02-09T11:30:13Z</time>
      </trkpt>
      <trkpt lat="42.3480680" lon="-2.4920240">
        <ele>533.4</ele>
        <time>2020-02-09T11:30:14Z</time>
      </trkpt>
      <trkpt lat="42.3480520" lon="-2.4919920">
        <ele>533.3</ele>
        <time>2020-02-09T11:30:15Z</time>
      </trkpt>
      <trkpt lat="42.3480300" lon="-2.4919600">
        <ele>533.3</ele>
        <time>2020-02-09T11:30:16Z</time>
      </trkpt>
      <trkpt lat="42.3481110" lon="-2.4920940">
        <ele>533.4</ele>
        <time>2020-02-09T11:30:17Z</time>
      </trkpt>
      <trkpt lat="42.3480890" lon="-2.4920660">
        <ele>533.5</ele>
        <time>2020-02-09T11:30:19Z</time>
      </trkpt>
      <trkpt lat="42.3481170" lon="-2.4920910">
        <ele>533.4</ele>
        <time>2020-02-09T11:30:26Z</time>
      </trkpt>
      <trkpt lat="42.3481790" lon="-2.4920590">
        <ele>533.4</ele>
        <time>2020-02-09T12:43:55Z</time>
      </trkpt>
      <trkpt lat="42.3481790" lon="-2.4921490">
        <ele>533.6</ele>
        <time>2020-02-09T12:44:09Z</time>
      </trkpt>
      <trkpt lat="42.3482090" lon="-2.4921840">
        <ele>533.6</ele>
        <time>2020-02-09T12:44:10Z</time>
      </trkpt>
      <trkpt lat="42.3482260" lon="-2.4922400">
        <ele>533.7</ele>
        <time>2020-02-09T12:44:11Z</time>
      </trkpt>
      <trkpt lat="42.3482610" lon="-2.4922720">
        <ele>533.8</ele>
        <time>2020-02-09T12:44:12Z</time>
      </trkpt>
      <trkpt lat="42.3482810" lon="-2.4923160">
        <ele>533.9</ele>
        <time>2020-02-09T12:44:13Z</time>
      </trkpt>
      <trkpt lat="42.3482500" lon="-2.4923940">
        <ele>534.0</ele>
        <time>2020-02-09T12:44:14Z</time>
      </trkpt>
      <trkpt lat="42.3482670" lon="-2.4924420">
        <ele>534.1</ele>
        <time>2020-02-09T12:44:15Z</time>
      </trkpt>
      <trkpt lat="42.3482900" lon="-2.4924860">
        <ele>534.1</ele>
        <time>2020-02-09T12:44:16Z</time>
      </trkpt>
      <trkpt lat="42.3483190" lon="-2.4925020">
        <ele>534.1</ele>
        <time>2020-02-09T12:44:17Z</time>
      </trkpt>
      <trkpt lat="42.3483470" lon="-2.4925460">
        <ele>534.2</ele>
        <time>2020-02-09T12:44:18Z</time>
      </trkpt>
      <trkpt lat="42.3483740" lon="-2.4925660">
        <ele>534.2</ele>
        <time>2020-02-09T12:44:19Z</time>
      </trkpt>
      <trkpt lat="42.3484070" lon="-2.4925930">
        <ele>534.2</ele>
        <time>2020-02-09T12:44:21Z</time>
      </trkpt>
      <trkpt lat="42.3484060" lon="-2.4926750">
        <ele>534.4</ele>
        <time>2020-02-09T12:44:25Z</time>
      </trkpt>
      <trkpt lat="42.3483690" lon="-2.4927220">
        <ele>534.4</ele>
        <time>2020-02-09T12:44:27Z</time>
      </trkpt>
      <trkpt lat="42.3483310" lon="-2.4927620">
        <ele>534.5</ele>
        <time>2020-02-09T12:44:29Z</time>
      </trkpt>
      <trkpt lat="42.3483120" lon="-2.4927880">
        <ele>534.5</ele>
        <time>2020-02-09T12:44:30Z</time>
      </trkpt>
      <trkpt lat="42.3482740" lon="-2.4928310">
        <ele>534.6</ele>
        <time>2020-02-09T12:44:32Z</time>
      </trkpt>
      <trkpt lat="42.3482520" lon="-2.4928620">
        <ele>534.6</ele>
        <time>2020-02-09T12:44:34Z</time>
      </trkpt>
      <trkpt lat="42.3482240" lon="-2.4928970">
        <ele>534.6</ele>
        <time>2020-02-09T12:44:36Z</time>
      </trkpt>
      <trkpt lat="42.3481970" lon="-2.4929340">
        <ele>534.7</ele>
        <time>2020-02-09T12:44:38Z</time>
      </trkpt>
      <trkpt lat="42.3481760" lon="-2.4929650">
        <ele>534.7</ele>
        <time>2020-02-09T12:44:39Z</time>
      </trkpt>
      <trkpt lat="42.3481540" lon="-2.4929900">
        <ele>534.7</ele>
        <time>2020-02-09T12:44:40Z</time>
      </trkpt>
      <trkpt lat="42.3481230" lon="-2.4930440">
        <ele>534.8</ele>
        <time>2020-02-09T12:44:42Z</time>
      </trkpt>
      <trkpt lat="42.3481140" lon="-2.4930840">
        <ele>534.8</ele>
        <time>2020-02-09T12:44:43Z</time>
      </trkpt>
      <trkpt lat="42.3481090" lon="-2.4931250">
        <ele>534.9</ele>
        <time>2020-02-09T12:44:44Z</time>
      </trkpt>
      <trkpt lat="42.3481110" lon="-2.4931670">
        <ele>534.9</ele>
        <time>2020-02-09T12:44:45Z</time>
      </trkpt>
      <trkpt lat="42.3481170" lon="-2.4932060">
        <ele>534.9</ele>
        <time>2020-02-09T12:44:46Z</time>
      </trkpt>
      <trkpt lat="42.3481160" lon="-2.4932760">
        <ele>534.9</ele>
        <time>2020-02-09T12:44:48Z</time>
      </trkpt>
      <trkpt lat="42.3480990" lon="-2.4933330">
        <ele>534.9</ele>
        <time>2020-02-09T12:44:50Z</time>
      </trkpt>
      <trkpt lat="42.3480840" lon="-2.4933760">
        <ele>535.0</ele>
        <time>2020-02-09T12:44:52Z</time>
      </trkpt>
      <trkpt lat="42.3480600" lon="-2.4933980">
        <ele>535.0</ele>
        <time>2020-02-09T12:44:53Z</time>
      </trkpt>
      <trkpt lat="42.3480340" lon="-2.4934360">
        <ele>535.0</ele>
        <time>2020-02-09T12:44:54Z</time>
      </trkpt>
      <trkpt lat="42.3480120" lon="-2.4934600">
        <ele>535.0</ele>
        <time>2020-02-09T12:44:55Z</time>
      </trkpt>
      <trkpt lat="42.3479690" lon="-2.4935130">
        <ele>535.0</ele>
        <time>2020-02-09T12:44:57Z</time>
      </trkpt>
      <trkpt lat="42.3479470" lon="-2.4935340">
        <ele>535.0</ele>
        <time>2020-02-09T12:44:58Z</time>
      </trkpt>
      <trkpt lat="42.3479100" lon="-2.4935840">
        <ele>535.0</ele>
        <time>2020-02-09T12:45:00Z</time>
      </trkpt>
      <trkpt lat="42.3478740" lon="-2.4936110">
        <ele>535.0</ele>
        <time>2020-02-09T12:45:02Z</time>
      </trkpt>
      <trkpt lat="42.3478450" lon="-2.4936500">
        <ele>535.0</ele>
        <time>2020-02-09T12:45:03Z</time>
      </trkpt>
      <trkpt lat="42.3478240" lon="-2.4936750">
        <ele>535.0</ele>
        <time>2020-02-09T12:45:04Z</time>
      </trkpt>
      <trkpt lat="42.3478010" lon="-2.4936980">
        <ele>535.0</ele>
        <time>2020-02-09T12:45:05Z</time>
      </trkpt>
      <trkpt lat="42.3477620" lon="-2.4937520">
        <ele>535.0</ele>
        <time>2020-02-09T12:45:07Z</time>
      </trkpt>
      <trkpt lat="42.3477380" lon="-2.4937800">
        <ele>535.0</ele>
        <time>2020-02-09T12:45:08Z</time>
      </trkpt>
      <trkpt lat="42.3477070" lon="-2.4938100">
        <ele>535.0</ele>
        <time>2020-02-09T12:45:09Z</time>
      </trkpt>
      <trkpt lat="42.3476570" lon="-2.4938540">
        <ele>535.0</ele>
        <time>2020-02-09T12:45:11Z</time>
      </trkpt>
      <trkpt lat="42.3476200" lon="-2.4938850">
        <ele>535.0</ele>
        <time>2020-02-09T12:45:13Z</time>
      </trkpt>
      <trkpt lat="42.3476020" lon="-2.4939130">
        <ele>535.0</ele>
        <time>2020-02-09T12:45:14Z</time>
      </trkpt>
      <trkpt lat="42.3475840" lon="-2.4939430">
        <ele>535.1</ele>
        <time>2020-02-09T12:45:15Z</time>
      </trkpt>
      <trkpt lat="42.3475800" lon="-2.4939930">
        <ele>535.1</ele>
        <time>2020-02-09T12:45:17Z</time>
      </trkpt>
      <trkpt lat="42.3476180" lon="-2.4940370">
        <ele>535.1</ele>
        <time>2020-02-09T12:45:19Z</time>
      </trkpt>
      <trkpt lat="42.3476470" lon="-2.4940650">
        <ele>535.1</ele>
        <time>2020-02-09T12:45:20Z</time>
      </trkpt>
      <trkpt lat="42.3476700" lon="-2.4940900">
        <ele>535.1</ele>
        <time>2020-02-09T12:45:21Z</time>
      </trkpt>
      <trkpt lat="42.3477020" lon="-2.4941480">
        <ele>535.1</ele>
        <time>2020-02-09T12:45:23Z</time>
      </trkpt>
      <trkpt lat="42.3477260" lon="-2.4941740">
        <ele>535.1</ele>
        <time>2020-02-09T12:45:24Z</time>
      </trkpt>
      <trkpt lat="42.3477500" lon="-2.4942030">
        <ele>535.1</ele>
        <time>2020-02-09T12:45:25Z</time>
      </trkpt>
      <trkpt lat="42.3477730" lon="-2.4942360">
        <ele>535.1</ele>
        <time>2020-02-09T12:45:26Z</time>
      </trkpt>
      <trkpt lat="42.3477940" lon="-2.4942660">
        <ele>535.1</ele>
        <time>2020-02-09T12:45:27Z</time>
      </trkpt>
      <trkpt lat="42.3478160" lon="-2.4942990">
        <ele>535.1</ele>
        <time>2020-02-09T12:45:28Z</time>
      </trkpt>
      <trkpt lat="42.3478390" lon="-2.4943360">
        <ele>535.1</ele>
        <time>2020-02-09T12:45:29Z</time>
      </trkpt>
      <trkpt lat="42.3478630" lon="-2.4943800">
        <ele>535.1</ele>
        <time>2020-02-09T12:45:30Z</time>
      </trkpt>
      <trkpt lat="42.3478890" lon="-2.4944270">
        <ele>535.1</ele>
        <time>2020-02-09T12:45:31Z</time>
      </trkpt>
      <trkpt lat="42.3479130" lon="-2.4944720">
        <ele>535.1</ele>
        <time>2020-02-09T12:45:32Z</time>
      </trkpt>
      <trkpt lat="42.3479340" lon="-2.4945130">
        <ele>535.1</ele>
        <time>2020-02-09T12:45:33Z</time>
      </trkpt>
      <trkpt lat="42.3479610" lon="-2.4945540">
        <ele>535.1</ele>
        <time>2020-02-09T12:45:34Z</time>
      </trkpt>
      <trkpt lat="42.3479810" lon="-2.4945970">
        <ele>535.1</ele>
        <time>2020-02-09T12:45:35Z</time>
      </trkpt>
      <trkpt lat="42.3480040" lon="-2.4946410">
        <ele>535.1</ele>
        <time>2020-02-09T12:45:36Z</time>
      </trkpt>
      <trkpt lat="42.3480250" lon="-2.4946800">
        <ele>535.1</ele>
        <time>2020-02-09T12:45:37Z</time>
      </trkpt>
      <trkpt lat="42.3480490" lon="-2.4947230">
        <ele>535.1</ele>
        <time>2020-02-09T12:45:38Z</time>
      </trkpt>
      <trkpt lat="42.3480780" lon="-2.4947660">
        <ele>535.2</ele>
        <time>2020-02-09T12:45:39Z</time>
      </trkpt>
      <trkpt lat="42.3481060" lon="-2.4948110">
        <ele>535.2</ele>
        <time>2020-02-09T12:45:40Z</time>
      </trkpt>
      <trkpt lat="42.3481380" lon="-2.4948600">
        <ele>535.2</ele>
        <time>2020-02-09T12:45:41Z</time>
      </trkpt>
      <trkpt lat="42.3481670" lon="-2.4949100">
        <ele>535.2</ele>
        <time>2020-02-09T12:45:42Z</time>
      </trkpt>
      <trkpt lat="42.3481970" lon="-2.4949650">
        <ele>535.2</ele>
        <time>2020-02-09T12:45:43Z</time>
      </trkpt>
      <trkpt lat="42.3482180" lon="-2.4950180">
        <ele>535.2</ele>
        <time>2020-02-09T12:45:44Z</time>
      </trkpt>
      <trkpt lat="42.3482400" lon="-2.4950610">
        <ele>535.2</ele>
        <time>2020-02-09T12:45:45Z</time>
      </trkpt>
      <trkpt lat="42.3482660" lon="-2.4951160">
        <ele>535.2</ele>
        <time>2020-02-09T12:45:46Z</time>
      </trkpt>
      <trkpt lat="42.3482890" lon="-2.4951650">
        <ele>535.2</ele>
        <time>2020-02-09T12:45:47Z</time>
      </trkpt>
      <trkpt lat="42.3483100" lon="-2.4952100">
        <ele>535.2</ele>
        <time>2020-02-09T12:45:48Z</time>
      </trkpt>
      <trkpt lat="42.3483320" lon="-2.4952510">
        <ele>535.2</ele>
        <time>2020-02-09T12:45:49Z</time>
      </trkpt>
      <trkpt lat="42.3483520" lon="-2.4952970">
        <ele>535.2</ele>
        <time>2020-02-09T12:45:50Z</time>
      </trkpt>
      <trkpt lat="42.3483710" lon="-2.4953370">
        <ele>535.2</ele>
        <time>2020-02-09T12:45:51Z</time>
      </trkpt>
      <trkpt lat="42.3483920" lon="-2.4953790">
        <ele>535.2</ele>
        <time>2020-02-09T12:45:52Z</time>
      </trkpt>
      <trkpt lat="42.3484100" lon="-2.4954170">
        <ele>535.2</ele>
        <time>2020-02-09T12:45:53Z</time>
      </trkpt>
      <trkpt lat="42.3484320" lon="-2.4954510">
        <ele>535.2</ele>
        <time>2020-02-09T12:45:54Z</time>
      </trkpt>
      <trkpt lat="42.3484560" lon="-2.4954880">
        <ele>535.2</ele>
        <time>2020-02-09T12:45:55Z</time>
      </trkpt>
      <trkpt lat="42.3484750" lon="-2.4955330">
        <ele>535.2</ele>
        <time>2020-02-09T12:45:56Z</time>
      </trkpt>
      <trkpt lat="42.3485010" lon="-2.4955760">
        <ele>535.2</ele>
        <time>2020-02-09T12:45:57Z</time>
      </trkpt>
      <trkpt lat="42.3485240" lon="-2.4956140">
        <ele>535.3</ele>
        <time>2020-02-09T12:45:58Z</time>
      </trkpt>
      <trkpt lat="42.3485430" lon="-2.4956540">
        <ele>535.3</ele>
        <time>2020-02-09T12:45:59Z</time>
      </trkpt>
      <trkpt lat="42.3485620" lon="-2.4956910">
        <ele>535.4</ele>
        <time>2020-02-09T12:46:00Z</time>
      </trkpt>
      <trkpt lat="42.3485830" lon="-2.4957310">
        <ele>535.5</ele>
        <time>2020-02-09T12:46:01Z</time>
      </trkpt>
      <trkpt lat="42.3486020" lon="-2.4957730">
        <ele>535.5</ele>
        <time>2020-02-09T12:46:02Z</time>
      </trkpt>
      <trkpt lat="42.3486310" lon="-2.4958190">
        <ele>535.7</ele>
        <time>2020-02-09T12:46:03Z</time>
      </trkpt>
      <trkpt lat="42.3486580" lon="-2.4958630">
        <ele>535.8</ele>
        <time>2020-02-09T12:46:04Z</time>
      </trkpt>
      <trkpt lat="42.3486810" lon="-2.4959130">
        <ele>535.9</ele>
        <time>2020-02-09T12:46:05Z</time>
      </trkpt>
      <trkpt lat="42.3487060" lon="-2.4959670">
        <ele>536.0</ele>
        <time>2020-02-09T12:46:06Z</time>
      </trkpt>
      <trkpt lat="42.3487340" lon="-2.4960170">
        <ele>536.1</ele>
        <time>2020-02-09T12:46:07Z</time>
      </trkpt>
      <trkpt lat="42.3487580" lon="-2.4960480">
        <ele>536.1</ele>
        <time>2020-02-09T12:46:08Z</time>
      </trkpt>
      <trkpt lat="42.3487780" lon="-2.4960910">
        <ele>536.2</ele>
        <time>2020-02-09T12:46:09Z</time>
      </trkpt>
      <trkpt lat="42.3487980" lon="-2.4961340">
        <ele>536.2</ele>
        <time>2020-02-09T12:46:10Z</time>
      </trkpt>
      <trkpt lat="42.3488410" lon="-2.4961630">
        <ele>536.2</ele>
        <time>2020-02-09T12:46:12Z</time>
      </trkpt>
      <trkpt lat="42.3488610" lon="-2.4961920">
        <ele>536.2</ele>
        <time>2020-02-09T12:46:13Z</time>
      </trkpt>
      <trkpt lat="42.3488900" lon="-2.4962190">
        <ele>536.2</ele>
        <time>2020-02-09T12:46:14Z</time>
      </trkpt>
      <trkpt lat="42.3488700" lon="-2.4962470">
        <ele>536.2</ele>
        <time>2020-02-09T12:46:15Z</time>
      </trkpt>
      <trkpt lat="42.3489090" lon="-2.4962850">
        <ele>536.2</ele>
        <time>2020-02-09T12:46:17Z</time>
      </trkpt>
      <trkpt lat="42.3489530" lon="-2.4963270">
        <ele>536.2</ele>
        <time>2020-02-09T12:46:19Z</time>
      </trkpt>
      <trkpt lat="42.3489900" lon="-2.4963640">
        <ele>536.0</ele>
        <time>2020-02-09T12:46:21Z</time>
      </trkpt>
      <trkpt lat="42.3490280" lon="-2.4964020">
        <ele>536.0</ele>
        <time>2020-02-09T12:46:23Z</time>
      </trkpt>
      <trkpt lat="42.3492790" lon="-2.4959590">
        <ele>535.5</ele>
        <time>2020-02-09T12:46:26Z</time>
      </trkpt>
      <trkpt lat="42.3493180" lon="-2.4959520">
        <ele>535.5</ele>
        <time>2020-02-09T12:46:27Z</time>
      </trkpt>
      <trkpt lat="42.3493740" lon="-2.4958990">
        <ele>535.4</ele>
        <time>2020-02-09T12:46:28Z</time>
      </trkpt>
      <trkpt lat="42.3494270" lon="-2.4958590">
        <ele>535.4</ele>
        <time>2020-02-09T12:46:29Z</time>
      </trkpt>
      <trkpt lat="42.3494710" lon="-2.4958270">
        <ele>535.4</ele>
        <time>2020-02-09T12:46:30Z</time>
      </trkpt>
      <trkpt lat="42.3495180" lon="-2.4957800">
        <ele>535.3</ele>
        <time>2020-02-09T12:46:31Z</time>
      </trkpt>
      <trkpt lat="42.3495800" lon="-2.4957320">
        <ele>535.2</ele>
        <time>2020-02-09T12:46:32Z</time>
      </trkpt>
      <trkpt lat="42.3496290" lon="-2.4956880">
        <ele>535.2</ele>
        <time>2020-02-09T12:46:33Z</time>
      </trkpt>
      <trkpt lat="42.3496830" lon="-2.4956410">
        <ele>535.1</ele>
        <time>2020-02-09T12:46:34Z</time>
      </trkpt>
      <trkpt lat="42.3497310" lon="-2.4956060">
        <ele>535.0</ele>
        <time>2020-02-09T12:46:35Z</time>
      </trkpt>
      <trkpt lat="42.3497870" lon="-2.4955660">
        <ele>535.0</ele>
        <time>2020-02-09T12:46:36Z</time>
      </trkpt>
      <trkpt lat="42.3498320" lon="-2.4955280">
        <ele>535.0</ele>
        <time>2020-02-09T12:46:37Z</time>
      </trkpt>
      <trkpt lat="42.3498930" lon="-2.4955020">
        <ele>534.9</ele>
        <time>2020-02-09T12:46:38Z</time>
      </trkpt>
      <trkpt lat="42.3499400" lon="-2.4954740">
        <ele>534.9</ele>
        <time>2020-02-09T12:46:39Z</time>
      </trkpt>
      <trkpt lat="42.3499840" lon="-2.4954480">
        <ele>534.9</ele>
        <time>2020-02-09T12:46:40Z</time>
      </trkpt>
      <trkpt lat="42.3500260" lon="-2.4954200">
        <ele>534.8</ele>
        <time>2020-02-09T12:46:41Z</time>
      </trkpt>
      <trkpt lat="42.3500790" lon="-2.4953900">
        <ele>534.8</ele>
        <time>2020-02-09T12:46:42Z</time>
      </trkpt>
      <trkpt lat="42.3501320" lon="-2.4953550">
        <ele>534.8</ele>
        <time>2020-02-09T12:46:43Z</time>
      </trkpt>
      <trkpt lat="42.3501870" lon="-2.4953110">
        <ele>534.7</ele>
        <time>2020-02-09T12:46:44Z</time>
      </trkpt>
      <trkpt lat="42.3502410" lon="-2.4952760">
        <ele>534.7</ele>
        <time>2020-02-09T12:46:45Z</time>
      </trkpt>
      <trkpt lat="42.3502920" lon="-2.4952270">
        <ele>534.6</ele>
        <time>2020-02-09T12:46:46Z</time>
      </trkpt>
      <trkpt lat="42.3503430" lon="-2.4951780">
        <ele>534.6</ele>
        <time>2020-02-09T12:46:47Z</time>
      </trkpt>
      <trkpt lat="42.3503940" lon="-2.4951330">
        <ele>534.6</ele>
        <time>2020-02-09T12:46:48Z</time>
      </trkpt>
      <trkpt lat="42.3504450" lon="-2.4950880">
        <ele>534.5</ele>
        <time>2020-02-09T12:46:49Z</time>
      </trkpt>
      <trkpt lat="42.3504980" lon="-2.4950440">
        <ele>534.4</ele>
        <time>2020-02-09T12:46:50Z</time>
      </trkpt>
      <trkpt lat="42.3505460" lon="-2.4949960">
        <ele>534.4</ele>
        <time>2020-02-09T12:46:51Z</time>
      </trkpt>
      <trkpt lat="42.3505730" lon="-2.4949220">
        <ele>534.2</ele>
        <time>2020-02-09T12:46:52Z</time>
      </trkpt>
      <trkpt lat="42.3506140" lon="-2.4948600">
        <ele>534.0</ele>
        <time>2020-02-09T12:46:53Z</time>
      </trkpt>
      <trkpt lat="42.3506660" lon="-2.4948150">
        <ele>533.9</ele>
        <time>2020-02-09T12:46:54Z</time>
      </trkpt>
      <trkpt lat="42.3507120" lon="-2.4947600">
        <ele>533.7</ele>
        <time>2020-02-09T12:46:55Z</time>
      </trkpt>
      <trkpt lat="42.3507550" lon="-2.4947070">
        <ele>533.5</ele>
        <time>2020-02-09T12:46:56Z</time>
      </trkpt>
      <trkpt lat="42.3508060" lon="-2.4946650">
        <ele>533.2</ele>
        <time>2020-02-09T12:46:58Z</time>
      </trkpt>
      <trkpt lat="42.3508440" lon="-2.4946310">
        <ele>533.1</ele>
        <time>2020-02-09T12:46:59Z</time>
      </trkpt>
      <trkpt lat="42.3509000" lon="-2.4946400">
        <ele>532.7</ele>
        <time>2020-02-09T12:47:01Z</time>
      </trkpt>
      <trkpt lat="42.3509350" lon="-2.4946370">
        <ele>532.8</ele>
        <time>2020-02-09T12:47:02Z</time>
      </trkpt>
      <trkpt lat="42.3509510" lon="-2.4946930">
        <ele>532.9</ele>
        <time>2020-02-09T12:47:03Z</time>
      </trkpt>
      <trkpt lat="42.3509800" lon="-2.4947360">
        <ele>532.9</ele>
        <time>2020-02-09T12:47:04Z</time>
      </trkpt>
      <trkpt lat="42.3510010" lon="-2.4947740">
        <ele>533.0</ele>
        <time>2020-02-09T12:47:05Z</time>
      </trkpt>
      <trkpt lat="42.3510290" lon="-2.4948340">
        <ele>533.0</ele>
        <time>2020-02-09T12:47:06Z</time>
      </trkpt>
      <trkpt lat="42.3510480" lon="-2.4948830">
        <ele>533.1</ele>
        <time>2020-02-09T12:47:07Z</time>
      </trkpt>
      <trkpt lat="42.3510690" lon="-2.4949490">
        <ele>533.1</ele>
        <time>2020-02-09T12:47:08Z</time>
      </trkpt>
      <trkpt lat="42.3510880" lon="-2.4950090">
        <ele>533.1</ele>
        <time>2020-02-09T12:47:09Z</time>
      </trkpt>
      <trkpt lat="42.3511100" lon="-2.4950720">
        <ele>533.2</ele>
        <time>2020-02-09T12:47:10Z</time>
      </trkpt>
      <trkpt lat="42.3511390" lon="-2.4951420">
        <ele>533.2</ele>
        <time>2020-02-09T12:47:11Z</time>
      </trkpt>
      <trkpt lat="42.3511630" lon="-2.4952080">
        <ele>533.3</ele>
        <time>2020-02-09T12:47:12Z</time>
      </trkpt>
      <trkpt lat="42.3512040" lon="-2.4952490">
        <ele>533.3</ele>
        <time>2020-02-09T12:47:13Z</time>
      </trkpt>
      <trkpt lat="42.3512340" lon="-2.4953080">
        <ele>533.3</ele>
        <time>2020-02-09T12:47:14Z</time>
      </trkpt>
      <trkpt lat="42.3512290" lon="-2.4953750">
        <ele>533.3</ele>
        <time>2020-02-09T12:47:15Z</time>
      </trkpt>
      <trkpt lat="42.3512640" lon="-2.4954350">
        <ele>533.3</ele>
        <time>2020-02-09T12:47:16Z</time>
      </trkpt>
      <trkpt lat="42.3512810" lon="-2.4955160">
        <ele>533.3</ele>
        <time>2020-02-09T12:47:17Z</time>
      </trkpt>
      <trkpt lat="42.3513120" lon="-2.4955560">
        <ele>533.3</ele>
        <time>2020-02-09T12:47:18Z</time>
      </trkpt>
      <trkpt lat="42.3513210" lon="-2.4956130">
        <ele>533.3</ele>
        <time>2020-02-09T12:47:19Z</time>
      </trkpt>
      <trkpt lat="42.3513430" lon="-2.4956580">
        <ele>533.3</ele>
        <time>2020-02-09T12:47:20Z</time>
      </trkpt>
      <trkpt lat="42.3513580" lon="-2.4957000">
        <ele>533.3</ele>
        <time>2020-02-09T12:47:21Z</time>
      </trkpt>
      <trkpt lat="42.3513770" lon="-2.4957440">
        <ele>533.3</ele>
        <time>2020-02-09T12:47:22Z</time>
      </trkpt>
      <trkpt lat="42.3513870" lon="-2.4957840">
        <ele>533.3</ele>
        <time>2020-02-09T12:47:23Z</time>
      </trkpt>
      <trkpt lat="42.3514020" lon="-2.4958300">
        <ele>533.3</ele>
        <time>2020-02-09T12:47:24Z</time>
      </trkpt>
      <trkpt lat="42.3514130" lon="-2.4958630">
        <ele>533.3</ele>
        <time>2020-02-09T12:47:25Z</time>
      </trkpt>
      <trkpt lat="42.3514270" lon="-2.4958970">
        <ele>533.3</ele>
        <time>2020-02-09T12:47:26Z</time>
      </trkpt>
      <trkpt lat="42.3514420" lon="-2.4959380">
        <ele>533.3</ele>
        <time>2020-02-09T12:47:27Z</time>
      </trkpt>
      <trkpt lat="42.3514580" lon="-2.4959810">
        <ele>533.3</ele>
        <time>2020-02-09T12:47:28Z</time>
      </trkpt>
      <trkpt lat="42.3514760" lon="-2.4960240">
        <ele>533.3</ele>
        <time>2020-02-09T12:47:29Z</time>
      </trkpt>
      <trkpt lat="42.3514900" lon="-2.4960630">
        <ele>533.3</ele>
        <time>2020-02-09T12:47:30Z</time>
      </trkpt>
      <trkpt lat="42.3515070" lon="-2.4961040">
        <ele>533.3</ele>
        <time>2020-02-09T12:47:31Z</time>
      </trkpt>
      <trkpt lat="42.3515230" lon="-2.4961440">
        <ele>533.3</ele>
        <time>2020-02-09T12:47:32Z</time>
      </trkpt>
      <trkpt lat="42.3515340" lon="-2.4961780">
        <ele>533.2</ele>
        <time>2020-02-09T12:47:33Z</time>
      </trkpt>
      <trkpt lat="42.3515580" lon="-2.4962330">
        <ele>533.3</ele>
        <time>2020-02-09T12:47:35Z</time>
      </trkpt>
      <trkpt lat="42.3515760" lon="-2.4962940">
        <ele>533.7</ele>
        <time>2020-02-09T12:47:37Z</time>
      </trkpt>
      <trkpt lat="42.3515990" lon="-2.4963380">
        <ele>534.0</ele>
        <time>2020-02-09T12:47:39Z</time>
      </trkpt>
      <trkpt lat="42.3516330" lon="-2.4963820">
        <ele>534.3</ele>
        <time>2020-02-09T12:47:41Z</time>
      </trkpt>
      <trkpt lat="42.3516550" lon="-2.4964140">
        <ele>534.5</ele>
        <time>2020-02-09T12:47:43Z</time>
      </trkpt>
      <trkpt lat="42.3517080" lon="-2.4964400">
        <ele>534.9</ele>
        <time>2020-02-09T12:47:45Z</time>
      </trkpt>
      <trkpt lat="42.3517590" lon="-2.4964510">
        <ele>534.8</ele>
        <time>2020-02-09T12:47:47Z</time>
      </trkpt>
      <trkpt lat="42.3517960" lon="-2.4964770">
        <ele>534.6</ele>
        <time>2020-02-09T12:47:49Z</time>
      </trkpt>
      <trkpt lat="42.3518230" lon="-2.4964820">
        <ele>534.6</ele>
        <time>2020-02-09T12:47:50Z</time>
      </trkpt>
      <trkpt lat="42.3518710" lon="-2.4964980">
        <ele>534.4</ele>
        <time>2020-02-09T12:47:52Z</time>
      </trkpt>
      <trkpt lat="42.3521890" lon="-2.4961720">
        <ele>533.3</ele>
        <time>2020-02-09T12:47:55Z</time>
      </trkpt>
      <trkpt lat="42.3522490" lon="-2.4961450">
        <ele>533.1</ele>
        <time>2020-02-09T12:47:56Z</time>
      </trkpt>
      <trkpt lat="42.3523230" lon="-2.4961040">
        <ele>532.9</ele>
        <time>2020-02-09T12:47:57Z</time>
      </trkpt>
      <trkpt lat="42.3523870" lon="-2.4960710">
        <ele>532.7</ele>
        <time>2020-02-09T12:47:58Z</time>
      </trkpt>
      <trkpt lat="42.3524690" lon="-2.4960330">
        <ele>532.4</ele>
        <time>2020-02-09T12:47:59Z</time>
      </trkpt>
      <trkpt lat="42.3525310" lon="-2.4960030">
        <ele>532.2</ele>
        <time>2020-02-09T12:48:00Z</time>
      </trkpt>
      <trkpt lat="42.3526050" lon="-2.4959730">
        <ele>532.0</ele>
        <time>2020-02-09T12:48:01Z</time>
      </trkpt>
      <trkpt lat="42.3526570" lon="-2.4959270">
        <ele>531.9</ele>
        <time>2020-02-09T12:48:02Z</time>
      </trkpt>
      <trkpt lat="42.3527290" lon="-2.4958980">
        <ele>531.7</ele>
        <time>2020-02-09T12:48:03Z</time>
      </trkpt>
      <trkpt lat="42.3528100" lon="-2.4958330">
        <ele>531.5</ele>
        <time>2020-02-09T12:48:04Z</time>
      </trkpt>
      <trkpt lat="42.3528500" lon="-2.4958280">
        <ele>531.5</ele>
        <time>2020-02-09T12:48:05Z</time>
      </trkpt>
      <trkpt lat="42.3528990" lon="-2.4958330">
        <ele>531.4</ele>
        <time>2020-02-09T12:48:06Z</time>
      </trkpt>
      <trkpt lat="42.3529600" lon="-2.4957900">
        <ele>531.3</ele>
        <time>2020-02-09T12:48:07Z</time>
      </trkpt>
      <trkpt lat="42.3530030" lon="-2.4957630">
        <ele>531.2</ele>
        <time>2020-02-09T12:48:08Z</time>
      </trkpt>
      <trkpt lat="42.3530720" lon="-2.4957360">
        <ele>531.1</ele>
        <time>2020-02-09T12:48:09Z</time>
      </trkpt>
      <trkpt lat="42.3531420" lon="-2.4956990">
        <ele>531.0</ele>
        <time>2020-02-09T12:48:10Z</time>
      </trkpt>
      <trkpt lat="42.3531920" lon="-2.4956680">
        <ele>530.9</ele>
        <time>2020-02-09T12:48:11Z</time>
      </trkpt>
      <trkpt lat="42.3532550" lon="-2.4956290">
        <ele>530.8</ele>
        <time>2020-02-09T12:48:12Z</time>
      </trkpt>
      <trkpt lat="42.3533140" lon="-2.4955970">
        <ele>530.7</ele>
        <time>2020-02-09T12:48:13Z</time>
      </trkpt>
      <trkpt lat="42.3533780" lon="-2.4955630">
        <ele>530.5</ele>
        <time>2020-02-09T12:48:14Z</time>
      </trkpt>
      <trkpt lat="42.3534430" lon="-2.4955300">
        <ele>530.4</ele>
        <time>2020-02-09T12:48:15Z</time>
      </trkpt>
      <trkpt lat="42.3535150" lon="-2.4955070">
        <ele>530.3</ele>
        <time>2020-02-09T12:48:16Z</time>
      </trkpt>
      <trkpt lat="42.3535820" lon="-2.4954790">
        <ele>530.3</ele>
        <time>2020-02-09T12:48:17Z</time>
      </trkpt>
      <trkpt lat="42.3536470" lon="-2.4954470">
        <ele>530.2</ele>
        <time>2020-02-09T12:48:18Z</time>
      </trkpt>
      <trkpt lat="42.3537160" lon="-2.4954200">
        <ele>530.2</ele>
        <time>2020-02-09T12:48:19Z</time>
      </trkpt>
      <trkpt lat="42.3537710" lon="-2.4953600">
        <ele>530.1</ele>
        <time>2020-02-09T12:48:20Z</time>
      </trkpt>
      <trkpt lat="42.3538390" lon="-2.4953160">
        <ele>530.1</ele>
        <time>2020-02-09T12:48:21Z</time>
      </trkpt>
      <trkpt lat="42.3539060" lon="-2.4952810">
        <ele>530.0</ele>
        <time>2020-02-09T12:48:22Z</time>
      </trkpt>
      <trkpt lat="42.3539720" lon="-2.4952530">
        <ele>529.9</ele>
        <time>2020-02-09T12:48:23Z</time>
      </trkpt>
      <trkpt lat="42.3540310" lon="-2.4952190">
        <ele>529.7</ele>
        <time>2020-02-09T12:48:24Z</time>
      </trkpt>
      <trkpt lat="42.3541010" lon="-2.4951960">
        <ele>529.6</ele>
        <time>2020-02-09T12:48:25Z</time>
      </trkpt>
      <trkpt lat="42.3541660" lon="-2.4951480">
        <ele>529.4</ele>
        <time>2020-02-09T12:48:26Z</time>
      </trkpt>
      <trkpt lat="42.3542330" lon="-2.4951170">
        <ele>529.3</ele>
        <time>2020-02-09T12:48:27Z</time>
      </trkpt>
      <trkpt lat="42.3542900" lon="-2.4950730">
        <ele>529.2</ele>
        <time>2020-02-09T12:48:28Z</time>
      </trkpt>
      <trkpt lat="42.3543570" lon="-2.4950430">
        <ele>529.1</ele>
        <time>2020-02-09T12:48:29Z</time>
      </trkpt>
      <trkpt lat="42.3544180" lon="-2.4950140">
        <ele>529.0</ele>
        <time>2020-02-09T12:48:30Z</time>
      </trkpt>
      <trkpt lat="42.3544980" lon="-2.4949880">
        <ele>528.8</ele>
        <time>2020-02-09T12:48:31Z</time>
      </trkpt>
      <trkpt lat="42.3545680" lon="-2.4949530">
        <ele>528.6</ele>
        <time>2020-02-09T12:48:32Z</time>
      </trkpt>
      <trkpt lat="42.3546220" lon="-2.4949060">
        <ele>528.5</ele>
        <time>2020-02-09T12:48:33Z</time>
      </trkpt>
      <trkpt lat="42.3546690" lon="-2.4948790">
        <ele>528.4</ele>
        <time>2020-02-09T12:48:34Z</time>
      </trkpt>
      <trkpt lat="42.3547220" lon="-2.4948470">
        <ele>528.3</ele>
        <time>2020-02-09T12:48:35Z</time>
      </trkpt>
      <trkpt lat="42.3547940" lon="-2.4948120">
        <ele>528.1</ele>
        <time>2020-02-09T12:48:36Z</time>
      </trkpt>
      <trkpt lat="42.3548590" lon="-2.4947820">
        <ele>528.0</ele>
        <time>2020-02-09T12:48:37Z</time>
      </trkpt>
      <trkpt lat="42.3549190" lon="-2.4947420">
        <ele>527.9</ele>
        <time>2020-02-09T12:48:38Z</time>
      </trkpt>
      <trkpt lat="42.3549810" lon="-2.4947000">
        <ele>527.8</ele>
        <time>2020-02-09T12:48:39Z</time>
      </trkpt>
      <trkpt lat="42.3550420" lon="-2.4946570">
        <ele>527.6</ele>
        <time>2020-02-09T12:48:40Z</time>
      </trkpt>
      <trkpt lat="42.3551010" lon="-2.4946210">
        <ele>527.5</ele>
        <time>2020-02-09T12:48:41Z</time>
      </trkpt>
      <trkpt lat="42.3551610" lon="-2.4945900">
        <ele>527.4</ele>
        <time>2020-02-09T12:48:42Z</time>
      </trkpt>
      <trkpt lat="42.3552320" lon="-2.4945540">
        <ele>527.3</ele>
        <time>2020-02-09T12:48:43Z</time>
      </trkpt>
      <trkpt lat="42.3552940" lon="-2.4945200">
        <ele>527.2</ele>
        <time>2020-02-09T12:48:44Z</time>
      </trkpt>
      <trkpt lat="42.3553580" lon="-2.4944890">
        <ele>527.2</ele>
        <time>2020-02-09T12:48:45Z</time>
      </trkpt>
      <trkpt lat="42.3554220" lon="-2.4944540">
        <ele>527.1</ele>
        <time>2020-02-09T12:48:46Z</time>
      </trkpt>
      <trkpt lat="42.3554810" lon="-2.4944220">
        <ele>527.0</ele>
        <time>2020-02-09T12:48:47Z</time>
      </trkpt>
      <trkpt lat="42.3555460" lon="-2.4943850">
        <ele>526.8</ele>
        <time>2020-02-09T12:48:48Z</time>
      </trkpt>
      <trkpt lat="42.3556310" lon="-2.4943760">
        <ele>526.6</ele>
        <time>2020-02-09T12:48:49Z</time>
      </trkpt>
      <trkpt lat="42.3556850" lon="-2.4943340">
        <ele>526.5</ele>
        <time>2020-02-09T12:48:50Z</time>
      </trkpt>
      <trkpt lat="42.3556980" lon="-2.4942980">
        <ele>526.5</ele>
        <time>2020-02-09T12:48:51Z</time>
      </trkpt>
      <trkpt lat="42.3557590" lon="-2.4942650">
        <ele>526.4</ele>
        <time>2020-02-09T12:48:52Z</time>
      </trkpt>
      <trkpt lat="42.3558230" lon="-2.4942480">
        <ele>526.3</ele>
        <time>2020-02-09T12:48:53Z</time>
      </trkpt>
      <trkpt lat="42.3558840" lon="-2.4942100">
        <ele>526.3</ele>
        <time>2020-02-09T12:48:54Z</time>
      </trkpt>
      <trkpt lat="42.3559520" lon="-2.4941750">
        <ele>526.3</ele>
        <time>2020-02-09T12:48:55Z</time>
      </trkpt>
      <trkpt lat="42.3560190" lon="-2.4941450">
        <ele>526.2</ele>
        <time>2020-02-09T12:48:56Z</time>
      </trkpt>
      <trkpt lat="42.3560770" lon="-2.4941160">
        <ele>526.2</ele>
        <time>2020-02-09T12:48:57Z</time>
      </trkpt>
      <trkpt lat="42.3561400" lon="-2.4940830">
        <ele>526.1</ele>
        <time>2020-02-09T12:48:58Z</time>
      </trkpt>
      <trkpt lat="42.3561960" lon="-2.4940490">
        <ele>526.0</ele>
        <time>2020-02-09T12:48:59Z</time>
      </trkpt>
      <trkpt lat="42.3562600" lon="-2.4940170">
        <ele>525.9</ele>
        <time>2020-02-09T12:49:00Z</time>
      </trkpt>
      <trkpt lat="42.3563150" lon="-2.4939940">
        <ele>525.8</ele>
        <time>2020-02-09T12:49:01Z</time>
      </trkpt>
      <trkpt lat="42.3563760" lon="-2.4939580">
        <ele>525.6</ele>
        <time>2020-02-09T12:49:02Z</time>
      </trkpt>
      <trkpt lat="42.3564400" lon="-2.4939230">
        <ele>525.5</ele>
        <time>2020-02-09T12:49:03Z</time>
      </trkpt>
      <trkpt lat="42.3565110" lon="-2.4938910">
        <ele>525.3</ele>
        <time>2020-02-09T12:49:04Z</time>
      </trkpt>
      <trkpt lat="42.3565780" lon="-2.4938550">
        <ele>525.2</ele>
        <time>2020-02-09T12:49:05Z</time>
      </trkpt>
      <trkpt lat="42.3566470" lon="-2.4938240">
        <ele>525.1</ele>
        <time>2020-02-09T12:49:06Z</time>
      </trkpt>
      <trkpt lat="42.3567180" lon="-2.4937890">
        <ele>524.9</ele>
        <time>2020-02-09T12:49:07Z</time>
      </trkpt>
      <trkpt lat="42.3567910" lon="-2.4937510">
        <ele>524.8</ele>
        <time>2020-02-09T12:49:08Z</time>
      </trkpt>
      <trkpt lat="42.3568470" lon="-2.4937020">
        <ele>524.6</ele>
        <time>2020-02-09T12:49:09Z</time>
      </trkpt>
      <trkpt lat="42.3569230" lon="-2.4936620">
        <ele>524.5</ele>
        <time>2020-02-09T12:49:10Z</time>
      </trkpt>
      <trkpt lat="42.3569970" lon="-2.4936270">
        <ele>524.4</ele>
        <time>2020-02-09T12:49:11Z</time>
      </trkpt>
      <trkpt lat="42.3570820" lon="-2.4935910">
        <ele>524.3</ele>
        <time>2020-02-09T12:49:12Z</time>
      </trkpt>
      <trkpt lat="42.3571570" lon="-2.4935480">
        <ele>524.2</ele>
        <time>2020-02-09T12:49:13Z</time>
      </trkpt>
      <trkpt lat="42.3572280" lon="-2.4935110">
        <ele>524.2</ele>
        <time>2020-02-09T12:49:14Z</time>
      </trkpt>
      <trkpt lat="42.3572980" lon="-2.4934680">
        <ele>524.1</ele>
        <time>2020-02-09T12:49:15Z</time>
      </trkpt>
      <trkpt lat="42.3573710" lon="-2.4934270">
        <ele>524.0</ele>
        <time>2020-02-09T12:49:16Z</time>
      </trkpt>
      <trkpt lat="42.3574420" lon="-2.4933910">
        <ele>523.8</ele>
        <time>2020-02-09T12:49:17Z</time>
      </trkpt>
      <trkpt lat="42.3575250" lon="-2.4933440">
        <ele>523.6</ele>
        <time>2020-02-09T12:49:18Z</time>
      </trkpt>
      <trkpt lat="42.3575990" lon="-2.4933050">
        <ele>523.5</ele>
        <time>2020-02-09T12:49:19Z</time>
      </trkpt>
      <trkpt lat="42.3576810" lon="-2.4932550">
        <ele>523.4</ele>
        <time>2020-02-09T12:49:20Z</time>
      </trkpt>
      <trkpt lat="42.3577580" lon="-2.4932140">
        <ele>523.2</ele>
        <time>2020-02-09T12:49:21Z</time>
      </trkpt>
      <trkpt lat="42.3578330" lon="-2.4931740">
        <ele>523.1</ele>
        <time>2020-02-09T12:49:22Z</time>
      </trkpt>
      <trkpt lat="42.3579110" lon="-2.4931290">
        <ele>522.8</ele>
        <time>2020-02-09T12:49:23Z</time>
      </trkpt>
      <trkpt lat="42.3579870" lon="-2.4930860">
        <ele>522.5</ele>
        <time>2020-02-09T12:49:24Z</time>
      </trkpt>
      <trkpt lat="42.3580670" lon="-2.4930440">
        <ele>522.4</ele>
        <time>2020-02-09T12:49:25Z</time>
      </trkpt>
      <trkpt lat="42.3581420" lon="-2.4930060">
        <ele>522.6</ele>
        <time>2020-02-09T12:49:26Z</time>
      </trkpt>
      <trkpt lat="42.3582370" lon="-2.4929480">
        <ele>523.0</ele>
        <time>2020-02-09T12:49:27Z</time>
      </trkpt>
      <trkpt lat="42.3583080" lon="-2.4929040">
        <ele>523.2</ele>
        <time>2020-02-09T12:49:28Z</time>
      </trkpt>
      <trkpt lat="42.3583910" lon="-2.4928590">
        <ele>523.3</ele>
        <time>2020-02-09T12:49:29Z</time>
      </trkpt>
      <trkpt lat="42.3584730" lon="-2.4928200">
        <ele>523.3</ele>
        <time>2020-02-09T12:49:30Z</time>
      </trkpt>
      <trkpt lat="42.3585590" lon="-2.4927730">
        <ele>523.2</ele>
        <time>2020-02-09T12:49:31Z</time>
      </trkpt>
      <trkpt lat="42.3586410" lon="-2.4927270">
        <ele>522.9</ele>
        <time>2020-02-09T12:49:32Z</time>
      </trkpt>
      <trkpt lat="42.3587260" lon="-2.4926900">
        <ele>522.6</ele>
        <time>2020-02-09T12:49:33Z</time>
      </trkpt>
      <trkpt lat="42.3588090" lon="-2.4926510">
        <ele>522.2</ele>
        <time>2020-02-09T12:49:34Z</time>
      </trkpt>
      <trkpt lat="42.3588950" lon="-2.4926000">
        <ele>521.8</ele>
        <time>2020-02-09T12:49:35Z</time>
      </trkpt>
      <trkpt lat="42.3589780" lon="-2.4925620">
        <ele>521.6</ele>
        <time>2020-02-09T12:49:36Z</time>
      </trkpt>
      <trkpt lat="42.3590690" lon="-2.4925300">
        <ele>521.5</ele>
        <time>2020-02-09T12:49:37Z</time>
      </trkpt>
      <trkpt lat="42.3591470" lon="-2.4924900">
        <ele>521.4</ele>
        <time>2020-02-09T12:49:38Z</time>
      </trkpt>
      <trkpt lat="42.3592210" lon="-2.4924430">
        <ele>521.3</ele>
        <time>2020-02-09T12:49:39Z</time>
      </trkpt>
      <trkpt lat="42.3592970" lon="-2.4924000">
        <ele>521.1</ele>
        <time>2020-02-09T12:49:40Z</time>
      </trkpt>
      <trkpt lat="42.3593790" lon="-2.4923610">
        <ele>520.9</ele>
        <time>2020-02-09T12:49:41Z</time>
      </trkpt>
      <trkpt lat="42.3594540" lon="-2.4923150">
        <ele>520.7</ele>
        <time>2020-02-09T12:49:42Z</time>
      </trkpt>
      <trkpt lat="42.3595360" lon="-2.4922800">
        <ele>520.7</ele>
        <time>2020-02-09T12:49:43Z</time>
      </trkpt>
      <trkpt lat="42.3596140" lon="-2.4922320">
        <ele>520.6</ele>
        <time>2020-02-09T12:49:44Z</time>
      </trkpt>
      <trkpt lat="42.3597000" lon="-2.4921980">
        <ele>520.6</ele>
        <time>2020-02-09T12:49:45Z</time>
      </trkpt>
      <trkpt lat="42.3597760" lon="-2.4921520">
        <ele>520.5</ele>
        <time>2020-02-09T12:49:46Z</time>
      </trkpt>
      <trkpt lat="42.3598540" lon="-2.4921180">
        <ele>520.3</ele>
        <time>2020-02-09T12:49:47Z</time>
      </trkpt>
      <trkpt lat="42.3599170" lon="-2.4920640">
        <ele>520.1</ele>
        <time>2020-02-09T12:49:48Z</time>
      </trkpt>
      <trkpt lat="42.3599820" lon="-2.4920260">
        <ele>520.0</ele>
        <time>2020-02-09T12:49:49Z</time>
      </trkpt>
      <trkpt lat="42.3600690" lon="-2.4919770">
        <ele>519.9</ele>
        <time>2020-02-09T12:49:50Z</time>
      </trkpt>
      <trkpt lat="42.3601460" lon="-2.4919300">
        <ele>520.1</ele>
        <time>2020-02-09T12:49:51Z</time>
      </trkpt>
      <trkpt lat="42.3602170" lon="-2.4918920">
        <ele>520.4</ele>
        <time>2020-02-09T12:49:52Z</time>
      </trkpt>
      <trkpt lat="42.3602880" lon="-2.4918530">
        <ele>520.7</ele>
        <time>2020-02-09T12:49:53Z</time>
      </trkpt>
      <trkpt lat="42.3603540" lon="-2.4918230">
        <ele>520.1</ele>
        <time>2020-02-09T12:49:54Z</time>
      </trkpt>
      <trkpt lat="42.3604280" lon="-2.4917810">
        <ele>519.5</ele>
        <time>2020-02-09T12:49:55Z</time>
      </trkpt>
      <trkpt lat="42.3604990" lon="-2.4917470">
        <ele>518.8</ele>
        <time>2020-02-09T12:49:56Z</time>
      </trkpt>
      <trkpt lat="42.3605700" lon="-2.4917100">
        <ele>518.2</ele>
        <time>2020-02-09T12:49:57Z</time>
      </trkpt>
      <trkpt lat="42.3606410" lon="-2.4916700">
        <ele>517.6</ele>
        <time>2020-02-09T12:49:58Z</time>
      </trkpt>
      <trkpt lat="42.3607120" lon="-2.4916330">
        <ele>517.2</ele>
        <time>2020-02-09T12:49:59Z</time>
      </trkpt>
      <trkpt lat="42.3607870" lon="-2.4916010">
        <ele>516.8</ele>
        <time>2020-02-09T12:50:00Z</time>
      </trkpt>
      <trkpt lat="42.3608570" lon="-2.4915680">
        <ele>516.5</ele>
        <time>2020-02-09T12:50:01Z</time>
      </trkpt>
      <trkpt lat="42.3609190" lon="-2.4915170">
        <ele>516.3</ele>
        <time>2020-02-09T12:50:02Z</time>
      </trkpt>
      <trkpt lat="42.3610000" lon="-2.4914810">
        <ele>516.1</ele>
        <time>2020-02-09T12:50:03Z</time>
      </trkpt>
      <trkpt lat="42.3610760" lon="-2.4914500">
        <ele>515.9</ele>
        <time>2020-02-09T12:50:04Z</time>
      </trkpt>
      <trkpt lat="42.3611420" lon="-2.4914120">
        <ele>515.7</ele>
        <time>2020-02-09T12:50:05Z</time>
      </trkpt>
      <trkpt lat="42.3612090" lon="-2.4913510">
        <ele>515.5</ele>
        <time>2020-02-09T12:50:06Z</time>
      </trkpt>
      <trkpt lat="42.3612840" lon="-2.4913090">
        <ele>515.1</ele>
        <time>2020-02-09T12:50:07Z</time>
      </trkpt>
      <trkpt lat="42.3613650" lon="-2.4912650">
        <ele>514.7</ele>
        <time>2020-02-09T12:50:08Z</time>
      </trkpt>
      <trkpt lat="42.3614520" lon="-2.4912220">
        <ele>514.2</ele>
        <time>2020-02-09T12:50:09Z</time>
      </trkpt>
      <trkpt lat="42.3615340" lon="-2.4911710">
        <ele>513.8</ele>
        <time>2020-02-09T12:50:10Z</time>
      </trkpt>
      <trkpt lat="42.3616190" lon="-2.4911290">
        <ele>513.4</ele>
        <time>2020-02-09T12:50:11Z</time>
      </trkpt>
      <trkpt lat="42.3616950" lon="-2.4910840">
        <ele>513.2</ele>
        <time>2020-02-09T12:50:12Z</time>
      </trkpt>
      <trkpt lat="42.3617830" lon="-2.4910470">
        <ele>512.9</ele>
        <time>2020-02-09T12:50:13Z</time>
      </trkpt>
      <trkpt lat="42.3618680" lon="-2.4909980">
        <ele>512.7</ele>
        <time>2020-02-09T12:50:14Z</time>
      </trkpt>
      <trkpt lat="42.3619550" lon="-2.4909690">
        <ele>512.5</ele>
        <time>2020-02-09T12:50:15Z</time>
      </trkpt>
      <trkpt lat="42.3620240" lon="-2.4909730">
        <ele>512.3</ele>
        <time>2020-02-09T12:50:16Z</time>
      </trkpt>
      <trkpt lat="42.3621020" lon="-2.4909240">
        <ele>512.2</ele>
        <time>2020-02-09T12:50:17Z</time>
      </trkpt>
      <trkpt lat="42.3621870" lon="-2.4908790">
        <ele>512.1</ele>
        <time>2020-02-09T12:50:18Z</time>
      </trkpt>
      <trkpt lat="42.3622670" lon="-2.4908370">
        <ele>512.1</ele>
        <time>2020-02-09T12:50:19Z</time>
      </trkpt>
      <trkpt lat="42.3623400" lon="-2.4907970">
        <ele>512.1</ele>
        <time>2020-02-09T12:50:20Z</time>
      </trkpt>
      <trkpt lat="42.3623990" lon="-2.4907490">
        <ele>512.1</ele>
        <time>2020-02-09T12:50:21Z</time>
      </trkpt>
      <trkpt lat="42.3624700" lon="-2.4907080">
        <ele>512.2</ele>
        <time>2020-02-09T12:50:22Z</time>
      </trkpt>
      <trkpt lat="42.3625510" lon="-2.4906740">
        <ele>512.4</ele>
        <time>2020-02-09T12:50:23Z</time>
      </trkpt>
      <trkpt lat="42.3626330" lon="-2.4906110">
        <ele>512.6</ele>
        <time>2020-02-09T12:50:24Z</time>
      </trkpt>
      <trkpt lat="42.3627080" lon="-2.4905680">
        <ele>512.7</ele>
        <time>2020-02-09T12:50:25Z</time>
      </trkpt>
      <trkpt lat="42.3627790" lon="-2.4905260">
        <ele>512.8</ele>
        <time>2020-02-09T12:50:26Z</time>
      </trkpt>
      <trkpt lat="42.3628570" lon="-2.4904920">
        <ele>512.9</ele>
        <time>2020-02-09T12:50:27Z</time>
      </trkpt>
      <trkpt lat="42.3629260" lon="-2.4904530">
        <ele>512.9</ele>
        <time>2020-02-09T12:50:28Z</time>
      </trkpt>
      <trkpt lat="42.3629970" lon="-2.4904140">
        <ele>512.9</ele>
        <time>2020-02-09T12:50:29Z</time>
      </trkpt>
      <trkpt lat="42.3630680" lon="-2.4903770">
        <ele>513.0</ele>
        <time>2020-02-09T12:50:30Z</time>
      </trkpt>
      <trkpt lat="42.3631680" lon="-2.4903470">
        <ele>513.0</ele>
        <time>2020-02-09T12:50:31Z</time>
      </trkpt>
      <trkpt lat="42.3632510" lon="-2.4903110">
        <ele>513.0</ele>
        <time>2020-02-09T12:50:32Z</time>
      </trkpt>
      <trkpt lat="42.3633210" lon="-2.4902850">
        <ele>513.0</ele>
        <time>2020-02-09T12:50:33Z</time>
      </trkpt>
      <trkpt lat="42.3633750" lon="-2.4902350">
        <ele>513.0</ele>
        <time>2020-02-09T12:50:34Z</time>
      </trkpt>
      <trkpt lat="42.3634360" lon="-2.4901970">
        <ele>513.0</ele>
        <time>2020-02-09T12:50:35Z</time>
      </trkpt>
      <trkpt lat="42.3635030" lon="-2.4901600">
        <ele>513.0</ele>
        <time>2020-02-09T12:50:36Z</time>
      </trkpt>
      <trkpt lat="42.3635690" lon="-2.4901100">
        <ele>513.0</ele>
        <time>2020-02-09T12:50:37Z</time>
      </trkpt>
      <trkpt lat="42.3636300" lon="-2.4900750">
        <ele>513.0</ele>
        <time>2020-02-09T12:50:38Z</time>
      </trkpt>
      <trkpt lat="42.3636970" lon="-2.4900340">
        <ele>513.0</ele>
        <time>2020-02-09T12:50:39Z</time>
      </trkpt>
      <trkpt lat="42.3637590" lon="-2.4899980">
        <ele>513.0</ele>
        <time>2020-02-09T12:50:40Z</time>
      </trkpt>
      <trkpt lat="42.3637870" lon="-2.4899830">
        <ele>513.0</ele>
        <time>2020-02-09T12:50:41Z</time>
      </trkpt>
      <trkpt lat="42.3638510" lon="-2.4899460">
        <ele>513.0</ele>
        <time>2020-02-09T12:50:42Z</time>
      </trkpt>
      <trkpt lat="42.3639130" lon="-2.4899050">
        <ele>513.0</ele>
        <time>2020-02-09T12:50:43Z</time>
      </trkpt>
      <trkpt lat="42.3639830" lon="-2.4898690">
        <ele>513.0</ele>
        <time>2020-02-09T12:50:44Z</time>
      </trkpt>
      <trkpt lat="42.3640430" lon="-2.4898370">
        <ele>513.0</ele>
        <time>2020-02-09T12:50:45Z</time>
      </trkpt>
      <trkpt lat="42.3641150" lon="-2.4897960">
        <ele>513.1</ele>
        <time>2020-02-09T12:50:46Z</time>
      </trkpt>
      <trkpt lat="42.3641840" lon="-2.4897580">
        <ele>513.1</ele>
        <time>2020-02-09T12:50:47Z</time>
      </trkpt>
      <trkpt lat="42.3642510" lon="-2.4897150">
        <ele>513.0</ele>
        <time>2020-02-09T12:50:48Z</time>
      </trkpt>
      <trkpt lat="42.3643180" lon="-2.4896720">
        <ele>513.0</ele>
        <time>2020-02-09T12:50:49Z</time>
      </trkpt>
      <trkpt lat="42.3643860" lon="-2.4896250">
        <ele>513.0</ele>
        <time>2020-02-09T12:50:50Z</time>
      </trkpt>
      <trkpt lat="42.3644440" lon="-2.4895750">
        <ele>512.8</ele>
        <time>2020-02-09T12:50:51Z</time>
      </trkpt>
      <trkpt lat="42.3645070" lon="-2.4895380">
        <ele>512.7</ele>
        <time>2020-02-09T12:50:52Z</time>
      </trkpt>
      <trkpt lat="42.3645780" lon="-2.4895110">
        <ele>512.5</ele>
        <time>2020-02-09T12:50:53Z</time>
      </trkpt>
      <trkpt lat="42.3646470" lon="-2.4894740">
        <ele>512.1</ele>
        <time>2020-02-09T12:50:54Z</time>
      </trkpt>
      <trkpt lat="42.3647120" lon="-2.4894370">
        <ele>512.1</ele>
        <time>2020-02-09T12:50:55Z</time>
      </trkpt>
      <trkpt lat="42.3647780" lon="-2.4894000">
        <ele>512.1</ele>
        <time>2020-02-09T12:50:56Z</time>
      </trkpt>
      <trkpt lat="42.3648400" lon="-2.4893570">
        <ele>512.2</ele>
        <time>2020-02-09T12:50:57Z</time>
      </trkpt>
      <trkpt lat="42.3649070" lon="-2.4893210">
        <ele>512.2</ele>
        <time>2020-02-09T12:50:58Z</time>
      </trkpt>
      <trkpt lat="42.3649760" lon="-2.4892850">
        <ele>512.2</ele>
        <time>2020-02-09T12:50:59Z</time>
      </trkpt>
      <trkpt lat="42.3650400" lon="-2.4892470">
        <ele>512.2</ele>
        <time>2020-02-09T12:51:00Z</time>
      </trkpt>
      <trkpt lat="42.3650820" lon="-2.4891800">
        <ele>512.2</ele>
        <time>2020-02-09T12:51:01Z</time>
      </trkpt>
      <trkpt lat="42.3651720" lon="-2.4890900">
        <ele>512.1</ele>
        <time>2020-02-09T12:51:02Z</time>
      </trkpt>
      <trkpt lat="42.3652370" lon="-2.4890460">
        <ele>512.1</ele>
        <time>2020-02-09T12:51:03Z</time>
      </trkpt>
      <trkpt lat="42.3652920" lon="-2.4891050">
        <ele>512.0</ele>
        <time>2020-02-09T12:51:04Z</time>
      </trkpt>
      <trkpt lat="42.3653450" lon="-2.4890870">
        <ele>512.0</ele>
        <time>2020-02-09T12:51:05Z</time>
      </trkpt>
      <trkpt lat="42.3654110" lon="-2.4890630">
        <ele>512.0</ele>
        <time>2020-02-09T12:51:06Z</time>
      </trkpt>
      <trkpt lat="42.3654830" lon="-2.4890360">
        <ele>511.9</ele>
        <time>2020-02-09T12:51:07Z</time>
      </trkpt>
      <trkpt lat="42.3655440" lon="-2.4890050">
        <ele>511.8</ele>
        <time>2020-02-09T12:51:08Z</time>
      </trkpt>
      <trkpt lat="42.3656080" lon="-2.4889670">
        <ele>511.7</ele>
        <time>2020-02-09T12:51:09Z</time>
      </trkpt>
      <trkpt lat="42.3656660" lon="-2.4889170">
        <ele>511.7</ele>
        <time>2020-02-09T12:51:10Z</time>
      </trkpt>
      <trkpt lat="42.3657350" lon="-2.4888740">
        <ele>511.5</ele>
        <time>2020-02-09T12:51:11Z</time>
      </trkpt>
      <trkpt lat="42.3658020" lon="-2.4888560">
        <ele>511.4</ele>
        <time>2020-02-09T12:51:12Z</time>
      </trkpt>
      <trkpt lat="42.3658790" lon="-2.4888070">
        <ele>511.3</ele>
        <time>2020-02-09T12:51:13Z</time>
      </trkpt>
      <trkpt lat="42.3659610" lon="-2.4887680">
        <ele>511.1</ele>
        <time>2020-02-09T12:51:14Z</time>
      </trkpt>
      <trkpt lat="42.3660350" lon="-2.4887300">
        <ele>511.0</ele>
        <time>2020-02-09T12:51:15Z</time>
      </trkpt>
      <trkpt lat="42.3661030" lon="-2.4886860">
        <ele>510.9</ele>
        <time>2020-02-09T12:51:16Z</time>
      </trkpt>
      <trkpt lat="42.3661760" lon="-2.4886400">
        <ele>510.7</ele>
        <time>2020-02-09T12:51:17Z</time>
      </trkpt>
      <trkpt lat="42.3662510" lon="-2.4886030">
        <ele>510.6</ele>
        <time>2020-02-09T12:51:18Z</time>
      </trkpt>
      <trkpt lat="42.3663290" lon="-2.4885600">
        <ele>510.4</ele>
        <time>2020-02-09T12:51:19Z</time>
      </trkpt>
      <trkpt lat="42.3664110" lon="-2.4885310">
        <ele>510.3</ele>
        <time>2020-02-09T12:51:20Z</time>
      </trkpt>
      <trkpt lat="42.3664900" lon="-2.4884900">
        <ele>510.1</ele>
        <time>2020-02-09T12:51:21Z</time>
      </trkpt>
      <trkpt lat="42.3665700" lon="-2.4884380">
        <ele>510.0</ele>
        <time>2020-02-09T12:51:22Z</time>
      </trkpt>
      <trkpt lat="42.3666380" lon="-2.4884120">
        <ele>509.8</ele>
        <time>2020-02-09T12:51:23Z</time>
      </trkpt>
      <trkpt lat="42.3667210" lon="-2.4883710">
        <ele>509.7</ele>
        <time>2020-02-09T12:51:24Z</time>
      </trkpt>
      <trkpt lat="42.3667870" lon="-2.4883360">
        <ele>509.5</ele>
        <time>2020-02-09T12:51:25Z</time>
      </trkpt>
      <trkpt lat="42.3668600" lon="-2.4882930">
        <ele>509.4</ele>
        <time>2020-02-09T12:51:26Z</time>
      </trkpt>
      <trkpt lat="42.3669340" lon="-2.4882580">
        <ele>509.2</ele>
        <time>2020-02-09T12:51:27Z</time>
      </trkpt>
      <trkpt lat="42.3670080" lon="-2.4882150">
        <ele>509.1</ele>
        <time>2020-02-09T12:51:28Z</time>
      </trkpt>
      <trkpt lat="42.3670810" lon="-2.4881850">
        <ele>508.9</ele>
        <time>2020-02-09T12:51:29Z</time>
      </trkpt>
      <trkpt lat="42.3671550" lon="-2.4881520">
        <ele>508.6</ele>
        <time>2020-02-09T12:51:30Z</time>
      </trkpt>
      <trkpt lat="42.3672120" lon="-2.4881230">
        <ele>508.3</ele>
        <time>2020-02-09T12:51:31Z</time>
      </trkpt>
      <trkpt lat="42.3672750" lon="-2.4880780">
        <ele>508.0</ele>
        <time>2020-02-09T12:51:32Z</time>
      </trkpt>
      <trkpt lat="42.3673310" lon="-2.4880390">
        <ele>507.7</ele>
        <time>2020-02-09T12:51:33Z</time>
      </trkpt>
      <trkpt lat="42.3673700" lon="-2.4879430">
        <ele>507.6</ele>
        <time>2020-02-09T12:51:34Z</time>
      </trkpt>
      <trkpt lat="42.3674030" lon="-2.4878850">
        <ele>507.4</ele>
        <time>2020-02-09T12:51:35Z</time>
      </trkpt>
      <trkpt lat="42.3674530" lon="-2.4878370">
        <ele>507.3</ele>
        <time>2020-02-09T12:51:36Z</time>
      </trkpt>
      <trkpt lat="42.3675120" lon="-2.4878070">
        <ele>507.0</ele>
        <time>2020-02-09T12:51:37Z</time>
      </trkpt>
      <trkpt lat="42.3675770" lon="-2.4877820">
        <ele>507.0</ele>
        <time>2020-02-09T12:51:38Z</time>
      </trkpt>
      <trkpt lat="42.3676470" lon="-2.4877650">
        <ele>507.1</ele>
        <time>2020-02-09T12:51:39Z</time>
      </trkpt>
      <trkpt lat="42.3677190" lon="-2.4877670">
        <ele>507.1</ele>
        <time>2020-02-09T12:51:40Z</time>
      </trkpt>
      <trkpt lat="42.3677840" lon="-2.4877630">
        <ele>507.1</ele>
        <time>2020-02-09T12:51:41Z</time>
      </trkpt>
      <trkpt lat="42.3678480" lon="-2.4877530">
        <ele>507.1</ele>
        <time>2020-02-09T12:51:42Z</time>
      </trkpt>
      <trkpt lat="42.3679070" lon="-2.4877180">
        <ele>507.0</ele>
        <time>2020-02-09T12:51:43Z</time>
      </trkpt>
      <trkpt lat="42.3679640" lon="-2.4876790">
        <ele>506.8</ele>
        <time>2020-02-09T12:51:44Z</time>
      </trkpt>
      <trkpt lat="42.3680260" lon="-2.4876600">
        <ele>506.6</ele>
        <time>2020-02-09T12:51:45Z</time>
      </trkpt>
      <trkpt lat="42.3680890" lon="-2.4876290">
        <ele>506.3</ele>
        <time>2020-02-09T12:51:46Z</time>
      </trkpt>
      <trkpt lat="42.3681520" lon="-2.4875970">
        <ele>506.1</ele>
        <time>2020-02-09T12:51:47Z</time>
      </trkpt>
      <trkpt lat="42.3682180" lon="-2.4875520">
        <ele>505.7</ele>
        <time>2020-02-09T12:51:48Z</time>
      </trkpt>
      <trkpt lat="42.3682830" lon="-2.4875170">
        <ele>505.5</ele>
        <time>2020-02-09T12:51:49Z</time>
      </trkpt>
      <trkpt lat="42.3683430" lon="-2.4874830">
        <ele>505.3</ele>
        <time>2020-02-09T12:51:50Z</time>
      </trkpt>
      <trkpt lat="42.3684100" lon="-2.4874480">
        <ele>505.1</ele>
        <time>2020-02-09T12:51:51Z</time>
      </trkpt>
      <trkpt lat="42.3684740" lon="-2.4874110">
        <ele>504.8</ele>
        <time>2020-02-09T12:51:52Z</time>
      </trkpt>
      <trkpt lat="42.3685380" lon="-2.4873730">
        <ele>504.4</ele>
        <time>2020-02-09T12:51:53Z</time>
      </trkpt>
      <trkpt lat="42.3686030" lon="-2.4873360">
        <ele>504.0</ele>
        <time>2020-02-09T12:51:54Z</time>
      </trkpt>
      <trkpt lat="42.3686710" lon="-2.4873260">
        <ele>503.6</ele>
        <time>2020-02-09T12:51:55Z</time>
      </trkpt>
      <trkpt lat="42.3687330" lon="-2.4872930">
        <ele>503.3</ele>
        <time>2020-02-09T12:51:56Z</time>
      </trkpt>
      <trkpt lat="42.3687930" lon="-2.4872490">
        <ele>503.0</ele>
        <time>2020-02-09T12:51:57Z</time>
      </trkpt>
      <trkpt lat="42.3688630" lon="-2.4872270">
        <ele>502.7</ele>
        <time>2020-02-09T12:51:58Z</time>
      </trkpt>
      <trkpt lat="42.3689260" lon="-2.4871950">
        <ele>502.6</ele>
        <time>2020-02-09T12:51:59Z</time>
      </trkpt>
      <trkpt lat="42.3689930" lon="-2.4871520">
        <ele>503.0</ele>
        <time>2020-02-09T12:52:00Z</time>
      </trkpt>
      <trkpt lat="42.3690690" lon="-2.4871060">
        <ele>503.2</ele>
        <time>2020-02-09T12:52:01Z</time>
      </trkpt>
      <trkpt lat="42.3691340" lon="-2.4870650">
        <ele>503.4</ele>
        <time>2020-02-09T12:52:02Z</time>
      </trkpt>
      <trkpt lat="42.3691980" lon="-2.4870240">
        <ele>503.4</ele>
        <time>2020-02-09T12:52:03Z</time>
      </trkpt>
      <trkpt lat="42.3692530" lon="-2.4869920">
        <ele>503.5</ele>
        <time>2020-02-09T12:52:04Z</time>
      </trkpt>
      <trkpt lat="42.3692970" lon="-2.4870140">
        <ele>503.5</ele>
        <time>2020-02-09T12:52:05Z</time>
      </trkpt>
      <trkpt lat="42.3693580" lon="-2.4869800">
        <ele>503.5</ele>
        <time>2020-02-09T12:52:06Z</time>
      </trkpt>
      <trkpt lat="42.3694220" lon="-2.4869380">
        <ele>503.5</ele>
        <time>2020-02-09T12:52:07Z</time>
      </trkpt>
      <trkpt lat="42.3694830" lon="-2.4869010">
        <ele>503.4</ele>
        <time>2020-02-09T12:52:08Z</time>
      </trkpt>
      <trkpt lat="42.3695470" lon="-2.4868640">
        <ele>503.4</ele>
        <time>2020-02-09T12:52:09Z</time>
      </trkpt>
      <trkpt lat="42.3696110" lon="-2.4868320">
        <ele>503.4</ele>
        <time>2020-02-09T12:52:10Z</time>
      </trkpt>
      <trkpt lat="42.3696700" lon="-2.4867940">
        <ele>503.4</ele>
        <time>2020-02-09T12:52:11Z</time>
      </trkpt>
      <trkpt lat="42.3697350" lon="-2.4867560">
        <ele>503.4</ele>
        <time>2020-02-09T12:52:12Z</time>
      </trkpt>
      <trkpt lat="42.3697940" lon="-2.4867240">
        <ele>503.4</ele>
        <time>2020-02-09T12:52:13Z</time>
      </trkpt>
      <trkpt lat="42.3698580" lon="-2.4866870">
        <ele>503.4</ele>
        <time>2020-02-09T12:52:14Z</time>
      </trkpt>
      <trkpt lat="42.3699740" lon="-2.4866910">
        <ele>503.4</ele>
        <time>2020-02-09T12:52:15Z</time>
      </trkpt>
      <trkpt lat="42.3700470" lon="-2.4866540">
        <ele>503.4</ele>
        <time>2020-02-09T12:52:16Z</time>
      </trkpt>
      <trkpt lat="42.3701190" lon="-2.4866160">
        <ele>503.4</ele>
        <time>2020-02-09T12:52:17Z</time>
      </trkpt>
      <trkpt lat="42.3701680" lon="-2.4865590">
        <ele>503.3</ele>
        <time>2020-02-09T12:52:18Z</time>
      </trkpt>
      <trkpt lat="42.3702010" lon="-2.4865310">
        <ele>503.2</ele>
        <time>2020-02-09T12:52:19Z</time>
      </trkpt>
      <trkpt lat="42.3702710" lon="-2.4864900">
        <ele>503.1</ele>
        <time>2020-02-09T12:52:20Z</time>
      </trkpt>
      <trkpt lat="42.3703460" lon="-2.4864550">
        <ele>503.0</ele>
        <time>2020-02-09T12:52:21Z</time>
      </trkpt>
      <trkpt lat="42.3704130" lon="-2.4864200">
        <ele>502.9</ele>
        <time>2020-02-09T12:52:22Z</time>
      </trkpt>
      <trkpt lat="42.3704860" lon="-2.4863780">
        <ele>502.8</ele>
        <time>2020-02-09T12:52:23Z</time>
      </trkpt>
      <trkpt lat="42.3705580" lon="-2.4863360">
        <ele>502.7</ele>
        <time>2020-02-09T12:52:24Z</time>
      </trkpt>
      <trkpt lat="42.3706420" lon="-2.4862890">
        <ele>502.6</ele>
        <time>2020-02-09T12:52:25Z</time>
      </trkpt>
      <trkpt lat="42.3707210" lon="-2.4862480">
        <ele>502.5</ele>
        <time>2020-02-09T12:52:26Z</time>
      </trkpt>
      <trkpt lat="42.3707970" lon="-2.4862060">
        <ele>502.4</ele>
        <time>2020-02-09T12:52:27Z</time>
      </trkpt>
      <trkpt lat="42.3708720" lon="-2.4861660">
        <ele>502.3</ele>
        <time>2020-02-09T12:52:28Z</time>
      </trkpt>
      <trkpt lat="42.3709470" lon="-2.4861290">
        <ele>502.2</ele>
        <time>2020-02-09T12:52:29Z</time>
      </trkpt>
      <trkpt lat="42.3710270" lon="-2.4860960">
        <ele>502.0</ele>
        <time>2020-02-09T12:52:30Z</time>
      </trkpt>
      <trkpt lat="42.3711030" lon="-2.4860590">
        <ele>501.9</ele>
        <time>2020-02-09T12:52:31Z</time>
      </trkpt>
      <trkpt lat="42.3711780" lon="-2.4860270">
        <ele>501.8</ele>
        <time>2020-02-09T12:52:32Z</time>
      </trkpt>
      <trkpt lat="42.3712530" lon="-2.4859890">
        <ele>501.7</ele>
        <time>2020-02-09T12:52:33Z</time>
      </trkpt>
      <trkpt lat="42.3713280" lon="-2.4859520">
        <ele>501.6</ele>
        <time>2020-02-09T12:52:34Z</time>
      </trkpt>
      <trkpt lat="42.3714410" lon="-2.4858760">
        <ele>501.5</ele>
        <time>2020-02-09T12:52:35Z</time>
      </trkpt>
      <trkpt lat="42.3715230" lon="-2.4858280">
        <ele>501.4</ele>
        <time>2020-02-09T12:52:36Z</time>
      </trkpt>
      <trkpt lat="42.3716060" lon="-2.4857910">
        <ele>501.4</ele>
        <time>2020-02-09T12:52:37Z</time>
      </trkpt>
      <trkpt lat="42.3716900" lon="-2.4857420">
        <ele>501.3</ele>
        <time>2020-02-09T12:52:38Z</time>
      </trkpt>
      <trkpt lat="42.3717670" lon="-2.4856960">
        <ele>501.3</ele>
        <time>2020-02-09T12:52:39Z</time>
      </trkpt>
      <trkpt lat="42.3718480" lon="-2.4856600">
        <ele>501.3</ele>
        <time>2020-02-09T12:52:40Z</time>
      </trkpt>
      <trkpt lat="42.3719180" lon="-2.4856190">
        <ele>501.2</ele>
        <time>2020-02-09T12:52:41Z</time>
      </trkpt>
      <trkpt lat="42.3719890" lon="-2.4855870">
        <ele>501.2</ele>
        <time>2020-02-09T12:52:42Z</time>
      </trkpt>
      <trkpt lat="42.3720600" lon="-2.4855490">
        <ele>501.2</ele>
        <time>2020-02-09T12:52:43Z</time>
      </trkpt>
      <trkpt lat="42.3721290" lon="-2.4855090">
        <ele>501.2</ele>
        <time>2020-02-09T12:52:44Z</time>
      </trkpt>
      <trkpt lat="42.3722020" lon="-2.4854650">
        <ele>501.1</ele>
        <time>2020-02-09T12:52:45Z</time>
      </trkpt>
      <trkpt lat="42.3722710" lon="-2.4854270">
        <ele>501.1</ele>
        <time>2020-02-09T12:52:46Z</time>
      </trkpt>
      <trkpt lat="42.3723430" lon="-2.4853940">
        <ele>501.0</ele>
        <time>2020-02-09T12:52:47Z</time>
      </trkpt>
      <trkpt lat="42.3724150" lon="-2.4853620">
        <ele>501.0</ele>
        <time>2020-02-09T12:52:48Z</time>
      </trkpt>
      <trkpt lat="42.3724820" lon="-2.4853240">
        <ele>500.9</ele>
        <time>2020-02-09T12:52:49Z</time>
      </trkpt>
      <trkpt lat="42.3725550" lon="-2.4852800">
        <ele>500.8</ele>
        <time>2020-02-09T12:52:50Z</time>
      </trkpt>
      <trkpt lat="42.3726260" lon="-2.4852410">
        <ele>500.6</ele>
        <time>2020-02-09T12:52:51Z</time>
      </trkpt>
      <trkpt lat="42.3726960" lon="-2.4852010">
        <ele>500.5</ele>
        <time>2020-02-09T12:52:52Z</time>
      </trkpt>
      <trkpt lat="42.3727660" lon="-2.4851630">
        <ele>500.4</ele>
        <time>2020-02-09T12:52:53Z</time>
      </trkpt>
      <trkpt lat="42.3728350" lon="-2.4851260">
        <ele>500.3</ele>
        <time>2020-02-09T12:52:54Z</time>
      </trkpt>
      <trkpt lat="42.3729100" lon="-2.4850880">
        <ele>500.1</ele>
        <time>2020-02-09T12:52:55Z</time>
      </trkpt>
      <trkpt lat="42.3730340" lon="-2.4850770">
        <ele>499.9</ele>
        <time>2020-02-09T12:52:56Z</time>
      </trkpt>
      <trkpt lat="42.3731060" lon="-2.4850350">
        <ele>499.7</ele>
        <time>2020-02-09T12:52:57Z</time>
      </trkpt>
      <trkpt lat="42.3731800" lon="-2.4849890">
        <ele>499.5</ele>
        <time>2020-02-09T12:52:58Z</time>
      </trkpt>
      <trkpt lat="42.3732540" lon="-2.4849430">
        <ele>499.3</ele>
        <time>2020-02-09T12:52:59Z</time>
      </trkpt>
      <trkpt lat="42.3733290" lon="-2.4849000">
        <ele>499.1</ele>
        <time>2020-02-09T12:53:00Z</time>
      </trkpt>
      <trkpt lat="42.3733990" lon="-2.4848520">
        <ele>498.9</ele>
        <time>2020-02-09T12:53:01Z</time>
      </trkpt>
      <trkpt lat="42.3734740" lon="-2.4848090">
        <ele>498.7</ele>
        <time>2020-02-09T12:53:02Z</time>
      </trkpt>
      <trkpt lat="42.3735490" lon="-2.4847660">
        <ele>498.5</ele>
        <time>2020-02-09T12:53:03Z</time>
      </trkpt>
      <trkpt lat="42.3736240" lon="-2.4847180">
        <ele>498.4</ele>
        <time>2020-02-09T12:53:04Z</time>
      </trkpt>
      <trkpt lat="42.3736940" lon="-2.4846750">
        <ele>498.3</ele>
        <time>2020-02-09T12:53:05Z</time>
      </trkpt>
      <trkpt lat="42.3737690" lon="-2.4846270">
        <ele>498.3</ele>
        <time>2020-02-09T12:53:06Z</time>
      </trkpt>
      <trkpt lat="42.3738440" lon="-2.4845840">
        <ele>498.2</ele>
        <time>2020-02-09T12:53:07Z</time>
      </trkpt>
      <trkpt lat="42.3739140" lon="-2.4845410">
        <ele>498.2</ele>
        <time>2020-02-09T12:53:08Z</time>
      </trkpt>
      <trkpt lat="42.3739890" lon="-2.4844930">
        <ele>498.1</ele>
        <time>2020-02-09T12:53:09Z</time>
      </trkpt>
      <trkpt lat="42.3742350" lon="-2.4844010">
        <ele>498.0</ele>
        <time>2020-02-09T12:53:15Z</time>
      </trkpt>
      <trkpt lat="42.3743070" lon="-2.4843930">
        <ele>497.9</ele>
        <time>2020-02-09T12:53:16Z</time>
      </trkpt>
      <trkpt lat="42.3743690" lon="-2.4843600">
        <ele>497.8</ele>
        <time>2020-02-09T12:53:17Z</time>
      </trkpt>
      <trkpt lat="42.3744390" lon="-2.4843180">
        <ele>497.7</ele>
        <time>2020-02-09T12:53:18Z</time>
      </trkpt>
      <trkpt lat="42.3744930" lon="-2.4842830">
        <ele>497.6</ele>
        <time>2020-02-09T12:53:19Z</time>
      </trkpt>
      <trkpt lat="42.3745570" lon="-2.4842460">
        <ele>497.5</ele>
        <time>2020-02-09T12:53:20Z</time>
      </trkpt>
      <trkpt lat="42.3746220" lon="-2.4842080">
        <ele>497.4</ele>
        <time>2020-02-09T12:53:21Z</time>
      </trkpt>
      <trkpt lat="42.3746860" lon="-2.4841710">
        <ele>497.3</ele>
        <time>2020-02-09T12:53:22Z</time>
      </trkpt>
      <trkpt lat="42.3747500" lon="-2.4841330">
        <ele>497.2</ele>
        <time>2020-02-09T12:53:23Z</time>
      </trkpt>
      <trkpt lat="42.3748150" lon="-2.4840960">
        <ele>497.1</ele>
        <time>2020-02-09T12:53:24Z</time>
      </trkpt>
      <trkpt lat="42.3748790" lon="-2.4840580">
        <ele>497.0</ele>
        <time>2020-02-09T12:53:25Z</time>
      </trkpt>
      <trkpt lat="42.3749430" lon="-2.4840210">
        <ele>496.9</ele>
        <time>2020-02-09T12:53:26Z</time>
      </trkpt>
      <trkpt lat="42.3750680" lon="-2.4839700">
        <ele>496.6</ele>
        <time>2020-02-09T12:53:27Z</time>
      </trkpt>
      <trkpt lat="42.3751570" lon="-2.4839390">
        <ele>496.4</ele>
        <time>2020-02-09T12:53:28Z</time>
      </trkpt>
      <trkpt lat="42.3752300" lon="-2.4838960">
        <ele>496.2</ele>
        <time>2020-02-09T12:53:29Z</time>
      </trkpt>
      <trkpt lat="42.3753080" lon="-2.4838570">
        <ele>496.0</ele>
        <time>2020-02-09T12:53:30Z</time>
      </trkpt>
      <trkpt lat="42.3753840" lon="-2.4838190">
        <ele>495.9</ele>
        <time>2020-02-09T12:53:31Z</time>
      </trkpt>
      <trkpt lat="42.3754600" lon="-2.4837800">
        <ele>495.8</ele>
        <time>2020-02-09T12:53:32Z</time>
      </trkpt>
      <trkpt lat="42.3755360" lon="-2.4837400">
        <ele>495.6</ele>
        <time>2020-02-09T12:53:33Z</time>
      </trkpt>
      <trkpt lat="42.3755960" lon="-2.4836830">
        <ele>495.5</ele>
        <time>2020-02-09T12:53:34Z</time>
      </trkpt>
      <trkpt lat="42.3756710" lon="-2.4836460">
        <ele>495.4</ele>
        <time>2020-02-09T12:53:35Z</time>
      </trkpt>
      <trkpt lat="42.3757410" lon="-2.4836100">
        <ele>495.3</ele>
        <time>2020-02-09T12:53:36Z</time>
      </trkpt>
      <trkpt lat="42.3758180" lon="-2.4835750">
        <ele>495.2</ele>
        <time>2020-02-09T12:53:37Z</time>
      </trkpt>
      <trkpt lat="42.3758880" lon="-2.4835380">
        <ele>495.1</ele>
        <time>2020-02-09T12:53:38Z</time>
      </trkpt>
      <trkpt lat="42.3759570" lon="-2.4835060">
        <ele>495.0</ele>
        <time>2020-02-09T12:53:39Z</time>
      </trkpt>
      <trkpt lat="42.3760270" lon="-2.4834730">
        <ele>494.9</ele>
        <time>2020-02-09T12:53:40Z</time>
      </trkpt>
      <trkpt lat="42.3760970" lon="-2.4834360">
        <ele>494.8</ele>
        <time>2020-02-09T12:53:41Z</time>
      </trkpt>
      <trkpt lat="42.3761670" lon="-2.4834040">
        <ele>494.7</ele>
        <time>2020-02-09T12:53:42Z</time>
      </trkpt>
      <trkpt lat="42.3762360" lon="-2.4833710">
        <ele>494.5</ele>
        <time>2020-02-09T12:53:43Z</time>
      </trkpt>
      <trkpt lat="42.3763060" lon="-2.4833340">
        <ele>494.4</ele>
        <time>2020-02-09T12:53:44Z</time>
      </trkpt>
      <trkpt lat="42.3763760" lon="-2.4833020">
        <ele>494.2</ele>
        <time>2020-02-09T12:53:45Z</time>
      </trkpt>
      <trkpt lat="42.3764460" lon="-2.4832700">
        <ele>494.1</ele>
        <time>2020-02-09T12:53:46Z</time>
      </trkpt>
      <trkpt lat="42.3765210" lon="-2.4832320">
        <ele>494.0</ele>
        <time>2020-02-09T12:53:47Z</time>
      </trkpt>
      <trkpt lat="42.3766920" lon="-2.4830820">
        <ele>493.7</ele>
        <time>2020-02-09T12:53:49Z</time>
      </trkpt>
      <trkpt lat="42.3767670" lon="-2.4830410">
        <ele>493.5</ele>
        <time>2020-02-09T12:53:50Z</time>
      </trkpt>
      <trkpt lat="42.3768430" lon="-2.4829940">
        <ele>493.3</ele>
        <time>2020-02-09T12:53:51Z</time>
      </trkpt>
      <trkpt lat="42.3769340" lon="-2.4829420">
        <ele>493.2</ele>
        <time>2020-02-09T12:53:52Z</time>
      </trkpt>
      <trkpt lat="42.3770090" lon="-2.4828990">
        <ele>493.2</ele>
        <time>2020-02-09T12:53:53Z</time>
      </trkpt>
      <trkpt lat="42.3770840" lon="-2.4828570">
        <ele>493.1</ele>
        <time>2020-02-09T12:53:54Z</time>
      </trkpt>
      <trkpt lat="42.3771590" lon="-2.4828140">
        <ele>493.1</ele>
        <time>2020-02-09T12:53:55Z</time>
      </trkpt>
      <trkpt lat="42.3772390" lon="-2.4827770">
        <ele>493.1</ele>
        <time>2020-02-09T12:53:56Z</time>
      </trkpt>
      <trkpt lat="42.3773060" lon="-2.4827310">
        <ele>493.1</ele>
        <time>2020-02-09T12:53:57Z</time>
      </trkpt>
      <trkpt lat="42.3773910" lon="-2.4826930">
        <ele>493.1</ele>
        <time>2020-02-09T12:53:58Z</time>
      </trkpt>
      <trkpt lat="42.3774680" lon="-2.4826460">
        <ele>493.1</ele>
        <time>2020-02-09T12:53:59Z</time>
      </trkpt>
      <trkpt lat="42.3775450" lon="-2.4825950">
        <ele>493.1</ele>
        <time>2020-02-09T12:54:00Z</time>
      </trkpt>
      <trkpt lat="42.3776320" lon="-2.4825580">
        <ele>493.0</ele>
        <time>2020-02-09T12:54:01Z</time>
      </trkpt>
      <trkpt lat="42.3776880" lon="-2.4824910">
        <ele>492.8</ele>
        <time>2020-02-09T12:54:02Z</time>
      </trkpt>
      <trkpt lat="42.3777790" lon="-2.4824600">
        <ele>492.6</ele>
        <time>2020-02-09T12:54:03Z</time>
      </trkpt>
      <trkpt lat="42.3778770" lon="-2.4824250">
        <ele>492.4</ele>
        <time>2020-02-09T12:54:04Z</time>
      </trkpt>
      <trkpt lat="42.3779650" lon="-2.4823860">
        <ele>492.3</ele>
        <time>2020-02-09T12:54:05Z</time>
      </trkpt>
      <trkpt lat="42.3780450" lon="-2.4823450">
        <ele>492.2</ele>
        <time>2020-02-09T12:54:06Z</time>
      </trkpt>
      <trkpt lat="42.3781270" lon="-2.4823070">
        <ele>492.2</ele>
        <time>2020-02-09T12:54:07Z</time>
      </trkpt>
      <trkpt lat="42.3782070" lon="-2.4822610">
        <ele>492.2</ele>
        <time>2020-02-09T12:54:08Z</time>
      </trkpt>
      <trkpt lat="42.3782810" lon="-2.4822180">
        <ele>492.2</ele>
        <time>2020-02-09T12:54:09Z</time>
      </trkpt>
      <trkpt lat="42.3783600" lon="-2.4821770">
        <ele>492.2</ele>
        <time>2020-02-09T12:54:10Z</time>
      </trkpt>
      <trkpt lat="42.3784430" lon="-2.4821500">
        <ele>492.2</ele>
        <time>2020-02-09T12:54:11Z</time>
      </trkpt>
      <trkpt lat="42.3785220" lon="-2.4821170">
        <ele>492.2</ele>
        <time>2020-02-09T12:54:12Z</time>
      </trkpt>
      <trkpt lat="42.3786000" lon="-2.4820840">
        <ele>492.2</ele>
        <time>2020-02-09T12:54:13Z</time>
      </trkpt>
      <trkpt lat="42.3786770" lon="-2.4820520">
        <ele>492.2</ele>
        <time>2020-02-09T12:54:14Z</time>
      </trkpt>
      <trkpt lat="42.3787580" lon="-2.4820200">
        <ele>492.1</ele>
        <time>2020-02-09T12:54:15Z</time>
      </trkpt>
      <trkpt lat="42.3788330" lon="-2.4819820">
        <ele>492.1</ele>
        <time>2020-02-09T12:54:16Z</time>
      </trkpt>
      <trkpt lat="42.3789130" lon="-2.4819500">
        <ele>492.0</ele>
        <time>2020-02-09T12:54:17Z</time>
      </trkpt>
      <trkpt lat="42.3789850" lon="-2.4818620">
        <ele>491.8</ele>
        <time>2020-02-09T12:54:18Z</time>
      </trkpt>
      <trkpt lat="42.3790630" lon="-2.4818210">
        <ele>491.6</ele>
        <time>2020-02-09T12:54:19Z</time>
      </trkpt>
      <trkpt lat="42.3791390" lon="-2.4817780">
        <ele>491.5</ele>
        <time>2020-02-09T12:54:20Z</time>
      </trkpt>
      <trkpt lat="42.3792190" lon="-2.4817300">
        <ele>491.3</ele>
        <time>2020-02-09T12:54:21Z</time>
      </trkpt>
      <trkpt lat="42.3792940" lon="-2.4816870">
        <ele>491.1</ele>
        <time>2020-02-09T12:54:22Z</time>
      </trkpt>
      <trkpt lat="42.3793690" lon="-2.4816440">
        <ele>490.9</ele>
        <time>2020-02-09T12:54:23Z</time>
      </trkpt>
      <trkpt lat="42.3794440" lon="-2.4815960">
        <ele>490.8</ele>
        <time>2020-02-09T12:54:24Z</time>
      </trkpt>
      <trkpt lat="42.3795190" lon="-2.4815530">
        <ele>490.6</ele>
        <time>2020-02-09T12:54:25Z</time>
      </trkpt>
      <trkpt lat="42.3796000" lon="-2.4815100">
        <ele>490.4</ele>
        <time>2020-02-09T12:54:26Z</time>
      </trkpt>
      <trkpt lat="42.3796750" lon="-2.4814670">
        <ele>490.2</ele>
        <time>2020-02-09T12:54:27Z</time>
      </trkpt>
      <trkpt lat="42.3797500" lon="-2.4814240">
        <ele>490.0</ele>
        <time>2020-02-09T12:54:28Z</time>
      </trkpt>
      <trkpt lat="42.3798250" lon="-2.4813810">
        <ele>489.8</ele>
        <time>2020-02-09T12:54:29Z</time>
      </trkpt>
      <trkpt lat="42.3799000" lon="-2.4813380">
        <ele>489.7</ele>
        <time>2020-02-09T12:54:30Z</time>
      </trkpt>
      <trkpt lat="42.3799750" lon="-2.4812950">
        <ele>489.5</ele>
        <time>2020-02-09T12:54:31Z</time>
      </trkpt>
      <trkpt lat="42.3804690" lon="-2.4810540">
        <ele>488.8</ele>
        <time>2020-02-09T12:54:38Z</time>
      </trkpt>
      <trkpt lat="42.3805390" lon="-2.4810140">
        <ele>488.8</ele>
        <time>2020-02-09T12:54:39Z</time>
      </trkpt>
      <trkpt lat="42.3806060" lon="-2.4809830">
        <ele>488.8</ele>
        <time>2020-02-09T12:54:40Z</time>
      </trkpt>
      <trkpt lat="42.3806830" lon="-2.4809410">
        <ele>488.7</ele>
        <time>2020-02-09T12:54:41Z</time>
      </trkpt>
      <trkpt lat="42.3807530" lon="-2.4809040">
        <ele>488.6</ele>
        <time>2020-02-09T12:54:42Z</time>
      </trkpt>
      <trkpt lat="42.3808280" lon="-2.4808660">
        <ele>488.5</ele>
        <time>2020-02-09T12:54:43Z</time>
      </trkpt>
      <trkpt lat="42.3809030" lon="-2.4808290">
        <ele>488.3</ele>
        <time>2020-02-09T12:54:44Z</time>
      </trkpt>
      <trkpt lat="42.3809730" lon="-2.4807860">
        <ele>488.2</ele>
        <time>2020-02-09T12:54:45Z</time>
      </trkpt>
      <trkpt lat="42.3810480" lon="-2.4807480">
        <ele>488.1</ele>
        <time>2020-02-09T12:54:46Z</time>
      </trkpt>
      <trkpt lat="42.3811180" lon="-2.4807110">
        <ele>488.1</ele>
        <time>2020-02-09T12:54:47Z</time>
      </trkpt>
      <trkpt lat="42.3811930" lon="-2.4806680">
        <ele>488.1</ele>
        <time>2020-02-09T12:54:48Z</time>
      </trkpt>
      <trkpt lat="42.3812680" lon="-2.4806300">
        <ele>488.1</ele>
        <time>2020-02-09T12:54:49Z</time>
      </trkpt>
      <trkpt lat="42.3813490" lon="-2.4805820">
        <ele>488.1</ele>
        <time>2020-02-09T12:54:50Z</time>
      </trkpt>
      <trkpt lat="42.3814190" lon="-2.4805440">
        <ele>488.0</ele>
        <time>2020-02-09T12:54:51Z</time>
      </trkpt>
      <trkpt lat="42.3814860" lon="-2.4805160">
        <ele>488.0</ele>
        <time>2020-02-09T12:54:52Z</time>
      </trkpt>
      <trkpt lat="42.3815520" lon="-2.4804800">
        <ele>488.0</ele>
        <time>2020-02-09T12:54:53Z</time>
      </trkpt>
      <trkpt lat="42.3816220" lon="-2.4804310">
        <ele>487.9</ele>
        <time>2020-02-09T12:54:54Z</time>
      </trkpt>
      <trkpt lat="42.3816890" lon="-2.4803950">
        <ele>487.8</ele>
        <time>2020-02-09T12:54:55Z</time>
      </trkpt>
      <trkpt lat="42.3817620" lon="-2.4803620">
        <ele>487.7</ele>
        <time>2020-02-09T12:54:56Z</time>
      </trkpt>
      <trkpt lat="42.3818330" lon="-2.4803210">
        <ele>487.5</ele>
        <time>2020-02-09T12:54:57Z</time>
      </trkpt>
      <trkpt lat="42.3819010" lon="-2.4802870">
        <ele>487.4</ele>
        <time>2020-02-09T12:54:58Z</time>
      </trkpt>
      <trkpt lat="42.3819760" lon="-2.4802500">
        <ele>487.3</ele>
        <time>2020-02-09T12:54:59Z</time>
      </trkpt>
      <trkpt lat="42.3820460" lon="-2.4802170">
        <ele>487.3</ele>
        <time>2020-02-09T12:55:00Z</time>
      </trkpt>
      <trkpt lat="42.3821190" lon="-2.4801790">
        <ele>487.2</ele>
        <time>2020-02-09T12:55:01Z</time>
      </trkpt>
      <trkpt lat="42.3821920" lon="-2.4801420">
        <ele>487.1</ele>
        <time>2020-02-09T12:55:02Z</time>
      </trkpt>
      <trkpt lat="42.3822660" lon="-2.4801050">
        <ele>487.0</ele>
        <time>2020-02-09T12:55:03Z</time>
      </trkpt>
      <trkpt lat="42.3823360" lon="-2.4800670">
        <ele>486.9</ele>
        <time>2020-02-09T12:55:04Z</time>
      </trkpt>
      <trkpt lat="42.3824110" lon="-2.4800290">
        <ele>486.8</ele>
        <time>2020-02-09T12:55:05Z</time>
      </trkpt>
      <trkpt lat="42.3825410" lon="-2.4799410">
        <ele>486.6</ele>
        <time>2020-02-09T12:55:06Z</time>
      </trkpt>
      <trkpt lat="42.3826020" lon="-2.4799330">
        <ele>486.6</ele>
        <time>2020-02-09T12:55:07Z</time>
      </trkpt>
      <trkpt lat="42.3826510" lon="-2.4798970">
        <ele>486.5</ele>
        <time>2020-02-09T12:55:08Z</time>
      </trkpt>
      <trkpt lat="42.3827220" lon="-2.4798580">
        <ele>486.4</ele>
        <time>2020-02-09T12:55:09Z</time>
      </trkpt>
      <trkpt lat="42.3828030" lon="-2.4798220">
        <ele>486.2</ele>
        <time>2020-02-09T12:55:10Z</time>
      </trkpt>
      <trkpt lat="42.3828750" lon="-2.4797970">
        <ele>486.1</ele>
        <time>2020-02-09T12:55:11Z</time>
      </trkpt>
      <trkpt lat="42.3829490" lon="-2.4797550">
        <ele>486.0</ele>
        <time>2020-02-09T12:55:12Z</time>
      </trkpt>
      <trkpt lat="42.3830180" lon="-2.4797140">
        <ele>485.9</ele>
        <time>2020-02-09T12:55:13Z</time>
      </trkpt>
      <trkpt lat="42.3830920" lon="-2.4796810">
        <ele>485.7</ele>
        <time>2020-02-09T12:55:14Z</time>
      </trkpt>
      <trkpt lat="42.3831650" lon="-2.4796370">
        <ele>485.6</ele>
        <time>2020-02-09T12:55:15Z</time>
      </trkpt>
      <trkpt lat="42.3832360" lon="-2.4796010">
        <ele>485.5</ele>
        <time>2020-02-09T12:55:16Z</time>
      </trkpt>
      <trkpt lat="42.3833100" lon="-2.4795620">
        <ele>485.3</ele>
        <time>2020-02-09T12:55:17Z</time>
      </trkpt>
      <trkpt lat="42.3833830" lon="-2.4795160">
        <ele>485.1</ele>
        <time>2020-02-09T12:55:18Z</time>
      </trkpt>
      <trkpt lat="42.3834530" lon="-2.4794780">
        <ele>485.0</ele>
        <time>2020-02-09T12:55:19Z</time>
      </trkpt>
      <trkpt lat="42.3835210" lon="-2.4794390">
        <ele>484.8</ele>
        <time>2020-02-09T12:55:20Z</time>
      </trkpt>
      <trkpt lat="42.3835910" lon="-2.4794020">
        <ele>484.7</ele>
        <time>2020-02-09T12:55:21Z</time>
      </trkpt>
      <trkpt lat="42.3836660" lon="-2.4793640">
        <ele>484.6</ele>
        <time>2020-02-09T12:55:22Z</time>
      </trkpt>
      <trkpt lat="42.3837360" lon="-2.4793210">
        <ele>484.4</ele>
        <time>2020-02-09T12:55:23Z</time>
      </trkpt>
      <trkpt lat="42.3837840" lon="-2.4792980">
        <ele>484.3</ele>
        <time>2020-02-09T12:55:24Z</time>
      </trkpt>
      <trkpt lat="42.3838560" lon="-2.4792640">
        <ele>484.2</ele>
        <time>2020-02-09T12:55:25Z</time>
      </trkpt>
      <trkpt lat="42.3839240" lon="-2.4792280">
        <ele>484.1</ele>
        <time>2020-02-09T12:55:26Z</time>
      </trkpt>
      <trkpt lat="42.3839930" lon="-2.4791930">
        <ele>484.0</ele>
        <time>2020-02-09T12:55:27Z</time>
      </trkpt>
      <trkpt lat="42.3840630" lon="-2.4791550">
        <ele>484.0</ele>
        <time>2020-02-09T12:55:28Z</time>
      </trkpt>
      <trkpt lat="42.3841270" lon="-2.4791230">
        <ele>483.9</ele>
        <time>2020-02-09T12:55:29Z</time>
      </trkpt>
      <trkpt lat="42.3841970" lon="-2.4790850">
        <ele>483.8</ele>
        <time>2020-02-09T12:55:30Z</time>
      </trkpt>
      <trkpt lat="42.3842670" lon="-2.4790480">
        <ele>483.7</ele>
        <time>2020-02-09T12:55:31Z</time>
      </trkpt>
      <trkpt lat="42.3843370" lon="-2.4790160">
        <ele>483.6</ele>
        <time>2020-02-09T12:55:32Z</time>
      </trkpt>
      <trkpt lat="42.3844000" lon="-2.4789880">
        <ele>483.5</ele>
        <time>2020-02-09T12:55:33Z</time>
      </trkpt>
      <trkpt lat="42.3844740" lon="-2.4789250">
        <ele>483.3</ele>
        <time>2020-02-09T12:55:34Z</time>
      </trkpt>
      <trkpt lat="42.3845570" lon="-2.4788900">
        <ele>483.2</ele>
        <time>2020-02-09T12:55:35Z</time>
      </trkpt>
      <trkpt lat="42.3846320" lon="-2.4788490">
        <ele>483.0</ele>
        <time>2020-02-09T12:55:36Z</time>
      </trkpt>
      <trkpt lat="42.3847040" lon="-2.4788190">
        <ele>482.9</ele>
        <time>2020-02-09T12:55:37Z</time>
      </trkpt>
      <trkpt lat="42.3847710" lon="-2.4787700">
        <ele>482.7</ele>
        <time>2020-02-09T12:55:38Z</time>
      </trkpt>
      <trkpt lat="42.3848480" lon="-2.4787340">
        <ele>482.6</ele>
        <time>2020-02-09T12:55:39Z</time>
      </trkpt>
      <trkpt lat="42.3849170" lon="-2.4787010">
        <ele>482.4</ele>
        <time>2020-02-09T12:55:40Z</time>
      </trkpt>
      <trkpt lat="42.3849910" lon="-2.4786620">
        <ele>482.3</ele>
        <time>2020-02-09T12:55:41Z</time>
      </trkpt>
      <trkpt lat="42.3850660" lon="-2.4786250">
        <ele>482.2</ele>
        <time>2020-02-09T12:55:42Z</time>
      </trkpt>
      <trkpt lat="42.3851430" lon="-2.4785880">
        <ele>482.1</ele>
        <time>2020-02-09T12:55:43Z</time>
      </trkpt>
      <trkpt lat="42.3852140" lon="-2.4785490">
        <ele>482.0</ele>
        <time>2020-02-09T12:55:44Z</time>
      </trkpt>
      <trkpt lat="42.3852850" lon="-2.4785090">
        <ele>481.9</ele>
        <time>2020-02-09T12:55:45Z</time>
      </trkpt>
      <trkpt lat="42.3853560" lon="-2.4784680">
        <ele>481.8</ele>
        <time>2020-02-09T12:55:46Z</time>
      </trkpt>
      <trkpt lat="42.3854260" lon="-2.4784310">
        <ele>481.6</ele>
        <time>2020-02-09T12:55:47Z</time>
      </trkpt>
      <trkpt lat="42.3855010" lon="-2.4783930">
        <ele>481.5</ele>
        <time>2020-02-09T12:55:48Z</time>
      </trkpt>
      <trkpt lat="42.3855700" lon="-2.4783560">
        <ele>481.4</ele>
        <time>2020-02-09T12:55:49Z</time>
      </trkpt>
      <trkpt lat="42.3856160" lon="-2.4783130">
        <ele>481.3</ele>
        <time>2020-02-09T12:55:50Z</time>
      </trkpt>
      <trkpt lat="42.3856850" lon="-2.4782750">
        <ele>481.2</ele>
        <time>2020-02-09T12:55:51Z</time>
      </trkpt>
      <trkpt lat="42.3857550" lon="-2.4782350">
        <ele>481.0</ele>
        <time>2020-02-09T12:55:52Z</time>
      </trkpt>
      <trkpt lat="42.3858280" lon="-2.4781950">
        <ele>480.9</ele>
        <time>2020-02-09T12:55:53Z</time>
      </trkpt>
      <trkpt lat="42.3858980" lon="-2.4781520">
        <ele>480.8</ele>
        <time>2020-02-09T12:55:54Z</time>
      </trkpt>
      <trkpt lat="42.3859670" lon="-2.4781140">
        <ele>480.7</ele>
        <time>2020-02-09T12:55:55Z</time>
      </trkpt>
      <trkpt lat="42.3860380" lon="-2.4780870">
        <ele>480.5</ele>
        <time>2020-02-09T12:55:56Z</time>
      </trkpt>
      <trkpt lat="42.3861070" lon="-2.4780660">
        <ele>480.4</ele>
        <time>2020-02-09T12:55:57Z</time>
      </trkpt>
      <trkpt lat="42.3861620" lon="-2.4780390">
        <ele>480.3</ele>
        <time>2020-02-09T12:55:58Z</time>
      </trkpt>
      <trkpt lat="42.3862230" lon="-2.4780070">
        <ele>480.2</ele>
        <time>2020-02-09T12:55:59Z</time>
      </trkpt>
      <trkpt lat="42.3862860" lon="-2.4779670">
        <ele>480.1</ele>
        <time>2020-02-09T12:56:00Z</time>
      </trkpt>
      <trkpt lat="42.3863600" lon="-2.4779290">
        <ele>480.0</ele>
        <time>2020-02-09T12:56:01Z</time>
      </trkpt>
      <trkpt lat="42.3864290" lon="-2.4778940">
        <ele>479.8</ele>
        <time>2020-02-09T12:56:02Z</time>
      </trkpt>
      <trkpt lat="42.3865000" lon="-2.4778570">
        <ele>479.7</ele>
        <time>2020-02-09T12:56:03Z</time>
      </trkpt>
      <trkpt lat="42.3865690" lon="-2.4778230">
        <ele>479.6</ele>
        <time>2020-02-09T12:56:04Z</time>
      </trkpt>
      <trkpt lat="42.3866420" lon="-2.4777850">
        <ele>479.5</ele>
        <time>2020-02-09T12:56:05Z</time>
      </trkpt>
      <trkpt lat="42.3867100" lon="-2.4777490">
        <ele>479.3</ele>
        <time>2020-02-09T12:56:06Z</time>
      </trkpt>
      <trkpt lat="42.3867790" lon="-2.4777130">
        <ele>479.2</ele>
        <time>2020-02-09T12:56:07Z</time>
      </trkpt>
      <trkpt lat="42.3868470" lon="-2.4776800">
        <ele>479.1</ele>
        <time>2020-02-09T12:56:08Z</time>
      </trkpt>
      <trkpt lat="42.3869170" lon="-2.4776420">
        <ele>478.9</ele>
        <time>2020-02-09T12:56:09Z</time>
      </trkpt>
      <trkpt lat="42.3869700" lon="-2.4776210">
        <ele>478.8</ele>
        <time>2020-02-09T12:56:10Z</time>
      </trkpt>
      <trkpt lat="42.3870420" lon="-2.4775810">
        <ele>478.6</ele>
        <time>2020-02-09T12:56:11Z</time>
      </trkpt>
      <trkpt lat="42.3871100" lon="-2.4775510">
        <ele>478.4</ele>
        <time>2020-02-09T12:56:12Z</time>
      </trkpt>
      <trkpt lat="42.3871800" lon="-2.4775190">
        <ele>478.3</ele>
        <time>2020-02-09T12:56:13Z</time>
      </trkpt>
      <trkpt lat="42.3872490" lon="-2.4774870">
        <ele>478.2</ele>
        <time>2020-02-09T12:56:14Z</time>
      </trkpt>
      <trkpt lat="42.3873140" lon="-2.4774490">
        <ele>478.1</ele>
        <time>2020-02-09T12:56:15Z</time>
      </trkpt>
      <trkpt lat="42.3873840" lon="-2.4774170">
        <ele>478.0</ele>
        <time>2020-02-09T12:56:16Z</time>
      </trkpt>
      <trkpt lat="42.3874390" lon="-2.4773500">
        <ele>477.9</ele>
        <time>2020-02-09T12:56:17Z</time>
      </trkpt>
      <trkpt lat="42.3875120" lon="-2.4772990">
        <ele>477.8</ele>
        <time>2020-02-09T12:56:18Z</time>
      </trkpt>
      <trkpt lat="42.3875840" lon="-2.4772650">
        <ele>477.7</ele>
        <time>2020-02-09T12:56:19Z</time>
      </trkpt>
      <trkpt lat="42.3876660" lon="-2.4772270">
        <ele>477.6</ele>
        <time>2020-02-09T12:56:20Z</time>
      </trkpt>
      <trkpt lat="42.3877380" lon="-2.4771880">
        <ele>477.5</ele>
        <time>2020-02-09T12:56:21Z</time>
      </trkpt>
      <trkpt lat="42.3877840" lon="-2.4771310">
        <ele>477.4</ele>
        <time>2020-02-09T12:56:22Z</time>
      </trkpt>
      <trkpt lat="42.3878680" lon="-2.4770810">
        <ele>477.3</ele>
        <time>2020-02-09T12:56:23Z</time>
      </trkpt>
      <trkpt lat="42.3879600" lon="-2.4770710">
        <ele>477.1</ele>
        <time>2020-02-09T12:56:24Z</time>
      </trkpt>
      <trkpt lat="42.3880060" lon="-2.4770100">
        <ele>477.0</ele>
        <time>2020-02-09T12:56:25Z</time>
      </trkpt>
      <trkpt lat="42.3880810" lon="-2.4769730">
        <ele>476.9</ele>
        <time>2020-02-09T12:56:26Z</time>
      </trkpt>
      <trkpt lat="42.3881690" lon="-2.4769480">
        <ele>476.7</ele>
        <time>2020-02-09T12:56:27Z</time>
      </trkpt>
      <trkpt lat="42.3882590" lon="-2.4769220">
        <ele>476.6</ele>
        <time>2020-02-09T12:56:28Z</time>
      </trkpt>
      <trkpt lat="42.3883290" lon="-2.4769680">
        <ele>476.5</ele>
        <time>2020-02-09T12:56:29Z</time>
      </trkpt>
      <trkpt lat="42.3883930" lon="-2.4769510">
        <ele>476.4</ele>
        <time>2020-02-09T12:56:30Z</time>
      </trkpt>
      <trkpt lat="42.3884620" lon="-2.4768320">
        <ele>476.2</ele>
        <time>2020-02-09T12:56:31Z</time>
      </trkpt>
      <trkpt lat="42.3885290" lon="-2.4767950">
        <ele>476.1</ele>
        <time>2020-02-09T12:56:32Z</time>
      </trkpt>
      <trkpt lat="42.3885940" lon="-2.4767550">
        <ele>476.0</ele>
        <time>2020-02-09T12:56:33Z</time>
      </trkpt>
      <trkpt lat="42.3886660" lon="-2.4767140">
        <ele>476.0</ele>
        <time>2020-02-09T12:56:34Z</time>
      </trkpt>
      <trkpt lat="42.3887410" lon="-2.4766710">
        <ele>475.9</ele>
        <time>2020-02-09T12:56:35Z</time>
      </trkpt>
      <trkpt lat="42.3887290" lon="-2.4766130">
        <ele>475.8</ele>
        <time>2020-02-09T12:56:36Z</time>
      </trkpt>
      <trkpt lat="42.3888540" lon="-2.4765920">
        <ele>475.6</ele>
        <time>2020-02-09T12:56:37Z</time>
      </trkpt>
      <trkpt lat="42.3889200" lon="-2.4765490">
        <ele>475.5</ele>
        <time>2020-02-09T12:56:38Z</time>
      </trkpt>
      <trkpt lat="42.3889800" lon="-2.4765110">
        <ele>475.4</ele>
        <time>2020-02-09T12:56:39Z</time>
      </trkpt>
      <trkpt lat="42.3890520" lon="-2.4764730">
        <ele>475.3</ele>
        <time>2020-02-09T12:56:40Z</time>
      </trkpt>
      <trkpt lat="42.3891160" lon="-2.4764350">
        <ele>475.1</ele>
        <time>2020-02-09T12:56:41Z</time>
      </trkpt>
      <trkpt lat="42.3891860" lon="-2.4763920">
        <ele>474.9</ele>
        <time>2020-02-09T12:56:42Z</time>
      </trkpt>
      <trkpt lat="42.3892560" lon="-2.4763550">
        <ele>474.8</ele>
        <time>2020-02-09T12:56:43Z</time>
      </trkpt>
      <trkpt lat="42.3893250" lon="-2.4763120">
        <ele>474.6</ele>
        <time>2020-02-09T12:56:44Z</time>
      </trkpt>
      <trkpt lat="42.3893950" lon="-2.4762740">
        <ele>474.5</ele>
        <time>2020-02-09T12:56:45Z</time>
      </trkpt>
      <trkpt lat="42.3894600" lon="-2.4762310">
        <ele>474.2</ele>
        <time>2020-02-09T12:56:46Z</time>
      </trkpt>
      <trkpt lat="42.3895290" lon="-2.4761940">
        <ele>474.0</ele>
        <time>2020-02-09T12:56:47Z</time>
      </trkpt>
      <trkpt lat="42.3895940" lon="-2.4760810">
        <ele>473.8</ele>
        <time>2020-02-09T12:56:48Z</time>
      </trkpt>
      <trkpt lat="42.3896510" lon="-2.4760250">
        <ele>473.7</ele>
        <time>2020-02-09T12:56:49Z</time>
      </trkpt>
      <trkpt lat="42.3897250" lon="-2.4759840">
        <ele>473.6</ele>
        <time>2020-02-09T12:56:50Z</time>
      </trkpt>
      <trkpt lat="42.3897950" lon="-2.4759350">
        <ele>473.4</ele>
        <time>2020-02-09T12:56:51Z</time>
      </trkpt>
      <trkpt lat="42.3898650" lon="-2.4758860">
        <ele>473.2</ele>
        <time>2020-02-09T12:56:52Z</time>
      </trkpt>
      <trkpt lat="42.3899270" lon="-2.4758440">
        <ele>473.0</ele>
        <time>2020-02-09T12:56:53Z</time>
      </trkpt>
      <trkpt lat="42.3901810" lon="-2.4758290">
        <ele>472.4</ele>
        <time>2020-02-09T12:56:55Z</time>
      </trkpt>
      <trkpt lat="42.3902530" lon="-2.4757750">
        <ele>472.2</ele>
        <time>2020-02-09T12:56:56Z</time>
      </trkpt>
      <trkpt lat="42.3903340" lon="-2.4757220">
        <ele>472.0</ele>
        <time>2020-02-09T12:56:57Z</time>
      </trkpt>
      <trkpt lat="42.3904090" lon="-2.4756740">
        <ele>471.8</ele>
        <time>2020-02-09T12:56:58Z</time>
      </trkpt>
      <trkpt lat="42.3904840" lon="-2.4756250">
        <ele>471.5</ele>
        <time>2020-02-09T12:56:59Z</time>
      </trkpt>
      <trkpt lat="42.3905590" lon="-2.4755820">
        <ele>471.4</ele>
        <time>2020-02-09T12:57:00Z</time>
      </trkpt>
      <trkpt lat="42.3906340" lon="-2.4755340">
        <ele>471.3</ele>
        <time>2020-02-09T12:57:01Z</time>
      </trkpt>
      <trkpt lat="42.3907100" lon="-2.4754860">
        <ele>471.2</ele>
        <time>2020-02-09T12:57:02Z</time>
      </trkpt>
      <trkpt lat="42.3907850" lon="-2.4754380">
        <ele>471.2</ele>
        <time>2020-02-09T12:57:03Z</time>
      </trkpt>
      <trkpt lat="42.3908600" lon="-2.4753890">
        <ele>471.2</ele>
        <time>2020-02-09T12:57:04Z</time>
      </trkpt>
      <trkpt lat="42.3909350" lon="-2.4753410">
        <ele>471.2</ele>
        <time>2020-02-09T12:57:05Z</time>
      </trkpt>
      <trkpt lat="42.3910100" lon="-2.4752980">
        <ele>471.2</ele>
        <time>2020-02-09T12:57:06Z</time>
      </trkpt>
      <trkpt lat="42.3910850" lon="-2.4752500">
        <ele>471.3</ele>
        <time>2020-02-09T12:57:07Z</time>
      </trkpt>
      <trkpt lat="42.3912620" lon="-2.4752010">
        <ele>471.2</ele>
        <time>2020-02-09T12:57:10Z</time>
      </trkpt>
      <trkpt lat="42.3913320" lon="-2.4751590">
        <ele>471.1</ele>
        <time>2020-02-09T12:57:11Z</time>
      </trkpt>
      <trkpt lat="42.3914030" lon="-2.4751200">
        <ele>471.0</ele>
        <time>2020-02-09T12:57:12Z</time>
      </trkpt>
      <trkpt lat="42.3914760" lon="-2.4751450">
        <ele>470.8</ele>
        <time>2020-02-09T12:57:13Z</time>
      </trkpt>
      <trkpt lat="42.3915620" lon="-2.4751430">
        <ele>470.6</ele>
        <time>2020-02-09T12:57:14Z</time>
      </trkpt>
      <trkpt lat="42.3916270" lon="-2.4750830">
        <ele>470.5</ele>
        <time>2020-02-09T12:57:15Z</time>
      </trkpt>
      <trkpt lat="42.3917010" lon="-2.4750450">
        <ele>470.4</ele>
        <time>2020-02-09T12:57:16Z</time>
      </trkpt>
      <trkpt lat="42.3917740" lon="-2.4749890">
        <ele>470.4</ele>
        <time>2020-02-09T12:57:17Z</time>
      </trkpt>
      <trkpt lat="42.3918530" lon="-2.4749460">
        <ele>470.4</ele>
        <time>2020-02-09T12:57:18Z</time>
      </trkpt>
      <trkpt lat="42.3919230" lon="-2.4749070">
        <ele>470.3</ele>
        <time>2020-02-09T12:57:19Z</time>
      </trkpt>
      <trkpt lat="42.3919920" lon="-2.4748750">
        <ele>470.0</ele>
        <time>2020-02-09T12:57:20Z</time>
      </trkpt>
      <trkpt lat="42.3920630" lon="-2.4748400">
        <ele>469.7</ele>
        <time>2020-02-09T12:57:21Z</time>
      </trkpt>
      <trkpt lat="42.3921360" lon="-2.4748070">
        <ele>469.5</ele>
        <time>2020-02-09T12:57:22Z</time>
      </trkpt>
      <trkpt lat="42.3921950" lon="-2.4747670">
        <ele>469.3</ele>
        <time>2020-02-09T12:57:23Z</time>
      </trkpt>
      <trkpt lat="42.3922620" lon="-2.4747230">
        <ele>469.1</ele>
        <time>2020-02-09T12:57:24Z</time>
      </trkpt>
      <trkpt lat="42.3923200" lon="-2.4746830">
        <ele>468.8</ele>
        <time>2020-02-09T12:57:25Z</time>
      </trkpt>
      <trkpt lat="42.3923780" lon="-2.4746440">
        <ele>468.5</ele>
        <time>2020-02-09T12:57:26Z</time>
      </trkpt>
      <trkpt lat="42.3924240" lon="-2.4745990">
        <ele>468.3</ele>
        <time>2020-02-09T12:57:27Z</time>
      </trkpt>
      <trkpt lat="42.3924680" lon="-2.4745610">
        <ele>468.1</ele>
        <time>2020-02-09T12:57:28Z</time>
      </trkpt>
      <trkpt lat="42.3925010" lon="-2.4745240">
        <ele>468.0</ele>
        <time>2020-02-09T12:57:29Z</time>
      </trkpt>
      <trkpt lat="42.3925160" lon="-2.4744760">
        <ele>467.9</ele>
        <time>2020-02-09T12:57:30Z</time>
      </trkpt>
      <trkpt lat="42.3925460" lon="-2.4744290">
        <ele>467.9</ele>
        <time>2020-02-09T12:57:31Z</time>
      </trkpt>
      <trkpt lat="42.3925860" lon="-2.4743870">
        <ele>467.9</ele>
        <time>2020-02-09T12:57:32Z</time>
      </trkpt>
      <trkpt lat="42.3926290" lon="-2.4743670">
        <ele>467.9</ele>
        <time>2020-02-09T12:57:33Z</time>
      </trkpt>
      <trkpt lat="42.3927080" lon="-2.4743730">
        <ele>468.0</ele>
        <time>2020-02-09T12:57:34Z</time>
      </trkpt>
      <trkpt lat="42.3927730" lon="-2.4743750">
        <ele>468.1</ele>
        <time>2020-02-09T12:57:35Z</time>
      </trkpt>
      <trkpt lat="42.3928150" lon="-2.4743930">
        <ele>468.2</ele>
        <time>2020-02-09T12:57:36Z</time>
      </trkpt>
      <trkpt lat="42.3928720" lon="-2.4743910">
        <ele>468.3</ele>
        <time>2020-02-09T12:57:37Z</time>
      </trkpt>
      <trkpt lat="42.3929350" lon="-2.4743770">
        <ele>468.4</ele>
        <time>2020-02-09T12:57:38Z</time>
      </trkpt>
      <trkpt lat="42.3929890" lon="-2.4743380">
        <ele>468.6</ele>
        <time>2020-02-09T12:57:39Z</time>
      </trkpt>
      <trkpt lat="42.3930500" lon="-2.4742990">
        <ele>468.8</ele>
        <time>2020-02-09T12:57:40Z</time>
      </trkpt>
      <trkpt lat="42.3931200" lon="-2.4742700">
        <ele>468.9</ele>
        <time>2020-02-09T12:57:41Z</time>
      </trkpt>
      <trkpt lat="42.3931810" lon="-2.4742380">
        <ele>469.1</ele>
        <time>2020-02-09T12:57:42Z</time>
      </trkpt>
      <trkpt lat="42.3932380" lon="-2.4742030">
        <ele>469.1</ele>
        <time>2020-02-09T12:57:43Z</time>
      </trkpt>
      <trkpt lat="42.3932940" lon="-2.4741760">
        <ele>469.2</ele>
        <time>2020-02-09T12:57:44Z</time>
      </trkpt>
      <trkpt lat="42.3933510" lon="-2.4741380">
        <ele>469.3</ele>
        <time>2020-02-09T12:57:45Z</time>
      </trkpt>
      <trkpt lat="42.3934110" lon="-2.4741130">
        <ele>469.4</ele>
        <time>2020-02-09T12:57:46Z</time>
      </trkpt>
      <trkpt lat="42.3934630" lon="-2.4740800">
        <ele>469.5</ele>
        <time>2020-02-09T12:57:47Z</time>
      </trkpt>
      <trkpt lat="42.3935270" lon="-2.4740440">
        <ele>469.7</ele>
        <time>2020-02-09T12:57:48Z</time>
      </trkpt>
      <trkpt lat="42.3935900" lon="-2.4740160">
        <ele>469.9</ele>
        <time>2020-02-09T12:57:49Z</time>
      </trkpt>
      <trkpt lat="42.3936490" lon="-2.4739910">
        <ele>470.0</ele>
        <time>2020-02-09T12:57:50Z</time>
      </trkpt>
      <trkpt lat="42.3937120" lon="-2.4739610">
        <ele>470.1</ele>
        <time>2020-02-09T12:57:51Z</time>
      </trkpt>
      <trkpt lat="42.3937760" lon="-2.4739170">
        <ele>470.2</ele>
        <time>2020-02-09T12:57:52Z</time>
      </trkpt>
      <trkpt lat="42.3938470" lon="-2.4738840">
        <ele>470.2</ele>
        <time>2020-02-09T12:57:53Z</time>
      </trkpt>
      <trkpt lat="42.3939120" lon="-2.4738440">
        <ele>470.3</ele>
        <time>2020-02-09T12:57:54Z</time>
      </trkpt>
      <trkpt lat="42.3939820" lon="-2.4737990">
        <ele>470.3</ele>
        <time>2020-02-09T12:57:55Z</time>
      </trkpt>
      <trkpt lat="42.3940530" lon="-2.4737680">
        <ele>470.3</ele>
        <time>2020-02-09T12:57:56Z</time>
      </trkpt>
      <trkpt lat="42.3941270" lon="-2.4737300">
        <ele>470.3</ele>
        <time>2020-02-09T12:57:57Z</time>
      </trkpt>
      <trkpt lat="42.3942020" lon="-2.4736960">
        <ele>470.3</ele>
        <time>2020-02-09T12:57:58Z</time>
      </trkpt>
      <trkpt lat="42.3942770" lon="-2.4736640">
        <ele>470.3</ele>
        <time>2020-02-09T12:57:59Z</time>
      </trkpt>
      <trkpt lat="42.3943450" lon="-2.4736220">
        <ele>470.3</ele>
        <time>2020-02-09T12:58:00Z</time>
      </trkpt>
      <trkpt lat="42.3944260" lon="-2.4735840">
        <ele>470.3</ele>
        <time>2020-02-09T12:58:01Z</time>
      </trkpt>
      <trkpt lat="42.3944970" lon="-2.4735470">
        <ele>470.3</ele>
        <time>2020-02-09T12:58:02Z</time>
      </trkpt>
      <trkpt lat="42.3945700" lon="-2.4735070">
        <ele>470.3</ele>
        <time>2020-02-09T12:58:03Z</time>
      </trkpt>
      <trkpt lat="42.3946380" lon="-2.4734660">
        <ele>470.4</ele>
        <time>2020-02-09T12:58:04Z</time>
      </trkpt>
      <trkpt lat="42.3947100" lon="-2.4734310">
        <ele>470.4</ele>
        <time>2020-02-09T12:58:05Z</time>
      </trkpt>
      <trkpt lat="42.3947810" lon="-2.4733880">
        <ele>470.4</ele>
        <time>2020-02-09T12:58:06Z</time>
      </trkpt>
      <trkpt lat="42.3948480" lon="-2.4733450">
        <ele>470.2</ele>
        <time>2020-02-09T12:58:07Z</time>
      </trkpt>
      <trkpt lat="42.3949250" lon="-2.4733020">
        <ele>470.1</ele>
        <time>2020-02-09T12:58:08Z</time>
      </trkpt>
      <trkpt lat="42.3950000" lon="-2.4732660">
        <ele>469.9</ele>
        <time>2020-02-09T12:58:09Z</time>
      </trkpt>
      <trkpt lat="42.3950730" lon="-2.4732250">
        <ele>469.7</ele>
        <time>2020-02-09T12:58:10Z</time>
      </trkpt>
      <trkpt lat="42.3951440" lon="-2.4731910">
        <ele>469.6</ele>
        <time>2020-02-09T12:58:11Z</time>
      </trkpt>
      <trkpt lat="42.3952140" lon="-2.4731540">
        <ele>469.4</ele>
        <time>2020-02-09T12:58:12Z</time>
      </trkpt>
      <trkpt lat="42.3952900" lon="-2.4731180">
        <ele>469.2</ele>
        <time>2020-02-09T12:58:13Z</time>
      </trkpt>
      <trkpt lat="42.3953650" lon="-2.4730770">
        <ele>469.0</ele>
        <time>2020-02-09T12:58:14Z</time>
      </trkpt>
      <trkpt lat="42.3954430" lon="-2.4730360">
        <ele>468.6</ele>
        <time>2020-02-09T12:58:15Z</time>
      </trkpt>
      <trkpt lat="42.3955200" lon="-2.4729920">
        <ele>468.4</ele>
        <time>2020-02-09T12:58:16Z</time>
      </trkpt>
      <trkpt lat="42.3955910" lon="-2.4729590">
        <ele>468.3</ele>
        <time>2020-02-09T12:58:17Z</time>
      </trkpt>
      <trkpt lat="42.3956650" lon="-2.4729220">
        <ele>468.1</ele>
        <time>2020-02-09T12:58:18Z</time>
      </trkpt>
      <trkpt lat="42.3957420" lon="-2.4728830">
        <ele>468.1</ele>
        <time>2020-02-09T12:58:19Z</time>
      </trkpt>
      <trkpt lat="42.3958150" lon="-2.4728450">
        <ele>468.1</ele>
        <time>2020-02-09T12:58:20Z</time>
      </trkpt>
      <trkpt lat="42.3958870" lon="-2.4728100">
        <ele>468.0</ele>
        <time>2020-02-09T12:58:21Z</time>
      </trkpt>
      <trkpt lat="42.3959610" lon="-2.4727710">
        <ele>468.0</ele>
        <time>2020-02-09T12:58:22Z</time>
      </trkpt>
      <trkpt lat="42.3960310" lon="-2.4727390">
        <ele>468.0</ele>
        <time>2020-02-09T12:58:23Z</time>
      </trkpt>
      <trkpt lat="42.3961010" lon="-2.4727020">
        <ele>467.9</ele>
        <time>2020-02-09T12:58:24Z</time>
      </trkpt>
      <trkpt lat="42.3961760" lon="-2.4726640">
        <ele>467.8</ele>
        <time>2020-02-09T12:58:25Z</time>
      </trkpt>
      <trkpt lat="42.3962600" lon="-2.4726020">
        <ele>467.6</ele>
        <time>2020-02-09T12:58:26Z</time>
      </trkpt>
      <trkpt lat="42.3963290" lon="-2.4725730">
        <ele>467.4</ele>
        <time>2020-02-09T12:58:27Z</time>
      </trkpt>
      <trkpt lat="42.3964090" lon="-2.4725330">
        <ele>467.1</ele>
        <time>2020-02-09T12:58:28Z</time>
      </trkpt>
      <trkpt lat="42.3964920" lon="-2.4725000">
        <ele>466.9</ele>
        <time>2020-02-09T12:58:29Z</time>
      </trkpt>
      <trkpt lat="42.3965630" lon="-2.4724560">
        <ele>466.6</ele>
        <time>2020-02-09T12:58:30Z</time>
      </trkpt>
      <trkpt lat="42.3966350" lon="-2.4724270">
        <ele>466.4</ele>
        <time>2020-02-09T12:58:31Z</time>
      </trkpt>
      <trkpt lat="42.3967180" lon="-2.4723820">
        <ele>466.2</ele>
        <time>2020-02-09T12:58:32Z</time>
      </trkpt>
      <trkpt lat="42.3967940" lon="-2.4723420">
        <ele>466.0</ele>
        <time>2020-02-09T12:58:33Z</time>
      </trkpt>
      <trkpt lat="42.3968720" lon="-2.4723060">
        <ele>465.8</ele>
        <time>2020-02-09T12:58:34Z</time>
      </trkpt>
      <trkpt lat="42.3969470" lon="-2.4722640">
        <ele>465.6</ele>
        <time>2020-02-09T12:58:35Z</time>
      </trkpt>
      <trkpt lat="42.3970230" lon="-2.4722310">
        <ele>465.4</ele>
        <time>2020-02-09T12:58:36Z</time>
      </trkpt>
      <trkpt lat="42.3971010" lon="-2.4721950">
        <ele>465.3</ele>
        <time>2020-02-09T12:58:37Z</time>
      </trkpt>
      <trkpt lat="42.3971910" lon="-2.4721630">
        <ele>465.1</ele>
        <time>2020-02-09T12:58:38Z</time>
      </trkpt>
      <trkpt lat="42.3972700" lon="-2.4721330">
        <ele>465.1</ele>
        <time>2020-02-09T12:58:39Z</time>
      </trkpt>
      <trkpt lat="42.3973380" lon="-2.4720670">
        <ele>465.0</ele>
        <time>2020-02-09T12:58:40Z</time>
      </trkpt>
      <trkpt lat="42.3974030" lon="-2.4720470">
        <ele>465.0</ele>
        <time>2020-02-09T12:58:41Z</time>
      </trkpt>
      <trkpt lat="42.3974750" lon="-2.4720110">
        <ele>464.9</ele>
        <time>2020-02-09T12:58:42Z</time>
      </trkpt>
      <trkpt lat="42.3975440" lon="-2.4719810">
        <ele>464.9</ele>
        <time>2020-02-09T12:58:43Z</time>
      </trkpt>
      <trkpt lat="42.3976140" lon="-2.4719400">
        <ele>464.9</ele>
        <time>2020-02-09T12:58:44Z</time>
      </trkpt>
      <trkpt lat="42.3976830" lon="-2.4719020">
        <ele>464.9</ele>
        <time>2020-02-09T12:58:45Z</time>
      </trkpt>
      <trkpt lat="42.3977560" lon="-2.4718560">
        <ele>464.9</ele>
        <time>2020-02-09T12:58:46Z</time>
      </trkpt>
      <trkpt lat="42.3978300" lon="-2.4718220">
        <ele>464.9</ele>
        <time>2020-02-09T12:58:47Z</time>
      </trkpt>
      <trkpt lat="42.3978950" lon="-2.4717850">
        <ele>464.9</ele>
        <time>2020-02-09T12:58:48Z</time>
      </trkpt>
      <trkpt lat="42.3979600" lon="-2.4717470">
        <ele>464.8</ele>
        <time>2020-02-09T12:58:49Z</time>
      </trkpt>
      <trkpt lat="42.3980270" lon="-2.4717100">
        <ele>464.8</ele>
        <time>2020-02-09T12:58:50Z</time>
      </trkpt>
      <trkpt lat="42.3980880" lon="-2.4716750">
        <ele>464.8</ele>
        <time>2020-02-09T12:58:51Z</time>
      </trkpt>
      <trkpt lat="42.3981540" lon="-2.4716370">
        <ele>464.8</ele>
        <time>2020-02-09T12:58:52Z</time>
      </trkpt>
      <trkpt lat="42.3982250" lon="-2.4715980">
        <ele>464.8</ele>
        <time>2020-02-09T12:58:53Z</time>
      </trkpt>
      <trkpt lat="42.3982890" lon="-2.4715590">
        <ele>464.8</ele>
        <time>2020-02-09T12:58:54Z</time>
      </trkpt>
      <trkpt lat="42.3983590" lon="-2.4715210">
        <ele>464.7</ele>
        <time>2020-02-09T12:58:55Z</time>
      </trkpt>
      <trkpt lat="42.3984240" lon="-2.4714840">
        <ele>464.6</ele>
        <time>2020-02-09T12:58:56Z</time>
      </trkpt>
      <trkpt lat="42.3984930" lon="-2.4714460">
        <ele>464.6</ele>
        <time>2020-02-09T12:58:57Z</time>
      </trkpt>
      <trkpt lat="42.3985460" lon="-2.4714210">
        <ele>464.5</ele>
        <time>2020-02-09T12:58:58Z</time>
      </trkpt>
      <trkpt lat="42.3986070" lon="-2.4713830">
        <ele>464.4</ele>
        <time>2020-02-09T12:58:59Z</time>
      </trkpt>
      <trkpt lat="42.3986670" lon="-2.4713420">
        <ele>464.3</ele>
        <time>2020-02-09T12:59:00Z</time>
      </trkpt>
      <trkpt lat="42.3987400" lon="-2.4713050">
        <ele>464.2</ele>
        <time>2020-02-09T12:59:01Z</time>
      </trkpt>
      <trkpt lat="42.3988030" lon="-2.4712680">
        <ele>464.1</ele>
        <time>2020-02-09T12:59:02Z</time>
      </trkpt>
      <trkpt lat="42.3988670" lon="-2.4712260">
        <ele>464.0</ele>
        <time>2020-02-09T12:59:03Z</time>
      </trkpt>
      <trkpt lat="42.3989460" lon="-2.4711880">
        <ele>463.9</ele>
        <time>2020-02-09T12:59:04Z</time>
      </trkpt>
      <trkpt lat="42.3990280" lon="-2.4711650">
        <ele>463.8</ele>
        <time>2020-02-09T12:59:05Z</time>
      </trkpt>
      <trkpt lat="42.3991220" lon="-2.4711700">
        <ele>463.8</ele>
        <time>2020-02-09T12:59:06Z</time>
      </trkpt>
      <trkpt lat="42.3991960" lon="-2.4711350">
        <ele>463.7</ele>
        <time>2020-02-09T12:59:07Z</time>
      </trkpt>
      <trkpt lat="42.3992740" lon="-2.4711110">
        <ele>463.7</ele>
        <time>2020-02-09T12:59:08Z</time>
      </trkpt>
      <trkpt lat="42.3993400" lon="-2.4710610">
        <ele>463.7</ele>
        <time>2020-02-09T12:59:09Z</time>
      </trkpt>
      <trkpt lat="42.3993350" lon="-2.4710170">
        <ele>463.7</ele>
        <time>2020-02-09T12:59:10Z</time>
      </trkpt>
      <trkpt lat="42.3994090" lon="-2.4709740">
        <ele>463.7</ele>
        <time>2020-02-09T12:59:11Z</time>
      </trkpt>
      <trkpt lat="42.3994830" lon="-2.4709310">
        <ele>463.7</ele>
        <time>2020-02-09T12:59:12Z</time>
      </trkpt>
      <trkpt lat="42.3995550" lon="-2.4708940">
        <ele>463.7</ele>
        <time>2020-02-09T12:59:13Z</time>
      </trkpt>
      <trkpt lat="42.3996200" lon="-2.4708560">
        <ele>463.7</ele>
        <time>2020-02-09T12:59:14Z</time>
      </trkpt>
      <trkpt lat="42.3996840" lon="-2.4708240">
        <ele>463.7</ele>
        <time>2020-02-09T12:59:15Z</time>
      </trkpt>
      <trkpt lat="42.3997860" lon="-2.4707720">
        <ele>463.5</ele>
        <time>2020-02-09T12:59:16Z</time>
      </trkpt>
      <trkpt lat="42.3998500" lon="-2.4707190">
        <ele>463.4</ele>
        <time>2020-02-09T12:59:17Z</time>
      </trkpt>
      <trkpt lat="42.3999000" lon="-2.4706910">
        <ele>463.3</ele>
        <time>2020-02-09T12:59:18Z</time>
      </trkpt>
      <trkpt lat="42.3999860" lon="-2.4706430">
        <ele>463.0</ele>
        <time>2020-02-09T12:59:19Z</time>
      </trkpt>
      <trkpt lat="42.4000630" lon="-2.4706110">
        <ele>462.8</ele>
        <time>2020-02-09T12:59:20Z</time>
      </trkpt>
      <trkpt lat="42.4001400" lon="-2.4705670">
        <ele>462.6</ele>
        <time>2020-02-09T12:59:21Z</time>
      </trkpt>
      <trkpt lat="42.4002150" lon="-2.4705290">
        <ele>462.4</ele>
        <time>2020-02-09T12:59:22Z</time>
      </trkpt>
      <trkpt lat="42.4002900" lon="-2.4704920">
        <ele>462.2</ele>
        <time>2020-02-09T12:59:23Z</time>
      </trkpt>
      <trkpt lat="42.4003650" lon="-2.4704540">
        <ele>462.0</ele>
        <time>2020-02-09T12:59:24Z</time>
      </trkpt>
      <trkpt lat="42.4004070" lon="-2.4703980">
        <ele>461.9</ele>
        <time>2020-02-09T12:59:25Z</time>
      </trkpt>
      <trkpt lat="42.4005140" lon="-2.4703660">
        <ele>461.7</ele>
        <time>2020-02-09T12:59:26Z</time>
      </trkpt>
      <trkpt lat="42.4005780" lon="-2.4703460">
        <ele>461.6</ele>
        <time>2020-02-09T12:59:27Z</time>
      </trkpt>
      <trkpt lat="42.4006440" lon="-2.4703170">
        <ele>461.4</ele>
        <time>2020-02-09T12:59:28Z</time>
      </trkpt>
      <trkpt lat="42.4007110" lon="-2.4702840">
        <ele>461.2</ele>
        <time>2020-02-09T12:59:29Z</time>
      </trkpt>
      <trkpt lat="42.4008150" lon="-2.4702370">
        <ele>461.0</ele>
        <time>2020-02-09T12:59:30Z</time>
      </trkpt>
      <trkpt lat="42.4009140" lon="-2.4702110">
        <ele>460.8</ele>
        <time>2020-02-09T12:59:31Z</time>
      </trkpt>
      <trkpt lat="42.4009700" lon="-2.4701820">
        <ele>460.7</ele>
        <time>2020-02-09T12:59:32Z</time>
      </trkpt>
      <trkpt lat="42.4010460" lon="-2.4701490">
        <ele>460.5</ele>
        <time>2020-02-09T12:59:33Z</time>
      </trkpt>
      <trkpt lat="42.4009700" lon="-2.4701110">
        <ele>460.3</ele>
        <time>2020-02-09T12:59:34Z</time>
      </trkpt>
      <trkpt lat="42.4010370" lon="-2.4700720">
        <ele>460.2</ele>
        <time>2020-02-09T12:59:35Z</time>
      </trkpt>
      <trkpt lat="42.4011060" lon="-2.4700410">
        <ele>460.1</ele>
        <time>2020-02-09T12:59:36Z</time>
      </trkpt>
      <trkpt lat="42.4011670" lon="-2.4700210">
        <ele>460.0</ele>
        <time>2020-02-09T12:59:37Z</time>
      </trkpt>
      <trkpt lat="42.4012200" lon="-2.4699800">
        <ele>459.9</ele>
        <time>2020-02-09T12:59:38Z</time>
      </trkpt>
      <trkpt lat="42.4012990" lon="-2.4699340">
        <ele>459.9</ele>
        <time>2020-02-09T12:59:39Z</time>
      </trkpt>
      <trkpt lat="42.4013690" lon="-2.4698960">
        <ele>459.9</ele>
        <time>2020-02-09T12:59:40Z</time>
      </trkpt>
      <trkpt lat="42.4014550" lon="-2.4698560">
        <ele>459.9</ele>
        <time>2020-02-09T12:59:41Z</time>
      </trkpt>
      <trkpt lat="42.4015250" lon="-2.4698210">
        <ele>459.9</ele>
        <time>2020-02-09T12:59:42Z</time>
      </trkpt>
      <trkpt lat="42.4015950" lon="-2.4697910">
        <ele>459.9</ele>
        <time>2020-02-09T12:59:43Z</time>
      </trkpt>
      <trkpt lat="42.4016670" lon="-2.4697510">
        <ele>459.9</ele>
        <time>2020-02-09T12:59:44Z</time>
      </trkpt>
      <trkpt lat="42.4017440" lon="-2.4697140">
        <ele>459.9</ele>
        <time>2020-02-09T12:59:45Z</time>
      </trkpt>
      <trkpt lat="42.4018160" lon="-2.4696820">
        <ele>459.8</ele>
        <time>2020-02-09T12:59:46Z</time>
      </trkpt>
      <trkpt lat="42.4018880" lon="-2.4696470">
        <ele>459.7</ele>
        <time>2020-02-09T12:59:47Z</time>
      </trkpt>
      <trkpt lat="42.4019560" lon="-2.4696090">
        <ele>459.6</ele>
        <time>2020-02-09T12:59:48Z</time>
      </trkpt>
      <trkpt lat="42.4020270" lon="-2.4695750">
        <ele>459.5</ele>
        <time>2020-02-09T12:59:49Z</time>
      </trkpt>
      <trkpt lat="42.4020970" lon="-2.4695370">
        <ele>459.3</ele>
        <time>2020-02-09T12:59:50Z</time>
      </trkpt>
      <trkpt lat="42.4021680" lon="-2.4694940">
        <ele>459.2</ele>
        <time>2020-02-09T12:59:51Z</time>
      </trkpt>
      <trkpt lat="42.4022420" lon="-2.4694550">
        <ele>459.1</ele>
        <time>2020-02-09T12:59:52Z</time>
      </trkpt>
      <trkpt lat="42.4023150" lon="-2.4694200">
        <ele>459.0</ele>
        <time>2020-02-09T12:59:53Z</time>
      </trkpt>
      <trkpt lat="42.4023930" lon="-2.4693780">
        <ele>459.0</ele>
        <time>2020-02-09T12:59:54Z</time>
      </trkpt>
      <trkpt lat="42.4024650" lon="-2.4693390">
        <ele>458.9</ele>
        <time>2020-02-09T12:59:55Z</time>
      </trkpt>
      <trkpt lat="42.4025430" lon="-2.4693010">
        <ele>458.9</ele>
        <time>2020-02-09T12:59:56Z</time>
      </trkpt>
      <trkpt lat="42.4026250" lon="-2.4692620">
        <ele>458.9</ele>
        <time>2020-02-09T12:59:57Z</time>
      </trkpt>
      <trkpt lat="42.4027020" lon="-2.4692210">
        <ele>458.9</ele>
        <time>2020-02-09T12:59:58Z</time>
      </trkpt>
      <trkpt lat="42.4027760" lon="-2.4691860">
        <ele>458.9</ele>
        <time>2020-02-09T12:59:59Z</time>
      </trkpt>
      <trkpt lat="42.4028520" lon="-2.4691410">
        <ele>459.0</ele>
        <time>2020-02-09T13:00:00Z</time>
      </trkpt>
      <trkpt lat="42.4029290" lon="-2.4690980">
        <ele>459.0</ele>
        <time>2020-02-09T13:00:01Z</time>
      </trkpt>
      <trkpt lat="42.4030100" lon="-2.4690480">
        <ele>459.0</ele>
        <time>2020-02-09T13:00:02Z</time>
      </trkpt>
      <trkpt lat="42.4030940" lon="-2.4690080">
        <ele>459.0</ele>
        <time>2020-02-09T13:00:03Z</time>
      </trkpt>
      <trkpt lat="42.4031710" lon="-2.4689680">
        <ele>459.0</ele>
        <time>2020-02-09T13:00:04Z</time>
      </trkpt>
      <trkpt lat="42.4032810" lon="-2.4689060">
        <ele>459.0</ele>
        <time>2020-02-09T13:00:05Z</time>
      </trkpt>
      <trkpt lat="42.4033740" lon="-2.4688630">
        <ele>459.0</ele>
        <time>2020-02-09T13:00:06Z</time>
      </trkpt>
      <trkpt lat="42.4034610" lon="-2.4688260">
        <ele>459.0</ele>
        <time>2020-02-09T13:00:07Z</time>
      </trkpt>
      <trkpt lat="42.4034870" lon="-2.4687850">
        <ele>459.0</ele>
        <time>2020-02-09T13:00:08Z</time>
      </trkpt>
      <trkpt lat="42.4035660" lon="-2.4687500">
        <ele>459.0</ele>
        <time>2020-02-09T13:00:09Z</time>
      </trkpt>
      <trkpt lat="42.4036360" lon="-2.4687210">
        <ele>459.0</ele>
        <time>2020-02-09T13:00:10Z</time>
      </trkpt>
      <trkpt lat="42.4037130" lon="-2.4686840">
        <ele>459.0</ele>
        <time>2020-02-09T13:00:11Z</time>
      </trkpt>
      <trkpt lat="42.4037880" lon="-2.4686460">
        <ele>459.0</ele>
        <time>2020-02-09T13:00:12Z</time>
      </trkpt>
      <trkpt lat="42.4038630" lon="-2.4686090">
        <ele>459.1</ele>
        <time>2020-02-09T13:00:13Z</time>
      </trkpt>
      <trkpt lat="42.4039440" lon="-2.4685710">
        <ele>459.1</ele>
        <time>2020-02-09T13:00:14Z</time>
      </trkpt>
      <trkpt lat="42.4040190" lon="-2.4685340">
        <ele>459.1</ele>
        <time>2020-02-09T13:00:15Z</time>
      </trkpt>
      <trkpt lat="42.4040940" lon="-2.4684960">
        <ele>459.1</ele>
        <time>2020-02-09T13:00:16Z</time>
      </trkpt>
      <trkpt lat="42.4041690" lon="-2.4684580">
        <ele>459.1</ele>
        <time>2020-02-09T13:00:17Z</time>
      </trkpt>
      <trkpt lat="42.4042490" lon="-2.4684210">
        <ele>459.2</ele>
        <time>2020-02-09T13:00:18Z</time>
      </trkpt>
      <trkpt lat="42.4043350" lon="-2.4684910">
        <ele>459.2</ele>
        <time>2020-02-09T13:00:19Z</time>
      </trkpt>
      <trkpt lat="42.4044100" lon="-2.4684690">
        <ele>459.3</ele>
        <time>2020-02-09T13:00:20Z</time>
      </trkpt>
      <trkpt lat="42.4044690" lon="-2.4683990">
        <ele>459.3</ele>
        <time>2020-02-09T13:00:21Z</time>
      </trkpt>
      <trkpt lat="42.4045330" lon="-2.4683370">
        <ele>459.3</ele>
        <time>2020-02-09T13:00:22Z</time>
      </trkpt>
      <trkpt lat="42.4046160" lon="-2.4682010">
        <ele>459.4</ele>
        <time>2020-02-09T13:00:23Z</time>
      </trkpt>
      <trkpt lat="42.4046580" lon="-2.4681820">
        <ele>459.4</ele>
        <time>2020-02-09T13:00:24Z</time>
      </trkpt>
      <trkpt lat="42.4047200" lon="-2.4681240">
        <ele>459.5</ele>
        <time>2020-02-09T13:00:25Z</time>
      </trkpt>
      <trkpt lat="42.4047860" lon="-2.4680900">
        <ele>459.5</ele>
        <time>2020-02-09T13:00:26Z</time>
      </trkpt>
      <trkpt lat="42.4048370" lon="-2.4680540">
        <ele>459.4</ele>
        <time>2020-02-09T13:00:27Z</time>
      </trkpt>
      <trkpt lat="42.4049480" lon="-2.4680060">
        <ele>459.1</ele>
        <time>2020-02-09T13:00:29Z</time>
      </trkpt>
      <trkpt lat="42.4050510" lon="-2.4679840">
        <ele>458.8</ele>
        <time>2020-02-09T13:00:30Z</time>
      </trkpt>
      <trkpt lat="42.4051400" lon="-2.4679700">
        <ele>458.7</ele>
        <time>2020-02-09T13:00:31Z</time>
      </trkpt>
      <trkpt lat="42.4052260" lon="-2.4679490">
        <ele>458.5</ele>
        <time>2020-02-09T13:00:32Z</time>
      </trkpt>
      <trkpt lat="42.4053110" lon="-2.4679270">
        <ele>458.4</ele>
        <time>2020-02-09T13:00:33Z</time>
      </trkpt>
      <trkpt lat="42.4053970" lon="-2.4679010">
        <ele>458.4</ele>
        <time>2020-02-09T13:00:34Z</time>
      </trkpt>
      <trkpt lat="42.4054830" lon="-2.4678790">
        <ele>458.3</ele>
        <time>2020-02-09T13:00:35Z</time>
      </trkpt>
      <trkpt lat="42.4055690" lon="-2.4678580">
        <ele>458.3</ele>
        <time>2020-02-09T13:00:36Z</time>
      </trkpt>
      <trkpt lat="42.4055740" lon="-2.4677130">
        <ele>458.5</ele>
        <time>2020-02-09T13:00:37Z</time>
      </trkpt>
      <trkpt lat="42.4055900" lon="-2.4676640">
        <ele>458.5</ele>
        <time>2020-02-09T13:00:38Z</time>
      </trkpt>
      <trkpt lat="42.4056760" lon="-2.4676380">
        <ele>458.7</ele>
        <time>2020-02-09T13:00:39Z</time>
      </trkpt>
      <trkpt lat="42.4057220" lon="-2.4676020">
        <ele>458.8</ele>
        <time>2020-02-09T13:00:40Z</time>
      </trkpt>
      <trkpt lat="42.4057600" lon="-2.4675520">
        <ele>458.9</ele>
        <time>2020-02-09T13:00:41Z</time>
      </trkpt>
      <trkpt lat="42.4058220" lon="-2.4674960">
        <ele>459.0</ele>
        <time>2020-02-09T13:00:42Z</time>
      </trkpt>
      <trkpt lat="42.4059070" lon="-2.4674940">
        <ele>459.0</ele>
        <time>2020-02-09T13:00:43Z</time>
      </trkpt>
      <trkpt lat="42.4059800" lon="-2.4674560">
        <ele>459.1</ele>
        <time>2020-02-09T13:00:44Z</time>
      </trkpt>
      <trkpt lat="42.4060510" lon="-2.4674180">
        <ele>459.1</ele>
        <time>2020-02-09T13:00:45Z</time>
      </trkpt>
      <trkpt lat="42.4061210" lon="-2.4673800">
        <ele>459.1</ele>
        <time>2020-02-09T13:00:46Z</time>
      </trkpt>
      <trkpt lat="42.4061860" lon="-2.4673430">
        <ele>459.1</ele>
        <time>2020-02-09T13:00:47Z</time>
      </trkpt>
      <trkpt lat="42.4062320" lon="-2.4672980">
        <ele>459.1</ele>
        <time>2020-02-09T13:00:48Z</time>
      </trkpt>
      <trkpt lat="42.4063180" lon="-2.4673000">
        <ele>459.1</ele>
        <time>2020-02-09T13:00:49Z</time>
      </trkpt>
      <trkpt lat="42.4063970" lon="-2.4672390">
        <ele>459.1</ele>
        <time>2020-02-09T13:00:50Z</time>
      </trkpt>
      <trkpt lat="42.4064650" lon="-2.4672020">
        <ele>459.1</ele>
        <time>2020-02-09T13:00:51Z</time>
      </trkpt>
      <trkpt lat="42.4065420" lon="-2.4671620">
        <ele>459.1</ele>
        <time>2020-02-09T13:00:52Z</time>
      </trkpt>
      <trkpt lat="42.4066150" lon="-2.4671230">
        <ele>459.1</ele>
        <time>2020-02-09T13:00:53Z</time>
      </trkpt>
      <trkpt lat="42.4066850" lon="-2.4670850">
        <ele>459.1</ele>
        <time>2020-02-09T13:00:54Z</time>
      </trkpt>
      <trkpt lat="42.4067540" lon="-2.4670480">
        <ele>459.1</ele>
        <time>2020-02-09T13:00:55Z</time>
      </trkpt>
      <trkpt lat="42.4068050" lon="-2.4670160">
        <ele>459.1</ele>
        <time>2020-02-09T13:00:56Z</time>
      </trkpt>
      <trkpt lat="42.4068630" lon="-2.4669750">
        <ele>459.1</ele>
        <time>2020-02-09T13:00:57Z</time>
      </trkpt>
      <trkpt lat="42.4069160" lon="-2.4669320">
        <ele>459.1</ele>
        <time>2020-02-09T13:00:58Z</time>
      </trkpt>
      <trkpt lat="42.4070350" lon="-2.4668420">
        <ele>459.1</ele>
        <time>2020-02-09T13:00:59Z</time>
      </trkpt>
      <trkpt lat="42.4071070" lon="-2.4667940">
        <ele>459.2</ele>
        <time>2020-02-09T13:01:00Z</time>
      </trkpt>
      <trkpt lat="42.4071650" lon="-2.4667560">
        <ele>459.2</ele>
        <time>2020-02-09T13:01:01Z</time>
      </trkpt>
      <trkpt lat="42.4072350" lon="-2.4667270">
        <ele>459.2</ele>
        <time>2020-02-09T13:01:02Z</time>
      </trkpt>
      <trkpt lat="42.4072950" lon="-2.4667240">
        <ele>459.2</ele>
        <time>2020-02-09T13:01:03Z</time>
      </trkpt>
      <trkpt lat="42.4073570" lon="-2.4666820">
        <ele>459.2</ele>
        <time>2020-02-09T13:01:04Z</time>
      </trkpt>
      <trkpt lat="42.4074200" lon="-2.4666480">
        <ele>459.2</ele>
        <time>2020-02-09T13:01:05Z</time>
      </trkpt>
      <trkpt lat="42.4075000" lon="-2.4666080">
        <ele>459.1</ele>
        <time>2020-02-09T13:01:06Z</time>
      </trkpt>
      <trkpt lat="42.4075780" lon="-2.4665690">
        <ele>459.0</ele>
        <time>2020-02-09T13:01:07Z</time>
      </trkpt>
      <trkpt lat="42.4076470" lon="-2.4665310">
        <ele>458.8</ele>
        <time>2020-02-09T13:01:08Z</time>
      </trkpt>
      <trkpt lat="42.4077160" lon="-2.4664900">
        <ele>458.7</ele>
        <time>2020-02-09T13:01:09Z</time>
      </trkpt>
      <trkpt lat="42.4077830" lon="-2.4664500">
        <ele>458.5</ele>
        <time>2020-02-09T13:01:10Z</time>
      </trkpt>
      <trkpt lat="42.4078560" lon="-2.4664050">
        <ele>458.4</ele>
        <time>2020-02-09T13:01:11Z</time>
      </trkpt>
      <trkpt lat="42.4079230" lon="-2.4663630">
        <ele>458.3</ele>
        <time>2020-02-09T13:01:12Z</time>
      </trkpt>
      <trkpt lat="42.4079810" lon="-2.4663310">
        <ele>458.3</ele>
        <time>2020-02-09T13:01:13Z</time>
      </trkpt>
      <trkpt lat="42.4080530" lon="-2.4662890">
        <ele>458.3</ele>
        <time>2020-02-09T13:01:14Z</time>
      </trkpt>
      <trkpt lat="42.4081250" lon="-2.4662550">
        <ele>458.3</ele>
        <time>2020-02-09T13:01:15Z</time>
      </trkpt>
      <trkpt lat="42.4081980" lon="-2.4662160">
        <ele>458.4</ele>
        <time>2020-02-09T13:01:16Z</time>
      </trkpt>
      <trkpt lat="42.4082620" lon="-2.4661840">
        <ele>458.5</ele>
        <time>2020-02-09T13:01:17Z</time>
      </trkpt>
      <trkpt lat="42.4083320" lon="-2.4661460">
        <ele>458.6</ele>
        <time>2020-02-09T13:01:18Z</time>
      </trkpt>
      <trkpt lat="42.4084010" lon="-2.4661090">
        <ele>458.8</ele>
        <time>2020-02-09T13:01:19Z</time>
      </trkpt>
      <trkpt lat="42.4084600" lon="-2.4659990">
        <ele>459.0</ele>
        <time>2020-02-09T13:01:20Z</time>
      </trkpt>
      <trkpt lat="42.4085170" lon="-2.4659670">
        <ele>459.1</ele>
        <time>2020-02-09T13:01:21Z</time>
      </trkpt>
      <trkpt lat="42.4085730" lon="-2.4659280">
        <ele>459.2</ele>
        <time>2020-02-09T13:01:22Z</time>
      </trkpt>
      <trkpt lat="42.4086330" lon="-2.4659240">
        <ele>459.3</ele>
        <time>2020-02-09T13:01:23Z</time>
      </trkpt>
      <trkpt lat="42.4086940" lon="-2.4658890">
        <ele>459.4</ele>
        <time>2020-02-09T13:01:24Z</time>
      </trkpt>
      <trkpt lat="42.4087530" lon="-2.4658480">
        <ele>459.4</ele>
        <time>2020-02-09T13:01:25Z</time>
      </trkpt>
      <trkpt lat="42.4088140" lon="-2.4658350">
        <ele>459.3</ele>
        <time>2020-02-09T13:01:26Z</time>
      </trkpt>
      <trkpt lat="42.4088810" lon="-2.4658020">
        <ele>459.3</ele>
        <time>2020-02-09T13:01:27Z</time>
      </trkpt>
      <trkpt lat="42.4089560" lon="-2.4657710">
        <ele>459.4</ele>
        <time>2020-02-09T13:01:28Z</time>
      </trkpt>
      <trkpt lat="42.4090250" lon="-2.4657410">
        <ele>459.3</ele>
        <time>2020-02-09T13:01:29Z</time>
      </trkpt>
      <trkpt lat="42.4090940" lon="-2.4657130">
        <ele>459.3</ele>
        <time>2020-02-09T13:01:30Z</time>
      </trkpt>
      <trkpt lat="42.4091720" lon="-2.4656860">
        <ele>459.3</ele>
        <time>2020-02-09T13:01:31Z</time>
      </trkpt>
      <trkpt lat="42.4092350" lon="-2.4656610">
        <ele>459.5</ele>
        <time>2020-02-09T13:01:32Z</time>
      </trkpt>
      <trkpt lat="42.4093050" lon="-2.4656270">
        <ele>459.6</ele>
        <time>2020-02-09T13:01:33Z</time>
      </trkpt>
      <trkpt lat="42.4093550" lon="-2.4656010">
        <ele>459.6</ele>
        <time>2020-02-09T13:01:34Z</time>
      </trkpt>
      <trkpt lat="42.4094430" lon="-2.4655980">
        <ele>459.7</ele>
        <time>2020-02-09T13:01:35Z</time>
      </trkpt>
      <trkpt lat="42.4095020" lon="-2.4655770">
        <ele>459.7</ele>
        <time>2020-02-09T13:01:36Z</time>
      </trkpt>
      <trkpt lat="42.4095780" lon="-2.4655570">
        <ele>459.8</ele>
        <time>2020-02-09T13:01:37Z</time>
      </trkpt>
      <trkpt lat="42.4096480" lon="-2.4655340">
        <ele>459.8</ele>
        <time>2020-02-09T13:01:38Z</time>
      </trkpt>
      <trkpt lat="42.4097170" lon="-2.4655090">
        <ele>459.8</ele>
        <time>2020-02-09T13:01:39Z</time>
      </trkpt>
      <trkpt lat="42.4097880" lon="-2.4655000">
        <ele>459.7</ele>
        <time>2020-02-09T13:01:40Z</time>
      </trkpt>
      <trkpt lat="42.4098650" lon="-2.4654770">
        <ele>459.9</ele>
        <time>2020-02-09T13:01:41Z</time>
      </trkpt>
      <trkpt lat="42.4099360" lon="-2.4654520">
        <ele>459.7</ele>
        <time>2020-02-09T13:01:42Z</time>
      </trkpt>
      <trkpt lat="42.4100150" lon="-2.4654210">
        <ele>459.6</ele>
        <time>2020-02-09T13:01:43Z</time>
      </trkpt>
      <trkpt lat="42.4100970" lon="-2.4653860">
        <ele>459.6</ele>
        <time>2020-02-09T13:01:44Z</time>
      </trkpt>
      <trkpt lat="42.4101720" lon="-2.4653570">
        <ele>459.5</ele>
        <time>2020-02-09T13:01:45Z</time>
      </trkpt>
      <trkpt lat="42.4102490" lon="-2.4653210">
        <ele>459.4</ele>
        <time>2020-02-09T13:01:46Z</time>
      </trkpt>
      <trkpt lat="42.4103300" lon="-2.4653170">
        <ele>459.6</ele>
        <time>2020-02-09T13:01:47Z</time>
      </trkpt>
      <trkpt lat="42.4104110" lon="-2.4652870">
        <ele>459.5</ele>
        <time>2020-02-09T13:01:48Z</time>
      </trkpt>
      <trkpt lat="42.4104970" lon="-2.4652670">
        <ele>459.7</ele>
        <time>2020-02-09T13:01:49Z</time>
      </trkpt>
      <trkpt lat="42.4105790" lon="-2.4652550">
        <ele>459.8</ele>
        <time>2020-02-09T13:01:50Z</time>
      </trkpt>
      <trkpt lat="42.4106580" lon="-2.4652430">
        <ele>459.7</ele>
        <time>2020-02-09T13:01:51Z</time>
      </trkpt>
      <trkpt lat="42.4107440" lon="-2.4652310">
        <ele>459.7</ele>
        <time>2020-02-09T13:01:52Z</time>
      </trkpt>
      <trkpt lat="42.4108250" lon="-2.4652250">
        <ele>459.3</ele>
        <time>2020-02-09T13:01:53Z</time>
      </trkpt>
      <trkpt lat="42.4109030" lon="-2.4652260">
        <ele>459.0</ele>
        <time>2020-02-09T13:01:54Z</time>
      </trkpt>
      <trkpt lat="42.4109820" lon="-2.4652090">
        <ele>458.6</ele>
        <time>2020-02-09T13:01:55Z</time>
      </trkpt>
      <trkpt lat="42.4110520" lon="-2.4651770">
        <ele>458.2</ele>
        <time>2020-02-09T13:01:56Z</time>
      </trkpt>
      <trkpt lat="42.4111140" lon="-2.4651430">
        <ele>457.8</ele>
        <time>2020-02-09T13:01:57Z</time>
      </trkpt>
      <trkpt lat="42.4111750" lon="-2.4651050">
        <ele>457.4</ele>
        <time>2020-02-09T13:01:58Z</time>
      </trkpt>
      <trkpt lat="42.4112330" lon="-2.4650460">
        <ele>457.0</ele>
        <time>2020-02-09T13:01:59Z</time>
      </trkpt>
      <trkpt lat="42.4112880" lon="-2.4649870">
        <ele>456.6</ele>
        <time>2020-02-09T13:02:00Z</time>
      </trkpt>
      <trkpt lat="42.4113430" lon="-2.4649160">
        <ele>456.2</ele>
        <time>2020-02-09T13:02:01Z</time>
      </trkpt>
      <trkpt lat="42.4113900" lon="-2.4648390">
        <ele>455.8</ele>
        <time>2020-02-09T13:02:02Z</time>
      </trkpt>
      <trkpt lat="42.4114390" lon="-2.4647560">
        <ele>454.7</ele>
        <time>2020-02-09T13:02:03Z</time>
      </trkpt>
      <trkpt lat="42.4114840" lon="-2.4646800">
        <ele>454.5</ele>
        <time>2020-02-09T13:02:04Z</time>
      </trkpt>
      <trkpt lat="42.4115470" lon="-2.4646070">
        <ele>454.2</ele>
        <time>2020-02-09T13:02:05Z</time>
      </trkpt>
      <trkpt lat="42.4116270" lon="-2.4645210">
        <ele>453.7</ele>
        <time>2020-02-09T13:02:06Z</time>
      </trkpt>
      <trkpt lat="42.4116990" lon="-2.4644690">
        <ele>453.3</ele>
        <time>2020-02-09T13:02:07Z</time>
      </trkpt>
      <trkpt lat="42.4117830" lon="-2.4643920">
        <ele>452.8</ele>
        <time>2020-02-09T13:02:08Z</time>
      </trkpt>
      <trkpt lat="42.4118420" lon="-2.4643260">
        <ele>452.5</ele>
        <time>2020-02-09T13:02:09Z</time>
      </trkpt>
      <trkpt lat="42.4119230" lon="-2.4642850">
        <ele>452.2</ele>
        <time>2020-02-09T13:02:10Z</time>
      </trkpt>
      <trkpt lat="42.4120030" lon="-2.4642490">
        <ele>451.8</ele>
        <time>2020-02-09T13:02:11Z</time>
      </trkpt>
      <trkpt lat="42.4120740" lon="-2.4641970">
        <ele>451.4</ele>
        <time>2020-02-09T13:02:12Z</time>
      </trkpt>
      <trkpt lat="42.4121450" lon="-2.4641440">
        <ele>451.0</ele>
        <time>2020-02-09T13:02:13Z</time>
      </trkpt>
      <trkpt lat="42.4122170" lon="-2.4641040">
        <ele>450.7</ele>
        <time>2020-02-09T13:02:14Z</time>
      </trkpt>
      <trkpt lat="42.4122930" lon="-2.4640520">
        <ele>450.5</ele>
        <time>2020-02-09T13:02:15Z</time>
      </trkpt>
      <trkpt lat="42.4123600" lon="-2.4640060">
        <ele>450.4</ele>
        <time>2020-02-09T13:02:16Z</time>
      </trkpt>
      <trkpt lat="42.4124370" lon="-2.4639510">
        <ele>450.2</ele>
        <time>2020-02-09T13:02:17Z</time>
      </trkpt>
      <trkpt lat="42.4125140" lon="-2.4639100">
        <ele>450.0</ele>
        <time>2020-02-09T13:02:18Z</time>
      </trkpt>
      <trkpt lat="42.4125880" lon="-2.4638720">
        <ele>449.8</ele>
        <time>2020-02-09T13:02:19Z</time>
      </trkpt>
      <trkpt lat="42.4126630" lon="-2.4638370">
        <ele>449.6</ele>
        <time>2020-02-09T13:02:20Z</time>
      </trkpt>
      <trkpt lat="42.4127410" lon="-2.4637940">
        <ele>449.4</ele>
        <time>2020-02-09T13:02:21Z</time>
      </trkpt>
      <trkpt lat="42.4128160" lon="-2.4637540">
        <ele>449.2</ele>
        <time>2020-02-09T13:02:22Z</time>
      </trkpt>
      <trkpt lat="42.4129410" lon="-2.4636940">
        <ele>448.8</ele>
        <time>2020-02-09T13:02:23Z</time>
      </trkpt>
      <trkpt lat="42.4130360" lon="-2.4636540">
        <ele>448.6</ele>
        <time>2020-02-09T13:02:24Z</time>
      </trkpt>
      <trkpt lat="42.4131210" lon="-2.4636200">
        <ele>448.4</ele>
        <time>2020-02-09T13:02:25Z</time>
      </trkpt>
      <trkpt lat="42.4131450" lon="-2.4635550">
        <ele>448.2</ele>
        <time>2020-02-09T13:02:26Z</time>
      </trkpt>
      <trkpt lat="42.4132290" lon="-2.4635050">
        <ele>448.0</ele>
        <time>2020-02-09T13:02:27Z</time>
      </trkpt>
      <trkpt lat="42.4132960" lon="-2.4634510">
        <ele>447.9</ele>
        <time>2020-02-09T13:02:28Z</time>
      </trkpt>
      <trkpt lat="42.4133650" lon="-2.4634000">
        <ele>447.8</ele>
        <time>2020-02-09T13:02:29Z</time>
      </trkpt>
      <trkpt lat="42.4134440" lon="-2.4633490">
        <ele>447.7</ele>
        <time>2020-02-09T13:02:30Z</time>
      </trkpt>
      <trkpt lat="42.4135290" lon="-2.4633120">
        <ele>447.7</ele>
        <time>2020-02-09T13:02:31Z</time>
      </trkpt>
      <trkpt lat="42.4135980" lon="-2.4632670">
        <ele>447.7</ele>
        <time>2020-02-09T13:02:32Z</time>
      </trkpt>
      <trkpt lat="42.4136690" lon="-2.4632250">
        <ele>447.7</ele>
        <time>2020-02-09T13:02:33Z</time>
      </trkpt>
      <trkpt lat="42.4137420" lon="-2.4631840">
        <ele>447.7</ele>
        <time>2020-02-09T13:02:34Z</time>
      </trkpt>
      <trkpt lat="42.4138110" lon="-2.4631070">
        <ele>447.6</ele>
        <time>2020-02-09T13:02:36Z</time>
      </trkpt>
      <trkpt lat="42.4138770" lon="-2.4630600">
        <ele>447.5</ele>
        <time>2020-02-09T13:02:37Z</time>
      </trkpt>
      <trkpt lat="42.4139440" lon="-2.4630150">
        <ele>447.4</ele>
        <time>2020-02-09T13:02:38Z</time>
      </trkpt>
      <trkpt lat="42.4140260" lon="-2.4629870">
        <ele>447.3</ele>
        <time>2020-02-09T13:02:39Z</time>
      </trkpt>
      <trkpt lat="42.4140680" lon="-2.4629390">
        <ele>447.3</ele>
        <time>2020-02-09T13:02:40Z</time>
      </trkpt>
      <trkpt lat="42.4141320" lon="-2.4628910">
        <ele>447.2</ele>
        <time>2020-02-09T13:02:41Z</time>
      </trkpt>
      <trkpt lat="42.4141920" lon="-2.4628400">
        <ele>447.2</ele>
        <time>2020-02-09T13:02:42Z</time>
      </trkpt>
      <trkpt lat="42.4142550" lon="-2.4627960">
        <ele>447.2</ele>
        <time>2020-02-09T13:02:43Z</time>
      </trkpt>
      <trkpt lat="42.4143360" lon="-2.4627280">
        <ele>447.2</ele>
        <time>2020-02-09T13:02:44Z</time>
      </trkpt>
      <trkpt lat="42.4143990" lon="-2.4626810">
        <ele>447.2</ele>
        <time>2020-02-09T13:02:45Z</time>
      </trkpt>
      <trkpt lat="42.4144900" lon="-2.4626780">
        <ele>447.1</ele>
        <time>2020-02-09T13:02:46Z</time>
      </trkpt>
      <trkpt lat="42.4145530" lon="-2.4626670">
        <ele>447.1</ele>
        <time>2020-02-09T13:02:47Z</time>
      </trkpt>
      <trkpt lat="42.4146000" lon="-2.4626360">
        <ele>447.0</ele>
        <time>2020-02-09T13:02:48Z</time>
      </trkpt>
      <trkpt lat="42.4146510" lon="-2.4626060">
        <ele>446.9</ele>
        <time>2020-02-09T13:02:49Z</time>
      </trkpt>
      <trkpt lat="42.4147040" lon="-2.4625680">
        <ele>446.8</ele>
        <time>2020-02-09T13:02:50Z</time>
      </trkpt>
      <trkpt lat="42.4147650" lon="-2.4625180">
        <ele>446.6</ele>
        <time>2020-02-09T13:02:51Z</time>
      </trkpt>
      <trkpt lat="42.4148260" lon="-2.4624770">
        <ele>446.5</ele>
        <time>2020-02-09T13:02:52Z</time>
      </trkpt>
      <trkpt lat="42.4148840" lon="-2.4624450">
        <ele>446.3</ele>
        <time>2020-02-09T13:02:53Z</time>
      </trkpt>
      <trkpt lat="42.4149490" lon="-2.4624050">
        <ele>446.3</ele>
        <time>2020-02-09T13:02:54Z</time>
      </trkpt>
      <trkpt lat="42.4150130" lon="-2.4623750">
        <ele>446.2</ele>
        <time>2020-02-09T13:02:55Z</time>
      </trkpt>
      <trkpt lat="42.4150820" lon="-2.4623330">
        <ele>446.1</ele>
        <time>2020-02-09T13:02:56Z</time>
      </trkpt>
      <trkpt lat="42.4151500" lon="-2.4622910">
        <ele>446.1</ele>
        <time>2020-02-09T13:02:57Z</time>
      </trkpt>
      <trkpt lat="42.4152200" lon="-2.4622520">
        <ele>445.9</ele>
        <time>2020-02-09T13:02:58Z</time>
      </trkpt>
      <trkpt lat="42.4152890" lon="-2.4622090">
        <ele>445.7</ele>
        <time>2020-02-09T13:02:59Z</time>
      </trkpt>
      <trkpt lat="42.4153590" lon="-2.4621710">
        <ele>445.6</ele>
        <time>2020-02-09T13:03:00Z</time>
      </trkpt>
      <trkpt lat="42.4154230" lon="-2.4621280">
        <ele>445.4</ele>
        <time>2020-02-09T13:03:01Z</time>
      </trkpt>
      <trkpt lat="42.4154930" lon="-2.4620850">
        <ele>445.3</ele>
        <time>2020-02-09T13:03:02Z</time>
      </trkpt>
      <trkpt lat="42.4155630" lon="-2.4620480">
        <ele>445.2</ele>
        <time>2020-02-09T13:03:03Z</time>
      </trkpt>
      <trkpt lat="42.4157650" lon="-2.4618090">
        <ele>445.2</ele>
        <time>2020-02-09T13:03:05Z</time>
      </trkpt>
      <trkpt lat="42.4158210" lon="-2.4617570">
        <ele>445.2</ele>
        <time>2020-02-09T13:03:06Z</time>
      </trkpt>
      <trkpt lat="42.4159050" lon="-2.4617440">
        <ele>445.2</ele>
        <time>2020-02-09T13:03:07Z</time>
      </trkpt>
      <trkpt lat="42.4159750" lon="-2.4617130">
        <ele>445.2</ele>
        <time>2020-02-09T13:03:08Z</time>
      </trkpt>
      <trkpt lat="42.4160590" lon="-2.4616780">
        <ele>445.2</ele>
        <time>2020-02-09T13:03:09Z</time>
      </trkpt>
      <trkpt lat="42.4161220" lon="-2.4616450">
        <ele>445.2</ele>
        <time>2020-02-09T13:03:10Z</time>
      </trkpt>
      <trkpt lat="42.4161940" lon="-2.4615990">
        <ele>445.2</ele>
        <time>2020-02-09T13:03:11Z</time>
      </trkpt>
      <trkpt lat="42.4162660" lon="-2.4615540">
        <ele>445.2</ele>
        <time>2020-02-09T13:03:12Z</time>
      </trkpt>
      <trkpt lat="42.4163410" lon="-2.4615110">
        <ele>445.2</ele>
        <time>2020-02-09T13:03:13Z</time>
      </trkpt>
      <trkpt lat="42.4164100" lon="-2.4614630">
        <ele>445.2</ele>
        <time>2020-02-09T13:03:14Z</time>
      </trkpt>
      <trkpt lat="42.4164800" lon="-2.4614200">
        <ele>445.2</ele>
        <time>2020-02-09T13:03:15Z</time>
      </trkpt>
      <trkpt lat="42.4165550" lon="-2.4613720">
        <ele>445.2</ele>
        <time>2020-02-09T13:03:16Z</time>
      </trkpt>
      <trkpt lat="42.4165930" lon="-2.4613360">
        <ele>445.2</ele>
        <time>2020-02-09T13:03:17Z</time>
      </trkpt>
      <trkpt lat="42.4166820" lon="-2.4613060">
        <ele>445.2</ele>
        <time>2020-02-09T13:03:18Z</time>
      </trkpt>
      <trkpt lat="42.4167550" lon="-2.4612600">
        <ele>445.2</ele>
        <time>2020-02-09T13:03:19Z</time>
      </trkpt>
      <trkpt lat="42.4168240" lon="-2.4612160">
        <ele>445.2</ele>
        <time>2020-02-09T13:03:20Z</time>
      </trkpt>
      <trkpt lat="42.4168990" lon="-2.4611740">
        <ele>445.2</ele>
        <time>2020-02-09T13:03:21Z</time>
      </trkpt>
      <trkpt lat="42.4169740" lon="-2.4611250">
        <ele>445.2</ele>
        <time>2020-02-09T13:03:22Z</time>
      </trkpt>
      <trkpt lat="42.4170440" lon="-2.4610750">
        <ele>445.2</ele>
        <time>2020-02-09T13:03:23Z</time>
      </trkpt>
      <trkpt lat="42.4171170" lon="-2.4610200">
        <ele>445.2</ele>
        <time>2020-02-09T13:03:24Z</time>
      </trkpt>
      <trkpt lat="42.4171830" lon="-2.4609740">
        <ele>445.2</ele>
        <time>2020-02-09T13:03:25Z</time>
      </trkpt>
      <trkpt lat="42.4172550" lon="-2.4609310">
        <ele>445.2</ele>
        <time>2020-02-09T13:03:26Z</time>
      </trkpt>
      <trkpt lat="42.4173270" lon="-2.4608680">
        <ele>445.2</ele>
        <time>2020-02-09T13:03:27Z</time>
      </trkpt>
      <trkpt lat="42.4173980" lon="-2.4608060">
        <ele>445.1</ele>
        <time>2020-02-09T13:03:28Z</time>
      </trkpt>
      <trkpt lat="42.4174740" lon="-2.4607550">
        <ele>444.9</ele>
        <time>2020-02-09T13:03:29Z</time>
      </trkpt>
      <trkpt lat="42.4175500" lon="-2.4607120">
        <ele>444.7</ele>
        <time>2020-02-09T13:03:30Z</time>
      </trkpt>
      <trkpt lat="42.4176230" lon="-2.4606650">
        <ele>444.5</ele>
        <time>2020-02-09T13:03:31Z</time>
      </trkpt>
      <trkpt lat="42.4176960" lon="-2.4606210">
        <ele>444.3</ele>
        <time>2020-02-09T13:03:32Z</time>
      </trkpt>
      <trkpt lat="42.4177870" lon="-2.4605950">
        <ele>444.0</ele>
        <time>2020-02-09T13:03:33Z</time>
      </trkpt>
      <trkpt lat="42.4178610" lon="-2.4605480">
        <ele>443.8</ele>
        <time>2020-02-09T13:03:34Z</time>
      </trkpt>
      <trkpt lat="42.4179340" lon="-2.4605000">
        <ele>443.5</ele>
        <time>2020-02-09T13:03:35Z</time>
      </trkpt>
      <trkpt lat="42.4180090" lon="-2.4604550">
        <ele>443.4</ele>
        <time>2020-02-09T13:03:36Z</time>
      </trkpt>
      <trkpt lat="42.4180840" lon="-2.4603900">
        <ele>443.3</ele>
        <time>2020-02-09T13:03:37Z</time>
      </trkpt>
      <trkpt lat="42.4181530" lon="-2.4603590">
        <ele>443.3</ele>
        <time>2020-02-09T13:03:38Z</time>
      </trkpt>
      <trkpt lat="42.4182540" lon="-2.4602960">
        <ele>443.2</ele>
        <time>2020-02-09T13:03:39Z</time>
      </trkpt>
      <trkpt lat="42.4183460" lon="-2.4602380">
        <ele>443.2</ele>
        <time>2020-02-09T13:03:40Z</time>
      </trkpt>
      <trkpt lat="42.4184270" lon="-2.4601860">
        <ele>443.2</ele>
        <time>2020-02-09T13:03:41Z</time>
      </trkpt>
      <trkpt lat="42.4185030" lon="-2.4601380">
        <ele>443.2</ele>
        <time>2020-02-09T13:03:42Z</time>
      </trkpt>
      <trkpt lat="42.4185830" lon="-2.4600900">
        <ele>443.1</ele>
        <time>2020-02-09T13:03:43Z</time>
      </trkpt>
      <trkpt lat="42.4186290" lon="-2.4599700">
        <ele>442.9</ele>
        <time>2020-02-09T13:03:44Z</time>
      </trkpt>
      <trkpt lat="42.4187050" lon="-2.4599150">
        <ele>442.7</ele>
        <time>2020-02-09T13:03:45Z</time>
      </trkpt>
      <trkpt lat="42.4187750" lon="-2.4598780">
        <ele>442.5</ele>
        <time>2020-02-09T13:03:46Z</time>
      </trkpt>
      <trkpt lat="42.4188530" lon="-2.4598220">
        <ele>442.2</ele>
        <time>2020-02-09T13:03:47Z</time>
      </trkpt>
      <trkpt lat="42.4189350" lon="-2.4598550">
        <ele>442.0</ele>
        <time>2020-02-09T13:03:48Z</time>
      </trkpt>
      <trkpt lat="42.4189960" lon="-2.4598340">
        <ele>441.8</ele>
        <time>2020-02-09T13:03:49Z</time>
      </trkpt>
      <trkpt lat="42.4190710" lon="-2.4597950">
        <ele>441.6</ele>
        <time>2020-02-09T13:03:50Z</time>
      </trkpt>
      <trkpt lat="42.4191270" lon="-2.4597700">
        <ele>441.5</ele>
        <time>2020-02-09T13:03:51Z</time>
      </trkpt>
      <trkpt lat="42.4191940" lon="-2.4597250">
        <ele>441.4</ele>
        <time>2020-02-09T13:03:52Z</time>
      </trkpt>
      <trkpt lat="42.4192560" lon="-2.4596890">
        <ele>441.3</ele>
        <time>2020-02-09T13:03:53Z</time>
      </trkpt>
      <trkpt lat="42.4193210" lon="-2.4596450">
        <ele>441.3</ele>
        <time>2020-02-09T13:03:54Z</time>
      </trkpt>
      <trkpt lat="42.4193890" lon="-2.4596010">
        <ele>441.3</ele>
        <time>2020-02-09T13:03:55Z</time>
      </trkpt>
      <trkpt lat="42.4194590" lon="-2.4595550">
        <ele>441.3</ele>
        <time>2020-02-09T13:03:56Z</time>
      </trkpt>
      <trkpt lat="42.4195300" lon="-2.4595100">
        <ele>441.3</ele>
        <time>2020-02-09T13:03:57Z</time>
      </trkpt>
      <trkpt lat="42.4195980" lon="-2.4594640">
        <ele>441.3</ele>
        <time>2020-02-09T13:03:58Z</time>
      </trkpt>
      <trkpt lat="42.4196730" lon="-2.4594160">
        <ele>441.3</ele>
        <time>2020-02-09T13:03:59Z</time>
      </trkpt>
      <trkpt lat="42.4197430" lon="-2.4593730">
        <ele>441.2</ele>
        <time>2020-02-09T13:04:00Z</time>
      </trkpt>
      <trkpt lat="42.4198070" lon="-2.4593230">
        <ele>441.2</ele>
        <time>2020-02-09T13:04:01Z</time>
      </trkpt>
      <trkpt lat="42.4198780" lon="-2.4592790">
        <ele>441.2</ele>
        <time>2020-02-09T13:04:02Z</time>
      </trkpt>
      <trkpt lat="42.4199410" lon="-2.4592400">
        <ele>441.2</ele>
        <time>2020-02-09T13:04:03Z</time>
      </trkpt>
      <trkpt lat="42.4200060" lon="-2.4591980">
        <ele>441.2</ele>
        <time>2020-02-09T13:04:04Z</time>
      </trkpt>
      <trkpt lat="42.4200720" lon="-2.4591610">
        <ele>441.2</ele>
        <time>2020-02-09T13:04:05Z</time>
      </trkpt>
      <trkpt lat="42.4201340" lon="-2.4591400">
        <ele>441.2</ele>
        <time>2020-02-09T13:04:06Z</time>
      </trkpt>
      <trkpt lat="42.4201970" lon="-2.4591070">
        <ele>441.2</ele>
        <time>2020-02-09T13:04:07Z</time>
      </trkpt>
      <trkpt lat="42.4202590" lon="-2.4590720">
        <ele>441.2</ele>
        <time>2020-02-09T13:04:08Z</time>
      </trkpt>
      <trkpt lat="42.4203150" lon="-2.4590270">
        <ele>441.2</ele>
        <time>2020-02-09T13:04:09Z</time>
      </trkpt>
      <trkpt lat="42.4203720" lon="-2.4589830">
        <ele>441.2</ele>
        <time>2020-02-09T13:04:10Z</time>
      </trkpt>
      <trkpt lat="42.4204290" lon="-2.4589380">
        <ele>441.2</ele>
        <time>2020-02-09T13:04:11Z</time>
      </trkpt>
      <trkpt lat="42.4204850" lon="-2.4588990">
        <ele>441.2</ele>
        <time>2020-02-09T13:04:12Z</time>
      </trkpt>
      <trkpt lat="42.4205420" lon="-2.4588600">
        <ele>441.1</ele>
        <time>2020-02-09T13:04:13Z</time>
      </trkpt>
      <trkpt lat="42.4205980" lon="-2.4588220">
        <ele>441.1</ele>
        <time>2020-02-09T13:04:14Z</time>
      </trkpt>
      <trkpt lat="42.4206540" lon="-2.4587810">
        <ele>441.1</ele>
        <time>2020-02-09T13:04:15Z</time>
      </trkpt>
      <trkpt lat="42.4207130" lon="-2.4587430">
        <ele>441.1</ele>
        <time>2020-02-09T13:04:16Z</time>
      </trkpt>
      <trkpt lat="42.4207720" lon="-2.4587060">
        <ele>441.1</ele>
        <time>2020-02-09T13:04:17Z</time>
      </trkpt>
      <trkpt lat="42.4208310" lon="-2.4586680">
        <ele>441.1</ele>
        <time>2020-02-09T13:04:18Z</time>
      </trkpt>
      <trkpt lat="42.4209110" lon="-2.4586340">
        <ele>441.1</ele>
        <time>2020-02-09T13:04:20Z</time>
      </trkpt>
      <trkpt lat="42.4209650" lon="-2.4586000">
        <ele>441.1</ele>
        <time>2020-02-09T13:04:21Z</time>
      </trkpt>
      <trkpt lat="42.4210180" lon="-2.4585660">
        <ele>441.1</ele>
        <time>2020-02-09T13:04:22Z</time>
      </trkpt>
      <trkpt lat="42.4210880" lon="-2.4585140">
        <ele>441.1</ele>
        <time>2020-02-09T13:04:23Z</time>
      </trkpt>
      <trkpt lat="42.4211640" lon="-2.4584680">
        <ele>441.1</ele>
        <time>2020-02-09T13:04:24Z</time>
      </trkpt>
      <trkpt lat="42.4212390" lon="-2.4584300">
        <ele>441.0</ele>
        <time>2020-02-09T13:04:25Z</time>
      </trkpt>
      <trkpt lat="42.4213010" lon="-2.4583790">
        <ele>441.0</ele>
        <time>2020-02-09T13:04:26Z</time>
      </trkpt>
      <trkpt lat="42.4213680" lon="-2.4583270">
        <ele>440.9</ele>
        <time>2020-02-09T13:04:27Z</time>
      </trkpt>
      <trkpt lat="42.4214460" lon="-2.4582850">
        <ele>440.8</ele>
        <time>2020-02-09T13:04:28Z</time>
      </trkpt>
      <trkpt lat="42.4215290" lon="-2.4582750">
        <ele>440.6</ele>
        <time>2020-02-09T13:04:29Z</time>
      </trkpt>
      <trkpt lat="42.4216060" lon="-2.4582260">
        <ele>440.3</ele>
        <time>2020-02-09T13:04:30Z</time>
      </trkpt>
      <trkpt lat="42.4216750" lon="-2.4581830">
        <ele>440.1</ele>
        <time>2020-02-09T13:04:31Z</time>
      </trkpt>
      <trkpt lat="42.4217450" lon="-2.4581410">
        <ele>439.9</ele>
        <time>2020-02-09T13:04:32Z</time>
      </trkpt>
      <trkpt lat="42.4218310" lon="-2.4581170">
        <ele>439.6</ele>
        <time>2020-02-09T13:04:33Z</time>
      </trkpt>
      <trkpt lat="42.4218990" lon="-2.4580770">
        <ele>439.4</ele>
        <time>2020-02-09T13:04:34Z</time>
      </trkpt>
      <trkpt lat="42.4219710" lon="-2.4580410">
        <ele>439.2</ele>
        <time>2020-02-09T13:04:35Z</time>
      </trkpt>
      <trkpt lat="42.4220360" lon="-2.4580050">
        <ele>439.0</ele>
        <time>2020-02-09T13:04:36Z</time>
      </trkpt>
      <trkpt lat="42.4221080" lon="-2.4579690">
        <ele>438.7</ele>
        <time>2020-02-09T13:04:37Z</time>
      </trkpt>
      <trkpt lat="42.4221820" lon="-2.4579350">
        <ele>438.4</ele>
        <time>2020-02-09T13:04:38Z</time>
      </trkpt>
      <trkpt lat="42.4222470" lon="-2.4579020">
        <ele>438.2</ele>
        <time>2020-02-09T13:04:39Z</time>
      </trkpt>
      <trkpt lat="42.4222960" lon="-2.4578630">
        <ele>437.9</ele>
        <time>2020-02-09T13:04:41Z</time>
      </trkpt>
      <trkpt lat="42.4223320" lon="-2.4578100">
        <ele>437.9</ele>
        <time>2020-02-09T13:04:42Z</time>
      </trkpt>
      <trkpt lat="42.4223700" lon="-2.4577630">
        <ele>437.9</ele>
        <time>2020-02-09T13:04:43Z</time>
      </trkpt>
      <trkpt lat="42.4224250" lon="-2.4577230">
        <ele>437.4</ele>
        <time>2020-02-09T13:04:44Z</time>
      </trkpt>
      <trkpt lat="42.4224750" lon="-2.4577190">
        <ele>437.2</ele>
        <time>2020-02-09T13:04:45Z</time>
      </trkpt>
      <trkpt lat="42.4225400" lon="-2.4577230">
        <ele>436.9</ele>
        <time>2020-02-09T13:04:46Z</time>
      </trkpt>
      <trkpt lat="42.4226100" lon="-2.4577220">
        <ele>436.6</ele>
        <time>2020-02-09T13:04:47Z</time>
      </trkpt>
      <trkpt lat="42.4226750" lon="-2.4577240">
        <ele>436.3</ele>
        <time>2020-02-09T13:04:48Z</time>
      </trkpt>
      <trkpt lat="42.4227440" lon="-2.4577160">
        <ele>435.6</ele>
        <time>2020-02-09T13:04:49Z</time>
      </trkpt>
      <trkpt lat="42.4228100" lon="-2.4577030">
        <ele>435.5</ele>
        <time>2020-02-09T13:04:50Z</time>
      </trkpt>
      <trkpt lat="42.4228860" lon="-2.4576720">
        <ele>435.4</ele>
        <time>2020-02-09T13:04:51Z</time>
      </trkpt>
      <trkpt lat="42.4229530" lon="-2.4576440">
        <ele>435.2</ele>
        <time>2020-02-09T13:04:52Z</time>
      </trkpt>
      <trkpt lat="42.4230420" lon="-2.4576050">
        <ele>434.9</ele>
        <time>2020-02-09T13:04:53Z</time>
      </trkpt>
      <trkpt lat="42.4231150" lon="-2.4575820">
        <ele>434.6</ele>
        <time>2020-02-09T13:04:54Z</time>
      </trkpt>
      <trkpt lat="42.4231920" lon="-2.4575710">
        <ele>434.3</ele>
        <time>2020-02-09T13:04:55Z</time>
      </trkpt>
      <trkpt lat="42.4232620" lon="-2.4575510">
        <ele>434.1</ele>
        <time>2020-02-09T13:04:56Z</time>
      </trkpt>
      <trkpt lat="42.4233520" lon="-2.4574980">
        <ele>433.7</ele>
        <time>2020-02-09T13:04:57Z</time>
      </trkpt>
      <trkpt lat="42.4234320" lon="-2.4574770">
        <ele>433.4</ele>
        <time>2020-02-09T13:04:58Z</time>
      </trkpt>
      <trkpt lat="42.4235150" lon="-2.4574540">
        <ele>433.1</ele>
        <time>2020-02-09T13:04:59Z</time>
      </trkpt>
      <trkpt lat="42.4235990" lon="-2.4574350">
        <ele>432.9</ele>
        <time>2020-02-09T13:05:00Z</time>
      </trkpt>
      <trkpt lat="42.4236790" lon="-2.4574080">
        <ele>432.7</ele>
        <time>2020-02-09T13:05:01Z</time>
      </trkpt>
      <trkpt lat="42.4237600" lon="-2.4573860">
        <ele>432.5</ele>
        <time>2020-02-09T13:05:02Z</time>
      </trkpt>
      <trkpt lat="42.4238400" lon="-2.4573590">
        <ele>432.3</ele>
        <time>2020-02-09T13:05:03Z</time>
      </trkpt>
      <trkpt lat="42.4239210" lon="-2.4573330">
        <ele>432.1</ele>
        <time>2020-02-09T13:05:04Z</time>
      </trkpt>
      <trkpt lat="42.4240010" lon="-2.4573110">
        <ele>431.9</ele>
        <time>2020-02-09T13:05:05Z</time>
      </trkpt>
      <trkpt lat="42.4240870" lon="-2.4572840">
        <ele>431.7</ele>
        <time>2020-02-09T13:05:06Z</time>
      </trkpt>
      <trkpt lat="42.4241940" lon="-2.4572810">
        <ele>431.5</ele>
        <time>2020-02-09T13:05:07Z</time>
      </trkpt>
      <trkpt lat="42.4242680" lon="-2.4572550">
        <ele>431.3</ele>
        <time>2020-02-09T13:05:08Z</time>
      </trkpt>
      <trkpt lat="42.4243450" lon="-2.4572260">
        <ele>431.1</ele>
        <time>2020-02-09T13:05:09Z</time>
      </trkpt>
      <trkpt lat="42.4244340" lon="-2.4571910">
        <ele>430.8</ele>
        <time>2020-02-09T13:05:10Z</time>
      </trkpt>
      <trkpt lat="42.4245210" lon="-2.4571560">
        <ele>430.7</ele>
        <time>2020-02-09T13:05:11Z</time>
      </trkpt>
      <trkpt lat="42.4245990" lon="-2.4571320">
        <ele>430.6</ele>
        <time>2020-02-09T13:05:12Z</time>
      </trkpt>
      <trkpt lat="42.4246770" lon="-2.4571170">
        <ele>430.4</ele>
        <time>2020-02-09T13:05:13Z</time>
      </trkpt>
      <trkpt lat="42.4247650" lon="-2.4570980">
        <ele>430.1</ele>
        <time>2020-02-09T13:05:14Z</time>
      </trkpt>
      <trkpt lat="42.4248430" lon="-2.4570750">
        <ele>429.8</ele>
        <time>2020-02-09T13:05:15Z</time>
      </trkpt>
      <trkpt lat="42.4249190" lon="-2.4570550">
        <ele>429.5</ele>
        <time>2020-02-09T13:05:16Z</time>
      </trkpt>
      <trkpt lat="42.4249990" lon="-2.4570270">
        <ele>429.2</ele>
        <time>2020-02-09T13:05:17Z</time>
      </trkpt>
      <trkpt lat="42.4250750" lon="-2.4569970">
        <ele>429.0</ele>
        <time>2020-02-09T13:05:18Z</time>
      </trkpt>
      <trkpt lat="42.4251540" lon="-2.4569730">
        <ele>428.8</ele>
        <time>2020-02-09T13:05:19Z</time>
      </trkpt>
      <trkpt lat="42.4252280" lon="-2.4569470">
        <ele>428.7</ele>
        <time>2020-02-09T13:05:20Z</time>
      </trkpt>
      <trkpt lat="42.4253060" lon="-2.4569210">
        <ele>428.6</ele>
        <time>2020-02-09T13:05:21Z</time>
      </trkpt>
      <trkpt lat="42.4253850" lon="-2.4568980">
        <ele>428.4</ele>
        <time>2020-02-09T13:05:22Z</time>
      </trkpt>
      <trkpt lat="42.4254600" lon="-2.4568770">
        <ele>428.2</ele>
        <time>2020-02-09T13:05:23Z</time>
      </trkpt>
      <trkpt lat="42.4255410" lon="-2.4568550">
        <ele>428.0</ele>
        <time>2020-02-09T13:05:24Z</time>
      </trkpt>
      <trkpt lat="42.4256160" lon="-2.4568340">
        <ele>427.9</ele>
        <time>2020-02-09T13:05:25Z</time>
      </trkpt>
      <trkpt lat="42.4256960" lon="-2.4568070">
        <ele>427.8</ele>
        <time>2020-02-09T13:05:26Z</time>
      </trkpt>
      <trkpt lat="42.4257860" lon="-2.4567640">
        <ele>427.7</ele>
        <time>2020-02-09T13:05:27Z</time>
      </trkpt>
      <trkpt lat="42.4258810" lon="-2.4567210">
        <ele>427.4</ele>
        <time>2020-02-09T13:05:28Z</time>
      </trkpt>
      <trkpt lat="42.4259600" lon="-2.4566980">
        <ele>427.1</ele>
        <time>2020-02-09T13:05:29Z</time>
      </trkpt>
      <trkpt lat="42.4260450" lon="-2.4566730">
        <ele>426.7</ele>
        <time>2020-02-09T13:05:30Z</time>
      </trkpt>
      <trkpt lat="42.4261250" lon="-2.4566460">
        <ele>426.4</ele>
        <time>2020-02-09T13:05:31Z</time>
      </trkpt>
      <trkpt lat="42.4262060" lon="-2.4566190">
        <ele>426.1</ele>
        <time>2020-02-09T13:05:32Z</time>
      </trkpt>
      <trkpt lat="42.4262860" lon="-2.4565980">
        <ele>425.9</ele>
        <time>2020-02-09T13:05:33Z</time>
      </trkpt>
      <trkpt lat="42.4263670" lon="-2.4565710">
        <ele>425.7</ele>
        <time>2020-02-09T13:05:34Z</time>
      </trkpt>
      <trkpt lat="42.4264530" lon="-2.4565490">
        <ele>425.5</ele>
        <time>2020-02-09T13:05:35Z</time>
      </trkpt>
      <trkpt lat="42.4265330" lon="-2.4565230">
        <ele>425.3</ele>
        <time>2020-02-09T13:05:36Z</time>
      </trkpt>
      <trkpt lat="42.4266140" lon="-2.4564960">
        <ele>425.1</ele>
        <time>2020-02-09T13:05:37Z</time>
      </trkpt>
      <trkpt lat="42.4266940" lon="-2.4564740">
        <ele>425.0</ele>
        <time>2020-02-09T13:05:38Z</time>
      </trkpt>
      <trkpt lat="42.4267750" lon="-2.4564470">
        <ele>424.9</ele>
        <time>2020-02-09T13:05:39Z</time>
      </trkpt>
      <trkpt lat="42.4268550" lon="-2.4564210">
        <ele>424.9</ele>
        <time>2020-02-09T13:05:40Z</time>
      </trkpt>
      <trkpt lat="42.4269680" lon="-2.4563940">
        <ele>424.9</ele>
        <time>2020-02-09T13:05:42Z</time>
      </trkpt>
      <trkpt lat="42.4270480" lon="-2.4563630">
        <ele>424.7</ele>
        <time>2020-02-09T13:05:43Z</time>
      </trkpt>
      <trkpt lat="42.4271150" lon="-2.4563470">
        <ele>424.5</ele>
        <time>2020-02-09T13:05:44Z</time>
      </trkpt>
      <trkpt lat="42.4271980" lon="-2.4563160">
        <ele>424.3</ele>
        <time>2020-02-09T13:05:45Z</time>
      </trkpt>
      <trkpt lat="42.4272710" lon="-2.4562910">
        <ele>424.2</ele>
        <time>2020-02-09T13:05:46Z</time>
      </trkpt>
      <trkpt lat="42.4273590" lon="-2.4562530">
        <ele>424.0</ele>
        <time>2020-02-09T13:05:47Z</time>
      </trkpt>
      <trkpt lat="42.4274380" lon="-2.4562210">
        <ele>424.0</ele>
        <time>2020-02-09T13:05:48Z</time>
      </trkpt>
      <trkpt lat="42.4275100" lon="-2.4562150">
        <ele>423.9</ele>
        <time>2020-02-09T13:05:49Z</time>
      </trkpt>
      <trkpt lat="42.4275920" lon="-2.4561750">
        <ele>423.9</ele>
        <time>2020-02-09T13:05:50Z</time>
      </trkpt>
      <trkpt lat="42.4276680" lon="-2.4561430">
        <ele>423.9</ele>
        <time>2020-02-09T13:05:51Z</time>
      </trkpt>
      <trkpt lat="42.4277350" lon="-2.4561260">
        <ele>423.8</ele>
        <time>2020-02-09T13:05:52Z</time>
      </trkpt>
      <trkpt lat="42.4278020" lon="-2.4561060">
        <ele>423.8</ele>
        <time>2020-02-09T13:05:53Z</time>
      </trkpt>
      <trkpt lat="42.4278810" lon="-2.4560900">
        <ele>423.8</ele>
        <time>2020-02-09T13:05:54Z</time>
      </trkpt>
      <trkpt lat="42.4279680" lon="-2.4560690">
        <ele>423.8</ele>
        <time>2020-02-09T13:05:55Z</time>
      </trkpt>
      <trkpt lat="42.4280430" lon="-2.4560500">
        <ele>423.8</ele>
        <time>2020-02-09T13:05:56Z</time>
      </trkpt>
      <trkpt lat="42.4281210" lon="-2.4560290">
        <ele>423.6</ele>
        <time>2020-02-09T13:05:57Z</time>
      </trkpt>
      <trkpt lat="42.4281990" lon="-2.4560000">
        <ele>423.4</ele>
        <time>2020-02-09T13:05:58Z</time>
      </trkpt>
      <trkpt lat="42.4282710" lon="-2.4559760">
        <ele>423.2</ele>
        <time>2020-02-09T13:05:59Z</time>
      </trkpt>
      <trkpt lat="42.4283400" lon="-2.4559490">
        <ele>423.1</ele>
        <time>2020-02-09T13:06:00Z</time>
      </trkpt>
      <trkpt lat="42.4284150" lon="-2.4559290">
        <ele>423.0</ele>
        <time>2020-02-09T13:06:01Z</time>
      </trkpt>
      <trkpt lat="42.4284870" lon="-2.4559010">
        <ele>422.9</ele>
        <time>2020-02-09T13:06:02Z</time>
      </trkpt>
      <trkpt lat="42.4285610" lon="-2.4558790">
        <ele>422.8</ele>
        <time>2020-02-09T13:06:03Z</time>
      </trkpt>
      <trkpt lat="42.4286360" lon="-2.4558550">
        <ele>422.8</ele>
        <time>2020-02-09T13:06:04Z</time>
      </trkpt>
      <trkpt lat="42.4287110" lon="-2.4558290">
        <ele>422.7</ele>
        <time>2020-02-09T13:06:05Z</time>
      </trkpt>
      <trkpt lat="42.4287850" lon="-2.4558050">
        <ele>422.7</ele>
        <time>2020-02-09T13:06:06Z</time>
      </trkpt>
      <trkpt lat="42.4288590" lon="-2.4557850">
        <ele>422.6</ele>
        <time>2020-02-09T13:06:07Z</time>
      </trkpt>
      <trkpt lat="42.4289410" lon="-2.4557520">
        <ele>422.6</ele>
        <time>2020-02-09T13:06:08Z</time>
      </trkpt>
      <trkpt lat="42.4290180" lon="-2.4557220">
        <ele>422.6</ele>
        <time>2020-02-09T13:06:09Z</time>
      </trkpt>
      <trkpt lat="42.4290920" lon="-2.4556910">
        <ele>422.6</ele>
        <time>2020-02-09T13:06:10Z</time>
      </trkpt>
      <trkpt lat="42.4291720" lon="-2.4556640">
        <ele>422.5</ele>
        <time>2020-02-09T13:06:11Z</time>
      </trkpt>
      <trkpt lat="42.4292470" lon="-2.4556370">
        <ele>422.4</ele>
        <time>2020-02-09T13:06:12Z</time>
      </trkpt>
      <trkpt lat="42.4293230" lon="-2.4556050">
        <ele>422.3</ele>
        <time>2020-02-09T13:06:13Z</time>
      </trkpt>
      <trkpt lat="42.4294620" lon="-2.4555840">
        <ele>422.0</ele>
        <time>2020-02-09T13:06:14Z</time>
      </trkpt>
      <trkpt lat="42.4295310" lon="-2.4555670">
        <ele>421.9</ele>
        <time>2020-02-09T13:06:15Z</time>
      </trkpt>
      <trkpt lat="42.4296000" lon="-2.4555500">
        <ele>421.7</ele>
        <time>2020-02-09T13:06:16Z</time>
      </trkpt>
      <trkpt lat="42.4296720" lon="-2.4555280">
        <ele>421.6</ele>
        <time>2020-02-09T13:06:17Z</time>
      </trkpt>
      <trkpt lat="42.4297650" lon="-2.4555140">
        <ele>421.5</ele>
        <time>2020-02-09T13:06:18Z</time>
      </trkpt>
      <trkpt lat="42.4298430" lon="-2.4554930">
        <ele>421.5</ele>
        <time>2020-02-09T13:06:19Z</time>
      </trkpt>
      <trkpt lat="42.4299410" lon="-2.4554460">
        <ele>421.5</ele>
        <time>2020-02-09T13:06:20Z</time>
      </trkpt>
      <trkpt lat="42.4299970" lon="-2.4553500">
        <ele>421.5</ele>
        <time>2020-02-09T13:06:21Z</time>
      </trkpt>
      <trkpt lat="42.4300810" lon="-2.4553110">
        <ele>421.5</ele>
        <time>2020-02-09T13:06:22Z</time>
      </trkpt>
      <trkpt lat="42.4301550" lon="-2.4553460">
        <ele>421.4</ele>
        <time>2020-02-09T13:06:23Z</time>
      </trkpt>
      <trkpt lat="42.4302400" lon="-2.4553210">
        <ele>421.4</ele>
        <time>2020-02-09T13:06:24Z</time>
      </trkpt>
      <trkpt lat="42.4302740" lon="-2.4553060">
        <ele>421.4</ele>
        <time>2020-02-09T13:06:25Z</time>
      </trkpt>
      <trkpt lat="42.4303420" lon="-2.4553250">
        <ele>421.3</ele>
        <time>2020-02-09T13:06:26Z</time>
      </trkpt>
      <trkpt lat="42.4304120" lon="-2.4553090">
        <ele>421.2</ele>
        <time>2020-02-09T13:06:27Z</time>
      </trkpt>
      <trkpt lat="42.4305200" lon="-2.4552570">
        <ele>421.0</ele>
        <time>2020-02-09T13:06:28Z</time>
      </trkpt>
      <trkpt lat="42.4305950" lon="-2.4552360">
        <ele>420.9</ele>
        <time>2020-02-09T13:06:29Z</time>
      </trkpt>
      <trkpt lat="42.4306630" lon="-2.4552140">
        <ele>420.7</ele>
        <time>2020-02-09T13:06:30Z</time>
      </trkpt>
      <trkpt lat="42.4307310" lon="-2.4551550">
        <ele>420.5</ele>
        <time>2020-02-09T13:06:31Z</time>
      </trkpt>
      <trkpt lat="42.4308110" lon="-2.4551030">
        <ele>420.4</ele>
        <time>2020-02-09T13:06:32Z</time>
      </trkpt>
      <trkpt lat="42.4308860" lon="-2.4550710">
        <ele>420.3</ele>
        <time>2020-02-09T13:06:33Z</time>
      </trkpt>
      <trkpt lat="42.4309550" lon="-2.4550840">
        <ele>420.2</ele>
        <time>2020-02-09T13:06:34Z</time>
      </trkpt>
      <trkpt lat="42.4310390" lon="-2.4550650">
        <ele>420.0</ele>
        <time>2020-02-09T13:06:35Z</time>
      </trkpt>
      <trkpt lat="42.4311250" lon="-2.4550520">
        <ele>419.8</ele>
        <time>2020-02-09T13:06:36Z</time>
      </trkpt>
      <trkpt lat="42.4312000" lon="-2.4550410">
        <ele>419.7</ele>
        <time>2020-02-09T13:06:37Z</time>
      </trkpt>
      <trkpt lat="42.4312730" lon="-2.4550270">
        <ele>419.5</ele>
        <time>2020-02-09T13:06:38Z</time>
      </trkpt>
      <trkpt lat="42.4313480" lon="-2.4550030">
        <ele>419.4</ele>
        <time>2020-02-09T13:06:39Z</time>
      </trkpt>
      <trkpt lat="42.4314210" lon="-2.4549710">
        <ele>419.3</ele>
        <time>2020-02-09T13:06:40Z</time>
      </trkpt>
      <trkpt lat="42.4314980" lon="-2.4549760">
        <ele>419.3</ele>
        <time>2020-02-09T13:06:41Z</time>
      </trkpt>
      <trkpt lat="42.4315910" lon="-2.4549300">
        <ele>419.3</ele>
        <time>2020-02-09T13:06:42Z</time>
      </trkpt>
      <trkpt lat="42.4316710" lon="-2.4549060">
        <ele>419.2</ele>
        <time>2020-02-09T13:06:43Z</time>
      </trkpt>
      <trkpt lat="42.4317470" lon="-2.4549010">
        <ele>419.2</ele>
        <time>2020-02-09T13:06:44Z</time>
      </trkpt>
      <trkpt lat="42.4318330" lon="-2.4548920">
        <ele>419.1</ele>
        <time>2020-02-09T13:06:45Z</time>
      </trkpt>
      <trkpt lat="42.4319080" lon="-2.4548810">
        <ele>419.0</ele>
        <time>2020-02-09T13:06:46Z</time>
      </trkpt>
      <trkpt lat="42.4319460" lon="-2.4548230">
        <ele>418.9</ele>
        <time>2020-02-09T13:06:47Z</time>
      </trkpt>
      <trkpt lat="42.4320240" lon="-2.4548170">
        <ele>418.7</ele>
        <time>2020-02-09T13:06:48Z</time>
      </trkpt>
      <trkpt lat="42.4320990" lon="-2.4548030">
        <ele>418.5</ele>
        <time>2020-02-09T13:06:49Z</time>
      </trkpt>
      <trkpt lat="42.4321630" lon="-2.4547800">
        <ele>418.4</ele>
        <time>2020-02-09T13:06:50Z</time>
      </trkpt>
      <trkpt lat="42.4322250" lon="-2.4547480">
        <ele>418.3</ele>
        <time>2020-02-09T13:06:51Z</time>
      </trkpt>
      <trkpt lat="42.4322880" lon="-2.4547160">
        <ele>418.3</ele>
        <time>2020-02-09T13:06:52Z</time>
      </trkpt>
      <trkpt lat="42.4323530" lon="-2.4546920">
        <ele>418.2</ele>
        <time>2020-02-09T13:06:53Z</time>
      </trkpt>
      <trkpt lat="42.4324140" lon="-2.4546640">
        <ele>418.2</ele>
        <time>2020-02-09T13:06:54Z</time>
      </trkpt>
      <trkpt lat="42.4324760" lon="-2.4546400">
        <ele>418.2</ele>
        <time>2020-02-09T13:06:55Z</time>
      </trkpt>
      <trkpt lat="42.4325330" lon="-2.4546100">
        <ele>418.2</ele>
        <time>2020-02-09T13:06:56Z</time>
      </trkpt>
      <trkpt lat="42.4325910" lon="-2.4545820">
        <ele>418.2</ele>
        <time>2020-02-09T13:06:57Z</time>
      </trkpt>
      <trkpt lat="42.4326560" lon="-2.4545500">
        <ele>418.0</ele>
        <time>2020-02-09T13:06:58Z</time>
      </trkpt>
      <trkpt lat="42.4327170" lon="-2.4545160">
        <ele>417.8</ele>
        <time>2020-02-09T13:06:59Z</time>
      </trkpt>
      <trkpt lat="42.4327770" lon="-2.4544840">
        <ele>417.7</ele>
        <time>2020-02-09T13:07:00Z</time>
      </trkpt>
      <trkpt lat="42.4328420" lon="-2.4544470">
        <ele>417.6</ele>
        <time>2020-02-09T13:07:01Z</time>
      </trkpt>
      <trkpt lat="42.4330020" lon="-2.4543810">
        <ele>417.2</ele>
        <time>2020-02-09T13:07:02Z</time>
      </trkpt>
      <trkpt lat="42.4330390" lon="-2.4543700">
        <ele>417.2</ele>
        <time>2020-02-09T13:07:03Z</time>
      </trkpt>
      <trkpt lat="42.4331050" lon="-2.4543640">
        <ele>417.1</ele>
        <time>2020-02-09T13:07:04Z</time>
      </trkpt>
      <trkpt lat="42.4331790" lon="-2.4543430">
        <ele>417.0</ele>
        <time>2020-02-09T13:07:05Z</time>
      </trkpt>
      <trkpt lat="42.4332540" lon="-2.4543240">
        <ele>417.0</ele>
        <time>2020-02-09T13:07:06Z</time>
      </trkpt>
      <trkpt lat="42.4333300" lon="-2.4543020">
        <ele>417.0</ele>
        <time>2020-02-09T13:07:07Z</time>
      </trkpt>
      <trkpt lat="42.4334000" lon="-2.4542860">
        <ele>416.9</ele>
        <time>2020-02-09T13:07:08Z</time>
      </trkpt>
      <trkpt lat="42.4334750" lon="-2.4542640">
        <ele>417.0</ele>
        <time>2020-02-09T13:07:09Z</time>
      </trkpt>
      <trkpt lat="42.4335270" lon="-2.4543070">
        <ele>417.0</ele>
        <time>2020-02-09T13:07:10Z</time>
      </trkpt>
      <trkpt lat="42.4335850" lon="-2.4542970">
        <ele>417.0</ele>
        <time>2020-02-09T13:07:11Z</time>
      </trkpt>
      <trkpt lat="42.4336670" lon="-2.4542940">
        <ele>417.0</ele>
        <time>2020-02-09T13:07:12Z</time>
      </trkpt>
      <trkpt lat="42.4337440" lon="-2.4542860">
        <ele>417.0</ele>
        <time>2020-02-09T13:07:13Z</time>
      </trkpt>
      <trkpt lat="42.4338390" lon="-2.4542700">
        <ele>417.1</ele>
        <time>2020-02-09T13:07:14Z</time>
      </trkpt>
      <trkpt lat="42.4339240" lon="-2.4542580">
        <ele>417.1</ele>
        <time>2020-02-09T13:07:15Z</time>
      </trkpt>
      <trkpt lat="42.4340060" lon="-2.4542370">
        <ele>417.1</ele>
        <time>2020-02-09T13:07:16Z</time>
      </trkpt>
      <trkpt lat="42.4340920" lon="-2.4542160">
        <ele>417.0</ele>
        <time>2020-02-09T13:07:17Z</time>
      </trkpt>
      <trkpt lat="42.4341770" lon="-2.4541530">
        <ele>417.0</ele>
        <time>2020-02-09T13:07:18Z</time>
      </trkpt>
      <trkpt lat="42.4342610" lon="-2.4541000">
        <ele>416.8</ele>
        <time>2020-02-09T13:07:19Z</time>
      </trkpt>
      <trkpt lat="42.4343440" lon="-2.4540630">
        <ele>416.7</ele>
        <time>2020-02-09T13:07:20Z</time>
      </trkpt>
      <trkpt lat="42.4344510" lon="-2.4541030">
        <ele>416.5</ele>
        <time>2020-02-09T13:07:21Z</time>
      </trkpt>
      <trkpt lat="42.4345350" lon="-2.4540750">
        <ele>416.4</ele>
        <time>2020-02-09T13:07:22Z</time>
      </trkpt>
      <trkpt lat="42.4346240" lon="-2.4540170">
        <ele>416.2</ele>
        <time>2020-02-09T13:07:23Z</time>
      </trkpt>
      <trkpt lat="42.4347170" lon="-2.4539720">
        <ele>416.2</ele>
        <time>2020-02-09T13:07:24Z</time>
      </trkpt>
      <trkpt lat="42.4348040" lon="-2.4539380">
        <ele>416.2</ele>
        <time>2020-02-09T13:07:25Z</time>
      </trkpt>
      <trkpt lat="42.4349000" lon="-2.4538920">
        <ele>416.2</ele>
        <time>2020-02-09T13:07:26Z</time>
      </trkpt>
      <trkpt lat="42.4349980" lon="-2.4538300">
        <ele>416.2</ele>
        <time>2020-02-09T13:07:27Z</time>
      </trkpt>
      <trkpt lat="42.4350950" lon="-2.4537760">
        <ele>416.1</ele>
        <time>2020-02-09T13:07:28Z</time>
      </trkpt>
      <trkpt lat="42.4351910" lon="-2.4537220">
        <ele>415.9</ele>
        <time>2020-02-09T13:07:29Z</time>
      </trkpt>
      <trkpt lat="42.4352880" lon="-2.4536690">
        <ele>415.7</ele>
        <time>2020-02-09T13:07:30Z</time>
      </trkpt>
      <trkpt lat="42.4353840" lon="-2.4536100">
        <ele>415.5</ele>
        <time>2020-02-09T13:07:31Z</time>
      </trkpt>
      <trkpt lat="42.4354170" lon="-2.4537060">
        <ele>415.3</ele>
        <time>2020-02-09T13:07:32Z</time>
      </trkpt>
      <trkpt lat="42.4355060" lon="-2.4536750">
        <ele>415.3</ele>
        <time>2020-02-09T13:07:33Z</time>
      </trkpt>
      <trkpt lat="42.4355820" lon="-2.4536580">
        <ele>415.3</ele>
        <time>2020-02-09T13:07:34Z</time>
      </trkpt>
      <trkpt lat="42.4356540" lon="-2.4536470">
        <ele>415.2</ele>
        <time>2020-02-09T13:07:35Z</time>
      </trkpt>
      <trkpt lat="42.4357320" lon="-2.4536360">
        <ele>415.2</ele>
        <time>2020-02-09T13:07:36Z</time>
      </trkpt>
      <trkpt lat="42.4358140" lon="-2.4536260">
        <ele>415.2</ele>
        <time>2020-02-09T13:07:37Z</time>
      </trkpt>
      <trkpt lat="42.4358990" lon="-2.4535990">
        <ele>415.2</ele>
        <time>2020-02-09T13:07:38Z</time>
      </trkpt>
      <trkpt lat="42.4359850" lon="-2.4535670">
        <ele>415.1</ele>
        <time>2020-02-09T13:07:39Z</time>
      </trkpt>
      <trkpt lat="42.4360710" lon="-2.4535400">
        <ele>415.0</ele>
        <time>2020-02-09T13:07:40Z</time>
      </trkpt>
      <trkpt lat="42.4361570" lon="-2.4535130">
        <ele>414.8</ele>
        <time>2020-02-09T13:07:41Z</time>
      </trkpt>
      <trkpt lat="42.4362430" lon="-2.4534860">
        <ele>414.5</ele>
        <time>2020-02-09T13:07:42Z</time>
      </trkpt>
      <trkpt lat="42.4363290" lon="-2.4534600">
        <ele>414.3</ele>
        <time>2020-02-09T13:07:43Z</time>
      </trkpt>
      <trkpt lat="42.4364520" lon="-2.4534330">
        <ele>414.1</ele>
        <time>2020-02-09T13:07:44Z</time>
      </trkpt>
      <trkpt lat="42.4365190" lon="-2.4534190">
        <ele>414.1</ele>
        <time>2020-02-09T13:07:45Z</time>
      </trkpt>
      <trkpt lat="42.4365920" lon="-2.4534140">
        <ele>414.0</ele>
        <time>2020-02-09T13:07:46Z</time>
      </trkpt>
      <trkpt lat="42.4366750" lon="-2.4533870">
        <ele>414.0</ele>
        <time>2020-02-09T13:07:47Z</time>
      </trkpt>
      <trkpt lat="42.4367530" lon="-2.4533790">
        <ele>413.9</ele>
        <time>2020-02-09T13:07:48Z</time>
      </trkpt>
      <trkpt lat="42.4368290" lon="-2.4533470">
        <ele>413.7</ele>
        <time>2020-02-09T13:07:49Z</time>
      </trkpt>
      <trkpt lat="42.4369120" lon="-2.4533280">
        <ele>413.5</ele>
        <time>2020-02-09T13:07:50Z</time>
      </trkpt>
      <trkpt lat="42.4369850" lon="-2.4533010">
        <ele>413.3</ele>
        <time>2020-02-09T13:07:51Z</time>
      </trkpt>
      <trkpt lat="42.4370650" lon="-2.4532770">
        <ele>413.1</ele>
        <time>2020-02-09T13:07:52Z</time>
      </trkpt>
      <trkpt lat="42.4371390" lon="-2.4532500">
        <ele>413.0</ele>
        <time>2020-02-09T13:07:53Z</time>
      </trkpt>
      <trkpt lat="42.4372090" lon="-2.4532280">
        <ele>412.9</ele>
        <time>2020-02-09T13:07:54Z</time>
      </trkpt>
      <trkpt lat="42.4372860" lon="-2.4532170">
        <ele>412.8</ele>
        <time>2020-02-09T13:07:55Z</time>
      </trkpt>
      <trkpt lat="42.4373540" lon="-2.4531870">
        <ele>412.8</ele>
        <time>2020-02-09T13:07:56Z</time>
      </trkpt>
      <trkpt lat="42.4374200" lon="-2.4531680">
        <ele>412.9</ele>
        <time>2020-02-09T13:07:57Z</time>
      </trkpt>
      <trkpt lat="42.4374800" lon="-2.4531490">
        <ele>412.9</ele>
        <time>2020-02-09T13:07:58Z</time>
      </trkpt>
      <trkpt lat="42.4375330" lon="-2.4531250">
        <ele>412.9</ele>
        <time>2020-02-09T13:07:59Z</time>
      </trkpt>
      <trkpt lat="42.4375630" lon="-2.4530750">
        <ele>412.9</ele>
        <time>2020-02-09T13:08:00Z</time>
      </trkpt>
      <trkpt lat="42.4376110" lon="-2.4530470">
        <ele>412.9</ele>
        <time>2020-02-09T13:08:01Z</time>
      </trkpt>
      <trkpt lat="42.4376440" lon="-2.4530140">
        <ele>412.9</ele>
        <time>2020-02-09T13:08:02Z</time>
      </trkpt>
      <trkpt lat="42.4377380" lon="-2.4529640">
        <ele>412.8</ele>
        <time>2020-02-09T13:08:03Z</time>
      </trkpt>
      <trkpt lat="42.4378010" lon="-2.4530100">
        <ele>412.8</ele>
        <time>2020-02-09T13:08:04Z</time>
      </trkpt>
      <trkpt lat="42.4378540" lon="-2.4530360">
        <ele>412.8</ele>
        <time>2020-02-09T13:08:05Z</time>
      </trkpt>
      <trkpt lat="42.4379080" lon="-2.4530390">
        <ele>412.8</ele>
        <time>2020-02-09T13:08:06Z</time>
      </trkpt>
      <trkpt lat="42.4379630" lon="-2.4530220">
        <ele>412.7</ele>
        <time>2020-02-09T13:08:07Z</time>
      </trkpt>
      <trkpt lat="42.4380230" lon="-2.4529960">
        <ele>412.7</ele>
        <time>2020-02-09T13:08:08Z</time>
      </trkpt>
      <trkpt lat="42.4380800" lon="-2.4529730">
        <ele>412.7</ele>
        <time>2020-02-09T13:08:09Z</time>
      </trkpt>
      <trkpt lat="42.4381350" lon="-2.4529570">
        <ele>412.7</ele>
        <time>2020-02-09T13:08:10Z</time>
      </trkpt>
      <trkpt lat="42.4381970" lon="-2.4529410">
        <ele>412.6</ele>
        <time>2020-02-09T13:08:11Z</time>
      </trkpt>
      <trkpt lat="42.4382540" lon="-2.4529290">
        <ele>412.5</ele>
        <time>2020-02-09T13:08:12Z</time>
      </trkpt>
      <trkpt lat="42.4383080" lon="-2.4529040">
        <ele>412.4</ele>
        <time>2020-02-09T13:08:13Z</time>
      </trkpt>
      <trkpt lat="42.4383650" lon="-2.4528950">
        <ele>412.3</ele>
        <time>2020-02-09T13:08:14Z</time>
      </trkpt>
      <trkpt lat="42.4384290" lon="-2.4528780">
        <ele>412.2</ele>
        <time>2020-02-09T13:08:15Z</time>
      </trkpt>
      <trkpt lat="42.4384940" lon="-2.4528620">
        <ele>412.1</ele>
        <time>2020-02-09T13:08:16Z</time>
      </trkpt>
      <trkpt lat="42.4385550" lon="-2.4528440">
        <ele>411.9</ele>
        <time>2020-02-09T13:08:17Z</time>
      </trkpt>
      <trkpt lat="42.4386120" lon="-2.4528190">
        <ele>411.9</ele>
        <time>2020-02-09T13:08:18Z</time>
      </trkpt>
      <trkpt lat="42.4386740" lon="-2.4528020">
        <ele>411.8</ele>
        <time>2020-02-09T13:08:19Z</time>
      </trkpt>
      <trkpt lat="42.4387370" lon="-2.4527860">
        <ele>411.7</ele>
        <time>2020-02-09T13:08:20Z</time>
      </trkpt>
      <trkpt lat="42.4387930" lon="-2.4527680">
        <ele>411.6</ele>
        <time>2020-02-09T13:08:21Z</time>
      </trkpt>
      <trkpt lat="42.4388670" lon="-2.4527480">
        <ele>411.5</ele>
        <time>2020-02-09T13:08:22Z</time>
      </trkpt>
      <trkpt lat="42.4389400" lon="-2.4527250">
        <ele>411.2</ele>
        <time>2020-02-09T13:08:23Z</time>
      </trkpt>
      <trkpt lat="42.4390100" lon="-2.4526950">
        <ele>411.0</ele>
        <time>2020-02-09T13:08:24Z</time>
      </trkpt>
      <trkpt lat="42.4390760" lon="-2.4526720">
        <ele>410.7</ele>
        <time>2020-02-09T13:08:25Z</time>
      </trkpt>
      <trkpt lat="42.4391440" lon="-2.4526530">
        <ele>410.7</ele>
        <time>2020-02-09T13:08:26Z</time>
      </trkpt>
      <trkpt lat="42.4392090" lon="-2.4526330">
        <ele>410.7</ele>
        <time>2020-02-09T13:08:27Z</time>
      </trkpt>
      <trkpt lat="42.4392570" lon="-2.4526040">
        <ele>410.8</ele>
        <time>2020-02-09T13:08:28Z</time>
      </trkpt>
      <trkpt lat="42.4393190" lon="-2.4525830">
        <ele>410.8</ele>
        <time>2020-02-09T13:08:29Z</time>
      </trkpt>
      <trkpt lat="42.4393830" lon="-2.4525580">
        <ele>410.8</ele>
        <time>2020-02-09T13:08:30Z</time>
      </trkpt>
      <trkpt lat="42.4394500" lon="-2.4525290">
        <ele>410.8</ele>
        <time>2020-02-09T13:08:31Z</time>
      </trkpt>
      <trkpt lat="42.4395180" lon="-2.4525090">
        <ele>410.8</ele>
        <time>2020-02-09T13:08:32Z</time>
      </trkpt>
      <trkpt lat="42.4395920" lon="-2.4524840">
        <ele>410.8</ele>
        <time>2020-02-09T13:08:33Z</time>
      </trkpt>
      <trkpt lat="42.4396650" lon="-2.4524510">
        <ele>410.8</ele>
        <time>2020-02-09T13:08:34Z</time>
      </trkpt>
      <trkpt lat="42.4397340" lon="-2.4524260">
        <ele>410.8</ele>
        <time>2020-02-09T13:08:35Z</time>
      </trkpt>
      <trkpt lat="42.4398050" lon="-2.4524030">
        <ele>410.8</ele>
        <time>2020-02-09T13:08:36Z</time>
      </trkpt>
      <trkpt lat="42.4398690" lon="-2.4523760">
        <ele>410.8</ele>
        <time>2020-02-09T13:08:37Z</time>
      </trkpt>
      <trkpt lat="42.4399390" lon="-2.4523540">
        <ele>410.8</ele>
        <time>2020-02-09T13:08:38Z</time>
      </trkpt>
      <trkpt lat="42.4400090" lon="-2.4523280">
        <ele>410.7</ele>
        <time>2020-02-09T13:08:39Z</time>
      </trkpt>
      <trkpt lat="42.4401150" lon="-2.4522670">
        <ele>410.6</ele>
        <time>2020-02-09T13:08:40Z</time>
      </trkpt>
      <trkpt lat="42.4401930" lon="-2.4522430">
        <ele>410.5</ele>
        <time>2020-02-09T13:08:41Z</time>
      </trkpt>
      <trkpt lat="42.4402810" lon="-2.4522320">
        <ele>410.4</ele>
        <time>2020-02-09T13:08:42Z</time>
      </trkpt>
      <trkpt lat="42.4403610" lon="-2.4522060">
        <ele>410.3</ele>
        <time>2020-02-09T13:08:43Z</time>
      </trkpt>
      <trkpt lat="42.4404420" lon="-2.4521810">
        <ele>410.3</ele>
        <time>2020-02-09T13:08:44Z</time>
      </trkpt>
      <trkpt lat="42.4405220" lon="-2.4521770">
        <ele>410.2</ele>
        <time>2020-02-09T13:08:45Z</time>
      </trkpt>
      <trkpt lat="42.4405940" lon="-2.4521700">
        <ele>410.2</ele>
        <time>2020-02-09T13:08:46Z</time>
      </trkpt>
      <trkpt lat="42.4406720" lon="-2.4521570">
        <ele>410.2</ele>
        <time>2020-02-09T13:08:47Z</time>
      </trkpt>
      <trkpt lat="42.4407380" lon="-2.4521290">
        <ele>410.0</ele>
        <time>2020-02-09T13:08:48Z</time>
      </trkpt>
      <trkpt lat="42.4408140" lon="-2.4521070">
        <ele>409.7</ele>
        <time>2020-02-09T13:08:49Z</time>
      </trkpt>
      <trkpt lat="42.4408860" lon="-2.4521070">
        <ele>409.6</ele>
        <time>2020-02-09T13:08:50Z</time>
      </trkpt>
      <trkpt lat="42.4409640" lon="-2.4520830">
        <ele>409.4</ele>
        <time>2020-02-09T13:08:51Z</time>
      </trkpt>
      <trkpt lat="42.4410440" lon="-2.4520600">
        <ele>409.3</ele>
        <time>2020-02-09T13:08:52Z</time>
      </trkpt>
      <trkpt lat="42.4411240" lon="-2.4520380">
        <ele>409.2</ele>
        <time>2020-02-09T13:08:53Z</time>
      </trkpt>
      <trkpt lat="42.4411990" lon="-2.4520110">
        <ele>409.1</ele>
        <time>2020-02-09T13:08:54Z</time>
      </trkpt>
      <trkpt lat="42.4412800" lon="-2.4519900">
        <ele>408.9</ele>
        <time>2020-02-09T13:08:55Z</time>
      </trkpt>
      <trkpt lat="42.4413620" lon="-2.4519320">
        <ele>408.8</ele>
        <time>2020-02-09T13:08:56Z</time>
      </trkpt>
      <trkpt lat="42.4414490" lon="-2.4519170">
        <ele>408.7</ele>
        <time>2020-02-09T13:08:57Z</time>
      </trkpt>
      <trkpt lat="42.4415340" lon="-2.4518940">
        <ele>408.5</ele>
        <time>2020-02-09T13:08:58Z</time>
      </trkpt>
      <trkpt lat="42.4416180" lon="-2.4518720">
        <ele>408.4</ele>
        <time>2020-02-09T13:08:59Z</time>
      </trkpt>
      <trkpt lat="42.4417040" lon="-2.4518090">
        <ele>408.3</ele>
        <time>2020-02-09T13:09:00Z</time>
      </trkpt>
      <trkpt lat="42.4417790" lon="-2.4517880">
        <ele>408.2</ele>
        <time>2020-02-09T13:09:01Z</time>
      </trkpt>
      <trkpt lat="42.4418630" lon="-2.4517620">
        <ele>408.2</ele>
        <time>2020-02-09T13:09:02Z</time>
      </trkpt>
      <trkpt lat="42.4419440" lon="-2.4517350">
        <ele>408.1</ele>
        <time>2020-02-09T13:09:03Z</time>
      </trkpt>
      <trkpt lat="42.4420320" lon="-2.4517120">
        <ele>408.0</ele>
        <time>2020-02-09T13:09:04Z</time>
      </trkpt>
      <trkpt lat="42.4421220" lon="-2.4516620">
        <ele>408.0</ele>
        <time>2020-02-09T13:09:05Z</time>
      </trkpt>
      <trkpt lat="42.4422230" lon="-2.4516020">
        <ele>407.9</ele>
        <time>2020-02-09T13:09:06Z</time>
      </trkpt>
      <trkpt lat="42.4423110" lon="-2.4515630">
        <ele>407.8</ele>
        <time>2020-02-09T13:09:07Z</time>
      </trkpt>
      <trkpt lat="42.4424010" lon="-2.4515190">
        <ele>407.6</ele>
        <time>2020-02-09T13:09:08Z</time>
      </trkpt>
      <trkpt lat="42.4424900" lon="-2.4514750">
        <ele>407.5</ele>
        <time>2020-02-09T13:09:09Z</time>
      </trkpt>
      <trkpt lat="42.4424740" lon="-2.4515090">
        <ele>407.4</ele>
        <time>2020-02-09T13:09:10Z</time>
      </trkpt>
      <trkpt lat="42.4425510" lon="-2.4514880">
        <ele>407.2</ele>
        <time>2020-02-09T13:09:11Z</time>
      </trkpt>
      <trkpt lat="42.4426510" lon="-2.4514610">
        <ele>407.0</ele>
        <time>2020-02-09T13:09:12Z</time>
      </trkpt>
      <trkpt lat="42.4427430" lon="-2.4514180">
        <ele>406.9</ele>
        <time>2020-02-09T13:09:13Z</time>
      </trkpt>
      <trkpt lat="42.4428160" lon="-2.4513940">
        <ele>407.0</ele>
        <time>2020-02-09T13:09:14Z</time>
      </trkpt>
      <trkpt lat="42.4428900" lon="-2.4513750">
        <ele>407.0</ele>
        <time>2020-02-09T13:09:15Z</time>
      </trkpt>
      <trkpt lat="42.4429610" lon="-2.4513580">
        <ele>407.1</ele>
        <time>2020-02-09T13:09:16Z</time>
      </trkpt>
      <trkpt lat="42.4430380" lon="-2.4513240">
        <ele>407.1</ele>
        <time>2020-02-09T13:09:17Z</time>
      </trkpt>
      <trkpt lat="42.4431180" lon="-2.4512780">
        <ele>407.1</ele>
        <time>2020-02-09T13:09:18Z</time>
      </trkpt>
      <trkpt lat="42.4431900" lon="-2.4512590">
        <ele>407.0</ele>
        <time>2020-02-09T13:09:19Z</time>
      </trkpt>
      <trkpt lat="42.4433070" lon="-2.4512950">
        <ele>406.9</ele>
        <time>2020-02-09T13:09:20Z</time>
      </trkpt>
      <trkpt lat="42.4433860" lon="-2.4512700">
        <ele>406.9</ele>
        <time>2020-02-09T13:09:21Z</time>
      </trkpt>
      <trkpt lat="42.4434710" lon="-2.4511930">
        <ele>406.7</ele>
        <time>2020-02-09T13:09:22Z</time>
      </trkpt>
      <trkpt lat="42.4435460" lon="-2.4511700">
        <ele>406.5</ele>
        <time>2020-02-09T13:09:23Z</time>
      </trkpt>
      <trkpt lat="42.4436180" lon="-2.4511580">
        <ele>406.4</ele>
        <time>2020-02-09T13:09:24Z</time>
      </trkpt>
      <trkpt lat="42.4436950" lon="-2.4511380">
        <ele>406.4</ele>
        <time>2020-02-09T13:09:25Z</time>
      </trkpt>
      <trkpt lat="42.4437740" lon="-2.4511210">
        <ele>406.4</ele>
        <time>2020-02-09T13:09:26Z</time>
      </trkpt>
      <trkpt lat="42.4438710" lon="-2.4511260">
        <ele>406.3</ele>
        <time>2020-02-09T13:09:27Z</time>
      </trkpt>
      <trkpt lat="42.4439630" lon="-2.4511170">
        <ele>406.1</ele>
        <time>2020-02-09T13:09:28Z</time>
      </trkpt>
      <trkpt lat="42.4440510" lon="-2.4510870">
        <ele>406.0</ele>
        <time>2020-02-09T13:09:29Z</time>
      </trkpt>
      <trkpt lat="42.4441280" lon="-2.4510700">
        <ele>406.0</ele>
        <time>2020-02-09T13:09:30Z</time>
      </trkpt>
      <trkpt lat="42.4442090" lon="-2.4510510">
        <ele>405.8</ele>
        <time>2020-02-09T13:09:31Z</time>
      </trkpt>
      <trkpt lat="42.4442970" lon="-2.4510090">
        <ele>405.6</ele>
        <time>2020-02-09T13:09:32Z</time>
      </trkpt>
      <trkpt lat="42.4443820" lon="-2.4509960">
        <ele>405.4</ele>
        <time>2020-02-09T13:09:33Z</time>
      </trkpt>
      <trkpt lat="42.4444560" lon="-2.4509840">
        <ele>405.2</ele>
        <time>2020-02-09T13:09:34Z</time>
      </trkpt>
      <trkpt lat="42.4445390" lon="-2.4509530">
        <ele>404.9</ele>
        <time>2020-02-09T13:09:35Z</time>
      </trkpt>
      <trkpt lat="42.4446030" lon="-2.4509120">
        <ele>404.7</ele>
        <time>2020-02-09T13:09:36Z</time>
      </trkpt>
      <trkpt lat="42.4446850" lon="-2.4508900">
        <ele>404.3</ele>
        <time>2020-02-09T13:09:37Z</time>
      </trkpt>
      <trkpt lat="42.4447510" lon="-2.4508790">
        <ele>404.2</ele>
        <time>2020-02-09T13:09:38Z</time>
      </trkpt>
      <trkpt lat="42.4448200" lon="-2.4508660">
        <ele>404.2</ele>
        <time>2020-02-09T13:09:39Z</time>
      </trkpt>
      <trkpt lat="42.4449100" lon="-2.4508830">
        <ele>404.0</ele>
        <time>2020-02-09T13:09:40Z</time>
      </trkpt>
      <trkpt lat="42.4449840" lon="-2.4508680">
        <ele>403.8</ele>
        <time>2020-02-09T13:09:41Z</time>
      </trkpt>
      <trkpt lat="42.4450640" lon="-2.4508270">
        <ele>403.6</ele>
        <time>2020-02-09T13:09:42Z</time>
      </trkpt>
      <trkpt lat="42.4451390" lon="-2.4508030">
        <ele>403.4</ele>
        <time>2020-02-09T13:09:43Z</time>
      </trkpt>
      <trkpt lat="42.4452110" lon="-2.4507810">
        <ele>403.2</ele>
        <time>2020-02-09T13:09:44Z</time>
      </trkpt>
      <trkpt lat="42.4452870" lon="-2.4507560">
        <ele>403.0</ele>
        <time>2020-02-09T13:09:45Z</time>
      </trkpt>
      <trkpt lat="42.4453680" lon="-2.4507290">
        <ele>402.9</ele>
        <time>2020-02-09T13:09:46Z</time>
      </trkpt>
      <trkpt lat="42.4454430" lon="-2.4507020">
        <ele>402.9</ele>
        <time>2020-02-09T13:09:47Z</time>
      </trkpt>
      <trkpt lat="42.4455420" lon="-2.4506770">
        <ele>402.9</ele>
        <time>2020-02-09T13:09:48Z</time>
      </trkpt>
      <trkpt lat="42.4456300" lon="-2.4506500">
        <ele>403.0</ele>
        <time>2020-02-09T13:09:49Z</time>
      </trkpt>
      <trkpt lat="42.4457070" lon="-2.4506260">
        <ele>403.2</ele>
        <time>2020-02-09T13:09:50Z</time>
      </trkpt>
      <trkpt lat="42.4457740" lon="-2.4506010">
        <ele>403.4</ele>
        <time>2020-02-09T13:09:51Z</time>
      </trkpt>
      <trkpt lat="42.4458560" lon="-2.4505700">
        <ele>403.6</ele>
        <time>2020-02-09T13:09:52Z</time>
      </trkpt>
      <trkpt lat="42.4459320" lon="-2.4505450">
        <ele>403.7</ele>
        <time>2020-02-09T13:09:53Z</time>
      </trkpt>
      <trkpt lat="42.4460100" lon="-2.4505190">
        <ele>403.6</ele>
        <time>2020-02-09T13:09:54Z</time>
      </trkpt>
      <trkpt lat="42.4460760" lon="-2.4504990">
        <ele>403.6</ele>
        <time>2020-02-09T13:09:55Z</time>
      </trkpt>
      <trkpt lat="42.4461550" lon="-2.4504790">
        <ele>403.5</ele>
        <time>2020-02-09T13:09:56Z</time>
      </trkpt>
      <trkpt lat="42.4462270" lon="-2.4504520">
        <ele>403.4</ele>
        <time>2020-02-09T13:09:57Z</time>
      </trkpt>
      <trkpt lat="42.4463010" lon="-2.4504290">
        <ele>403.4</ele>
        <time>2020-02-09T13:09:58Z</time>
      </trkpt>
      <trkpt lat="42.4463800" lon="-2.4504250">
        <ele>403.4</ele>
        <time>2020-02-09T13:09:59Z</time>
      </trkpt>
      <trkpt lat="42.4464550" lon="-2.4504030">
        <ele>403.4</ele>
        <time>2020-02-09T13:10:00Z</time>
      </trkpt>
      <trkpt lat="42.4465300" lon="-2.4503800">
        <ele>403.4</ele>
        <time>2020-02-09T13:10:01Z</time>
      </trkpt>
      <trkpt lat="42.4466070" lon="-2.4503590">
        <ele>403.3</ele>
        <time>2020-02-09T13:10:02Z</time>
      </trkpt>
      <trkpt lat="42.4466820" lon="-2.4503370">
        <ele>403.3</ele>
        <time>2020-02-09T13:10:03Z</time>
      </trkpt>
      <trkpt lat="42.4467570" lon="-2.4503110">
        <ele>403.1</ele>
        <time>2020-02-09T13:10:04Z</time>
      </trkpt>
      <trkpt lat="42.4468270" lon="-2.4502890">
        <ele>403.1</ele>
        <time>2020-02-09T13:10:05Z</time>
      </trkpt>
      <trkpt lat="42.4469420" lon="-2.4502760">
        <ele>403.0</ele>
        <time>2020-02-09T13:10:06Z</time>
      </trkpt>
      <trkpt lat="42.4470270" lon="-2.4502510">
        <ele>402.9</ele>
        <time>2020-02-09T13:10:07Z</time>
      </trkpt>
      <trkpt lat="42.4471050" lon="-2.4502200">
        <ele>402.8</ele>
        <time>2020-02-09T13:10:08Z</time>
      </trkpt>
      <trkpt lat="42.4471910" lon="-2.4501980">
        <ele>402.7</ele>
        <time>2020-02-09T13:10:09Z</time>
      </trkpt>
      <trkpt lat="42.4472720" lon="-2.4501820">
        <ele>402.6</ele>
        <time>2020-02-09T13:10:10Z</time>
      </trkpt>
      <trkpt lat="42.4473020" lon="-2.4501820">
        <ele>402.6</ele>
        <time>2020-02-09T13:10:11Z</time>
      </trkpt>
      <trkpt lat="42.4473760" lon="-2.4501610">
        <ele>402.5</ele>
        <time>2020-02-09T13:10:12Z</time>
      </trkpt>
      <trkpt lat="42.4474540" lon="-2.4501390">
        <ele>402.5</ele>
        <time>2020-02-09T13:10:13Z</time>
      </trkpt>
      <trkpt lat="42.4475290" lon="-2.4501120">
        <ele>402.4</ele>
        <time>2020-02-09T13:10:14Z</time>
      </trkpt>
      <trkpt lat="42.4476050" lon="-2.4500910">
        <ele>402.3</ele>
        <time>2020-02-09T13:10:15Z</time>
      </trkpt>
      <trkpt lat="42.4476800" lon="-2.4500640">
        <ele>402.2</ele>
        <time>2020-02-09T13:10:16Z</time>
      </trkpt>
      <trkpt lat="42.4477550" lon="-2.4500420">
        <ele>402.1</ele>
        <time>2020-02-09T13:10:17Z</time>
      </trkpt>
      <trkpt lat="42.4478500" lon="-2.4500070">
        <ele>402.0</ele>
        <time>2020-02-09T13:10:18Z</time>
      </trkpt>
      <trkpt lat="42.4479180" lon="-2.4499910">
        <ele>401.9</ele>
        <time>2020-02-09T13:10:19Z</time>
      </trkpt>
      <trkpt lat="42.4479870" lon="-2.4499770">
        <ele>401.7</ele>
        <time>2020-02-09T13:10:20Z</time>
      </trkpt>
      <trkpt lat="42.4480610" lon="-2.4499620">
        <ele>401.3</ele>
        <time>2020-02-09T13:10:21Z</time>
      </trkpt>
      <trkpt lat="42.4481300" lon="-2.4499400">
        <ele>401.2</ele>
        <time>2020-02-09T13:10:22Z</time>
      </trkpt>
      <trkpt lat="42.4482000" lon="-2.4499240">
        <ele>401.0</ele>
        <time>2020-02-09T13:10:23Z</time>
      </trkpt>
      <trkpt lat="42.4482750" lon="-2.4499080">
        <ele>400.9</ele>
        <time>2020-02-09T13:10:24Z</time>
      </trkpt>
      <trkpt lat="42.4483450" lon="-2.4498870">
        <ele>400.7</ele>
        <time>2020-02-09T13:10:25Z</time>
      </trkpt>
      <trkpt lat="42.4484150" lon="-2.4498710">
        <ele>400.6</ele>
        <time>2020-02-09T13:10:26Z</time>
      </trkpt>
      <trkpt lat="42.4484900" lon="-2.4498550">
        <ele>400.2</ele>
        <time>2020-02-09T13:10:27Z</time>
      </trkpt>
      <trkpt lat="42.4485590" lon="-2.4498390">
        <ele>400.1</ele>
        <time>2020-02-09T13:10:28Z</time>
      </trkpt>
      <trkpt lat="42.4486290" lon="-2.4498170">
        <ele>400.1</ele>
        <time>2020-02-09T13:10:29Z</time>
      </trkpt>
      <trkpt lat="42.4487040" lon="-2.4498010">
        <ele>399.9</ele>
        <time>2020-02-09T13:10:30Z</time>
      </trkpt>
      <trkpt lat="42.4487740" lon="-2.4497850">
        <ele>399.7</ele>
        <time>2020-02-09T13:10:31Z</time>
      </trkpt>
      <trkpt lat="42.4491710" lon="-2.4496350">
        <ele>398.9</ele>
        <time>2020-02-09T13:10:37Z</time>
      </trkpt>
      <trkpt lat="42.4492370" lon="-2.4495650">
        <ele>398.9</ele>
        <time>2020-02-09T13:10:38Z</time>
      </trkpt>
      <trkpt lat="42.4493280" lon="-2.4495340">
        <ele>398.9</ele>
        <time>2020-02-09T13:10:39Z</time>
      </trkpt>
      <trkpt lat="42.4494060" lon="-2.4495260">
        <ele>398.9</ele>
        <time>2020-02-09T13:10:40Z</time>
      </trkpt>
      <trkpt lat="42.4494870" lon="-2.4495060">
        <ele>399.0</ele>
        <time>2020-02-09T13:10:41Z</time>
      </trkpt>
      <trkpt lat="42.4495680" lon="-2.4494900">
        <ele>398.9</ele>
        <time>2020-02-09T13:10:42Z</time>
      </trkpt>
      <trkpt lat="42.4496650" lon="-2.4495020">
        <ele>398.8</ele>
        <time>2020-02-09T13:10:43Z</time>
      </trkpt>
      <trkpt lat="42.4497660" lon="-2.4494740">
        <ele>398.6</ele>
        <time>2020-02-09T13:10:44Z</time>
      </trkpt>
      <trkpt lat="42.4498490" lon="-2.4494460">
        <ele>398.4</ele>
        <time>2020-02-09T13:10:45Z</time>
      </trkpt>
      <trkpt lat="42.4498960" lon="-2.4493730">
        <ele>398.4</ele>
        <time>2020-02-09T13:10:46Z</time>
      </trkpt>
      <trkpt lat="42.4499740" lon="-2.4493530">
        <ele>398.4</ele>
        <time>2020-02-09T13:10:47Z</time>
      </trkpt>
      <trkpt lat="42.4500290" lon="-2.4493450">
        <ele>398.3</ele>
        <time>2020-02-09T13:10:48Z</time>
      </trkpt>
      <trkpt lat="42.4501040" lon="-2.4493290">
        <ele>398.3</ele>
        <time>2020-02-09T13:10:49Z</time>
      </trkpt>
      <trkpt lat="42.4502130" lon="-2.4492650">
        <ele>398.3</ele>
        <time>2020-02-09T13:10:50Z</time>
      </trkpt>
      <trkpt lat="42.4502890" lon="-2.4492450">
        <ele>398.3</ele>
        <time>2020-02-09T13:10:51Z</time>
      </trkpt>
      <trkpt lat="42.4503770" lon="-2.4492070">
        <ele>398.3</ele>
        <time>2020-02-09T13:10:52Z</time>
      </trkpt>
      <trkpt lat="42.4504590" lon="-2.4491730">
        <ele>398.3</ele>
        <time>2020-02-09T13:10:53Z</time>
      </trkpt>
      <trkpt lat="42.4505400" lon="-2.4491400">
        <ele>398.3</ele>
        <time>2020-02-09T13:10:54Z</time>
      </trkpt>
      <trkpt lat="42.4506260" lon="-2.4491020">
        <ele>398.2</ele>
        <time>2020-02-09T13:10:55Z</time>
      </trkpt>
      <trkpt lat="42.4506630" lon="-2.4491540">
        <ele>398.2</ele>
        <time>2020-02-09T13:10:56Z</time>
      </trkpt>
      <trkpt lat="42.4507610" lon="-2.4491240">
        <ele>398.2</ele>
        <time>2020-02-09T13:10:57Z</time>
      </trkpt>
      <trkpt lat="42.4508360" lon="-2.4490910">
        <ele>398.2</ele>
        <time>2020-02-09T13:10:58Z</time>
      </trkpt>
      <trkpt lat="42.4509140" lon="-2.4490450">
        <ele>398.2</ele>
        <time>2020-02-09T13:10:59Z</time>
      </trkpt>
      <trkpt lat="42.4509950" lon="-2.4490180">
        <ele>398.2</ele>
        <time>2020-02-09T13:11:00Z</time>
      </trkpt>
      <trkpt lat="42.4510750" lon="-2.4489910">
        <ele>398.2</ele>
        <time>2020-02-09T13:11:01Z</time>
      </trkpt>
      <trkpt lat="42.4511560" lon="-2.4489640">
        <ele>398.2</ele>
        <time>2020-02-09T13:11:02Z</time>
      </trkpt>
      <trkpt lat="42.4512360" lon="-2.4489430">
        <ele>398.2</ele>
        <time>2020-02-09T13:11:03Z</time>
      </trkpt>
      <trkpt lat="42.4513170" lon="-2.4489160">
        <ele>398.2</ele>
        <time>2020-02-09T13:11:04Z</time>
      </trkpt>
      <trkpt lat="42.4513970" lon="-2.4488890">
        <ele>398.2</ele>
        <time>2020-02-09T13:11:05Z</time>
      </trkpt>
      <trkpt lat="42.4514780" lon="-2.4488620">
        <ele>398.2</ele>
        <time>2020-02-09T13:11:06Z</time>
      </trkpt>
      <trkpt lat="42.4515580" lon="-2.4488350">
        <ele>398.2</ele>
        <time>2020-02-09T13:11:07Z</time>
      </trkpt>
      <trkpt lat="42.4516390" lon="-2.4488140">
        <ele>398.2</ele>
        <time>2020-02-09T13:11:08Z</time>
      </trkpt>
      <trkpt lat="42.4519820" lon="-2.4487330">
        <ele>397.1</ele>
        <time>2020-02-09T13:11:14Z</time>
      </trkpt>
      <trkpt lat="42.4520520" lon="-2.4487170">
        <ele>397.0</ele>
        <time>2020-02-09T13:11:15Z</time>
      </trkpt>
      <trkpt lat="42.4521250" lon="-2.4487000">
        <ele>396.9</ele>
        <time>2020-02-09T13:11:16Z</time>
      </trkpt>
      <trkpt lat="42.4521910" lon="-2.4486420">
        <ele>396.8</ele>
        <time>2020-02-09T13:11:17Z</time>
      </trkpt>
      <trkpt lat="42.4522610" lon="-2.4486320">
        <ele>396.8</ele>
        <time>2020-02-09T13:11:18Z</time>
      </trkpt>
      <trkpt lat="42.4523310" lon="-2.4486150">
        <ele>396.7</ele>
        <time>2020-02-09T13:11:19Z</time>
      </trkpt>
      <trkpt lat="42.4524000" lon="-2.4485990">
        <ele>396.6</ele>
        <time>2020-02-09T13:11:20Z</time>
      </trkpt>
      <trkpt lat="42.4524700" lon="-2.4485830">
        <ele>396.4</ele>
        <time>2020-02-09T13:11:21Z</time>
      </trkpt>
      <trkpt lat="42.4525400" lon="-2.4485670">
        <ele>396.1</ele>
        <time>2020-02-09T13:11:22Z</time>
      </trkpt>
      <trkpt lat="42.4526150" lon="-2.4485510">
        <ele>395.8</ele>
        <time>2020-02-09T13:11:23Z</time>
      </trkpt>
      <trkpt lat="42.4529870" lon="-2.4483960">
        <ele>394.8</ele>
        <time>2020-02-09T13:11:30Z</time>
      </trkpt>
      <trkpt lat="42.4530170" lon="-2.4483530">
        <ele>394.8</ele>
        <time>2020-02-09T13:11:32Z</time>
      </trkpt>
      <trkpt lat="42.4531340" lon="-2.4482420">
        <ele>394.9</ele>
        <time>2020-02-09T13:11:34Z</time>
      </trkpt>
      <trkpt lat="42.4531910" lon="-2.4482000">
        <ele>395.0</ele>
        <time>2020-02-09T13:11:35Z</time>
      </trkpt>
      <trkpt lat="42.4532280" lon="-2.4481560">
        <ele>395.0</ele>
        <time>2020-02-09T13:11:36Z</time>
      </trkpt>
      <trkpt lat="42.4532430" lon="-2.4481220">
        <ele>395.0</ele>
        <time>2020-02-09T13:11:37Z</time>
      </trkpt>
      <trkpt lat="42.4532760" lon="-2.4480880">
        <ele>395.0</ele>
        <time>2020-02-09T13:11:38Z</time>
      </trkpt>
      <trkpt lat="42.4533340" lon="-2.4480610">
        <ele>395.1</ele>
        <time>2020-02-09T13:11:39Z</time>
      </trkpt>
      <trkpt lat="42.4533820" lon="-2.4480360">
        <ele>395.1</ele>
        <time>2020-02-09T13:11:40Z</time>
      </trkpt>
      <trkpt lat="42.4534250" lon="-2.4480090">
        <ele>395.1</ele>
        <time>2020-02-09T13:11:41Z</time>
      </trkpt>
      <trkpt lat="42.4534680" lon="-2.4479820">
        <ele>395.1</ele>
        <time>2020-02-09T13:11:42Z</time>
      </trkpt>
      <trkpt lat="42.4535110" lon="-2.4479500">
        <ele>395.1</ele>
        <time>2020-02-09T13:11:43Z</time>
      </trkpt>
      <trkpt lat="42.4532690" lon="-2.4478790">
        <ele>395.1</ele>
        <time>2020-02-09T13:11:45Z</time>
      </trkpt>
      <trkpt lat="42.4532660" lon="-2.4478260">
        <ele>395.2</ele>
        <time>2020-02-09T13:11:46Z</time>
      </trkpt>
      <trkpt lat="42.4532860" lon="-2.4477470">
        <ele>395.2</ele>
        <time>2020-02-09T13:11:47Z</time>
      </trkpt>
      <trkpt lat="42.4532900" lon="-2.4476610">
        <ele>395.2</ele>
        <time>2020-02-09T13:11:49Z</time>
      </trkpt>
      <trkpt lat="42.4533010" lon="-2.4476070">
        <ele>395.2</ele>
        <time>2020-02-09T13:11:50Z</time>
      </trkpt>
      <trkpt lat="42.4533140" lon="-2.4475520">
        <ele>395.2</ele>
        <time>2020-02-09T13:11:51Z</time>
      </trkpt>
      <trkpt lat="42.4532960" lon="-2.4475130">
        <ele>395.2</ele>
        <time>2020-02-09T13:11:52Z</time>
      </trkpt>
      <trkpt lat="42.4532800" lon="-2.4474460">
        <ele>395.2</ele>
        <time>2020-02-09T13:11:53Z</time>
      </trkpt>
      <trkpt lat="42.4532820" lon="-2.4473940">
        <ele>395.3</ele>
        <time>2020-02-09T13:11:54Z</time>
      </trkpt>
      <trkpt lat="42.4532620" lon="-2.4472910">
        <ele>395.3</ele>
        <time>2020-02-09T13:11:55Z</time>
      </trkpt>
      <trkpt lat="42.4532540" lon="-2.4472030">
        <ele>395.2</ele>
        <time>2020-02-09T13:11:56Z</time>
      </trkpt>
      <trkpt lat="42.4532480" lon="-2.4471160">
        <ele>395.2</ele>
        <time>2020-02-09T13:11:57Z</time>
      </trkpt>
      <trkpt lat="42.4532320" lon="-2.4470330">
        <ele>395.1</ele>
        <time>2020-02-09T13:11:58Z</time>
      </trkpt>
      <trkpt lat="42.4532210" lon="-2.4469470">
        <ele>395.0</ele>
        <time>2020-02-09T13:11:59Z</time>
      </trkpt>
      <trkpt lat="42.4532210" lon="-2.4468240">
        <ele>394.8</ele>
        <time>2020-02-09T13:12:00Z</time>
      </trkpt>
      <trkpt lat="42.4532100" lon="-2.4467560">
        <ele>394.7</ele>
        <time>2020-02-09T13:12:01Z</time>
      </trkpt>
      <trkpt lat="42.4531970" lon="-2.4466680">
        <ele>394.6</ele>
        <time>2020-02-09T13:12:02Z</time>
      </trkpt>
      <trkpt lat="42.4531770" lon="-2.4465720">
        <ele>394.4</ele>
        <time>2020-02-09T13:12:03Z</time>
      </trkpt>
      <trkpt lat="42.4531650" lon="-2.4464800">
        <ele>394.4</ele>
        <time>2020-02-09T13:12:04Z</time>
      </trkpt>
      <trkpt lat="42.4531640" lon="-2.4464090">
        <ele>394.4</ele>
        <time>2020-02-09T13:12:05Z</time>
      </trkpt>
      <trkpt lat="42.4531490" lon="-2.4463250">
        <ele>394.4</ele>
        <time>2020-02-09T13:12:06Z</time>
      </trkpt>
      <trkpt lat="42.4531930" lon="-2.4463200">
        <ele>394.3</ele>
        <time>2020-02-09T13:12:07Z</time>
      </trkpt>
      <trkpt lat="42.4531720" lon="-2.4461940">
        <ele>394.3</ele>
        <time>2020-02-09T13:12:08Z</time>
      </trkpt>
      <trkpt lat="42.4531550" lon="-2.4461110">
        <ele>394.3</ele>
        <time>2020-02-09T13:12:09Z</time>
      </trkpt>
      <trkpt lat="42.4531410" lon="-2.4460330">
        <ele>394.2</ele>
        <time>2020-02-09T13:12:10Z</time>
      </trkpt>
      <trkpt lat="42.4531410" lon="-2.4459600">
        <ele>394.2</ele>
        <time>2020-02-09T13:12:11Z</time>
      </trkpt>
      <trkpt lat="42.4531300" lon="-2.4458310">
        <ele>394.1</ele>
        <time>2020-02-09T13:12:12Z</time>
      </trkpt>
      <trkpt lat="42.4531320" lon="-2.4457520">
        <ele>394.0</ele>
        <time>2020-02-09T13:12:13Z</time>
      </trkpt>
      <trkpt lat="42.4531240" lon="-2.4456780">
        <ele>393.9</ele>
        <time>2020-02-09T13:12:14Z</time>
      </trkpt>
      <trkpt lat="42.4531230" lon="-2.4455940">
        <ele>393.8</ele>
        <time>2020-02-09T13:12:15Z</time>
      </trkpt>
      <trkpt lat="42.4531190" lon="-2.4455270">
        <ele>393.7</ele>
        <time>2020-02-09T13:12:16Z</time>
      </trkpt>
      <trkpt lat="42.4531190" lon="-2.4454390">
        <ele>393.5</ele>
        <time>2020-02-09T13:12:17Z</time>
      </trkpt>
      <trkpt lat="42.4531260" lon="-2.4453360">
        <ele>393.4</ele>
        <time>2020-02-09T13:12:18Z</time>
      </trkpt>
      <trkpt lat="42.4531410" lon="-2.4452500">
        <ele>393.3</ele>
        <time>2020-02-09T13:12:19Z</time>
      </trkpt>
      <trkpt lat="42.4531530" lon="-2.4451520">
        <ele>393.3</ele>
        <time>2020-02-09T13:12:20Z</time>
      </trkpt>
      <trkpt lat="42.4531890" lon="-2.4450430">
        <ele>393.2</ele>
        <time>2020-02-09T13:12:22Z</time>
      </trkpt>
      <trkpt lat="42.4532280" lon="-2.4449720">
        <ele>393.2</ele>
        <time>2020-02-09T13:12:23Z</time>
      </trkpt>
      <trkpt lat="42.4532250" lon="-2.4448950">
        <ele>393.2</ele>
        <time>2020-02-09T13:12:24Z</time>
      </trkpt>
      <trkpt lat="42.4532200" lon="-2.4448230">
        <ele>393.2</ele>
        <time>2020-02-09T13:12:25Z</time>
      </trkpt>
      <trkpt lat="42.4532150" lon="-2.4447760">
        <ele>393.2</ele>
        <time>2020-02-09T13:12:26Z</time>
      </trkpt>
      <trkpt lat="42.4532240" lon="-2.4447110">
        <ele>393.2</ele>
        <time>2020-02-09T13:12:27Z</time>
      </trkpt>
      <trkpt lat="42.4532010" lon="-2.4445820">
        <ele>393.2</ele>
        <time>2020-02-09T13:12:28Z</time>
      </trkpt>
      <trkpt lat="42.4532000" lon="-2.4444870">
        <ele>393.2</ele>
        <time>2020-02-09T13:12:29Z</time>
      </trkpt>
      <trkpt lat="42.4532020" lon="-2.4443910">
        <ele>393.2</ele>
        <time>2020-02-09T13:12:30Z</time>
      </trkpt>
      <trkpt lat="42.4532040" lon="-2.4442890">
        <ele>393.2</ele>
        <time>2020-02-09T13:12:31Z</time>
      </trkpt>
      <trkpt lat="42.4532070" lon="-2.4442040">
        <ele>393.2</ele>
        <time>2020-02-09T13:12:32Z</time>
      </trkpt>
      <trkpt lat="42.4532350" lon="-2.4441080">
        <ele>393.2</ele>
        <time>2020-02-09T13:12:33Z</time>
      </trkpt>
      <trkpt lat="42.4532340" lon="-2.4440150">
        <ele>393.2</ele>
        <time>2020-02-09T13:12:34Z</time>
      </trkpt>
      <trkpt lat="42.4532320" lon="-2.4439350">
        <ele>393.2</ele>
        <time>2020-02-09T13:12:35Z</time>
      </trkpt>
      <trkpt lat="42.4532360" lon="-2.4438430">
        <ele>393.2</ele>
        <time>2020-02-09T13:12:36Z</time>
      </trkpt>
      <trkpt lat="42.4533630" lon="-2.4437550">
        <ele>393.2</ele>
        <time>2020-02-09T13:12:37Z</time>
      </trkpt>
      <trkpt lat="42.4533830" lon="-2.4436650">
        <ele>393.2</ele>
        <time>2020-02-09T13:12:38Z</time>
      </trkpt>
      <trkpt lat="42.4533660" lon="-2.4435730">
        <ele>393.2</ele>
        <time>2020-02-09T13:12:39Z</time>
      </trkpt>
      <trkpt lat="42.4533930" lon="-2.4434880">
        <ele>393.2</ele>
        <time>2020-02-09T13:12:40Z</time>
      </trkpt>
      <trkpt lat="42.4533470" lon="-2.4433250">
        <ele>393.2</ele>
        <time>2020-02-09T13:12:41Z</time>
      </trkpt>
      <trkpt lat="42.4533540" lon="-2.4432220">
        <ele>393.2</ele>
        <time>2020-02-09T13:12:42Z</time>
      </trkpt>
      <trkpt lat="42.4533740" lon="-2.4431520">
        <ele>393.2</ele>
        <time>2020-02-09T13:12:43Z</time>
      </trkpt>
      <trkpt lat="42.4533570" lon="-2.4430010">
        <ele>393.1</ele>
        <time>2020-02-09T13:12:44Z</time>
      </trkpt>
      <trkpt lat="42.4533640" lon="-2.4429000">
        <ele>393.1</ele>
        <time>2020-02-09T13:12:45Z</time>
      </trkpt>
      <trkpt lat="42.4533600" lon="-2.4428050">
        <ele>393.1</ele>
        <time>2020-02-09T13:12:46Z</time>
      </trkpt>
      <trkpt lat="42.4533680" lon="-2.4427000">
        <ele>393.1</ele>
        <time>2020-02-09T13:12:47Z</time>
      </trkpt>
      <trkpt lat="42.4533710" lon="-2.4425920">
        <ele>393.1</ele>
        <time>2020-02-09T13:12:48Z</time>
      </trkpt>
      <trkpt lat="42.4533770" lon="-2.4424950">
        <ele>393.1</ele>
        <time>2020-02-09T13:12:49Z</time>
      </trkpt>
      <trkpt lat="42.4533890" lon="-2.4424190">
        <ele>393.1</ele>
        <time>2020-02-09T13:12:50Z</time>
      </trkpt>
      <trkpt lat="42.4533900" lon="-2.4423350">
        <ele>393.1</ele>
        <time>2020-02-09T13:12:51Z</time>
      </trkpt>
      <trkpt lat="42.4533960" lon="-2.4422420">
        <ele>393.1</ele>
        <time>2020-02-09T13:12:52Z</time>
      </trkpt>
      <trkpt lat="42.4534020" lon="-2.4421490">
        <ele>393.1</ele>
        <time>2020-02-09T13:12:53Z</time>
      </trkpt>
      <trkpt lat="42.4534060" lon="-2.4420910">
        <ele>393.1</ele>
        <time>2020-02-09T13:12:54Z</time>
      </trkpt>
      <trkpt lat="42.4533960" lon="-2.4420190">
        <ele>393.1</ele>
        <time>2020-02-09T13:12:55Z</time>
      </trkpt>
      <trkpt lat="42.4533910" lon="-2.4419280">
        <ele>393.1</ele>
        <time>2020-02-09T13:12:56Z</time>
      </trkpt>
      <trkpt lat="42.4533800" lon="-2.4418440">
        <ele>393.0</ele>
        <time>2020-02-09T13:12:57Z</time>
      </trkpt>
      <trkpt lat="42.4533710" lon="-2.4417610">
        <ele>393.0</ele>
        <time>2020-02-09T13:12:58Z</time>
      </trkpt>
      <trkpt lat="42.4533250" lon="-2.4416750">
        <ele>392.9</ele>
        <time>2020-02-09T13:12:59Z</time>
      </trkpt>
      <trkpt lat="42.4533060" lon="-2.4415940">
        <ele>392.8</ele>
        <time>2020-02-09T13:13:00Z</time>
      </trkpt>
      <trkpt lat="42.4532860" lon="-2.4415130">
        <ele>392.7</ele>
        <time>2020-02-09T13:13:01Z</time>
      </trkpt>
      <trkpt lat="42.4532690" lon="-2.4414320">
        <ele>392.6</ele>
        <time>2020-02-09T13:13:02Z</time>
      </trkpt>
      <trkpt lat="42.4532480" lon="-2.4413520">
        <ele>392.5</ele>
        <time>2020-02-09T13:13:03Z</time>
      </trkpt>
      <trkpt lat="42.4530960" lon="-2.4413600">
        <ele>392.2</ele>
        <time>2020-02-09T13:13:04Z</time>
      </trkpt>
      <trkpt lat="42.4530500" lon="-2.4413140">
        <ele>392.1</ele>
        <time>2020-02-09T13:13:05Z</time>
      </trkpt>
      <trkpt lat="42.4530680" lon="-2.4411860">
        <ele>392.0</ele>
        <time>2020-02-09T13:13:06Z</time>
      </trkpt>
      <trkpt lat="42.4530360" lon="-2.4411170">
        <ele>392.0</ele>
        <time>2020-02-09T13:13:07Z</time>
      </trkpt>
      <trkpt lat="42.4529840" lon="-2.4410840">
        <ele>392.0</ele>
        <time>2020-02-09T13:13:08Z</time>
      </trkpt>
      <trkpt lat="42.4529920" lon="-2.4409940">
        <ele>392.0</ele>
        <time>2020-02-09T13:13:09Z</time>
      </trkpt>
      <trkpt lat="42.4529670" lon="-2.4408800">
        <ele>392.0</ele>
        <time>2020-02-09T13:13:10Z</time>
      </trkpt>
      <trkpt lat="42.4529530" lon="-2.4407830">
        <ele>392.1</ele>
        <time>2020-02-09T13:13:11Z</time>
      </trkpt>
      <trkpt lat="42.4529370" lon="-2.4406980">
        <ele>392.1</ele>
        <time>2020-02-09T13:13:12Z</time>
      </trkpt>
      <trkpt lat="42.4529260" lon="-2.4406060">
        <ele>392.1</ele>
        <time>2020-02-09T13:13:13Z</time>
      </trkpt>
      <trkpt lat="42.4529100" lon="-2.4405210">
        <ele>392.1</ele>
        <time>2020-02-09T13:13:14Z</time>
      </trkpt>
      <trkpt lat="42.4528940" lon="-2.4404290">
        <ele>392.1</ele>
        <time>2020-02-09T13:13:15Z</time>
      </trkpt>
      <trkpt lat="42.4528780" lon="-2.4403430">
        <ele>392.1</ele>
        <time>2020-02-09T13:13:16Z</time>
      </trkpt>
      <trkpt lat="42.4528620" lon="-2.4402580">
        <ele>392.1</ele>
        <time>2020-02-09T13:13:17Z</time>
      </trkpt>
      <trkpt lat="42.4534570" lon="-2.4410270">
        <ele>392.7</ele>
        <time>2020-02-09T13:13:20Z</time>
      </trkpt>
      <trkpt lat="42.4535110" lon="-2.4410690">
        <ele>392.8</ele>
        <time>2020-02-09T13:13:21Z</time>
      </trkpt>
      <trkpt lat="42.4535650" lon="-2.4411110">
        <ele>393.0</ele>
        <time>2020-02-09T13:13:22Z</time>
      </trkpt>
      <trkpt lat="42.4536230" lon="-2.4411590">
        <ele>393.2</ele>
        <time>2020-02-09T13:13:23Z</time>
      </trkpt>
      <trkpt lat="42.4536820" lon="-2.4411960">
        <ele>393.3</ele>
        <time>2020-02-09T13:13:24Z</time>
      </trkpt>
      <trkpt lat="42.4537360" lon="-2.4412390">
        <ele>393.4</ele>
        <time>2020-02-09T13:13:25Z</time>
      </trkpt>
      <trkpt lat="42.4537900" lon="-2.4412820">
        <ele>393.5</ele>
        <time>2020-02-09T13:13:26Z</time>
      </trkpt>
      <trkpt lat="42.4538490" lon="-2.4413250">
        <ele>393.4</ele>
        <time>2020-02-09T13:13:27Z</time>
      </trkpt>
      <trkpt lat="42.4539020" lon="-2.4413630">
        <ele>393.4</ele>
        <time>2020-02-09T13:13:28Z</time>
      </trkpt>
      <trkpt lat="42.4539560" lon="-2.4414060">
        <ele>393.4</ele>
        <time>2020-02-09T13:13:29Z</time>
      </trkpt>
      <trkpt lat="42.4540100" lon="-2.4414490">
        <ele>393.4</ele>
        <time>2020-02-09T13:13:30Z</time>
      </trkpt>
      <trkpt lat="42.4541890" lon="-2.4409910">
        <ele>393.7</ele>
        <time>2020-02-09T13:13:32Z</time>
      </trkpt>
      <trkpt lat="42.4542510" lon="-2.4409870">
        <ele>393.7</ele>
        <time>2020-02-09T13:13:33Z</time>
      </trkpt>
      <trkpt lat="42.4543420" lon="-2.4410610">
        <ele>393.2</ele>
        <time>2020-02-09T13:13:34Z</time>
      </trkpt>
      <trkpt lat="42.4544130" lon="-2.4410730">
        <ele>393.0</ele>
        <time>2020-02-09T13:13:35Z</time>
      </trkpt>
      <trkpt lat="42.4544970" lon="-2.4410350">
        <ele>392.7</ele>
        <time>2020-02-09T13:13:36Z</time>
      </trkpt>
      <trkpt lat="42.4545730" lon="-2.4410360">
        <ele>392.5</ele>
        <time>2020-02-09T13:13:37Z</time>
      </trkpt>
      <trkpt lat="42.4546430" lon="-2.4410410">
        <ele>392.2</ele>
        <time>2020-02-09T13:13:38Z</time>
      </trkpt>
      <trkpt lat="42.4547180" lon="-2.4410460">
        <ele>392.0</ele>
        <time>2020-02-09T13:13:39Z</time>
      </trkpt>
      <trkpt lat="42.4547870" lon="-2.4410460">
        <ele>391.8</ele>
        <time>2020-02-09T13:13:40Z</time>
      </trkpt>
      <trkpt lat="42.4548630" lon="-2.4410520">
        <ele>391.6</ele>
        <time>2020-02-09T13:13:41Z</time>
      </trkpt>
      <trkpt lat="42.4549320" lon="-2.4410570">
        <ele>391.5</ele>
        <time>2020-02-09T13:13:42Z</time>
      </trkpt>
      <trkpt lat="42.4550070" lon="-2.4410620">
        <ele>391.5</ele>
        <time>2020-02-09T13:13:43Z</time>
      </trkpt>
      <trkpt lat="42.4550770" lon="-2.4410620">
        <ele>391.5</ele>
        <time>2020-02-09T13:13:44Z</time>
      </trkpt>
      <trkpt lat="42.4551520" lon="-2.4410680">
        <ele>391.6</ele>
        <time>2020-02-09T13:13:45Z</time>
      </trkpt>
      <trkpt lat="42.4552220" lon="-2.4410730">
        <ele>391.7</ele>
        <time>2020-02-09T13:13:46Z</time>
      </trkpt>
      <trkpt lat="42.4552970" lon="-2.4410780">
        <ele>391.9</ele>
        <time>2020-02-09T13:13:47Z</time>
      </trkpt>
      <trkpt lat="42.4554100" lon="-2.4411480">
        <ele>392.0</ele>
        <time>2020-02-09T13:13:50Z</time>
      </trkpt>
      <trkpt lat="42.4554480" lon="-2.4411100">
        <ele>392.1</ele>
        <time>2020-02-09T13:13:51Z</time>
      </trkpt>
      <trkpt lat="42.4554030" lon="-2.4410910">
        <ele>392.0</ele>
        <time>2020-02-09T13:13:52Z</time>
      </trkpt>
      <trkpt lat="42.4554110" lon="-2.4410550">
        <ele>392.0</ele>
        <time>2020-02-09T13:13:55Z</time>
      </trkpt>
      <trkpt lat="42.4554480" lon="-2.4410500">
        <ele>392.1</ele>
        <time>2020-02-09T13:14:00Z</time>
      </trkpt>
      <trkpt lat="42.4554750" lon="-2.4410500">
        <ele>392.1</ele>
        <time>2020-02-09T13:14:01Z</time>
      </trkpt>
      <trkpt lat="42.4555140" lon="-2.4410400">
        <ele>392.1</ele>
        <time>2020-02-09T13:14:02Z</time>
      </trkpt>
      <trkpt lat="42.4555530" lon="-2.4410310">
        <ele>392.1</ele>
        <time>2020-02-09T13:14:03Z</time>
      </trkpt>
      <trkpt lat="42.4555830" lon="-2.4410180">
        <ele>392.1</ele>
        <time>2020-02-09T13:14:04Z</time>
      </trkpt>
      <trkpt lat="42.4556310" lon="-2.4410170">
        <ele>392.1</ele>
        <time>2020-02-09T13:14:05Z</time>
      </trkpt>
      <trkpt lat="42.4556760" lon="-2.4410450">
        <ele>392.1</ele>
        <time>2020-02-09T13:14:06Z</time>
      </trkpt>
      <trkpt lat="42.4557210" lon="-2.4410790">
        <ele>392.0</ele>
        <time>2020-02-09T13:14:07Z</time>
      </trkpt>
      <trkpt lat="42.4557650" lon="-2.4411120">
        <ele>392.0</ele>
        <time>2020-02-09T13:14:08Z</time>
      </trkpt>
      <trkpt lat="42.4558080" lon="-2.4411610">
        <ele>391.9</ele>
        <time>2020-02-09T13:14:09Z</time>
      </trkpt>
      <trkpt lat="42.4558520" lon="-2.4412070">
        <ele>391.9</ele>
        <time>2020-02-09T13:14:10Z</time>
      </trkpt>
      <trkpt lat="42.4559180" lon="-2.4412630">
        <ele>391.8</ele>
        <time>2020-02-09T13:14:11Z</time>
      </trkpt>
      <trkpt lat="42.4559670" lon="-2.4413110">
        <ele>391.7</ele>
        <time>2020-02-09T13:14:12Z</time>
      </trkpt>
      <trkpt lat="42.4560170" lon="-2.4413600">
        <ele>391.6</ele>
        <time>2020-02-09T13:14:13Z</time>
      </trkpt>
      <trkpt lat="42.4560690" lon="-2.4412900">
        <ele>391.3</ele>
        <time>2020-02-09T13:14:14Z</time>
      </trkpt>
      <trkpt lat="42.4561320" lon="-2.4413330">
        <ele>391.1</ele>
        <time>2020-02-09T13:14:16Z</time>
      </trkpt>
      <trkpt lat="42.4561840" lon="-2.4413400">
        <ele>391.0</ele>
        <time>2020-02-09T13:14:17Z</time>
      </trkpt>
      <trkpt lat="42.4562360" lon="-2.4413480">
        <ele>390.9</ele>
        <time>2020-02-09T13:14:18Z</time>
      </trkpt>
      <trkpt lat="42.4562980" lon="-2.4413240">
        <ele>390.8</ele>
        <time>2020-02-09T13:14:19Z</time>
      </trkpt>
      <trkpt lat="42.4563860" lon="-2.4413590">
        <ele>390.6</ele>
        <time>2020-02-09T13:14:20Z</time>
      </trkpt>
      <trkpt lat="42.4564570" lon="-2.4413640">
        <ele>390.5</ele>
        <time>2020-02-09T13:14:21Z</time>
      </trkpt>
      <trkpt lat="42.4565220" lon="-2.4413740">
        <ele>390.4</ele>
        <time>2020-02-09T13:14:22Z</time>
      </trkpt>
      <trkpt lat="42.4565900" lon="-2.4413730">
        <ele>390.1</ele>
        <time>2020-02-09T13:14:23Z</time>
      </trkpt>
      <trkpt lat="42.4566540" lon="-2.4413840">
        <ele>389.9</ele>
        <time>2020-02-09T13:14:24Z</time>
      </trkpt>
      <trkpt lat="42.4567190" lon="-2.4413950">
        <ele>389.7</ele>
        <time>2020-02-09T13:14:25Z</time>
      </trkpt>
      <trkpt lat="42.4567880" lon="-2.4414060">
        <ele>389.5</ele>
        <time>2020-02-09T13:14:26Z</time>
      </trkpt>
      <trkpt lat="42.4568530" lon="-2.4414110">
        <ele>389.3</ele>
        <time>2020-02-09T13:14:27Z</time>
      </trkpt>
      <trkpt lat="42.4569170" lon="-2.4414220">
        <ele>389.1</ele>
        <time>2020-02-09T13:14:28Z</time>
      </trkpt>
      <trkpt lat="42.4569820" lon="-2.4414320">
        <ele>388.9</ele>
        <time>2020-02-09T13:14:29Z</time>
      </trkpt>
      <trkpt lat="42.4570460" lon="-2.4412290">
        <ele>388.7</ele>
        <time>2020-02-09T13:14:30Z</time>
      </trkpt>
      <trkpt lat="42.4571000" lon="-2.4412110">
        <ele>388.7</ele>
        <time>2020-02-09T13:14:31Z</time>
      </trkpt>
      <trkpt lat="42.4571460" lon="-2.4413140">
        <ele>388.6</ele>
        <time>2020-02-09T13:14:32Z</time>
      </trkpt>
      <trkpt lat="42.4571770" lon="-2.4413540">
        <ele>388.7</ele>
        <time>2020-02-09T13:14:33Z</time>
      </trkpt>
      <trkpt lat="42.4572200" lon="-2.4413720">
        <ele>388.7</ele>
        <time>2020-02-09T13:14:34Z</time>
      </trkpt>
      <trkpt lat="42.4572950" lon="-2.4414730">
        <ele>388.9</ele>
        <time>2020-02-09T13:14:35Z</time>
      </trkpt>
      <trkpt lat="42.4573440" lon="-2.4415130">
        <ele>388.9</ele>
        <time>2020-02-09T13:14:36Z</time>
      </trkpt>
      <trkpt lat="42.4573700" lon="-2.4414630">
        <ele>389.3</ele>
        <time>2020-02-09T13:14:37Z</time>
      </trkpt>
      <trkpt lat="42.4574270" lon="-2.4414720">
        <ele>389.3</ele>
        <time>2020-02-09T13:14:38Z</time>
      </trkpt>
      <trkpt lat="42.4574980" lon="-2.4414580">
        <ele>389.3</ele>
        <time>2020-02-09T13:14:39Z</time>
      </trkpt>
      <trkpt lat="42.4575560" lon="-2.4414590">
        <ele>389.5</ele>
        <time>2020-02-09T13:14:40Z</time>
      </trkpt>
      <trkpt lat="42.4576090" lon="-2.4414650">
        <ele>389.7</ele>
        <time>2020-02-09T13:14:41Z</time>
      </trkpt>
      <trkpt lat="42.4576630" lon="-2.4414750">
        <ele>389.8</ele>
        <time>2020-02-09T13:14:42Z</time>
      </trkpt>
      <trkpt lat="42.4577630" lon="-2.4415320">
        <ele>390.1</ele>
        <time>2020-02-09T13:14:43Z</time>
      </trkpt>
      <trkpt lat="42.4578140" lon="-2.4415580">
        <ele>390.2</ele>
        <time>2020-02-09T13:14:44Z</time>
      </trkpt>
      <trkpt lat="42.4578650" lon="-2.4415510">
        <ele>390.4</ele>
        <time>2020-02-09T13:14:46Z</time>
      </trkpt>
      <trkpt lat="42.4579170" lon="-2.4415620">
        <ele>390.6</ele>
        <time>2020-02-09T13:14:47Z</time>
      </trkpt>
      <trkpt lat="42.4579630" lon="-2.4415830">
        <ele>390.7</ele>
        <time>2020-02-09T13:14:48Z</time>
      </trkpt>
      <trkpt lat="42.4580120" lon="-2.4415990">
        <ele>391.2</ele>
        <time>2020-02-09T13:14:49Z</time>
      </trkpt>
      <trkpt lat="42.4580600" lon="-2.4416100">
        <ele>391.4</ele>
        <time>2020-02-09T13:14:50Z</time>
      </trkpt>
      <trkpt lat="42.4581080" lon="-2.4416260">
        <ele>391.6</ele>
        <time>2020-02-09T13:14:51Z</time>
      </trkpt>
      <trkpt lat="42.4581560" lon="-2.4416420">
        <ele>391.8</ele>
        <time>2020-02-09T13:14:52Z</time>
      </trkpt>
      <trkpt lat="42.4582220" lon="-2.4416730">
        <ele>392.1</ele>
        <time>2020-02-09T13:14:53Z</time>
      </trkpt>
      <trkpt lat="42.4582510" lon="-2.4416270">
        <ele>392.3</ele>
        <time>2020-02-09T13:14:54Z</time>
      </trkpt>
      <trkpt lat="42.4583050" lon="-2.4416240">
        <ele>392.6</ele>
        <time>2020-02-09T13:14:55Z</time>
      </trkpt>
      <trkpt lat="42.4583580" lon="-2.4415840">
        <ele>393.0</ele>
        <time>2020-02-09T13:14:56Z</time>
      </trkpt>
      <trkpt lat="42.4584190" lon="-2.4415760">
        <ele>393.3</ele>
        <time>2020-02-09T13:14:57Z</time>
      </trkpt>
      <trkpt lat="42.4584770" lon="-2.4415670">
        <ele>393.6</ele>
        <time>2020-02-09T13:14:58Z</time>
      </trkpt>
      <trkpt lat="42.4585320" lon="-2.4415560">
        <ele>393.6</ele>
        <time>2020-02-09T13:14:59Z</time>
      </trkpt>
      <trkpt lat="42.4585910" lon="-2.4415500">
        <ele>394.9</ele>
        <time>2020-02-09T13:15:00Z</time>
      </trkpt>
      <trkpt lat="42.4586500" lon="-2.4415400">
        <ele>395.8</ele>
        <time>2020-02-09T13:15:01Z</time>
      </trkpt>
      <trkpt lat="42.4587090" lon="-2.4415340">
        <ele>396.6</ele>
        <time>2020-02-09T13:15:02Z</time>
      </trkpt>
      <trkpt lat="42.4588880" lon="-2.4418800">
        <ele>396.8</ele>
        <time>2020-02-09T13:15:04Z</time>
      </trkpt>
      <trkpt lat="42.4589700" lon="-2.4418090">
        <ele>396.8</ele>
        <time>2020-02-09T13:15:05Z</time>
      </trkpt>
      <trkpt lat="42.4589840" lon="-2.4417490">
        <ele>396.8</ele>
        <time>2020-02-09T13:15:06Z</time>
      </trkpt>
      <trkpt lat="42.4590390" lon="-2.4417310">
        <ele>396.8</ele>
        <time>2020-02-09T13:15:07Z</time>
      </trkpt>
      <trkpt lat="42.4591180" lon="-2.4417320">
        <ele>396.8</ele>
        <time>2020-02-09T13:15:09Z</time>
      </trkpt>
      <trkpt lat="42.4591990" lon="-2.4417050">
        <ele>396.7</ele>
        <time>2020-02-09T13:15:10Z</time>
      </trkpt>
      <trkpt lat="42.4592690" lon="-2.4416960">
        <ele>396.5</ele>
        <time>2020-02-09T13:15:11Z</time>
      </trkpt>
      <trkpt lat="42.4593300" lon="-2.4416810">
        <ele>396.4</ele>
        <time>2020-02-09T13:15:12Z</time>
      </trkpt>
      <trkpt lat="42.4593910" lon="-2.4416660">
        <ele>396.3</ele>
        <time>2020-02-09T13:15:13Z</time>
      </trkpt>
      <trkpt lat="42.4594650" lon="-2.4416740">
        <ele>396.1</ele>
        <time>2020-02-09T13:15:14Z</time>
      </trkpt>
      <trkpt lat="42.4595240" lon="-2.4416580">
        <ele>396.1</ele>
        <time>2020-02-09T13:15:15Z</time>
      </trkpt>
      <trkpt lat="42.4595890" lon="-2.4416470">
        <ele>396.1</ele>
        <time>2020-02-09T13:15:16Z</time>
      </trkpt>
      <trkpt lat="42.4596480" lon="-2.4416310">
        <ele>396.3</ele>
        <time>2020-02-09T13:15:17Z</time>
      </trkpt>
      <trkpt lat="42.4596960" lon="-2.4415290">
        <ele>396.6</ele>
        <time>2020-02-09T13:15:18Z</time>
      </trkpt>
      <trkpt lat="42.4597500" lon="-2.4415020">
        <ele>396.8</ele>
        <time>2020-02-09T13:15:19Z</time>
      </trkpt>
      <trkpt lat="42.4600510" lon="-2.4412170">
        <ele>396.8</ele>
        <time>2020-02-09T13:15:21Z</time>
      </trkpt>
      <trkpt lat="42.4596340" lon="-2.4412310">
        <ele>396.7</ele>
        <time>2020-02-09T13:15:23Z</time>
      </trkpt>
      <trkpt lat="42.4598820" lon="-2.4411750">
        <ele>396.5</ele>
        <time>2020-02-09T13:15:30Z</time>
      </trkpt>
      <trkpt lat="42.4600870" lon="-2.4410780">
        <ele>396.3</ele>
        <time>2020-02-09T13:16:15Z</time>
      </trkpt>
      <trkpt lat="42.4602910" lon="-2.4409820">
        <ele>396.1</ele>
        <time>2020-02-09T13:16:16Z</time>
      </trkpt>
      <trkpt lat="42.4603630" lon="-2.4409800">
        <ele>395.9</ele>
        <time>2020-02-09T13:16:17Z</time>
      </trkpt>
      <trkpt lat="42.4604400" lon="-2.4409660">
        <ele>395.8</ele>
        <time>2020-02-09T13:16:18Z</time>
      </trkpt>
      <trkpt lat="42.4608750" lon="-2.4411170">
        <ele>395.5</ele>
        <time>2020-02-09T13:16:20Z</time>
      </trkpt>
      <trkpt lat="42.4610160" lon="-2.4411770">
        <ele>395.4</ele>
        <time>2020-02-09T13:16:21Z</time>
      </trkpt>
      <trkpt lat="42.4610020" lon="-2.4409650">
        <ele>395.4</ele>
        <time>2020-02-09T13:16:22Z</time>
      </trkpt>
      <trkpt lat="42.4610480" lon="-2.4408960">
        <ele>395.3</ele>
        <time>2020-02-09T13:16:23Z</time>
      </trkpt>
      <trkpt lat="42.4611040" lon="-2.4408840">
        <ele>395.3</ele>
        <time>2020-02-09T13:16:24Z</time>
      </trkpt>
      <trkpt lat="42.4611650" lon="-2.4408120">
        <ele>395.3</ele>
        <time>2020-02-09T13:16:25Z</time>
      </trkpt>
      <trkpt lat="42.4612100" lon="-2.4408560">
        <ele>395.3</ele>
        <time>2020-02-09T13:16:26Z</time>
      </trkpt>
      <trkpt lat="42.4612310" lon="-2.4408290">
        <ele>395.3</ele>
        <time>2020-02-09T13:16:27Z</time>
      </trkpt>
      <trkpt lat="42.4612680" lon="-2.4408130">
        <ele>395.3</ele>
        <time>2020-02-09T13:16:28Z</time>
      </trkpt>
      <trkpt lat="42.4613090" lon="-2.4408180">
        <ele>395.3</ele>
        <time>2020-02-09T13:16:29Z</time>
      </trkpt>
      <trkpt lat="42.4613560" lon="-2.4408160">
        <ele>395.3</ele>
        <time>2020-02-09T13:16:30Z</time>
      </trkpt>
      <trkpt lat="42.4613960" lon="-2.4408200">
        <ele>395.3</ele>
        <time>2020-02-09T13:16:31Z</time>
      </trkpt>
      <trkpt lat="42.4612250" lon="-2.4406430">
        <ele>395.3</ele>
        <time>2020-02-09T13:16:33Z</time>
      </trkpt>
      <trkpt lat="42.4612600" lon="-2.4406200">
        <ele>395.3</ele>
        <time>2020-02-09T13:16:36Z</time>
      </trkpt>
      <trkpt lat="42.4612750" lon="-2.4406300">
        <ele>395.3</ele>
        <time>2020-02-09T13:16:48Z</time>
      </trkpt>
      <trkpt lat="42.4612910" lon="-2.4406390">
        <ele>395.2</ele>
        <time>2020-02-09T13:16:51Z</time>
      </trkpt>
      <trkpt lat="42.4613060" lon="-2.4406490">
        <ele>395.2</ele>
        <time>2020-02-09T13:16:52Z</time>
      </trkpt>
      <trkpt lat="42.4612830" lon="-2.4406000">
        <ele>395.2</ele>
        <time>2020-02-09T13:16:55Z</time>
      </trkpt>
      <trkpt lat="42.4613210" lon="-2.4405930">
        <ele>395.2</ele>
        <time>2020-02-09T13:16:56Z</time>
      </trkpt>
      <trkpt lat="42.4613320" lon="-2.4406220">
        <ele>395.2</ele>
        <time>2020-02-09T13:17:29Z</time>
      </trkpt>
      <trkpt lat="42.4612970" lon="-2.4406190">
        <ele>395.2</ele>
        <time>2020-02-09T13:17:30Z</time>
      </trkpt>
      <trkpt lat="42.4613540" lon="-2.4406270">
        <ele>395.1</ele>
        <time>2020-02-09T13:17:48Z</time>
      </trkpt>
      <trkpt lat="42.4613730" lon="-2.4406440">
        <ele>395.1</ele>
        <time>2020-02-09T13:17:49Z</time>
      </trkpt>
      <trkpt lat="42.4613750" lon="-2.4405630">
        <ele>395.1</ele>
        <time>2020-02-09T13:17:50Z</time>
      </trkpt>
      <trkpt lat="42.4614200" lon="-2.4405080">
        <ele>395.0</ele>
        <time>2020-02-09T13:17:51Z</time>
      </trkpt>
      <trkpt lat="42.4614470" lon="-2.4404690">
        <ele>395.0</ele>
        <time>2020-02-09T13:17:52Z</time>
      </trkpt>
      <trkpt lat="42.4615130" lon="-2.4404200">
        <ele>394.9</ele>
        <time>2020-02-09T13:17:54Z</time>
      </trkpt>
      <trkpt lat="42.4615570" lon="-2.4404030">
        <ele>394.8</ele>
        <time>2020-02-09T13:17:55Z</time>
      </trkpt>
      <trkpt lat="42.4615840" lon="-2.4403730">
        <ele>394.7</ele>
        <time>2020-02-09T13:17:56Z</time>
      </trkpt>
      <trkpt lat="42.4616890" lon="-2.4402930">
        <ele>394.1</ele>
        <time>2020-02-09T13:17:57Z</time>
      </trkpt>
      <trkpt lat="42.4618000" lon="-2.4402310">
        <ele>393.6</ele>
        <time>2020-02-09T13:17:58Z</time>
      </trkpt>
      <trkpt lat="42.4618540" lon="-2.4401680">
        <ele>393.3</ele>
        <time>2020-02-09T13:17:59Z</time>
      </trkpt>
      <trkpt lat="42.4619610" lon="-2.4401590">
        <ele>393.1</ele>
        <time>2020-02-09T13:18:00Z</time>
      </trkpt>
      <trkpt lat="42.4620490" lon="-2.4401020">
        <ele>392.9</ele>
        <time>2020-02-09T13:18:01Z</time>
      </trkpt>
      <trkpt lat="42.4621480" lon="-2.4401080">
        <ele>392.7</ele>
        <time>2020-02-09T13:18:02Z</time>
      </trkpt>
      <trkpt lat="42.4622270" lon="-2.4401200">
        <ele>392.5</ele>
        <time>2020-02-09T13:18:03Z</time>
      </trkpt>
      <trkpt lat="42.4622800" lon="-2.4400820">
        <ele>392.3</ele>
        <time>2020-02-09T13:18:04Z</time>
      </trkpt>
      <trkpt lat="42.4623630" lon="-2.4400500">
        <ele>392.1</ele>
        <time>2020-02-09T13:18:05Z</time>
      </trkpt>
      <trkpt lat="42.4624370" lon="-2.4400180">
        <ele>391.9</ele>
        <time>2020-02-09T13:18:06Z</time>
      </trkpt>
      <trkpt lat="42.4625060" lon="-2.4399860">
        <ele>391.7</ele>
        <time>2020-02-09T13:18:07Z</time>
      </trkpt>
      <trkpt lat="42.4625770" lon="-2.4399530">
        <ele>391.5</ele>
        <time>2020-02-09T13:18:08Z</time>
      </trkpt>
      <trkpt lat="42.4626460" lon="-2.4399200">
        <ele>391.3</ele>
        <time>2020-02-09T13:18:09Z</time>
      </trkpt>
      <trkpt lat="42.4627130" lon="-2.4398890">
        <ele>391.2</ele>
        <time>2020-02-09T13:18:10Z</time>
      </trkpt>
      <trkpt lat="42.4628500" lon="-2.4398230">
        <ele>391.0</ele>
        <time>2020-02-09T13:18:12Z</time>
      </trkpt>
      <trkpt lat="42.4629150" lon="-2.4397910">
        <ele>390.9</ele>
        <time>2020-02-09T13:18:13Z</time>
      </trkpt>
      <trkpt lat="42.4629840" lon="-2.4397640">
        <ele>390.9</ele>
        <time>2020-02-09T13:18:14Z</time>
      </trkpt>
      <trkpt lat="42.4630030" lon="-2.4398180">
        <ele>390.9</ele>
        <time>2020-02-09T13:18:15Z</time>
      </trkpt>
      <trkpt lat="42.4630610" lon="-2.4397910">
        <ele>390.8</ele>
        <time>2020-02-09T13:18:16Z</time>
      </trkpt>
      <trkpt lat="42.4631230" lon="-2.4397450">
        <ele>390.8</ele>
        <time>2020-02-09T13:18:17Z</time>
      </trkpt>
      <trkpt lat="42.4631790" lon="-2.4396980">
        <ele>390.8</ele>
        <time>2020-02-09T13:18:18Z</time>
      </trkpt>
      <trkpt lat="42.4632330" lon="-2.4396810">
        <ele>390.8</ele>
        <time>2020-02-09T13:18:19Z</time>
      </trkpt>
      <trkpt lat="42.4632910" lon="-2.4396690">
        <ele>390.8</ele>
        <time>2020-02-09T13:18:20Z</time>
      </trkpt>
      <trkpt lat="42.4633650" lon="-2.4396370">
        <ele>390.7</ele>
        <time>2020-02-09T13:18:21Z</time>
      </trkpt>
      <trkpt lat="42.4634350" lon="-2.4396060">
        <ele>390.6</ele>
        <time>2020-02-09T13:18:22Z</time>
      </trkpt>
      <trkpt lat="42.4634830" lon="-2.4395760">
        <ele>390.5</ele>
        <time>2020-02-09T13:18:23Z</time>
      </trkpt>
      <trkpt lat="42.4635500" lon="-2.4395970">
        <ele>390.5</ele>
        <time>2020-02-09T13:18:24Z</time>
      </trkpt>
      <trkpt lat="42.4636120" lon="-2.4396050">
        <ele>390.5</ele>
        <time>2020-02-09T13:18:25Z</time>
      </trkpt>
      <trkpt lat="42.4636740" lon="-2.4396100">
        <ele>390.5</ele>
        <time>2020-02-09T13:18:26Z</time>
      </trkpt>
      <trkpt lat="42.4637340" lon="-2.4396090">
        <ele>390.6</ele>
        <time>2020-02-09T13:18:27Z</time>
      </trkpt>
      <trkpt lat="42.4637990" lon="-2.4396090">
        <ele>390.7</ele>
        <time>2020-02-09T13:18:28Z</time>
      </trkpt>
      <trkpt lat="42.4638620" lon="-2.4396100">
        <ele>390.8</ele>
        <time>2020-02-09T13:18:29Z</time>
      </trkpt>
      <trkpt lat="42.4639230" lon="-2.4396090">
        <ele>390.9</ele>
        <time>2020-02-09T13:18:30Z</time>
      </trkpt>
      <trkpt lat="42.4639830" lon="-2.4396080">
        <ele>390.9</ele>
        <time>2020-02-09T13:18:31Z</time>
      </trkpt>
      <trkpt lat="42.4641060" lon="-2.4393890">
        <ele>390.8</ele>
        <time>2020-02-09T13:18:33Z</time>
      </trkpt>
      <trkpt lat="42.4641860" lon="-2.4393430">
        <ele>390.8</ele>
        <time>2020-02-09T13:18:34Z</time>
      </trkpt>
      <trkpt lat="42.4642430" lon="-2.4393590">
        <ele>390.7</ele>
        <time>2020-02-09T13:18:35Z</time>
      </trkpt>
      <trkpt lat="42.4643230" lon="-2.4393400">
        <ele>390.6</ele>
        <time>2020-02-09T13:18:36Z</time>
      </trkpt>
      <trkpt lat="42.4643930" lon="-2.4393140">
        <ele>390.6</ele>
        <time>2020-02-09T13:18:37Z</time>
      </trkpt>
      <trkpt lat="42.4644960" lon="-2.4392800">
        <ele>390.4</ele>
        <time>2020-02-09T13:18:38Z</time>
      </trkpt>
      <trkpt lat="42.4645660" lon="-2.4392480">
        <ele>390.4</ele>
        <time>2020-02-09T13:18:39Z</time>
      </trkpt>
      <trkpt lat="42.4646440" lon="-2.4390580">
        <ele>390.2</ele>
        <time>2020-02-09T13:18:40Z</time>
      </trkpt>
      <trkpt lat="42.4647160" lon="-2.4389900">
        <ele>390.0</ele>
        <time>2020-02-09T13:18:42Z</time>
      </trkpt>
      <trkpt lat="42.4647850" lon="-2.4389440">
        <ele>389.9</ele>
        <time>2020-02-09T13:18:43Z</time>
      </trkpt>
      <trkpt lat="42.4648400" lon="-2.4389010">
        <ele>389.8</ele>
        <time>2020-02-09T13:18:44Z</time>
      </trkpt>
      <trkpt lat="42.4649030" lon="-2.4388560">
        <ele>389.8</ele>
        <time>2020-02-09T13:18:45Z</time>
      </trkpt>
      <trkpt lat="42.4649620" lon="-2.4388120">
        <ele>389.7</ele>
        <time>2020-02-09T13:18:46Z</time>
      </trkpt>
      <trkpt lat="42.4650250" lon="-2.4387680">
        <ele>389.7</ele>
        <time>2020-02-09T13:18:47Z</time>
      </trkpt>
      <trkpt lat="42.4650740" lon="-2.4387080">
        <ele>389.6</ele>
        <time>2020-02-09T13:18:48Z</time>
      </trkpt>
      <trkpt lat="42.4652730" lon="-2.4386080">
        <ele>389.5</ele>
        <time>2020-02-09T13:18:51Z</time>
      </trkpt>
      <trkpt lat="42.4652970" lon="-2.4385480">
        <ele>389.5</ele>
        <time>2020-02-09T13:18:52Z</time>
      </trkpt>
      <trkpt lat="42.4651310" lon="-2.4388830">
        <ele>389.3</ele>
        <time>2020-02-09T13:18:55Z</time>
      </trkpt>
      <trkpt lat="42.4651600" lon="-2.4387370">
        <ele>389.3</ele>
        <time>2020-02-09T13:18:56Z</time>
      </trkpt>
      <trkpt lat="42.4650310" lon="-2.4388140">
        <ele>389.2</ele>
        <time>2020-02-09T13:18:57Z</time>
      </trkpt>
      <trkpt lat="42.4650600" lon="-2.4389060">
        <ele>389.2</ele>
        <time>2020-02-09T13:18:58Z</time>
      </trkpt>
      <trkpt lat="42.4650290" lon="-2.4388700">
        <ele>389.1</ele>
        <time>2020-02-09T13:19:02Z</time>
      </trkpt>
      <trkpt lat="42.4650290" lon="-2.4388690">
        <ele>389.1</ele>
        <time>2020-02-09T13:19:22Z</time>
      </trkpt>
      <trkpt lat="42.4650280" lon="-2.4388680">
        <ele>389.1</ele>
        <time>2020-02-09T13:19:23Z</time>
      </trkpt>
      <trkpt lat="42.4650720" lon="-2.4388790">
        <ele>389.1</ele>
        <time>2020-02-09T13:19:29Z</time>
      </trkpt>
      <trkpt lat="42.4657750" lon="-2.4384720">
        <ele>387.4</ele>
        <time>2020-02-09T13:20:15Z</time>
      </trkpt>
      <trkpt lat="42.4661470" lon="-2.4382210">
        <ele>387.8</ele>
        <time>2020-02-09T13:20:17Z</time>
      </trkpt>
      <trkpt lat="42.4663720" lon="-2.4382970">
        <ele>388.2</ele>
        <time>2020-02-09T13:20:18Z</time>
      </trkpt>
      <trkpt lat="42.4664560" lon="-2.4382720">
        <ele>388.4</ele>
        <time>2020-02-09T13:20:19Z</time>
      </trkpt>
      <trkpt lat="42.4665400" lon="-2.4382460">
        <ele>388.4</ele>
        <time>2020-02-09T13:20:20Z</time>
      </trkpt>
      <trkpt lat="42.4668200" lon="-2.4381660">
        <ele>388.7</ele>
        <time>2020-02-09T13:20:22Z</time>
      </trkpt>
      <trkpt lat="42.4669000" lon="-2.4381470">
        <ele>388.9</ele>
        <time>2020-02-09T13:20:23Z</time>
      </trkpt>
      <trkpt lat="42.4669740" lon="-2.4381240">
        <ele>388.9</ele>
        <time>2020-02-09T13:20:24Z</time>
      </trkpt>
      <trkpt lat="42.4670720" lon="-2.4381010">
        <ele>389.0</ele>
        <time>2020-02-09T13:20:25Z</time>
      </trkpt>
      <trkpt lat="42.4671420" lon="-2.4380740">
        <ele>389.1</ele>
        <time>2020-02-09T13:20:26Z</time>
      </trkpt>
      <trkpt lat="42.4672170" lon="-2.4380530">
        <ele>389.2</ele>
        <time>2020-02-09T13:20:27Z</time>
      </trkpt>
      <trkpt lat="42.4672870" lon="-2.4380260">
        <ele>389.3</ele>
        <time>2020-02-09T13:20:28Z</time>
      </trkpt>
      <trkpt lat="42.4673620" lon="-2.4379990">
        <ele>389.3</ele>
        <time>2020-02-09T13:20:29Z</time>
      </trkpt>
      <trkpt lat="42.4674310" lon="-2.4379780">
        <ele>389.2</ele>
        <time>2020-02-09T13:20:30Z</time>
      </trkpt>
      <trkpt lat="42.4675070" lon="-2.4379510">
        <ele>389.1</ele>
        <time>2020-02-09T13:20:31Z</time>
      </trkpt>
      <trkpt lat="42.4675760" lon="-2.4379300">
        <ele>388.9</ele>
        <time>2020-02-09T13:20:32Z</time>
      </trkpt>
      <trkpt lat="42.4676460" lon="-2.4379030">
        <ele>388.8</ele>
        <time>2020-02-09T13:20:33Z</time>
      </trkpt>
      <trkpt lat="42.4685360" lon="-2.4376720">
        <ele>386.3</ele>
        <time>2020-02-09T13:20:43Z</time>
      </trkpt>
      <trkpt lat="42.4685310" lon="-2.4375100">
        <ele>385.7</ele>
        <time>2020-02-09T13:20:44Z</time>
      </trkpt>
      <trkpt lat="42.4685760" lon="-2.4375010">
        <ele>385.4</ele>
        <time>2020-02-09T13:20:46Z</time>
      </trkpt>
      <trkpt lat="42.4686160" lon="-2.4375100">
        <ele>385.3</ele>
        <time>2020-02-09T13:20:47Z</time>
      </trkpt>
      <trkpt lat="42.4686490" lon="-2.4375240">
        <ele>385.3</ele>
        <time>2020-02-09T13:20:48Z</time>
      </trkpt>
      <trkpt lat="42.4686870" lon="-2.4375340">
        <ele>385.3</ele>
        <time>2020-02-09T13:20:49Z</time>
      </trkpt>
      <trkpt lat="42.4687250" lon="-2.4375430">
        <ele>385.3</ele>
        <time>2020-02-09T13:20:50Z</time>
      </trkpt>
      <trkpt lat="42.4686160" lon="-2.4374810">
        <ele>385.3</ele>
        <time>2020-02-09T13:20:51Z</time>
      </trkpt>
      <trkpt lat="42.4685380" lon="-2.4374900">
        <ele>385.4</ele>
        <time>2020-02-09T13:20:55Z</time>
      </trkpt>
      <trkpt lat="42.4684940" lon="-2.4374790">
        <ele>385.4</ele>
        <time>2020-02-09T13:20:58Z</time>
      </trkpt>
      <trkpt lat="42.4684670" lon="-2.4374900">
        <ele>385.7</ele>
        <time>2020-02-09T13:21:01Z</time>
      </trkpt>
      <trkpt lat="42.4684400" lon="-2.4375000">
        <ele>385.8</ele>
        <time>2020-02-09T13:21:04Z</time>
      </trkpt>
      <trkpt lat="42.4684130" lon="-2.4375060">
        <ele>386.0</ele>
        <time>2020-02-09T13:21:07Z</time>
      </trkpt>
      <trkpt lat="42.4681820" lon="-2.4376510">
        <ele>387.1</ele>
        <time>2020-02-09T13:21:12Z</time>
      </trkpt>
      <trkpt lat="42.4681650" lon="-2.4376110">
        <ele>387.2</ele>
        <time>2020-02-09T13:21:16Z</time>
      </trkpt>
    </trkseg>
  </trk>
</gpx>
